<?xml version='1.0' encoding='UTF-8'?><gpx version="1.1" creator="JPX - https://github.com/jenetics/jpx" xmlns="http://www.topografix.com/GPX/1/1"><trk><trkseg><trkpt lat="43.6672212" lon="10.6496391"><ele>15.0</ele><time>2026-04-04T07:44:28.034Z</time></trkpt><trkpt lat="43.6671497" lon="10.6496185"><ele>15.0</ele><time>2026-04-04T07:44:29.055Z</time></trkpt><trkpt lat="43.6670471" lon="10.6495734"><ele>15.0</ele><time>2026-04-04T07:44:31.053Z</time></trkpt><trkpt lat="43.6669837" lon="10.6495502"><ele>15.0</ele><time>2026-04-04T07:44:33.05Z</time></trkpt><trkpt lat="43.6669254" lon="10.6495149"><ele>15.0</ele><time>2026-04-04T07:44:35.054Z</time></trkpt><trkpt lat="43.666866" lon="10.6495733"><ele>15.0</ele><time>2026-04-04T07:44:38.053Z</time></trkpt><trkpt lat="43.6668559" lon="10.6496644"><ele>15.0</ele><time>2026-04-04T07:44:41.06Z</time></trkpt><trkpt lat="43.6668437" lon="10.6497649"><ele>14.833333333333334</ele><time>2026-04-04T07:51:42.044Z</time></trkpt><trkpt lat="43.6667801" lon="10.6498277"><ele>14.666666666666668</ele><time>2026-04-04T07:57:02.064Z</time></trkpt><trkpt lat="43.6667578" lon="10.6499096"><ele>14.5</ele><time>2026-04-04T07:57:05.042Z</time></trkpt><trkpt lat="43.6667843" lon="10.6499979"><ele>14.333333333333334</ele><time>2026-04-04T08:02:20.045Z</time></trkpt><trkpt lat="43.6668059" lon="10.6500844"><ele>14.166666666666668</ele><time>2026-04-04T08:02:22.042Z</time></trkpt><trkpt lat="43.6668085" lon="10.6501858"><ele>14.0</ele><time>2026-04-04T08:02:24.067Z</time></trkpt><trkpt lat="43.6668169" lon="10.6503494"><ele>14.0</ele><time>2026-04-04T08:02:26.063Z</time></trkpt><trkpt lat="43.666828" lon="10.6504608"><ele>14.0</ele><time>2026-04-04T08:02:27.061Z</time></trkpt><trkpt lat="43.6668276" lon="10.6505763"><ele>14.0</ele><time>2026-04-04T08:02:28.064Z</time></trkpt><trkpt lat="43.6668149" lon="10.6506765"><ele>14.0</ele><time>2026-04-04T08:02:29.046Z</time></trkpt><trkpt lat="43.6667971" lon="10.6507689"><ele>14.0</ele><time>2026-04-04T08:02:30.055Z</time></trkpt><trkpt lat="43.6667821" lon="10.650858"><ele>14.0</ele><time>2026-04-04T08:02:31.068Z</time></trkpt><trkpt lat="43.6667663" lon="10.6509507"><ele>14.0</ele><time>2026-04-04T08:02:32.073Z</time></trkpt><trkpt lat="43.6667523" lon="10.6510461"><ele>13.833333333333334</ele><time>2026-04-04T08:02:33.056Z</time></trkpt><trkpt lat="43.6667459" lon="10.651145"><ele>13.666666666666668</ele><time>2026-04-04T08:02:34.046Z</time></trkpt><trkpt lat="43.6667425" lon="10.6512392"><ele>13.5</ele><time>2026-04-04T08:02:35.053Z</time></trkpt><trkpt lat="43.666736" lon="10.6513389"><ele>13.333333333333332</ele><time>2026-04-04T08:02:36.069Z</time></trkpt><trkpt lat="43.6667262" lon="10.6514449"><ele>13.166666666666666</ele><time>2026-04-04T08:02:37.046Z</time></trkpt><trkpt lat="43.6667081" lon="10.6515682"><ele>13.0</ele><time>2026-04-04T08:02:38.069Z</time></trkpt><trkpt lat="43.6666866" lon="10.6516995"><ele>12.999999999999998</ele><time>2026-04-04T08:02:39.044Z</time></trkpt><trkpt lat="43.6666653" lon="10.6518229"><ele>13.0</ele><time>2026-04-04T08:02:40.065Z</time></trkpt><trkpt lat="43.6666453" lon="10.6519348"><ele>13.0</ele><time>2026-04-04T08:02:41.054Z</time></trkpt><trkpt lat="43.6666242" lon="10.652022"><ele>13.0</ele><time>2026-04-04T08:02:42.08Z</time></trkpt><trkpt lat="43.6665872" lon="10.6521407"><ele>12.999999999999998</ele><time>2026-04-04T08:02:44.056Z</time></trkpt><trkpt lat="43.666522" lon="10.6522226"><ele>13.0</ele><time>2026-04-04T08:02:46.052Z</time></trkpt><trkpt lat="43.6664445" lon="10.6522309"><ele>13.0</ele><time>2026-04-04T08:02:48.056Z</time></trkpt><trkpt lat="43.6663721" lon="10.6522308"><ele>13.0</ele><time>2026-04-04T08:02:52.048Z</time></trkpt><trkpt lat="43.6663109" lon="10.652309"><ele>13.0</ele><time>2026-04-04T08:02:53.059Z</time></trkpt><trkpt lat="43.6662634" lon="10.6524157"><ele>13.0</ele><time>2026-04-04T08:02:54.052Z</time></trkpt><trkpt lat="43.6662225" lon="10.6525592"><ele>13.0</ele><time>2026-04-04T08:02:55.041Z</time></trkpt><trkpt lat="43.6661923" lon="10.6527045"><ele>13.2</ele><time>2026-04-04T08:02:56.049Z</time></trkpt><trkpt lat="43.6661574" lon="10.6528454"><ele>13.4</ele><time>2026-04-04T08:02:57.049Z</time></trkpt><trkpt lat="43.6661225" lon="10.6529779"><ele>13.599999999999998</ele><time>2026-04-04T08:02:58.045Z</time></trkpt><trkpt lat="43.6660913" lon="10.6531113"><ele>13.799999999999999</ele><time>2026-04-04T08:02:59.057Z</time></trkpt><trkpt lat="43.6660778" lon="10.6532456"><ele>14.0</ele><time>2026-04-04T08:03:00.05Z</time></trkpt><trkpt lat="43.6660726" lon="10.653387"><ele>14.25</ele><time>2026-04-04T08:03:01.048Z</time></trkpt><trkpt lat="43.6660714" lon="10.653534"><ele>14.5</ele><time>2026-04-04T08:03:02.054Z</time></trkpt><trkpt lat="43.6660768" lon="10.653691"><ele>14.75</ele><time>2026-04-04T08:03:03.043Z</time></trkpt><trkpt lat="43.6660819" lon="10.6538521"><ele>15.0</ele><time>2026-04-04T08:03:04.048Z</time></trkpt><trkpt lat="43.6660929" lon="10.6540117"><ele>14.6</ele><time>2026-04-04T08:03:05.06Z</time></trkpt><trkpt lat="43.6660991" lon="10.6541646"><ele>14.2</ele><time>2026-04-04T08:03:06.057Z</time></trkpt><trkpt lat="43.6661059" lon="10.6543082"><ele>13.8</ele><time>2026-04-04T08:03:07.045Z</time></trkpt><trkpt lat="43.6661099" lon="10.6544501"><ele>13.4</ele><time>2026-04-04T08:03:08.054Z</time></trkpt><trkpt lat="43.6661144" lon="10.6545898"><ele>13.0</ele><time>2026-04-04T08:03:09.049Z</time></trkpt><trkpt lat="43.6661145" lon="10.6547176"><ele>12.999999999999998</ele><time>2026-04-04T08:03:10.049Z</time></trkpt><trkpt lat="43.6661207" lon="10.6548321"><ele>13.0</ele><time>2026-04-04T08:03:11.058Z</time></trkpt><trkpt lat="43.6661256" lon="10.6549446"><ele>13.0</ele><time>2026-04-04T08:03:12.051Z</time></trkpt><trkpt lat="43.6661186" lon="10.6550582"><ele>13.0</ele><time>2026-04-04T08:03:13.049Z</time></trkpt><trkpt lat="43.6660938" lon="10.655172"><ele>12.999999999999998</ele><time>2026-04-04T08:03:14.039Z</time></trkpt><trkpt lat="43.6660477" lon="10.6552811"><ele>13.0</ele><time>2026-04-04T08:03:15.058Z</time></trkpt><trkpt lat="43.6659813" lon="10.6553887"><ele>13.2</ele><time>2026-04-04T08:03:16.041Z</time></trkpt><trkpt lat="43.6659051" lon="10.6554848"><ele>13.4</ele><time>2026-04-04T08:03:17.052Z</time></trkpt><trkpt lat="43.6658205" lon="10.6555605"><ele>13.599999999999998</ele><time>2026-04-04T08:03:18.048Z</time></trkpt><trkpt lat="43.6657356" lon="10.6556183"><ele>13.799999999999999</ele><time>2026-04-04T08:03:19.067Z</time></trkpt><trkpt lat="43.6656459" lon="10.6556786"><ele>14.0</ele><time>2026-04-04T08:03:20.042Z</time></trkpt><trkpt lat="43.6655601" lon="10.6557598"><ele>14.0</ele><time>2026-04-04T08:03:21.048Z</time></trkpt><trkpt lat="43.6654864" lon="10.6558684"><ele>14.0</ele><time>2026-04-04T08:03:22.035Z</time></trkpt><trkpt lat="43.66543" lon="10.6559986"><ele>14.0</ele><time>2026-04-04T08:03:23.059Z</time></trkpt><trkpt lat="43.6653861" lon="10.6561468"><ele>14.0</ele><time>2026-04-04T08:03:24.054Z</time></trkpt><trkpt lat="43.6653472" lon="10.6563251"><ele>14.0</ele><time>2026-04-04T08:03:25.069Z</time></trkpt><trkpt lat="43.6653107" lon="10.6565209"><ele>14.0</ele><time>2026-04-04T08:03:26.045Z</time></trkpt><trkpt lat="43.665274" lon="10.6567219"><ele>14.0</ele><time>2026-04-04T08:03:27.045Z</time></trkpt><trkpt lat="43.6652403" lon="10.6569078"><ele>14.0</ele><time>2026-04-04T08:03:28.04Z</time></trkpt><trkpt lat="43.6652051" lon="10.6570813"><ele>14.0</ele><time>2026-04-04T08:03:29.041Z</time></trkpt><trkpt lat="43.6651762" lon="10.6572359"><ele>13.999999999999998</ele><time>2026-04-04T08:03:30.043Z</time></trkpt><trkpt lat="43.6651483" lon="10.6573769"><ele>13.999999999999998</ele><time>2026-04-04T08:03:31.039Z</time></trkpt><trkpt lat="43.6651225" lon="10.6575025"><ele>14.0</ele><time>2026-04-04T08:03:32.053Z</time></trkpt><trkpt lat="43.665101" lon="10.6576153"><ele>14.0</ele><time>2026-04-04T08:03:33.058Z</time></trkpt><trkpt lat="43.6650638" lon="10.6577182"><ele>14.000000000000002</ele><time>2026-04-04T08:03:34.05Z</time></trkpt><trkpt lat="43.6650126" lon="10.6577993"><ele>14.0</ele><time>2026-04-04T08:03:35.055Z</time></trkpt><trkpt lat="43.6649448" lon="10.6578442"><ele>14.0</ele><time>2026-04-04T08:03:36.036Z</time></trkpt><trkpt lat="43.6648632" lon="10.6578608"><ele>14.0</ele><time>2026-04-04T08:03:37.042Z</time></trkpt><trkpt lat="43.6647713" lon="10.6578507"><ele>14.000000000000002</ele><time>2026-04-04T08:03:38.049Z</time></trkpt><trkpt lat="43.6646723" lon="10.65786"><ele>14.0</ele><time>2026-04-04T08:03:39.053Z</time></trkpt><trkpt lat="43.6645714" lon="10.657877"><ele>14.0</ele><time>2026-04-04T08:03:40.059Z</time></trkpt><trkpt lat="43.6644681" lon="10.6578709"><ele>13.999999999999998</ele><time>2026-04-04T08:03:41.037Z</time></trkpt><trkpt lat="43.6643689" lon="10.6578375"><ele>13.999999999999998</ele><time>2026-04-04T08:03:42.052Z</time></trkpt><trkpt lat="43.6642734" lon="10.6577905"><ele>14.0</ele><time>2026-04-04T08:03:43.065Z</time></trkpt><trkpt lat="43.6641747" lon="10.6577359"><ele>14.0</ele><time>2026-04-04T08:03:44.047Z</time></trkpt><trkpt lat="43.6640651" lon="10.6576781"><ele>14.0</ele><time>2026-04-04T08:03:45.063Z</time></trkpt><trkpt lat="43.6639415" lon="10.6576223"><ele>14.0</ele><time>2026-04-04T08:03:46.051Z</time></trkpt><trkpt lat="43.6638085" lon="10.6575771"><ele>14.0</ele><time>2026-04-04T08:03:47.047Z</time></trkpt><trkpt lat="43.6636693" lon="10.6575418"><ele>14.0</ele><time>2026-04-04T08:03:48.058Z</time></trkpt><trkpt lat="43.6635299" lon="10.6575043"><ele>14.0</ele><time>2026-04-04T08:03:49.053Z</time></trkpt><trkpt lat="43.6633814" lon="10.657489"><ele>14.0</ele><time>2026-04-04T08:03:50.061Z</time></trkpt><trkpt lat="43.6632264" lon="10.6574778"><ele>14.0</ele><time>2026-04-04T08:03:51.063Z</time></trkpt><trkpt lat="43.6630652" lon="10.657475"><ele>14.0</ele><time>2026-04-04T08:03:52.051Z</time></trkpt><trkpt lat="43.6628988" lon="10.657479"><ele>14.0</ele><time>2026-04-04T08:03:53.052Z</time></trkpt><trkpt lat="43.6627286" lon="10.6574859"><ele>14.0</ele><time>2026-04-04T08:03:54.056Z</time></trkpt><trkpt lat="43.6625555" lon="10.6574969"><ele>13.666666666666668</ele><time>2026-04-04T08:03:55.064Z</time></trkpt><trkpt lat="43.662383" lon="10.6575082"><ele>13.333333333333332</ele><time>2026-04-04T08:03:56.039Z</time></trkpt><trkpt lat="43.6622131" lon="10.657518"><ele>13.0</ele><time>2026-04-04T08:03:57.059Z</time></trkpt><trkpt lat="43.6620437" lon="10.6575258"><ele>13.0</ele><time>2026-04-04T08:03:58.047Z</time></trkpt><trkpt lat="43.6618764" lon="10.6575345"><ele>13.0</ele><time>2026-04-04T08:03:59.049Z</time></trkpt><trkpt lat="43.6617107" lon="10.6575413"><ele>13.0</ele><time>2026-04-04T08:04:00.045Z</time></trkpt><trkpt lat="43.6615475" lon="10.6575522"><ele>13.0</ele><time>2026-04-04T08:04:01.062Z</time></trkpt><trkpt lat="43.661387" lon="10.6575643"><ele>13.0</ele><time>2026-04-04T08:04:02.059Z</time></trkpt><trkpt lat="43.6612249" lon="10.6575747"><ele>13.0</ele><time>2026-04-04T08:04:03.036Z</time></trkpt><trkpt lat="43.6610614" lon="10.6575818"><ele>13.0</ele><time>2026-04-04T08:04:04.053Z</time></trkpt><trkpt lat="43.6608945" lon="10.6575924"><ele>13.0</ele><time>2026-04-04T08:04:05.051Z</time></trkpt><trkpt lat="43.6607274" lon="10.6575993"><ele>13.0</ele><time>2026-04-04T08:04:06.06Z</time></trkpt><trkpt lat="43.6605606" lon="10.6576051"><ele>13.0</ele><time>2026-04-04T08:04:07.037Z</time></trkpt><trkpt lat="43.6603913" lon="10.6576116"><ele>13.0</ele><time>2026-04-04T08:04:08.061Z</time></trkpt><trkpt lat="43.6602189" lon="10.6576198"><ele>13.0</ele><time>2026-04-04T08:04:09.059Z</time></trkpt><trkpt lat="43.6600462" lon="10.6576299"><ele>13.0</ele><time>2026-04-04T08:04:10.062Z</time></trkpt><trkpt lat="43.6598734" lon="10.6576411"><ele>13.0</ele><time>2026-04-04T08:04:11.045Z</time></trkpt><trkpt lat="43.6596995" lon="10.6576507"><ele>13.0</ele><time>2026-04-04T08:04:12.077Z</time></trkpt><trkpt lat="43.6595161" lon="10.6576621"><ele>13.666666666666666</ele><time>2026-04-04T08:04:13.046Z</time></trkpt><trkpt lat="43.6593297" lon="10.6576701"><ele>14.333333333333332</ele><time>2026-04-04T08:04:14.065Z</time></trkpt><trkpt lat="43.6591415" lon="10.6576782"><ele>15.0</ele><time>2026-04-04T08:04:15.064Z</time></trkpt><trkpt lat="43.6589481" lon="10.6576905"><ele>15.0</ele><time>2026-04-04T08:04:16.051Z</time></trkpt><trkpt lat="43.6587575" lon="10.6576983"><ele>15.0</ele><time>2026-04-04T08:04:17.062Z</time></trkpt><trkpt lat="43.6585663" lon="10.6577092"><ele>15.0</ele><time>2026-04-04T08:04:18.061Z</time></trkpt><trkpt lat="43.6583825" lon="10.6577174"><ele>15.0</ele><time>2026-04-04T08:04:19.055Z</time></trkpt><trkpt lat="43.6582055" lon="10.6577289"><ele>15.0</ele><time>2026-04-04T08:04:20.059Z</time></trkpt><trkpt lat="43.65804" lon="10.6577397"><ele>15.0</ele><time>2026-04-04T08:04:21.045Z</time></trkpt><trkpt lat="43.6578887" lon="10.6577468"><ele>15.25</ele><time>2026-04-04T08:04:22.059Z</time></trkpt><trkpt lat="43.6577489" lon="10.657755"><ele>15.5</ele><time>2026-04-04T08:04:23.064Z</time></trkpt><trkpt lat="43.6576146" lon="10.6577617"><ele>15.75</ele><time>2026-04-04T08:04:24.066Z</time></trkpt><trkpt lat="43.6574786" lon="10.6577703"><ele>16.0</ele><time>2026-04-04T08:04:25.036Z</time></trkpt><trkpt lat="43.6573326" lon="10.6577749"><ele>16.0</ele><time>2026-04-04T08:04:26.045Z</time></trkpt><trkpt lat="43.6571798" lon="10.6577729"><ele>16.0</ele><time>2026-04-04T08:04:27.043Z</time></trkpt><trkpt lat="43.6570259" lon="10.6577667"><ele>16.0</ele><time>2026-04-04T08:04:28.056Z</time></trkpt><trkpt lat="43.6568723" lon="10.6577503"><ele>16.0</ele><time>2026-04-04T08:04:29.053Z</time></trkpt><trkpt lat="43.6567191" lon="10.6577278"><ele>16.0</ele><time>2026-04-04T08:04:30.069Z</time></trkpt><trkpt lat="43.6565691" lon="10.6576877"><ele>16.0</ele><time>2026-04-04T08:04:31.063Z</time></trkpt><trkpt lat="43.6564227" lon="10.6576306"><ele>16.0</ele><time>2026-04-04T08:04:32.055Z</time></trkpt><trkpt lat="43.6562875" lon="10.6575684"><ele>16.0</ele><time>2026-04-04T08:04:33.035Z</time></trkpt><trkpt lat="43.6561638" lon="10.6574972"><ele>16.0</ele><time>2026-04-04T08:04:34.048Z</time></trkpt><trkpt lat="43.6560456" lon="10.6574181"><ele>16.0</ele><time>2026-04-04T08:04:35.051Z</time></trkpt><trkpt lat="43.6559208" lon="10.6573274"><ele>15.75</ele><time>2026-04-04T08:04:36.053Z</time></trkpt><trkpt lat="43.6557929" lon="10.6572192"><ele>15.5</ele><time>2026-04-04T08:04:37.048Z</time></trkpt><trkpt lat="43.6556678" lon="10.6570954"><ele>15.25</ele><time>2026-04-04T08:04:38.04Z</time></trkpt><trkpt lat="43.655555" lon="10.6569722"><ele>15.0</ele><time>2026-04-04T08:04:39.043Z</time></trkpt><trkpt lat="43.6554574" lon="10.6568538"><ele>15.0</ele><time>2026-04-04T08:04:40.05Z</time></trkpt><trkpt lat="43.6553724" lon="10.656739"><ele>15.0</ele><time>2026-04-04T08:04:41.054Z</time></trkpt><trkpt lat="43.6553003" lon="10.6566224"><ele>15.0</ele><time>2026-04-04T08:04:42.046Z</time></trkpt><trkpt lat="43.6552328" lon="10.656516"><ele>15.0</ele><time>2026-04-04T08:04:43.039Z</time></trkpt><trkpt lat="43.6551632" lon="10.6564122"><ele>15.0</ele><time>2026-04-04T08:04:44.047Z</time></trkpt><trkpt lat="43.6550921" lon="10.6563018"><ele>15.0</ele><time>2026-04-04T08:04:45.04Z</time></trkpt><trkpt lat="43.6550303" lon="10.6561771"><ele>15.0</ele><time>2026-04-04T08:04:46.056Z</time></trkpt><trkpt lat="43.6549882" lon="10.656038"><ele>15.0</ele><time>2026-04-04T08:04:47.041Z</time></trkpt><trkpt lat="43.6549676" lon="10.6558939"><ele>15.0</ele><time>2026-04-04T08:04:48.047Z</time></trkpt><trkpt lat="43.65495" lon="10.6557383"><ele>15.0</ele><time>2026-04-04T08:04:49.056Z</time></trkpt><trkpt lat="43.6549191" lon="10.6555837"><ele>15.0</ele><time>2026-04-04T08:04:50.042Z</time></trkpt><trkpt lat="43.6548755" lon="10.6554391"><ele>15.0</ele><time>2026-04-04T08:04:51.052Z</time></trkpt><trkpt lat="43.6548013" lon="10.6552972"><ele>15.0</ele><time>2026-04-04T08:04:52.043Z</time></trkpt><trkpt lat="43.6547127" lon="10.6551775"><ele>15.0</ele><time>2026-04-04T08:04:53.048Z</time></trkpt><trkpt lat="43.6546222" lon="10.6550729"><ele>15.0</ele><time>2026-04-04T08:04:54.036Z</time></trkpt><trkpt lat="43.6545259" lon="10.6549879"><ele>15.0</ele><time>2026-04-04T08:04:55.048Z</time></trkpt><trkpt lat="43.6544249" lon="10.6549438"><ele>15.0</ele><time>2026-04-04T08:04:56.047Z</time></trkpt><trkpt lat="43.6543227" lon="10.6549294"><ele>15.0</ele><time>2026-04-04T08:04:57.042Z</time></trkpt><trkpt lat="43.6542189" lon="10.6549514"><ele>15.0</ele><time>2026-04-04T08:04:58.039Z</time></trkpt><trkpt lat="43.6541261" lon="10.6550039"><ele>15.0</ele><time>2026-04-04T08:04:59.053Z</time></trkpt><trkpt lat="43.6540458" lon="10.6550725"><ele>15.0</ele><time>2026-04-04T08:05:00.049Z</time></trkpt><trkpt lat="43.6539707" lon="10.6551492"><ele>15.0</ele><time>2026-04-04T08:05:01.052Z</time></trkpt><trkpt lat="43.6538832" lon="10.6552108"><ele>15.0</ele><time>2026-04-04T08:05:02.053Z</time></trkpt><trkpt lat="43.6537811" lon="10.6552336"><ele>15.0</ele><time>2026-04-04T08:05:03.05Z</time></trkpt><trkpt lat="43.6536708" lon="10.6552202"><ele>16.0</ele><time>2026-04-04T08:05:04.05Z</time></trkpt><trkpt lat="43.6535567" lon="10.6551782"><ele>17.0</ele><time>2026-04-04T08:05:05.059Z</time></trkpt><trkpt lat="43.6534343" lon="10.6551393"><ele>18.0</ele><time>2026-04-04T08:05:06.058Z</time></trkpt><trkpt lat="43.6533007" lon="10.6551072"><ele>19.0</ele><time>2026-04-04T08:05:07.054Z</time></trkpt><trkpt lat="43.6531578" lon="10.6550901"><ele>19.0</ele><time>2026-04-04T08:05:08.057Z</time></trkpt><trkpt lat="43.6530091" lon="10.6550857"><ele>19.0</ele><time>2026-04-04T08:05:09.046Z</time></trkpt><trkpt lat="43.6528543" lon="10.6550947"><ele>19.0</ele><time>2026-04-04T08:05:10.05Z</time></trkpt><trkpt lat="43.6527" lon="10.6551186"><ele>20.0</ele><time>2026-04-04T08:05:11.043Z</time></trkpt><trkpt lat="43.6525475" lon="10.6551606"><ele>21.0</ele><time>2026-04-04T08:05:12.077Z</time></trkpt><trkpt lat="43.6523998" lon="10.6552091"><ele>22.0</ele><time>2026-04-04T08:05:13.056Z</time></trkpt><trkpt lat="43.6522547" lon="10.6552733"><ele>22.666666666666664</ele><time>2026-04-04T08:05:14.067Z</time></trkpt><trkpt lat="43.652111" lon="10.6553442"><ele>23.333333333333332</ele><time>2026-04-04T08:05:15.058Z</time></trkpt><trkpt lat="43.6519696" lon="10.6554135"><ele>24.0</ele><time>2026-04-04T08:05:16.065Z</time></trkpt><trkpt lat="43.65183" lon="10.6554816"><ele>24.5</ele><time>2026-04-04T08:05:17.048Z</time></trkpt><trkpt lat="43.6516918" lon="10.6555531"><ele>25.0</ele><time>2026-04-04T08:05:18.052Z</time></trkpt><trkpt lat="43.6515534" lon="10.6556209"><ele>25.5</ele><time>2026-04-04T08:05:19.069Z</time></trkpt><trkpt lat="43.6514183" lon="10.6556884"><ele>26.0</ele><time>2026-04-04T08:05:20.072Z</time></trkpt><trkpt lat="43.6512866" lon="10.6557535"><ele>26.0</ele><time>2026-04-04T08:05:21.063Z</time></trkpt><trkpt lat="43.6511557" lon="10.6558163"><ele>26.0</ele><time>2026-04-04T08:05:22.053Z</time></trkpt><trkpt lat="43.651023" lon="10.6558803"><ele>26.0</ele><time>2026-04-04T08:05:23.06Z</time></trkpt><trkpt lat="43.6508897" lon="10.6559457"><ele>26.0</ele><time>2026-04-04T08:05:24.064Z</time></trkpt><trkpt lat="43.6507531" lon="10.6560104"><ele>26.666666666666664</ele><time>2026-04-04T08:05:25.045Z</time></trkpt><trkpt lat="43.6506059" lon="10.6560645"><ele>27.333333333333336</ele><time>2026-04-04T08:05:26.067Z</time></trkpt><trkpt lat="43.6504496" lon="10.6561071"><ele>28.0</ele><time>2026-04-04T08:05:27.045Z</time></trkpt><trkpt lat="43.6502828" lon="10.6561383"><ele>28.666666666666668</ele><time>2026-04-04T08:05:28.054Z</time></trkpt><trkpt lat="43.6501057" lon="10.6561458"><ele>29.333333333333336</ele><time>2026-04-04T08:05:29.055Z</time></trkpt><trkpt lat="43.6499304" lon="10.6561424"><ele>30.0</ele><time>2026-04-04T08:05:30.059Z</time></trkpt><trkpt lat="43.649757" lon="10.6561272"><ele>30.0</ele><time>2026-04-04T08:05:31.056Z</time></trkpt><trkpt lat="43.6495792" lon="10.6561088"><ele>30.0</ele><time>2026-04-04T08:05:32.055Z</time></trkpt><trkpt lat="43.6494058" lon="10.656078"><ele>30.0</ele><time>2026-04-04T08:05:33.051Z</time></trkpt><trkpt lat="43.649236" lon="10.6560443"><ele>29.333333333333336</ele><time>2026-04-04T08:05:34.046Z</time></trkpt><trkpt lat="43.6490704" lon="10.656019"><ele>28.666666666666668</ele><time>2026-04-04T08:05:35.057Z</time></trkpt><trkpt lat="43.6489091" lon="10.6559913"><ele>28.0</ele><time>2026-04-04T08:05:36.056Z</time></trkpt><trkpt lat="43.6487514" lon="10.6559622"><ele>29.0</ele><time>2026-04-04T08:05:37.055Z</time></trkpt><trkpt lat="43.6485926" lon="10.6559315"><ele>30.0</ele><time>2026-04-04T08:05:38.062Z</time></trkpt><trkpt lat="43.648433" lon="10.6558941"><ele>31.0</ele><time>2026-04-04T08:05:39.057Z</time></trkpt><trkpt lat="43.6482715" lon="10.6558402"><ele>31.0</ele><time>2026-04-04T08:05:40.065Z</time></trkpt><trkpt lat="43.648104" lon="10.6557797"><ele>31.0</ele><time>2026-04-04T08:05:41.043Z</time></trkpt><trkpt lat="43.6479346" lon="10.6557058"><ele>31.0</ele><time>2026-04-04T08:05:42.048Z</time></trkpt><trkpt lat="43.6477698" lon="10.6556142"><ele>31.0</ele><time>2026-04-04T08:05:43.051Z</time></trkpt><trkpt lat="43.6476066" lon="10.6555114"><ele>31.0</ele><time>2026-04-04T08:05:44.052Z</time></trkpt><trkpt lat="43.6474476" lon="10.6553992"><ele>31.0</ele><time>2026-04-04T08:05:45.057Z</time></trkpt><trkpt lat="43.6472934" lon="10.6552668"><ele>31.333333333333336</ele><time>2026-04-04T08:05:46.051Z</time></trkpt><trkpt lat="43.6471392" lon="10.6551265"><ele>31.666666666666664</ele><time>2026-04-04T08:05:47.048Z</time></trkpt><trkpt lat="43.6469854" lon="10.6549744"><ele>32.0</ele><time>2026-04-04T08:05:48.052Z</time></trkpt><trkpt lat="43.646836" lon="10.6548092"><ele>31.333333333333332</ele><time>2026-04-04T08:05:49.052Z</time></trkpt><trkpt lat="43.6466938" lon="10.6546229"><ele>30.666666666666664</ele><time>2026-04-04T08:05:50.046Z</time></trkpt><trkpt lat="43.6465565" lon="10.6544203"><ele>30.0</ele><time>2026-04-04T08:05:51.053Z</time></trkpt><trkpt lat="43.6464301" lon="10.654195"><ele>28.666666666666664</ele><time>2026-04-04T08:05:52.071Z</time></trkpt><trkpt lat="43.6463109" lon="10.653957"><ele>27.333333333333332</ele><time>2026-04-04T08:05:53.064Z</time></trkpt><trkpt lat="43.6461974" lon="10.653691"><ele>26.0</ele><time>2026-04-04T08:05:54.061Z</time></trkpt><trkpt lat="43.6460913" lon="10.6534078"><ele>23.5</ele><time>2026-04-04T08:05:55.057Z</time></trkpt><trkpt lat="43.645989" lon="10.6531158"><ele>21.0</ele><time>2026-04-04T08:05:56.05Z</time></trkpt><trkpt lat="43.6458913" lon="10.6528291"><ele>19.666666666666668</ele><time>2026-04-04T08:05:57.058Z</time></trkpt><trkpt lat="43.6457956" lon="10.652559"><ele>18.333333333333336</ele><time>2026-04-04T08:05:58.059Z</time></trkpt><trkpt lat="43.645708" lon="10.6522982"><ele>17.0</ele><time>2026-04-04T08:05:59.055Z</time></trkpt><trkpt lat="43.6456246" lon="10.6520463"><ele>16.0</ele><time>2026-04-04T08:06:00.049Z</time></trkpt><trkpt lat="43.645544" lon="10.6517963"><ele>15.0</ele><time>2026-04-04T08:06:01.049Z</time></trkpt><trkpt lat="43.64546" lon="10.6515418"><ele>14.0</ele><time>2026-04-04T08:06:02.052Z</time></trkpt><trkpt lat="43.645367" lon="10.651278"><ele>15.666666666666668</ele><time>2026-04-04T08:06:03.075Z</time></trkpt><trkpt lat="43.6452694" lon="10.6510196"><ele>17.333333333333332</ele><time>2026-04-04T08:06:04.034Z</time></trkpt><trkpt lat="43.6451554" lon="10.650775"><ele>19.0</ele><time>2026-04-04T08:06:05.053Z</time></trkpt><trkpt lat="43.6450213" lon="10.6505626"><ele>19.0</ele><time>2026-04-04T08:06:06.063Z</time></trkpt><trkpt lat="43.6448742" lon="10.6503666"><ele>19.0</ele><time>2026-04-04T08:06:07.045Z</time></trkpt><trkpt lat="43.6447155" lon="10.6501904"><ele>19.0</ele><time>2026-04-04T08:06:08.072Z</time></trkpt><trkpt lat="43.6445485" lon="10.6500339"><ele>20.0</ele><time>2026-04-04T08:06:09.051Z</time></trkpt><trkpt lat="43.6443685" lon="10.6499036"><ele>21.0</ele><time>2026-04-04T08:06:10.064Z</time></trkpt><trkpt lat="43.6441793" lon="10.6498045"><ele>22.0</ele><time>2026-04-04T08:06:11.067Z</time></trkpt><trkpt lat="43.6439876" lon="10.6497415"><ele>22.0</ele><time>2026-04-04T08:06:12.08Z</time></trkpt><trkpt lat="43.6438054" lon="10.649699"><ele>22.0</ele><time>2026-04-04T08:06:13.051Z</time></trkpt><trkpt lat="43.6436354" lon="10.649672"><ele>22.0</ele><time>2026-04-04T08:06:14.051Z</time></trkpt><trkpt lat="43.6434638" lon="10.6496716"><ele>22.333333333333332</ele><time>2026-04-04T08:06:15.057Z</time></trkpt><trkpt lat="43.6432976" lon="10.6496957"><ele>22.666666666666668</ele><time>2026-04-04T08:06:16.051Z</time></trkpt><trkpt lat="43.6431395" lon="10.64974"><ele>23.0</ele><time>2026-04-04T08:06:17.053Z</time></trkpt><trkpt lat="43.6429976" lon="10.6497871"><ele>23.0</ele><time>2026-04-04T08:06:18.045Z</time></trkpt><trkpt lat="43.642859" lon="10.649833"><ele>23.0</ele><time>2026-04-04T08:06:19.04Z</time></trkpt><trkpt lat="43.642715" lon="10.6498853"><ele>23.0</ele><time>2026-04-04T08:06:20.049Z</time></trkpt><trkpt lat="43.6425687" lon="10.6499408"><ele>23.0</ele><time>2026-04-04T08:06:21.045Z</time></trkpt><trkpt lat="43.6424145" lon="10.6499973"><ele>22.666666666666668</ele><time>2026-04-04T08:06:22.061Z</time></trkpt><trkpt lat="43.6422623" lon="10.6500535"><ele>22.333333333333332</ele><time>2026-04-04T08:06:23.057Z</time></trkpt><trkpt lat="43.6421065" lon="10.6501056"><ele>22.0</ele><time>2026-04-04T08:06:24.057Z</time></trkpt><trkpt lat="43.6419485" lon="10.6501572"><ele>22.666666666666664</ele><time>2026-04-04T08:06:25.039Z</time></trkpt><trkpt lat="43.6417843" lon="10.6501998"><ele>23.333333333333332</ele><time>2026-04-04T08:06:26.049Z</time></trkpt><trkpt lat="43.6416247" lon="10.6502421"><ele>24.0</ele><time>2026-04-04T08:06:27.042Z</time></trkpt><trkpt lat="43.6414831" lon="10.6502842"><ele>24.0</ele><time>2026-04-04T08:06:28.045Z</time></trkpt><trkpt lat="43.6413651" lon="10.6503218"><ele>24.0</ele><time>2026-04-04T08:06:29.044Z</time></trkpt><trkpt lat="43.6412593" lon="10.650354"><ele>24.0</ele><time>2026-04-04T08:06:30.055Z</time></trkpt><trkpt lat="43.6411611" lon="10.6503786"><ele>24.0</ele><time>2026-04-04T08:06:31.047Z</time></trkpt><trkpt lat="43.6410596" lon="10.6504018"><ele>24.0</ele><time>2026-04-04T08:06:32.052Z</time></trkpt><trkpt lat="43.6409395" lon="10.6504242"><ele>24.0</ele><time>2026-04-04T08:06:33.057Z</time></trkpt><trkpt lat="43.6407951" lon="10.6504488"><ele>24.0</ele><time>2026-04-04T08:06:34.048Z</time></trkpt><trkpt lat="43.6406319" lon="10.6504806"><ele>24.0</ele><time>2026-04-04T08:06:35.051Z</time></trkpt><trkpt lat="43.640465" lon="10.650514"><ele>24.0</ele><time>2026-04-04T08:06:36.044Z</time></trkpt><trkpt lat="43.6403091" lon="10.6505602"><ele>24.0</ele><time>2026-04-04T08:06:37.04Z</time></trkpt><trkpt lat="43.6401652" lon="10.6506125"><ele>24.0</ele><time>2026-04-04T08:06:38.047Z</time></trkpt><trkpt lat="43.6400422" lon="10.6506611"><ele>24.0</ele><time>2026-04-04T08:06:39.049Z</time></trkpt><trkpt lat="43.6399433" lon="10.6507062"><ele>23.799999999999997</ele><time>2026-04-04T08:06:40.043Z</time></trkpt><trkpt lat="43.6398495" lon="10.6507476"><ele>23.599999999999998</ele><time>2026-04-04T08:06:41.044Z</time></trkpt><trkpt lat="43.6397497" lon="10.6507751"><ele>23.4</ele><time>2026-04-04T08:06:42.049Z</time></trkpt><trkpt lat="43.6396418" lon="10.6507878"><ele>23.2</ele><time>2026-04-04T08:06:43.036Z</time></trkpt><trkpt lat="43.6395373" lon="10.6508044"><ele>23.0</ele><time>2026-04-04T08:06:44.05Z</time></trkpt><trkpt lat="43.6394504" lon="10.6508541"><ele>23.2</ele><time>2026-04-04T08:06:45.044Z</time></trkpt><trkpt lat="43.6393788" lon="10.6509492"><ele>23.4</ele><time>2026-04-04T08:06:46.039Z</time></trkpt><trkpt lat="43.6393215" lon="10.6510699"><ele>23.599999999999998</ele><time>2026-04-04T08:06:47.054Z</time></trkpt><trkpt lat="43.6392551" lon="10.6512005"><ele>23.799999999999997</ele><time>2026-04-04T08:06:48.05Z</time></trkpt><trkpt lat="43.6391682" lon="10.6513288"><ele>24.0</ele><time>2026-04-04T08:06:49.044Z</time></trkpt><trkpt lat="43.6390652" lon="10.6514661"><ele>24.0</ele><time>2026-04-04T08:06:50.087Z</time></trkpt><trkpt lat="43.6389546" lon="10.6516034"><ele>24.0</ele><time>2026-04-04T08:06:51.057Z</time></trkpt><trkpt lat="43.6388518" lon="10.6517347"><ele>24.0</ele><time>2026-04-04T08:06:52.082Z</time></trkpt><trkpt lat="43.6387498" lon="10.6518578"><ele>24.0</ele><time>2026-04-04T08:06:53.048Z</time></trkpt><trkpt lat="43.6386466" lon="10.6519809"><ele>24.0</ele><time>2026-04-04T08:06:54.069Z</time></trkpt><trkpt lat="43.6385473" lon="10.6520971"><ele>24.0</ele><time>2026-04-04T08:06:55.061Z</time></trkpt><trkpt lat="43.638457" lon="10.6522038"><ele>24.0</ele><time>2026-04-04T08:06:56.078Z</time></trkpt><trkpt lat="43.6383669" lon="10.6523117"><ele>24.0</ele><time>2026-04-04T08:06:57.072Z</time></trkpt><trkpt lat="43.6382664" lon="10.6524291"><ele>24.0</ele><time>2026-04-04T08:06:58.046Z</time></trkpt><trkpt lat="43.6381559" lon="10.6525514"><ele>24.0</ele><time>2026-04-04T08:06:59.06Z</time></trkpt><trkpt lat="43.638038" lon="10.6526812"><ele>24.0</ele><time>2026-04-04T08:07:00.044Z</time></trkpt><trkpt lat="43.6379189" lon="10.6528204"><ele>24.0</ele><time>2026-04-04T08:07:01.071Z</time></trkpt><trkpt lat="43.6378" lon="10.6529698"><ele>24.666666666666664</ele><time>2026-04-04T08:07:02.052Z</time></trkpt><trkpt lat="43.6376786" lon="10.6531222"><ele>25.333333333333332</ele><time>2026-04-04T08:07:03.06Z</time></trkpt><trkpt lat="43.637561" lon="10.6532697"><ele>26.0</ele><time>2026-04-04T08:07:04.061Z</time></trkpt><trkpt lat="43.6374564" lon="10.6534015"><ele>26.0</ele><time>2026-04-04T08:07:05.05Z</time></trkpt><trkpt lat="43.6373616" lon="10.6535171"><ele>26.0</ele><time>2026-04-04T08:07:06.074Z</time></trkpt><trkpt lat="43.6372805" lon="10.6536268"><ele>26.0</ele><time>2026-04-04T08:07:07.052Z</time></trkpt><trkpt lat="43.6371983" lon="10.6537304"><ele>26.0</ele><time>2026-04-04T08:07:08.077Z</time></trkpt><trkpt lat="43.6371112" lon="10.6538471"><ele>26.0</ele><time>2026-04-04T08:07:09.052Z</time></trkpt><trkpt lat="43.6370105" lon="10.6539786"><ele>26.0</ele><time>2026-04-04T08:07:10.051Z</time></trkpt><trkpt lat="43.6369005" lon="10.6541247"><ele>26.0</ele><time>2026-04-04T08:07:11.06Z</time></trkpt><trkpt lat="43.6367824" lon="10.6542804"><ele>25.333333333333332</ele><time>2026-04-04T08:07:12.079Z</time></trkpt><trkpt lat="43.6366555" lon="10.6544457"><ele>24.666666666666664</ele><time>2026-04-04T08:07:13.043Z</time></trkpt><trkpt lat="43.6365233" lon="10.6546212"><ele>24.0</ele><time>2026-04-04T08:07:14.081Z</time></trkpt><trkpt lat="43.6363843" lon="10.6547984"><ele>24.666666666666664</ele><time>2026-04-04T08:07:15.051Z</time></trkpt><trkpt lat="43.6362414" lon="10.6549725"><ele>25.333333333333332</ele><time>2026-04-04T08:07:16.054Z</time></trkpt><trkpt lat="43.6360925" lon="10.6551395"><ele>26.0</ele><time>2026-04-04T08:07:17.062Z</time></trkpt><trkpt lat="43.6359305" lon="10.655293"><ele>26.333333333333332</ele><time>2026-04-04T08:07:18.052Z</time></trkpt><trkpt lat="43.6357683" lon="10.655435"><ele>26.666666666666664</ele><time>2026-04-04T08:07:19.048Z</time></trkpt><trkpt lat="43.6355987" lon="10.6555663"><ele>27.0</ele><time>2026-04-04T08:07:20.068Z</time></trkpt><trkpt lat="43.6354272" lon="10.6557018"><ele>27.0</ele><time>2026-04-04T08:07:21.049Z</time></trkpt><trkpt lat="43.6352586" lon="10.6558313"><ele>27.0</ele><time>2026-04-04T08:07:22.05Z</time></trkpt><trkpt lat="43.6350904" lon="10.6559643"><ele>27.0</ele><time>2026-04-04T08:07:23.06Z</time></trkpt><trkpt lat="43.6349203" lon="10.6560969"><ele>26.666666666666664</ele><time>2026-04-04T08:07:24.051Z</time></trkpt><trkpt lat="43.6347486" lon="10.6562325"><ele>26.333333333333332</ele><time>2026-04-04T08:07:25.046Z</time></trkpt><trkpt lat="43.6345772" lon="10.6563685"><ele>26.0</ele><time>2026-04-04T08:07:26.063Z</time></trkpt><trkpt lat="43.6344005" lon="10.6565051"><ele>26.0</ele><time>2026-04-04T08:07:27.045Z</time></trkpt><trkpt lat="43.634219" lon="10.6566425"><ele>26.0</ele><time>2026-04-04T08:07:28.058Z</time></trkpt><trkpt lat="43.6340405" lon="10.65678"><ele>26.0</ele><time>2026-04-04T08:07:29.047Z</time></trkpt><trkpt lat="43.6338638" lon="10.6569154"><ele>25.666666666666664</ele><time>2026-04-04T08:07:30.049Z</time></trkpt><trkpt lat="43.6336873" lon="10.6570516"><ele>25.333333333333336</ele><time>2026-04-04T08:07:31.048Z</time></trkpt><trkpt lat="43.6335189" lon="10.6571824"><ele>25.0</ele><time>2026-04-04T08:07:32.07Z</time></trkpt><trkpt lat="43.6333598" lon="10.6573068"><ele>25.0</ele><time>2026-04-04T08:07:33.056Z</time></trkpt><trkpt lat="43.6332081" lon="10.6574247"><ele>25.0</ele><time>2026-04-04T08:07:34.051Z</time></trkpt><trkpt lat="43.6330576" lon="10.6575393"><ele>25.0</ele><time>2026-04-04T08:07:35.052Z</time></trkpt><trkpt lat="43.6329079" lon="10.6576559"><ele>24.333333333333336</ele><time>2026-04-04T08:07:36.066Z</time></trkpt><trkpt lat="43.6327565" lon="10.6577775"><ele>23.666666666666668</ele><time>2026-04-04T08:07:37.05Z</time></trkpt><trkpt lat="43.632603" lon="10.6578999"><ele>23.0</ele><time>2026-04-04T08:07:38.046Z</time></trkpt><trkpt lat="43.6324496" lon="10.6580202"><ele>23.0</ele><time>2026-04-04T08:07:39.059Z</time></trkpt><trkpt lat="43.6322923" lon="10.658142"><ele>23.0</ele><time>2026-04-04T08:07:40.04Z</time></trkpt><trkpt lat="43.632134" lon="10.6582597"><ele>23.0</ele><time>2026-04-04T08:07:41.055Z</time></trkpt><trkpt lat="43.6319777" lon="10.6583738"><ele>22.666666666666668</ele><time>2026-04-04T08:07:42.059Z</time></trkpt><trkpt lat="43.6318211" lon="10.6584844"><ele>22.333333333333332</ele><time>2026-04-04T08:07:43.05Z</time></trkpt><trkpt lat="43.6316635" lon="10.6585852"><ele>22.0</ele><time>2026-04-04T08:07:44.044Z</time></trkpt><trkpt lat="43.6315075" lon="10.6586788"><ele>22.666666666666664</ele><time>2026-04-04T08:07:45.046Z</time></trkpt><trkpt lat="43.6313534" lon="10.6587693"><ele>23.333333333333332</ele><time>2026-04-04T08:07:46.07Z</time></trkpt><trkpt lat="43.6311997" lon="10.6588554"><ele>24.0</ele><time>2026-04-04T08:07:47.056Z</time></trkpt><trkpt lat="43.6310443" lon="10.6589391"><ele>24.0</ele><time>2026-04-04T08:07:48.06Z</time></trkpt><trkpt lat="43.630889" lon="10.6590141"><ele>24.0</ele><time>2026-04-04T08:07:49.048Z</time></trkpt><trkpt lat="43.6307297" lon="10.6590936"><ele>24.0</ele><time>2026-04-04T08:07:50.06Z</time></trkpt><trkpt lat="43.6305657" lon="10.6591726"><ele>24.0</ele><time>2026-04-04T08:07:51.063Z</time></trkpt><trkpt lat="43.6304007" lon="10.6592542"><ele>24.0</ele><time>2026-04-04T08:07:52.057Z</time></trkpt><trkpt lat="43.6302319" lon="10.6593276"><ele>24.0</ele><time>2026-04-04T08:07:53.061Z</time></trkpt><trkpt lat="43.6300601" lon="10.6593941"><ele>25.0</ele><time>2026-04-04T08:07:54.042Z</time></trkpt><trkpt lat="43.6298817" lon="10.6594604"><ele>26.0</ele><time>2026-04-04T08:07:55.06Z</time></trkpt><trkpt lat="43.6297029" lon="10.6595231"><ele>27.0</ele><time>2026-04-04T08:07:56.038Z</time></trkpt><trkpt lat="43.6295222" lon="10.659583"><ele>26.666666666666664</ele><time>2026-04-04T08:07:57.045Z</time></trkpt><trkpt lat="43.6293463" lon="10.6596346"><ele>26.333333333333332</ele><time>2026-04-04T08:07:58.04Z</time></trkpt><trkpt lat="43.6291802" lon="10.6596834"><ele>26.0</ele><time>2026-04-04T08:07:59.045Z</time></trkpt><trkpt lat="43.6290273" lon="10.65973"><ele>26.0</ele><time>2026-04-04T08:08:00.059Z</time></trkpt><trkpt lat="43.6288889" lon="10.6597707"><ele>26.0</ele><time>2026-04-04T08:08:01.048Z</time></trkpt><trkpt lat="43.6287584" lon="10.6598056"><ele>26.0</ele><time>2026-04-04T08:08:02.033Z</time></trkpt><trkpt lat="43.6286377" lon="10.6598291"><ele>26.0</ele><time>2026-04-04T08:08:03.038Z</time></trkpt><trkpt lat="43.6285314" lon="10.6598235"><ele>26.200000000000003</ele><time>2026-04-04T08:08:04.06Z</time></trkpt><trkpt lat="43.6284352" lon="10.6597991"><ele>26.400000000000002</ele><time>2026-04-04T08:08:05.044Z</time></trkpt><trkpt lat="43.6283456" lon="10.659748"><ele>26.6</ele><time>2026-04-04T08:08:06.057Z</time></trkpt><trkpt lat="43.6282524" lon="10.6596748"><ele>26.8</ele><time>2026-04-04T08:08:07.038Z</time></trkpt><trkpt lat="43.6281612" lon="10.6595729"><ele>27.0</ele><time>2026-04-04T08:08:08.048Z</time></trkpt><trkpt lat="43.6280771" lon="10.6594409"><ele>27.333333333333336</ele><time>2026-04-04T08:08:09.042Z</time></trkpt><trkpt lat="43.6280178" lon="10.6592647"><ele>27.666666666666668</ele><time>2026-04-04T08:08:10.053Z</time></trkpt><trkpt lat="43.6279681" lon="10.6590671"><ele>28.0</ele><time>2026-04-04T08:08:11.056Z</time></trkpt><trkpt lat="43.6279236" lon="10.6588477"><ele>28.0</ele><time>2026-04-04T08:08:12.056Z</time></trkpt><trkpt lat="43.6278848" lon="10.6586209"><ele>28.0</ele><time>2026-04-04T08:08:13.049Z</time></trkpt><trkpt lat="43.6278477" lon="10.6583877"><ele>28.0</ele><time>2026-04-04T08:08:14.058Z</time></trkpt><trkpt lat="43.6278079" lon="10.6581488"><ele>28.333333333333336</ele><time>2026-04-04T08:08:15.055Z</time></trkpt><trkpt lat="43.627771" lon="10.6579027"><ele>28.666666666666664</ele><time>2026-04-04T08:08:16.066Z</time></trkpt><trkpt lat="43.627733" lon="10.6576474"><ele>29.0</ele><time>2026-04-04T08:08:17.047Z</time></trkpt><trkpt lat="43.6276857" lon="10.6573766"><ele>29.0</ele><time>2026-04-04T08:08:18.058Z</time></trkpt><trkpt lat="43.6276245" lon="10.6570855"><ele>29.0</ele><time>2026-04-04T08:08:19.044Z</time></trkpt><trkpt lat="43.6275468" lon="10.6567856"><ele>29.5</ele><time>2026-04-04T08:08:20.065Z</time></trkpt><trkpt lat="43.6274576" lon="10.656482"><ele>30.0</ele><time>2026-04-04T08:08:21.062Z</time></trkpt><trkpt lat="43.6273593" lon="10.6561932"><ele>29.333333333333336</ele><time>2026-04-04T08:08:22.063Z</time></trkpt><trkpt lat="43.6272613" lon="10.6559317"><ele>28.666666666666668</ele><time>2026-04-04T08:08:23.062Z</time></trkpt><trkpt lat="43.62716" lon="10.6556931"><ele>28.0</ele><time>2026-04-04T08:08:24.051Z</time></trkpt><trkpt lat="43.6270541" lon="10.6554594"><ele>27.0</ele><time>2026-04-04T08:08:25.049Z</time></trkpt><trkpt lat="43.6269379" lon="10.6552276"><ele>26.0</ele><time>2026-04-04T08:08:26.04Z</time></trkpt><trkpt lat="43.6268075" lon="10.655006"><ele>25.0</ele><time>2026-04-04T08:08:27.064Z</time></trkpt><trkpt lat="43.6266606" lon="10.654787"><ele>25.0</ele><time>2026-04-04T08:08:28.057Z</time></trkpt><trkpt lat="43.6265067" lon="10.65457"><ele>25.0</ele><time>2026-04-04T08:08:29.046Z</time></trkpt><trkpt lat="43.6263415" lon="10.6543557"><ele>25.0</ele><time>2026-04-04T08:08:30.058Z</time></trkpt><trkpt lat="43.6261632" lon="10.6541515"><ele>24.0</ele><time>2026-04-04T08:08:31.058Z</time></trkpt><trkpt lat="43.6259721" lon="10.6539563"><ele>23.0</ele><time>2026-04-04T08:08:32.071Z</time></trkpt><trkpt lat="43.6257788" lon="10.6537676"><ele>23.0</ele><time>2026-04-04T08:08:33.057Z</time></trkpt><trkpt lat="43.6255858" lon="10.6535804"><ele>23.0</ele><time>2026-04-04T08:08:34.073Z</time></trkpt><trkpt lat="43.6253998" lon="10.6533842"><ele>22.5</ele><time>2026-04-04T08:08:35.077Z</time></trkpt><trkpt lat="43.6252209" lon="10.6531823"><ele>22.0</ele><time>2026-04-04T08:08:36.074Z</time></trkpt><trkpt lat="43.6250544" lon="10.6529584"><ele>22.0</ele><time>2026-04-04T08:08:37.055Z</time></trkpt><trkpt lat="43.6249009" lon="10.6527255"><ele>22.0</ele><time>2026-04-04T08:08:38.055Z</time></trkpt><trkpt lat="43.6247532" lon="10.6524939"><ele>22.0</ele><time>2026-04-04T08:08:39.061Z</time></trkpt><trkpt lat="43.624618" lon="10.652267"><ele>22.0</ele><time>2026-04-04T08:08:40.062Z</time></trkpt><trkpt lat="43.624489" lon="10.6520473"><ele>22.0</ele><time>2026-04-04T08:08:41.044Z</time></trkpt><trkpt lat="43.6243621" lon="10.6518227"><ele>22.333333333333332</ele><time>2026-04-04T08:08:42.057Z</time></trkpt><trkpt lat="43.6242349" lon="10.651599"><ele>22.666666666666668</ele><time>2026-04-04T08:08:43.05Z</time></trkpt><trkpt lat="43.6241039" lon="10.6513743"><ele>23.0</ele><time>2026-04-04T08:08:44.063Z</time></trkpt><trkpt lat="43.6239715" lon="10.651148"><ele>23.0</ele><time>2026-04-04T08:08:45.056Z</time></trkpt><trkpt lat="43.6238375" lon="10.6509207"><ele>23.0</ele><time>2026-04-04T08:08:46.053Z</time></trkpt><trkpt lat="43.6237001" lon="10.650697"><ele>23.0</ele><time>2026-04-04T08:08:47.045Z</time></trkpt><trkpt lat="43.6235648" lon="10.6504695"><ele>22.666666666666668</ele><time>2026-04-04T08:08:48.05Z</time></trkpt><trkpt lat="43.623429" lon="10.6502397"><ele>22.333333333333332</ele><time>2026-04-04T08:08:49.067Z</time></trkpt><trkpt lat="43.6232922" lon="10.650013"><ele>22.0</ele><time>2026-04-04T08:08:50.051Z</time></trkpt><trkpt lat="43.6231539" lon="10.6497842"><ele>22.0</ele><time>2026-04-04T08:08:51.049Z</time></trkpt><trkpt lat="43.6230151" lon="10.6495533"><ele>22.0</ele><time>2026-04-04T08:08:52.065Z</time></trkpt><trkpt lat="43.6228782" lon="10.6493228"><ele>22.0</ele><time>2026-04-04T08:08:53.056Z</time></trkpt><trkpt lat="43.6227447" lon="10.6490914"><ele>22.0</ele><time>2026-04-04T08:08:54.068Z</time></trkpt><trkpt lat="43.6226099" lon="10.6488639"><ele>22.0</ele><time>2026-04-04T08:08:55.047Z</time></trkpt><trkpt lat="43.6224764" lon="10.6486367"><ele>22.0</ele><time>2026-04-04T08:08:56.069Z</time></trkpt><trkpt lat="43.622341" lon="10.6484098"><ele>22.0</ele><time>2026-04-04T08:08:57.052Z</time></trkpt><trkpt lat="43.6222033" lon="10.6481833"><ele>22.0</ele><time>2026-04-04T08:08:58.051Z</time></trkpt><trkpt lat="43.6220623" lon="10.6479489"><ele>22.0</ele><time>2026-04-04T08:08:59.044Z</time></trkpt><trkpt lat="43.6219207" lon="10.6477138"><ele>21.666666666666664</ele><time>2026-04-04T08:09:00.055Z</time></trkpt><trkpt lat="43.6217803" lon="10.6474853"><ele>21.333333333333332</ele><time>2026-04-04T08:09:01.064Z</time></trkpt><trkpt lat="43.6216449" lon="10.6472561"><ele>21.0</ele><time>2026-04-04T08:09:02.055Z</time></trkpt><trkpt lat="43.6215164" lon="10.6470333"><ele>21.0</ele><time>2026-04-04T08:09:03.058Z</time></trkpt><trkpt lat="43.6213958" lon="10.6468253"><ele>21.0</ele><time>2026-04-04T08:09:04.048Z</time></trkpt><trkpt lat="43.6212816" lon="10.6466347"><ele>21.0</ele><time>2026-04-04T08:09:05.06Z</time></trkpt><trkpt lat="43.6211682" lon="10.6464552"><ele>21.0</ele><time>2026-04-04T08:09:06.061Z</time></trkpt><trkpt lat="43.6210461" lon="10.6462881"><ele>21.0</ele><time>2026-04-04T08:09:07.059Z</time></trkpt><trkpt lat="43.6209163" lon="10.6461384"><ele>21.0</ele><time>2026-04-04T08:09:08.051Z</time></trkpt><trkpt lat="43.6207779" lon="10.6460158"><ele>21.0</ele><time>2026-04-04T08:09:09.056Z</time></trkpt><trkpt lat="43.6206417" lon="10.6459151"><ele>21.0</ele><time>2026-04-04T08:09:10.057Z</time></trkpt><trkpt lat="43.6205164" lon="10.6458273"><ele>21.0</ele><time>2026-04-04T08:09:11.051Z</time></trkpt><trkpt lat="43.6204042" lon="10.6457541"><ele>21.0</ele><time>2026-04-04T08:09:12.044Z</time></trkpt><trkpt lat="43.6203054" lon="10.6456887"><ele>21.166666666666668</ele><time>2026-04-04T08:09:13.047Z</time></trkpt><trkpt lat="43.6202171" lon="10.6456327"><ele>21.333333333333332</ele><time>2026-04-04T08:09:14.055Z</time></trkpt><trkpt lat="43.6201392" lon="10.6455833"><ele>21.5</ele><time>2026-04-04T08:09:15.057Z</time></trkpt><trkpt lat="43.6200754" lon="10.6455334"><ele>21.666666666666664</ele><time>2026-04-04T08:09:16.057Z</time></trkpt><trkpt lat="43.6199824" lon="10.6454733"><ele>21.833333333333332</ele><time>2026-04-04T08:09:18.052Z</time></trkpt><trkpt lat="43.6199102" lon="10.6454211"><ele>22.0</ele><time>2026-04-04T08:09:20.046Z</time></trkpt><trkpt lat="43.6198363" lon="10.6453624"><ele>22.333333333333332</ele><time>2026-04-04T08:09:22.045Z</time></trkpt><trkpt lat="43.6197615" lon="10.6452889"><ele>22.666666666666664</ele><time>2026-04-04T08:09:25.041Z</time></trkpt><trkpt lat="43.6197158" lon="10.6452231"><ele>23.0</ele><time>2026-04-04T08:09:28.064Z</time></trkpt><trkpt lat="43.61966" lon="10.64516"><ele>23.333333333333332</ele><time>2026-04-04T08:09:48.072Z</time></trkpt><trkpt lat="43.6195868" lon="10.6450827"><ele>23.666666666666668</ele><time>2026-04-04T08:09:51.041Z</time></trkpt><trkpt lat="43.6195525" lon="10.644955"><ele>24.0</ele><time>2026-04-04T08:09:53.053Z</time></trkpt><trkpt lat="43.6195263" lon="10.644804"><ele>24.0</ele><time>2026-04-04T08:09:55.053Z</time></trkpt><trkpt lat="43.6195079" lon="10.6447187"><ele>24.0</ele><time>2026-04-04T08:09:56.069Z</time></trkpt><trkpt lat="43.6194858" lon="10.6445995"><ele>24.0</ele><time>2026-04-04T08:09:57.046Z</time></trkpt><trkpt lat="43.619456" lon="10.6444502"><ele>24.0</ele><time>2026-04-04T08:09:58.06Z</time></trkpt><trkpt lat="43.6194185" lon="10.644296"><ele>24.0</ele><time>2026-04-04T08:09:59.06Z</time></trkpt><trkpt lat="43.6193666" lon="10.6441574"><ele>23.6</ele><time>2026-04-04T08:10:00.064Z</time></trkpt><trkpt lat="43.6193009" lon="10.6440421"><ele>23.2</ele><time>2026-04-04T08:10:01.07Z</time></trkpt><trkpt lat="43.619212" lon="10.6439538"><ele>22.8</ele><time>2026-04-04T08:10:02.056Z</time></trkpt><trkpt lat="43.6191144" lon="10.6438881"><ele>22.400000000000002</ele><time>2026-04-04T08:10:03.041Z</time></trkpt><trkpt lat="43.6190103" lon="10.643844"><ele>22.0</ele><time>2026-04-04T08:10:04.042Z</time></trkpt><trkpt lat="43.6189112" lon="10.643797"><ele>22.0</ele><time>2026-04-04T08:10:05.055Z</time></trkpt><trkpt lat="43.6188225" lon="10.6437504"><ele>22.0</ele><time>2026-04-04T08:10:06.06Z</time></trkpt><trkpt lat="43.6187385" lon="10.6437002"><ele>22.0</ele><time>2026-04-04T08:10:07.045Z</time></trkpt><trkpt lat="43.6186553" lon="10.6436509"><ele>22.0</ele><time>2026-04-04T08:10:08.044Z</time></trkpt><trkpt lat="43.6185768" lon="10.6435991"><ele>22.0</ele><time>2026-04-04T08:10:09.049Z</time></trkpt><trkpt lat="43.6185064" lon="10.6435338"><ele>22.0</ele><time>2026-04-04T08:10:10.06Z</time></trkpt><trkpt lat="43.6184596" lon="10.6434434"><ele>22.0</ele><time>2026-04-04T08:10:11.051Z</time></trkpt><trkpt lat="43.6184466" lon="10.643329"><ele>22.0</ele><time>2026-04-04T08:10:12.062Z</time></trkpt><trkpt lat="43.6184593" lon="10.6432155"><ele>22.0</ele><time>2026-04-04T08:10:13.056Z</time></trkpt><trkpt lat="43.6184902" lon="10.643098"><ele>22.0</ele><time>2026-04-04T08:10:14.048Z</time></trkpt><trkpt lat="43.6185304" lon="10.6429858"><ele>22.0</ele><time>2026-04-04T08:10:15.061Z</time></trkpt><trkpt lat="43.618579" lon="10.6428713"><ele>22.0</ele><time>2026-04-04T08:10:16.063Z</time></trkpt><trkpt lat="43.6186427" lon="10.6427595"><ele>22.0</ele><time>2026-04-04T08:10:17.059Z</time></trkpt><trkpt lat="43.6187198" lon="10.6426444"><ele>22.0</ele><time>2026-04-04T08:10:18.072Z</time></trkpt><trkpt lat="43.6188033" lon="10.6425321"><ele>22.0</ele><time>2026-04-04T08:10:19.052Z</time></trkpt><trkpt lat="43.6188773" lon="10.6424201"><ele>22.0</ele><time>2026-04-04T08:10:20.057Z</time></trkpt><trkpt lat="43.6189355" lon="10.6423091"><ele>22.0</ele><time>2026-04-04T08:10:21.056Z</time></trkpt><trkpt lat="43.6189773" lon="10.642196"><ele>22.0</ele><time>2026-04-04T08:10:22.059Z</time></trkpt><trkpt lat="43.619005" lon="10.6420653"><ele>22.0</ele><time>2026-04-04T08:10:23.044Z</time></trkpt><trkpt lat="43.6190194" lon="10.6419216"><ele>22.0</ele><time>2026-04-04T08:10:24.053Z</time></trkpt><trkpt lat="43.6190289" lon="10.641783"><ele>22.0</ele><time>2026-04-04T08:10:25.055Z</time></trkpt><trkpt lat="43.6190382" lon="10.6416483"><ele>22.0</ele><time>2026-04-04T08:10:26.059Z</time></trkpt><trkpt lat="43.6190439" lon="10.6415141"><ele>22.200000000000003</ele><time>2026-04-04T08:10:27.052Z</time></trkpt><trkpt lat="43.6190512" lon="10.6413779"><ele>22.4</ele><time>2026-04-04T08:10:28.043Z</time></trkpt><trkpt lat="43.619061" lon="10.6412334"><ele>22.6</ele><time>2026-04-04T08:10:29.043Z</time></trkpt><trkpt lat="43.6190675" lon="10.6410818"><ele>22.799999999999997</ele><time>2026-04-04T08:10:30.041Z</time></trkpt><trkpt lat="43.6190687" lon="10.6409251"><ele>23.0</ele><time>2026-04-04T08:10:31.04Z</time></trkpt><trkpt lat="43.6190708" lon="10.6407654"><ele>23.2</ele><time>2026-04-04T08:10:32.036Z</time></trkpt><trkpt lat="43.6190743" lon="10.6406081"><ele>23.4</ele><time>2026-04-04T08:10:33.046Z</time></trkpt><trkpt lat="43.6190768" lon="10.6404544"><ele>23.599999999999998</ele><time>2026-04-04T08:10:34.045Z</time></trkpt><trkpt lat="43.6190819" lon="10.6403039"><ele>23.799999999999997</ele><time>2026-04-04T08:10:35.028Z</time></trkpt><trkpt lat="43.6190844" lon="10.6401554"><ele>24.0</ele><time>2026-04-04T08:10:36.046Z</time></trkpt><trkpt lat="43.619085" lon="10.6400149"><ele>24.2</ele><time>2026-04-04T08:10:37.047Z</time></trkpt><trkpt lat="43.6190827" lon="10.6398798"><ele>24.4</ele><time>2026-04-04T08:10:38.042Z</time></trkpt><trkpt lat="43.6190794" lon="10.6397362"><ele>24.6</ele><time>2026-04-04T08:10:39.039Z</time></trkpt><trkpt lat="43.6190815" lon="10.6395845"><ele>24.8</ele><time>2026-04-04T08:10:40.038Z</time></trkpt><trkpt lat="43.6190847" lon="10.639437"><ele>25.0</ele><time>2026-04-04T08:10:41.049Z</time></trkpt><trkpt lat="43.61909" lon="10.6392889"><ele>25.0</ele><time>2026-04-04T08:10:42.031Z</time></trkpt><trkpt lat="43.6190953" lon="10.6391279"><ele>25.0</ele><time>2026-04-04T08:10:43.053Z</time></trkpt><trkpt lat="43.6190998" lon="10.6389517"><ele>25.0</ele><time>2026-04-04T08:10:44.038Z</time></trkpt><trkpt lat="43.6191035" lon="10.6387837"><ele>25.0</ele><time>2026-04-04T08:10:45.031Z</time></trkpt><trkpt lat="43.6191108" lon="10.6386411"><ele>24.666666666666668</ele><time>2026-04-04T08:10:46.039Z</time></trkpt><trkpt lat="43.6191076" lon="10.6385265"><ele>24.333333333333336</ele><time>2026-04-04T08:10:47.046Z</time></trkpt><trkpt lat="43.6190395" lon="10.6384007"><ele>24.0</ele><time>2026-04-04T08:10:49.059Z</time></trkpt><trkpt lat="43.6189672" lon="10.6383748"><ele>23.666666666666668</ele><time>2026-04-04T08:10:50.047Z</time></trkpt><trkpt lat="43.6188821" lon="10.6383577"><ele>23.333333333333336</ele><time>2026-04-04T08:10:51.058Z</time></trkpt><trkpt lat="43.6187981" lon="10.6383312"><ele>23.0</ele><time>2026-04-04T08:10:52.039Z</time></trkpt><trkpt lat="43.6186994" lon="10.6383001"><ele>23.4</ele><time>2026-04-04T08:10:53.055Z</time></trkpt><trkpt lat="43.6186006" lon="10.6382663"><ele>23.799999999999997</ele><time>2026-04-04T08:10:54.045Z</time></trkpt><trkpt lat="43.6185022" lon="10.6382362"><ele>24.2</ele><time>2026-04-04T08:10:55.041Z</time></trkpt><trkpt lat="43.6184036" lon="10.6382065"><ele>24.6</ele><time>2026-04-04T08:10:56.049Z</time></trkpt><trkpt lat="43.6183057" lon="10.6381772"><ele>25.0</ele><time>2026-04-04T08:10:57.039Z</time></trkpt><trkpt lat="43.618212" lon="10.6381518"><ele>25.000000000000004</ele><time>2026-04-04T08:10:58.033Z</time></trkpt><trkpt lat="43.6181133" lon="10.6381258"><ele>25.0</ele><time>2026-04-04T08:10:59.051Z</time></trkpt><trkpt lat="43.6180192" lon="10.6380932"><ele>25.0</ele><time>2026-04-04T08:11:00.032Z</time></trkpt><trkpt lat="43.6179362" lon="10.6380704"><ele>25.0</ele><time>2026-04-04T08:11:01.041Z</time></trkpt><trkpt lat="43.6178644" lon="10.6380554"><ele>25.000000000000004</ele><time>2026-04-04T08:11:02.049Z</time></trkpt><trkpt lat="43.6177968" lon="10.6380335"><ele>25.0</ele><time>2026-04-04T08:11:03.052Z</time></trkpt><trkpt lat="43.6177341" lon="10.6380069"><ele>25.166666666666668</ele><time>2026-04-04T08:11:04.045Z</time></trkpt><trkpt lat="43.6176419" lon="10.637965"><ele>25.333333333333336</ele><time>2026-04-04T08:11:06.051Z</time></trkpt><trkpt lat="43.617582" lon="10.6379285"><ele>25.5</ele><time>2026-04-04T08:11:10.053Z</time></trkpt><trkpt lat="43.6175111" lon="10.6379483"><ele>25.666666666666664</ele><time>2026-04-04T08:11:12.047Z</time></trkpt><trkpt lat="43.6174425" lon="10.6379938"><ele>25.833333333333332</ele><time>2026-04-04T08:11:13.044Z</time></trkpt><trkpt lat="43.6173676" lon="10.6380814"><ele>26.0</ele><time>2026-04-04T08:11:14.045Z</time></trkpt><trkpt lat="43.6172903" lon="10.6381839"><ele>26.0</ele><time>2026-04-04T08:11:15.043Z</time></trkpt><trkpt lat="43.6172079" lon="10.6383074"><ele>26.0</ele><time>2026-04-04T08:11:16.036Z</time></trkpt><trkpt lat="43.6171125" lon="10.6384464"><ele>26.0</ele><time>2026-04-04T08:11:17.054Z</time></trkpt><trkpt lat="43.6170193" lon="10.6385807"><ele>26.0</ele><time>2026-04-04T08:11:18.041Z</time></trkpt><trkpt lat="43.6169313" lon="10.6387083"><ele>25.75</ele><time>2026-04-04T08:11:19.036Z</time></trkpt><trkpt lat="43.6168362" lon="10.6388413"><ele>25.5</ele><time>2026-04-04T08:11:20.041Z</time></trkpt><trkpt lat="43.6167449" lon="10.638969"><ele>25.25</ele><time>2026-04-04T08:11:21.045Z</time></trkpt><trkpt lat="43.6166554" lon="10.6391016"><ele>25.0</ele><time>2026-04-04T08:11:22.031Z</time></trkpt><trkpt lat="43.6165577" lon="10.6392373"><ele>25.0</ele><time>2026-04-04T08:11:23.041Z</time></trkpt><trkpt lat="43.6164575" lon="10.6393807"><ele>25.0</ele><time>2026-04-04T08:11:24.049Z</time></trkpt><trkpt lat="43.6163585" lon="10.6395287"><ele>25.0</ele><time>2026-04-04T08:11:25.045Z</time></trkpt><trkpt lat="43.6162663" lon="10.639685"><ele>25.0</ele><time>2026-04-04T08:11:26.057Z</time></trkpt><trkpt lat="43.6161829" lon="10.6398404"><ele>25.0</ele><time>2026-04-04T08:11:27.051Z</time></trkpt><trkpt lat="43.6160999" lon="10.6399982"><ele>25.0</ele><time>2026-04-04T08:11:28.04Z</time></trkpt><trkpt lat="43.6160117" lon="10.6401564"><ele>25.0</ele><time>2026-04-04T08:11:29.06Z</time></trkpt><trkpt lat="43.6159158" lon="10.6403051"><ele>25.0</ele><time>2026-04-04T08:11:30.051Z</time></trkpt><trkpt lat="43.6158108" lon="10.6404342"><ele>25.5</ele><time>2026-04-04T08:11:31.057Z</time></trkpt><trkpt lat="43.6156956" lon="10.6405516"><ele>26.0</ele><time>2026-04-04T08:11:32.053Z</time></trkpt><trkpt lat="43.6155731" lon="10.6406573"><ele>26.5</ele><time>2026-04-04T08:11:33.05Z</time></trkpt><trkpt lat="43.6154403" lon="10.6407577"><ele>27.0</ele><time>2026-04-04T08:11:34.075Z</time></trkpt><trkpt lat="43.6153039" lon="10.6408563"><ele>27.0</ele><time>2026-04-04T08:11:35.042Z</time></trkpt><trkpt lat="43.6151685" lon="10.6409498"><ele>27.0</ele><time>2026-04-04T08:11:36.066Z</time></trkpt><trkpt lat="43.6150337" lon="10.6410392"><ele>27.0</ele><time>2026-04-04T08:11:37.045Z</time></trkpt><trkpt lat="43.6149082" lon="10.6411251"><ele>27.0</ele><time>2026-04-04T08:11:38.077Z</time></trkpt><trkpt lat="43.6147882" lon="10.6412051"><ele>26.75</ele><time>2026-04-04T08:11:39.047Z</time></trkpt><trkpt lat="43.6146681" lon="10.6412852"><ele>26.5</ele><time>2026-04-04T08:11:40.051Z</time></trkpt><trkpt lat="43.6145466" lon="10.6413634"><ele>26.25</ele><time>2026-04-04T08:11:41.053Z</time></trkpt><trkpt lat="43.614424" lon="10.6414416"><ele>26.0</ele><time>2026-04-04T08:11:42.055Z</time></trkpt><trkpt lat="43.6142984" lon="10.6415157"><ele>25.666666666666664</ele><time>2026-04-04T08:11:43.062Z</time></trkpt><trkpt lat="43.6141637" lon="10.6415862"><ele>25.333333333333336</ele><time>2026-04-04T08:11:44.057Z</time></trkpt><trkpt lat="43.6140217" lon="10.6416537"><ele>25.0</ele><time>2026-04-04T08:11:45.062Z</time></trkpt><trkpt lat="43.6138704" lon="10.6417138"><ele>25.0</ele><time>2026-04-04T08:11:46.042Z</time></trkpt><trkpt lat="43.6137177" lon="10.6417689"><ele>25.0</ele><time>2026-04-04T08:11:47.044Z</time></trkpt><trkpt lat="43.6135701" lon="10.6418285"><ele>25.0</ele><time>2026-04-04T08:11:48.055Z</time></trkpt><trkpt lat="43.6134306" lon="10.6418969"><ele>25.75</ele><time>2026-04-04T08:11:49.048Z</time></trkpt><trkpt lat="43.6132981" lon="10.6419761"><ele>26.5</ele><time>2026-04-04T08:11:50.042Z</time></trkpt><trkpt lat="43.6131767" lon="10.6420643"><ele>27.25</ele><time>2026-04-04T08:11:51.067Z</time></trkpt><trkpt lat="43.6130648" lon="10.6421655"><ele>28.0</ele><time>2026-04-04T08:11:52.056Z</time></trkpt><trkpt lat="43.6129669" lon="10.642262"><ele>28.0</ele><time>2026-04-04T08:11:53.077Z</time></trkpt><trkpt lat="43.6128759" lon="10.6423441"><ele>27.999999999999996</ele><time>2026-04-04T08:11:54.062Z</time></trkpt><trkpt lat="43.6127854" lon="10.6424156"><ele>27.999999999999996</ele><time>2026-04-04T08:11:55.065Z</time></trkpt><trkpt lat="43.6126913" lon="10.6424749"><ele>28.0</ele><time>2026-04-04T08:11:56.057Z</time></trkpt><trkpt lat="43.6125957" lon="10.6425215"><ele>28.0</ele><time>2026-04-04T08:11:57.051Z</time></trkpt><trkpt lat="43.612505" lon="10.6425571"><ele>28.2</ele><time>2026-04-04T08:11:58.071Z</time></trkpt><trkpt lat="43.6124157" lon="10.6425786"><ele>28.4</ele><time>2026-04-04T08:11:59.063Z</time></trkpt><trkpt lat="43.6123164" lon="10.642605"><ele>28.599999999999998</ele><time>2026-04-04T08:12:00.04Z</time></trkpt><trkpt lat="43.6122033" lon="10.6426377"><ele>28.799999999999997</ele><time>2026-04-04T08:12:01.053Z</time></trkpt><trkpt lat="43.6120794" lon="10.6426773"><ele>29.0</ele><time>2026-04-04T08:12:02.05Z</time></trkpt><trkpt lat="43.611954" lon="10.642733"><ele>29.25</ele><time>2026-04-04T08:12:03.049Z</time></trkpt><trkpt lat="43.6118302" lon="10.6427947"><ele>29.5</ele><time>2026-04-04T08:12:04.056Z</time></trkpt><trkpt lat="43.6117076" lon="10.6428577"><ele>29.75</ele><time>2026-04-04T08:12:05.049Z</time></trkpt><trkpt lat="43.6115969" lon="10.6429079"><ele>30.0</ele><time>2026-04-04T08:12:06.051Z</time></trkpt><trkpt lat="43.6114955" lon="10.642941"><ele>30.0</ele><time>2026-04-04T08:12:07.042Z</time></trkpt><trkpt lat="43.6113944" lon="10.6429677"><ele>30.0</ele><time>2026-04-04T08:12:08.047Z</time></trkpt><trkpt lat="43.6112918" lon="10.6429881"><ele>30.0</ele><time>2026-04-04T08:12:09.049Z</time></trkpt><trkpt lat="43.6111913" lon="10.6430094"><ele>30.0</ele><time>2026-04-04T08:12:10.03Z</time></trkpt><trkpt lat="43.6110982" lon="10.6430323"><ele>30.0</ele><time>2026-04-04T08:12:11.048Z</time></trkpt><trkpt lat="43.6109992" lon="10.643041"><ele>30.25</ele><time>2026-04-04T08:12:12.045Z</time></trkpt><trkpt lat="43.6108873" lon="10.643026"><ele>30.5</ele><time>2026-04-04T08:12:13.051Z</time></trkpt><trkpt lat="43.6107788" lon="10.6429638"><ele>30.75</ele><time>2026-04-04T08:12:14.049Z</time></trkpt><trkpt lat="43.6106753" lon="10.6428685"><ele>31.0</ele><time>2026-04-04T08:12:15.042Z</time></trkpt><trkpt lat="43.6105698" lon="10.6427767"><ele>30.8</ele><time>2026-04-04T08:12:16.043Z</time></trkpt><trkpt lat="43.6104587" lon="10.6427299"><ele>30.6</ele><time>2026-04-04T08:12:17.036Z</time></trkpt><trkpt lat="43.6103478" lon="10.6427337"><ele>30.4</ele><time>2026-04-04T08:12:18.031Z</time></trkpt><trkpt lat="43.6102495" lon="10.6427663"><ele>30.2</ele><time>2026-04-04T08:12:19.05Z</time></trkpt><trkpt lat="43.6101607" lon="10.6428329"><ele>30.0</ele><time>2026-04-04T08:12:20.055Z</time></trkpt><trkpt lat="43.6100831" lon="10.6429345"><ele>30.0</ele><time>2026-04-04T08:12:21.057Z</time></trkpt><trkpt lat="43.6100244" lon="10.6430563"><ele>30.0</ele><time>2026-04-04T08:12:22.05Z</time></trkpt><trkpt lat="43.6099915" lon="10.6431721"><ele>30.0</ele><time>2026-04-04T08:12:23.061Z</time></trkpt><trkpt lat="43.6099828" lon="10.6432855"><ele>30.0</ele><time>2026-04-04T08:12:24.049Z</time></trkpt><trkpt lat="43.6099907" lon="10.643405"><ele>30.0</ele><time>2026-04-04T08:12:25.052Z</time></trkpt><trkpt lat="43.6100118" lon="10.6435233"><ele>30.0</ele><time>2026-04-04T08:12:26.046Z</time></trkpt><trkpt lat="43.6100316" lon="10.6436282"><ele>30.0</ele><time>2026-04-04T08:12:27.05Z</time></trkpt><trkpt lat="43.6100357" lon="10.643723"><ele>30.0</ele><time>2026-04-04T08:12:28.063Z</time></trkpt><trkpt lat="43.6100022" lon="10.643807"><ele>30.0</ele><time>2026-04-04T08:12:29.061Z</time></trkpt><trkpt lat="43.6099562" lon="10.6438737"><ele>30.0</ele><time>2026-04-04T08:12:30.062Z</time></trkpt><trkpt lat="43.6099068" lon="10.643929"><ele>30.0</ele><time>2026-04-04T08:12:31.059Z</time></trkpt><trkpt lat="43.6098551" lon="10.6439876"><ele>30.0</ele><time>2026-04-04T08:12:32.053Z</time></trkpt><trkpt lat="43.6097495" lon="10.6440383"><ele>29.666666666666668</ele><time>2026-04-04T08:12:34.057Z</time></trkpt><trkpt lat="43.6096628" lon="10.6440063"><ele>29.333333333333336</ele><time>2026-04-04T08:12:36.03Z</time></trkpt><trkpt lat="43.6095846" lon="10.6439312"><ele>29.0</ele><time>2026-04-04T08:12:38.039Z</time></trkpt><trkpt lat="43.6095168" lon="10.6437843"><ele>28.666666666666668</ele><time>2026-04-04T08:12:40.05Z</time></trkpt><trkpt lat="43.6094991" lon="10.643695"><ele>28.333333333333336</ele><time>2026-04-04T08:12:41.051Z</time></trkpt><trkpt lat="43.6094834" lon="10.6436064"><ele>28.0</ele><time>2026-04-04T08:12:42.048Z</time></trkpt><trkpt lat="43.6094644" lon="10.6435079"><ele>28.000000000000004</ele><time>2026-04-04T08:12:43.047Z</time></trkpt><trkpt lat="43.6094351" lon="10.6434067"><ele>28.0</ele><time>2026-04-04T08:12:44.057Z</time></trkpt><trkpt lat="43.609402" lon="10.6433106"><ele>28.0</ele><time>2026-04-04T08:12:45.05Z</time></trkpt><trkpt lat="43.6093675" lon="10.6432241"><ele>28.0</ele><time>2026-04-04T08:12:46.062Z</time></trkpt><trkpt lat="43.6093301" lon="10.6431538"><ele>28.000000000000004</ele><time>2026-04-04T08:12:47.042Z</time></trkpt><trkpt lat="43.6092278" lon="10.6430436"><ele>28.0</ele><time>2026-04-04T08:12:49.053Z</time></trkpt><trkpt lat="43.6091617" lon="10.6430086"><ele>28.000000000000004</ele><time>2026-04-04T08:12:50.051Z</time></trkpt><trkpt lat="43.6090832" lon="10.6429869"><ele>28.0</ele><time>2026-04-04T08:12:51.062Z</time></trkpt><trkpt lat="43.609013" lon="10.6429799"><ele>28.0</ele><time>2026-04-04T08:12:52.051Z</time></trkpt><trkpt lat="43.6089053" lon="10.6429647"><ele>28.0</ele><time>2026-04-04T08:12:54.054Z</time></trkpt><trkpt lat="43.6088093" lon="10.6429502"><ele>28.000000000000004</ele><time>2026-04-04T08:12:56.063Z</time></trkpt><trkpt lat="43.6087217" lon="10.6429501"><ele>28.0</ele><time>2026-04-04T08:12:58.065Z</time></trkpt><trkpt lat="43.608639" lon="10.6429318"><ele>27.500000000000004</ele><time>2026-04-04T08:13:00.052Z</time></trkpt><trkpt lat="43.6085712" lon="10.6428989"><ele>27.0</ele><time>2026-04-04T08:13:02.058Z</time></trkpt><trkpt lat="43.6084773" lon="10.6428716"><ele>26.5</ele><time>2026-04-04T08:13:05.054Z</time></trkpt><trkpt lat="43.6083734" lon="10.6428547"><ele>26.0</ele><time>2026-04-04T08:13:07.05Z</time></trkpt><trkpt lat="43.6083059" lon="10.6428468"><ele>25.500000000000004</ele><time>2026-04-04T08:13:08.065Z</time></trkpt><trkpt lat="43.6082264" lon="10.6428329"><ele>25.0</ele><time>2026-04-04T08:13:09.057Z</time></trkpt><trkpt lat="43.6081385" lon="10.6428165"><ele>25.0</ele><time>2026-04-04T08:13:10.067Z</time></trkpt><trkpt lat="43.6080433" lon="10.642804"><ele>25.0</ele><time>2026-04-04T08:13:11.055Z</time></trkpt><trkpt lat="43.6079452" lon="10.6427941"><ele>25.0</ele><time>2026-04-04T08:13:12.056Z</time></trkpt><trkpt lat="43.6078468" lon="10.6427801"><ele>25.0</ele><time>2026-04-04T08:13:13.043Z</time></trkpt><trkpt lat="43.6077433" lon="10.6427639"><ele>25.0</ele><time>2026-04-04T08:13:14.059Z</time></trkpt><trkpt lat="43.6076391" lon="10.6427465"><ele>25.75</ele><time>2026-04-04T08:13:15.049Z</time></trkpt><trkpt lat="43.6075266" lon="10.6427301"><ele>26.5</ele><time>2026-04-04T08:13:16.051Z</time></trkpt><trkpt lat="43.6074107" lon="10.6427104"><ele>27.25</ele><time>2026-04-04T08:13:17.042Z</time></trkpt><trkpt lat="43.6072919" lon="10.6426942"><ele>28.0</ele><time>2026-04-04T08:13:18.042Z</time></trkpt><trkpt lat="43.6071728" lon="10.6426818"><ele>28.0</ele><time>2026-04-04T08:13:19.046Z</time></trkpt><trkpt lat="43.6070576" lon="10.642666"><ele>28.0</ele><time>2026-04-04T08:13:20.048Z</time></trkpt><trkpt lat="43.6069461" lon="10.6426478"><ele>28.0</ele><time>2026-04-04T08:13:21.039Z</time></trkpt><trkpt lat="43.6068282" lon="10.6426364"><ele>28.0</ele><time>2026-04-04T08:13:22.047Z</time></trkpt><trkpt lat="43.6066966" lon="10.6426208"><ele>29.0</ele><time>2026-04-04T08:13:23.044Z</time></trkpt><trkpt lat="43.6065499" lon="10.6426027"><ele>30.0</ele><time>2026-04-04T08:13:24.033Z</time></trkpt><trkpt lat="43.6063956" lon="10.6425862"><ele>31.0</ele><time>2026-04-04T08:13:25.052Z</time></trkpt><trkpt lat="43.6062347" lon="10.6425678"><ele>31.333333333333336</ele><time>2026-04-04T08:13:26.058Z</time></trkpt><trkpt lat="43.6060729" lon="10.6425455"><ele>31.666666666666664</ele><time>2026-04-04T08:13:27.04Z</time></trkpt><trkpt lat="43.6059134" lon="10.6425202"><ele>32.0</ele><time>2026-04-04T08:13:28.042Z</time></trkpt><trkpt lat="43.605753" lon="10.6424977"><ele>32.0</ele><time>2026-04-04T08:13:29.041Z</time></trkpt><trkpt lat="43.6055997" lon="10.6424797"><ele>32.0</ele><time>2026-04-04T08:13:30.044Z</time></trkpt><trkpt lat="43.6054531" lon="10.6424688"><ele>32.0</ele><time>2026-04-04T08:13:31.037Z</time></trkpt><trkpt lat="43.6053147" lon="10.6424637"><ele>32.0</ele><time>2026-04-04T08:13:32.045Z</time></trkpt><trkpt lat="43.6051855" lon="10.6424557"><ele>32.0</ele><time>2026-04-04T08:13:33.052Z</time></trkpt><trkpt lat="43.6050563" lon="10.6424503"><ele>32.0</ele><time>2026-04-04T08:13:34.041Z</time></trkpt><trkpt lat="43.6049287" lon="10.6424455"><ele>32.0</ele><time>2026-04-04T08:13:35.053Z</time></trkpt><trkpt lat="43.6048038" lon="10.6424392"><ele>32.0</ele><time>2026-04-04T08:13:36.047Z</time></trkpt><trkpt lat="43.604679" lon="10.6424351"><ele>32.0</ele><time>2026-04-04T08:13:37.046Z</time></trkpt><trkpt lat="43.6045576" lon="10.6424333"><ele>32.0</ele><time>2026-04-04T08:13:38.035Z</time></trkpt><trkpt lat="43.6044399" lon="10.6424297"><ele>32.0</ele><time>2026-04-04T08:13:39.054Z</time></trkpt><trkpt lat="43.6043205" lon="10.6424233"><ele>32.0</ele><time>2026-04-04T08:13:40.049Z</time></trkpt><trkpt lat="43.6041962" lon="10.6424235"><ele>32.25</ele><time>2026-04-04T08:13:41.052Z</time></trkpt><trkpt lat="43.6040689" lon="10.6424225"><ele>32.5</ele><time>2026-04-04T08:13:42.04Z</time></trkpt><trkpt lat="43.6039419" lon="10.6424179"><ele>32.75</ele><time>2026-04-04T08:13:43.047Z</time></trkpt><trkpt lat="43.6038169" lon="10.6424138"><ele>33.0</ele><time>2026-04-04T08:13:44.045Z</time></trkpt><trkpt lat="43.6036954" lon="10.6424108"><ele>32.0</ele><time>2026-04-04T08:13:45.044Z</time></trkpt><trkpt lat="43.6035707" lon="10.6424119"><ele>31.0</ele><time>2026-04-04T08:13:46.037Z</time></trkpt><trkpt lat="43.6034478" lon="10.6424077"><ele>30.0</ele><time>2026-04-04T08:13:47.053Z</time></trkpt><trkpt lat="43.6033245" lon="10.6423994"><ele>29.0</ele><time>2026-04-04T08:13:48.048Z</time></trkpt><trkpt lat="43.6031999" lon="10.6423946"><ele>29.0</ele><time>2026-04-04T08:13:49.048Z</time></trkpt><trkpt lat="43.6030742" lon="10.6423904"><ele>29.0</ele><time>2026-04-04T08:13:50.045Z</time></trkpt><trkpt lat="43.602951" lon="10.6423853"><ele>29.0</ele><time>2026-04-04T08:13:51.053Z</time></trkpt><trkpt lat="43.6028308" lon="10.6423841"><ele>29.0</ele><time>2026-04-04T08:13:52.064Z</time></trkpt><trkpt lat="43.6027098" lon="10.642387"><ele>28.75</ele><time>2026-04-04T08:13:53.043Z</time></trkpt><trkpt lat="43.6025892" lon="10.6423917"><ele>28.5</ele><time>2026-04-04T08:13:54.052Z</time></trkpt><trkpt lat="43.6024698" lon="10.6423914"><ele>28.25</ele><time>2026-04-04T08:13:55.056Z</time></trkpt><trkpt lat="43.6023435" lon="10.6423865"><ele>28.0</ele><time>2026-04-04T08:13:56.055Z</time></trkpt><trkpt lat="43.6022094" lon="10.6423787"><ele>28.0</ele><time>2026-04-04T08:13:57.04Z</time></trkpt><trkpt lat="43.6020708" lon="10.6423768"><ele>28.0</ele><time>2026-04-04T08:13:58.038Z</time></trkpt><trkpt lat="43.601926" lon="10.6423726"><ele>28.0</ele><time>2026-04-04T08:13:59.043Z</time></trkpt><trkpt lat="43.601772" lon="10.6423704"><ele>28.0</ele><time>2026-04-04T08:14:00.047Z</time></trkpt><trkpt lat="43.6016126" lon="10.6423705"><ele>28.0</ele><time>2026-04-04T08:14:01.048Z</time></trkpt><trkpt lat="43.6014476" lon="10.6423693"><ele>28.0</ele><time>2026-04-04T08:14:02.055Z</time></trkpt><trkpt lat="43.6012816" lon="10.6423678"><ele>28.0</ele><time>2026-04-04T08:14:03.053Z</time></trkpt><trkpt lat="43.6011131" lon="10.6423661"><ele>28.0</ele><time>2026-04-04T08:14:04.07Z</time></trkpt><trkpt lat="43.6009423" lon="10.6423597"><ele>28.0</ele><time>2026-04-04T08:14:05.054Z</time></trkpt><trkpt lat="43.6007698" lon="10.6423532"><ele>28.0</ele><time>2026-04-04T08:14:06.058Z</time></trkpt><trkpt lat="43.6005974" lon="10.6423486"><ele>28.0</ele><time>2026-04-04T08:14:07.046Z</time></trkpt><trkpt lat="43.600428" lon="10.6423424"><ele>28.0</ele><time>2026-04-04T08:14:08.051Z</time></trkpt><trkpt lat="43.6002602" lon="10.6423352"><ele>28.0</ele><time>2026-04-04T08:14:09.035Z</time></trkpt><trkpt lat="43.6000967" lon="10.6423337"><ele>27.0</ele><time>2026-04-04T08:14:10.037Z</time></trkpt><trkpt lat="43.5999352" lon="10.6423341"><ele>26.0</ele><time>2026-04-04T08:14:11.056Z</time></trkpt><trkpt lat="43.5997763" lon="10.6423339"><ele>25.0</ele><time>2026-04-04T08:14:12.059Z</time></trkpt><trkpt lat="43.5996178" lon="10.6423338"><ele>25.0</ele><time>2026-04-04T08:14:13.046Z</time></trkpt><trkpt lat="43.5994613" lon="10.6423274"><ele>25.0</ele><time>2026-04-04T08:14:14.059Z</time></trkpt><trkpt lat="43.5993082" lon="10.6423218"><ele>25.0</ele><time>2026-04-04T08:14:15.047Z</time></trkpt><trkpt lat="43.5991582" lon="10.6423235"><ele>25.0</ele><time>2026-04-04T08:14:16.043Z</time></trkpt><trkpt lat="43.5990187" lon="10.6423274"><ele>25.0</ele><time>2026-04-04T08:14:17.056Z</time></trkpt><trkpt lat="43.5988925" lon="10.6423285"><ele>25.0</ele><time>2026-04-04T08:14:18.051Z</time></trkpt><trkpt lat="43.5987896" lon="10.6423341"><ele>25.0</ele><time>2026-04-04T08:14:19.042Z</time></trkpt><trkpt lat="43.5987039" lon="10.6423499"><ele>25.2</ele><time>2026-04-04T08:14:20.046Z</time></trkpt><trkpt lat="43.5986356" lon="10.6423939"><ele>25.4</ele><time>2026-04-04T08:14:21.038Z</time></trkpt><trkpt lat="43.5985748" lon="10.6424693"><ele>25.6</ele><time>2026-04-04T08:14:22.053Z</time></trkpt><trkpt lat="43.5985185" lon="10.6425714"><ele>25.8</ele><time>2026-04-04T08:14:23.065Z</time></trkpt><trkpt lat="43.5984605" lon="10.6426891"><ele>26.0</ele><time>2026-04-04T08:14:24.073Z</time></trkpt><trkpt lat="43.5984005" lon="10.6428177"><ele>26.200000000000003</ele><time>2026-04-04T08:14:25.046Z</time></trkpt><trkpt lat="43.5983406" lon="10.6429515"><ele>26.400000000000002</ele><time>2026-04-04T08:14:26.055Z</time></trkpt><trkpt lat="43.5982831" lon="10.6430821"><ele>26.6</ele><time>2026-04-04T08:14:27.051Z</time></trkpt><trkpt lat="43.5982274" lon="10.64321"><ele>26.8</ele><time>2026-04-04T08:14:28.053Z</time></trkpt><trkpt lat="43.5981787" lon="10.6433388"><ele>27.0</ele><time>2026-04-04T08:14:29.059Z</time></trkpt><trkpt lat="43.5981368" lon="10.643461"><ele>27.0</ele><time>2026-04-04T08:14:30.047Z</time></trkpt><trkpt lat="43.5980981" lon="10.6435808"><ele>27.000000000000004</ele><time>2026-04-04T08:14:31.066Z</time></trkpt><trkpt lat="43.5980636" lon="10.6436979"><ele>27.000000000000004</ele><time>2026-04-04T08:14:32.057Z</time></trkpt><trkpt lat="43.5980264" lon="10.6438122"><ele>27.0</ele><time>2026-04-04T08:14:33.058Z</time></trkpt><trkpt lat="43.5979879" lon="10.6439235"><ele>27.0</ele><time>2026-04-04T08:14:34.034Z</time></trkpt><trkpt lat="43.5979467" lon="10.6440291"><ele>27.5</ele><time>2026-04-04T08:14:35.042Z</time></trkpt><trkpt lat="43.5979028" lon="10.6441317"><ele>28.0</ele><time>2026-04-04T08:14:36.043Z</time></trkpt><trkpt lat="43.5978604" lon="10.6442329"><ele>28.5</ele><time>2026-04-04T08:14:37.045Z</time></trkpt><trkpt lat="43.5978239" lon="10.6443206"><ele>29.0</ele><time>2026-04-04T08:14:38.044Z</time></trkpt><trkpt lat="43.5977775" lon="10.6444373"><ele>29.5</ele><time>2026-04-04T08:14:40.047Z</time></trkpt><trkpt lat="43.597763" lon="10.6445378"><ele>30.0</ele><time>2026-04-04T08:14:44.056Z</time></trkpt><trkpt lat="43.5977926" lon="10.6446168"><ele>30.666666666666668</ele><time>2026-04-04T08:14:48.057Z</time></trkpt><trkpt lat="43.5978295" lon="10.6447083"><ele>31.333333333333336</ele><time>2026-04-04T08:14:54.043Z</time></trkpt><trkpt lat="43.59789" lon="10.6448233"><ele>32.0</ele><time>2026-04-04T08:14:57.049Z</time></trkpt><trkpt lat="43.5979648" lon="10.6449385"><ele>32.66666666666667</ele><time>2026-04-04T08:14:59.059Z</time></trkpt><trkpt lat="43.5980096" lon="10.6450134"><ele>33.333333333333336</ele><time>2026-04-04T08:15:00.061Z</time></trkpt><trkpt lat="43.598058" lon="10.6451012"><ele>34.0</ele><time>2026-04-04T08:15:01.05Z</time></trkpt><trkpt lat="43.5981116" lon="10.6451936"><ele>34.0</ele><time>2026-04-04T08:15:02.048Z</time></trkpt><trkpt lat="43.5981726" lon="10.6452889"><ele>34.0</ele><time>2026-04-04T08:15:03.038Z</time></trkpt><trkpt lat="43.598239" lon="10.6453849"><ele>34.0</ele><time>2026-04-04T08:15:04.069Z</time></trkpt><trkpt lat="43.5983069" lon="10.6454873"><ele>34.0</ele><time>2026-04-04T08:15:05.037Z</time></trkpt><trkpt lat="43.5983836" lon="10.6455975"><ele>34.0</ele><time>2026-04-04T08:15:06.049Z</time></trkpt><trkpt lat="43.5984679" lon="10.645716"><ele>34.2</ele><time>2026-04-04T08:15:07.037Z</time></trkpt><trkpt lat="43.5985524" lon="10.6458357"><ele>34.4</ele><time>2026-04-04T08:15:08.046Z</time></trkpt><trkpt lat="43.5986319" lon="10.6459547"><ele>34.6</ele><time>2026-04-04T08:15:09.056Z</time></trkpt><trkpt lat="43.5986989" lon="10.6460737"><ele>34.8</ele><time>2026-04-04T08:15:10.042Z</time></trkpt><trkpt lat="43.5987466" lon="10.6461957"><ele>35.0</ele><time>2026-04-04T08:15:11.051Z</time></trkpt><trkpt lat="43.5987758" lon="10.6463174"><ele>35.8</ele><time>2026-04-04T08:15:12.049Z</time></trkpt><trkpt lat="43.5987769" lon="10.646445"><ele>36.6</ele><time>2026-04-04T08:15:13.036Z</time></trkpt><trkpt lat="43.5987603" lon="10.646567"><ele>37.4</ele><time>2026-04-04T08:15:14.059Z</time></trkpt><trkpt lat="43.5987348" lon="10.6466897"><ele>38.2</ele><time>2026-04-04T08:15:15.053Z</time></trkpt><trkpt lat="43.5986984" lon="10.6468163"><ele>39.0</ele><time>2026-04-04T08:15:16.039Z</time></trkpt><trkpt lat="43.5986583" lon="10.6469429"><ele>39.8</ele><time>2026-04-04T08:15:17.02Z</time></trkpt><trkpt lat="43.5986174" lon="10.6470741"><ele>40.599999999999994</ele><time>2026-04-04T08:15:18.059Z</time></trkpt><trkpt lat="43.5985869" lon="10.6472026"><ele>41.4</ele><time>2026-04-04T08:15:19.042Z</time></trkpt><trkpt lat="43.5985631" lon="10.6473214"><ele>42.199999999999996</ele><time>2026-04-04T08:15:20.045Z</time></trkpt><trkpt lat="43.5985232" lon="10.6474319"><ele>43.0</ele><time>2026-04-04T08:15:21.036Z</time></trkpt><trkpt lat="43.5984797" lon="10.64753"><ele>43.0</ele><time>2026-04-04T08:15:22.039Z</time></trkpt><trkpt lat="43.5984516" lon="10.6476353"><ele>43.0</ele><time>2026-04-04T08:15:23.049Z</time></trkpt><trkpt lat="43.598441" lon="10.6477524"><ele>43.0</ele><time>2026-04-04T08:15:24.063Z</time></trkpt><trkpt lat="43.5984421" lon="10.6478664"><ele>43.0</ele><time>2026-04-04T08:15:25.044Z</time></trkpt><trkpt lat="43.5984641" lon="10.6479829"><ele>43.0</ele><time>2026-04-04T08:15:26.053Z</time></trkpt><trkpt lat="43.5984909" lon="10.6480935"><ele>43.0</ele><time>2026-04-04T08:15:27.043Z</time></trkpt><trkpt lat="43.5985249" lon="10.6481901"><ele>43.5</ele><time>2026-04-04T08:15:28.039Z</time></trkpt><trkpt lat="43.598566" lon="10.6482774"><ele>44.0</ele><time>2026-04-04T08:15:29.051Z</time></trkpt><trkpt lat="43.5986123" lon="10.6483674"><ele>44.5</ele><time>2026-04-04T08:15:30.055Z</time></trkpt><trkpt lat="43.598661" lon="10.6484547"><ele>45.0</ele><time>2026-04-04T08:15:31.046Z</time></trkpt><trkpt lat="43.5987068" lon="10.6485469"><ele>45.5</ele><time>2026-04-04T08:15:32.069Z</time></trkpt><trkpt lat="43.5987534" lon="10.6486282"><ele>46.0</ele><time>2026-04-04T08:15:33.047Z</time></trkpt><trkpt lat="43.598795" lon="10.648709"><ele>48.714285714285715</ele><time>2026-04-04T08:15:34.046Z</time></trkpt><trkpt lat="43.598835" lon="10.6487937"><ele>51.42857142857143</ele><time>2026-04-04T08:15:35.063Z</time></trkpt><trkpt lat="43.5988731" lon="10.6488784"><ele>54.142857142857146</ele><time>2026-04-04T08:15:36.079Z</time></trkpt><trkpt lat="43.5989051" lon="10.6489711"><ele>56.85714285714286</ele><time>2026-04-04T08:15:37.053Z</time></trkpt><trkpt lat="43.5989339" lon="10.6490693"><ele>59.57142857142857</ele><time>2026-04-04T08:15:38.058Z</time></trkpt><trkpt lat="43.5989533" lon="10.64917"><ele>62.28571428571429</ele><time>2026-04-04T08:15:39.043Z</time></trkpt><trkpt lat="43.5989583" lon="10.6492729"><ele>65.0</ele><time>2026-04-04T08:15:40.065Z</time></trkpt><trkpt lat="43.5989555" lon="10.6493744"><ele>65.42857142857143</ele><time>2026-04-04T08:15:41.047Z</time></trkpt><trkpt lat="43.5989483" lon="10.64948"><ele>65.85714285714286</ele><time>2026-04-04T08:15:42.059Z</time></trkpt><trkpt lat="43.5989324" lon="10.6495829"><ele>66.28571428571428</ele><time>2026-04-04T08:15:43.044Z</time></trkpt><trkpt lat="43.5989099" lon="10.6496815"><ele>66.71428571428572</ele><time>2026-04-04T08:15:44.06Z</time></trkpt><trkpt lat="43.5988772" lon="10.6497725"><ele>67.14285714285714</ele><time>2026-04-04T08:15:45.034Z</time></trkpt><trkpt lat="43.5988315" lon="10.6498502"><ele>67.57142857142857</ele><time>2026-04-04T08:15:46.079Z</time></trkpt><trkpt lat="43.5987805" lon="10.6499175"><ele>68.0</ele><time>2026-04-04T08:15:47.054Z</time></trkpt><trkpt lat="43.5987313" lon="10.649978"><ele>67.2</ele><time>2026-04-04T08:15:48.038Z</time></trkpt><trkpt lat="43.5986356" lon="10.6500801"><ele>66.4</ele><time>2026-04-04T08:15:50.041Z</time></trkpt><trkpt lat="43.5985297" lon="10.6501578"><ele>65.60000000000001</ele><time>2026-04-04T08:15:52.037Z</time></trkpt><trkpt lat="43.5984631" lon="10.6501937"><ele>64.8</ele><time>2026-04-04T08:15:53.051Z</time></trkpt><trkpt lat="43.5983937" lon="10.6502333"><ele>64.0</ele><time>2026-04-04T08:15:54.059Z</time></trkpt><trkpt lat="43.5983159" lon="10.6502618"><ele>63.99999999999999</ele><time>2026-04-04T08:15:55.048Z</time></trkpt><trkpt lat="43.5982356" lon="10.6502896"><ele>64.0</ele><time>2026-04-04T08:15:56.041Z</time></trkpt><trkpt lat="43.5981508" lon="10.6503113"><ele>64.0</ele><time>2026-04-04T08:15:57.065Z</time></trkpt><trkpt lat="43.5980687" lon="10.6503317"><ele>64.0</ele><time>2026-04-04T08:15:58.057Z</time></trkpt><trkpt lat="43.5979914" lon="10.6503609"><ele>63.99999999999999</ele><time>2026-04-04T08:15:59.058Z</time></trkpt><trkpt lat="43.5979211" lon="10.6504072"><ele>64.0</ele><time>2026-04-04T08:16:00.045Z</time></trkpt><trkpt lat="43.5978564" lon="10.6504799"><ele>64.5</ele><time>2026-04-04T08:16:01.042Z</time></trkpt><trkpt lat="43.5978016" lon="10.6505602"><ele>65.0</ele><time>2026-04-04T08:16:02.042Z</time></trkpt><trkpt lat="43.597749" lon="10.650644"><ele>65.5</ele><time>2026-04-04T08:16:03.051Z</time></trkpt><trkpt lat="43.5977081" lon="10.6507333"><ele>66.0</ele><time>2026-04-04T08:16:04.056Z</time></trkpt><trkpt lat="43.5976708" lon="10.6508293"><ele>66.5</ele><time>2026-04-04T08:16:05.046Z</time></trkpt><trkpt lat="43.5976374" lon="10.6509307"><ele>67.0</ele><time>2026-04-04T08:16:06.048Z</time></trkpt><trkpt lat="43.5976045" lon="10.6510309"><ele>67.83333333333333</ele><time>2026-04-04T08:16:07.047Z</time></trkpt><trkpt lat="43.597568" lon="10.6511309"><ele>68.66666666666666</ele><time>2026-04-04T08:16:08.059Z</time></trkpt><trkpt lat="43.5975346" lon="10.6512288"><ele>69.5</ele><time>2026-04-04T08:16:09.057Z</time></trkpt><trkpt lat="43.5974971" lon="10.6513254"><ele>70.33333333333333</ele><time>2026-04-04T08:16:10.045Z</time></trkpt><trkpt lat="43.5974597" lon="10.6514206"><ele>71.16666666666667</ele><time>2026-04-04T08:16:11.042Z</time></trkpt><trkpt lat="43.5974224" lon="10.6515151"><ele>72.0</ele><time>2026-04-04T08:16:12.061Z</time></trkpt><trkpt lat="43.597387" lon="10.6516045"><ele>72.00000000000001</ele><time>2026-04-04T08:16:13.057Z</time></trkpt><trkpt lat="43.5973518" lon="10.6516884"><ele>72.0</ele><time>2026-04-04T08:16:14.048Z</time></trkpt><trkpt lat="43.5973155" lon="10.6517769"><ele>72.0</ele><time>2026-04-04T08:16:15.049Z</time></trkpt><trkpt lat="43.5972792" lon="10.6518661"><ele>72.0</ele><time>2026-04-04T08:16:16.041Z</time></trkpt><trkpt lat="43.597246" lon="10.651952"><ele>72.0</ele><time>2026-04-04T08:16:17.051Z</time></trkpt><trkpt lat="43.5972123" lon="10.6520402"><ele>72.00000000000001</ele><time>2026-04-04T08:16:18.041Z</time></trkpt><trkpt lat="43.5971818" lon="10.6521282"><ele>72.0</ele><time>2026-04-04T08:16:19.047Z</time></trkpt><trkpt lat="43.5971479" lon="10.6522179"><ele>72.33333333333333</ele><time>2026-04-04T08:16:20.061Z</time></trkpt><trkpt lat="43.5971134" lon="10.652304"><ele>72.66666666666667</ele><time>2026-04-04T08:16:21.062Z</time></trkpt><trkpt lat="43.5970816" lon="10.6523974"><ele>73.0</ele><time>2026-04-04T08:16:22.046Z</time></trkpt><trkpt lat="43.5970495" lon="10.6524876"><ele>73.33333333333334</ele><time>2026-04-04T08:16:23.064Z</time></trkpt><trkpt lat="43.5970111" lon="10.6525688"><ele>73.66666666666667</ele><time>2026-04-04T08:16:24.057Z</time></trkpt><trkpt lat="43.5969151" lon="10.6526644"><ele>74.0</ele><time>2026-04-04T08:16:26.06Z</time></trkpt><trkpt lat="43.5968088" lon="10.6527075"><ele>74.2</ele><time>2026-04-04T08:16:28.057Z</time></trkpt><trkpt lat="43.5966986" lon="10.6527638"><ele>74.4</ele><time>2026-04-04T08:16:30.049Z</time></trkpt><trkpt lat="43.5965891" lon="10.6528374"><ele>74.6</ele><time>2026-04-04T08:16:32.047Z</time></trkpt><trkpt lat="43.5965328" lon="10.6528844"><ele>74.8</ele><time>2026-04-04T08:16:33.059Z</time></trkpt><trkpt lat="43.5964469" lon="10.6529818"><ele>75.0</ele><time>2026-04-04T08:16:35.044Z</time></trkpt><trkpt lat="43.5963835" lon="10.6531067"><ele>75.0</ele><time>2026-04-04T08:16:37.054Z</time></trkpt><trkpt lat="43.5963377" lon="10.6532282"><ele>75.0</ele><time>2026-04-04T08:16:39.036Z</time></trkpt><trkpt lat="43.5962874" lon="10.6533487"><ele>75.0</ele><time>2026-04-04T08:16:41.047Z</time></trkpt><trkpt lat="43.5962419" lon="10.6534688"><ele>75.0</ele><time>2026-04-04T08:16:43.044Z</time></trkpt><trkpt lat="43.5961917" lon="10.6535724"><ele>75.0</ele><time>2026-04-04T08:16:45.054Z</time></trkpt><trkpt lat="43.5961224" lon="10.6536469"><ele>73.33333333333333</ele><time>2026-04-04T08:16:47.049Z</time></trkpt><trkpt lat="43.5960123" lon="10.6537059"><ele>71.66666666666667</ele><time>2026-04-04T08:16:49.059Z</time></trkpt><trkpt lat="43.5959476" lon="10.6537357"><ele>70.0</ele><time>2026-04-04T08:16:50.06Z</time></trkpt><trkpt lat="43.5958835" lon="10.6537689"><ele>68.33333333333334</ele><time>2026-04-04T08:16:51.072Z</time></trkpt><trkpt lat="43.5958207" lon="10.6538134"><ele>66.66666666666667</ele><time>2026-04-04T08:16:52.049Z</time></trkpt><trkpt lat="43.5957606" lon="10.6538567"><ele>65.0</ele><time>2026-04-04T08:16:53.059Z</time></trkpt><trkpt lat="43.5956504" lon="10.6539443"><ele>65.00000000000001</ele><time>2026-04-04T08:16:55.047Z</time></trkpt><trkpt lat="43.5955884" lon="10.6539825"><ele>65.0</ele><time>2026-04-04T08:16:56.072Z</time></trkpt><trkpt lat="43.5955229" lon="10.6540167"><ele>65.0</ele><time>2026-04-04T08:16:57.057Z</time></trkpt><trkpt lat="43.5954593" lon="10.6540569"><ele>65.0</ele><time>2026-04-04T08:16:58.045Z</time></trkpt><trkpt lat="43.5953975" lon="10.6541023"><ele>65.0</ele><time>2026-04-04T08:16:59.058Z</time></trkpt><trkpt lat="43.595336" lon="10.6541468"><ele>65.00000000000001</ele><time>2026-04-04T08:17:00.062Z</time></trkpt><trkpt lat="43.5952779" lon="10.6541872"><ele>65.0</ele><time>2026-04-04T08:17:01.059Z</time></trkpt><trkpt lat="43.5952207" lon="10.6542243"><ele>65.83333333333334</ele><time>2026-04-04T08:17:02.061Z</time></trkpt><trkpt lat="43.5950955" lon="10.6542738"><ele>66.66666666666667</ele><time>2026-04-04T08:17:04.06Z</time></trkpt><trkpt lat="43.5950238" lon="10.6543006"><ele>67.5</ele><time>2026-04-04T08:17:05.053Z</time></trkpt><trkpt lat="43.5949495" lon="10.6543283"><ele>68.33333333333333</ele><time>2026-04-04T08:17:06.062Z</time></trkpt><trkpt lat="43.5948813" lon="10.6543521"><ele>69.16666666666666</ele><time>2026-04-04T08:17:07.051Z</time></trkpt><trkpt lat="43.5948174" lon="10.6543758"><ele>70.0</ele><time>2026-04-04T08:17:08.073Z</time></trkpt><trkpt lat="43.5947557" lon="10.6543975"><ele>70.0</ele><time>2026-04-04T08:17:09.054Z</time></trkpt><trkpt lat="43.5946299" lon="10.6544331"><ele>70.0</ele><time>2026-04-04T08:17:11.048Z</time></trkpt><trkpt lat="43.594555" lon="10.654448"><ele>70.0</ele><time>2026-04-04T08:17:12.05Z</time></trkpt><trkpt lat="43.5944789" lon="10.6544705"><ele>70.0</ele><time>2026-04-04T08:17:13.046Z</time></trkpt><trkpt lat="43.5944042" lon="10.6544897"><ele>70.0</ele><time>2026-04-04T08:17:14.055Z</time></trkpt><trkpt lat="43.5943288" lon="10.6545099"><ele>70.0</ele><time>2026-04-04T08:17:15.044Z</time></trkpt><trkpt lat="43.5942525" lon="10.6545295"><ele>68.71428571428571</ele><time>2026-04-04T08:17:16.049Z</time></trkpt><trkpt lat="43.594182" lon="10.6545444"><ele>67.42857142857143</ele><time>2026-04-04T08:17:17.055Z</time></trkpt><trkpt lat="43.5941142" lon="10.654556"><ele>66.14285714285714</ele><time>2026-04-04T08:17:18.045Z</time></trkpt><trkpt lat="43.5940428" lon="10.6545742"><ele>64.85714285714286</ele><time>2026-04-04T08:17:19.044Z</time></trkpt><trkpt lat="43.5939671" lon="10.6545936"><ele>63.57142857142857</ele><time>2026-04-04T08:17:20.064Z</time></trkpt><trkpt lat="43.5938885" lon="10.6546129"><ele>62.28571428571428</ele><time>2026-04-04T08:17:21.052Z</time></trkpt><trkpt lat="43.5938097" lon="10.6546306"><ele>60.99999999999999</ele><time>2026-04-04T08:17:22.075Z</time></trkpt><trkpt lat="43.5937255" lon="10.6546518"><ele>61.666666666666664</ele><time>2026-04-04T08:17:23.061Z</time></trkpt><trkpt lat="43.5936421" lon="10.6546859"><ele>62.33333333333333</ele><time>2026-04-04T08:17:24.06Z</time></trkpt><trkpt lat="43.5935627" lon="10.6547316"><ele>63.0</ele><time>2026-04-04T08:17:25.052Z</time></trkpt><trkpt lat="43.5934821" lon="10.6547839"><ele>63.66666666666667</ele><time>2026-04-04T08:17:26.058Z</time></trkpt><trkpt lat="43.5934043" lon="10.654843"><ele>64.33333333333334</ele><time>2026-04-04T08:17:27.039Z</time></trkpt><trkpt lat="43.5933279" lon="10.6549134"><ele>65.0</ele><time>2026-04-04T08:17:28.084Z</time></trkpt><trkpt lat="43.593254" lon="10.6549964"><ele>65.0</ele><time>2026-04-04T08:17:29.078Z</time></trkpt><trkpt lat="43.5931742" lon="10.6550767"><ele>65.0</ele><time>2026-04-04T08:17:30.063Z</time></trkpt><trkpt lat="43.5931014" lon="10.6551616"><ele>65.0</ele><time>2026-04-04T08:17:31.046Z</time></trkpt><trkpt lat="43.5930385" lon="10.6552611"><ele>65.0</ele><time>2026-04-04T08:17:32.063Z</time></trkpt><trkpt lat="43.5929833" lon="10.6553626"><ele>65.0</ele><time>2026-04-04T08:17:33.053Z</time></trkpt><trkpt lat="43.5929379" lon="10.6554726"><ele>64.0</ele><time>2026-04-04T08:17:34.049Z</time></trkpt><trkpt lat="43.5929019" lon="10.6555833"><ele>63.0</ele><time>2026-04-04T08:17:35.059Z</time></trkpt><trkpt lat="43.5928638" lon="10.6556866"><ele>62.0</ele><time>2026-04-04T08:17:36.047Z</time></trkpt><trkpt lat="43.592823" lon="10.6557902"><ele>61.0</ele><time>2026-04-04T08:17:37.055Z</time></trkpt><trkpt lat="43.5927777" lon="10.6558957"><ele>60.00000000000001</ele><time>2026-04-04T08:17:38.054Z</time></trkpt><trkpt lat="43.5927326" lon="10.6559992"><ele>59.0</ele><time>2026-04-04T08:17:39.044Z</time></trkpt><trkpt lat="43.5926876" lon="10.6561053"><ele>59.66666666666667</ele><time>2026-04-04T08:17:40.078Z</time></trkpt><trkpt lat="43.5926478" lon="10.6562162"><ele>60.333333333333336</ele><time>2026-04-04T08:17:41.063Z</time></trkpt><trkpt lat="43.592609" lon="10.6563299"><ele>61.0</ele><time>2026-04-04T08:17:42.049Z</time></trkpt><trkpt lat="43.5925701" lon="10.6564445"><ele>61.66666666666667</ele><time>2026-04-04T08:17:43.048Z</time></trkpt><trkpt lat="43.5925283" lon="10.6565528"><ele>62.333333333333336</ele><time>2026-04-04T08:17:44.055Z</time></trkpt><trkpt lat="43.5924881" lon="10.6566575"><ele>63.0</ele><time>2026-04-04T08:17:45.052Z</time></trkpt><trkpt lat="43.5924412" lon="10.6567502"><ele>63.0</ele><time>2026-04-04T08:17:46.067Z</time></trkpt><trkpt lat="43.5923902" lon="10.6568409"><ele>63.0</ele><time>2026-04-04T08:17:47.048Z</time></trkpt><trkpt lat="43.5923324" lon="10.6569306"><ele>63.0</ele><time>2026-04-04T08:17:48.05Z</time></trkpt><trkpt lat="43.5922778" lon="10.6570203"><ele>63.0</ele><time>2026-04-04T08:17:49.047Z</time></trkpt><trkpt lat="43.5922261" lon="10.6571054"><ele>63.0</ele><time>2026-04-04T08:17:50.051Z</time></trkpt><trkpt lat="43.5921775" lon="10.6571938"><ele>63.0</ele><time>2026-04-04T08:17:51.042Z</time></trkpt><trkpt lat="43.5921354" lon="10.6572899"><ele>63.85714285714286</ele><time>2026-04-04T08:17:52.046Z</time></trkpt><trkpt lat="43.5921079" lon="10.6573953"><ele>64.71428571428572</ele><time>2026-04-04T08:17:53.064Z</time></trkpt><trkpt lat="43.5920887" lon="10.6574972"><ele>65.57142857142857</ele><time>2026-04-04T08:17:54.038Z</time></trkpt><trkpt lat="43.5920691" lon="10.6575933"><ele>66.42857142857143</ele><time>2026-04-04T08:17:55.062Z</time></trkpt><trkpt lat="43.5920545" lon="10.657689"><ele>67.28571428571429</ele><time>2026-04-04T08:17:56.047Z</time></trkpt><trkpt lat="43.592042" lon="10.6577802"><ele>68.14285714285714</ele><time>2026-04-04T08:17:57.042Z</time></trkpt><trkpt lat="43.5920329" lon="10.6578709"><ele>69.0</ele><time>2026-04-04T08:17:58.051Z</time></trkpt><trkpt lat="43.5920217" lon="10.658039"><ele>69.16666666666667</ele><time>2026-04-04T08:18:00.037Z</time></trkpt><trkpt lat="43.5920117" lon="10.6581262"><ele>69.33333333333333</ele><time>2026-04-04T08:18:01.041Z</time></trkpt><trkpt lat="43.5919984" lon="10.658216"><ele>69.5</ele><time>2026-04-04T08:18:02.039Z</time></trkpt><trkpt lat="43.5919879" lon="10.6583042"><ele>69.66666666666666</ele><time>2026-04-04T08:18:03.04Z</time></trkpt><trkpt lat="43.5919588" lon="10.6584655"><ele>69.83333333333333</ele><time>2026-04-04T08:18:05.045Z</time></trkpt><trkpt lat="43.5918971" lon="10.6586183"><ele>70.0</ele><time>2026-04-04T08:18:07.054Z</time></trkpt><trkpt lat="43.5918523" lon="10.6586978"><ele>70.0</ele><time>2026-04-04T08:18:08.051Z</time></trkpt><trkpt lat="43.5917983" lon="10.6587814"><ele>70.0</ele><time>2026-04-04T08:18:09.058Z</time></trkpt><trkpt lat="43.5917299" lon="10.6588593"><ele>70.0</ele><time>2026-04-04T08:18:10.046Z</time></trkpt><trkpt lat="43.5916586" lon="10.6589328"><ele>70.0</ele><time>2026-04-04T08:18:11.052Z</time></trkpt><trkpt lat="43.5915804" lon="10.6589969"><ele>70.0</ele><time>2026-04-04T08:18:12.061Z</time></trkpt><trkpt lat="43.5915042" lon="10.6590482"><ele>70.0</ele><time>2026-04-04T08:18:13.046Z</time></trkpt><trkpt lat="43.5914309" lon="10.6590957"><ele>70.0</ele><time>2026-04-04T08:18:14.039Z</time></trkpt><trkpt lat="43.5913564" lon="10.6591425"><ele>70.0</ele><time>2026-04-04T08:18:15.046Z</time></trkpt><trkpt lat="43.5912902" lon="10.6591824"><ele>70.0</ele><time>2026-04-04T08:18:16.057Z</time></trkpt><trkpt lat="43.5912274" lon="10.6592202"><ele>70.0</ele><time>2026-04-04T08:18:17.053Z</time></trkpt><trkpt lat="43.5911675" lon="10.6592617"><ele>70.0</ele><time>2026-04-04T08:18:18.047Z</time></trkpt><trkpt lat="43.5910592" lon="10.659335"><ele>70.0</ele><time>2026-04-04T08:18:20.068Z</time></trkpt><trkpt lat="43.5909563" lon="10.6594128"><ele>68.6</ele><time>2026-04-04T08:18:22.056Z</time></trkpt><trkpt lat="43.5908536" lon="10.6594732"><ele>67.2</ele><time>2026-04-04T08:18:24.06Z</time></trkpt><trkpt lat="43.5907636" lon="10.6595222"><ele>65.8</ele><time>2026-04-04T08:18:26.032Z</time></trkpt><trkpt lat="43.5906735" lon="10.6595761"><ele>64.4</ele><time>2026-04-04T08:18:29.039Z</time></trkpt><trkpt lat="43.5906003" lon="10.659642"><ele>63.0</ele><time>2026-04-04T08:18:31.05Z</time></trkpt><trkpt lat="43.5905017" lon="10.6597272"><ele>63.0</ele><time>2026-04-04T08:18:33.053Z</time></trkpt><trkpt lat="43.5904404" lon="10.6597732"><ele>63.0</ele><time>2026-04-04T08:18:34.049Z</time></trkpt><trkpt lat="43.5903756" lon="10.6598219"><ele>63.0</ele><time>2026-04-04T08:18:35.056Z</time></trkpt><trkpt lat="43.5903036" lon="10.6598816"><ele>63.0</ele><time>2026-04-04T08:18:36.049Z</time></trkpt><trkpt lat="43.5902337" lon="10.6599413"><ele>63.0</ele><time>2026-04-04T08:18:37.046Z</time></trkpt><trkpt lat="43.5901651" lon="10.6599972"><ele>63.0</ele><time>2026-04-04T08:18:38.048Z</time></trkpt><trkpt lat="43.5900978" lon="10.6600523"><ele>62.833333333333336</ele><time>2026-04-04T08:18:39.051Z</time></trkpt><trkpt lat="43.590036" lon="10.6601033"><ele>62.66666666666667</ele><time>2026-04-04T08:18:40.05Z</time></trkpt><trkpt lat="43.5899738" lon="10.6601583"><ele>62.5</ele><time>2026-04-04T08:18:41.042Z</time></trkpt><trkpt lat="43.5899099" lon="10.6602163"><ele>62.333333333333336</ele><time>2026-04-04T08:18:42.046Z</time></trkpt><trkpt lat="43.5898476" lon="10.6602708"><ele>62.16666666666667</ele><time>2026-04-04T08:18:43.06Z</time></trkpt><trkpt lat="43.5897857" lon="10.6603374"><ele>62.0</ele><time>2026-04-04T08:18:44.042Z</time></trkpt><trkpt lat="43.5897312" lon="10.6604104"><ele>61.333333333333336</ele><time>2026-04-04T08:18:45.05Z</time></trkpt><trkpt lat="43.5896807" lon="10.6604842"><ele>60.66666666666667</ele><time>2026-04-04T08:18:46.055Z</time></trkpt><trkpt lat="43.5896276" lon="10.6605579"><ele>60.0</ele><time>2026-04-04T08:18:47.044Z</time></trkpt><trkpt lat="43.5895656" lon="10.6606222"><ele>59.33333333333333</ele><time>2026-04-04T08:18:48.057Z</time></trkpt><trkpt lat="43.5895046" lon="10.6606892"><ele>58.666666666666664</ele><time>2026-04-04T08:18:49.058Z</time></trkpt><trkpt lat="43.5894415" lon="10.6607594"><ele>58.0</ele><time>2026-04-04T08:18:50.053Z</time></trkpt><trkpt lat="43.5893801" lon="10.6608277"><ele>57.666666666666664</ele><time>2026-04-04T08:18:51.045Z</time></trkpt><trkpt lat="43.5893196" lon="10.660896"><ele>57.33333333333333</ele><time>2026-04-04T08:18:52.039Z</time></trkpt><trkpt lat="43.5892581" lon="10.6609624"><ele>57.0</ele><time>2026-04-04T08:18:53.051Z</time></trkpt><trkpt lat="43.5891978" lon="10.6610319"><ele>56.66666666666667</ele><time>2026-04-04T08:18:54.038Z</time></trkpt><trkpt lat="43.5891394" lon="10.661102"><ele>56.333333333333336</ele><time>2026-04-04T08:18:55.063Z</time></trkpt><trkpt lat="43.5890865" lon="10.6611666"><ele>56.0</ele><time>2026-04-04T08:18:56.041Z</time></trkpt><trkpt lat="43.589038" lon="10.6612301"><ele>55.714285714285715</ele><time>2026-04-04T08:18:57.057Z</time></trkpt><trkpt lat="43.58899" lon="10.6612983"><ele>55.42857142857143</ele><time>2026-04-04T08:18:58.037Z</time></trkpt><trkpt lat="43.5889405" lon="10.6613738"><ele>55.14285714285714</ele><time>2026-04-04T08:18:59.054Z</time></trkpt><trkpt lat="43.5888931" lon="10.6614541"><ele>54.85714285714286</ele><time>2026-04-04T08:19:00.043Z</time></trkpt><trkpt lat="43.5888474" lon="10.6615378"><ele>54.57142857142857</ele><time>2026-04-04T08:19:01.047Z</time></trkpt><trkpt lat="43.5888016" lon="10.661619"><ele>54.285714285714285</ele><time>2026-04-04T08:19:02.056Z</time></trkpt><trkpt lat="43.5887552" lon="10.6617041"><ele>54.0</ele><time>2026-04-04T08:19:03.045Z</time></trkpt><trkpt lat="43.5887098" lon="10.6617958"><ele>54.833333333333336</ele><time>2026-04-04T08:19:04.032Z</time></trkpt><trkpt lat="43.5886617" lon="10.6618929"><ele>55.66666666666667</ele><time>2026-04-04T08:19:05.055Z</time></trkpt><trkpt lat="43.5886067" lon="10.6619914"><ele>56.5</ele><time>2026-04-04T08:19:06.038Z</time></trkpt><trkpt lat="43.5885528" lon="10.662088"><ele>57.333333333333336</ele><time>2026-04-04T08:19:07.053Z</time></trkpt><trkpt lat="43.5885067" lon="10.6621879"><ele>58.16666666666667</ele><time>2026-04-04T08:19:08.046Z</time></trkpt><trkpt lat="43.5884595" lon="10.6622811"><ele>59.0</ele><time>2026-04-04T08:19:09.04Z</time></trkpt><trkpt lat="43.5884054" lon="10.662362"><ele>59.16666666666667</ele><time>2026-04-04T08:19:10.045Z</time></trkpt><trkpt lat="43.5883504" lon="10.6624435"><ele>59.333333333333336</ele><time>2026-04-04T08:19:11.04Z</time></trkpt><trkpt lat="43.5883099" lon="10.6625301"><ele>59.5</ele><time>2026-04-04T08:19:12.055Z</time></trkpt><trkpt lat="43.5882635" lon="10.6626506"><ele>59.66666666666667</ele><time>2026-04-04T08:19:14.036Z</time></trkpt><trkpt lat="43.5882397" lon="10.6627334"><ele>59.833333333333336</ele><time>2026-04-04T08:19:16.035Z</time></trkpt><trkpt lat="43.5882146" lon="10.6628355"><ele>60.0</ele><time>2026-04-04T08:19:18.042Z</time></trkpt><trkpt lat="43.5881759" lon="10.6629434"><ele>60.666666666666664</ele><time>2026-04-04T08:19:20.046Z</time></trkpt><trkpt lat="43.5881426" lon="10.6630434"><ele>61.33333333333333</ele><time>2026-04-04T08:19:23.041Z</time></trkpt><trkpt lat="43.5881007" lon="10.6631516"><ele>62.0</ele><time>2026-04-04T08:19:26.042Z</time></trkpt><trkpt lat="43.5880598" lon="10.6632275"><ele>62.666666666666664</ele><time>2026-04-04T08:19:28.046Z</time></trkpt><trkpt lat="43.5880132" lon="10.6633128"><ele>63.33333333333333</ele><time>2026-04-04T08:19:31.057Z</time></trkpt><trkpt lat="43.5879585" lon="10.6633972"><ele>64.0</ele><time>2026-04-04T08:19:34.055Z</time></trkpt><trkpt lat="43.5879175" lon="10.6634651"><ele>63.99999999999999</ele><time>2026-04-04T08:19:36.041Z</time></trkpt><trkpt lat="43.5878616" lon="10.6635596"><ele>64.0</ele><time>2026-04-04T08:19:39.06Z</time></trkpt><trkpt lat="43.5878025" lon="10.6636384"><ele>64.0</ele><time>2026-04-04T08:19:42.055Z</time></trkpt><trkpt lat="43.5877399" lon="10.6637213"><ele>64.0</ele><time>2026-04-04T08:19:45.045Z</time></trkpt><trkpt lat="43.5876654" lon="10.6638254"><ele>63.99999999999999</ele><time>2026-04-04T08:19:47.048Z</time></trkpt><trkpt lat="43.5876164" lon="10.6639"><ele>64.0</ele><time>2026-04-04T08:19:48.062Z</time></trkpt><trkpt lat="43.587575" lon="10.6639708"><ele>64.5</ele><time>2026-04-04T08:19:49.053Z</time></trkpt><trkpt lat="43.5875069" lon="10.6641003"><ele>65.0</ele><time>2026-04-04T08:19:51.053Z</time></trkpt><trkpt lat="43.5874279" lon="10.6642171"><ele>65.5</ele><time>2026-04-04T08:19:53.046Z</time></trkpt><trkpt lat="43.5873759" lon="10.6642817"><ele>66.0</ele><time>2026-04-04T08:19:54.037Z</time></trkpt><trkpt lat="43.5873224" lon="10.6643489"><ele>66.5</ele><time>2026-04-04T08:19:55.041Z</time></trkpt><trkpt lat="43.5872696" lon="10.6644099"><ele>67.0</ele><time>2026-04-04T08:19:56.046Z</time></trkpt><trkpt lat="43.5872194" lon="10.6644678"><ele>67.2</ele><time>2026-04-04T08:19:57.051Z</time></trkpt><trkpt lat="43.587141" lon="10.6645842"><ele>67.4</ele><time>2026-04-04T08:19:59.059Z</time></trkpt><trkpt lat="43.5870917" lon="10.664695"><ele>67.6</ele><time>2026-04-04T08:20:01.053Z</time></trkpt><trkpt lat="43.5870353" lon="10.6648024"><ele>67.8</ele><time>2026-04-04T08:20:03.049Z</time></trkpt><trkpt lat="43.5869652" lon="10.6649235"><ele>68.0</ele><time>2026-04-04T08:20:05.053Z</time></trkpt><trkpt lat="43.5868863" lon="10.6650406"><ele>68.0</ele><time>2026-04-04T08:20:07.038Z</time></trkpt><trkpt lat="43.5867834" lon="10.6651319"><ele>68.0</ele><time>2026-04-04T08:20:09.037Z</time></trkpt><trkpt lat="43.5867236" lon="10.6651784"><ele>68.0</ele><time>2026-04-04T08:20:10.038Z</time></trkpt><trkpt lat="43.5866675" lon="10.6652242"><ele>68.0</ele><time>2026-04-04T08:20:11.042Z</time></trkpt><trkpt lat="43.5865657" lon="10.6653163"><ele>68.0</ele><time>2026-04-04T08:20:13.038Z</time></trkpt><trkpt lat="43.5864666" lon="10.6654063"><ele>69.6</ele><time>2026-04-04T08:20:15.045Z</time></trkpt><trkpt lat="43.5863816" lon="10.6655233"><ele>71.19999999999999</ele><time>2026-04-04T08:20:17.045Z</time></trkpt><trkpt lat="43.5863208" lon="10.665645"><ele>72.8</ele><time>2026-04-04T08:20:19.039Z</time></trkpt><trkpt lat="43.5862599" lon="10.6657663"><ele>74.39999999999999</ele><time>2026-04-04T08:20:21.037Z</time></trkpt><trkpt lat="43.5861944" lon="10.665872"><ele>76.0</ele><time>2026-04-04T08:20:23.044Z</time></trkpt><trkpt lat="43.586122" lon="10.6659954"><ele>76.66666666666666</ele><time>2026-04-04T08:20:25.038Z</time></trkpt><trkpt lat="43.586086" lon="10.6660721"><ele>77.33333333333333</ele><time>2026-04-04T08:20:26.03Z</time></trkpt><trkpt lat="43.5860548" lon="10.6662134"><ele>78.0</ele><time>2026-04-04T08:20:28.034Z</time></trkpt><trkpt lat="43.5860444" lon="10.6663413"><ele>78.66666666666667</ele><time>2026-04-04T08:20:30.043Z</time></trkpt><trkpt lat="43.5859446" lon="10.6663919"><ele>79.33333333333334</ele><time>2026-04-04T08:20:32.046Z</time></trkpt><trkpt lat="43.5858812" lon="10.6664321"><ele>80.0</ele><time>2026-04-04T08:20:33.044Z</time></trkpt><trkpt lat="43.5858168" lon="10.6664934"><ele>80.2</ele><time>2026-04-04T08:20:34.054Z</time></trkpt><trkpt lat="43.5857526" lon="10.6665618"><ele>80.4</ele><time>2026-04-04T08:20:35.036Z</time></trkpt><trkpt lat="43.5856897" lon="10.6666396"><ele>80.6</ele><time>2026-04-04T08:20:36.064Z</time></trkpt><trkpt lat="43.5856168" lon="10.6667355"><ele>80.8</ele><time>2026-04-04T08:20:37.046Z</time></trkpt><trkpt lat="43.5855235" lon="10.6668559"><ele>81.0</ele><time>2026-04-04T08:20:38.039Z</time></trkpt><trkpt lat="43.585418" lon="10.6669596"><ele>82.0</ele><time>2026-04-04T08:20:39.045Z</time></trkpt><trkpt lat="43.5853034" lon="10.667058"><ele>83.0</ele><time>2026-04-04T08:20:40.043Z</time></trkpt><trkpt lat="43.5851915" lon="10.6671561"><ele>84.0</ele><time>2026-04-04T08:20:41.059Z</time></trkpt><trkpt lat="43.5850899" lon="10.6672483"><ele>85.0</ele><time>2026-04-04T08:20:42.046Z</time></trkpt><trkpt lat="43.5850031" lon="10.6673156"><ele>85.0</ele><time>2026-04-04T08:20:43.044Z</time></trkpt><trkpt lat="43.5849252" lon="10.6673716"><ele>85.0</ele><time>2026-04-04T08:20:44.04Z</time></trkpt><trkpt lat="43.5848496" lon="10.6674315"><ele>85.0</ele><time>2026-04-04T08:20:45.041Z</time></trkpt><trkpt lat="43.5847769" lon="10.6674866"><ele>85.0</ele><time>2026-04-04T08:20:46.033Z</time></trkpt><trkpt lat="43.5847099" lon="10.6675459"><ele>85.0</ele><time>2026-04-04T08:20:47.043Z</time></trkpt><trkpt lat="43.5846517" lon="10.6676128"><ele>85.0</ele><time>2026-04-04T08:20:48.033Z</time></trkpt><trkpt lat="43.5845781" lon="10.6677289"><ele>84.2</ele><time>2026-04-04T08:20:50.043Z</time></trkpt><trkpt lat="43.5845383" lon="10.6678417"><ele>83.4</ele><time>2026-04-04T08:20:52.052Z</time></trkpt><trkpt lat="43.5845105" lon="10.6679755"><ele>82.6</ele><time>2026-04-04T08:20:54.06Z</time></trkpt><trkpt lat="43.5844759" lon="10.6681208"><ele>81.8</ele><time>2026-04-04T08:20:56.055Z</time></trkpt><trkpt lat="43.5844399" lon="10.6682415"><ele>81.0</ele><time>2026-04-04T08:20:58.048Z</time></trkpt><trkpt lat="43.5844113" lon="10.6683364"><ele>81.8</ele><time>2026-04-04T08:21:00.032Z</time></trkpt><trkpt lat="43.5843805" lon="10.668418"><ele>82.6</ele><time>2026-04-04T08:21:02.052Z</time></trkpt><trkpt lat="43.5843435" lon="10.6685027"><ele>83.4</ele><time>2026-04-04T08:21:04.056Z</time></trkpt><trkpt lat="43.5842892" lon="10.6686268"><ele>84.2</ele><time>2026-04-04T08:21:06.054Z</time></trkpt><trkpt lat="43.584224" lon="10.6687655"><ele>85.0</ele><time>2026-04-04T08:21:08.048Z</time></trkpt><trkpt lat="43.5841715" lon="10.6689093"><ele>85.0</ele><time>2026-04-04T08:21:10.07Z</time></trkpt><trkpt lat="43.5841255" lon="10.6690441"><ele>85.0</ele><time>2026-04-04T08:21:12.077Z</time></trkpt><trkpt lat="43.5840762" lon="10.669166"><ele>85.0</ele><time>2026-04-04T08:21:14.08Z</time></trkpt><trkpt lat="43.5840009" lon="10.6692743"><ele>85.0</ele><time>2026-04-04T08:21:16.057Z</time></trkpt><trkpt lat="43.5838938" lon="10.6693812"><ele>85.0</ele><time>2026-04-04T08:21:18.055Z</time></trkpt><trkpt lat="43.5838245" lon="10.66944"><ele>85.0</ele><time>2026-04-04T08:21:19.058Z</time></trkpt><trkpt lat="43.5837566" lon="10.669496"><ele>85.0</ele><time>2026-04-04T08:21:20.063Z</time></trkpt><trkpt lat="43.5836868" lon="10.6695487"><ele>85.0</ele><time>2026-04-04T08:21:21.06Z</time></trkpt><trkpt lat="43.5836198" lon="10.6695997"><ele>85.0</ele><time>2026-04-04T08:21:22.06Z</time></trkpt><trkpt lat="43.5835527" lon="10.6696558"><ele>85.0</ele><time>2026-04-04T08:21:23.051Z</time></trkpt><trkpt lat="43.583487" lon="10.669711"><ele>85.0</ele><time>2026-04-04T08:21:24.064Z</time></trkpt><trkpt lat="43.5834204" lon="10.6697612"><ele>85.0</ele><time>2026-04-04T08:21:25.056Z</time></trkpt><trkpt lat="43.583349" lon="10.6698068"><ele>85.0</ele><time>2026-04-04T08:21:26.045Z</time></trkpt><trkpt lat="43.5832745" lon="10.6698507"><ele>85.0</ele><time>2026-04-04T08:21:27.028Z</time></trkpt><trkpt lat="43.5832007" lon="10.6699124"><ele>85.0</ele><time>2026-04-04T08:21:28.057Z</time></trkpt><trkpt lat="43.5831336" lon="10.6699974"><ele>85.0</ele><time>2026-04-04T08:21:29.051Z</time></trkpt><trkpt lat="43.5830666" lon="10.6700878"><ele>85.0</ele><time>2026-04-04T08:21:30.05Z</time></trkpt><trkpt lat="43.5829981" lon="10.6701699"><ele>85.0</ele><time>2026-04-04T08:21:31.05Z</time></trkpt><trkpt lat="43.5829253" lon="10.670242"><ele>85.0</ele><time>2026-04-04T08:21:32.06Z</time></trkpt><trkpt lat="43.5828486" lon="10.6703043"><ele>85.0</ele><time>2026-04-04T08:21:33.048Z</time></trkpt><trkpt lat="43.5827689" lon="10.670359"><ele>85.0</ele><time>2026-04-04T08:21:34.059Z</time></trkpt><trkpt lat="43.582687" lon="10.6704034"><ele>85.0</ele><time>2026-04-04T08:21:35.055Z</time></trkpt><trkpt lat="43.582611" lon="10.670446"><ele>85.42857142857143</ele><time>2026-04-04T08:21:36.063Z</time></trkpt><trkpt lat="43.5825351" lon="10.6704863"><ele>85.85714285714285</ele><time>2026-04-04T08:21:37.047Z</time></trkpt><trkpt lat="43.5824653" lon="10.6705404"><ele>86.28571428571428</ele><time>2026-04-04T08:21:38.07Z</time></trkpt><trkpt lat="43.5824026" lon="10.6706027"><ele>86.71428571428572</ele><time>2026-04-04T08:21:39.051Z</time></trkpt><trkpt lat="43.5823461" lon="10.6706627"><ele>87.14285714285714</ele><time>2026-04-04T08:21:40.062Z</time></trkpt><trkpt lat="43.5822964" lon="10.6707232"><ele>87.57142857142857</ele><time>2026-04-04T08:21:41.052Z</time></trkpt><trkpt lat="43.5822504" lon="10.6707919"><ele>88.0</ele><time>2026-04-04T08:21:42.06Z</time></trkpt><trkpt lat="43.5821979" lon="10.6708574"><ele>88.0</ele><time>2026-04-04T08:21:43.057Z</time></trkpt><trkpt lat="43.5821385" lon="10.6709167"><ele>88.0</ele><time>2026-04-04T08:21:44.043Z</time></trkpt><trkpt lat="43.5820745" lon="10.670964"><ele>88.0</ele><time>2026-04-04T08:21:45.073Z</time></trkpt><trkpt lat="43.5820083" lon="10.6710027"><ele>88.0</ele><time>2026-04-04T08:21:46.052Z</time></trkpt><trkpt lat="43.5819361" lon="10.6710349"><ele>88.0</ele><time>2026-04-04T08:21:47.044Z</time></trkpt><trkpt lat="43.5818524" lon="10.6710597"><ele>88.0</ele><time>2026-04-04T08:21:48.046Z</time></trkpt><trkpt lat="43.5817588" lon="10.6710817"><ele>87.83333333333333</ele><time>2026-04-04T08:21:49.049Z</time></trkpt><trkpt lat="43.5816651" lon="10.6710954"><ele>87.66666666666666</ele><time>2026-04-04T08:21:50.053Z</time></trkpt><trkpt lat="43.5815819" lon="10.6711126"><ele>87.5</ele><time>2026-04-04T08:21:51.047Z</time></trkpt><trkpt lat="43.5815128" lon="10.6711364"><ele>87.33333333333333</ele><time>2026-04-04T08:21:52.037Z</time></trkpt><trkpt lat="43.5814536" lon="10.6711858"><ele>87.16666666666667</ele><time>2026-04-04T08:21:53.052Z</time></trkpt><trkpt lat="43.5813961" lon="10.6712443"><ele>87.0</ele><time>2026-04-04T08:21:54.036Z</time></trkpt><trkpt lat="43.5813387" lon="10.671322"><ele>86.83333333333333</ele><time>2026-04-04T08:21:55.053Z</time></trkpt><trkpt lat="43.5812851" lon="10.6714085"><ele>86.66666666666667</ele><time>2026-04-04T08:21:56.046Z</time></trkpt><trkpt lat="43.5812278" lon="10.6714916"><ele>86.5</ele><time>2026-04-04T08:21:57.049Z</time></trkpt><trkpt lat="43.5811723" lon="10.6715739"><ele>86.33333333333334</ele><time>2026-04-04T08:21:58.061Z</time></trkpt><trkpt lat="43.5811152" lon="10.671656"><ele>86.16666666666667</ele><time>2026-04-04T08:21:59.058Z</time></trkpt><trkpt lat="43.5810592" lon="10.671739"><ele>86.0</ele><time>2026-04-04T08:22:00.05Z</time></trkpt><trkpt lat="43.5810111" lon="10.6718225"><ele>86.00000000000001</ele><time>2026-04-04T08:22:01.046Z</time></trkpt><trkpt lat="43.5809623" lon="10.6718974"><ele>86.0</ele><time>2026-04-04T08:22:02.04Z</time></trkpt><trkpt lat="43.5809165" lon="10.6719681"><ele>86.0</ele><time>2026-04-04T08:22:03.053Z</time></trkpt><trkpt lat="43.5808648" lon="10.6720367"><ele>86.0</ele><time>2026-04-04T08:22:04.037Z</time></trkpt><trkpt lat="43.5808139" lon="10.6721099"><ele>86.0</ele><time>2026-04-04T08:22:05.04Z</time></trkpt><trkpt lat="43.5807612" lon="10.6721891"><ele>86.00000000000001</ele><time>2026-04-04T08:22:06.045Z</time></trkpt><trkpt lat="43.5807107" lon="10.672271"><ele>86.0</ele><time>2026-04-04T08:22:07.031Z</time></trkpt><trkpt lat="43.5806627" lon="10.6723518"><ele>85.5</ele><time>2026-04-04T08:22:08.029Z</time></trkpt><trkpt lat="43.5806138" lon="10.6724338"><ele>85.0</ele><time>2026-04-04T08:22:09.036Z</time></trkpt><trkpt lat="43.5805601" lon="10.6725155"><ele>84.5</ele><time>2026-04-04T08:22:10.045Z</time></trkpt><trkpt lat="43.5805121" lon="10.6725933"><ele>84.0</ele><time>2026-04-04T08:22:11.043Z</time></trkpt><trkpt lat="43.5804642" lon="10.6726702"><ele>83.5</ele><time>2026-04-04T08:22:12.039Z</time></trkpt><trkpt lat="43.5804252" lon="10.6727459"><ele>83.0</ele><time>2026-04-04T08:22:13.049Z</time></trkpt><trkpt lat="43.5803522" lon="10.6728536"><ele>82.4</ele><time>2026-04-04T08:22:15.052Z</time></trkpt><trkpt lat="43.5802738" lon="10.6727786"><ele>81.80000000000001</ele><time>2026-04-04T08:22:18.054Z</time></trkpt><trkpt lat="43.5802177" lon="10.6726154"><ele>81.2</ele><time>2026-04-04T08:22:20.052Z</time></trkpt><trkpt lat="43.5801747" lon="10.6725033"><ele>80.6</ele><time>2026-04-04T08:22:21.05Z</time></trkpt><trkpt lat="43.5801146" lon="10.6723796"><ele>80.0</ele><time>2026-04-04T08:22:22.038Z</time></trkpt><trkpt lat="43.5800429" lon="10.6722507"><ele>81.2</ele><time>2026-04-04T08:22:23.038Z</time></trkpt><trkpt lat="43.5799657" lon="10.6721296"><ele>82.4</ele><time>2026-04-04T08:22:24.047Z</time></trkpt><trkpt lat="43.5798935" lon="10.6720188"><ele>83.6</ele><time>2026-04-04T08:22:25.049Z</time></trkpt><trkpt lat="43.5798232" lon="10.6719339"><ele>84.8</ele><time>2026-04-04T08:22:26.052Z</time></trkpt><trkpt lat="43.5797592" lon="10.6718576"><ele>86.0</ele><time>2026-04-04T08:22:27.049Z</time></trkpt><trkpt lat="43.5797005" lon="10.6717762"><ele>86.0</ele><time>2026-04-04T08:22:28.042Z</time></trkpt><trkpt lat="43.5796432" lon="10.6717142"><ele>86.0</ele><time>2026-04-04T08:22:29.044Z</time></trkpt><trkpt lat="43.5795506" lon="10.6716847"><ele>86.0</ele><time>2026-04-04T08:22:31.045Z</time></trkpt><trkpt lat="43.5794745" lon="10.6717081"><ele>86.0</ele><time>2026-04-04T08:22:35.065Z</time></trkpt><trkpt lat="43.5794309" lon="10.6718475"><ele>86.0</ele><time>2026-04-04T08:22:37.033Z</time></trkpt><trkpt lat="43.5794288" lon="10.6719726"><ele>86.0</ele><time>2026-04-04T08:22:38.037Z</time></trkpt><trkpt lat="43.5794408" lon="10.6721143"><ele>83.25</ele><time>2026-04-04T08:22:39.039Z</time></trkpt><trkpt lat="43.5794545" lon="10.6722805"><ele>80.5</ele><time>2026-04-04T08:22:40.066Z</time></trkpt><trkpt lat="43.5794641" lon="10.6724689"><ele>77.75</ele><time>2026-04-04T08:22:41.045Z</time></trkpt><trkpt lat="43.5794683" lon="10.6726797"><ele>75.0</ele><time>2026-04-04T08:22:42.055Z</time></trkpt><trkpt lat="43.5794676" lon="10.672913"><ele>72.33333333333333</ele><time>2026-04-04T08:22:43.048Z</time></trkpt><trkpt lat="43.5794788" lon="10.673161"><ele>69.66666666666666</ele><time>2026-04-04T08:22:44.054Z</time></trkpt><trkpt lat="43.5794951" lon="10.6734318"><ele>67.0</ele><time>2026-04-04T08:22:45.048Z</time></trkpt><trkpt lat="43.5795093" lon="10.6737162"><ele>68.33333333333333</ele><time>2026-04-04T08:22:46.056Z</time></trkpt><trkpt lat="43.579525" lon="10.6740193"><ele>69.66666666666667</ele><time>2026-04-04T08:22:47.049Z</time></trkpt><trkpt lat="43.5795376" lon="10.674332"><ele>71.0</ele><time>2026-04-04T08:22:48.041Z</time></trkpt><trkpt lat="43.5795563" lon="10.6746492"><ele>71.0</ele><time>2026-04-04T08:22:49.049Z</time></trkpt><trkpt lat="43.5795725" lon="10.6749731"><ele>71.0</ele><time>2026-04-04T08:22:50.065Z</time></trkpt><trkpt lat="43.5795878" lon="10.6753036"><ele>67.0</ele><time>2026-04-04T08:22:51.06Z</time></trkpt><trkpt lat="43.5796033" lon="10.6756277"><ele>63.0</ele><time>2026-04-04T08:22:52.047Z</time></trkpt><trkpt lat="43.5796189" lon="10.6759471"><ele>59.5</ele><time>2026-04-04T08:22:53.055Z</time></trkpt><trkpt lat="43.5796359" lon="10.6762666"><ele>56.0</ele><time>2026-04-04T08:22:54.055Z</time></trkpt><trkpt lat="43.5796513" lon="10.6765829"><ele>56.0</ele><time>2026-04-04T08:22:55.049Z</time></trkpt><trkpt lat="43.5796625" lon="10.6768984"><ele>56.0</ele><time>2026-04-04T08:22:56.055Z</time></trkpt><trkpt lat="43.579675" lon="10.6772029"><ele>55.66666666666667</ele><time>2026-04-04T08:22:57.048Z</time></trkpt><trkpt lat="43.5796897" lon="10.6774906"><ele>55.33333333333333</ele><time>2026-04-04T08:22:58.057Z</time></trkpt><trkpt lat="43.5797047" lon="10.6777656"><ele>55.0</ele><time>2026-04-04T08:22:59.044Z</time></trkpt><trkpt lat="43.5797155" lon="10.6780342"><ele>54.0</ele><time>2026-04-04T08:23:00.039Z</time></trkpt><trkpt lat="43.5797276" lon="10.6782882"><ele>53.0</ele><time>2026-04-04T08:23:01.044Z</time></trkpt><trkpt lat="43.5797377" lon="10.6785336"><ele>52.0</ele><time>2026-04-04T08:23:02.038Z</time></trkpt><trkpt lat="43.5797476" lon="10.6787726"><ele>50.33333333333333</ele><time>2026-04-04T08:23:03.051Z</time></trkpt><trkpt lat="43.5797591" lon="10.6790068"><ele>48.666666666666664</ele><time>2026-04-04T08:23:04.043Z</time></trkpt><trkpt lat="43.5797677" lon="10.6792312"><ele>47.0</ele><time>2026-04-04T08:23:05.043Z</time></trkpt><trkpt lat="43.5797788" lon="10.6794402"><ele>45.75</ele><time>2026-04-04T08:23:06.029Z</time></trkpt><trkpt lat="43.5797914" lon="10.6796422"><ele>44.5</ele><time>2026-04-04T08:23:07.053Z</time></trkpt><trkpt lat="43.5798053" lon="10.679836"><ele>43.25</ele><time>2026-04-04T08:23:08.034Z</time></trkpt><trkpt lat="43.5798248" lon="10.6800197"><ele>42.0</ele><time>2026-04-04T08:23:09.038Z</time></trkpt><trkpt lat="43.5798463" lon="10.6802024"><ele>41.25</ele><time>2026-04-04T08:23:10.038Z</time></trkpt><trkpt lat="43.5798603" lon="10.680381"><ele>40.5</ele><time>2026-04-04T08:23:11.04Z</time></trkpt><trkpt lat="43.5798611" lon="10.6805763"><ele>39.75</ele><time>2026-04-04T08:23:12.038Z</time></trkpt><trkpt lat="43.5798599" lon="10.6807834"><ele>39.0</ele><time>2026-04-04T08:23:13.051Z</time></trkpt><trkpt lat="43.579867" lon="10.6809963"><ele>38.666666666666664</ele><time>2026-04-04T08:23:14.048Z</time></trkpt><trkpt lat="43.5798782" lon="10.6812119"><ele>38.33333333333333</ele><time>2026-04-04T08:23:15.049Z</time></trkpt><trkpt lat="43.5798903" lon="10.6814289"><ele>38.0</ele><time>2026-04-04T08:23:16.04Z</time></trkpt><trkpt lat="43.5799028" lon="10.6816461"><ele>38.0</ele><time>2026-04-04T08:23:17.042Z</time></trkpt><trkpt lat="43.5799108" lon="10.68185"><ele>38.0</ele><time>2026-04-04T08:23:18.047Z</time></trkpt><trkpt lat="43.5799153" lon="10.6820398"><ele>38.0</ele><time>2026-04-04T08:23:19.049Z</time></trkpt><trkpt lat="43.5799108" lon="10.682225"><ele>38.0</ele><time>2026-04-04T08:23:20.038Z</time></trkpt><trkpt lat="43.5798927" lon="10.6823908"><ele>38.0</ele><time>2026-04-04T08:23:21.046Z</time></trkpt><trkpt lat="43.5798573" lon="10.6825396"><ele>38.0</ele><time>2026-04-04T08:23:22.047Z</time></trkpt><trkpt lat="43.579814" lon="10.6826802"><ele>38.0</ele><time>2026-04-04T08:23:23.029Z</time></trkpt><trkpt lat="43.579767" lon="10.6828107"><ele>38.0</ele><time>2026-04-04T08:23:24.039Z</time></trkpt><trkpt lat="43.5797722" lon="10.6829474"><ele>38.0</ele><time>2026-04-04T08:23:25.044Z</time></trkpt><trkpt lat="43.5798263" lon="10.6830809"><ele>38.0</ele><time>2026-04-04T08:23:26.039Z</time></trkpt><trkpt lat="43.5798923" lon="10.6832143"><ele>38.0</ele><time>2026-04-04T08:23:27.034Z</time></trkpt><trkpt lat="43.5799406" lon="10.6833701"><ele>38.0</ele><time>2026-04-04T08:23:28.037Z</time></trkpt><trkpt lat="43.5799674" lon="10.6835522"><ele>38.0</ele><time>2026-04-04T08:23:29.055Z</time></trkpt><trkpt lat="43.5799803" lon="10.6837453"><ele>37.666666666666664</ele><time>2026-04-04T08:23:30.051Z</time></trkpt><trkpt lat="43.5799954" lon="10.6839543"><ele>37.333333333333336</ele><time>2026-04-04T08:23:31.052Z</time></trkpt><trkpt lat="43.5800091" lon="10.6841816"><ele>37.0</ele><time>2026-04-04T08:23:32.054Z</time></trkpt><trkpt lat="43.5800233" lon="10.6844193"><ele>37.66666666666667</ele><time>2026-04-04T08:23:33.053Z</time></trkpt><trkpt lat="43.580038" lon="10.6846686"><ele>38.333333333333336</ele><time>2026-04-04T08:23:34.053Z</time></trkpt><trkpt lat="43.5800522" lon="10.6849304"><ele>39.0</ele><time>2026-04-04T08:23:35.049Z</time></trkpt><trkpt lat="43.5800687" lon="10.685209"><ele>38.666666666666664</ele><time>2026-04-04T08:23:36.068Z</time></trkpt><trkpt lat="43.580087" lon="10.6854964"><ele>38.33333333333333</ele><time>2026-04-04T08:23:37.042Z</time></trkpt><trkpt lat="43.5801046" lon="10.6857852"><ele>38.0</ele><time>2026-04-04T08:23:38.053Z</time></trkpt><trkpt lat="43.5801201" lon="10.6860657"><ele>36.666666666666664</ele><time>2026-04-04T08:23:39.056Z</time></trkpt><trkpt lat="43.5801356" lon="10.6863397"><ele>35.333333333333336</ele><time>2026-04-04T08:23:40.047Z</time></trkpt><trkpt lat="43.5801492" lon="10.6866107"><ele>34.0</ele><time>2026-04-04T08:23:41.053Z</time></trkpt><trkpt lat="43.5801647" lon="10.6868802"><ele>34.66666666666667</ele><time>2026-04-04T08:23:42.052Z</time></trkpt><trkpt lat="43.5801771" lon="10.6871525"><ele>35.333333333333336</ele><time>2026-04-04T08:23:43.041Z</time></trkpt><trkpt lat="43.5801901" lon="10.687423"><ele>36.0</ele><time>2026-04-04T08:23:44.044Z</time></trkpt><trkpt lat="43.5802006" lon="10.6876968"><ele>36.0</ele><time>2026-04-04T08:23:45.045Z</time></trkpt><trkpt lat="43.5802099" lon="10.6879818"><ele>36.0</ele><time>2026-04-04T08:23:46.055Z</time></trkpt><trkpt lat="43.5802247" lon="10.6882795"><ele>36.0</ele><time>2026-04-04T08:23:47.048Z</time></trkpt><trkpt lat="43.5802422" lon="10.6885891"><ele>35.0</ele><time>2026-04-04T08:23:48.047Z</time></trkpt><trkpt lat="43.5802586" lon="10.6889054"><ele>34.0</ele><time>2026-04-04T08:23:49.053Z</time></trkpt><trkpt lat="43.580277" lon="10.6892222"><ele>34.5</ele><time>2026-04-04T08:23:50.054Z</time></trkpt><trkpt lat="43.5802912" lon="10.6895424"><ele>35.0</ele><time>2026-04-04T08:23:51.055Z</time></trkpt><trkpt lat="43.580306" lon="10.6898559"><ele>35.0</ele><time>2026-04-04T08:23:52.072Z</time></trkpt><trkpt lat="43.5803219" lon="10.6901655"><ele>35.0</ele><time>2026-04-04T08:23:53.039Z</time></trkpt><trkpt lat="43.5803358" lon="10.690463"><ele>35.0</ele><time>2026-04-04T08:23:54.089Z</time></trkpt><trkpt lat="43.5803501" lon="10.6907525"><ele>35.33333333333333</ele><time>2026-04-04T08:23:55.045Z</time></trkpt><trkpt lat="43.5803666" lon="10.6910345"><ele>35.666666666666664</ele><time>2026-04-04T08:23:56.063Z</time></trkpt><trkpt lat="43.5803824" lon="10.691311"><ele>36.0</ele><time>2026-04-04T08:23:57.061Z</time></trkpt><trkpt lat="43.5803986" lon="10.691586"><ele>36.0</ele><time>2026-04-04T08:23:58.057Z</time></trkpt><trkpt lat="43.5804251" lon="10.6918569"><ele>36.0</ele><time>2026-04-04T08:23:59.046Z</time></trkpt><trkpt lat="43.5804589" lon="10.6921242"><ele>36.0</ele><time>2026-04-04T08:24:00.055Z</time></trkpt><trkpt lat="43.5804987" lon="10.6923835"><ele>35.666666666666664</ele><time>2026-04-04T08:24:01.047Z</time></trkpt><trkpt lat="43.5805433" lon="10.6926445"><ele>35.33333333333333</ele><time>2026-04-04T08:24:02.05Z</time></trkpt><trkpt lat="43.5805866" lon="10.6929033"><ele>35.0</ele><time>2026-04-04T08:24:03.051Z</time></trkpt><trkpt lat="43.5806254" lon="10.6931637"><ele>35.666666666666664</ele><time>2026-04-04T08:24:04.044Z</time></trkpt><trkpt lat="43.5806571" lon="10.6934241"><ele>36.333333333333336</ele><time>2026-04-04T08:24:05.044Z</time></trkpt><trkpt lat="43.5806762" lon="10.6936917"><ele>37.0</ele><time>2026-04-04T08:24:06.042Z</time></trkpt><trkpt lat="43.5806824" lon="10.6939564"><ele>37.0</ele><time>2026-04-04T08:24:07.036Z</time></trkpt><trkpt lat="43.5806801" lon="10.6942272"><ele>37.0</ele><time>2026-04-04T08:24:08.076Z</time></trkpt><trkpt lat="43.5806766" lon="10.6944941"><ele>37.0</ele><time>2026-04-04T08:24:09.057Z</time></trkpt><trkpt lat="43.5806721" lon="10.6947588"><ele>36.66666666666667</ele><time>2026-04-04T08:24:10.047Z</time></trkpt><trkpt lat="43.5806687" lon="10.6950235"><ele>36.333333333333336</ele><time>2026-04-04T08:24:11.057Z</time></trkpt><trkpt lat="43.5806647" lon="10.695283"><ele>36.0</ele><time>2026-04-04T08:24:12.045Z</time></trkpt><trkpt lat="43.5806597" lon="10.695539"><ele>36.0</ele><time>2026-04-04T08:24:13.054Z</time></trkpt><trkpt lat="43.580651" lon="10.6957954"><ele>36.0</ele><time>2026-04-04T08:24:14.053Z</time></trkpt><trkpt lat="43.580646" lon="10.6960487"><ele>36.0</ele><time>2026-04-04T08:24:15.035Z</time></trkpt><trkpt lat="43.5806466" lon="10.6962958"><ele>36.333333333333336</ele><time>2026-04-04T08:24:16.047Z</time></trkpt><trkpt lat="43.5806438" lon="10.6965418"><ele>36.66666666666667</ele><time>2026-04-04T08:24:17.045Z</time></trkpt><trkpt lat="43.5806405" lon="10.6967868"><ele>37.0</ele><time>2026-04-04T08:24:18.041Z</time></trkpt><trkpt lat="43.5806374" lon="10.6970287"><ele>37.333333333333336</ele><time>2026-04-04T08:24:19.052Z</time></trkpt><trkpt lat="43.5806321" lon="10.697263"><ele>37.666666666666664</ele><time>2026-04-04T08:24:20.04Z</time></trkpt><trkpt lat="43.5806274" lon="10.6974878"><ele>38.0</ele><time>2026-04-04T08:24:21.043Z</time></trkpt><trkpt lat="43.580621" lon="10.6977064"><ele>37.666666666666664</ele><time>2026-04-04T08:24:22.039Z</time></trkpt><trkpt lat="43.5806183" lon="10.6979189"><ele>37.333333333333336</ele><time>2026-04-04T08:24:23.048Z</time></trkpt><trkpt lat="43.5806129" lon="10.6981441"><ele>37.0</ele><time>2026-04-04T08:24:24.058Z</time></trkpt><trkpt lat="43.5806102" lon="10.6983734"><ele>36.66666666666667</ele><time>2026-04-04T08:24:25.041Z</time></trkpt><trkpt lat="43.5806104" lon="10.6986127"><ele>36.333333333333336</ele><time>2026-04-04T08:24:26.039Z</time></trkpt><trkpt lat="43.5806094" lon="10.6988544"><ele>36.0</ele><time>2026-04-04T08:24:27.039Z</time></trkpt><trkpt lat="43.5806083" lon="10.6991038"><ele>36.0</ele><time>2026-04-04T08:24:28.052Z</time></trkpt><trkpt lat="43.5806071" lon="10.6993529"><ele>36.0</ele><time>2026-04-04T08:24:29.049Z</time></trkpt><trkpt lat="43.5806044" lon="10.6996029"><ele>36.0</ele><time>2026-04-04T08:24:30.047Z</time></trkpt><trkpt lat="43.5806017" lon="10.6998535"><ele>36.0</ele><time>2026-04-04T08:24:31.039Z</time></trkpt><trkpt lat="43.5805941" lon="10.7001052"><ele>36.0</ele><time>2026-04-04T08:24:32.056Z</time></trkpt><trkpt lat="43.580589" lon="10.7003589"><ele>36.0</ele><time>2026-04-04T08:24:33.038Z</time></trkpt><trkpt lat="43.5805856" lon="10.7006128"><ele>35.666666666666664</ele><time>2026-04-04T08:24:34.072Z</time></trkpt><trkpt lat="43.5805855" lon="10.7008648"><ele>35.33333333333333</ele><time>2026-04-04T08:24:35.058Z</time></trkpt><trkpt lat="43.5805856" lon="10.7011179"><ele>35.0</ele><time>2026-04-04T08:24:36.041Z</time></trkpt><trkpt lat="43.5805853" lon="10.7013723"><ele>35.0</ele><time>2026-04-04T08:24:37.055Z</time></trkpt><trkpt lat="43.5805804" lon="10.7016249"><ele>35.0</ele><time>2026-04-04T08:24:38.052Z</time></trkpt><trkpt lat="43.5805724" lon="10.7018797"><ele>35.0</ele><time>2026-04-04T08:24:39.047Z</time></trkpt><trkpt lat="43.5805638" lon="10.7021378"><ele>35.33333333333333</ele><time>2026-04-04T08:24:40.042Z</time></trkpt><trkpt lat="43.5805609" lon="10.702392"><ele>35.666666666666664</ele><time>2026-04-04T08:24:41.04Z</time></trkpt><trkpt lat="43.5805596" lon="10.7026384"><ele>36.0</ele><time>2026-04-04T08:24:42.052Z</time></trkpt><trkpt lat="43.5805602" lon="10.702864"><ele>36.0</ele><time>2026-04-04T08:24:43.045Z</time></trkpt><trkpt lat="43.5805595" lon="10.7030653"><ele>36.0</ele><time>2026-04-04T08:24:44.044Z</time></trkpt><trkpt lat="43.5805539" lon="10.7032476"><ele>36.0</ele><time>2026-04-04T08:24:45.048Z</time></trkpt><trkpt lat="43.5805508" lon="10.7034218"><ele>36.0</ele><time>2026-04-04T08:24:46.04Z</time></trkpt><trkpt lat="43.580553" lon="10.7035826"><ele>36.2</ele><time>2026-04-04T08:24:47.041Z</time></trkpt><trkpt lat="43.5805489" lon="10.7037308"><ele>36.400000000000006</ele><time>2026-04-04T08:24:48.039Z</time></trkpt><trkpt lat="43.5805253" lon="10.7038608"><ele>36.6</ele><time>2026-04-04T08:24:49.051Z</time></trkpt><trkpt lat="43.5804778" lon="10.7039798"><ele>36.800000000000004</ele><time>2026-04-04T08:24:50.042Z</time></trkpt><trkpt lat="43.5804185" lon="10.7040951"><ele>37.0</ele><time>2026-04-04T08:24:51.047Z</time></trkpt><trkpt lat="43.5803725" lon="10.7042251"><ele>37.0</ele><time>2026-04-04T08:24:52.047Z</time></trkpt><trkpt lat="43.580361" lon="10.7043643"><ele>37.0</ele><time>2026-04-04T08:24:53.051Z</time></trkpt><trkpt lat="43.5803828" lon="10.704508"><ele>37.0</ele><time>2026-04-04T08:24:54.028Z</time></trkpt><trkpt lat="43.5804336" lon="10.7046365"><ele>37.0</ele><time>2026-04-04T08:24:55.039Z</time></trkpt><trkpt lat="43.5804844" lon="10.7047768"><ele>37.0</ele><time>2026-04-04T08:24:56.059Z</time></trkpt><trkpt lat="43.5805174" lon="10.7049346"><ele>37.0</ele><time>2026-04-04T08:24:57.057Z</time></trkpt><trkpt lat="43.5805329" lon="10.7051113"><ele>37.0</ele><time>2026-04-04T08:24:58.064Z</time></trkpt><trkpt lat="43.5805303" lon="10.7053205"><ele>37.0</ele><time>2026-04-04T08:24:59.053Z</time></trkpt><trkpt lat="43.5805249" lon="10.7055245"><ele>37.0</ele><time>2026-04-04T08:25:00.056Z</time></trkpt><trkpt lat="43.5805162" lon="10.7057494"><ele>37.0</ele><time>2026-04-04T08:25:01.056Z</time></trkpt><trkpt lat="43.5805151" lon="10.7059903"><ele>37.0</ele><time>2026-04-04T08:25:02.046Z</time></trkpt><trkpt lat="43.5805121" lon="10.7062539"><ele>37.0</ele><time>2026-04-04T08:25:03.053Z</time></trkpt><trkpt lat="43.5805074" lon="10.706529"><ele>37.0</ele><time>2026-04-04T08:25:04.075Z</time></trkpt><trkpt lat="43.5805014" lon="10.7068067"><ele>37.0</ele><time>2026-04-04T08:25:05.047Z</time></trkpt><trkpt lat="43.5804978" lon="10.7070849"><ele>37.0</ele><time>2026-04-04T08:25:06.065Z</time></trkpt><trkpt lat="43.5804949" lon="10.7073624"><ele>37.333333333333336</ele><time>2026-04-04T08:25:07.059Z</time></trkpt><trkpt lat="43.5804913" lon="10.7076431"><ele>37.666666666666664</ele><time>2026-04-04T08:25:08.058Z</time></trkpt><trkpt lat="43.5804887" lon="10.7079259"><ele>38.0</ele><time>2026-04-04T08:25:09.046Z</time></trkpt><trkpt lat="43.5804848" lon="10.7082078"><ele>37.33333333333333</ele><time>2026-04-04T08:25:10.045Z</time></trkpt><trkpt lat="43.5804816" lon="10.7084876"><ele>36.666666666666664</ele><time>2026-04-04T08:25:11.055Z</time></trkpt><trkpt lat="43.5804787" lon="10.7087652"><ele>36.0</ele><time>2026-04-04T08:25:12.065Z</time></trkpt><trkpt lat="43.5804761" lon="10.7090404"><ele>35.666666666666664</ele><time>2026-04-04T08:25:13.048Z</time></trkpt><trkpt lat="43.5804719" lon="10.7093118"><ele>35.33333333333333</ele><time>2026-04-04T08:25:14.054Z</time></trkpt><trkpt lat="43.5804688" lon="10.709578"><ele>35.0</ele><time>2026-04-04T08:25:15.046Z</time></trkpt><trkpt lat="43.5804661" lon="10.7098459"><ele>35.0</ele><time>2026-04-04T08:25:16.06Z</time></trkpt><trkpt lat="43.5804607" lon="10.7101163"><ele>35.0</ele><time>2026-04-04T08:25:17.055Z</time></trkpt><trkpt lat="43.5804567" lon="10.7103849"><ele>35.0</ele><time>2026-04-04T08:25:18.042Z</time></trkpt><trkpt lat="43.5804561" lon="10.7106524"><ele>35.33333333333333</ele><time>2026-04-04T08:25:19.049Z</time></trkpt><trkpt lat="43.5804547" lon="10.7109198"><ele>35.666666666666664</ele><time>2026-04-04T08:25:20.049Z</time></trkpt><trkpt lat="43.580454" lon="10.711186"><ele>36.0</ele><time>2026-04-04T08:25:21.055Z</time></trkpt><trkpt lat="43.5804486" lon="10.7114551"><ele>36.0</ele><time>2026-04-04T08:25:22.034Z</time></trkpt><trkpt lat="43.5804411" lon="10.7117319"><ele>36.0</ele><time>2026-04-04T08:25:23.038Z</time></trkpt><trkpt lat="43.5804362" lon="10.7120107"><ele>36.0</ele><time>2026-04-04T08:25:24.036Z</time></trkpt><trkpt lat="43.5804332" lon="10.7122908"><ele>36.0</ele><time>2026-04-04T08:25:25.05Z</time></trkpt><trkpt lat="43.58043" lon="10.7125707"><ele>36.0</ele><time>2026-04-04T08:25:26.029Z</time></trkpt><trkpt lat="43.5804263" lon="10.7128518"><ele>36.0</ele><time>2026-04-04T08:25:27.05Z</time></trkpt><trkpt lat="43.5804208" lon="10.7131285"><ele>36.666666666666664</ele><time>2026-04-04T08:25:28.05Z</time></trkpt><trkpt lat="43.5804162" lon="10.7134005"><ele>37.33333333333333</ele><time>2026-04-04T08:25:29.04Z</time></trkpt><trkpt lat="43.5804115" lon="10.7136694"><ele>38.0</ele><time>2026-04-04T08:25:30.051Z</time></trkpt><trkpt lat="43.5804088" lon="10.7139399"><ele>38.33333333333333</ele><time>2026-04-04T08:25:31.051Z</time></trkpt><trkpt lat="43.5804081" lon="10.7142125"><ele>38.666666666666664</ele><time>2026-04-04T08:25:32.037Z</time></trkpt><trkpt lat="43.5804066" lon="10.7144834"><ele>39.0</ele><time>2026-04-04T08:25:33.041Z</time></trkpt><trkpt lat="43.5804022" lon="10.7147438"><ele>39.333333333333336</ele><time>2026-04-04T08:25:34.04Z</time></trkpt><trkpt lat="43.5803998" lon="10.7149828"><ele>39.66666666666667</ele><time>2026-04-04T08:25:35.055Z</time></trkpt><trkpt lat="43.5803963" lon="10.7151988"><ele>40.0</ele><time>2026-04-04T08:25:36.043Z</time></trkpt><trkpt lat="43.5803914" lon="10.7154086"><ele>40.0</ele><time>2026-04-04T08:25:37.041Z</time></trkpt><trkpt lat="43.580389" lon="10.7156183"><ele>40.0</ele><time>2026-04-04T08:25:38.045Z</time></trkpt><trkpt lat="43.580387" lon="10.7158211"><ele>40.0</ele><time>2026-04-04T08:25:39.051Z</time></trkpt><trkpt lat="43.580384" lon="10.7160028"><ele>40.0</ele><time>2026-04-04T08:25:40.041Z</time></trkpt><trkpt lat="43.5803801" lon="10.7161546"><ele>40.0</ele><time>2026-04-04T08:25:41.034Z</time></trkpt><trkpt lat="43.5803768" lon="10.716283"><ele>40.0</ele><time>2026-04-04T08:25:42.05Z</time></trkpt><trkpt lat="43.5803773" lon="10.7163979"><ele>40.0</ele><time>2026-04-04T08:25:43.054Z</time></trkpt><trkpt lat="43.5803762" lon="10.7164952"><ele>40.0</ele><time>2026-04-04T08:25:44.024Z</time></trkpt><trkpt lat="43.5802919" lon="10.7166353"><ele>40.0</ele><time>2026-04-04T08:25:46.046Z</time></trkpt><trkpt lat="43.5802091" lon="10.7166649"><ele>39.8</ele><time>2026-04-04T08:25:47.037Z</time></trkpt><trkpt lat="43.5801203" lon="10.7166753"><ele>39.6</ele><time>2026-04-04T08:25:48.059Z</time></trkpt><trkpt lat="43.5800181" lon="10.7166855"><ele>39.4</ele><time>2026-04-04T08:25:49.057Z</time></trkpt><trkpt lat="43.579901" lon="10.7167017"><ele>39.2</ele><time>2026-04-04T08:25:50.054Z</time></trkpt><trkpt lat="43.5797721" lon="10.7167135"><ele>39.0</ele><time>2026-04-04T08:25:51.061Z</time></trkpt><trkpt lat="43.5796274" lon="10.7167336"><ele>39.0</ele><time>2026-04-04T08:25:52.065Z</time></trkpt><trkpt lat="43.5794765" lon="10.7167577"><ele>39.0</ele><time>2026-04-04T08:25:53.048Z</time></trkpt><trkpt lat="43.5793205" lon="10.7167725"><ele>39.0</ele><time>2026-04-04T08:25:54.044Z</time></trkpt><trkpt lat="43.579167" lon="10.7167912"><ele>39.0</ele><time>2026-04-04T08:25:55.063Z</time></trkpt><trkpt lat="43.5790286" lon="10.7168037"><ele>39.0</ele><time>2026-04-04T08:25:56.056Z</time></trkpt><trkpt lat="43.5789028" lon="10.716823"><ele>39.0</ele><time>2026-04-04T08:25:57.046Z</time></trkpt><trkpt lat="43.5787863" lon="10.7168346"><ele>39.0</ele><time>2026-04-04T08:25:58.049Z</time></trkpt><trkpt lat="43.5786742" lon="10.7168486"><ele>39.0</ele><time>2026-04-04T08:25:59.046Z</time></trkpt><trkpt lat="43.578572" lon="10.7168545"><ele>39.0</ele><time>2026-04-04T08:26:00.053Z</time></trkpt><trkpt lat="43.5784708" lon="10.7168621"><ele>39.0</ele><time>2026-04-04T08:26:01.049Z</time></trkpt><trkpt lat="43.5783663" lon="10.7168703"><ele>39.0</ele><time>2026-04-04T08:26:02.046Z</time></trkpt><trkpt lat="43.5782599" lon="10.7168806"><ele>39.0</ele><time>2026-04-04T08:26:03.044Z</time></trkpt><trkpt lat="43.5781527" lon="10.7168918"><ele>39.0</ele><time>2026-04-04T08:26:04.059Z</time></trkpt><trkpt lat="43.5780424" lon="10.7169047"><ele>39.0</ele><time>2026-04-04T08:26:05.051Z</time></trkpt><trkpt lat="43.5779287" lon="10.7169181"><ele>39.0</ele><time>2026-04-04T08:26:06.06Z</time></trkpt><trkpt lat="43.5778112" lon="10.7169298"><ele>39.0</ele><time>2026-04-04T08:26:07.051Z</time></trkpt><trkpt lat="43.5776899" lon="10.7169433"><ele>39.25</ele><time>2026-04-04T08:26:08.067Z</time></trkpt><trkpt lat="43.5775666" lon="10.7169568"><ele>39.5</ele><time>2026-04-04T08:26:09.064Z</time></trkpt><trkpt lat="43.5774374" lon="10.7169703"><ele>39.75</ele><time>2026-04-04T08:26:10.048Z</time></trkpt><trkpt lat="43.5773078" lon="10.7169835"><ele>40.0</ele><time>2026-04-04T08:26:11.048Z</time></trkpt><trkpt lat="43.5771771" lon="10.7169997"><ele>40.0</ele><time>2026-04-04T08:26:12.059Z</time></trkpt><trkpt lat="43.5770439" lon="10.7170155"><ele>40.0</ele><time>2026-04-04T08:26:13.04Z</time></trkpt><trkpt lat="43.5769092" lon="10.7170281"><ele>40.0</ele><time>2026-04-04T08:26:14.045Z</time></trkpt><trkpt lat="43.5767715" lon="10.717045"><ele>40.0</ele><time>2026-04-04T08:26:15.049Z</time></trkpt><trkpt lat="43.5766344" lon="10.7170604"><ele>40.0</ele><time>2026-04-04T08:26:16.052Z</time></trkpt><trkpt lat="43.5764956" lon="10.7170802"><ele>40.0</ele><time>2026-04-04T08:26:17.049Z</time></trkpt><trkpt lat="43.5763547" lon="10.7171013"><ele>40.0</ele><time>2026-04-04T08:26:18.045Z</time></trkpt><trkpt lat="43.576211" lon="10.7171309"><ele>40.0</ele><time>2026-04-04T08:26:19.053Z</time></trkpt><trkpt lat="43.5760653" lon="10.7171682"><ele>40.0</ele><time>2026-04-04T08:26:20.051Z</time></trkpt><trkpt lat="43.5759131" lon="10.7172131"><ele>40.0</ele><time>2026-04-04T08:26:21.046Z</time></trkpt><trkpt lat="43.5757525" lon="10.7172627"><ele>40.0</ele><time>2026-04-04T08:26:22.049Z</time></trkpt><trkpt lat="43.5755796" lon="10.7173131"><ele>40.0</ele><time>2026-04-04T08:26:23.043Z</time></trkpt><trkpt lat="43.5754015" lon="10.7173663"><ele>40.0</ele><time>2026-04-04T08:26:24.03Z</time></trkpt><trkpt lat="43.57522" lon="10.7174211"><ele>40.0</ele><time>2026-04-04T08:26:25.032Z</time></trkpt><trkpt lat="43.5750387" lon="10.7174881"><ele>40.333333333333336</ele><time>2026-04-04T08:26:26.059Z</time></trkpt><trkpt lat="43.5748522" lon="10.7175626"><ele>40.666666666666664</ele><time>2026-04-04T08:26:27.035Z</time></trkpt><trkpt lat="43.5746657" lon="10.7176409"><ele>41.0</ele><time>2026-04-04T08:26:28.051Z</time></trkpt><trkpt lat="43.5744793" lon="10.7177154"><ele>41.0</ele><time>2026-04-04T08:26:29.044Z</time></trkpt><trkpt lat="43.5742903" lon="10.7177883"><ele>41.0</ele><time>2026-04-04T08:26:30.059Z</time></trkpt><trkpt lat="43.5741017" lon="10.7178561"><ele>41.0</ele><time>2026-04-04T08:26:31.046Z</time></trkpt><trkpt lat="43.573912" lon="10.7179175"><ele>41.0</ele><time>2026-04-04T08:26:32.052Z</time></trkpt><trkpt lat="43.5737169" lon="10.7179663"><ele>41.0</ele><time>2026-04-04T08:26:33.04Z</time></trkpt><trkpt lat="43.5735221" lon="10.7180092"><ele>41.0</ele><time>2026-04-04T08:26:34.041Z</time></trkpt><trkpt lat="43.5733252" lon="10.7180504"><ele>41.0</ele><time>2026-04-04T08:26:35.044Z</time></trkpt><trkpt lat="43.5731288" lon="10.7180872"><ele>41.0</ele><time>2026-04-04T08:26:36.04Z</time></trkpt><trkpt lat="43.5729369" lon="10.7181306"><ele>41.0</ele><time>2026-04-04T08:26:37.039Z</time></trkpt><trkpt lat="43.5727465" lon="10.7181686"><ele>41.0</ele><time>2026-04-04T08:26:38.041Z</time></trkpt><trkpt lat="43.5725591" lon="10.7182076"><ele>41.0</ele><time>2026-04-04T08:26:39.048Z</time></trkpt><trkpt lat="43.572378" lon="10.718245"><ele>41.0</ele><time>2026-04-04T08:26:40.041Z</time></trkpt><trkpt lat="43.5722124" lon="10.7182822"><ele>41.0</ele><time>2026-04-04T08:26:41.042Z</time></trkpt><trkpt lat="43.5720571" lon="10.7183169"><ele>41.0</ele><time>2026-04-04T08:26:42.036Z</time></trkpt><trkpt lat="43.5719136" lon="10.7183476"><ele>41.0</ele><time>2026-04-04T08:26:43.051Z</time></trkpt><trkpt lat="43.5717829" lon="10.7183739"><ele>41.0</ele><time>2026-04-04T08:26:44.038Z</time></trkpt><trkpt lat="43.5716638" lon="10.7183974"><ele>41.0</ele><time>2026-04-04T08:26:45.047Z</time></trkpt><trkpt lat="43.5715496" lon="10.7184219"><ele>41.0</ele><time>2026-04-04T08:26:46.035Z</time></trkpt><trkpt lat="43.5714427" lon="10.7184448"><ele>41.0</ele><time>2026-04-04T08:26:47.046Z</time></trkpt><trkpt lat="43.5713493" lon="10.718467"><ele>41.0</ele><time>2026-04-04T08:26:48.042Z</time></trkpt><trkpt lat="43.5712777" lon="10.7184816"><ele>41.0</ele><time>2026-04-04T08:26:49.055Z</time></trkpt><trkpt lat="43.5711872" lon="10.7185026"><ele>41.166666666666664</ele><time>2026-04-04T08:26:51.047Z</time></trkpt><trkpt lat="43.571132" lon="10.7185758"><ele>41.33333333333333</ele><time>2026-04-04T08:26:53.048Z</time></trkpt><trkpt lat="43.5711143" lon="10.7186829"><ele>41.5</ele><time>2026-04-04T08:26:55.041Z</time></trkpt><trkpt lat="43.5711183" lon="10.7188294"><ele>41.666666666666664</ele><time>2026-04-04T08:26:57.058Z</time></trkpt><trkpt lat="43.5711122" lon="10.7189673"><ele>41.833333333333336</ele><time>2026-04-04T08:26:59.044Z</time></trkpt><trkpt lat="43.5711159" lon="10.7190563"><ele>42.0</ele><time>2026-04-04T08:27:02.051Z</time></trkpt><trkpt lat="43.5711308" lon="10.7191731"><ele>42.0</ele><time>2026-04-04T08:27:05.037Z</time></trkpt><trkpt lat="43.5711451" lon="10.7192611"><ele>42.0</ele><time>2026-04-04T08:27:07.047Z</time></trkpt><trkpt lat="43.571168" lon="10.7193803"><ele>42.0</ele><time>2026-04-04T08:27:09.062Z</time></trkpt><trkpt lat="43.571196" lon="10.7195216"><ele>42.0</ele><time>2026-04-04T08:27:11.049Z</time></trkpt><trkpt lat="43.5712324" lon="10.7196892"><ele>42.0</ele><time>2026-04-04T08:27:13.047Z</time></trkpt><trkpt lat="43.5712501" lon="10.7197879"><ele>42.0</ele><time>2026-04-04T08:27:14.049Z</time></trkpt><trkpt lat="43.5712711" lon="10.7198915"><ele>42.0</ele><time>2026-04-04T08:27:15.054Z</time></trkpt><trkpt lat="43.5712899" lon="10.7199981"><ele>42.0</ele><time>2026-04-04T08:27:16.057Z</time></trkpt><trkpt lat="43.5713083" lon="10.7201082"><ele>42.0</ele><time>2026-04-04T08:27:17.051Z</time></trkpt><trkpt lat="43.5713274" lon="10.72022"><ele>42.0</ele><time>2026-04-04T08:27:18.057Z</time></trkpt><trkpt lat="43.5713474" lon="10.7203288"><ele>42.0</ele><time>2026-04-04T08:27:19.048Z</time></trkpt><trkpt lat="43.5713709" lon="10.7204428"><ele>42.0</ele><time>2026-04-04T08:27:20.042Z</time></trkpt><trkpt lat="43.5713934" lon="10.7205625"><ele>42.0</ele><time>2026-04-04T08:27:21.05Z</time></trkpt><trkpt lat="43.571416" lon="10.7206831"><ele>42.0</ele><time>2026-04-04T08:27:22.04Z</time></trkpt><trkpt lat="43.5714378" lon="10.7208009"><ele>42.0</ele><time>2026-04-04T08:27:23.055Z</time></trkpt><trkpt lat="43.5714613" lon="10.720921"><ele>42.0</ele><time>2026-04-04T08:27:24.068Z</time></trkpt><trkpt lat="43.571483" lon="10.7210441"><ele>42.2</ele><time>2026-04-04T08:27:25.034Z</time></trkpt><trkpt lat="43.5715059" lon="10.7211712"><ele>42.400000000000006</ele><time>2026-04-04T08:27:26.061Z</time></trkpt><trkpt lat="43.5715314" lon="10.7213071"><ele>42.599999999999994</ele><time>2026-04-04T08:27:27.043Z</time></trkpt><trkpt lat="43.5715601" lon="10.7214426"><ele>42.8</ele><time>2026-04-04T08:27:28.038Z</time></trkpt><trkpt lat="43.5715849" lon="10.7215787"><ele>43.0</ele><time>2026-04-04T08:27:29.047Z</time></trkpt><trkpt lat="43.5716069" lon="10.7217207"><ele>43.0</ele><time>2026-04-04T08:27:30.054Z</time></trkpt><trkpt lat="43.5716188" lon="10.7218591"><ele>43.0</ele><time>2026-04-04T08:27:31.047Z</time></trkpt><trkpt lat="43.5716215" lon="10.7219834"><ele>43.0</ele><time>2026-04-04T08:27:32.047Z</time></trkpt><trkpt lat="43.5716063" lon="10.7220927"><ele>43.0</ele><time>2026-04-04T08:27:33.05Z</time></trkpt><trkpt lat="43.5715742" lon="10.7221893"><ele>43.0</ele><time>2026-04-04T08:27:34.048Z</time></trkpt><trkpt lat="43.5715329" lon="10.722277"><ele>43.0</ele><time>2026-04-04T08:27:35.043Z</time></trkpt><trkpt lat="43.571482" lon="10.7223664"><ele>43.16666666666667</ele><time>2026-04-04T08:27:36.054Z</time></trkpt><trkpt lat="43.5714252" lon="10.7224545"><ele>43.333333333333336</ele><time>2026-04-04T08:27:37.062Z</time></trkpt><trkpt lat="43.5713603" lon="10.7225382"><ele>43.5</ele><time>2026-04-04T08:27:38.028Z</time></trkpt><trkpt lat="43.5712945" lon="10.7226136"><ele>43.666666666666664</ele><time>2026-04-04T08:27:39.042Z</time></trkpt><trkpt lat="43.5712243" lon="10.7226801"><ele>43.83333333333333</ele><time>2026-04-04T08:27:40.061Z</time></trkpt><trkpt lat="43.5711528" lon="10.722731"><ele>44.0</ele><time>2026-04-04T08:27:41.046Z</time></trkpt><trkpt lat="43.5710766" lon="10.7227697"><ele>43.6</ele><time>2026-04-04T08:27:42.062Z</time></trkpt><trkpt lat="43.5710033" lon="10.7227966"><ele>43.2</ele><time>2026-04-04T08:27:43.051Z</time></trkpt><trkpt lat="43.5709345" lon="10.7228055"><ele>42.800000000000004</ele><time>2026-04-04T08:27:44.025Z</time></trkpt><trkpt lat="43.5708112" lon="10.7228111"><ele>42.400000000000006</ele><time>2026-04-04T08:27:46.055Z</time></trkpt><trkpt lat="43.5706956" lon="10.7228196"><ele>42.0</ele><time>2026-04-04T08:27:48.046Z</time></trkpt><trkpt lat="43.5705863" lon="10.7228539"><ele>42.0</ele><time>2026-04-04T08:27:50.043Z</time></trkpt><trkpt lat="43.5704761" lon="10.7228883"><ele>42.0</ele><time>2026-04-04T08:27:52.052Z</time></trkpt><trkpt lat="43.5703638" lon="10.722931"><ele>42.0</ele><time>2026-04-04T08:27:54.054Z</time></trkpt><trkpt lat="43.5702473" lon="10.7229846"><ele>42.0</ele><time>2026-04-04T08:27:56.051Z</time></trkpt><trkpt lat="43.5701856" lon="10.7230112"><ele>42.0</ele><time>2026-04-04T08:27:57.038Z</time></trkpt><trkpt lat="43.5700647" lon="10.7230429"><ele>41.833333333333336</ele><time>2026-04-04T08:27:59.04Z</time></trkpt><trkpt lat="43.5699993" lon="10.7230546"><ele>41.666666666666664</ele><time>2026-04-04T08:28:00.04Z</time></trkpt><trkpt lat="43.5699271" lon="10.7230756"><ele>41.5</ele><time>2026-04-04T08:28:01.044Z</time></trkpt><trkpt lat="43.5698485" lon="10.7231012"><ele>41.33333333333333</ele><time>2026-04-04T08:28:02.035Z</time></trkpt><trkpt lat="43.5697678" lon="10.7231285"><ele>41.166666666666664</ele><time>2026-04-04T08:28:03.047Z</time></trkpt><trkpt lat="43.5696831" lon="10.7231598"><ele>41.0</ele><time>2026-04-04T08:28:04.053Z</time></trkpt><trkpt lat="43.5695981" lon="10.723193"><ele>41.199999999999996</ele><time>2026-04-04T08:28:05.055Z</time></trkpt><trkpt lat="43.5695134" lon="10.7232271"><ele>41.4</ele><time>2026-04-04T08:28:06.061Z</time></trkpt><trkpt lat="43.5694215" lon="10.7232744"><ele>41.6</ele><time>2026-04-04T08:28:07.039Z</time></trkpt><trkpt lat="43.5693294" lon="10.7233257"><ele>41.8</ele><time>2026-04-04T08:28:08.04Z</time></trkpt><trkpt lat="43.569234" lon="10.7233741"><ele>42.0</ele><time>2026-04-04T08:28:09.054Z</time></trkpt><trkpt lat="43.5691339" lon="10.7234188"><ele>42.0</ele><time>2026-04-04T08:28:10.043Z</time></trkpt><trkpt lat="43.5690331" lon="10.7234439"><ele>42.0</ele><time>2026-04-04T08:28:11.057Z</time></trkpt><trkpt lat="43.5689305" lon="10.7234586"><ele>42.0</ele><time>2026-04-04T08:28:12.053Z</time></trkpt><trkpt lat="43.5688302" lon="10.7234657"><ele>42.0</ele><time>2026-04-04T08:28:13.047Z</time></trkpt><trkpt lat="43.5687254" lon="10.7234488"><ele>42.0</ele><time>2026-04-04T08:28:14.032Z</time></trkpt><trkpt lat="43.5686294" lon="10.7234307"><ele>42.2</ele><time>2026-04-04T08:28:15.043Z</time></trkpt><trkpt lat="43.5685398" lon="10.7234036"><ele>42.400000000000006</ele><time>2026-04-04T08:28:16.06Z</time></trkpt><trkpt lat="43.568448" lon="10.7233794"><ele>42.599999999999994</ele><time>2026-04-04T08:28:17.052Z</time></trkpt><trkpt lat="43.5683592" lon="10.7233521"><ele>42.8</ele><time>2026-04-04T08:28:18.043Z</time></trkpt><trkpt lat="43.5682682" lon="10.723327"><ele>43.0</ele><time>2026-04-04T08:28:19.047Z</time></trkpt><trkpt lat="43.5681794" lon="10.7232986"><ele>43.0</ele><time>2026-04-04T08:28:20.042Z</time></trkpt><trkpt lat="43.5680884" lon="10.7232632"><ele>43.0</ele><time>2026-04-04T08:28:21.068Z</time></trkpt><trkpt lat="43.5679952" lon="10.7232302"><ele>43.0</ele><time>2026-04-04T08:28:22.056Z</time></trkpt><trkpt lat="43.5679011" lon="10.7231955"><ele>43.0</ele><time>2026-04-04T08:28:23.043Z</time></trkpt><trkpt lat="43.5678068" lon="10.7231534"><ele>43.0</ele><time>2026-04-04T08:28:24.052Z</time></trkpt><trkpt lat="43.5677098" lon="10.7231162"><ele>43.4</ele><time>2026-04-04T08:28:25.054Z</time></trkpt><trkpt lat="43.5676119" lon="10.7230782"><ele>43.8</ele><time>2026-04-04T08:28:26.063Z</time></trkpt><trkpt lat="43.5675135" lon="10.7230425"><ele>44.2</ele><time>2026-04-04T08:28:27.039Z</time></trkpt><trkpt lat="43.567414" lon="10.7230081"><ele>44.6</ele><time>2026-04-04T08:28:28.057Z</time></trkpt><trkpt lat="43.5673118" lon="10.7229753"><ele>45.0</ele><time>2026-04-04T08:28:29.046Z</time></trkpt><trkpt lat="43.5672088" lon="10.7229429"><ele>45.0</ele><time>2026-04-04T08:28:30.049Z</time></trkpt><trkpt lat="43.567104" lon="10.7229098"><ele>45.0</ele><time>2026-04-04T08:28:31.043Z</time></trkpt><trkpt lat="43.5669969" lon="10.7228692"><ele>45.0</ele><time>2026-04-04T08:28:32.05Z</time></trkpt><trkpt lat="43.5668883" lon="10.7228263"><ele>45.0</ele><time>2026-04-04T08:28:33.054Z</time></trkpt><trkpt lat="43.5667779" lon="10.722781"><ele>45.0</ele><time>2026-04-04T08:28:34.053Z</time></trkpt><trkpt lat="43.5666638" lon="10.7227356"><ele>44.75</ele><time>2026-04-04T08:28:35.053Z</time></trkpt><trkpt lat="43.5665506" lon="10.7226866"><ele>44.5</ele><time>2026-04-04T08:28:36.052Z</time></trkpt><trkpt lat="43.566434" lon="10.7226381"><ele>44.25</ele><time>2026-04-04T08:28:37.051Z</time></trkpt><trkpt lat="43.5663175" lon="10.7225876"><ele>44.0</ele><time>2026-04-04T08:28:38.049Z</time></trkpt><trkpt lat="43.5662018" lon="10.7225305"><ele>44.0</ele><time>2026-04-04T08:28:39.056Z</time></trkpt><trkpt lat="43.5660872" lon="10.7224699"><ele>44.0</ele><time>2026-04-04T08:28:40.059Z</time></trkpt><trkpt lat="43.5659736" lon="10.7224093"><ele>44.0</ele><time>2026-04-04T08:28:41.052Z</time></trkpt><trkpt lat="43.565864" lon="10.7223456"><ele>44.0</ele><time>2026-04-04T08:28:42.064Z</time></trkpt><trkpt lat="43.5657516" lon="10.722286"><ele>44.0</ele><time>2026-04-04T08:28:43.047Z</time></trkpt><trkpt lat="43.5656413" lon="10.7222247"><ele>44.0</ele><time>2026-04-04T08:28:44.054Z</time></trkpt><trkpt lat="43.565531" lon="10.7221675"><ele>44.0</ele><time>2026-04-04T08:28:45.048Z</time></trkpt><trkpt lat="43.5654237" lon="10.7221072"><ele>44.0</ele><time>2026-04-04T08:28:46.047Z</time></trkpt><trkpt lat="43.5653175" lon="10.722045"><ele>43.75</ele><time>2026-04-04T08:28:47.047Z</time></trkpt><trkpt lat="43.565212" lon="10.7219824"><ele>43.5</ele><time>2026-04-04T08:28:48.038Z</time></trkpt><trkpt lat="43.5651063" lon="10.7219185"><ele>43.25</ele><time>2026-04-04T08:28:49.052Z</time></trkpt><trkpt lat="43.5650018" lon="10.7218544"><ele>43.0</ele><time>2026-04-04T08:28:50.062Z</time></trkpt><trkpt lat="43.5648946" lon="10.7217966"><ele>43.0</ele><time>2026-04-04T08:28:51.052Z</time></trkpt><trkpt lat="43.5647886" lon="10.7217355"><ele>43.0</ele><time>2026-04-04T08:28:52.048Z</time></trkpt><trkpt lat="43.5646811" lon="10.7216766"><ele>43.0</ele><time>2026-04-04T08:28:53.052Z</time></trkpt><trkpt lat="43.5645749" lon="10.7216143"><ele>43.0</ele><time>2026-04-04T08:28:54.049Z</time></trkpt><trkpt lat="43.5644664" lon="10.7215508"><ele>42.75</ele><time>2026-04-04T08:28:55.043Z</time></trkpt><trkpt lat="43.564358" lon="10.7214912"><ele>42.5</ele><time>2026-04-04T08:28:56.048Z</time></trkpt><trkpt lat="43.5642484" lon="10.7214307"><ele>42.25</ele><time>2026-04-04T08:28:57.048Z</time></trkpt><trkpt lat="43.5641388" lon="10.7213695"><ele>42.0</ele><time>2026-04-04T08:28:58.039Z</time></trkpt><trkpt lat="43.564032" lon="10.7213085"><ele>42.0</ele><time>2026-04-04T08:28:59.041Z</time></trkpt><trkpt lat="43.5639244" lon="10.7212512"><ele>42.0</ele><time>2026-04-04T08:29:00.036Z</time></trkpt><trkpt lat="43.5638233" lon="10.7211955"><ele>42.0</ele><time>2026-04-04T08:29:01.042Z</time></trkpt><trkpt lat="43.5637313" lon="10.7211382"><ele>42.0</ele><time>2026-04-04T08:29:02.042Z</time></trkpt><trkpt lat="43.5636507" lon="10.7210869"><ele>42.0</ele><time>2026-04-04T08:29:03.051Z</time></trkpt><trkpt lat="43.5635739" lon="10.7210409"><ele>42.166666666666664</ele><time>2026-04-04T08:29:04.049Z</time></trkpt><trkpt lat="43.5634936" lon="10.7209973"><ele>42.333333333333336</ele><time>2026-04-04T08:29:05.045Z</time></trkpt><trkpt lat="43.5634118" lon="10.7209531"><ele>42.5</ele><time>2026-04-04T08:29:06.044Z</time></trkpt><trkpt lat="43.5633284" lon="10.7209139"><ele>42.66666666666667</ele><time>2026-04-04T08:29:07.04Z</time></trkpt><trkpt lat="43.5632459" lon="10.7208748"><ele>42.833333333333336</ele><time>2026-04-04T08:29:08.043Z</time></trkpt><trkpt lat="43.563162" lon="10.7208344"><ele>43.0</ele><time>2026-04-04T08:29:09.042Z</time></trkpt><trkpt lat="43.5630773" lon="10.7207842"><ele>43.0</ele><time>2026-04-04T08:29:10.031Z</time></trkpt><trkpt lat="43.5629888" lon="10.7207323"><ele>43.0</ele><time>2026-04-04T08:29:11.047Z</time></trkpt><trkpt lat="43.562902" lon="10.7206839"><ele>43.0</ele><time>2026-04-04T08:29:12.029Z</time></trkpt><trkpt lat="43.5628159" lon="10.7206342"><ele>43.0</ele><time>2026-04-04T08:29:13.042Z</time></trkpt><trkpt lat="43.56273" lon="10.7205832"><ele>43.0</ele><time>2026-04-04T08:29:14.042Z</time></trkpt><trkpt lat="43.562639" lon="10.7205297"><ele>43.16666666666667</ele><time>2026-04-04T08:29:15.033Z</time></trkpt><trkpt lat="43.5625515" lon="10.7204802"><ele>43.333333333333336</ele><time>2026-04-04T08:29:16.037Z</time></trkpt><trkpt lat="43.56247" lon="10.7204319"><ele>43.5</ele><time>2026-04-04T08:29:17.048Z</time></trkpt><trkpt lat="43.5623947" lon="10.7203944"><ele>43.666666666666664</ele><time>2026-04-04T08:29:18.031Z</time></trkpt><trkpt lat="43.5623319" lon="10.7203615"><ele>43.83333333333333</ele><time>2026-04-04T08:29:19.042Z</time></trkpt><trkpt lat="43.56227" lon="10.7203382"><ele>44.0</ele><time>2026-04-04T08:29:20.045Z</time></trkpt><trkpt lat="43.5621457" lon="10.7203604"><ele>44.0</ele><time>2026-04-04T08:29:22.044Z</time></trkpt><trkpt lat="43.5620854" lon="10.7204112"><ele>44.0</ele><time>2026-04-04T08:29:23.051Z</time></trkpt><trkpt lat="43.5620252" lon="10.7204791"><ele>44.0</ele><time>2026-04-04T08:29:24.054Z</time></trkpt><trkpt lat="43.5619617" lon="10.7205547"><ele>44.0</ele><time>2026-04-04T08:29:25.031Z</time></trkpt><trkpt lat="43.5618893" lon="10.7206319"><ele>44.0</ele><time>2026-04-04T08:29:26.04Z</time></trkpt><trkpt lat="43.5618102" lon="10.720713"><ele>44.0</ele><time>2026-04-04T08:29:27.053Z</time></trkpt><trkpt lat="43.5617253" lon="10.7207876"><ele>44.400000000000006</ele><time>2026-04-04T08:29:28.048Z</time></trkpt><trkpt lat="43.5616361" lon="10.7208521"><ele>44.8</ele><time>2026-04-04T08:29:29.043Z</time></trkpt><trkpt lat="43.5615428" lon="10.7209128"><ele>45.2</ele><time>2026-04-04T08:29:30.061Z</time></trkpt><trkpt lat="43.5614497" lon="10.720969"><ele>45.599999999999994</ele><time>2026-04-04T08:29:31.042Z</time></trkpt><trkpt lat="43.5613495" lon="10.7210248"><ele>46.0</ele><time>2026-04-04T08:29:32.063Z</time></trkpt><trkpt lat="43.5612396" lon="10.7210828"><ele>46.5</ele><time>2026-04-04T08:29:33.044Z</time></trkpt><trkpt lat="43.5611244" lon="10.7211385"><ele>47.0</ele><time>2026-04-04T08:29:34.046Z</time></trkpt><trkpt lat="43.5610027" lon="10.7212043"><ele>47.5</ele><time>2026-04-04T08:29:35.048Z</time></trkpt><trkpt lat="43.5608748" lon="10.7212714"><ele>48.0</ele><time>2026-04-04T08:29:36.06Z</time></trkpt><trkpt lat="43.5607473" lon="10.7213406"><ele>48.0</ele><time>2026-04-04T08:29:37.047Z</time></trkpt><trkpt lat="43.560619" lon="10.7214182"><ele>48.0</ele><time>2026-04-04T08:29:38.041Z</time></trkpt><trkpt lat="43.560489" lon="10.7214919"><ele>48.0</ele><time>2026-04-04T08:29:39.063Z</time></trkpt><trkpt lat="43.5603566" lon="10.7215632"><ele>48.0</ele><time>2026-04-04T08:29:40.061Z</time></trkpt><trkpt lat="43.5602273" lon="10.7216266"><ele>48.5</ele><time>2026-04-04T08:29:41.055Z</time></trkpt><trkpt lat="43.5600982" lon="10.7216853"><ele>49.0</ele><time>2026-04-04T08:29:42.049Z</time></trkpt><trkpt lat="43.5599728" lon="10.7217169"><ele>49.5</ele><time>2026-04-04T08:29:43.039Z</time></trkpt><trkpt lat="43.5598542" lon="10.7217181"><ele>50.0</ele><time>2026-04-04T08:29:44.053Z</time></trkpt><trkpt lat="43.5597401" lon="10.7216951"><ele>50.0</ele><time>2026-04-04T08:29:45.051Z</time></trkpt><trkpt lat="43.5596273" lon="10.7216576"><ele>50.0</ele><time>2026-04-04T08:29:46.052Z</time></trkpt><trkpt lat="43.5595085" lon="10.7216183"><ele>50.0</ele><time>2026-04-04T08:29:47.035Z</time></trkpt><trkpt lat="43.5593882" lon="10.7215732"><ele>50.0</ele><time>2026-04-04T08:29:48.056Z</time></trkpt><trkpt lat="43.5592629" lon="10.7215303"><ele>50.25</ele><time>2026-04-04T08:29:49.051Z</time></trkpt><trkpt lat="43.5591354" lon="10.7214863"><ele>50.5</ele><time>2026-04-04T08:29:50.063Z</time></trkpt><trkpt lat="43.559008" lon="10.7214396"><ele>50.75</ele><time>2026-04-04T08:29:51.052Z</time></trkpt><trkpt lat="43.558881" lon="10.7213897"><ele>51.0</ele><time>2026-04-04T08:29:52.036Z</time></trkpt><trkpt lat="43.5587586" lon="10.7213444"><ele>51.0</ele><time>2026-04-04T08:29:53.055Z</time></trkpt><trkpt lat="43.5586485" lon="10.7213084"><ele>51.0</ele><time>2026-04-04T08:29:54.038Z</time></trkpt><trkpt lat="43.5585482" lon="10.7212812"><ele>51.0</ele><time>2026-04-04T08:29:55.037Z</time></trkpt><trkpt lat="43.5584575" lon="10.7212638"><ele>51.0</ele><time>2026-04-04T08:29:56.046Z</time></trkpt><trkpt lat="43.5583777" lon="10.7212794"><ele>51.0</ele><time>2026-04-04T08:29:57.04Z</time></trkpt><trkpt lat="43.5583068" lon="10.7213438"><ele>51.0</ele><time>2026-04-04T08:29:58.069Z</time></trkpt><trkpt lat="43.5582567" lon="10.721446"><ele>51.0</ele><time>2026-04-04T08:29:59.052Z</time></trkpt><trkpt lat="43.5582257" lon="10.7215727"><ele>51.0</ele><time>2026-04-04T08:30:00.043Z</time></trkpt><trkpt lat="43.5582163" lon="10.7217192"><ele>51.0</ele><time>2026-04-04T08:30:01.045Z</time></trkpt><trkpt lat="43.5582242" lon="10.7218734"><ele>51.0</ele><time>2026-04-04T08:30:02.051Z</time></trkpt><trkpt lat="43.5582382" lon="10.7220326"><ele>51.25</ele><time>2026-04-04T08:30:03.049Z</time></trkpt><trkpt lat="43.5582569" lon="10.7221875"><ele>51.5</ele><time>2026-04-04T08:30:04.051Z</time></trkpt><trkpt lat="43.5582821" lon="10.722347"><ele>51.75</ele><time>2026-04-04T08:30:05.049Z</time></trkpt><trkpt lat="43.5583088" lon="10.7225109"><ele>52.0</ele><time>2026-04-04T08:30:06.042Z</time></trkpt><trkpt lat="43.5583311" lon="10.7226733"><ele>52.0</ele><time>2026-04-04T08:30:07.038Z</time></trkpt><trkpt lat="43.5583488" lon="10.7228366"><ele>52.0</ele><time>2026-04-04T08:30:08.03Z</time></trkpt><trkpt lat="43.5583675" lon="10.7229987"><ele>52.0</ele><time>2026-04-04T08:30:09.041Z</time></trkpt><trkpt lat="43.5583882" lon="10.7231552"><ele>52.0</ele><time>2026-04-04T08:30:10.045Z</time></trkpt><trkpt lat="43.5584071" lon="10.723305"><ele>52.0</ele><time>2026-04-04T08:30:11.05Z</time></trkpt><trkpt lat="43.5584277" lon="10.7234576"><ele>52.0</ele><time>2026-04-04T08:30:12.041Z</time></trkpt><trkpt lat="43.5584481" lon="10.7236115"><ele>52.0</ele><time>2026-04-04T08:30:13.048Z</time></trkpt><trkpt lat="43.5584636" lon="10.7237646"><ele>52.0</ele><time>2026-04-04T08:30:14.041Z</time></trkpt><trkpt lat="43.5584604" lon="10.7239129"><ele>52.0</ele><time>2026-04-04T08:30:15.045Z</time></trkpt><trkpt lat="43.5584378" lon="10.7240481"><ele>51.666666666666664</ele><time>2026-04-04T08:30:16.043Z</time></trkpt><trkpt lat="43.5583917" lon="10.7241647"><ele>51.33333333333333</ele><time>2026-04-04T08:30:17.052Z</time></trkpt><trkpt lat="43.5583377" lon="10.7242731"><ele>51.0</ele><time>2026-04-04T08:30:18.039Z</time></trkpt><trkpt lat="43.558285" lon="10.7243755"><ele>50.66666666666667</ele><time>2026-04-04T08:30:19.038Z</time></trkpt><trkpt lat="43.5582371" lon="10.7244712"><ele>50.333333333333336</ele><time>2026-04-04T08:30:20.044Z</time></trkpt><trkpt lat="43.5581979" lon="10.7245491"><ele>50.0</ele><time>2026-04-04T08:30:21.044Z</time></trkpt><trkpt lat="43.5581364" lon="10.7246673"><ele>50.0</ele><time>2026-04-04T08:30:23.025Z</time></trkpt><trkpt lat="43.5580961" lon="10.7247549"><ele>50.0</ele><time>2026-04-04T08:30:25.034Z</time></trkpt><trkpt lat="43.5580399" lon="10.7248688"><ele>50.0</ele><time>2026-04-04T08:30:27.04Z</time></trkpt><trkpt lat="43.5579814" lon="10.7249996"><ele>50.0</ele><time>2026-04-04T08:30:29.037Z</time></trkpt><trkpt lat="43.5579157" lon="10.7251297"><ele>50.0</ele><time>2026-04-04T08:30:31.052Z</time></trkpt><trkpt lat="43.5578758" lon="10.7252036"><ele>50.0</ele><time>2026-04-04T08:30:32.03Z</time></trkpt><trkpt lat="43.5577856" lon="10.7253085"><ele>50.0</ele><time>2026-04-04T08:30:34.039Z</time></trkpt><trkpt lat="43.5576777" lon="10.725328"><ele>50.0</ele><time>2026-04-04T08:30:36.037Z</time></trkpt><trkpt lat="43.5575977" lon="10.7253095"><ele>50.0</ele><time>2026-04-04T08:30:37.028Z</time></trkpt><trkpt lat="43.5574947" lon="10.725292"><ele>50.0</ele><time>2026-04-04T08:30:38.043Z</time></trkpt><trkpt lat="43.5573865" lon="10.7252857"><ele>50.00000000000001</ele><time>2026-04-04T08:30:39.048Z</time></trkpt><trkpt lat="43.557294" lon="10.7252894"><ele>50.0</ele><time>2026-04-04T08:30:40.036Z</time></trkpt><trkpt lat="43.5572184" lon="10.725296"><ele>50.0</ele><time>2026-04-04T08:30:41.035Z</time></trkpt><trkpt lat="43.5571501" lon="10.7252916"><ele>50.0</ele><time>2026-04-04T08:30:42.041Z</time></trkpt><trkpt lat="43.5570628" lon="10.7252734"><ele>50.00000000000001</ele><time>2026-04-04T08:30:43.037Z</time></trkpt><trkpt lat="43.5569459" lon="10.7252383"><ele>50.0</ele><time>2026-04-04T08:30:44.038Z</time></trkpt><trkpt lat="43.5568029" lon="10.7251876"><ele>55.0</ele><time>2026-04-04T08:30:45.047Z</time></trkpt><trkpt lat="43.5566374" lon="10.7251229"><ele>60.0</ele><time>2026-04-04T08:30:46.038Z</time></trkpt><trkpt lat="43.5564572" lon="10.7250636"><ele>65.0</ele><time>2026-04-04T08:30:47.034Z</time></trkpt><trkpt lat="43.5562698" lon="10.7250049"><ele>65.66666666666667</ele><time>2026-04-04T08:30:48.027Z</time></trkpt><trkpt lat="43.5560819" lon="10.7249431"><ele>66.33333333333333</ele><time>2026-04-04T08:30:49.045Z</time></trkpt><trkpt lat="43.5558912" lon="10.724899"><ele>67.0</ele><time>2026-04-04T08:30:50.053Z</time></trkpt><trkpt lat="43.5556983" lon="10.7248813"><ele>67.0</ele><time>2026-04-04T08:30:51.045Z</time></trkpt><trkpt lat="43.5555017" lon="10.7248778"><ele>67.0</ele><time>2026-04-04T08:30:52.056Z</time></trkpt><trkpt lat="43.5552973" lon="10.7248705"><ele>67.0</ele><time>2026-04-04T08:30:53.037Z</time></trkpt><trkpt lat="43.555086" lon="10.7248635"><ele>69.5</ele><time>2026-04-04T08:30:54.06Z</time></trkpt><trkpt lat="43.5548649" lon="10.7248733"><ele>72.0</ele><time>2026-04-04T08:30:55.05Z</time></trkpt><trkpt lat="43.5546325" lon="10.724891"><ele>76.5</ele><time>2026-04-04T08:30:56.063Z</time></trkpt><trkpt lat="43.5543777" lon="10.724897"><ele>81.0</ele><time>2026-04-04T08:30:57.036Z</time></trkpt><trkpt lat="43.5541217" lon="10.7248731"><ele>81.0</ele><time>2026-04-04T08:30:58.044Z</time></trkpt><trkpt lat="43.5538724" lon="10.7248243"><ele>81.0</ele><time>2026-04-04T08:30:59.042Z</time></trkpt><trkpt lat="43.5536318" lon="10.7247654"><ele>83.5</ele><time>2026-04-04T08:31:00.047Z</time></trkpt><trkpt lat="43.5534012" lon="10.7247109"><ele>86.0</ele><time>2026-04-04T08:31:01.052Z</time></trkpt><trkpt lat="43.5531803" lon="10.7246636"><ele>86.0</ele><time>2026-04-04T08:31:02.046Z</time></trkpt><trkpt lat="43.552968" lon="10.7246164"><ele>86.0</ele><time>2026-04-04T08:31:03.049Z</time></trkpt><trkpt lat="43.5527619" lon="10.7245666"><ele>86.0</ele><time>2026-04-04T08:31:04.046Z</time></trkpt><trkpt lat="43.5525556" lon="10.7245346"><ele>89.0</ele><time>2026-04-04T08:31:05.035Z</time></trkpt><trkpt lat="43.5523572" lon="10.7245252"><ele>92.0</ele><time>2026-04-04T08:31:06.044Z</time></trkpt><trkpt lat="43.5521748" lon="10.724533"><ele>95.0</ele><time>2026-04-04T08:31:07.042Z</time></trkpt><trkpt lat="43.5520212" lon="10.7245439"><ele>96.5</ele><time>2026-04-04T08:31:08.039Z</time></trkpt><trkpt lat="43.5518759" lon="10.7245483"><ele>98.0</ele><time>2026-04-04T08:31:09.041Z</time></trkpt><trkpt lat="43.5517307" lon="10.7245387"><ele>99.5</ele><time>2026-04-04T08:31:10.049Z</time></trkpt><trkpt lat="43.5515906" lon="10.7245081"><ele>101.0</ele><time>2026-04-04T08:31:11.042Z</time></trkpt><trkpt lat="43.5514415" lon="10.7244562"><ele>104.75</ele><time>2026-04-04T08:31:12.039Z</time></trkpt><trkpt lat="43.5512904" lon="10.7243961"><ele>108.5</ele><time>2026-04-04T08:31:13.04Z</time></trkpt><trkpt lat="43.5511534" lon="10.7243401"><ele>112.25</ele><time>2026-04-04T08:31:14.044Z</time></trkpt><trkpt lat="43.551016" lon="10.7242938"><ele>116.0</ele><time>2026-04-04T08:31:15.036Z</time></trkpt><trkpt lat="43.5508704" lon="10.7242522"><ele>117.5</ele><time>2026-04-04T08:31:16.044Z</time></trkpt><trkpt lat="43.5507239" lon="10.7242226"><ele>119.0</ele><time>2026-04-04T08:31:17.028Z</time></trkpt><trkpt lat="43.5505808" lon="10.7242018"><ele>120.5</ele><time>2026-04-04T08:31:18.034Z</time></trkpt><trkpt lat="43.5504443" lon="10.7241797"><ele>122.0</ele><time>2026-04-04T08:31:19.04Z</time></trkpt><trkpt lat="43.550331" lon="10.724142"><ele>122.0</ele><time>2026-04-04T08:31:20.038Z</time></trkpt><trkpt lat="43.5502331" lon="10.7240695"><ele>121.99999999999999</ele><time>2026-04-04T08:31:21.027Z</time></trkpt><trkpt lat="43.5501533" lon="10.7239754"><ele>121.99999999999999</ele><time>2026-04-04T08:31:22.032Z</time></trkpt><trkpt lat="43.5500904" lon="10.7238661"><ele>122.0</ele><time>2026-04-04T08:31:23.031Z</time></trkpt><trkpt lat="43.550037" lon="10.7237445"><ele>122.0</ele><time>2026-04-04T08:31:24.033Z</time></trkpt><trkpt lat="43.5499991" lon="10.7236172"><ele>124.75</ele><time>2026-04-04T08:31:25.037Z</time></trkpt><trkpt lat="43.5499823" lon="10.7234724"><ele>127.5</ele><time>2026-04-04T08:31:26.049Z</time></trkpt><trkpt lat="43.5499867" lon="10.7233161"><ele>130.25</ele><time>2026-04-04T08:31:27.024Z</time></trkpt><trkpt lat="43.5499776" lon="10.7231566"><ele>133.0</ele><time>2026-04-04T08:31:28.035Z</time></trkpt><trkpt lat="43.5499337" lon="10.7230004"><ele>133.0</ele><time>2026-04-04T08:31:29.047Z</time></trkpt><trkpt lat="43.5498975" lon="10.7228536"><ele>133.0</ele><time>2026-04-04T08:31:30.032Z</time></trkpt><trkpt lat="43.5498727" lon="10.7227205"><ele>133.0</ele><time>2026-04-04T08:31:31.054Z</time></trkpt><trkpt lat="43.549869" lon="10.7225884"><ele>133.0</ele><time>2026-04-04T08:31:32.041Z</time></trkpt><trkpt lat="43.5498738" lon="10.7224438"><ele>133.0</ele><time>2026-04-04T08:31:33.034Z</time></trkpt><trkpt lat="43.5498608" lon="10.7223107"><ele>133.20000000000002</ele><time>2026-04-04T08:31:34.046Z</time></trkpt><trkpt lat="43.5498322" lon="10.7221877"><ele>133.4</ele><time>2026-04-04T08:31:35.044Z</time></trkpt><trkpt lat="43.5497976" lon="10.722065"><ele>133.60000000000002</ele><time>2026-04-04T08:31:36.035Z</time></trkpt><trkpt lat="43.5497624" lon="10.7219404"><ele>133.8</ele><time>2026-04-04T08:31:37.046Z</time></trkpt><trkpt lat="43.5497254" lon="10.7218151"><ele>134.0</ele><time>2026-04-04T08:31:38.044Z</time></trkpt><trkpt lat="43.5496892" lon="10.7217065"><ele>134.0</ele><time>2026-04-04T08:31:39.039Z</time></trkpt><trkpt lat="43.5496495" lon="10.721613"><ele>134.0</ele><time>2026-04-04T08:31:40.057Z</time></trkpt><trkpt lat="43.5496227" lon="10.7215339"><ele>134.0</ele><time>2026-04-04T08:31:41.049Z</time></trkpt><trkpt lat="43.5496057" lon="10.721381"><ele>134.0</ele><time>2026-04-04T08:31:43.028Z</time></trkpt><trkpt lat="43.5496644" lon="10.7212137"><ele>134.0</ele><time>2026-04-04T08:31:45.048Z</time></trkpt><trkpt lat="43.5496904" lon="10.7210938"><ele>132.5</ele><time>2026-04-04T08:31:46.035Z</time></trkpt><trkpt lat="43.5497021" lon="10.7209467"><ele>131.0</ele><time>2026-04-04T08:31:47.038Z</time></trkpt><trkpt lat="43.5497115" lon="10.7207868"><ele>129.5</ele><time>2026-04-04T08:31:48.044Z</time></trkpt><trkpt lat="43.5497222" lon="10.7206238"><ele>128.0</ele><time>2026-04-04T08:31:49.048Z</time></trkpt><trkpt lat="43.5497281" lon="10.7204617"><ele>128.0</ele><time>2026-04-04T08:31:50.035Z</time></trkpt><trkpt lat="43.5497239" lon="10.7203102"><ele>128.0</ele><time>2026-04-04T08:31:51.034Z</time></trkpt><trkpt lat="43.5496974" lon="10.7201769"><ele>128.0</ele><time>2026-04-04T08:31:52.04Z</time></trkpt><trkpt lat="43.5496459" lon="10.7200574"><ele>128.0</ele><time>2026-04-04T08:31:53.032Z</time></trkpt><trkpt lat="43.5495889" lon="10.7199512"><ele>128.0</ele><time>2026-04-04T08:31:54.047Z</time></trkpt><trkpt lat="43.5495199" lon="10.719844"><ele>130.0</ele><time>2026-04-04T08:31:55.034Z</time></trkpt><trkpt lat="43.5494508" lon="10.7197272"><ele>132.0</ele><time>2026-04-04T08:31:56.043Z</time></trkpt><trkpt lat="43.5493747" lon="10.7196183"><ele>134.0</ele><time>2026-04-04T08:31:57.049Z</time></trkpt><trkpt lat="43.5492953" lon="10.7195173"><ele>136.0</ele><time>2026-04-04T08:31:58.051Z</time></trkpt><trkpt lat="43.5492056" lon="10.7194427"><ele>138.0</ele><time>2026-04-04T08:31:59.045Z</time></trkpt><trkpt lat="43.5491026" lon="10.7193903"><ele>132.5</ele><time>2026-04-04T08:32:00.041Z</time></trkpt><trkpt lat="43.5489797" lon="10.7193487"><ele>127.0</ele><time>2026-04-04T08:32:01.042Z</time></trkpt><trkpt lat="43.5488512" lon="10.719315"><ele>121.5</ele><time>2026-04-04T08:32:02.04Z</time></trkpt><trkpt lat="43.5487154" lon="10.7192863"><ele>116.0</ele><time>2026-04-04T08:32:03.043Z</time></trkpt><trkpt lat="43.5485803" lon="10.7192716"><ele>115.5</ele><time>2026-04-04T08:32:04.033Z</time></trkpt><trkpt lat="43.5484451" lon="10.7192716"><ele>115.0</ele><time>2026-04-04T08:32:05.029Z</time></trkpt><trkpt lat="43.5483117" lon="10.7192769"><ele>114.5</ele><time>2026-04-04T08:32:06.049Z</time></trkpt><trkpt lat="43.5481848" lon="10.7192863"><ele>114.0</ele><time>2026-04-04T08:32:07.026Z</time></trkpt><trkpt lat="43.5480682" lon="10.7192898"><ele>114.0</ele><time>2026-04-04T08:32:08.027Z</time></trkpt><trkpt lat="43.5479492" lon="10.7192915"><ele>114.0</ele><time>2026-04-04T08:32:09.04Z</time></trkpt><trkpt lat="43.5478305" lon="10.7192975"><ele>114.0</ele><time>2026-04-04T08:32:10.026Z</time></trkpt><trkpt lat="43.5477077" lon="10.7193049"><ele>114.0</ele><time>2026-04-04T08:32:11.026Z</time></trkpt><trkpt lat="43.5475842" lon="10.7193137"><ele>112.80000000000001</ele><time>2026-04-04T08:32:12.021Z</time></trkpt><trkpt lat="43.5474634" lon="10.7193177"><ele>111.60000000000001</ele><time>2026-04-04T08:32:13.028Z</time></trkpt><trkpt lat="43.5473568" lon="10.7193233"><ele>110.4</ele><time>2026-04-04T08:32:14.032Z</time></trkpt><trkpt lat="43.5472708" lon="10.7193226"><ele>109.2</ele><time>2026-04-04T08:32:15.024Z</time></trkpt><trkpt lat="43.5472002" lon="10.7193311"><ele>108.0</ele><time>2026-04-04T08:32:16.043Z</time></trkpt><trkpt lat="43.5471251" lon="10.7193457"><ele>108.0</ele><time>2026-04-04T08:32:17.034Z</time></trkpt><trkpt lat="43.5470491" lon="10.7193546"><ele>108.0</ele><time>2026-04-04T08:32:18.037Z</time></trkpt><trkpt lat="43.5469729" lon="10.719364"><ele>108.0</ele><time>2026-04-04T08:32:19.029Z</time></trkpt><trkpt lat="43.5468911" lon="10.719366"><ele>108.0</ele><time>2026-04-04T08:32:20.027Z</time></trkpt><trkpt lat="43.5468092" lon="10.7193594"><ele>108.0</ele><time>2026-04-04T08:32:21.039Z</time></trkpt><trkpt lat="43.546734" lon="10.7193304"><ele>108.0</ele><time>2026-04-04T08:32:22.039Z</time></trkpt><trkpt lat="43.5466679" lon="10.7192946"><ele>108.33333333333333</ele><time>2026-04-04T08:32:23.042Z</time></trkpt><trkpt lat="43.5465958" lon="10.7192731"><ele>108.66666666666666</ele><time>2026-04-04T08:32:24.039Z</time></trkpt><trkpt lat="43.5465162" lon="10.7192962"><ele>109.0</ele><time>2026-04-04T08:32:25.042Z</time></trkpt><trkpt lat="43.5464358" lon="10.7193399"><ele>109.33333333333333</ele><time>2026-04-04T08:32:26.022Z</time></trkpt><trkpt lat="43.5463479" lon="10.7193796"><ele>109.66666666666666</ele><time>2026-04-04T08:32:27.036Z</time></trkpt><trkpt lat="43.5462532" lon="10.7194244"><ele>110.0</ele><time>2026-04-04T08:32:28.03Z</time></trkpt><trkpt lat="43.5461508" lon="10.719468"><ele>112.25</ele><time>2026-04-04T08:32:29.037Z</time></trkpt><trkpt lat="43.5460438" lon="10.7195307"><ele>114.5</ele><time>2026-04-04T08:32:30.039Z</time></trkpt><trkpt lat="43.5459229" lon="10.7195857"><ele>116.75</ele><time>2026-04-04T08:32:31.041Z</time></trkpt><trkpt lat="43.5457994" lon="10.7196414"><ele>119.0</ele><time>2026-04-04T08:32:32.042Z</time></trkpt><trkpt lat="43.5456803" lon="10.7196893"><ele>118.99999999999999</ele><time>2026-04-04T08:32:33.039Z</time></trkpt><trkpt lat="43.5455746" lon="10.7197428"><ele>119.0</ele><time>2026-04-04T08:32:34.025Z</time></trkpt><trkpt lat="43.5455004" lon="10.7197921"><ele>119.0</ele><time>2026-04-04T08:32:35.046Z</time></trkpt><trkpt lat="43.5454398" lon="10.7198414"><ele>119.0</ele><time>2026-04-04T08:32:36.026Z</time></trkpt><trkpt lat="43.5453716" lon="10.7198973"><ele>118.99999999999999</ele><time>2026-04-04T08:32:37.038Z</time></trkpt><trkpt lat="43.5453067" lon="10.7199574"><ele>119.0</ele><time>2026-04-04T08:32:38.03Z</time></trkpt><trkpt lat="43.5452456" lon="10.7200289"><ele>119.33333333333333</ele><time>2026-04-04T08:32:39.039Z</time></trkpt><trkpt lat="43.5451892" lon="10.7201086"><ele>119.66666666666666</ele><time>2026-04-04T08:32:40.033Z</time></trkpt><trkpt lat="43.5451291" lon="10.7201883"><ele>120.0</ele><time>2026-04-04T08:32:41.041Z</time></trkpt><trkpt lat="43.5450724" lon="10.7202771"><ele>120.33333333333334</ele><time>2026-04-04T08:32:42.027Z</time></trkpt><trkpt lat="43.5450173" lon="10.7203718"><ele>120.66666666666667</ele><time>2026-04-04T08:32:43.037Z</time></trkpt><trkpt lat="43.5449579" lon="10.7204586"><ele>121.0</ele><time>2026-04-04T08:32:44.052Z</time></trkpt><trkpt lat="43.544885" lon="10.7205357"><ele>121.0</ele><time>2026-04-04T08:32:45.043Z</time></trkpt><trkpt lat="43.544803" lon="10.72061"><ele>121.0</ele><time>2026-04-04T08:32:46.054Z</time></trkpt><trkpt lat="43.5447045" lon="10.720681"><ele>121.0</ele><time>2026-04-04T08:32:47.038Z</time></trkpt><trkpt lat="43.5446012" lon="10.7207503"><ele>121.0</ele><time>2026-04-04T08:32:48.054Z</time></trkpt><trkpt lat="43.5444963" lon="10.7208178"><ele>121.0</ele><time>2026-04-04T08:32:49.043Z</time></trkpt><trkpt lat="43.5443885" lon="10.7208715"><ele>120.75</ele><time>2026-04-04T08:32:50.033Z</time></trkpt><trkpt lat="43.544272" lon="10.720914"><ele>120.5</ele><time>2026-04-04T08:32:51.04Z</time></trkpt><trkpt lat="43.5441518" lon="10.7209467"><ele>120.25</ele><time>2026-04-04T08:32:52.047Z</time></trkpt><trkpt lat="43.5440318" lon="10.7209688"><ele>120.0</ele><time>2026-04-04T08:32:53.039Z</time></trkpt><trkpt lat="43.5439188" lon="10.7209827"><ele>120.0</ele><time>2026-04-04T08:32:54.049Z</time></trkpt><trkpt lat="43.5438144" lon="10.7209959"><ele>120.0</ele><time>2026-04-04T08:32:55.046Z</time></trkpt><trkpt lat="43.5437089" lon="10.7210051"><ele>120.0</ele><time>2026-04-04T08:32:56.044Z</time></trkpt><trkpt lat="43.5435877" lon="10.7210059"><ele>120.0</ele><time>2026-04-04T08:32:57.043Z</time></trkpt><trkpt lat="43.5434575" lon="10.721006"><ele>119.75</ele><time>2026-04-04T08:32:58.041Z</time></trkpt><trkpt lat="43.5433299" lon="10.7210147"><ele>119.5</ele><time>2026-04-04T08:32:59.047Z</time></trkpt><trkpt lat="43.5432031" lon="10.7210209"><ele>119.25</ele><time>2026-04-04T08:33:00.035Z</time></trkpt><trkpt lat="43.543078" lon="10.7210297"><ele>119.0</ele><time>2026-04-04T08:33:01.043Z</time></trkpt><trkpt lat="43.5429593" lon="10.7210352"><ele>118.75</ele><time>2026-04-04T08:33:02.057Z</time></trkpt><trkpt lat="43.5428438" lon="10.7210409"><ele>118.5</ele><time>2026-04-04T08:33:03.09Z</time></trkpt><trkpt lat="43.5427238" lon="10.7210518"><ele>118.25</ele><time>2026-04-04T08:33:04.05Z</time></trkpt><trkpt lat="43.5426081" lon="10.7210597"><ele>118.0</ele><time>2026-04-04T08:33:05.034Z</time></trkpt><trkpt lat="43.5424965" lon="10.7210687"><ele>117.80000000000001</ele><time>2026-04-04T08:33:06.049Z</time></trkpt><trkpt lat="43.5423819" lon="10.7210758"><ele>117.60000000000001</ele><time>2026-04-04T08:33:07.047Z</time></trkpt><trkpt lat="43.5422759" lon="10.7210846"><ele>117.39999999999999</ele><time>2026-04-04T08:33:08.056Z</time></trkpt><trkpt lat="43.5421716" lon="10.7210929"><ele>117.19999999999999</ele><time>2026-04-04T08:33:09.047Z</time></trkpt><trkpt lat="43.5420748" lon="10.7211033"><ele>117.0</ele><time>2026-04-04T08:33:10.047Z</time></trkpt><trkpt lat="43.541979" lon="10.721109"><ele>117.0</ele><time>2026-04-04T08:33:11.049Z</time></trkpt><trkpt lat="43.5418705" lon="10.7211166"><ele>117.0</ele><time>2026-04-04T08:33:12.044Z</time></trkpt><trkpt lat="43.5417538" lon="10.7211238"><ele>117.0</ele><time>2026-04-04T08:33:13.039Z</time></trkpt><trkpt lat="43.5416305" lon="10.7211249"><ele>117.0</ele><time>2026-04-04T08:33:14.033Z</time></trkpt><trkpt lat="43.5414994" lon="10.7211233"><ele>117.0</ele><time>2026-04-04T08:33:15.055Z</time></trkpt><trkpt lat="43.5413623" lon="10.7211209"><ele>117.0</ele><time>2026-04-04T08:33:16.057Z</time></trkpt><trkpt lat="43.5412225" lon="10.7211161"><ele>117.0</ele><time>2026-04-04T08:33:17.041Z</time></trkpt><trkpt lat="43.5410824" lon="10.7211123"><ele>117.0</ele><time>2026-04-04T08:33:18.05Z</time></trkpt><trkpt lat="43.540946" lon="10.7211034"><ele>118.25</ele><time>2026-04-04T08:33:19.046Z</time></trkpt><trkpt lat="43.5408127" lon="10.7210929"><ele>119.5</ele><time>2026-04-04T08:33:20.04Z</time></trkpt><trkpt lat="43.5406865" lon="10.7210794"><ele>120.75</ele><time>2026-04-04T08:33:21.056Z</time></trkpt><trkpt lat="43.5405548" lon="10.7210673"><ele>122.0</ele><time>2026-04-04T08:33:22.074Z</time></trkpt><trkpt lat="43.5404149" lon="10.7210599"><ele>122.5</ele><time>2026-04-04T08:33:23.049Z</time></trkpt><trkpt lat="43.5402692" lon="10.7210537"><ele>123.0</ele><time>2026-04-04T08:33:24.071Z</time></trkpt><trkpt lat="43.5401194" lon="10.7210521"><ele>123.5</ele><time>2026-04-04T08:33:25.058Z</time></trkpt><trkpt lat="43.5399684" lon="10.7210667"><ele>124.0</ele><time>2026-04-04T08:33:26.053Z</time></trkpt><trkpt lat="43.5398207" lon="10.7210878"><ele>124.0</ele><time>2026-04-04T08:33:27.057Z</time></trkpt><trkpt lat="43.5396759" lon="10.7211073"><ele>124.0</ele><time>2026-04-04T08:33:28.052Z</time></trkpt><trkpt lat="43.5395285" lon="10.7211238"><ele>124.0</ele><time>2026-04-04T08:33:29.047Z</time></trkpt><trkpt lat="43.5393827" lon="10.7211441"><ele>124.0</ele><time>2026-04-04T08:33:30.043Z</time></trkpt><trkpt lat="43.5392367" lon="10.7211713"><ele>125.0</ele><time>2026-04-04T08:33:31.055Z</time></trkpt><trkpt lat="43.5390976" lon="10.7212021"><ele>126.0</ele><time>2026-04-04T08:33:32.054Z</time></trkpt><trkpt lat="43.5389733" lon="10.7212299"><ele>127.0</ele><time>2026-04-04T08:33:33.042Z</time></trkpt><trkpt lat="43.5388556" lon="10.7212533"><ele>128.0</ele><time>2026-04-04T08:33:34.061Z</time></trkpt><trkpt lat="43.538733" lon="10.721278"><ele>129.75</ele><time>2026-04-04T08:33:35.052Z</time></trkpt><trkpt lat="43.5386022" lon="10.7213094"><ele>131.5</ele><time>2026-04-04T08:33:36.024Z</time></trkpt><trkpt lat="43.5384734" lon="10.7213332"><ele>133.25</ele><time>2026-04-04T08:33:37.052Z</time></trkpt><trkpt lat="43.5383479" lon="10.7213509"><ele>135.0</ele><time>2026-04-04T08:33:38.047Z</time></trkpt><trkpt lat="43.5382311" lon="10.7213545"><ele>135.0</ele><time>2026-04-04T08:33:39.045Z</time></trkpt><trkpt lat="43.5381139" lon="10.7213447"><ele>135.0</ele><time>2026-04-04T08:33:40.064Z</time></trkpt><trkpt lat="43.5379968" lon="10.7213392"><ele>135.0</ele><time>2026-04-04T08:33:41.051Z</time></trkpt><trkpt lat="43.5378872" lon="10.7213409"><ele>135.0</ele><time>2026-04-04T08:33:42.082Z</time></trkpt><trkpt lat="43.5377769" lon="10.7213521"><ele>135.25</ele><time>2026-04-04T08:33:43.044Z</time></trkpt><trkpt lat="43.5376563" lon="10.721362"><ele>135.5</ele><time>2026-04-04T08:33:44.049Z</time></trkpt><trkpt lat="43.5375305" lon="10.7213628"><ele>135.75</ele><time>2026-04-04T08:33:45.051Z</time></trkpt><trkpt lat="43.5374036" lon="10.7213727"><ele>136.0</ele><time>2026-04-04T08:33:46.057Z</time></trkpt><trkpt lat="43.537286" lon="10.7213848"><ele>136.0</ele><time>2026-04-04T08:33:47.041Z</time></trkpt><trkpt lat="43.537176" lon="10.7214127"><ele>136.0</ele><time>2026-04-04T08:33:48.062Z</time></trkpt><trkpt lat="43.5370708" lon="10.7214466"><ele>136.0</ele><time>2026-04-04T08:33:49.047Z</time></trkpt><trkpt lat="43.5369692" lon="10.7214816"><ele>136.0</ele><time>2026-04-04T08:33:50.058Z</time></trkpt><trkpt lat="43.5368687" lon="10.721511"><ele>136.0</ele><time>2026-04-04T08:33:51.056Z</time></trkpt><trkpt lat="43.536766" lon="10.7215342"><ele>133.5</ele><time>2026-04-04T08:33:52.05Z</time></trkpt><trkpt lat="43.5366419" lon="10.7215335"><ele>131.0</ele><time>2026-04-04T08:33:53.049Z</time></trkpt><trkpt lat="43.5364941" lon="10.7215066"><ele>128.5</ele><time>2026-04-04T08:33:54.039Z</time></trkpt><trkpt lat="43.5363367" lon="10.7214626"><ele>126.0</ele><time>2026-04-04T08:33:55.05Z</time></trkpt><trkpt lat="43.5361775" lon="10.7214132"><ele>123.0</ele><time>2026-04-04T08:33:56.055Z</time></trkpt><trkpt lat="43.5360237" lon="10.7213607"><ele>120.0</ele><time>2026-04-04T08:33:57.056Z</time></trkpt><trkpt lat="43.5358708" lon="10.7213125"><ele>117.0</ele><time>2026-04-04T08:33:58.039Z</time></trkpt><trkpt lat="43.5357129" lon="10.721269"><ele>117.0</ele><time>2026-04-04T08:33:59.037Z</time></trkpt><trkpt lat="43.5355523" lon="10.7212205"><ele>117.0</ele><time>2026-04-04T08:34:00.043Z</time></trkpt><trkpt lat="43.5353963" lon="10.7211612"><ele>117.0</ele><time>2026-04-04T08:34:01.046Z</time></trkpt><trkpt lat="43.5352491" lon="10.7210978"><ele>118.5</ele><time>2026-04-04T08:34:02.054Z</time></trkpt><trkpt lat="43.5351119" lon="10.7210301"><ele>120.0</ele><time>2026-04-04T08:34:03.045Z</time></trkpt><trkpt lat="43.5349832" lon="10.7209462"><ele>121.5</ele><time>2026-04-04T08:34:04.079Z</time></trkpt><trkpt lat="43.5348639" lon="10.7208538"><ele>123.0</ele><time>2026-04-04T08:34:05.041Z</time></trkpt><trkpt lat="43.5347558" lon="10.7207557"><ele>123.0</ele><time>2026-04-04T08:34:06.049Z</time></trkpt><trkpt lat="43.5346481" lon="10.7206722"><ele>123.0</ele><time>2026-04-04T08:34:07.045Z</time></trkpt><trkpt lat="43.5345448" lon="10.7206021"><ele>123.0</ele><time>2026-04-04T08:34:08.055Z</time></trkpt><trkpt lat="43.5344374" lon="10.7205389"><ele>123.0</ele><time>2026-04-04T08:34:09.034Z</time></trkpt><trkpt lat="43.5343191" lon="10.7204797"><ele>124.5</ele><time>2026-04-04T08:34:10.047Z</time></trkpt><trkpt lat="43.5342011" lon="10.7204164"><ele>126.0</ele><time>2026-04-04T08:34:11.052Z</time></trkpt><trkpt lat="43.5340905" lon="10.7203622"><ele>127.5</ele><time>2026-04-04T08:34:12.061Z</time></trkpt><trkpt lat="43.5339893" lon="10.7203169"><ele>129.0</ele><time>2026-04-04T08:34:13.043Z</time></trkpt><trkpt lat="43.5338841" lon="10.7202853"><ele>129.0</ele><time>2026-04-04T08:34:14.061Z</time></trkpt><trkpt lat="43.5337714" lon="10.7202741"><ele>129.0</ele><time>2026-04-04T08:34:15.036Z</time></trkpt><trkpt lat="43.5336438" lon="10.7202905"><ele>129.0</ele><time>2026-04-04T08:34:16.05Z</time></trkpt><trkpt lat="43.5335026" lon="10.7203293"><ele>129.0</ele><time>2026-04-04T08:34:17.039Z</time></trkpt><trkpt lat="43.5333591" lon="10.7203797"><ele>128.0</ele><time>2026-04-04T08:34:18.04Z</time></trkpt><trkpt lat="43.5332053" lon="10.720434"><ele>127.0</ele><time>2026-04-04T08:34:19.05Z</time></trkpt><trkpt lat="43.533035" lon="10.7205034"><ele>126.0</ele><time>2026-04-04T08:34:20.036Z</time></trkpt><trkpt lat="43.5328689" lon="10.7205833"><ele>123.66666666666666</ele><time>2026-04-04T08:34:21.029Z</time></trkpt><trkpt lat="43.5327199" lon="10.7206604"><ele>121.33333333333333</ele><time>2026-04-04T08:34:22.037Z</time></trkpt><trkpt lat="43.5325763" lon="10.7207298"><ele>119.0</ele><time>2026-04-04T08:34:23.051Z</time></trkpt><trkpt lat="43.5324331" lon="10.7208172"><ele>119.0</ele><time>2026-04-04T08:34:24.043Z</time></trkpt><trkpt lat="43.5322858" lon="10.7209198"><ele>119.0</ele><time>2026-04-04T08:34:25.049Z</time></trkpt><trkpt lat="43.5321214" lon="10.7210323"><ele>119.0</ele><time>2026-04-04T08:34:26.054Z</time></trkpt><trkpt lat="43.531933" lon="10.7211495"><ele>118.66666666666666</ele><time>2026-04-04T08:34:27.032Z</time></trkpt><trkpt lat="43.5317409" lon="10.7212643"><ele>118.33333333333334</ele><time>2026-04-04T08:34:28.049Z</time></trkpt><trkpt lat="43.5315396" lon="10.7213861"><ele>118.0</ele><time>2026-04-04T08:34:29.037Z</time></trkpt><trkpt lat="43.5313298" lon="10.7215163"><ele>122.5</ele><time>2026-04-04T08:34:30.026Z</time></trkpt><trkpt lat="43.5311081" lon="10.7216492"><ele>127.0</ele><time>2026-04-04T08:34:31.037Z</time></trkpt><trkpt lat="43.5308837" lon="10.7217822"><ele>125.33333333333334</ele><time>2026-04-04T08:34:32.038Z</time></trkpt><trkpt lat="43.530687" lon="10.7219243"><ele>123.66666666666666</ele><time>2026-04-04T08:34:33.042Z</time></trkpt><trkpt lat="43.5305209" lon="10.7220888"><ele>122.0</ele><time>2026-04-04T08:34:34.057Z</time></trkpt><trkpt lat="43.5303793" lon="10.7223013"><ele>125.0</ele><time>2026-04-04T08:34:35.046Z</time></trkpt><trkpt lat="43.5302502" lon="10.7225582"><ele>128.0</ele><time>2026-04-04T08:34:36.057Z</time></trkpt><trkpt lat="43.5301284" lon="10.7228454"><ele>128.0</ele><time>2026-04-04T08:34:37.043Z</time></trkpt><trkpt lat="43.5300071" lon="10.7231359"><ele>128.0</ele><time>2026-04-04T08:34:38.059Z</time></trkpt><trkpt lat="43.5298947" lon="10.7234092"><ele>127.33333333333333</ele><time>2026-04-04T08:34:39.041Z</time></trkpt><trkpt lat="43.5297935" lon="10.7236463"><ele>126.66666666666666</ele><time>2026-04-04T08:34:40.049Z</time></trkpt><trkpt lat="43.5297045" lon="10.7238493"><ele>126.0</ele><time>2026-04-04T08:34:41.054Z</time></trkpt><trkpt lat="43.5296271" lon="10.7240359"><ele>126.0</ele><time>2026-04-04T08:34:42.022Z</time></trkpt><trkpt lat="43.5295642" lon="10.724232"><ele>126.0</ele><time>2026-04-04T08:34:43.041Z</time></trkpt><trkpt lat="43.529533" lon="10.7244746"><ele>126.0</ele><time>2026-04-04T08:34:44.038Z</time></trkpt><trkpt lat="43.5295256" lon="10.7247526"><ele>126.33333333333334</ele><time>2026-04-04T08:34:45.032Z</time></trkpt><trkpt lat="43.5295326" lon="10.7250494"><ele>126.66666666666667</ele><time>2026-04-04T08:34:46.049Z</time></trkpt><trkpt lat="43.5295401" lon="10.7253502"><ele>127.0</ele><time>2026-04-04T08:34:47.032Z</time></trkpt><trkpt lat="43.5295252" lon="10.7256378"><ele>127.0</ele><time>2026-04-04T08:34:48.056Z</time></trkpt><trkpt lat="43.5294906" lon="10.7259027"><ele>127.0</ele><time>2026-04-04T08:34:49.028Z</time></trkpt><trkpt lat="43.52943" lon="10.7261447"><ele>127.0</ele><time>2026-04-04T08:34:50.049Z</time></trkpt><trkpt lat="43.5293331" lon="10.7263568"><ele>129.66666666666669</ele><time>2026-04-04T08:34:51.052Z</time></trkpt><trkpt lat="43.529205" lon="10.7265668"><ele>132.33333333333334</ele><time>2026-04-04T08:34:52.048Z</time></trkpt><trkpt lat="43.5290633" lon="10.7267738"><ele>135.0</ele><time>2026-04-04T08:34:53.057Z</time></trkpt><trkpt lat="43.5289157" lon="10.726979"><ele>136.66666666666666</ele><time>2026-04-04T08:34:54.063Z</time></trkpt><trkpt lat="43.5287762" lon="10.7271763"><ele>138.33333333333331</ele><time>2026-04-04T08:34:55.054Z</time></trkpt><trkpt lat="43.5286495" lon="10.7273628"><ele>140.0</ele><time>2026-04-04T08:34:56.061Z</time></trkpt><trkpt lat="43.5285355" lon="10.7275465"><ele>140.0</ele><time>2026-04-04T08:34:57.038Z</time></trkpt><trkpt lat="43.5284324" lon="10.7277182"><ele>140.0</ele><time>2026-04-04T08:34:58.066Z</time></trkpt><trkpt lat="43.5283334" lon="10.7278822"><ele>140.0</ele><time>2026-04-04T08:34:59.055Z</time></trkpt><trkpt lat="43.5282288" lon="10.7280399"><ele>140.0</ele><time>2026-04-04T08:35:00.049Z</time></trkpt><trkpt lat="43.5281205" lon="10.7281884"><ele>140.0</ele><time>2026-04-04T08:35:01.051Z</time></trkpt><trkpt lat="43.5280061" lon="10.7283429"><ele>140.0</ele><time>2026-04-04T08:35:02.071Z</time></trkpt><trkpt lat="43.5278822" lon="10.7284978"><ele>139.33333333333331</ele><time>2026-04-04T08:35:03.05Z</time></trkpt><trkpt lat="43.5277467" lon="10.7286456"><ele>138.66666666666666</ele><time>2026-04-04T08:35:04.057Z</time></trkpt><trkpt lat="43.527608" lon="10.72879"><ele>138.0</ele><time>2026-04-04T08:35:05.047Z</time></trkpt><trkpt lat="43.5274686" lon="10.7289267"><ele>138.0</ele><time>2026-04-04T08:35:06.069Z</time></trkpt><trkpt lat="43.5273316" lon="10.7290594"><ele>138.0</ele><time>2026-04-04T08:35:07.033Z</time></trkpt><trkpt lat="43.5272013" lon="10.7291973"><ele>138.0</ele><time>2026-04-04T08:35:08.065Z</time></trkpt><trkpt lat="43.5270796" lon="10.7293548"><ele>141.66666666666666</ele><time>2026-04-04T08:35:09.052Z</time></trkpt><trkpt lat="43.5269753" lon="10.7295287"><ele>145.33333333333331</ele><time>2026-04-04T08:35:10.053Z</time></trkpt><trkpt lat="43.526886" lon="10.729722"><ele>149.0</ele><time>2026-04-04T08:35:11.052Z</time></trkpt><trkpt lat="43.5268166" lon="10.7299281"><ele>149.0</ele><time>2026-04-04T08:35:12.045Z</time></trkpt><trkpt lat="43.5267708" lon="10.7301578"><ele>149.0</ele><time>2026-04-04T08:35:13.058Z</time></trkpt><trkpt lat="43.5267366" lon="10.7303848"><ele>149.0</ele><time>2026-04-04T08:35:14.049Z</time></trkpt><trkpt lat="43.5267055" lon="10.7305797"><ele>149.0</ele><time>2026-04-04T08:35:15.054Z</time></trkpt><trkpt lat="43.5266681" lon="10.7307569"><ele>149.0</ele><time>2026-04-04T08:35:16.06Z</time></trkpt><trkpt lat="43.5266238" lon="10.7309343"><ele>149.0</ele><time>2026-04-04T08:35:17.049Z</time></trkpt><trkpt lat="43.526569" lon="10.7311085"><ele>149.0</ele><time>2026-04-04T08:35:18.044Z</time></trkpt><trkpt lat="43.5265014" lon="10.7312648"><ele>149.0</ele><time>2026-04-04T08:35:19.033Z</time></trkpt><trkpt lat="43.5264214" lon="10.731396"><ele>149.0</ele><time>2026-04-04T08:35:20.042Z</time></trkpt><trkpt lat="43.5263355" lon="10.731502"><ele>149.0</ele><time>2026-04-04T08:35:21.051Z</time></trkpt><trkpt lat="43.5262531" lon="10.7315735"><ele>149.0</ele><time>2026-04-04T08:35:22.043Z</time></trkpt><trkpt lat="43.5261668" lon="10.731619"><ele>149.0</ele><time>2026-04-04T08:35:23.037Z</time></trkpt><trkpt lat="43.5260704" lon="10.7316434"><ele>149.2</ele><time>2026-04-04T08:35:24.059Z</time></trkpt><trkpt lat="43.5259754" lon="10.7316403"><ele>149.4</ele><time>2026-04-04T08:35:25.042Z</time></trkpt><trkpt lat="43.5258842" lon="10.7316101"><ele>149.6</ele><time>2026-04-04T08:35:26.047Z</time></trkpt><trkpt lat="43.5257971" lon="10.7315645"><ele>149.8</ele><time>2026-04-04T08:35:27.044Z</time></trkpt><trkpt lat="43.5257055" lon="10.7314933"><ele>150.0</ele><time>2026-04-04T08:35:28.052Z</time></trkpt><trkpt lat="43.5256033" lon="10.7314291"><ele>150.0</ele><time>2026-04-04T08:35:29.046Z</time></trkpt><trkpt lat="43.5255045" lon="10.7313858"><ele>150.0</ele><time>2026-04-04T08:35:30.056Z</time></trkpt><trkpt lat="43.5254129" lon="10.7313779"><ele>150.0</ele><time>2026-04-04T08:35:31.046Z</time></trkpt><trkpt lat="43.5253294" lon="10.7314182"><ele>150.0</ele><time>2026-04-04T08:35:32.049Z</time></trkpt><trkpt lat="43.5252611" lon="10.7315143"><ele>150.0</ele><time>2026-04-04T08:35:33.053Z</time></trkpt><trkpt lat="43.5251989" lon="10.731656"><ele>149.0</ele><time>2026-04-04T08:35:34.047Z</time></trkpt><trkpt lat="43.5251279" lon="10.7318347"><ele>148.0</ele><time>2026-04-04T08:35:35.045Z</time></trkpt><trkpt lat="43.5250472" lon="10.73204"><ele>147.0</ele><time>2026-04-04T08:35:36.051Z</time></trkpt><trkpt lat="43.5249536" lon="10.7322611"><ele>144.0</ele><time>2026-04-04T08:35:37.048Z</time></trkpt><trkpt lat="43.5248635" lon="10.73249"><ele>141.0</ele><time>2026-04-04T08:35:38.05Z</time></trkpt><trkpt lat="43.5247946" lon="10.7327287"><ele>138.0</ele><time>2026-04-04T08:35:39.047Z</time></trkpt><trkpt lat="43.5247517" lon="10.7329655"><ele>135.66666666666666</ele><time>2026-04-04T08:35:40.039Z</time></trkpt><trkpt lat="43.5247254" lon="10.7331962"><ele>133.33333333333331</ele><time>2026-04-04T08:35:41.043Z</time></trkpt><trkpt lat="43.5247058" lon="10.7334177"><ele>131.0</ele><time>2026-04-04T08:35:42.05Z</time></trkpt><trkpt lat="43.5246833" lon="10.7336324"><ele>130.75</ele><time>2026-04-04T08:35:43.037Z</time></trkpt><trkpt lat="43.5246599" lon="10.7338302"><ele>130.5</ele><time>2026-04-04T08:35:44.048Z</time></trkpt><trkpt lat="43.5246335" lon="10.734018"><ele>130.25</ele><time>2026-04-04T08:35:45.044Z</time></trkpt><trkpt lat="43.5246022" lon="10.734198"><ele>130.0</ele><time>2026-04-04T08:35:46.057Z</time></trkpt><trkpt lat="43.5245583" lon="10.7343766"><ele>133.0</ele><time>2026-04-04T08:35:47.037Z</time></trkpt><trkpt lat="43.5244926" lon="10.7345582"><ele>136.0</ele><time>2026-04-04T08:35:48.059Z</time></trkpt><trkpt lat="43.524404" lon="10.7347374"><ele>139.0</ele><time>2026-04-04T08:35:49.044Z</time></trkpt><trkpt lat="43.5243053" lon="10.7349225"><ele>139.0</ele><time>2026-04-04T08:35:50.042Z</time></trkpt><trkpt lat="43.5242105" lon="10.7351123"><ele>139.0</ele><time>2026-04-04T08:35:51.044Z</time></trkpt><trkpt lat="43.524123" lon="10.7352881"><ele>139.0</ele><time>2026-04-04T08:35:52.033Z</time></trkpt><trkpt lat="43.5240369" lon="10.7354538"><ele>140.5</ele><time>2026-04-04T08:35:53.049Z</time></trkpt><trkpt lat="43.523936" lon="10.7356096"><ele>142.0</ele><time>2026-04-04T08:35:54.048Z</time></trkpt><trkpt lat="43.5238262" lon="10.7357479"><ele>143.5</ele><time>2026-04-04T08:35:55.036Z</time></trkpt><trkpt lat="43.5237121" lon="10.7358676"><ele>145.0</ele><time>2026-04-04T08:35:56.049Z</time></trkpt><trkpt lat="43.5235971" lon="10.7359828"><ele>138.66666666666669</ele><time>2026-04-04T08:35:57.047Z</time></trkpt><trkpt lat="43.5234809" lon="10.7360999"><ele>132.33333333333334</ele><time>2026-04-04T08:35:58.068Z</time></trkpt><trkpt lat="43.5233571" lon="10.7362221"><ele>126.0</ele><time>2026-04-04T08:35:59.058Z</time></trkpt><trkpt lat="43.523225" lon="10.7363403"><ele>126.0</ele><time>2026-04-04T08:36:00.045Z</time></trkpt><trkpt lat="43.5230875" lon="10.7364455"><ele>126.0</ele><time>2026-04-04T08:36:01.036Z</time></trkpt><trkpt lat="43.522941" lon="10.7365329"><ele>126.0</ele><time>2026-04-04T08:36:02.046Z</time></trkpt><trkpt lat="43.5227933" lon="10.7365888"><ele>129.75</ele><time>2026-04-04T08:36:03.046Z</time></trkpt><trkpt lat="43.5226462" lon="10.7366331"><ele>133.5</ele><time>2026-04-04T08:36:04.059Z</time></trkpt><trkpt lat="43.5225099" lon="10.7366791"><ele>137.25</ele><time>2026-04-04T08:36:05.038Z</time></trkpt><trkpt lat="43.5223881" lon="10.736752"><ele>141.0</ele><time>2026-04-04T08:36:06.047Z</time></trkpt><trkpt lat="43.5222794" lon="10.7368442"><ele>141.25</ele><time>2026-04-04T08:36:07.033Z</time></trkpt><trkpt lat="43.5221911" lon="10.7369673"><ele>141.5</ele><time>2026-04-04T08:36:08.04Z</time></trkpt><trkpt lat="43.5221338" lon="10.7371209"><ele>141.75</ele><time>2026-04-04T08:36:09.041Z</time></trkpt><trkpt lat="43.5220986" lon="10.7372838"><ele>142.0</ele><time>2026-04-04T08:36:10.041Z</time></trkpt><trkpt lat="43.5220629" lon="10.7374452"><ele>142.0</ele><time>2026-04-04T08:36:11.042Z</time></trkpt><trkpt lat="43.5220205" lon="10.7375969"><ele>142.0</ele><time>2026-04-04T08:36:12.055Z</time></trkpt><trkpt lat="43.5219686" lon="10.7377348"><ele>142.0</ele><time>2026-04-04T08:36:13.048Z</time></trkpt><trkpt lat="43.5219031" lon="10.7378474"><ele>142.0</ele><time>2026-04-04T08:36:14.051Z</time></trkpt><trkpt lat="43.52183" lon="10.7379459"><ele>142.0</ele><time>2026-04-04T08:36:15.044Z</time></trkpt><trkpt lat="43.5217534" lon="10.7380229"><ele>142.4</ele><time>2026-04-04T08:36:16.049Z</time></trkpt><trkpt lat="43.5216703" lon="10.7380924"><ele>142.79999999999998</ele><time>2026-04-04T08:36:17.043Z</time></trkpt><trkpt lat="43.5215924" lon="10.7381683"><ele>143.2</ele><time>2026-04-04T08:36:18.053Z</time></trkpt><trkpt lat="43.5215288" lon="10.738262"><ele>143.6</ele><time>2026-04-04T08:36:19.041Z</time></trkpt><trkpt lat="43.5214914" lon="10.7383706"><ele>144.0</ele><time>2026-04-04T08:36:20.038Z</time></trkpt><trkpt lat="43.5214826" lon="10.7384987"><ele>144.0</ele><time>2026-04-04T08:36:21.04Z</time></trkpt><trkpt lat="43.5214971" lon="10.738647"><ele>144.0</ele><time>2026-04-04T08:36:22.043Z</time></trkpt><trkpt lat="43.5215367" lon="10.7388165"><ele>144.0</ele><time>2026-04-04T08:36:23.039Z</time></trkpt><trkpt lat="43.5215813" lon="10.7390224"><ele>144.0</ele><time>2026-04-04T08:36:24.046Z</time></trkpt><trkpt lat="43.521621" lon="10.7392504"><ele>143.0</ele><time>2026-04-04T08:36:25.053Z</time></trkpt><trkpt lat="43.521647" lon="10.7394784"><ele>142.0</ele><time>2026-04-04T08:36:26.05Z</time></trkpt><trkpt lat="43.5216708" lon="10.7396897"><ele>141.0</ele><time>2026-04-04T08:36:27.043Z</time></trkpt><trkpt lat="43.5216951" lon="10.7398745"><ele>141.0</ele><time>2026-04-04T08:36:28.058Z</time></trkpt><trkpt lat="43.5217132" lon="10.7400505"><ele>141.0</ele><time>2026-04-04T08:36:29.059Z</time></trkpt><trkpt lat="43.52172" lon="10.7402188"><ele>141.0</ele><time>2026-04-04T08:36:30.041Z</time></trkpt><trkpt lat="43.52171" lon="10.7403944"><ele>141.0</ele><time>2026-04-04T08:36:31.049Z</time></trkpt><trkpt lat="43.5216832" lon="10.7405566"><ele>141.25</ele><time>2026-04-04T08:36:32.05Z</time></trkpt><trkpt lat="43.5216396" lon="10.7407094"><ele>141.5</ele><time>2026-04-04T08:36:33.043Z</time></trkpt><trkpt lat="43.5216113" lon="10.7408634"><ele>141.75</ele><time>2026-04-04T08:36:34.055Z</time></trkpt><trkpt lat="43.5215956" lon="10.741026"><ele>142.0</ele><time>2026-04-04T08:36:35.041Z</time></trkpt><trkpt lat="43.5216121" lon="10.7412019"><ele>141.0</ele><time>2026-04-04T08:36:36.048Z</time></trkpt><trkpt lat="43.5216511" lon="10.7413751"><ele>140.0</ele><time>2026-04-04T08:36:37.038Z</time></trkpt><trkpt lat="43.5216907" lon="10.7415529"><ele>139.0</ele><time>2026-04-04T08:36:38.042Z</time></trkpt><trkpt lat="43.5217328" lon="10.7417361"><ele>138.0</ele><time>2026-04-04T08:36:39.045Z</time></trkpt><trkpt lat="43.5217708" lon="10.7419242"><ele>132.33333333333334</ele><time>2026-04-04T08:36:40.049Z</time></trkpt><trkpt lat="43.5218081" lon="10.7421192"><ele>126.66666666666667</ele><time>2026-04-04T08:36:41.035Z</time></trkpt><trkpt lat="43.5218467" lon="10.7423182"><ele>121.0</ele><time>2026-04-04T08:36:42.038Z</time></trkpt><trkpt lat="43.5218972" lon="10.7425203"><ele>123.66666666666667</ele><time>2026-04-04T08:36:43.054Z</time></trkpt><trkpt lat="43.5219536" lon="10.7427235"><ele>126.33333333333334</ele><time>2026-04-04T08:36:44.051Z</time></trkpt><trkpt lat="43.5220186" lon="10.7429173"><ele>129.0</ele><time>2026-04-04T08:36:45.045Z</time></trkpt><trkpt lat="43.5220918" lon="10.7431026"><ele>129.0</ele><time>2026-04-04T08:36:46.045Z</time></trkpt><trkpt lat="43.5221719" lon="10.7432836"><ele>129.0</ele><time>2026-04-04T08:36:47.032Z</time></trkpt><trkpt lat="43.5222514" lon="10.7434518"><ele>129.0</ele><time>2026-04-04T08:36:48.068Z</time></trkpt><trkpt lat="43.5223236" lon="10.7436177"><ele>129.0</ele><time>2026-04-04T08:36:49.056Z</time></trkpt><trkpt lat="43.5223804" lon="10.743787"><ele>126.75</ele><time>2026-04-04T08:36:50.042Z</time></trkpt><trkpt lat="43.5224155" lon="10.7439582"><ele>124.5</ele><time>2026-04-04T08:36:51.041Z</time></trkpt><trkpt lat="43.5224313" lon="10.7441434"><ele>122.25</ele><time>2026-04-04T08:36:52.041Z</time></trkpt><trkpt lat="43.522423" lon="10.7443408"><ele>120.0</ele><time>2026-04-04T08:36:53.053Z</time></trkpt><trkpt lat="43.5224034" lon="10.7445339"><ele>118.0</ele><time>2026-04-04T08:36:54.041Z</time></trkpt><trkpt lat="43.5223694" lon="10.7447351"><ele>116.0</ele><time>2026-04-04T08:36:55.051Z</time></trkpt><trkpt lat="43.5223267" lon="10.7449456"><ele>114.0</ele><time>2026-04-04T08:36:56.056Z</time></trkpt><trkpt lat="43.5222851" lon="10.7451586"><ele>112.66666666666666</ele><time>2026-04-04T08:36:57.05Z</time></trkpt><trkpt lat="43.5222453" lon="10.7453756"><ele>111.33333333333333</ele><time>2026-04-04T08:36:58.047Z</time></trkpt><trkpt lat="43.5222023" lon="10.745594"><ele>110.0</ele><time>2026-04-04T08:36:59.043Z</time></trkpt><trkpt lat="43.5221591" lon="10.7458141"><ele>110.0</ele><time>2026-04-04T08:37:00.05Z</time></trkpt><trkpt lat="43.5221161" lon="10.7460344"><ele>110.0</ele><time>2026-04-04T08:37:01.044Z</time></trkpt><trkpt lat="43.5220737" lon="10.7462535"><ele>110.0</ele><time>2026-04-04T08:37:02.032Z</time></trkpt><trkpt lat="43.5220326" lon="10.7464532"><ele>110.75</ele><time>2026-04-04T08:37:03.05Z</time></trkpt><trkpt lat="43.5219981" lon="10.7466313"><ele>111.5</ele><time>2026-04-04T08:37:04.049Z</time></trkpt><trkpt lat="43.5219646" lon="10.746793"><ele>112.25</ele><time>2026-04-04T08:37:05.048Z</time></trkpt><trkpt lat="43.5219306" lon="10.7469472"><ele>113.0</ele><time>2026-04-04T08:37:06.044Z</time></trkpt><trkpt lat="43.5218922" lon="10.7470956"><ele>114.2</ele><time>2026-04-04T08:37:07.046Z</time></trkpt><trkpt lat="43.5218308" lon="10.7472216"><ele>115.4</ele><time>2026-04-04T08:37:08.047Z</time></trkpt><trkpt lat="43.5217505" lon="10.7472983"><ele>116.60000000000001</ele><time>2026-04-04T08:37:09.049Z</time></trkpt><trkpt lat="43.5216698" lon="10.7473271"><ele>117.80000000000001</ele><time>2026-04-04T08:37:10.035Z</time></trkpt><trkpt lat="43.5215875" lon="10.7473181"><ele>119.0</ele><time>2026-04-04T08:37:11.043Z</time></trkpt><trkpt lat="43.5214983" lon="10.7472783"><ele>119.0</ele><time>2026-04-04T08:37:12.04Z</time></trkpt><trkpt lat="43.5214033" lon="10.7472059"><ele>119.0</ele><time>2026-04-04T08:37:13.044Z</time></trkpt><trkpt lat="43.5212993" lon="10.7471049"><ele>119.0</ele><time>2026-04-04T08:37:14.039Z</time></trkpt><trkpt lat="43.5211849" lon="10.7469856"><ele>119.0</ele><time>2026-04-04T08:37:15.032Z</time></trkpt><trkpt lat="43.5210628" lon="10.7468528"><ele>121.0</ele><time>2026-04-04T08:37:16.051Z</time></trkpt><trkpt lat="43.5209322" lon="10.7467111"><ele>123.0</ele><time>2026-04-04T08:37:17.038Z</time></trkpt><trkpt lat="43.5207983" lon="10.7465707"><ele>125.0</ele><time>2026-04-04T08:37:18.04Z</time></trkpt><trkpt lat="43.5206669" lon="10.7464355"><ele>125.0</ele><time>2026-04-04T08:37:19.043Z</time></trkpt><trkpt lat="43.5205368" lon="10.7463084"><ele>125.0</ele><time>2026-04-04T08:37:20.048Z</time></trkpt><trkpt lat="43.5204114" lon="10.7461901"><ele>125.0</ele><time>2026-04-04T08:37:21.033Z</time></trkpt><trkpt lat="43.5202837" lon="10.7460817"><ele>125.5</ele><time>2026-04-04T08:37:22.037Z</time></trkpt><trkpt lat="43.5201546" lon="10.745987"><ele>126.0</ele><time>2026-04-04T08:37:23.035Z</time></trkpt><trkpt lat="43.5200307" lon="10.7459034"><ele>126.5</ele><time>2026-04-04T08:37:24.059Z</time></trkpt><trkpt lat="43.5198945" lon="10.7458382"><ele>127.0</ele><time>2026-04-04T08:37:25.038Z</time></trkpt><trkpt lat="43.519752" lon="10.7457821"><ele>127.0</ele><time>2026-04-04T08:37:26.038Z</time></trkpt><trkpt lat="43.5196217" lon="10.7457411"><ele>127.0</ele><time>2026-04-04T08:37:27.049Z</time></trkpt><trkpt lat="43.5195021" lon="10.7456954"><ele>127.0</ele><time>2026-04-04T08:37:28.05Z</time></trkpt><trkpt lat="43.5193884" lon="10.74565"><ele>127.0</ele><time>2026-04-04T08:37:29.039Z</time></trkpt><trkpt lat="43.5192889" lon="10.7456147"><ele>128.2</ele><time>2026-04-04T08:37:30.024Z</time></trkpt><trkpt lat="43.5191949" lon="10.7456008"><ele>129.39999999999998</ele><time>2026-04-04T08:37:31.037Z</time></trkpt><trkpt lat="43.5191125" lon="10.7456283"><ele>130.60000000000002</ele><time>2026-04-04T08:37:32.04Z</time></trkpt><trkpt lat="43.5190474" lon="10.7456945"><ele>131.8</ele><time>2026-04-04T08:37:33.039Z</time></trkpt><trkpt lat="43.5189994" lon="10.7457988"><ele>133.0</ele><time>2026-04-04T08:37:34.039Z</time></trkpt><trkpt lat="43.5189803" lon="10.7459371"><ele>133.5</ele><time>2026-04-04T08:37:35.047Z</time></trkpt><trkpt lat="43.5189795" lon="10.7460845"><ele>134.0</ele><time>2026-04-04T08:37:36.038Z</time></trkpt><trkpt lat="43.5189822" lon="10.7462609"><ele>134.5</ele><time>2026-04-04T08:37:37.036Z</time></trkpt><trkpt lat="43.5189696" lon="10.746466"><ele>135.0</ele><time>2026-04-04T08:37:38.054Z</time></trkpt><trkpt lat="43.5189453" lon="10.7466865"><ele>134.33333333333334</ele><time>2026-04-04T08:37:39.049Z</time></trkpt><trkpt lat="43.5189033" lon="10.7469292"><ele>133.66666666666669</ele><time>2026-04-04T08:37:40.05Z</time></trkpt><trkpt lat="43.5188466" lon="10.7471745"><ele>133.0</ele><time>2026-04-04T08:37:41.058Z</time></trkpt><trkpt lat="43.5187847" lon="10.7474259"><ele>131.33333333333334</ele><time>2026-04-04T08:37:42.063Z</time></trkpt><trkpt lat="43.5187196" lon="10.7476814"><ele>129.66666666666666</ele><time>2026-04-04T08:37:43.035Z</time></trkpt><trkpt lat="43.5186542" lon="10.7479367"><ele>128.0</ele><time>2026-04-04T08:37:44.052Z</time></trkpt><trkpt lat="43.51859" lon="10.7481895"><ele>128.0</ele><time>2026-04-04T08:37:45.031Z</time></trkpt><trkpt lat="43.5185259" lon="10.7484335"><ele>128.0</ele><time>2026-04-04T08:37:46.055Z</time></trkpt><trkpt lat="43.5184647" lon="10.7486675"><ele>128.0</ele><time>2026-04-04T08:37:47.039Z</time></trkpt><trkpt lat="43.5184084" lon="10.7488887"><ele>128.66666666666666</ele><time>2026-04-04T08:37:48.042Z</time></trkpt><trkpt lat="43.5183568" lon="10.7491001"><ele>129.33333333333334</ele><time>2026-04-04T08:37:49.06Z</time></trkpt><trkpt lat="43.5183081" lon="10.7493085"><ele>130.0</ele><time>2026-04-04T08:37:50.054Z</time></trkpt><trkpt lat="43.5182571" lon="10.7495171"><ele>130.33333333333334</ele><time>2026-04-04T08:37:51.042Z</time></trkpt><trkpt lat="43.5182083" lon="10.7497293"><ele>130.66666666666666</ele><time>2026-04-04T08:37:52.049Z</time></trkpt><trkpt lat="43.5181575" lon="10.7499473"><ele>131.0</ele><time>2026-04-04T08:37:53.044Z</time></trkpt><trkpt lat="43.5181021" lon="10.7501667"><ele>130.33333333333331</ele><time>2026-04-04T08:37:54.06Z</time></trkpt><trkpt lat="43.5180468" lon="10.7503872"><ele>129.66666666666666</ele><time>2026-04-04T08:37:55.058Z</time></trkpt><trkpt lat="43.5179916" lon="10.7506076"><ele>129.0</ele><time>2026-04-04T08:37:56.055Z</time></trkpt><trkpt lat="43.5179401" lon="10.7508295"><ele>129.0</ele><time>2026-04-04T08:37:57.053Z</time></trkpt><trkpt lat="43.5179021" lon="10.7510613"><ele>129.0</ele><time>2026-04-04T08:37:58.04Z</time></trkpt><trkpt lat="43.5178716" lon="10.7512919"><ele>129.0</ele><time>2026-04-04T08:37:59.05Z</time></trkpt><trkpt lat="43.5178501" lon="10.7515223"><ele>129.0</ele><time>2026-04-04T08:38:00.067Z</time></trkpt><trkpt lat="43.5178426" lon="10.7517524"><ele>129.0</ele><time>2026-04-04T08:38:01.049Z</time></trkpt><trkpt lat="43.5178474" lon="10.7519791"><ele>129.0</ele><time>2026-04-04T08:38:02.055Z</time></trkpt><trkpt lat="43.517854" lon="10.7522046"><ele>129.0</ele><time>2026-04-04T08:38:03.066Z</time></trkpt><trkpt lat="43.5178564" lon="10.7524206"><ele>129.0</ele><time>2026-04-04T08:38:04.063Z</time></trkpt><trkpt lat="43.517847" lon="10.7526256"><ele>129.0</ele><time>2026-04-04T08:38:05.043Z</time></trkpt><trkpt lat="43.5178308" lon="10.7528226"><ele>129.0</ele><time>2026-04-04T08:38:06.056Z</time></trkpt><trkpt lat="43.5178091" lon="10.7530181"><ele>129.25</ele><time>2026-04-04T08:38:07.041Z</time></trkpt><trkpt lat="43.5177843" lon="10.7532142"><ele>129.5</ele><time>2026-04-04T08:38:08.052Z</time></trkpt><trkpt lat="43.5177561" lon="10.7534039"><ele>129.75</ele><time>2026-04-04T08:38:09.051Z</time></trkpt><trkpt lat="43.5177084" lon="10.7535799"><ele>130.0</ele><time>2026-04-04T08:38:10.047Z</time></trkpt><trkpt lat="43.5176481" lon="10.7537396"><ele>131.75</ele><time>2026-04-04T08:38:11.042Z</time></trkpt><trkpt lat="43.5175719" lon="10.7538937"><ele>133.5</ele><time>2026-04-04T08:38:12.057Z</time></trkpt><trkpt lat="43.5174735" lon="10.7540473"><ele>135.25</ele><time>2026-04-04T08:38:13.055Z</time></trkpt><trkpt lat="43.5173617" lon="10.7541913"><ele>137.0</ele><time>2026-04-04T08:38:14.04Z</time></trkpt><trkpt lat="43.5172412" lon="10.7543297"><ele>138.0</ele><time>2026-04-04T08:38:15.048Z</time></trkpt><trkpt lat="43.5171237" lon="10.7544672"><ele>139.0</ele><time>2026-04-04T08:38:16.038Z</time></trkpt><trkpt lat="43.5170061" lon="10.754592"><ele>140.0</ele><time>2026-04-04T08:38:17.063Z</time></trkpt><trkpt lat="43.5168898" lon="10.7547128"><ele>141.0</ele><time>2026-04-04T08:38:18.052Z</time></trkpt><trkpt lat="43.5167815" lon="10.7548321"><ele>141.0</ele><time>2026-04-04T08:38:19.049Z</time></trkpt><trkpt lat="43.5166851" lon="10.7549445"><ele>141.0</ele><time>2026-04-04T08:38:20.048Z</time></trkpt><trkpt lat="43.5165925" lon="10.7550489"><ele>141.0</ele><time>2026-04-04T08:38:21.05Z</time></trkpt><trkpt lat="43.516499" lon="10.7551578"><ele>141.0</ele><time>2026-04-04T08:38:22.057Z</time></trkpt><trkpt lat="43.5163946" lon="10.7552592"><ele>140.0</ele><time>2026-04-04T08:38:23.054Z</time></trkpt><trkpt lat="43.5162808" lon="10.7553551"><ele>139.0</ele><time>2026-04-04T08:38:24.038Z</time></trkpt><trkpt lat="43.5161493" lon="10.7554328"><ele>138.0</ele><time>2026-04-04T08:38:25.043Z</time></trkpt><trkpt lat="43.516003" lon="10.7554807"><ele>137.0</ele><time>2026-04-04T08:38:26.052Z</time></trkpt><trkpt lat="43.5158434" lon="10.7554905"><ele>136.33333333333331</ele><time>2026-04-04T08:38:27.051Z</time></trkpt><trkpt lat="43.5156776" lon="10.7554851"><ele>135.66666666666666</ele><time>2026-04-04T08:38:28.034Z</time></trkpt><trkpt lat="43.515507" lon="10.755498"><ele>135.0</ele><time>2026-04-04T08:38:29.055Z</time></trkpt><trkpt lat="43.5153481" lon="10.7555213"><ele>137.25</ele><time>2026-04-04T08:38:30.037Z</time></trkpt><trkpt lat="43.5151957" lon="10.7555637"><ele>139.5</ele><time>2026-04-04T08:38:31.043Z</time></trkpt><trkpt lat="43.5150527" lon="10.7555929"><ele>141.75</ele><time>2026-04-04T08:38:32.052Z</time></trkpt><trkpt lat="43.5149127" lon="10.755615"><ele>144.0</ele><time>2026-04-04T08:38:33.041Z</time></trkpt><trkpt lat="43.5147759" lon="10.7556318"><ele>144.0</ele><time>2026-04-04T08:38:34.046Z</time></trkpt><trkpt lat="43.5146491" lon="10.7556382"><ele>144.0</ele><time>2026-04-04T08:38:35.05Z</time></trkpt><trkpt lat="43.5145235" lon="10.7556277"><ele>144.0</ele><time>2026-04-04T08:38:36.047Z</time></trkpt><trkpt lat="43.5144046" lon="10.7555929"><ele>144.0</ele><time>2026-04-04T08:38:37.033Z</time></trkpt><trkpt lat="43.514292" lon="10.755548"><ele>145.5</ele><time>2026-04-04T08:38:38.037Z</time></trkpt><trkpt lat="43.5141873" lon="10.7554996"><ele>147.0</ele><time>2026-04-04T08:38:39.032Z</time></trkpt><trkpt lat="43.5140767" lon="10.7554593"><ele>148.5</ele><time>2026-04-04T08:38:40.043Z</time></trkpt><trkpt lat="43.5139581" lon="10.7554391"><ele>150.0</ele><time>2026-04-04T08:38:41.034Z</time></trkpt><trkpt lat="43.5138343" lon="10.7554554"><ele>147.5</ele><time>2026-04-04T08:38:42.044Z</time></trkpt><trkpt lat="43.5137134" lon="10.755509"><ele>145.0</ele><time>2026-04-04T08:38:43.04Z</time></trkpt><trkpt lat="43.5136057" lon="10.7555897"><ele>142.5</ele><time>2026-04-04T08:38:44.042Z</time></trkpt><trkpt lat="43.5135014" lon="10.7556904"><ele>140.0</ele><time>2026-04-04T08:38:45.042Z</time></trkpt><trkpt lat="43.5133946" lon="10.7557966"><ele>140.0</ele><time>2026-04-04T08:38:46.027Z</time></trkpt><trkpt lat="43.5132823" lon="10.7558918"><ele>140.0</ele><time>2026-04-04T08:38:47.029Z</time></trkpt><trkpt lat="43.5131609" lon="10.7559928"><ele>140.0</ele><time>2026-04-04T08:38:48.032Z</time></trkpt><trkpt lat="43.5130389" lon="10.7560779"><ele>140.0</ele><time>2026-04-04T08:38:49.038Z</time></trkpt><trkpt lat="43.5129122" lon="10.7561585"><ele>139.75</ele><time>2026-04-04T08:38:50.037Z</time></trkpt><trkpt lat="43.5127895" lon="10.7562245"><ele>139.5</ele><time>2026-04-04T08:38:51.042Z</time></trkpt><trkpt lat="43.5126644" lon="10.7562764"><ele>139.25</ele><time>2026-04-04T08:38:52.042Z</time></trkpt><trkpt lat="43.5125262" lon="10.7563293"><ele>139.0</ele><time>2026-04-04T08:38:53.031Z</time></trkpt><trkpt lat="43.5123807" lon="10.7563767"><ele>139.0</ele><time>2026-04-04T08:38:54.027Z</time></trkpt><trkpt lat="43.5122367" lon="10.7564346"><ele>139.0</ele><time>2026-04-04T08:38:55.028Z</time></trkpt><trkpt lat="43.5120876" lon="10.7564918"><ele>139.0</ele><time>2026-04-04T08:38:56.036Z</time></trkpt><trkpt lat="43.5119411" lon="10.7565517"><ele>139.5</ele><time>2026-04-04T08:38:57.037Z</time></trkpt><trkpt lat="43.5117959" lon="10.7566128"><ele>140.0</ele><time>2026-04-04T08:38:58.05Z</time></trkpt><trkpt lat="43.5116555" lon="10.7566791"><ele>140.5</ele><time>2026-04-04T08:38:59.034Z</time></trkpt><trkpt lat="43.5115211" lon="10.7567411"><ele>141.0</ele><time>2026-04-04T08:39:00.053Z</time></trkpt><trkpt lat="43.5113964" lon="10.7567894"><ele>141.0</ele><time>2026-04-04T08:39:01.048Z</time></trkpt><trkpt lat="43.5112658" lon="10.756846"><ele>141.0</ele><time>2026-04-04T08:39:02.041Z</time></trkpt><trkpt lat="43.5111297" lon="10.7569059"><ele>141.0</ele><time>2026-04-04T08:39:03.042Z</time></trkpt><trkpt lat="43.5109889" lon="10.7569641"><ele>141.0</ele><time>2026-04-04T08:39:04.044Z</time></trkpt><trkpt lat="43.5108447" lon="10.7570156"><ele>140.5</ele><time>2026-04-04T08:39:05.032Z</time></trkpt><trkpt lat="43.5107024" lon="10.7570509"><ele>140.0</ele><time>2026-04-04T08:39:06.051Z</time></trkpt><trkpt lat="43.5105616" lon="10.7570687"><ele>139.5</ele><time>2026-04-04T08:39:07.04Z</time></trkpt><trkpt lat="43.5104238" lon="10.7570882"><ele>139.0</ele><time>2026-04-04T08:39:08.037Z</time></trkpt><trkpt lat="43.510292" lon="10.757121"><ele>141.25</ele><time>2026-04-04T08:39:09.04Z</time></trkpt><trkpt lat="43.5101655" lon="10.7571618"><ele>143.5</ele><time>2026-04-04T08:39:10.032Z</time></trkpt><trkpt lat="43.5100375" lon="10.7572129"><ele>145.75</ele><time>2026-04-04T08:39:11.044Z</time></trkpt><trkpt lat="43.5099037" lon="10.7572755"><ele>148.0</ele><time>2026-04-04T08:39:12.03Z</time></trkpt><trkpt lat="43.5097705" lon="10.7573319"><ele>148.0</ele><time>2026-04-04T08:39:13.032Z</time></trkpt><trkpt lat="43.5096412" lon="10.7573805"><ele>148.0</ele><time>2026-04-04T08:39:14.024Z</time></trkpt><trkpt lat="43.5095216" lon="10.7574203"><ele>148.0</ele><time>2026-04-04T08:39:15.037Z</time></trkpt><trkpt lat="43.5094151" lon="10.7574432"><ele>148.0</ele><time>2026-04-04T08:39:16.039Z</time></trkpt><trkpt lat="43.509318" lon="10.7574385"><ele>150.25</ele><time>2026-04-04T08:39:17.039Z</time></trkpt><trkpt lat="43.5092277" lon="10.7574062"><ele>152.5</ele><time>2026-04-04T08:39:18.025Z</time></trkpt><trkpt lat="43.5091237" lon="10.7573616"><ele>154.75</ele><time>2026-04-04T08:39:19.035Z</time></trkpt><trkpt lat="43.5090034" lon="10.7573026"><ele>157.0</ele><time>2026-04-04T08:39:20.059Z</time></trkpt><trkpt lat="43.5088782" lon="10.7572257"><ele>157.0</ele><time>2026-04-04T08:39:21.035Z</time></trkpt><trkpt lat="43.5087546" lon="10.7571469"><ele>157.0</ele><time>2026-04-04T08:39:22.057Z</time></trkpt><trkpt lat="43.5086249" lon="10.7570541"><ele>157.0</ele><time>2026-04-04T08:39:23.043Z</time></trkpt><trkpt lat="43.5084886" lon="10.7569622"><ele>157.0</ele><time>2026-04-04T08:39:24.052Z</time></trkpt><trkpt lat="43.5083447" lon="10.7568663"><ele>157.33333333333334</ele><time>2026-04-04T08:39:25.045Z</time></trkpt><trkpt lat="43.5081934" lon="10.7567672"><ele>157.66666666666666</ele><time>2026-04-04T08:39:26.044Z</time></trkpt><trkpt lat="43.5080345" lon="10.7566816"><ele>158.0</ele><time>2026-04-04T08:39:27.041Z</time></trkpt><trkpt lat="43.5078729" lon="10.7565932"><ele>160.0</ele><time>2026-04-04T08:39:28.064Z</time></trkpt><trkpt lat="43.5077151" lon="10.7564845"><ele>162.0</ele><time>2026-04-04T08:39:29.048Z</time></trkpt><trkpt lat="43.5075576" lon="10.7563779"><ele>164.0</ele><time>2026-04-04T08:39:30.029Z</time></trkpt><trkpt lat="43.5073989" lon="10.7562775"><ele>164.0</ele><time>2026-04-04T08:39:31.037Z</time></trkpt><trkpt lat="43.5072451" lon="10.7561869"><ele>164.0</ele><time>2026-04-04T08:39:32.027Z</time></trkpt><trkpt lat="43.5070978" lon="10.7560992"><ele>164.0</ele><time>2026-04-04T08:39:33.041Z</time></trkpt><trkpt lat="43.5069601" lon="10.7560154"><ele>164.0</ele><time>2026-04-04T08:39:34.035Z</time></trkpt><trkpt lat="43.5068368" lon="10.755934"><ele>164.0</ele><time>2026-04-04T08:39:35.047Z</time></trkpt><trkpt lat="43.5067197" lon="10.7558645"><ele>164.0</ele><time>2026-04-04T08:39:36.038Z</time></trkpt><trkpt lat="43.5066092" lon="10.7557945"><ele>164.0</ele><time>2026-04-04T08:39:37.041Z</time></trkpt><trkpt lat="43.5065055" lon="10.7557398"><ele>164.0</ele><time>2026-04-04T08:39:38.035Z</time></trkpt><trkpt lat="43.5064157" lon="10.7556984"><ele>164.0</ele><time>2026-04-04T08:39:39.04Z</time></trkpt><trkpt lat="43.5063431" lon="10.7556675"><ele>164.0</ele><time>2026-04-04T08:39:40.033Z</time></trkpt><trkpt lat="43.5062747" lon="10.7556566"><ele>164.0</ele><time>2026-04-04T08:39:41.035Z</time></trkpt><trkpt lat="43.506211" lon="10.7556566"><ele>164.0</ele><time>2026-04-04T08:39:42.033Z</time></trkpt><trkpt lat="43.5060864" lon="10.7556495"><ele>164.0</ele><time>2026-04-04T08:39:44.041Z</time></trkpt><trkpt lat="43.5060135" lon="10.7556269"><ele>164.2</ele><time>2026-04-04T08:39:45.047Z</time></trkpt><trkpt lat="43.5059416" lon="10.7555597"><ele>164.39999999999998</ele><time>2026-04-04T08:39:46.025Z</time></trkpt><trkpt lat="43.5058781" lon="10.7554553"><ele>164.6</ele><time>2026-04-04T08:39:47.021Z</time></trkpt><trkpt lat="43.5058154" lon="10.7553253"><ele>164.8</ele><time>2026-04-04T08:39:48.039Z</time></trkpt><trkpt lat="43.5057586" lon="10.7551763"><ele>165.0</ele><time>2026-04-04T08:39:49.035Z</time></trkpt><trkpt lat="43.5057033" lon="10.7550303"><ele>165.0</ele><time>2026-04-04T08:39:50.037Z</time></trkpt><trkpt lat="43.5056523" lon="10.7548936"><ele>165.0</ele><time>2026-04-04T08:39:51.034Z</time></trkpt><trkpt lat="43.5056064" lon="10.7547558"><ele>165.0</ele><time>2026-04-04T08:39:52.037Z</time></trkpt><trkpt lat="43.5055634" lon="10.7546193"><ele>165.0</ele><time>2026-04-04T08:39:53.029Z</time></trkpt><trkpt lat="43.5055188" lon="10.7544839"><ele>165.0</ele><time>2026-04-04T08:39:54.033Z</time></trkpt><trkpt lat="43.505467" lon="10.7543614"><ele>165.2</ele><time>2026-04-04T08:39:55.033Z</time></trkpt><trkpt lat="43.5054221" lon="10.7542515"><ele>165.4</ele><time>2026-04-04T08:39:56.029Z</time></trkpt><trkpt lat="43.5053912" lon="10.7541443"><ele>165.60000000000002</ele><time>2026-04-04T08:39:57.041Z</time></trkpt><trkpt lat="43.5053662" lon="10.7540408"><ele>165.8</ele><time>2026-04-04T08:39:58.048Z</time></trkpt><trkpt lat="43.5053467" lon="10.753925"><ele>166.0</ele><time>2026-04-04T08:40:00.037Z</time></trkpt><trkpt lat="43.5053255" lon="10.7537758"><ele>165.60000000000002</ele><time>2026-04-04T08:40:02.055Z</time></trkpt><trkpt lat="43.5053127" lon="10.7536689"><ele>165.2</ele><time>2026-04-04T08:40:03.031Z</time></trkpt><trkpt lat="43.5052934" lon="10.7535385"><ele>164.8</ele><time>2026-04-04T08:40:04.045Z</time></trkpt><trkpt lat="43.5052561" lon="10.7533941"><ele>164.39999999999998</ele><time>2026-04-04T08:40:05.038Z</time></trkpt><trkpt lat="43.5052124" lon="10.7532388"><ele>164.0</ele><time>2026-04-04T08:40:06.032Z</time></trkpt><trkpt lat="43.5051617" lon="10.7530884"><ele>164.0</ele><time>2026-04-04T08:40:07.029Z</time></trkpt><trkpt lat="43.5051071" lon="10.7529314"><ele>164.0</ele><time>2026-04-04T08:40:08.032Z</time></trkpt><trkpt lat="43.5050494" lon="10.7527759"><ele>164.0</ele><time>2026-04-04T08:40:09.042Z</time></trkpt><trkpt lat="43.5050008" lon="10.7526117"><ele>164.0</ele><time>2026-04-04T08:40:10.033Z</time></trkpt><trkpt lat="43.5049598" lon="10.7524431"><ele>164.25</ele><time>2026-04-04T08:40:11.051Z</time></trkpt><trkpt lat="43.5049312" lon="10.7522664"><ele>164.5</ele><time>2026-04-04T08:40:12.039Z</time></trkpt><trkpt lat="43.504911" lon="10.7520802"><ele>164.75</ele><time>2026-04-04T08:40:13.051Z</time></trkpt><trkpt lat="43.5048883" lon="10.7518996"><ele>165.0</ele><time>2026-04-04T08:40:14.062Z</time></trkpt><trkpt lat="43.5048692" lon="10.7517243"><ele>164.66666666666666</ele><time>2026-04-04T08:40:15.062Z</time></trkpt><trkpt lat="43.5048505" lon="10.7515739"><ele>164.33333333333334</ele><time>2026-04-04T08:40:16.036Z</time></trkpt><trkpt lat="43.5048349" lon="10.7514398"><ele>164.0</ele><time>2026-04-04T08:40:17.031Z</time></trkpt><trkpt lat="43.5048167" lon="10.7513286"><ele>163.66666666666669</ele><time>2026-04-04T08:40:18.048Z</time></trkpt><trkpt lat="43.5048004" lon="10.7512333"><ele>163.33333333333334</ele><time>2026-04-04T08:40:19.055Z</time></trkpt><trkpt lat="43.5047827" lon="10.7511375"><ele>163.0</ele><time>2026-04-04T08:40:20.061Z</time></trkpt><trkpt lat="43.5047694" lon="10.7510371"><ele>163.0</ele><time>2026-04-04T08:40:21.046Z</time></trkpt><trkpt lat="43.5047547" lon="10.7509132"><ele>163.0</ele><time>2026-04-04T08:40:22.062Z</time></trkpt><trkpt lat="43.50474" lon="10.750777"><ele>163.0</ele><time>2026-04-04T08:40:23.049Z</time></trkpt><trkpt lat="43.5047196" lon="10.7506298"><ele>163.0</ele><time>2026-04-04T08:40:24.039Z</time></trkpt><trkpt lat="43.5046957" lon="10.7504802"><ele>163.0</ele><time>2026-04-04T08:40:25.047Z</time></trkpt><trkpt lat="43.5046667" lon="10.7503201"><ele>162.25</ele><time>2026-04-04T08:40:26.028Z</time></trkpt><trkpt lat="43.5046398" lon="10.7501496"><ele>161.5</ele><time>2026-04-04T08:40:27.047Z</time></trkpt><trkpt lat="43.5046184" lon="10.7499683"><ele>160.75</ele><time>2026-04-04T08:40:28.035Z</time></trkpt><trkpt lat="43.5045985" lon="10.7497839"><ele>160.0</ele><time>2026-04-04T08:40:29.036Z</time></trkpt><trkpt lat="43.5045843" lon="10.7496075"><ele>162.25</ele><time>2026-04-04T08:40:30.047Z</time></trkpt><trkpt lat="43.5045686" lon="10.749439"><ele>164.5</ele><time>2026-04-04T08:40:31.045Z</time></trkpt><trkpt lat="43.5045443" lon="10.7492752"><ele>166.75</ele><time>2026-04-04T08:40:32.052Z</time></trkpt><trkpt lat="43.5045109" lon="10.7491207"><ele>169.0</ele><time>2026-04-04T08:40:33.049Z</time></trkpt><trkpt lat="43.504468" lon="10.7489786"><ele>169.0</ele><time>2026-04-04T08:40:34.05Z</time></trkpt><trkpt lat="43.504421" lon="10.7488509"><ele>169.0</ele><time>2026-04-04T08:40:35.021Z</time></trkpt><trkpt lat="43.5043634" lon="10.7487277"><ele>169.0</ele><time>2026-04-04T08:40:36.042Z</time></trkpt><trkpt lat="43.5043037" lon="10.7485999"><ele>169.0</ele><time>2026-04-04T08:40:37.042Z</time></trkpt><trkpt lat="43.5042468" lon="10.7484681"><ele>169.0</ele><time>2026-04-04T08:40:38.036Z</time></trkpt><trkpt lat="43.5041865" lon="10.7483299"><ele>166.5</ele><time>2026-04-04T08:40:39.045Z</time></trkpt><trkpt lat="43.5041272" lon="10.7481777"><ele>164.0</ele><time>2026-04-04T08:40:40.037Z</time></trkpt><trkpt lat="43.504074" lon="10.7480195"><ele>161.5</ele><time>2026-04-04T08:40:41.047Z</time></trkpt><trkpt lat="43.504032" lon="10.7478505"><ele>159.0</ele><time>2026-04-04T08:40:42.031Z</time></trkpt><trkpt lat="43.5039972" lon="10.7476818"><ele>156.8</ele><time>2026-04-04T08:40:43.04Z</time></trkpt><trkpt lat="43.5039622" lon="10.7475311"><ele>154.60000000000002</ele><time>2026-04-04T08:40:44.056Z</time></trkpt><trkpt lat="43.5039306" lon="10.7473943"><ele>152.4</ele><time>2026-04-04T08:40:45.042Z</time></trkpt><trkpt lat="43.5038901" lon="10.747276"><ele>150.20000000000002</ele><time>2026-04-04T08:40:46.052Z</time></trkpt><trkpt lat="43.5038274" lon="10.7471872"><ele>148.0</ele><time>2026-04-04T08:40:47.049Z</time></trkpt><trkpt lat="43.5037543" lon="10.7471172"><ele>149.5</ele><time>2026-04-04T08:40:48.029Z</time></trkpt><trkpt lat="43.5036754" lon="10.7470571"><ele>151.0</ele><time>2026-04-04T08:40:49.036Z</time></trkpt><trkpt lat="43.5036026" lon="10.7470104"><ele>152.5</ele><time>2026-04-04T08:40:50.038Z</time></trkpt><trkpt lat="43.5035282" lon="10.7469742"><ele>154.0</ele><time>2026-04-04T08:40:51.033Z</time></trkpt><trkpt lat="43.5034569" lon="10.7469518"><ele>155.5</ele><time>2026-04-04T08:40:52.034Z</time></trkpt><trkpt lat="43.5033539" lon="10.7469203"><ele>157.0</ele><time>2026-04-04T08:40:54.038Z</time></trkpt><trkpt lat="43.503255" lon="10.7468999"><ele>156.99999999999997</ele><time>2026-04-04T08:40:56.052Z</time></trkpt><trkpt lat="43.5031921" lon="10.7468956"><ele>157.0</ele><time>2026-04-04T08:40:57.033Z</time></trkpt><trkpt lat="43.5031215" lon="10.7468943"><ele>157.0</ele><time>2026-04-04T08:40:58.05Z</time></trkpt><trkpt lat="43.5030475" lon="10.7468928"><ele>157.0</ele><time>2026-04-04T08:40:59.039Z</time></trkpt><trkpt lat="43.5029683" lon="10.7468888"><ele>157.0</ele><time>2026-04-04T08:41:00.029Z</time></trkpt><trkpt lat="43.5028956" lon="10.7468828"><ele>156.99999999999997</ele><time>2026-04-04T08:41:01.044Z</time></trkpt><trkpt lat="43.5028281" lon="10.7468784"><ele>157.0</ele><time>2026-04-04T08:41:02.051Z</time></trkpt><trkpt lat="43.5027628" lon="10.7468729"><ele>153.0</ele><time>2026-04-04T08:41:03.043Z</time></trkpt><trkpt lat="43.5026434" lon="10.7468706"><ele>149.0</ele><time>2026-04-04T08:41:05.028Z</time></trkpt><trkpt lat="43.502523" lon="10.7468687"><ele>145.0</ele><time>2026-04-04T08:41:07.035Z</time></trkpt><trkpt lat="43.5024565" lon="10.7468629"><ele>141.0</ele><time>2026-04-04T08:41:08.048Z</time></trkpt><trkpt lat="43.5023774" lon="10.7468594"><ele>137.0</ele><time>2026-04-04T08:41:09.042Z</time></trkpt><trkpt lat="43.502284" lon="10.7468465"><ele>137.0</ele><time>2026-04-04T08:41:10.038Z</time></trkpt><trkpt lat="43.5021826" lon="10.7468362"><ele>137.0</ele><time>2026-04-04T08:41:11.025Z</time></trkpt><trkpt lat="43.5020814" lon="10.7468363"><ele>137.0</ele><time>2026-04-04T08:41:12.041Z</time></trkpt><trkpt lat="43.5019792" lon="10.7468574"><ele>137.0</ele><time>2026-04-04T08:41:13.031Z</time></trkpt><trkpt lat="43.5018758" lon="10.7469069"><ele>137.0</ele><time>2026-04-04T08:41:14.045Z</time></trkpt><trkpt lat="43.5017825" lon="10.7469859"><ele>138.25</ele><time>2026-04-04T08:41:15.036Z</time></trkpt><trkpt lat="43.5016988" lon="10.7470979"><ele>139.5</ele><time>2026-04-04T08:41:16.042Z</time></trkpt><trkpt lat="43.5016095" lon="10.7472244"><ele>140.75</ele><time>2026-04-04T08:41:17.035Z</time></trkpt><trkpt lat="43.5015234" lon="10.7473536"><ele>142.0</ele><time>2026-04-04T08:41:18.036Z</time></trkpt><trkpt lat="43.5014284" lon="10.7474733"><ele>142.0</ele><time>2026-04-04T08:41:19.037Z</time></trkpt><trkpt lat="43.5013302" lon="10.7475887"><ele>142.0</ele><time>2026-04-04T08:41:20.032Z</time></trkpt><trkpt lat="43.5012355" lon="10.7476965"><ele>142.0</ele><time>2026-04-04T08:41:21.034Z</time></trkpt><trkpt lat="43.5011637" lon="10.7478115"><ele>142.0</ele><time>2026-04-04T08:41:22.03Z</time></trkpt><trkpt lat="43.5011152" lon="10.7479329"><ele>138.83333333333334</ele><time>2026-04-04T08:41:23.031Z</time></trkpt><trkpt lat="43.5011015" lon="10.7480685"><ele>135.66666666666669</ele><time>2026-04-04T08:41:24.04Z</time></trkpt><trkpt lat="43.5011055" lon="10.7481931"><ele>132.5</ele><time>2026-04-04T08:41:25.041Z</time></trkpt><trkpt lat="43.5010779" lon="10.7482881"><ele>129.33333333333334</ele><time>2026-04-04T08:41:26.04Z</time></trkpt><trkpt lat="43.5010144" lon="10.748352"><ele>126.16666666666667</ele><time>2026-04-04T08:41:27.056Z</time></trkpt><trkpt lat="43.5009079" lon="10.748364"><ele>123.0</ele><time>2026-04-04T08:41:28.036Z</time></trkpt><trkpt lat="43.5007898" lon="10.7483446"><ele>123.0</ele><time>2026-04-04T08:41:29.023Z</time></trkpt><trkpt lat="43.5006869" lon="10.7483208"><ele>123.0</ele><time>2026-04-04T08:41:30.047Z</time></trkpt><trkpt lat="43.500611" lon="10.7482659"><ele>123.0</ele><time>2026-04-04T08:41:31.039Z</time></trkpt><trkpt lat="43.500551" lon="10.7481978"><ele>123.0</ele><time>2026-04-04T08:41:32.038Z</time></trkpt><trkpt lat="43.5005416" lon="10.7480986"><ele>123.0</ele><time>2026-04-04T08:41:33.047Z</time></trkpt><trkpt lat="43.5005648" lon="10.7479891"><ele>123.0</ele><time>2026-04-04T08:41:34.04Z</time></trkpt><trkpt lat="43.500615" lon="10.747872"><ele>123.0</ele><time>2026-04-04T08:41:35.039Z</time></trkpt><trkpt lat="43.5006885" lon="10.7477644"><ele>123.0</ele><time>2026-04-04T08:41:36.043Z</time></trkpt><trkpt lat="43.5007597" lon="10.7476772"><ele>123.0</ele><time>2026-04-04T08:41:37.05Z</time></trkpt><trkpt lat="43.5008104" lon="10.7475975"><ele>123.0</ele><time>2026-04-04T08:41:38.037Z</time></trkpt><trkpt lat="43.5008359" lon="10.7475104"><ele>123.0</ele><time>2026-04-04T08:41:39.041Z</time></trkpt><trkpt lat="43.5008319" lon="10.7474149"><ele>123.0</ele><time>2026-04-04T08:41:40.052Z</time></trkpt><trkpt lat="43.500796" lon="10.7473372"><ele>122.5</ele><time>2026-04-04T08:41:41.04Z</time></trkpt><trkpt lat="43.5006471" lon="10.747307"><ele>122.0</ele><time>2026-04-04T08:41:43.038Z</time></trkpt><trkpt lat="43.5005315" lon="10.7473439"><ele>121.5</ele><time>2026-04-04T08:41:44.049Z</time></trkpt><trkpt lat="43.5004282" lon="10.7473832"><ele>121.0</ele><time>2026-04-04T08:41:45.04Z</time></trkpt><trkpt lat="43.500328" lon="10.7474022"><ele>118.19999999999999</ele><time>2026-04-04T08:41:46.04Z</time></trkpt><trkpt lat="43.5002414" lon="10.7473627"><ele>115.39999999999999</ele><time>2026-04-04T08:41:47.037Z</time></trkpt><trkpt lat="43.5001698" lon="10.7472586"><ele>112.6</ele><time>2026-04-04T08:41:48.042Z</time></trkpt><trkpt lat="43.5001132" lon="10.7471333"><ele>109.8</ele><time>2026-04-04T08:41:49.043Z</time></trkpt><trkpt lat="43.5000597" lon="10.74698"><ele>107.0</ele><time>2026-04-04T08:41:50.045Z</time></trkpt><trkpt lat="43.4999978" lon="10.7468225"><ele>107.0</ele><time>2026-04-04T08:41:51.029Z</time></trkpt><trkpt lat="43.49993" lon="10.7466508"><ele>107.0</ele><time>2026-04-04T08:41:52.036Z</time></trkpt><trkpt lat="43.4998556" lon="10.7464696"><ele>107.0</ele><time>2026-04-04T08:41:53.037Z</time></trkpt><trkpt lat="43.4997744" lon="10.7462827"><ele>107.0</ele><time>2026-04-04T08:41:54.038Z</time></trkpt><trkpt lat="43.4996938" lon="10.7461"><ele>107.0</ele><time>2026-04-04T08:41:55.043Z</time></trkpt><trkpt lat="43.4996254" lon="10.7459423"><ele>107.0</ele><time>2026-04-04T08:41:56.034Z</time></trkpt><trkpt lat="43.4995677" lon="10.7458083"><ele>107.0</ele><time>2026-04-04T08:41:57.047Z</time></trkpt><trkpt lat="43.4995186" lon="10.7456873"><ele>106.33333333333333</ele><time>2026-04-04T08:41:58.04Z</time></trkpt><trkpt lat="43.499473" lon="10.745579"><ele>105.66666666666666</ele><time>2026-04-04T08:41:59.035Z</time></trkpt><trkpt lat="43.4994315" lon="10.7454737"><ele>105.0</ele><time>2026-04-04T08:42:00.036Z</time></trkpt><trkpt lat="43.4993816" lon="10.7453803"><ele>104.33333333333334</ele><time>2026-04-04T08:42:01.024Z</time></trkpt><trkpt lat="43.4993229" lon="10.7453042"><ele>103.66666666666667</ele><time>2026-04-04T08:42:02.039Z</time></trkpt><trkpt lat="43.4992551" lon="10.745252"><ele>103.0</ele><time>2026-04-04T08:42:03.044Z</time></trkpt><trkpt lat="43.4991818" lon="10.7452421"><ele>103.00000000000001</ele><time>2026-04-04T08:42:04.057Z</time></trkpt><trkpt lat="43.4991156" lon="10.7452671"><ele>103.0</ele><time>2026-04-04T08:42:05.037Z</time></trkpt><trkpt lat="43.4990551" lon="10.7453232"><ele>103.0</ele><time>2026-04-04T08:42:06.056Z</time></trkpt><trkpt lat="43.4990044" lon="10.7454067"><ele>103.0</ele><time>2026-04-04T08:42:07.047Z</time></trkpt><trkpt lat="43.4989775" lon="10.7455153"><ele>103.00000000000001</ele><time>2026-04-04T08:42:08.041Z</time></trkpt><trkpt lat="43.498977" lon="10.7456311"><ele>103.0</ele><time>2026-04-04T08:42:09.035Z</time></trkpt><trkpt lat="43.498998" lon="10.7457379"><ele>103.0</ele><time>2026-04-04T08:42:10.039Z</time></trkpt><trkpt lat="43.4990309" lon="10.7458415"><ele>103.0</ele><time>2026-04-04T08:42:11.041Z</time></trkpt><trkpt lat="43.4990668" lon="10.7459571"><ele>103.0</ele><time>2026-04-04T08:42:12.051Z</time></trkpt><trkpt lat="43.499092" lon="10.7460988"><ele>103.0</ele><time>2026-04-04T08:42:13.044Z</time></trkpt><trkpt lat="43.4991014" lon="10.7462644"><ele>103.0</ele><time>2026-04-04T08:42:14.035Z</time></trkpt><trkpt lat="43.499111" lon="10.7464237"><ele>101.80000000000001</ele><time>2026-04-04T08:42:15.053Z</time></trkpt><trkpt lat="43.4991122" lon="10.7465761"><ele>100.6</ele><time>2026-04-04T08:42:16.042Z</time></trkpt><trkpt lat="43.4991295" lon="10.7467087"><ele>99.4</ele><time>2026-04-04T08:42:17.053Z</time></trkpt><trkpt lat="43.4991705" lon="10.7468164"><ele>98.19999999999999</ele><time>2026-04-04T08:42:18.066Z</time></trkpt><trkpt lat="43.4992365" lon="10.7469028"><ele>97.0</ele><time>2026-04-04T08:42:19.049Z</time></trkpt><trkpt lat="43.4993077" lon="10.7469837"><ele>98.50000000000001</ele><time>2026-04-04T08:42:20.06Z</time></trkpt><trkpt lat="43.4993808" lon="10.7470581"><ele>100.0</ele><time>2026-04-04T08:42:21.036Z</time></trkpt><trkpt lat="43.4994579" lon="10.7471287"><ele>101.5</ele><time>2026-04-04T08:42:22.048Z</time></trkpt><trkpt lat="43.4995302" lon="10.7472015"><ele>103.0</ele><time>2026-04-04T08:42:23.043Z</time></trkpt><trkpt lat="43.4995901" lon="10.7472736"><ele>104.50000000000001</ele><time>2026-04-04T08:42:24.052Z</time></trkpt><trkpt lat="43.4996517" lon="10.7473411"><ele>106.0</ele><time>2026-04-04T08:42:25.049Z</time></trkpt><trkpt lat="43.49971" lon="10.7474251"><ele>106.00000000000001</ele><time>2026-04-04T08:42:26.048Z</time></trkpt><trkpt lat="43.4997429" lon="10.7475418"><ele>106.0</ele><time>2026-04-04T08:42:27.047Z</time></trkpt><trkpt lat="43.4997313" lon="10.7476772"><ele>106.0</ele><time>2026-04-04T08:42:28.043Z</time></trkpt><trkpt lat="43.4997026" lon="10.7478055"><ele>106.0</ele><time>2026-04-04T08:42:29.048Z</time></trkpt><trkpt lat="43.4996832" lon="10.7479212"><ele>106.00000000000001</ele><time>2026-04-04T08:42:30.045Z</time></trkpt><trkpt lat="43.4996652" lon="10.7480205"><ele>106.0</ele><time>2026-04-04T08:42:31.047Z</time></trkpt><trkpt lat="43.4996211" lon="10.748093"><ele>101.6</ele><time>2026-04-04T08:42:32.049Z</time></trkpt><trkpt lat="43.4995347" lon="10.748144"><ele>97.19999999999999</ele><time>2026-04-04T08:42:33.049Z</time></trkpt><trkpt lat="43.4994229" lon="10.7481811"><ele>92.80000000000001</ele><time>2026-04-04T08:42:34.041Z</time></trkpt><trkpt lat="43.4993056" lon="10.7482247"><ele>88.4</ele><time>2026-04-04T08:42:35.036Z</time></trkpt><trkpt lat="43.4991937" lon="10.7482767"><ele>84.0</ele><time>2026-04-04T08:42:36.043Z</time></trkpt><trkpt lat="43.4990904" lon="10.7483295"><ele>84.0</ele><time>2026-04-04T08:42:37.039Z</time></trkpt><trkpt lat="43.4990106" lon="10.7483943"><ele>84.0</ele><time>2026-04-04T08:42:38.044Z</time></trkpt><trkpt lat="43.4989543" lon="10.7484842"><ele>84.0</ele><time>2026-04-04T08:42:39.051Z</time></trkpt><trkpt lat="43.4989395" lon="10.7486018"><ele>84.0</ele><time>2026-04-04T08:42:40.042Z</time></trkpt><trkpt lat="43.4989461" lon="10.7487237"><ele>84.0</ele><time>2026-04-04T08:42:41.033Z</time></trkpt><trkpt lat="43.4989573" lon="10.7488318"><ele>84.0</ele><time>2026-04-04T08:42:42.035Z</time></trkpt><trkpt lat="43.4989595" lon="10.7489318"><ele>83.66666666666667</ele><time>2026-04-04T08:42:43.043Z</time></trkpt><trkpt lat="43.498935" lon="10.7490148"><ele>83.33333333333333</ele><time>2026-04-04T08:42:44.046Z</time></trkpt><trkpt lat="43.4988312" lon="10.7490314"><ele>83.0</ele><time>2026-04-04T08:42:46.031Z</time></trkpt><trkpt lat="43.4987816" lon="10.7489672"><ele>82.66666666666666</ele><time>2026-04-04T08:42:47.045Z</time></trkpt><trkpt lat="43.4987392" lon="10.7488673"><ele>82.33333333333333</ele><time>2026-04-04T08:42:48.047Z</time></trkpt><trkpt lat="43.4987048" lon="10.748732"><ele>82.0</ele><time>2026-04-04T08:42:49.041Z</time></trkpt><trkpt lat="43.4986601" lon="10.7485825"><ele>79.83333333333333</ele><time>2026-04-04T08:42:50.026Z</time></trkpt><trkpt lat="43.4986123" lon="10.7484448"><ele>77.66666666666666</ele><time>2026-04-04T08:42:51.03Z</time></trkpt><trkpt lat="43.498568" lon="10.7483245"><ele>75.5</ele><time>2026-04-04T08:42:52.053Z</time></trkpt><trkpt lat="43.498525" lon="10.7482173"><ele>73.33333333333333</ele><time>2026-04-04T08:42:53.042Z</time></trkpt><trkpt lat="43.4984897" lon="10.7481184"><ele>71.16666666666667</ele><time>2026-04-04T08:42:54.043Z</time></trkpt><trkpt lat="43.4984544" lon="10.7480318"><ele>69.0</ele><time>2026-04-04T08:42:55.039Z</time></trkpt><trkpt lat="43.4984023" lon="10.7479601"><ele>69.0</ele><time>2026-04-04T08:42:56.073Z</time></trkpt><trkpt lat="43.4983317" lon="10.7478984"><ele>69.0</ele><time>2026-04-04T08:42:57.036Z</time></trkpt><trkpt lat="43.4982525" lon="10.7478811"><ele>69.0</ele><time>2026-04-04T08:42:58.046Z</time></trkpt><trkpt lat="43.4981599" lon="10.7479196"><ele>69.0</ele><time>2026-04-04T08:42:59.043Z</time></trkpt><trkpt lat="43.4980598" lon="10.7479636"><ele>69.0</ele><time>2026-04-04T08:43:00.042Z</time></trkpt><trkpt lat="43.4979498" lon="10.7480098"><ele>68.0</ele><time>2026-04-04T08:43:01.042Z</time></trkpt><trkpt lat="43.4978355" lon="10.7480331"><ele>67.0</ele><time>2026-04-04T08:43:02.063Z</time></trkpt><trkpt lat="43.4977266" lon="10.7480449"><ele>66.0</ele><time>2026-04-04T08:43:03.034Z</time></trkpt><trkpt lat="43.4976263" lon="10.7480447"><ele>65.0</ele><time>2026-04-04T08:43:04.049Z</time></trkpt><trkpt lat="43.4975248" lon="10.7480423"><ele>64.0</ele><time>2026-04-04T08:43:05.041Z</time></trkpt><trkpt lat="43.4974213" lon="10.7480237"><ele>63.99999999999999</ele><time>2026-04-04T08:43:06.043Z</time></trkpt><trkpt lat="43.4973329" lon="10.7479828"><ele>64.0</ele><time>2026-04-04T08:43:07.049Z</time></trkpt><trkpt lat="43.4972587" lon="10.7479212"><ele>64.0</ele><time>2026-04-04T08:43:08.038Z</time></trkpt><trkpt lat="43.4972093" lon="10.7478421"><ele>64.0</ele><time>2026-04-04T08:43:09.039Z</time></trkpt><trkpt lat="43.4971973" lon="10.747753"><ele>63.99999999999999</ele><time>2026-04-04T08:43:10.05Z</time></trkpt><trkpt lat="43.4972205" lon="10.747665"><ele>64.0</ele><time>2026-04-04T08:43:11.036Z</time></trkpt><trkpt lat="43.4972624" lon="10.7475654"><ele>64.0</ele><time>2026-04-04T08:43:12.044Z</time></trkpt><trkpt lat="43.497312" lon="10.7474466"><ele>64.0</ele><time>2026-04-04T08:43:13.024Z</time></trkpt><trkpt lat="43.4973327" lon="10.7473016"><ele>64.0</ele><time>2026-04-04T08:43:14.063Z</time></trkpt><trkpt lat="43.4973152" lon="10.7471467"><ele>64.0</ele><time>2026-04-04T08:43:15.045Z</time></trkpt><trkpt lat="43.4972692" lon="10.7470001"><ele>64.0</ele><time>2026-04-04T08:43:16.044Z</time></trkpt><trkpt lat="43.4971945" lon="10.7468668"><ele>64.0</ele><time>2026-04-04T08:43:17.042Z</time></trkpt><trkpt lat="43.497097" lon="10.7467313"><ele>64.0</ele><time>2026-04-04T08:43:18.071Z</time></trkpt><trkpt lat="43.4969943" lon="10.7465843"><ele>64.0</ele><time>2026-04-04T08:43:19.055Z</time></trkpt><trkpt lat="43.4968932" lon="10.7464329"><ele>64.0</ele><time>2026-04-04T08:43:20.069Z</time></trkpt><trkpt lat="43.4968003" lon="10.7462801"><ele>63.25</ele><time>2026-04-04T08:43:21.036Z</time></trkpt><trkpt lat="43.4967231" lon="10.7461342"><ele>62.5</ele><time>2026-04-04T08:43:22.022Z</time></trkpt><trkpt lat="43.4966783" lon="10.7459808"><ele>61.75</ele><time>2026-04-04T08:43:23.044Z</time></trkpt><trkpt lat="43.4966665" lon="10.7458211"><ele>61.0</ele><time>2026-04-04T08:43:24.035Z</time></trkpt><trkpt lat="43.4966623" lon="10.7456592"><ele>61.0</ele><time>2026-04-04T08:43:25.048Z</time></trkpt><trkpt lat="43.4966205" lon="10.7454828"><ele>61.0</ele><time>2026-04-04T08:43:26.048Z</time></trkpt><trkpt lat="43.4965437" lon="10.7453024"><ele>61.0</ele><time>2026-04-04T08:43:27.036Z</time></trkpt><trkpt lat="43.4964676" lon="10.7451133"><ele>61.0</ele><time>2026-04-04T08:43:28.052Z</time></trkpt><trkpt lat="43.4963976" lon="10.7449173"><ele>61.0</ele><time>2026-04-04T08:43:29.048Z</time></trkpt><trkpt lat="43.4963386" lon="10.7447102"><ele>61.0</ele><time>2026-04-04T08:43:30.047Z</time></trkpt><trkpt lat="43.4962792" lon="10.7444961"><ele>61.0</ele><time>2026-04-04T08:43:31.041Z</time></trkpt><trkpt lat="43.4962116" lon="10.7442927"><ele>60.33333333333333</ele><time>2026-04-04T08:43:32.054Z</time></trkpt><trkpt lat="43.4961437" lon="10.7441028"><ele>59.66666666666667</ele><time>2026-04-04T08:43:33.036Z</time></trkpt><trkpt lat="43.4960907" lon="10.7439072"><ele>59.0</ele><time>2026-04-04T08:43:34.044Z</time></trkpt><trkpt lat="43.4960523" lon="10.7437041"><ele>59.5</ele><time>2026-04-04T08:43:35.053Z</time></trkpt><trkpt lat="43.4960039" lon="10.7435175"><ele>60.0</ele><time>2026-04-04T08:43:36.043Z</time></trkpt><trkpt lat="43.495932" lon="10.7433592"><ele>60.5</ele><time>2026-04-04T08:43:37.046Z</time></trkpt><trkpt lat="43.4958461" lon="10.7432179"><ele>61.0</ele><time>2026-04-04T08:43:38.066Z</time></trkpt><trkpt lat="43.4957622" lon="10.7430854"><ele>61.0</ele><time>2026-04-04T08:43:39.044Z</time></trkpt><trkpt lat="43.4956775" lon="10.7429674"><ele>61.0</ele><time>2026-04-04T08:43:40.067Z</time></trkpt><trkpt lat="43.4955854" lon="10.7428755"><ele>61.0</ele><time>2026-04-04T08:43:41.052Z</time></trkpt><trkpt lat="43.495475" lon="10.742825"><ele>61.0</ele><time>2026-04-04T08:43:42.053Z</time></trkpt><trkpt lat="43.4953553" lon="10.7428382"><ele>60.8</ele><time>2026-04-04T08:43:43.039Z</time></trkpt><trkpt lat="43.4952449" lon="10.7428965"><ele>60.599999999999994</ele><time>2026-04-04T08:43:44.05Z</time></trkpt><trkpt lat="43.4951462" lon="10.7429623"><ele>60.4</ele><time>2026-04-04T08:43:45.04Z</time></trkpt><trkpt lat="43.4950476" lon="10.7430193"><ele>60.2</ele><time>2026-04-04T08:43:46.042Z</time></trkpt><trkpt lat="43.4949452" lon="10.7430435"><ele>60.0</ele><time>2026-04-04T08:43:47.051Z</time></trkpt><trkpt lat="43.494825" lon="10.7430245"><ele>60.0</ele><time>2026-04-04T08:43:48.064Z</time></trkpt><trkpt lat="43.4947156" lon="10.7429312"><ele>60.0</ele><time>2026-04-04T08:43:49.046Z</time></trkpt><trkpt lat="43.4946077" lon="10.7428254"><ele>60.0</ele><time>2026-04-04T08:43:50.049Z</time></trkpt><trkpt lat="43.4945111" lon="10.7427071"><ele>60.0</ele><time>2026-04-04T08:43:51.034Z</time></trkpt><trkpt lat="43.4944157" lon="10.7425981"><ele>59.8</ele><time>2026-04-04T08:43:52.032Z</time></trkpt><trkpt lat="43.4943175" lon="10.7425227"><ele>59.6</ele><time>2026-04-04T08:43:53.039Z</time></trkpt><trkpt lat="43.4942183" lon="10.7424786"><ele>59.400000000000006</ele><time>2026-04-04T08:43:54.047Z</time></trkpt><trkpt lat="43.4941192" lon="10.7424569"><ele>59.2</ele><time>2026-04-04T08:43:55.043Z</time></trkpt><trkpt lat="43.4940165" lon="10.7424804"><ele>59.0</ele><time>2026-04-04T08:43:56.056Z</time></trkpt><trkpt lat="43.4939199" lon="10.7425401"><ele>59.0</ele><time>2026-04-04T08:43:57.037Z</time></trkpt><trkpt lat="43.4938458" lon="10.7426411"><ele>59.00000000000001</ele><time>2026-04-04T08:43:58.046Z</time></trkpt><trkpt lat="43.4937958" lon="10.7427503"><ele>59.00000000000001</ele><time>2026-04-04T08:43:59.036Z</time></trkpt><trkpt lat="43.493751" lon="10.7428652"><ele>59.0</ele><time>2026-04-04T08:44:00.053Z</time></trkpt><trkpt lat="43.493707" lon="10.742976"><ele>59.0</ele><time>2026-04-04T08:44:01.032Z</time></trkpt><trkpt lat="43.4936622" lon="10.7430627"><ele>58.833333333333336</ele><time>2026-04-04T08:44:02.042Z</time></trkpt><trkpt lat="43.4936056" lon="10.7431277"><ele>58.66666666666667</ele><time>2026-04-04T08:44:03.044Z</time></trkpt><trkpt lat="43.4935444" lon="10.7431756"><ele>58.5</ele><time>2026-04-04T08:44:04.05Z</time></trkpt><trkpt lat="43.493477" lon="10.7431978"><ele>58.33333333333333</ele><time>2026-04-04T08:44:05.049Z</time></trkpt><trkpt lat="43.4934077" lon="10.7431694"><ele>58.166666666666664</ele><time>2026-04-04T08:44:06.042Z</time></trkpt><trkpt lat="43.4933466" lon="10.7431021"><ele>58.0</ele><time>2026-04-04T08:44:07.046Z</time></trkpt><trkpt lat="43.4932988" lon="10.7430025"><ele>57.99999999999999</ele><time>2026-04-04T08:44:08.055Z</time></trkpt><trkpt lat="43.4932601" lon="10.742901"><ele>58.0</ele><time>2026-04-04T08:44:09.049Z</time></trkpt><trkpt lat="43.4932179" lon="10.7428103"><ele>58.0</ele><time>2026-04-04T08:44:10.037Z</time></trkpt><trkpt lat="43.4931755" lon="10.7427139"><ele>58.0</ele><time>2026-04-04T08:44:11.044Z</time></trkpt><trkpt lat="43.4931295" lon="10.7426216"><ele>57.99999999999999</ele><time>2026-04-04T08:44:12.037Z</time></trkpt><trkpt lat="43.4930878" lon="10.7425313"><ele>58.0</ele><time>2026-04-04T08:44:13.041Z</time></trkpt><trkpt lat="43.4930558" lon="10.7424442"><ele>58.49999999999999</ele><time>2026-04-04T08:44:14.032Z</time></trkpt><trkpt lat="43.4930474" lon="10.7423446"><ele>59.0</ele><time>2026-04-04T08:44:15.045Z</time></trkpt><trkpt lat="43.4930675" lon="10.7422542"><ele>59.5</ele><time>2026-04-04T08:44:16.063Z</time></trkpt><trkpt lat="43.4931196" lon="10.74209"><ele>60.0</ele><time>2026-04-04T08:44:18.041Z</time></trkpt><trkpt lat="43.4931392" lon="10.7419817"><ele>60.49999999999999</ele><time>2026-04-04T08:44:19.053Z</time></trkpt><trkpt lat="43.4931267" lon="10.7418613"><ele>61.0</ele><time>2026-04-04T08:44:20.047Z</time></trkpt><trkpt lat="43.4930812" lon="10.7417622"><ele>61.4</ele><time>2026-04-04T08:44:21.043Z</time></trkpt><trkpt lat="43.4930017" lon="10.7416943"><ele>61.8</ele><time>2026-04-04T08:44:22.03Z</time></trkpt><trkpt lat="43.4929055" lon="10.7416387"><ele>62.199999999999996</ele><time>2026-04-04T08:44:23.028Z</time></trkpt><trkpt lat="43.4928024" lon="10.7415775"><ele>62.599999999999994</ele><time>2026-04-04T08:44:24.028Z</time></trkpt><trkpt lat="43.4926889" lon="10.7415072"><ele>63.0</ele><time>2026-04-04T08:44:25.031Z</time></trkpt><trkpt lat="43.492564" lon="10.741437"><ele>64.33333333333333</ele><time>2026-04-04T08:44:26.04Z</time></trkpt><trkpt lat="43.4924335" lon="10.7413575"><ele>65.66666666666666</ele><time>2026-04-04T08:44:27.041Z</time></trkpt><trkpt lat="43.4922984" lon="10.7412648"><ele>67.0</ele><time>2026-04-04T08:44:28.033Z</time></trkpt><trkpt lat="43.4921572" lon="10.7411632"><ele>66.66666666666666</ele><time>2026-04-04T08:44:29.041Z</time></trkpt><trkpt lat="43.4920094" lon="10.7410627"><ele>66.33333333333333</ele><time>2026-04-04T08:44:30.032Z</time></trkpt><trkpt lat="43.491867" lon="10.7409688"><ele>66.0</ele><time>2026-04-04T08:44:31.029Z</time></trkpt><trkpt lat="43.4917355" lon="10.7408788"><ele>66.39999999999999</ele><time>2026-04-04T08:44:32.038Z</time></trkpt><trkpt lat="43.49162" lon="10.7408001"><ele>66.8</ele><time>2026-04-04T08:44:33.036Z</time></trkpt><trkpt lat="43.4915235" lon="10.7407202"><ele>67.19999999999999</ele><time>2026-04-04T08:44:34.028Z</time></trkpt><trkpt lat="43.4914402" lon="10.7406526"><ele>67.6</ele><time>2026-04-04T08:44:35.041Z</time></trkpt><trkpt lat="43.4913678" lon="10.7405913"><ele>68.0</ele><time>2026-04-04T08:44:36.038Z</time></trkpt><trkpt lat="43.4913086" lon="10.7405244"><ele>68.4</ele><time>2026-04-04T08:44:37.041Z</time></trkpt><trkpt lat="43.4912324" lon="10.7404556"><ele>68.8</ele><time>2026-04-04T08:44:39.032Z</time></trkpt><trkpt lat="43.4911334" lon="10.7404338"><ele>69.2</ele><time>2026-04-04T08:44:42.036Z</time></trkpt><trkpt lat="43.4910664" lon="10.740482"><ele>69.6</ele><time>2026-04-04T08:44:43.034Z</time></trkpt><trkpt lat="43.4909933" lon="10.7405707"><ele>70.0</ele><time>2026-04-04T08:44:44.042Z</time></trkpt><trkpt lat="43.4909174" lon="10.7406902"><ele>70.0</ele><time>2026-04-04T08:44:45.053Z</time></trkpt><trkpt lat="43.4908373" lon="10.7408137"><ele>70.0</ele><time>2026-04-04T08:44:46.035Z</time></trkpt><trkpt lat="43.490737" lon="10.7409423"><ele>70.0</ele><time>2026-04-04T08:44:47.045Z</time></trkpt><trkpt lat="43.4906213" lon="10.7410809"><ele>70.0</ele><time>2026-04-04T08:44:48.045Z</time></trkpt><trkpt lat="43.4904909" lon="10.7412238"><ele>70.66666666666666</ele><time>2026-04-04T08:44:49.04Z</time></trkpt><trkpt lat="43.4903458" lon="10.7413688"><ele>71.33333333333333</ele><time>2026-04-04T08:44:50.047Z</time></trkpt><trkpt lat="43.4901837" lon="10.7415045"><ele>72.0</ele><time>2026-04-04T08:44:51.058Z</time></trkpt><trkpt lat="43.4900079" lon="10.7416311"><ele>72.0</ele><time>2026-04-04T08:44:52.061Z</time></trkpt><trkpt lat="43.4898277" lon="10.741761"><ele>72.0</ele><time>2026-04-04T08:44:53.041Z</time></trkpt><trkpt lat="43.4896473" lon="10.7418858"><ele>72.0</ele><time>2026-04-04T08:44:54.045Z</time></trkpt><trkpt lat="43.4894732" lon="10.7420011"><ele>71.33333333333333</ele><time>2026-04-04T08:44:55.047Z</time></trkpt><trkpt lat="43.4893084" lon="10.7421105"><ele>70.66666666666666</ele><time>2026-04-04T08:44:56.054Z</time></trkpt><trkpt lat="43.4891407" lon="10.742231"><ele>70.0</ele><time>2026-04-04T08:44:57.044Z</time></trkpt><trkpt lat="43.488972" lon="10.7423684"><ele>70.0</ele><time>2026-04-04T08:44:58.058Z</time></trkpt><trkpt lat="43.4888046" lon="10.7425202"><ele>70.0</ele><time>2026-04-04T08:44:59.043Z</time></trkpt><trkpt lat="43.4886489" lon="10.7426854"><ele>70.0</ele><time>2026-04-04T08:45:00.05Z</time></trkpt><trkpt lat="43.4885081" lon="10.7428446"><ele>70.33333333333333</ele><time>2026-04-04T08:45:01.043Z</time></trkpt><trkpt lat="43.4883735" lon="10.7430192"><ele>70.66666666666667</ele><time>2026-04-04T08:45:02.045Z</time></trkpt><trkpt lat="43.4882379" lon="10.7432125"><ele>71.0</ele><time>2026-04-04T08:45:03.043Z</time></trkpt><trkpt lat="43.4881061" lon="10.7434374"><ele>69.66666666666667</ele><time>2026-04-04T08:45:04.03Z</time></trkpt><trkpt lat="43.4879812" lon="10.7436872"><ele>68.33333333333333</ele><time>2026-04-04T08:45:05.04Z</time></trkpt><trkpt lat="43.4878614" lon="10.7439465"><ele>67.0</ele><time>2026-04-04T08:45:06.051Z</time></trkpt><trkpt lat="43.4877416" lon="10.7442067"><ele>68.0</ele><time>2026-04-04T08:45:07.043Z</time></trkpt><trkpt lat="43.4876143" lon="10.7444654"><ele>69.0</ele><time>2026-04-04T08:45:08.062Z</time></trkpt><trkpt lat="43.4874831" lon="10.7447076"><ele>70.0</ele><time>2026-04-04T08:45:09.049Z</time></trkpt><trkpt lat="43.4873466" lon="10.7449267"><ele>70.0</ele><time>2026-04-04T08:45:10.075Z</time></trkpt><trkpt lat="43.4872073" lon="10.7451306"><ele>70.0</ele><time>2026-04-04T08:45:11.047Z</time></trkpt><trkpt lat="43.4870643" lon="10.7453104"><ele>70.0</ele><time>2026-04-04T08:45:12.056Z</time></trkpt><trkpt lat="43.4869131" lon="10.7454785"><ele>69.33333333333333</ele><time>2026-04-04T08:45:13.077Z</time></trkpt><trkpt lat="43.4867486" lon="10.7456406"><ele>68.66666666666667</ele><time>2026-04-04T08:45:14.048Z</time></trkpt><trkpt lat="43.4865729" lon="10.7457949"><ele>68.0</ele><time>2026-04-04T08:45:15.054Z</time></trkpt><trkpt lat="43.4863873" lon="10.7459355"><ele>68.0</ele><time>2026-04-04T08:45:16.041Z</time></trkpt><trkpt lat="43.4862015" lon="10.7460773"><ele>68.0</ele><time>2026-04-04T08:45:17.057Z</time></trkpt><trkpt lat="43.4860322" lon="10.7462223"><ele>68.0</ele><time>2026-04-04T08:45:18.051Z</time></trkpt><trkpt lat="43.4858783" lon="10.746377"><ele>68.0</ele><time>2026-04-04T08:45:19.049Z</time></trkpt><trkpt lat="43.4857404" lon="10.7465399"><ele>68.0</ele><time>2026-04-04T08:45:20.049Z</time></trkpt><trkpt lat="43.4856188" lon="10.7467218"><ele>68.0</ele><time>2026-04-04T08:45:21.043Z</time></trkpt><trkpt lat="43.4855083" lon="10.7469112"><ele>70.0</ele><time>2026-04-04T08:45:22.056Z</time></trkpt><trkpt lat="43.4854017" lon="10.7471048"><ele>72.0</ele><time>2026-04-04T08:45:23.042Z</time></trkpt><trkpt lat="43.4853022" lon="10.7473012"><ele>74.0</ele><time>2026-04-04T08:45:24.057Z</time></trkpt><trkpt lat="43.4852002" lon="10.747502"><ele>74.0</ele><time>2026-04-04T08:45:25.052Z</time></trkpt><trkpt lat="43.4850949" lon="10.7476829"><ele>74.0</ele><time>2026-04-04T08:45:26.048Z</time></trkpt><trkpt lat="43.4849743" lon="10.7478488"><ele>74.0</ele><time>2026-04-04T08:45:27.049Z</time></trkpt><trkpt lat="43.4848379" lon="10.7480032"><ele>73.33333333333334</ele><time>2026-04-04T08:45:28.057Z</time></trkpt><trkpt lat="43.4846909" lon="10.7481367"><ele>72.66666666666667</ele><time>2026-04-04T08:45:29.049Z</time></trkpt><trkpt lat="43.4845355" lon="10.7482547"><ele>72.0</ele><time>2026-04-04T08:45:30.072Z</time></trkpt><trkpt lat="43.4843731" lon="10.7483573"><ele>72.0</ele><time>2026-04-04T08:45:31.044Z</time></trkpt><trkpt lat="43.4842097" lon="10.7484499"><ele>72.0</ele><time>2026-04-04T08:45:32.072Z</time></trkpt><trkpt lat="43.4840541" lon="10.7485443"><ele>72.0</ele><time>2026-04-04T08:45:33.05Z</time></trkpt><trkpt lat="43.4839062" lon="10.7486383"><ele>72.0</ele><time>2026-04-04T08:45:34.049Z</time></trkpt><trkpt lat="43.4837567" lon="10.748742"><ele>72.0</ele><time>2026-04-04T08:45:35.042Z</time></trkpt><trkpt lat="43.4836106" lon="10.7488651"><ele>72.0</ele><time>2026-04-04T08:45:36.058Z</time></trkpt><trkpt lat="43.4834584" lon="10.7490322"><ele>72.0</ele><time>2026-04-04T08:45:37.036Z</time></trkpt><trkpt lat="43.4832966" lon="10.7492083"><ele>72.0</ele><time>2026-04-04T08:45:38.061Z</time></trkpt><trkpt lat="43.4831329" lon="10.7493966"><ele>72.0</ele><time>2026-04-04T08:45:39.045Z</time></trkpt><trkpt lat="43.4829611" lon="10.7495884"><ele>72.5</ele><time>2026-04-04T08:45:40.052Z</time></trkpt><trkpt lat="43.4827857" lon="10.7497921"><ele>73.0</ele><time>2026-04-04T08:45:41.047Z</time></trkpt><trkpt lat="43.482606" lon="10.7500067"><ele>69.0</ele><time>2026-04-04T08:45:42.047Z</time></trkpt><trkpt lat="43.4824212" lon="10.7502268"><ele>65.0</ele><time>2026-04-04T08:45:43.031Z</time></trkpt><trkpt lat="43.4822338" lon="10.7504515"><ele>69.5</ele><time>2026-04-04T08:45:44.058Z</time></trkpt><trkpt lat="43.4820428" lon="10.7506697"><ele>74.0</ele><time>2026-04-04T08:45:45.063Z</time></trkpt><trkpt lat="43.4818593" lon="10.7508934"><ele>71.0</ele><time>2026-04-04T08:45:46.04Z</time></trkpt><trkpt lat="43.4816734" lon="10.7511102"><ele>68.0</ele><time>2026-04-04T08:45:47.044Z</time></trkpt><trkpt lat="43.4814851" lon="10.7513252"><ele>68.0</ele><time>2026-04-04T08:45:48.047Z</time></trkpt><trkpt lat="43.4813007" lon="10.7515275"><ele>68.0</ele><time>2026-04-04T08:45:49.054Z</time></trkpt><trkpt lat="43.4811228" lon="10.7517243"><ele>69.66666666666667</ele><time>2026-04-04T08:45:50.04Z</time></trkpt><trkpt lat="43.4809568" lon="10.7519279"><ele>71.33333333333333</ele><time>2026-04-04T08:45:51.044Z</time></trkpt><trkpt lat="43.4808076" lon="10.7521465"><ele>73.0</ele><time>2026-04-04T08:45:52.048Z</time></trkpt><trkpt lat="43.4806726" lon="10.7523852"><ele>73.0</ele><time>2026-04-04T08:45:53.049Z</time></trkpt><trkpt lat="43.4805434" lon="10.7526346"><ele>73.0</ele><time>2026-04-04T08:45:54.056Z</time></trkpt><trkpt lat="43.48042" lon="10.7528707"><ele>73.0</ele><time>2026-04-04T08:45:55.04Z</time></trkpt><trkpt lat="43.4803068" lon="10.7530887"><ele>73.0</ele><time>2026-04-04T08:45:56.038Z</time></trkpt><trkpt lat="43.4801975" lon="10.7533088"><ele>73.0</ele><time>2026-04-04T08:45:57.041Z</time></trkpt><trkpt lat="43.480087" lon="10.7535172"><ele>73.0</ele><time>2026-04-04T08:45:58.028Z</time></trkpt><trkpt lat="43.4799767" lon="10.7537119"><ele>73.0</ele><time>2026-04-04T08:45:59.038Z</time></trkpt><trkpt lat="43.479872" lon="10.7538857"><ele>73.0</ele><time>2026-04-04T08:46:00.035Z</time></trkpt><trkpt lat="43.4797789" lon="10.7540307"><ele>73.0</ele><time>2026-04-04T08:46:01.045Z</time></trkpt><trkpt lat="43.4796891" lon="10.7541706"><ele>73.0</ele><time>2026-04-04T08:46:02.043Z</time></trkpt><trkpt lat="43.4796022" lon="10.7543053"><ele>73.4</ele><time>2026-04-04T08:46:03.042Z</time></trkpt><trkpt lat="43.4795198" lon="10.7544263"><ele>73.8</ele><time>2026-04-04T08:46:04.031Z</time></trkpt><trkpt lat="43.4794432" lon="10.75454"><ele>74.2</ele><time>2026-04-04T08:46:05.042Z</time></trkpt><trkpt lat="43.4793705" lon="10.7546436"><ele>74.6</ele><time>2026-04-04T08:46:06.041Z</time></trkpt><trkpt lat="43.4793095" lon="10.7547417"><ele>75.0</ele><time>2026-04-04T08:46:07.048Z</time></trkpt><trkpt lat="43.4792604" lon="10.7548128"><ele>75.0</ele><time>2026-04-04T08:46:08.037Z</time></trkpt><trkpt lat="43.4791549" lon="10.7548931"><ele>75.0</ele><time>2026-04-04T08:46:10.028Z</time></trkpt><trkpt lat="43.4790529" lon="10.7548612"><ele>75.0</ele><time>2026-04-04T08:46:12.039Z</time></trkpt><trkpt lat="43.4789403" lon="10.7547884"><ele>75.0</ele><time>2026-04-04T08:46:14.044Z</time></trkpt><trkpt lat="43.4788327" lon="10.75474"><ele>75.6</ele><time>2026-04-04T08:46:16.046Z</time></trkpt><trkpt lat="43.4787266" lon="10.7547141"><ele>76.2</ele><time>2026-04-04T08:46:18.053Z</time></trkpt><trkpt lat="43.4786162" lon="10.7547014"><ele>76.8</ele><time>2026-04-04T08:46:20.043Z</time></trkpt><trkpt lat="43.4784954" lon="10.7547213"><ele>77.4</ele><time>2026-04-04T08:46:22.035Z</time></trkpt><trkpt lat="43.4784257" lon="10.754734"><ele>78.0</ele><time>2026-04-04T08:46:23.052Z</time></trkpt><trkpt lat="43.478345" lon="10.7547542"><ele>78.0</ele><time>2026-04-04T08:46:24.036Z</time></trkpt><trkpt lat="43.4782678" lon="10.7547668"><ele>78.0</ele><time>2026-04-04T08:46:25.036Z</time></trkpt><trkpt lat="43.4781988" lon="10.7547703"><ele>78.0</ele><time>2026-04-04T08:46:26.04Z</time></trkpt><trkpt lat="43.4781354" lon="10.7547612"><ele>78.0</ele><time>2026-04-04T08:46:27.045Z</time></trkpt><trkpt lat="43.4780712" lon="10.754736"><ele>78.0</ele><time>2026-04-04T08:46:28.051Z</time></trkpt><trkpt lat="43.4780098" lon="10.7546892"><ele>78.0</ele><time>2026-04-04T08:46:29.053Z</time></trkpt><trkpt lat="43.4779518" lon="10.7546322"><ele>78.0</ele><time>2026-04-04T08:46:30.042Z</time></trkpt><trkpt lat="43.4778924" lon="10.7545676"><ele>77.83333333333333</ele><time>2026-04-04T08:46:31.044Z</time></trkpt><trkpt lat="43.47783" lon="10.754491"><ele>77.66666666666667</ele><time>2026-04-04T08:46:32.031Z</time></trkpt><trkpt lat="43.4777693" lon="10.7544094"><ele>77.5</ele><time>2026-04-04T08:46:33.04Z</time></trkpt><trkpt lat="43.4777169" lon="10.7543166"><ele>77.33333333333334</ele><time>2026-04-04T08:46:34.036Z</time></trkpt><trkpt lat="43.4776776" lon="10.7542181"><ele>77.16666666666667</ele><time>2026-04-04T08:46:35.038Z</time></trkpt><trkpt lat="43.4776517" lon="10.7541282"><ele>77.0</ele><time>2026-04-04T08:46:36.028Z</time></trkpt><trkpt lat="43.4776365" lon="10.7540321"><ele>78.8</ele><time>2026-04-04T08:46:37.035Z</time></trkpt><trkpt lat="43.4776187" lon="10.7539199"><ele>80.6</ele><time>2026-04-04T08:46:38.044Z</time></trkpt><trkpt lat="43.4775974" lon="10.7537955"><ele>82.39999999999999</ele><time>2026-04-04T08:46:39.049Z</time></trkpt><trkpt lat="43.4775797" lon="10.7536628"><ele>84.2</ele><time>2026-04-04T08:46:40.035Z</time></trkpt><trkpt lat="43.4775722" lon="10.7535279"><ele>86.0</ele><time>2026-04-04T08:46:41.033Z</time></trkpt><trkpt lat="43.4775769" lon="10.7534031"><ele>87.6</ele><time>2026-04-04T08:46:42.045Z</time></trkpt><trkpt lat="43.4775934" lon="10.7532851"><ele>89.19999999999999</ele><time>2026-04-04T08:46:43.041Z</time></trkpt><trkpt lat="43.4776195" lon="10.7531681"><ele>90.80000000000001</ele><time>2026-04-04T08:46:44.041Z</time></trkpt><trkpt lat="43.4776523" lon="10.7530469"><ele>92.4</ele><time>2026-04-04T08:46:45.041Z</time></trkpt><trkpt lat="43.4776971" lon="10.7529244"><ele>94.0</ele><time>2026-04-04T08:46:46.029Z</time></trkpt><trkpt lat="43.4777516" lon="10.7527942"><ele>94.4</ele><time>2026-04-04T08:46:47.032Z</time></trkpt><trkpt lat="43.4778109" lon="10.7526792"><ele>94.80000000000001</ele><time>2026-04-04T08:46:48.032Z</time></trkpt><trkpt lat="43.4778835" lon="10.7525668"><ele>95.19999999999999</ele><time>2026-04-04T08:46:49.033Z</time></trkpt><trkpt lat="43.477953" lon="10.7524665"><ele>95.6</ele><time>2026-04-04T08:46:50.029Z</time></trkpt><trkpt lat="43.4780105" lon="10.7523734"><ele>96.0</ele><time>2026-04-04T08:46:51.03Z</time></trkpt><trkpt lat="43.4780597" lon="10.7522889"><ele>98.33333333333333</ele><time>2026-04-04T08:46:52.026Z</time></trkpt><trkpt lat="43.4781101" lon="10.7522102"><ele>100.66666666666666</ele><time>2026-04-04T08:46:53.043Z</time></trkpt><trkpt lat="43.4781642" lon="10.7521334"><ele>103.0</ele><time>2026-04-04T08:46:54.036Z</time></trkpt><trkpt lat="43.478218" lon="10.7520525"><ele>105.33333333333333</ele><time>2026-04-04T08:46:55.044Z</time></trkpt><trkpt lat="43.478271" lon="10.7519705"><ele>107.66666666666666</ele><time>2026-04-04T08:46:56.031Z</time></trkpt><trkpt lat="43.4783171" lon="10.7518846"><ele>110.0</ele><time>2026-04-04T08:46:57.037Z</time></trkpt><trkpt lat="43.4783757" lon="10.751733"><ele>111.0</ele><time>2026-04-04T08:46:59.042Z</time></trkpt><trkpt lat="43.4784713" lon="10.7516267"><ele>112.0</ele><time>2026-04-04T08:47:01.036Z</time></trkpt><trkpt lat="43.478529" lon="10.7515903"><ele>113.0</ele><time>2026-04-04T08:47:02.048Z</time></trkpt><trkpt lat="43.4786237" lon="10.7514917"><ele>114.0</ele><time>2026-04-04T08:47:04.05Z</time></trkpt><trkpt lat="43.4787014" lon="10.7513276"><ele>115.0</ele><time>2026-04-04T08:47:06.04Z</time></trkpt><trkpt lat="43.4787364" lon="10.7512106"><ele>114.0</ele><time>2026-04-04T08:47:07.045Z</time></trkpt><trkpt lat="43.4787689" lon="10.751095"><ele>113.0</ele><time>2026-04-04T08:47:08.046Z</time></trkpt><trkpt lat="43.478794" lon="10.7509717"><ele>112.0</ele><time>2026-04-04T08:47:09.041Z</time></trkpt><trkpt lat="43.4788128" lon="10.7508526"><ele>111.0</ele><time>2026-04-04T08:47:10.042Z</time></trkpt><trkpt lat="43.4788321" lon="10.7507345"><ele>110.0</ele><time>2026-04-04T08:47:11.066Z</time></trkpt><trkpt lat="43.4788489" lon="10.7506105"><ele>110.0</ele><time>2026-04-04T08:47:12.058Z</time></trkpt><trkpt lat="43.4788639" lon="10.7504728"><ele>110.0</ele><time>2026-04-04T08:47:13.044Z</time></trkpt><trkpt lat="43.4788836" lon="10.7503293"><ele>110.0</ele><time>2026-04-04T08:47:14.055Z</time></trkpt><trkpt lat="43.478914" lon="10.7501841"><ele>110.0</ele><time>2026-04-04T08:47:15.039Z</time></trkpt><trkpt lat="43.478951" lon="10.7500377"><ele>110.0</ele><time>2026-04-04T08:47:16.044Z</time></trkpt><trkpt lat="43.4789875" lon="10.7498905"><ele>110.75</ele><time>2026-04-04T08:47:17.047Z</time></trkpt><trkpt lat="43.4790224" lon="10.7497398"><ele>111.5</ele><time>2026-04-04T08:47:18.037Z</time></trkpt><trkpt lat="43.4790526" lon="10.7495841"><ele>112.25</ele><time>2026-04-04T08:47:19.05Z</time></trkpt><trkpt lat="43.4790805" lon="10.7494256"><ele>113.0</ele><time>2026-04-04T08:47:20.044Z</time></trkpt><trkpt lat="43.4791082" lon="10.7492716"><ele>113.4</ele><time>2026-04-04T08:47:21.052Z</time></trkpt><trkpt lat="43.4791391" lon="10.7491198"><ele>113.80000000000001</ele><time>2026-04-04T08:47:22.047Z</time></trkpt><trkpt lat="43.4791698" lon="10.748977"><ele>114.2</ele><time>2026-04-04T08:47:23.057Z</time></trkpt><trkpt lat="43.4791965" lon="10.748845"><ele>114.6</ele><time>2026-04-04T08:47:24.039Z</time></trkpt><trkpt lat="43.4792324" lon="10.7487184"><ele>115.0</ele><time>2026-04-04T08:47:25.053Z</time></trkpt><trkpt lat="43.4792765" lon="10.7485953"><ele>115.6</ele><time>2026-04-04T08:47:26.04Z</time></trkpt><trkpt lat="43.4793242" lon="10.7484708"><ele>116.2</ele><time>2026-04-04T08:47:27.05Z</time></trkpt><trkpt lat="43.4793742" lon="10.7483453"><ele>116.80000000000001</ele><time>2026-04-04T08:47:28.066Z</time></trkpt><trkpt lat="43.479427" lon="10.7482156"><ele>117.4</ele><time>2026-04-04T08:47:29.05Z</time></trkpt><trkpt lat="43.4794838" lon="10.7480851"><ele>118.0</ele><time>2026-04-04T08:47:30.06Z</time></trkpt><trkpt lat="43.4795419" lon="10.7479662"><ele>118.0</ele><time>2026-04-04T08:47:31.05Z</time></trkpt><trkpt lat="43.4795918" lon="10.747867"><ele>118.00000000000001</ele><time>2026-04-04T08:47:32.041Z</time></trkpt><trkpt lat="43.4796405" lon="10.7477736"><ele>118.00000000000001</ele><time>2026-04-04T08:47:33.04Z</time></trkpt><trkpt lat="43.4796904" lon="10.7476795"><ele>118.0</ele><time>2026-04-04T08:47:34.041Z</time></trkpt><trkpt lat="43.4797396" lon="10.7475748"><ele>118.0</ele><time>2026-04-04T08:47:35.04Z</time></trkpt><trkpt lat="43.4797945" lon="10.7474446"><ele>117.80000000000001</ele><time>2026-04-04T08:47:36.055Z</time></trkpt><trkpt lat="43.4798538" lon="10.7472923"><ele>117.60000000000001</ele><time>2026-04-04T08:47:37.044Z</time></trkpt><trkpt lat="43.4799064" lon="10.747151"><ele>117.39999999999999</ele><time>2026-04-04T08:47:38.044Z</time></trkpt><trkpt lat="43.4799478" lon="10.7470343"><ele>117.19999999999999</ele><time>2026-04-04T08:47:39.041Z</time></trkpt><trkpt lat="43.4799858" lon="10.7469188"><ele>117.0</ele><time>2026-04-04T08:47:40.056Z</time></trkpt><trkpt lat="43.4800292" lon="10.746794"><ele>117.0</ele><time>2026-04-04T08:47:41.04Z</time></trkpt><trkpt lat="43.4800732" lon="10.7466624"><ele>116.99999999999999</ele><time>2026-04-04T08:47:42.049Z</time></trkpt><trkpt lat="43.4801131" lon="10.7465352"><ele>116.99999999999999</ele><time>2026-04-04T08:47:43.04Z</time></trkpt><trkpt lat="43.4801551" lon="10.7464051"><ele>117.0</ele><time>2026-04-04T08:47:44.052Z</time></trkpt><trkpt lat="43.4802" lon="10.7462681"><ele>117.0</ele><time>2026-04-04T08:47:45.04Z</time></trkpt><trkpt lat="43.4802454" lon="10.7461242"><ele>117.0</ele><time>2026-04-04T08:47:46.045Z</time></trkpt><trkpt lat="43.4802904" lon="10.7459752"><ele>117.0</ele><time>2026-04-04T08:47:47.05Z</time></trkpt><trkpt lat="43.4803379" lon="10.7458252"><ele>117.0</ele><time>2026-04-04T08:47:48.048Z</time></trkpt><trkpt lat="43.4803833" lon="10.7456859"><ele>117.0</ele><time>2026-04-04T08:47:49.044Z</time></trkpt><trkpt lat="43.4804249" lon="10.7455559"><ele>116.0</ele><time>2026-04-04T08:47:50.033Z</time></trkpt><trkpt lat="43.4804624" lon="10.7454264"><ele>114.99999999999999</ele><time>2026-04-04T08:47:51.049Z</time></trkpt><trkpt lat="43.4805037" lon="10.7452864"><ele>113.99999999999999</ele><time>2026-04-04T08:47:52.037Z</time></trkpt><trkpt lat="43.4805496" lon="10.7451415"><ele>113.0</ele><time>2026-04-04T08:47:53.05Z</time></trkpt><trkpt lat="43.4805993" lon="10.745"><ele>112.0</ele><time>2026-04-04T08:47:54.064Z</time></trkpt><trkpt lat="43.4806519" lon="10.7448592"><ele>112.0</ele><time>2026-04-04T08:47:55.046Z</time></trkpt><trkpt lat="43.480707" lon="10.744723"><ele>111.99999999999999</ele><time>2026-04-04T08:47:56.055Z</time></trkpt><trkpt lat="43.4807513" lon="10.7445919"><ele>111.99999999999999</ele><time>2026-04-04T08:47:57.039Z</time></trkpt><trkpt lat="43.4807937" lon="10.7444575"><ele>112.0</ele><time>2026-04-04T08:47:58.042Z</time></trkpt><trkpt lat="43.4808392" lon="10.7443172"><ele>112.0</ele><time>2026-04-04T08:47:59.047Z</time></trkpt><trkpt lat="43.4808829" lon="10.7441753"><ele>112.19999999999999</ele><time>2026-04-04T08:48:00.038Z</time></trkpt><trkpt lat="43.4809134" lon="10.744033"><ele>112.39999999999999</ele><time>2026-04-04T08:48:01.044Z</time></trkpt><trkpt lat="43.4809434" lon="10.7438952"><ele>112.60000000000001</ele><time>2026-04-04T08:48:02.042Z</time></trkpt><trkpt lat="43.4809738" lon="10.7437626"><ele>112.80000000000001</ele><time>2026-04-04T08:48:03.039Z</time></trkpt><trkpt lat="43.4810049" lon="10.7436381"><ele>113.0</ele><time>2026-04-04T08:48:04.038Z</time></trkpt><trkpt lat="43.4810405" lon="10.7435049"><ele>113.2</ele><time>2026-04-04T08:48:05.043Z</time></trkpt><trkpt lat="43.4810801" lon="10.7433654"><ele>113.4</ele><time>2026-04-04T08:48:06.037Z</time></trkpt><trkpt lat="43.4811169" lon="10.7432227"><ele>113.60000000000001</ele><time>2026-04-04T08:48:07.039Z</time></trkpt><trkpt lat="43.4811558" lon="10.743089"><ele>113.80000000000001</ele><time>2026-04-04T08:48:08.05Z</time></trkpt><trkpt lat="43.4811907" lon="10.7429747"><ele>114.0</ele><time>2026-04-04T08:48:09.044Z</time></trkpt><trkpt lat="43.4812279" lon="10.7428831"><ele>114.0</ele><time>2026-04-04T08:48:10.03Z</time></trkpt><trkpt lat="43.4812678" lon="10.7427944"><ele>114.0</ele><time>2026-04-04T08:48:11.046Z</time></trkpt><trkpt lat="43.4813048" lon="10.7426874"><ele>114.0</ele><time>2026-04-04T08:48:12.077Z</time></trkpt><trkpt lat="43.4813302" lon="10.7425676"><ele>114.0</ele><time>2026-04-04T08:48:13.042Z</time></trkpt><trkpt lat="43.4813431" lon="10.7424403"><ele>114.0</ele><time>2026-04-04T08:48:14.037Z</time></trkpt><trkpt lat="43.4813462" lon="10.742309"><ele>114.0</ele><time>2026-04-04T08:48:15.042Z</time></trkpt><trkpt lat="43.48134" lon="10.7421834"><ele>114.2</ele><time>2026-04-04T08:48:16.065Z</time></trkpt><trkpt lat="43.4813273" lon="10.742055"><ele>114.4</ele><time>2026-04-04T08:48:17.048Z</time></trkpt><trkpt lat="43.4813055" lon="10.7419277"><ele>114.6</ele><time>2026-04-04T08:48:18.041Z</time></trkpt><trkpt lat="43.4812781" lon="10.7418076"><ele>114.8</ele><time>2026-04-04T08:48:19.042Z</time></trkpt><trkpt lat="43.4812473" lon="10.741681"><ele>115.0</ele><time>2026-04-04T08:48:20.061Z</time></trkpt><trkpt lat="43.4812108" lon="10.7415559"><ele>115.8</ele><time>2026-04-04T08:48:21.039Z</time></trkpt><trkpt lat="43.4811735" lon="10.74143"><ele>116.6</ele><time>2026-04-04T08:48:22.056Z</time></trkpt><trkpt lat="43.4811358" lon="10.7412949"><ele>117.4</ele><time>2026-04-04T08:48:23.041Z</time></trkpt><trkpt lat="43.4810969" lon="10.7411536"><ele>118.2</ele><time>2026-04-04T08:48:24.067Z</time></trkpt><trkpt lat="43.4810615" lon="10.7410051"><ele>119.0</ele><time>2026-04-04T08:48:25.05Z</time></trkpt><trkpt lat="43.4810322" lon="10.7408596"><ele>119.0</ele><time>2026-04-04T08:48:26.049Z</time></trkpt><trkpt lat="43.4810143" lon="10.7407178"><ele>119.0</ele><time>2026-04-04T08:48:27.044Z</time></trkpt><trkpt lat="43.4810082" lon="10.7405699"><ele>119.0</ele><time>2026-04-04T08:48:28.054Z</time></trkpt><trkpt lat="43.481012" lon="10.7404085"><ele>119.0</ele><time>2026-04-04T08:48:29.038Z</time></trkpt><trkpt lat="43.4810181" lon="10.7402476"><ele>119.0</ele><time>2026-04-04T08:48:30.032Z</time></trkpt><trkpt lat="43.4810177" lon="10.7400987"><ele>119.0</ele><time>2026-04-04T08:48:31.037Z</time></trkpt><trkpt lat="43.4810104" lon="10.7399486"><ele>119.0</ele><time>2026-04-04T08:48:32.03Z</time></trkpt><trkpt lat="43.4809904" lon="10.7397941"><ele>119.0</ele><time>2026-04-04T08:48:33.033Z</time></trkpt><trkpt lat="43.4809543" lon="10.7396413"><ele>119.0</ele><time>2026-04-04T08:48:34.032Z</time></trkpt><trkpt lat="43.4809176" lon="10.7395019"><ele>119.0</ele><time>2026-04-04T08:48:35.043Z</time></trkpt><trkpt lat="43.4808817" lon="10.739374"><ele>118.4</ele><time>2026-04-04T08:48:36.043Z</time></trkpt><trkpt lat="43.4808575" lon="10.7392621"><ele>117.80000000000001</ele><time>2026-04-04T08:48:37.04Z</time></trkpt><trkpt lat="43.4808306" lon="10.7391451"><ele>117.19999999999999</ele><time>2026-04-04T08:48:38.043Z</time></trkpt><trkpt lat="43.4808018" lon="10.7390185"><ele>116.6</ele><time>2026-04-04T08:48:39.052Z</time></trkpt><trkpt lat="43.4807758" lon="10.7388735"><ele>116.0</ele><time>2026-04-04T08:48:40.048Z</time></trkpt><trkpt lat="43.4807611" lon="10.7387279"><ele>116.0</ele><time>2026-04-04T08:48:41.045Z</time></trkpt><trkpt lat="43.4807525" lon="10.7385802"><ele>116.0</ele><time>2026-04-04T08:48:42.04Z</time></trkpt><trkpt lat="43.4807507" lon="10.7384363"><ele>116.0</ele><time>2026-04-04T08:48:43.038Z</time></trkpt><trkpt lat="43.480747" lon="10.7382893"><ele>116.0</ele><time>2026-04-04T08:48:44.029Z</time></trkpt><trkpt lat="43.4807395" lon="10.7381315"><ele>116.0</ele><time>2026-04-04T08:48:45.04Z</time></trkpt><trkpt lat="43.4807284" lon="10.7380012"><ele>116.16666666666666</ele><time>2026-04-04T08:48:46.031Z</time></trkpt><trkpt lat="43.4807075" lon="10.7378896"><ele>116.33333333333333</ele><time>2026-04-04T08:48:47.044Z</time></trkpt><trkpt lat="43.4806763" lon="10.7377824"><ele>116.5</ele><time>2026-04-04T08:48:48.03Z</time></trkpt><trkpt lat="43.480635" lon="10.7376742"><ele>116.66666666666666</ele><time>2026-04-04T08:48:49.035Z</time></trkpt><trkpt lat="43.4805843" lon="10.7375693"><ele>116.83333333333333</ele><time>2026-04-04T08:48:50.025Z</time></trkpt><trkpt lat="43.4805222" lon="10.7374741"><ele>117.0</ele><time>2026-04-04T08:48:51.049Z</time></trkpt><trkpt lat="43.4804506" lon="10.7373887"><ele>117.66666666666667</ele><time>2026-04-04T08:48:52.072Z</time></trkpt><trkpt lat="43.4803866" lon="10.7373273"><ele>118.33333333333334</ele><time>2026-04-04T08:48:53.036Z</time></trkpt><trkpt lat="43.4803226" lon="10.7372749"><ele>119.0</ele><time>2026-04-04T08:48:54.049Z</time></trkpt><trkpt lat="43.4802493" lon="10.7372087"><ele>119.66666666666667</ele><time>2026-04-04T08:48:55.049Z</time></trkpt><trkpt lat="43.4801623" lon="10.7371476"><ele>120.33333333333334</ele><time>2026-04-04T08:48:56.064Z</time></trkpt><trkpt lat="43.4800727" lon="10.7370771"><ele>121.0</ele><time>2026-04-04T08:48:57.043Z</time></trkpt><trkpt lat="43.4799838" lon="10.7370005"><ele>121.0</ele><time>2026-04-04T08:48:58.047Z</time></trkpt><trkpt lat="43.4798975" lon="10.736924"><ele>121.0</ele><time>2026-04-04T08:48:59.035Z</time></trkpt><trkpt lat="43.4798069" lon="10.7368362"><ele>121.0</ele><time>2026-04-04T08:49:00.048Z</time></trkpt><trkpt lat="43.4797157" lon="10.7367284"><ele>121.0</ele><time>2026-04-04T08:49:01.058Z</time></trkpt><trkpt lat="43.4796309" lon="10.7366154"><ele>122.75</ele><time>2026-04-04T08:49:02.041Z</time></trkpt><trkpt lat="43.4795448" lon="10.7365023"><ele>124.5</ele><time>2026-04-04T08:49:03.043Z</time></trkpt><trkpt lat="43.4794488" lon="10.7364029"><ele>126.25</ele><time>2026-04-04T08:49:04.042Z</time></trkpt><trkpt lat="43.4793411" lon="10.7363245"><ele>128.0</ele><time>2026-04-04T08:49:05.045Z</time></trkpt><trkpt lat="43.4792205" lon="10.7362603"><ele>128.0</ele><time>2026-04-04T08:49:06.035Z</time></trkpt><trkpt lat="43.4791083" lon="10.7361826"><ele>128.0</ele><time>2026-04-04T08:49:07.038Z</time></trkpt><trkpt lat="43.4790088" lon="10.7360849"><ele>128.0</ele><time>2026-04-04T08:49:08.039Z</time></trkpt><trkpt lat="43.4789282" lon="10.7359486"><ele>128.0</ele><time>2026-04-04T08:49:09.044Z</time></trkpt><trkpt lat="43.4788709" lon="10.735799"><ele>130.5</ele><time>2026-04-04T08:49:10.042Z</time></trkpt><trkpt lat="43.478827" lon="10.7356435"><ele>133.0</ele><time>2026-04-04T08:49:11.057Z</time></trkpt><trkpt lat="43.4787893" lon="10.7354848"><ele>135.5</ele><time>2026-04-04T08:49:12.06Z</time></trkpt><trkpt lat="43.478752" lon="10.7353157"><ele>138.0</ele><time>2026-04-04T08:49:13.051Z</time></trkpt><trkpt lat="43.478716" lon="10.7351368"><ele>142.0</ele><time>2026-04-04T08:49:14.034Z</time></trkpt><trkpt lat="43.4786743" lon="10.7349507"><ele>146.0</ele><time>2026-04-04T08:49:15.043Z</time></trkpt><trkpt lat="43.4786408" lon="10.7347529"><ele>150.0</ele><time>2026-04-04T08:49:16.037Z</time></trkpt><trkpt lat="43.478621" lon="10.7345549"><ele>154.0</ele><time>2026-04-04T08:49:17.041Z</time></trkpt><trkpt lat="43.4786186" lon="10.7343699"><ele>155.5</ele><time>2026-04-04T08:49:18.024Z</time></trkpt><trkpt lat="43.4786153" lon="10.734202"><ele>157.0</ele><time>2026-04-04T08:49:19.059Z</time></trkpt><trkpt lat="43.4785912" lon="10.7340351"><ele>158.5</ele><time>2026-04-04T08:49:20.033Z</time></trkpt><trkpt lat="43.4785478" lon="10.7338712"><ele>160.0</ele><time>2026-04-04T08:49:21.033Z</time></trkpt><trkpt lat="43.4785014" lon="10.7337148"><ele>160.0</ele><time>2026-04-04T08:49:22.049Z</time></trkpt><trkpt lat="43.4784586" lon="10.7335817"><ele>160.0</ele><time>2026-04-04T08:49:23.036Z</time></trkpt><trkpt lat="43.478423" lon="10.7334801"><ele>160.0</ele><time>2026-04-04T08:49:24.041Z</time></trkpt><trkpt lat="43.4783049" lon="10.7334255"><ele>160.0</ele><time>2026-04-04T08:49:26.026Z</time></trkpt><trkpt lat="43.4782351" lon="10.7334262"><ele>160.0</ele><time>2026-04-04T08:49:27.033Z</time></trkpt><trkpt lat="43.478167" lon="10.7333941"><ele>159.8</ele><time>2026-04-04T08:49:28.032Z</time></trkpt><trkpt lat="43.4781002" lon="10.7333202"><ele>159.6</ele><time>2026-04-04T08:49:29.042Z</time></trkpt><trkpt lat="43.4780346" lon="10.7331921"><ele>159.4</ele><time>2026-04-04T08:49:30.034Z</time></trkpt><trkpt lat="43.4779735" lon="10.7330467"><ele>159.2</ele><time>2026-04-04T08:49:31.033Z</time></trkpt><trkpt lat="43.4779217" lon="10.7329219"><ele>159.0</ele><time>2026-04-04T08:49:32.034Z</time></trkpt><trkpt lat="43.4778929" lon="10.7328393"><ele>159.0</ele><time>2026-04-04T08:49:33.036Z</time></trkpt><trkpt lat="43.4778683" lon="10.7327566"><ele>159.0</ele><time>2026-04-04T08:49:34.027Z</time></trkpt><trkpt lat="43.4778512" lon="10.7326677"><ele>159.0</ele><time>2026-04-04T08:49:35.036Z</time></trkpt><trkpt lat="43.4778431" lon="10.7325559"><ele>159.0</ele><time>2026-04-04T08:49:36.039Z</time></trkpt><trkpt lat="43.4778284" lon="10.7324183"><ele>159.0</ele><time>2026-04-04T08:49:37.035Z</time></trkpt><trkpt lat="43.4778156" lon="10.7322793"><ele>159.0</ele><time>2026-04-04T08:49:38.021Z</time></trkpt><trkpt lat="43.4778049" lon="10.7321651"><ele>161.0</ele><time>2026-04-04T08:49:39.039Z</time></trkpt><trkpt lat="43.4778097" lon="10.7320558"><ele>163.0</ele><time>2026-04-04T08:49:41.036Z</time></trkpt><trkpt lat="43.4777298" lon="10.7319395"><ele>165.0</ele><time>2026-04-04T08:49:44.029Z</time></trkpt><trkpt lat="43.4776633" lon="10.7318841"><ele>167.0</ele><time>2026-04-04T08:49:45.042Z</time></trkpt><trkpt lat="43.4775835" lon="10.7317733"><ele>169.0</ele><time>2026-04-04T08:49:46.029Z</time></trkpt><trkpt lat="43.4775203" lon="10.7316035"><ele>172.25</ele><time>2026-04-04T08:49:47.041Z</time></trkpt><trkpt lat="43.4774793" lon="10.73142"><ele>175.5</ele><time>2026-04-04T08:49:48.043Z</time></trkpt><trkpt lat="43.477455" lon="10.7312251"><ele>178.75</ele><time>2026-04-04T08:49:49.037Z</time></trkpt><trkpt lat="43.4774365" lon="10.7310248"><ele>182.0</ele><time>2026-04-04T08:49:50.045Z</time></trkpt><trkpt lat="43.4774124" lon="10.7308214"><ele>184.66666666666666</ele><time>2026-04-04T08:49:51.033Z</time></trkpt><trkpt lat="43.4773807" lon="10.7306191"><ele>187.33333333333334</ele><time>2026-04-04T08:49:52.036Z</time></trkpt><trkpt lat="43.4773292" lon="10.7304202"><ele>190.0</ele><time>2026-04-04T08:49:53.04Z</time></trkpt><trkpt lat="43.4772592" lon="10.7302353"><ele>192.5</ele><time>2026-04-04T08:49:54.031Z</time></trkpt><trkpt lat="43.4771881" lon="10.7300591"><ele>195.0</ele><time>2026-04-04T08:49:55.043Z</time></trkpt><trkpt lat="43.4771408" lon="10.7298922"><ele>197.5</ele><time>2026-04-04T08:49:56.027Z</time></trkpt><trkpt lat="43.4771196" lon="10.7297299"><ele>200.0</ele><time>2026-04-04T08:49:57.031Z</time></trkpt><trkpt lat="43.4771057" lon="10.7295799"><ele>200.33333333333334</ele><time>2026-04-04T08:49:58.032Z</time></trkpt><trkpt lat="43.4770874" lon="10.7294538"><ele>200.66666666666669</ele><time>2026-04-04T08:49:59.033Z</time></trkpt><trkpt lat="43.4770492" lon="10.7293485"><ele>201.0</ele><time>2026-04-04T08:50:00.038Z</time></trkpt><trkpt lat="43.4769921" lon="10.7292903"><ele>201.33333333333331</ele><time>2026-04-04T08:50:01.033Z</time></trkpt><trkpt lat="43.4769243" lon="10.7292666"><ele>201.66666666666666</ele><time>2026-04-04T08:50:02.022Z</time></trkpt><trkpt lat="43.4768464" lon="10.7292631"><ele>202.0</ele><time>2026-04-04T08:50:03.024Z</time></trkpt><trkpt lat="43.4767583" lon="10.729264"><ele>202.66666666666666</ele><time>2026-04-04T08:50:04.033Z</time></trkpt><trkpt lat="43.4766824" lon="10.7292495"><ele>203.33333333333331</ele><time>2026-04-04T08:50:05.037Z</time></trkpt><trkpt lat="43.4766088" lon="10.729222"><ele>204.0</ele><time>2026-04-04T08:50:06.019Z</time></trkpt><trkpt lat="43.4765316" lon="10.7291762"><ele>204.66666666666669</ele><time>2026-04-04T08:50:07.028Z</time></trkpt><trkpt lat="43.4764638" lon="10.7291251"><ele>205.33333333333334</ele><time>2026-04-04T08:50:08.033Z</time></trkpt><trkpt lat="43.4763973" lon="10.7290858"><ele>206.0</ele><time>2026-04-04T08:50:09.044Z</time></trkpt><trkpt lat="43.4763265" lon="10.7290439"><ele>205.85714285714283</ele><time>2026-04-04T08:50:10.02Z</time></trkpt><trkpt lat="43.4762677" lon="10.7289919"><ele>205.71428571428572</ele><time>2026-04-04T08:50:11.03Z</time></trkpt><trkpt lat="43.4762087" lon="10.7289342"><ele>205.57142857142856</ele><time>2026-04-04T08:50:12.028Z</time></trkpt><trkpt lat="43.476152" lon="10.7288701"><ele>205.42857142857142</ele><time>2026-04-04T08:50:13.029Z</time></trkpt><trkpt lat="43.4760949" lon="10.7288002"><ele>205.28571428571428</ele><time>2026-04-04T08:50:14.036Z</time></trkpt><trkpt lat="43.4760383" lon="10.7287279"><ele>205.14285714285714</ele><time>2026-04-04T08:50:15.021Z</time></trkpt><trkpt lat="43.4759885" lon="10.7286578"><ele>205.0</ele><time>2026-04-04T08:50:16.026Z</time></trkpt><trkpt lat="43.4759089" lon="10.7285441"><ele>206.6</ele><time>2026-04-04T08:50:18.02Z</time></trkpt><trkpt lat="43.47584" lon="10.728438"><ele>208.2</ele><time>2026-04-04T08:50:20.024Z</time></trkpt><trkpt lat="43.4757771" lon="10.7283338"><ele>209.8</ele><time>2026-04-04T08:50:22.028Z</time></trkpt><trkpt lat="43.4757165" lon="10.7282521"><ele>211.4</ele><time>2026-04-04T08:50:24.029Z</time></trkpt><trkpt lat="43.4756709" lon="10.7281736"><ele>213.0</ele><time>2026-04-04T08:50:26.029Z</time></trkpt><trkpt lat="43.4756144" lon="10.7280684"><ele>213.0</ele><time>2026-04-04T08:50:29.036Z</time></trkpt><trkpt lat="43.4755645" lon="10.72801"><ele>213.0</ele><time>2026-04-04T08:50:32.024Z</time></trkpt><trkpt lat="43.4754974" lon="10.7279271"><ele>213.0</ele><time>2026-04-04T08:50:34.023Z</time></trkpt><trkpt lat="43.4754675" lon="10.7277599"><ele>213.0</ele><time>2026-04-04T08:50:36.02Z</time></trkpt><trkpt lat="43.475464" lon="10.7276458"><ele>213.0</ele><time>2026-04-04T08:50:38.018Z</time></trkpt><trkpt lat="43.4754075" lon="10.7275735"><ele>213.0</ele><time>2026-04-04T08:50:40.03Z</time></trkpt><trkpt lat="43.4753181" lon="10.7275123"><ele>213.16666666666666</ele><time>2026-04-04T08:50:42.03Z</time></trkpt><trkpt lat="43.4752483" lon="10.7274537"><ele>213.33333333333331</ele><time>2026-04-04T08:50:43.027Z</time></trkpt><trkpt lat="43.4751991" lon="10.7273769"><ele>213.5</ele><time>2026-04-04T08:50:44.025Z</time></trkpt><trkpt lat="43.4751856" lon="10.7272771"><ele>213.66666666666666</ele><time>2026-04-04T08:50:45.031Z</time></trkpt><trkpt lat="43.4751718" lon="10.7271806"><ele>213.83333333333331</ele><time>2026-04-04T08:50:46.035Z</time></trkpt><trkpt lat="43.4751011" lon="10.7270567"><ele>214.0</ele><time>2026-04-04T08:50:48.029Z</time></trkpt><trkpt lat="43.475009" lon="10.7270095"><ele>213.99999999999997</ele><time>2026-04-04T08:50:50.034Z</time></trkpt><trkpt lat="43.4749438" lon="10.7270198"><ele>214.0</ele><time>2026-04-04T08:50:51.025Z</time></trkpt><trkpt lat="43.474862" lon="10.727036"><ele>214.0</ele><time>2026-04-04T08:50:52.023Z</time></trkpt><trkpt lat="43.4747811" lon="10.7270357"><ele>214.0</ele><time>2026-04-04T08:50:53.031Z</time></trkpt><trkpt lat="43.4747074" lon="10.7270117"><ele>213.99999999999997</ele><time>2026-04-04T08:50:54.044Z</time></trkpt><trkpt lat="43.4746354" lon="10.7269568"><ele>214.0</ele><time>2026-04-04T08:50:55.024Z</time></trkpt><trkpt lat="43.4745762" lon="10.7268722"><ele>210.5</ele><time>2026-04-04T08:50:56.03Z</time></trkpt><trkpt lat="43.4745105" lon="10.7267517"><ele>207.0</ele><time>2026-04-04T08:50:57.023Z</time></trkpt><trkpt lat="43.4744471" lon="10.7266218"><ele>203.5</ele><time>2026-04-04T08:50:58.022Z</time></trkpt><trkpt lat="43.4743925" lon="10.7264859"><ele>200.0</ele><time>2026-04-04T08:50:59.024Z</time></trkpt><trkpt lat="43.474343" lon="10.7263362"><ele>200.0</ele><time>2026-04-04T08:51:00.025Z</time></trkpt><trkpt lat="43.4743052" lon="10.726194"><ele>200.0</ele><time>2026-04-04T08:51:01.029Z</time></trkpt><trkpt lat="43.4742636" lon="10.7260482"><ele>200.0</ele><time>2026-04-04T08:51:02.02Z</time></trkpt><trkpt lat="43.4741843" lon="10.7259668"><ele>200.0</ele><time>2026-04-04T08:51:03.019Z</time></trkpt><trkpt lat="43.4740649" lon="10.7259811"><ele>200.0</ele><time>2026-04-04T08:51:04.023Z</time></trkpt><trkpt lat="43.4739448" lon="10.7260234"><ele>200.0</ele><time>2026-04-04T08:51:05.023Z</time></trkpt><trkpt lat="43.4738256" lon="10.7261124"><ele>200.0</ele><time>2026-04-04T08:51:06.018Z</time></trkpt><trkpt lat="43.4737041" lon="10.7262159"><ele>200.0</ele><time>2026-04-04T08:51:07.031Z</time></trkpt><trkpt lat="43.4735694" lon="10.7263217"><ele>200.0</ele><time>2026-04-04T08:51:08.019Z</time></trkpt><trkpt lat="43.4734364" lon="10.7263862"><ele>197.66666666666669</ele><time>2026-04-04T08:51:09.02Z</time></trkpt><trkpt lat="43.4732924" lon="10.7264545"><ele>195.33333333333331</ele><time>2026-04-04T08:51:10.009Z</time></trkpt><trkpt lat="43.4731445" lon="10.7265196"><ele>193.0</ele><time>2026-04-04T08:51:11.027Z</time></trkpt><trkpt lat="43.4730028" lon="10.7265842"><ele>191.25</ele><time>2026-04-04T08:51:12.017Z</time></trkpt><trkpt lat="43.4728719" lon="10.7266529"><ele>189.5</ele><time>2026-04-04T08:51:13.022Z</time></trkpt><trkpt lat="43.4727446" lon="10.7267285"><ele>187.75</ele><time>2026-04-04T08:51:14.026Z</time></trkpt><trkpt lat="43.4726289" lon="10.7267954"><ele>186.0</ele><time>2026-04-04T08:51:15.024Z</time></trkpt><trkpt lat="43.4725221" lon="10.7268535"><ele>186.0</ele><time>2026-04-04T08:51:16.019Z</time></trkpt><trkpt lat="43.472434" lon="10.7268935"><ele>186.0</ele><time>2026-04-04T08:51:17.019Z</time></trkpt><trkpt lat="43.4723671" lon="10.7269283"><ele>186.0</ele><time>2026-04-04T08:51:18.016Z</time></trkpt><trkpt lat="43.4722779" lon="10.7270588"><ele>186.0</ele><time>2026-04-04T08:51:20.02Z</time></trkpt><trkpt lat="43.4722364" lon="10.727191"><ele>186.0</ele><time>2026-04-04T08:51:21.026Z</time></trkpt><trkpt lat="43.4721958" lon="10.7273475"><ele>188.5</ele><time>2026-04-04T08:51:22.025Z</time></trkpt><trkpt lat="43.4721485" lon="10.7275014"><ele>191.0</ele><time>2026-04-04T08:51:23.027Z</time></trkpt><trkpt lat="43.4720785" lon="10.7276438"><ele>193.5</ele><time>2026-04-04T08:51:24.025Z</time></trkpt><trkpt lat="43.4720145" lon="10.7277956"><ele>196.0</ele><time>2026-04-04T08:51:25.021Z</time></trkpt><trkpt lat="43.4719573" lon="10.7279299"><ele>197.49999999999997</ele><time>2026-04-04T08:51:26.011Z</time></trkpt><trkpt lat="43.4719201" lon="10.7280394"><ele>199.0</ele><time>2026-04-04T08:51:27.015Z</time></trkpt><trkpt lat="43.471892" lon="10.7281465"><ele>200.5</ele><time>2026-04-04T08:51:28.018Z</time></trkpt><trkpt lat="43.4718839" lon="10.7282491"><ele>202.0</ele><time>2026-04-04T08:51:29.025Z</time></trkpt><trkpt lat="43.4718606" lon="10.7283944"><ele>203.49999999999997</ele><time>2026-04-04T08:51:31.02Z</time></trkpt><trkpt lat="43.4717954" lon="10.728444"><ele>205.0</ele><time>2026-04-04T08:51:32.023Z</time></trkpt><trkpt lat="43.4717045" lon="10.7284833"><ele>205.0</ele><time>2026-04-04T08:51:33.034Z</time></trkpt><trkpt lat="43.4716057" lon="10.7285185"><ele>205.0</ele><time>2026-04-04T08:51:34.028Z</time></trkpt><trkpt lat="43.4715143" lon="10.7285579"><ele>205.0</ele><time>2026-04-04T08:51:35.037Z</time></trkpt><trkpt lat="43.4714274" lon="10.7285956"><ele>205.0</ele><time>2026-04-04T08:51:36.034Z</time></trkpt><trkpt lat="43.4713375" lon="10.7286315"><ele>205.0</ele><time>2026-04-04T08:51:37.035Z</time></trkpt><trkpt lat="43.4712461" lon="10.7286781"><ele>204.8</ele><time>2026-04-04T08:51:38.025Z</time></trkpt><trkpt lat="43.4711508" lon="10.7287306"><ele>204.6</ele><time>2026-04-04T08:51:39.018Z</time></trkpt><trkpt lat="43.4710527" lon="10.7287883"><ele>204.39999999999998</ele><time>2026-04-04T08:51:40.036Z</time></trkpt><trkpt lat="43.4709532" lon="10.7288693"><ele>204.2</ele><time>2026-04-04T08:51:41.038Z</time></trkpt><trkpt lat="43.4708556" lon="10.7289477"><ele>204.0</ele><time>2026-04-04T08:51:42.024Z</time></trkpt><trkpt lat="43.4707728" lon="10.7290262"><ele>204.0</ele><time>2026-04-04T08:51:43.03Z</time></trkpt><trkpt lat="43.4707012" lon="10.7290916"><ele>204.0</ele><time>2026-04-04T08:51:44.024Z</time></trkpt><trkpt lat="43.4706128" lon="10.7291749"><ele>204.0</ele><time>2026-04-04T08:51:46.017Z</time></trkpt><trkpt lat="43.4705598" lon="10.7292235"><ele>204.0</ele><time>2026-04-04T08:51:48.013Z</time></trkpt><trkpt lat="43.4704959" lon="10.7292935"><ele>204.0</ele><time>2026-04-04T08:51:51.033Z</time></trkpt><trkpt lat="43.4704813" lon="10.7294726"><ele>202.6</ele><time>2026-04-04T08:51:54.038Z</time></trkpt><trkpt lat="43.4705071" lon="10.7296072"><ele>201.2</ele><time>2026-04-04T08:51:55.042Z</time></trkpt><trkpt lat="43.4705364" lon="10.7297545"><ele>199.79999999999998</ele><time>2026-04-04T08:51:56.028Z</time></trkpt><trkpt lat="43.4705657" lon="10.7299115"><ele>198.39999999999998</ele><time>2026-04-04T08:51:57.04Z</time></trkpt><trkpt lat="43.4705952" lon="10.7300691"><ele>197.0</ele><time>2026-04-04T08:51:58.042Z</time></trkpt><trkpt lat="43.470625" lon="10.7302203"><ele>197.0</ele><time>2026-04-04T08:51:59.037Z</time></trkpt><trkpt lat="43.4706563" lon="10.73036"><ele>197.0</ele><time>2026-04-04T08:52:00.041Z</time></trkpt><trkpt lat="43.4706817" lon="10.730488"><ele>197.0</ele><time>2026-04-04T08:52:01.043Z</time></trkpt><trkpt lat="43.4707006" lon="10.730603"><ele>197.0</ele><time>2026-04-04T08:52:02.03Z</time></trkpt><trkpt lat="43.4707151" lon="10.7307136"><ele>197.0</ele><time>2026-04-04T08:52:03.029Z</time></trkpt><trkpt lat="43.4707164" lon="10.7308311"><ele>197.0</ele><time>2026-04-04T08:52:04.039Z</time></trkpt><trkpt lat="43.470705" lon="10.7309663"><ele>197.0</ele><time>2026-04-04T08:52:05.046Z</time></trkpt><trkpt lat="43.47069" lon="10.7311185"><ele>197.0</ele><time>2026-04-04T08:52:06.049Z</time></trkpt><trkpt lat="43.4706704" lon="10.7312815"><ele>197.0</ele><time>2026-04-04T08:52:07.029Z</time></trkpt><trkpt lat="43.4706506" lon="10.7314541"><ele>196.75</ele><time>2026-04-04T08:52:08.043Z</time></trkpt><trkpt lat="43.4706218" lon="10.7316477"><ele>196.5</ele><time>2026-04-04T08:52:09.038Z</time></trkpt><trkpt lat="43.4705952" lon="10.7318322"><ele>196.25</ele><time>2026-04-04T08:52:10.047Z</time></trkpt><trkpt lat="43.470559" lon="10.7320187"><ele>196.0</ele><time>2026-04-04T08:52:11.049Z</time></trkpt><trkpt lat="43.4705213" lon="10.7321964"><ele>193.75</ele><time>2026-04-04T08:52:12.032Z</time></trkpt><trkpt lat="43.4704893" lon="10.7323722"><ele>191.5</ele><time>2026-04-04T08:52:13.037Z</time></trkpt><trkpt lat="43.4704564" lon="10.7325525"><ele>189.25</ele><time>2026-04-04T08:52:14.042Z</time></trkpt><trkpt lat="43.470432" lon="10.7327453"><ele>187.0</ele><time>2026-04-04T08:52:15.049Z</time></trkpt><trkpt lat="43.4704177" lon="10.7329288"><ele>184.75</ele><time>2026-04-04T08:52:16.025Z</time></trkpt><trkpt lat="43.470401" lon="10.7331189"><ele>182.5</ele><time>2026-04-04T08:52:17.055Z</time></trkpt><trkpt lat="43.4703889" lon="10.7332924"><ele>180.25</ele><time>2026-04-04T08:52:18.051Z</time></trkpt><trkpt lat="43.4703754" lon="10.7334664"><ele>178.0</ele><time>2026-04-04T08:52:19.05Z</time></trkpt><trkpt lat="43.4703632" lon="10.733623"><ele>178.0</ele><time>2026-04-04T08:52:20.048Z</time></trkpt><trkpt lat="43.4703446" lon="10.7337754"><ele>178.0</ele><time>2026-04-04T08:52:21.036Z</time></trkpt><trkpt lat="43.4703318" lon="10.7339158"><ele>178.0</ele><time>2026-04-04T08:52:22.036Z</time></trkpt><trkpt lat="43.4703183" lon="10.7340298"><ele>178.0</ele><time>2026-04-04T08:52:23.036Z</time></trkpt><trkpt lat="43.4703101" lon="10.7341449"><ele>178.0</ele><time>2026-04-04T08:52:24.038Z</time></trkpt><trkpt lat="43.4703164" lon="10.7342488"><ele>178.0</ele><time>2026-04-04T08:52:25.055Z</time></trkpt><trkpt lat="43.4703277" lon="10.7343568"><ele>178.0</ele><time>2026-04-04T08:52:26.039Z</time></trkpt><trkpt lat="43.4703485" lon="10.7344741"><ele>178.0</ele><time>2026-04-04T08:52:27.032Z</time></trkpt><trkpt lat="43.4703704" lon="10.7345925"><ele>178.0</ele><time>2026-04-04T08:52:28.039Z</time></trkpt><trkpt lat="43.4703891" lon="10.7347091"><ele>178.0</ele><time>2026-04-04T08:52:29.042Z</time></trkpt><trkpt lat="43.4704043" lon="10.7348233"><ele>178.0</ele><time>2026-04-04T08:52:30.046Z</time></trkpt><trkpt lat="43.4704034" lon="10.7349427"><ele>178.0</ele><time>2026-04-04T08:52:31.026Z</time></trkpt><trkpt lat="43.4703956" lon="10.7350596"><ele>178.0</ele><time>2026-04-04T08:52:32.028Z</time></trkpt><trkpt lat="43.4703786" lon="10.7351766"><ele>178.0</ele><time>2026-04-04T08:52:33.047Z</time></trkpt><trkpt lat="43.4703643" lon="10.7352924"><ele>178.0</ele><time>2026-04-04T08:52:34.037Z</time></trkpt><trkpt lat="43.4703462" lon="10.7354072"><ele>178.0</ele><time>2026-04-04T08:52:35.054Z</time></trkpt><trkpt lat="43.4703338" lon="10.7355158"><ele>178.0</ele><time>2026-04-04T08:52:36.038Z</time></trkpt><trkpt lat="43.4703073" lon="10.7356152"><ele>175.33333333333334</ele><time>2026-04-04T08:52:37.033Z</time></trkpt><trkpt lat="43.4702876" lon="10.7357008"><ele>172.66666666666669</ele><time>2026-04-04T08:52:38.049Z</time></trkpt><trkpt lat="43.4702575" lon="10.7358481"><ele>170.0</ele><time>2026-04-04T08:52:40.033Z</time></trkpt><trkpt lat="43.4702245" lon="10.7359728"><ele>167.33333333333334</ele><time>2026-04-04T08:52:42.026Z</time></trkpt><trkpt lat="43.4701936" lon="10.7360495"><ele>164.66666666666666</ele><time>2026-04-04T08:52:43.037Z</time></trkpt><trkpt lat="43.4701521" lon="10.7361379"><ele>162.0</ele><time>2026-04-04T08:52:44.052Z</time></trkpt><trkpt lat="43.470106" lon="10.7362234"><ele>160.6</ele><time>2026-04-04T08:52:45.048Z</time></trkpt><trkpt lat="43.4700661" lon="10.7363036"><ele>159.2</ele><time>2026-04-04T08:52:46.043Z</time></trkpt><trkpt lat="43.4700101" lon="10.7364492"><ele>157.8</ele><time>2026-04-04T08:52:48.055Z</time></trkpt><trkpt lat="43.4699494" lon="10.7365973"><ele>156.4</ele><time>2026-04-04T08:52:50.044Z</time></trkpt><trkpt lat="43.469913" lon="10.7366842"><ele>155.0</ele><time>2026-04-04T08:52:51.043Z</time></trkpt><trkpt lat="43.4698724" lon="10.736777"><ele>155.0</ele><time>2026-04-04T08:52:52.06Z</time></trkpt><trkpt lat="43.4698296" lon="10.7368824"><ele>155.0</ele><time>2026-04-04T08:52:53.048Z</time></trkpt><trkpt lat="43.4697854" lon="10.736987"><ele>155.0</ele><time>2026-04-04T08:52:54.041Z</time></trkpt><trkpt lat="43.4697382" lon="10.7370923"><ele>155.0</ele><time>2026-04-04T08:52:55.052Z</time></trkpt><trkpt lat="43.4696874" lon="10.7371857"><ele>155.0</ele><time>2026-04-04T08:52:56.074Z</time></trkpt><trkpt lat="43.4696375" lon="10.7372714"><ele>155.0</ele><time>2026-04-04T08:52:57.046Z</time></trkpt><trkpt lat="43.4695899" lon="10.7373574"><ele>152.85714285714286</ele><time>2026-04-04T08:52:58.051Z</time></trkpt><trkpt lat="43.469547" lon="10.7374435"><ele>150.71428571428572</ele><time>2026-04-04T08:52:59.053Z</time></trkpt><trkpt lat="43.4695064" lon="10.7375337"><ele>148.57142857142856</ele><time>2026-04-04T08:53:00.031Z</time></trkpt><trkpt lat="43.4694661" lon="10.7376248"><ele>146.42857142857144</ele><time>2026-04-04T08:53:01.046Z</time></trkpt><trkpt lat="43.4694263" lon="10.7377121"><ele>144.28571428571428</ele><time>2026-04-04T08:53:02.044Z</time></trkpt><trkpt lat="43.4693825" lon="10.7377856"><ele>142.14285714285714</ele><time>2026-04-04T08:53:03.046Z</time></trkpt><trkpt lat="43.4693305" lon="10.7378552"><ele>140.0</ele><time>2026-04-04T08:53:04.049Z</time></trkpt><trkpt lat="43.4692722" lon="10.7379214"><ele>140.0</ele><time>2026-04-04T08:53:05.047Z</time></trkpt><trkpt lat="43.4692041" lon="10.7379847"><ele>140.0</ele><time>2026-04-04T08:53:06.047Z</time></trkpt><trkpt lat="43.4691233" lon="10.7380406"><ele>140.0</ele><time>2026-04-04T08:53:07.049Z</time></trkpt><trkpt lat="43.4690317" lon="10.7380817"><ele>140.0</ele><time>2026-04-04T08:53:08.045Z</time></trkpt><trkpt lat="43.4689356" lon="10.7380977"><ele>140.0</ele><time>2026-04-04T08:53:09.034Z</time></trkpt><trkpt lat="43.468849" lon="10.7381011"><ele>139.5</ele><time>2026-04-04T08:53:10.038Z</time></trkpt><trkpt lat="43.468769" lon="10.7381024"><ele>139.0</ele><time>2026-04-04T08:53:11.038Z</time></trkpt><trkpt lat="43.468691" lon="10.7381095"><ele>138.5</ele><time>2026-04-04T08:53:12.045Z</time></trkpt><trkpt lat="43.4686203" lon="10.7381204"><ele>138.0</ele><time>2026-04-04T08:53:13.046Z</time></trkpt><trkpt lat="43.4685157" lon="10.7381515"><ele>137.5</ele><time>2026-04-04T08:53:15.053Z</time></trkpt><trkpt lat="43.4684423" lon="10.7381961"><ele>137.0</ele><time>2026-04-04T08:53:17.047Z</time></trkpt><trkpt lat="43.468378" lon="10.7382182"><ele>137.00000000000003</ele><time>2026-04-04T08:53:19.043Z</time></trkpt><trkpt lat="43.4683014" lon="10.7381422"><ele>137.0</ele><time>2026-04-04T08:53:22.046Z</time></trkpt><trkpt lat="43.4682398" lon="10.7380894"><ele>137.0</ele><time>2026-04-04T08:53:25.037Z</time></trkpt><trkpt lat="43.4682065" lon="10.7381644"><ele>137.0</ele><time>2026-04-04T09:07:37.041Z</time></trkpt><trkpt lat="43.4682197" lon="10.7382521"><ele>137.0</ele><time>2026-04-04T09:07:41.023Z</time></trkpt><trkpt lat="43.4682918" lon="10.7382709"><ele>137.00000000000003</ele><time>2026-04-04T09:07:45.042Z</time></trkpt><trkpt lat="43.4682546" lon="10.7383655"><ele>137.0</ele><time>2026-04-04T09:07:49.041Z</time></trkpt><trkpt lat="43.4682053" lon="10.7384616"><ele>136.2</ele><time>2026-04-04T09:07:52.042Z</time></trkpt><trkpt lat="43.4681767" lon="10.7385821"><ele>135.39999999999998</ele><time>2026-04-04T09:07:55.064Z</time></trkpt><trkpt lat="43.4682105" lon="10.7387274"><ele>134.60000000000002</ele><time>2026-04-04T09:07:57.034Z</time></trkpt><trkpt lat="43.4682718" lon="10.7388601"><ele>133.8</ele><time>2026-04-04T09:07:59.032Z</time></trkpt><trkpt lat="43.4683124" lon="10.7389454"><ele>133.0</ele><time>2026-04-04T09:08:00.03Z</time></trkpt><trkpt lat="43.4683669" lon="10.7390359"><ele>133.0</ele><time>2026-04-04T09:08:01.037Z</time></trkpt><trkpt lat="43.4684172" lon="10.739129"><ele>133.0</ele><time>2026-04-04T09:08:02.043Z</time></trkpt><trkpt lat="43.4684613" lon="10.7392354"><ele>133.0</ele><time>2026-04-04T09:08:03.019Z</time></trkpt><trkpt lat="43.4684896" lon="10.7393464"><ele>133.0</ele><time>2026-04-04T09:08:04.02Z</time></trkpt><trkpt lat="43.4685107" lon="10.7394658"><ele>133.0</ele><time>2026-04-04T09:08:05.033Z</time></trkpt><trkpt lat="43.4685131" lon="10.7395855"><ele>133.0</ele><time>2026-04-04T09:08:06.039Z</time></trkpt><trkpt lat="43.4685027" lon="10.7397075"><ele>132.6</ele><time>2026-04-04T09:08:07.034Z</time></trkpt><trkpt lat="43.4684897" lon="10.7398304"><ele>132.20000000000002</ele><time>2026-04-04T09:08:08.032Z</time></trkpt><trkpt lat="43.4684757" lon="10.7399619"><ele>131.8</ele><time>2026-04-04T09:08:09.038Z</time></trkpt><trkpt lat="43.4684663" lon="10.7401049"><ele>131.4</ele><time>2026-04-04T09:08:10.014Z</time></trkpt><trkpt lat="43.4684651" lon="10.7402484"><ele>131.0</ele><time>2026-04-04T09:08:11.05Z</time></trkpt><trkpt lat="43.4684573" lon="10.7403846"><ele>131.0</ele><time>2026-04-04T09:08:12.025Z</time></trkpt><trkpt lat="43.4684372" lon="10.7405067"><ele>131.0</ele><time>2026-04-04T09:08:13.041Z</time></trkpt><trkpt lat="43.4684046" lon="10.7406107"><ele>131.0</ele><time>2026-04-04T09:08:14.042Z</time></trkpt><trkpt lat="43.4683605" lon="10.7407089"><ele>131.0</ele><time>2026-04-04T09:08:15.034Z</time></trkpt><trkpt lat="43.4683015" lon="10.7407988"><ele>131.0</ele><time>2026-04-04T09:08:16.034Z</time></trkpt><trkpt lat="43.4682249" lon="10.7408852"><ele>131.0</ele><time>2026-04-04T09:08:17.026Z</time></trkpt><trkpt lat="43.4681448" lon="10.740976"><ele>130.25</ele><time>2026-04-04T09:08:18.03Z</time></trkpt><trkpt lat="43.4680572" lon="10.7410795"><ele>129.5</ele><time>2026-04-04T09:08:19.046Z</time></trkpt><trkpt lat="43.4679744" lon="10.7411953"><ele>128.75</ele><time>2026-04-04T09:08:20.017Z</time></trkpt><trkpt lat="43.4679008" lon="10.7413379"><ele>128.0</ele><time>2026-04-04T09:08:21.013Z</time></trkpt><trkpt lat="43.4678332" lon="10.7414943"><ele>129.25</ele><time>2026-04-04T09:08:22.05Z</time></trkpt><trkpt lat="43.4677681" lon="10.741661"><ele>130.5</ele><time>2026-04-04T09:08:23.059Z</time></trkpt><trkpt lat="43.4677093" lon="10.7418335"><ele>131.75</ele><time>2026-04-04T09:08:24.039Z</time></trkpt><trkpt lat="43.4676515" lon="10.7419993"><ele>133.0</ele><time>2026-04-04T09:08:25.028Z</time></trkpt><trkpt lat="43.4675935" lon="10.7421611"><ele>133.0</ele><time>2026-04-04T09:08:26.034Z</time></trkpt><trkpt lat="43.4675338" lon="10.742318"><ele>133.0</ele><time>2026-04-04T09:08:27.04Z</time></trkpt><trkpt lat="43.4674693" lon="10.7424749"><ele>133.0</ele><time>2026-04-04T09:08:28.046Z</time></trkpt><trkpt lat="43.4674089" lon="10.742628"><ele>133.0</ele><time>2026-04-04T09:08:29.031Z</time></trkpt><trkpt lat="43.4673649" lon="10.7427842"><ele>132.25</ele><time>2026-04-04T09:08:30.048Z</time></trkpt><trkpt lat="43.467334" lon="10.7429444"><ele>131.5</ele><time>2026-04-04T09:08:31.045Z</time></trkpt><trkpt lat="43.467313" lon="10.7431099"><ele>130.75</ele><time>2026-04-04T09:08:32.043Z</time></trkpt><trkpt lat="43.4673015" lon="10.7432714"><ele>130.0</ele><time>2026-04-04T09:08:33.049Z</time></trkpt><trkpt lat="43.4672912" lon="10.7434392"><ele>131.25</ele><time>2026-04-04T09:08:34.027Z</time></trkpt><trkpt lat="43.4672752" lon="10.7436029"><ele>132.5</ele><time>2026-04-04T09:08:35.036Z</time></trkpt><trkpt lat="43.4672522" lon="10.7437676"><ele>133.75</ele><time>2026-04-04T09:08:36.024Z</time></trkpt><trkpt lat="43.4672291" lon="10.7439203"><ele>135.0</ele><time>2026-04-04T09:08:37.031Z</time></trkpt><trkpt lat="43.4672251" lon="10.7440686"><ele>135.0</ele><time>2026-04-04T09:08:38.039Z</time></trkpt><trkpt lat="43.4672529" lon="10.7442125"><ele>135.0</ele><time>2026-04-04T09:08:39.033Z</time></trkpt><trkpt lat="43.4673076" lon="10.7443352"><ele>135.0</ele><time>2026-04-04T09:08:40.029Z</time></trkpt><trkpt lat="43.4673903" lon="10.7444342"><ele>135.0</ele><time>2026-04-04T09:08:41.047Z</time></trkpt><trkpt lat="43.4674868" lon="10.7445217"><ele>135.0</ele><time>2026-04-04T09:08:42.044Z</time></trkpt><trkpt lat="43.4675869" lon="10.7445977"><ele>136.25</ele><time>2026-04-04T09:08:43.028Z</time></trkpt><trkpt lat="43.4676952" lon="10.7446634"><ele>137.5</ele><time>2026-04-04T09:08:44.036Z</time></trkpt><trkpt lat="43.4678014" lon="10.7447439"><ele>138.75</ele><time>2026-04-04T09:08:45.042Z</time></trkpt><trkpt lat="43.4679101" lon="10.7448317"><ele>140.0</ele><time>2026-04-04T09:08:46.021Z</time></trkpt><trkpt lat="43.4680179" lon="10.7449297"><ele>138.75</ele><time>2026-04-04T09:08:47.036Z</time></trkpt><trkpt lat="43.4681199" lon="10.7450447"><ele>137.5</ele><time>2026-04-04T09:08:48.029Z</time></trkpt><trkpt lat="43.4682039" lon="10.7451682"><ele>136.25</ele><time>2026-04-04T09:08:49.032Z</time></trkpt><trkpt lat="43.468277" lon="10.7453049"><ele>135.0</ele><time>2026-04-04T09:08:50.047Z</time></trkpt><trkpt lat="43.468338" lon="10.7454572"><ele>135.0</ele><time>2026-04-04T09:08:51.044Z</time></trkpt><trkpt lat="43.4683911" lon="10.745616"><ele>135.0</ele><time>2026-04-04T09:08:52.037Z</time></trkpt><trkpt lat="43.4684361" lon="10.745785"><ele>135.0</ele><time>2026-04-04T09:08:53.033Z</time></trkpt><trkpt lat="43.4684793" lon="10.745956"><ele>135.0</ele><time>2026-04-04T09:08:54.034Z</time></trkpt><trkpt lat="43.4685146" lon="10.7461248"><ele>135.25</ele><time>2026-04-04T09:08:55.049Z</time></trkpt><trkpt lat="43.4685552" lon="10.7462941"><ele>135.5</ele><time>2026-04-04T09:08:56.028Z</time></trkpt><trkpt lat="43.4686006" lon="10.7464603"><ele>135.75</ele><time>2026-04-04T09:08:57.032Z</time></trkpt><trkpt lat="43.4686575" lon="10.7466198"><ele>136.0</ele><time>2026-04-04T09:08:58.033Z</time></trkpt><trkpt lat="43.4687312" lon="10.7467742"><ele>134.0</ele><time>2026-04-04T09:08:59.025Z</time></trkpt><trkpt lat="43.468824" lon="10.7469092"><ele>132.0</ele><time>2026-04-04T09:09:00.032Z</time></trkpt><trkpt lat="43.4689269" lon="10.7470279"><ele>130.0</ele><time>2026-04-04T09:09:01.037Z</time></trkpt><trkpt lat="43.4690302" lon="10.7471362"><ele>128.0</ele><time>2026-04-04T09:09:02.037Z</time></trkpt><trkpt lat="43.4691385" lon="10.7472367"><ele>128.0</ele><time>2026-04-04T09:09:03.029Z</time></trkpt><trkpt lat="43.4692476" lon="10.7473296"><ele>128.0</ele><time>2026-04-04T09:09:04.038Z</time></trkpt><trkpt lat="43.4693574" lon="10.7474197"><ele>128.0</ele><time>2026-04-04T09:09:05.056Z</time></trkpt><trkpt lat="43.4694631" lon="10.7475112"><ele>128.0</ele><time>2026-04-04T09:09:06.022Z</time></trkpt><trkpt lat="43.4695729" lon="10.7476059"><ele>126.75</ele><time>2026-04-04T09:09:07.028Z</time></trkpt><trkpt lat="43.4696739" lon="10.7477038"><ele>125.5</ele><time>2026-04-04T09:09:08.028Z</time></trkpt><trkpt lat="43.4697747" lon="10.7478021"><ele>124.25</ele><time>2026-04-04T09:09:09.035Z</time></trkpt><trkpt lat="43.4698764" lon="10.7478872"><ele>123.0</ele><time>2026-04-04T09:09:10.03Z</time></trkpt><trkpt lat="43.4699815" lon="10.7479665"><ele>122.75</ele><time>2026-04-04T09:09:11.04Z</time></trkpt><trkpt lat="43.4700929" lon="10.7480434"><ele>122.5</ele><time>2026-04-04T09:09:12.018Z</time></trkpt><trkpt lat="43.4702082" lon="10.7481161"><ele>122.25</ele><time>2026-04-04T09:09:13.035Z</time></trkpt><trkpt lat="43.4703316" lon="10.7481864"><ele>122.0</ele><time>2026-04-04T09:09:14.051Z</time></trkpt><trkpt lat="43.4704579" lon="10.7482558"><ele>122.0</ele><time>2026-04-04T09:09:15.028Z</time></trkpt><trkpt lat="43.4705904" lon="10.7483153"><ele>122.0</ele><time>2026-04-04T09:09:16.029Z</time></trkpt><trkpt lat="43.4707149" lon="10.7483916"><ele>122.0</ele><time>2026-04-04T09:09:17.027Z</time></trkpt><trkpt lat="43.4708413" lon="10.7484785"><ele>122.0</ele><time>2026-04-04T09:09:18.012Z</time></trkpt><trkpt lat="43.4709599" lon="10.748567"><ele>121.75</ele><time>2026-04-04T09:09:19.02Z</time></trkpt><trkpt lat="43.4710751" lon="10.7486671"><ele>121.5</ele><time>2026-04-04T09:09:20.024Z</time></trkpt><trkpt lat="43.4711785" lon="10.7487871"><ele>121.25</ele><time>2026-04-04T09:09:21.04Z</time></trkpt><trkpt lat="43.4712715" lon="10.7489179"><ele>121.0</ele><time>2026-04-04T09:09:22.036Z</time></trkpt><trkpt lat="43.4713511" lon="10.7490685"><ele>121.0</ele><time>2026-04-04T09:09:23.029Z</time></trkpt><trkpt lat="43.4714185" lon="10.7492309"><ele>121.0</ele><time>2026-04-04T09:09:24.045Z</time></trkpt><trkpt lat="43.471479" lon="10.7493922"><ele>121.0</ele><time>2026-04-04T09:09:25.045Z</time></trkpt><trkpt lat="43.4715384" lon="10.7495559"><ele>121.0</ele><time>2026-04-04T09:09:26.029Z</time></trkpt><trkpt lat="43.4715958" lon="10.7497168"><ele>121.5</ele><time>2026-04-04T09:09:27.025Z</time></trkpt><trkpt lat="43.4716535" lon="10.7498767"><ele>122.0</ele><time>2026-04-04T09:09:28.023Z</time></trkpt><trkpt lat="43.4717151" lon="10.7500333"><ele>122.5</ele><time>2026-04-04T09:09:29.039Z</time></trkpt><trkpt lat="43.4717702" lon="10.7501889"><ele>123.0</ele><time>2026-04-04T09:09:30.037Z</time></trkpt><trkpt lat="43.4718218" lon="10.7503491"><ele>123.0</ele><time>2026-04-04T09:09:31.032Z</time></trkpt><trkpt lat="43.4718685" lon="10.7505154"><ele>123.0</ele><time>2026-04-04T09:09:32.037Z</time></trkpt><trkpt lat="43.471914" lon="10.7506818"><ele>123.0</ele><time>2026-04-04T09:09:33.022Z</time></trkpt><trkpt lat="43.471956" lon="10.7508479"><ele>123.0</ele><time>2026-04-04T09:09:34.042Z</time></trkpt><trkpt lat="43.471998" lon="10.7510219"><ele>123.25</ele><time>2026-04-04T09:09:35.041Z</time></trkpt><trkpt lat="43.4720327" lon="10.7511879"><ele>123.5</ele><time>2026-04-04T09:09:36.023Z</time></trkpt><trkpt lat="43.4720755" lon="10.7513566"><ele>123.75</ele><time>2026-04-04T09:09:37.016Z</time></trkpt><trkpt lat="43.4721195" lon="10.7515229"><ele>124.0</ele><time>2026-04-04T09:09:38.037Z</time></trkpt><trkpt lat="43.4721585" lon="10.7516913"><ele>124.0</ele><time>2026-04-04T09:09:39.031Z</time></trkpt><trkpt lat="43.4722056" lon="10.7518607"><ele>124.0</ele><time>2026-04-04T09:09:40.049Z</time></trkpt><trkpt lat="43.4722564" lon="10.7520294"><ele>124.0</ele><time>2026-04-04T09:09:41.04Z</time></trkpt><trkpt lat="43.472304" lon="10.7522079"><ele>124.0</ele><time>2026-04-04T09:09:42.02Z</time></trkpt><trkpt lat="43.4723562" lon="10.7523885"><ele>124.5</ele><time>2026-04-04T09:09:43.027Z</time></trkpt><trkpt lat="43.4724027" lon="10.7525663"><ele>125.0</ele><time>2026-04-04T09:09:44.04Z</time></trkpt><trkpt lat="43.4724513" lon="10.7527449"><ele>125.5</ele><time>2026-04-04T09:09:45.042Z</time></trkpt><trkpt lat="43.4724989" lon="10.7529203"><ele>126.0</ele><time>2026-04-04T09:09:46.032Z</time></trkpt><trkpt lat="43.4725481" lon="10.7530962"><ele>126.0</ele><time>2026-04-04T09:09:47.028Z</time></trkpt><trkpt lat="43.4725954" lon="10.7532694"><ele>126.0</ele><time>2026-04-04T09:09:48.047Z</time></trkpt><trkpt lat="43.4726404" lon="10.7534485"><ele>126.0</ele><time>2026-04-04T09:09:49.023Z</time></trkpt><trkpt lat="43.4726881" lon="10.7536212"><ele>126.0</ele><time>2026-04-04T09:09:50.036Z</time></trkpt><trkpt lat="43.4727346" lon="10.7537988"><ele>126.0</ele><time>2026-04-04T09:09:51.021Z</time></trkpt><trkpt lat="43.4727797" lon="10.7539775"><ele>126.0</ele><time>2026-04-04T09:09:52.04Z</time></trkpt><trkpt lat="43.4728272" lon="10.7541546"><ele>126.0</ele><time>2026-04-04T09:09:53.021Z</time></trkpt><trkpt lat="43.4728837" lon="10.7543284"><ele>126.0</ele><time>2026-04-04T09:09:54.042Z</time></trkpt><trkpt lat="43.472946" lon="10.7544999"><ele>126.0</ele><time>2026-04-04T09:09:55.028Z</time></trkpt><trkpt lat="43.4730102" lon="10.7546689"><ele>126.0</ele><time>2026-04-04T09:09:56.031Z</time></trkpt><trkpt lat="43.4730757" lon="10.7548392"><ele>126.0</ele><time>2026-04-04T09:09:57.032Z</time></trkpt><trkpt lat="43.4731482" lon="10.7550087"><ele>126.0</ele><time>2026-04-04T09:09:58.021Z</time></trkpt><trkpt lat="43.4732175" lon="10.7551804"><ele>126.25</ele><time>2026-04-04T09:09:59.027Z</time></trkpt><trkpt lat="43.4732812" lon="10.7553484"><ele>126.5</ele><time>2026-04-04T09:10:00.01Z</time></trkpt><trkpt lat="43.473338" lon="10.7555208"><ele>126.75</ele><time>2026-04-04T09:10:01.027Z</time></trkpt><trkpt lat="43.4733923" lon="10.7556906"><ele>127.0</ele><time>2026-04-04T09:10:02.014Z</time></trkpt><trkpt lat="43.4734503" lon="10.7558561"><ele>127.0</ele><time>2026-04-04T09:10:03.028Z</time></trkpt><trkpt lat="43.4735041" lon="10.7560239"><ele>127.0</ele><time>2026-04-04T09:10:04.051Z</time></trkpt><trkpt lat="43.4735555" lon="10.7561925"><ele>127.0</ele><time>2026-04-04T09:10:05.038Z</time></trkpt><trkpt lat="43.4736095" lon="10.7563577"><ele>127.0</ele><time>2026-04-04T09:10:06.03Z</time></trkpt><trkpt lat="43.4736614" lon="10.7565166"><ele>126.75</ele><time>2026-04-04T09:10:07.025Z</time></trkpt><trkpt lat="43.4737229" lon="10.7566653"><ele>126.5</ele><time>2026-04-04T09:10:08.023Z</time></trkpt><trkpt lat="43.4737939" lon="10.7567991"><ele>126.25</ele><time>2026-04-04T09:10:09.028Z</time></trkpt><trkpt lat="43.473877" lon="10.7569214"><ele>126.0</ele><time>2026-04-04T09:10:10.027Z</time></trkpt><trkpt lat="43.4739703" lon="10.757047"><ele>126.5</ele><time>2026-04-04T09:10:11.039Z</time></trkpt><trkpt lat="43.4740716" lon="10.7571601"><ele>127.0</ele><time>2026-04-04T09:10:12.036Z</time></trkpt><trkpt lat="43.4741768" lon="10.7572723"><ele>127.5</ele><time>2026-04-04T09:10:13.043Z</time></trkpt><trkpt lat="43.4742814" lon="10.7573804"><ele>128.0</ele><time>2026-04-04T09:10:14.052Z</time></trkpt><trkpt lat="43.4743865" lon="10.7574877"><ele>128.0</ele><time>2026-04-04T09:10:15.05Z</time></trkpt><trkpt lat="43.4744905" lon="10.7575867"><ele>128.0</ele><time>2026-04-04T09:10:16.036Z</time></trkpt><trkpt lat="43.4745909" lon="10.7576819"><ele>128.0</ele><time>2026-04-04T09:10:17.037Z</time></trkpt><trkpt lat="43.474683" lon="10.7577732"><ele>128.0</ele><time>2026-04-04T09:10:18.035Z</time></trkpt><trkpt lat="43.4747679" lon="10.7578587"><ele>126.60000000000001</ele><time>2026-04-04T09:10:19.026Z</time></trkpt><trkpt lat="43.4748457" lon="10.7579392"><ele>125.20000000000002</ele><time>2026-04-04T09:10:20.02Z</time></trkpt><trkpt lat="43.4749154" lon="10.7580305"><ele>123.8</ele><time>2026-04-04T09:10:21.034Z</time></trkpt><trkpt lat="43.4749767" lon="10.7581283"><ele>122.4</ele><time>2026-04-04T09:10:22.055Z</time></trkpt><trkpt lat="43.4750268" lon="10.7582469"><ele>121.0</ele><time>2026-04-04T09:10:23.024Z</time></trkpt><trkpt lat="43.4750707" lon="10.7583837"><ele>121.0</ele><time>2026-04-04T09:10:24.03Z</time></trkpt><trkpt lat="43.4751045" lon="10.7585258"><ele>121.0</ele><time>2026-04-04T09:10:25.036Z</time></trkpt><trkpt lat="43.4751338" lon="10.7586618"><ele>121.0</ele><time>2026-04-04T09:10:26.026Z</time></trkpt><trkpt lat="43.4751558" lon="10.7587988"><ele>121.0</ele><time>2026-04-04T09:10:27.041Z</time></trkpt><trkpt lat="43.4751808" lon="10.7589356"><ele>121.0</ele><time>2026-04-04T09:10:28.03Z</time></trkpt><trkpt lat="43.475198" lon="10.759074"><ele>119.5</ele><time>2026-04-04T09:10:29.028Z</time></trkpt><trkpt lat="43.4752047" lon="10.7592228"><ele>118.0</ele><time>2026-04-04T09:10:30.048Z</time></trkpt><trkpt lat="43.4752054" lon="10.7593819"><ele>116.5</ele><time>2026-04-04T09:10:31.03Z</time></trkpt><trkpt lat="43.4752145" lon="10.7595434"><ele>115.0</ele><time>2026-04-04T09:10:32.018Z</time></trkpt><trkpt lat="43.4752237" lon="10.7597018"><ele>114.6</ele><time>2026-04-04T09:10:33.023Z</time></trkpt><trkpt lat="43.4752326" lon="10.7598619"><ele>114.2</ele><time>2026-04-04T09:10:34.021Z</time></trkpt><trkpt lat="43.4752375" lon="10.7600051"><ele>113.80000000000001</ele><time>2026-04-04T09:10:35.04Z</time></trkpt><trkpt lat="43.4752449" lon="10.7601446"><ele>113.4</ele><time>2026-04-04T09:10:36.039Z</time></trkpt><trkpt lat="43.4752526" lon="10.7602813"><ele>113.0</ele><time>2026-04-04T09:10:37.033Z</time></trkpt><trkpt lat="43.4752449" lon="10.7604346"><ele>111.80000000000001</ele><time>2026-04-04T09:10:38.043Z</time></trkpt><trkpt lat="43.4752262" lon="10.7605908"><ele>110.60000000000001</ele><time>2026-04-04T09:10:39.03Z</time></trkpt><trkpt lat="43.4752007" lon="10.7607429"><ele>109.39999999999999</ele><time>2026-04-04T09:10:40.023Z</time></trkpt><trkpt lat="43.4751655" lon="10.760889"><ele>108.19999999999999</ele><time>2026-04-04T09:10:41.025Z</time></trkpt><trkpt lat="43.4751116" lon="10.7610174"><ele>107.0</ele><time>2026-04-04T09:10:42.036Z</time></trkpt><trkpt lat="43.4750405" lon="10.7611402"><ele>104.0</ele><time>2026-04-04T09:10:43.03Z</time></trkpt><trkpt lat="43.4749587" lon="10.7612587"><ele>101.0</ele><time>2026-04-04T09:10:44.023Z</time></trkpt><trkpt lat="43.4748595" lon="10.7613587"><ele>98.0</ele><time>2026-04-04T09:10:45.039Z</time></trkpt><trkpt lat="43.4747505" lon="10.7614554"><ele>95.0</ele><time>2026-04-04T09:10:46.033Z</time></trkpt><trkpt lat="43.4746408" lon="10.7615474"><ele>96.25</ele><time>2026-04-04T09:10:47.052Z</time></trkpt><trkpt lat="43.4745317" lon="10.7616357"><ele>97.5</ele><time>2026-04-04T09:10:48.019Z</time></trkpt><trkpt lat="43.4744246" lon="10.7617272"><ele>98.75</ele><time>2026-04-04T09:10:49.029Z</time></trkpt><trkpt lat="43.4743182" lon="10.7618209"><ele>100.0</ele><time>2026-04-04T09:10:50.039Z</time></trkpt><trkpt lat="43.4742093" lon="10.7619173"><ele>97.25</ele><time>2026-04-04T09:10:51.022Z</time></trkpt><trkpt lat="43.4741024" lon="10.7620051"><ele>94.5</ele><time>2026-04-04T09:10:52.017Z</time></trkpt><trkpt lat="43.4739968" lon="10.7620898"><ele>91.75</ele><time>2026-04-04T09:10:53.025Z</time></trkpt><trkpt lat="43.4739033" lon="10.7621768"><ele>89.0</ele><time>2026-04-04T09:10:54.026Z</time></trkpt><trkpt lat="43.4738083" lon="10.7622581"><ele>89.0</ele><time>2026-04-04T09:10:55.048Z</time></trkpt><trkpt lat="43.4737074" lon="10.7623207"><ele>89.0</ele><time>2026-04-04T09:10:56.039Z</time></trkpt><trkpt lat="43.4736128" lon="10.7623796"><ele>89.0</ele><time>2026-04-04T09:10:57.038Z</time></trkpt><trkpt lat="43.4735269" lon="10.762443"><ele>89.0</ele><time>2026-04-04T09:10:58.015Z</time></trkpt><trkpt lat="43.4734411" lon="10.7625028"><ele>89.0</ele><time>2026-04-04T09:10:59.017Z</time></trkpt><trkpt lat="43.4733522" lon="10.7625699"><ele>89.0</ele><time>2026-04-04T09:11:00.022Z</time></trkpt><trkpt lat="43.4732648" lon="10.7626544"><ele>89.0</ele><time>2026-04-04T09:11:01.026Z</time></trkpt><trkpt lat="43.4731879" lon="10.7627432"><ele>89.0</ele><time>2026-04-04T09:11:02.025Z</time></trkpt><trkpt lat="43.4731291" lon="10.7628479"><ele>89.0</ele><time>2026-04-04T09:11:03.019Z</time></trkpt><trkpt lat="43.4730858" lon="10.7629554"><ele>89.0</ele><time>2026-04-04T09:11:04.03Z</time></trkpt><trkpt lat="43.4730619" lon="10.7630517"><ele>88.0</ele><time>2026-04-04T09:11:05.026Z</time></trkpt><trkpt lat="43.4730446" lon="10.7631833"><ele>87.0</ele><time>2026-04-04T09:11:07.033Z</time></trkpt><trkpt lat="43.4730112" lon="10.7632696"><ele>86.0</ele><time>2026-04-04T09:11:09.017Z</time></trkpt><trkpt lat="43.4729498" lon="10.763307"><ele>85.0</ele><time>2026-04-04T09:11:44.026Z</time></trkpt><trkpt lat="43.4728765" lon="10.7633094"><ele>84.0</ele><time>2026-04-04T09:11:45.028Z</time></trkpt><trkpt lat="43.4727865" lon="10.7632929"><ele>83.0</ele><time>2026-04-04T09:11:46.015Z</time></trkpt><trkpt lat="43.472685" lon="10.7632726"><ele>82.5</ele><time>2026-04-04T09:11:47.037Z</time></trkpt><trkpt lat="43.472574" lon="10.7632557"><ele>82.0</ele><time>2026-04-04T09:11:48.046Z</time></trkpt><trkpt lat="43.4724542" lon="10.7632295"><ele>81.5</ele><time>2026-04-04T09:11:49.026Z</time></trkpt><trkpt lat="43.4723195" lon="10.7631914"><ele>81.0</ele><time>2026-04-04T09:11:50.015Z</time></trkpt><trkpt lat="43.4721679" lon="10.7631196"><ele>80.66666666666667</ele><time>2026-04-04T09:11:51.026Z</time></trkpt><trkpt lat="43.4720035" lon="10.7630211"><ele>80.33333333333334</ele><time>2026-04-04T09:11:52.028Z</time></trkpt><trkpt lat="43.4718415" lon="10.762926"><ele>80.0</ele><time>2026-04-04T09:11:53.034Z</time></trkpt><trkpt lat="43.4716872" lon="10.7628315"><ele>80.0</ele><time>2026-04-04T09:11:54.04Z</time></trkpt><trkpt lat="43.4715294" lon="10.7627404"><ele>80.0</ele><time>2026-04-04T09:11:55.057Z</time></trkpt><trkpt lat="43.4713638" lon="10.7626341"><ele>80.0</ele><time>2026-04-04T09:11:56.026Z</time></trkpt><trkpt lat="43.4711963" lon="10.7625295"><ele>81.0</ele><time>2026-04-04T09:11:57.041Z</time></trkpt><trkpt lat="43.471021" lon="10.762423"><ele>82.0</ele><time>2026-04-04T09:11:58.03Z</time></trkpt><trkpt lat="43.4708393" lon="10.7623156"><ele>83.0</ele><time>2026-04-04T09:11:59.015Z</time></trkpt><trkpt lat="43.4706527" lon="10.7621993"><ele>83.0</ele><time>2026-04-04T09:12:00.028Z</time></trkpt><trkpt lat="43.4704579" lon="10.7620834"><ele>83.0</ele><time>2026-04-04T09:12:01.022Z</time></trkpt><trkpt lat="43.4702677" lon="10.7619655"><ele>83.0</ele><time>2026-04-04T09:12:02.035Z</time></trkpt><trkpt lat="43.4700773" lon="10.761852"><ele>83.33333333333334</ele><time>2026-04-04T09:12:03.037Z</time></trkpt><trkpt lat="43.4698804" lon="10.7617465"><ele>83.66666666666667</ele><time>2026-04-04T09:12:04.016Z</time></trkpt><trkpt lat="43.4696834" lon="10.7616653"><ele>84.0</ele><time>2026-04-04T09:12:05.029Z</time></trkpt><trkpt lat="43.4694755" lon="10.7615938"><ele>84.0</ele><time>2026-04-04T09:12:06.035Z</time></trkpt><trkpt lat="43.4692652" lon="10.7615236"><ele>84.0</ele><time>2026-04-04T09:12:07.031Z</time></trkpt><trkpt lat="43.4690544" lon="10.7614534"><ele>84.0</ele><time>2026-04-04T09:12:08.039Z</time></trkpt><trkpt lat="43.4688486" lon="10.7613811"><ele>83.0</ele><time>2026-04-04T09:12:09.027Z</time></trkpt><trkpt lat="43.4686441" lon="10.7613142"><ele>82.0</ele><time>2026-04-04T09:12:10.035Z</time></trkpt><trkpt lat="43.4684402" lon="10.7612487"><ele>81.0</ele><time>2026-04-04T09:12:11.024Z</time></trkpt><trkpt lat="43.4682375" lon="10.7611853"><ele>81.0</ele><time>2026-04-04T09:12:12.031Z</time></trkpt><trkpt lat="43.4680352" lon="10.761122"><ele>81.0</ele><time>2026-04-04T09:12:13.026Z</time></trkpt><trkpt lat="43.4678363" lon="10.761061"><ele>81.0</ele><time>2026-04-04T09:12:14.028Z</time></trkpt><trkpt lat="43.4676369" lon="10.7609998"><ele>81.66666666666667</ele><time>2026-04-04T09:12:15.024Z</time></trkpt><trkpt lat="43.4674399" lon="10.7609373"><ele>82.33333333333334</ele><time>2026-04-04T09:12:16.017Z</time></trkpt><trkpt lat="43.4672391" lon="10.7608727"><ele>83.0</ele><time>2026-04-04T09:12:17.041Z</time></trkpt><trkpt lat="43.4670411" lon="10.7608147"><ele>83.0</ele><time>2026-04-04T09:12:18.047Z</time></trkpt><trkpt lat="43.4668417" lon="10.7607563"><ele>83.0</ele><time>2026-04-04T09:12:19.03Z</time></trkpt><trkpt lat="43.4666433" lon="10.7606968"><ele>83.0</ele><time>2026-04-04T09:12:20.018Z</time></trkpt><trkpt lat="43.4664463" lon="10.7606371"><ele>82.33333333333334</ele><time>2026-04-04T09:12:21.033Z</time></trkpt><trkpt lat="43.4662497" lon="10.7605759"><ele>81.66666666666667</ele><time>2026-04-04T09:12:22.038Z</time></trkpt><trkpt lat="43.4660564" lon="10.7605128"><ele>81.0</ele><time>2026-04-04T09:12:23.02Z</time></trkpt><trkpt lat="43.4658617" lon="10.7604603"><ele>81.0</ele><time>2026-04-04T09:12:24.016Z</time></trkpt><trkpt lat="43.4656631" lon="10.7604263"><ele>81.0</ele><time>2026-04-04T09:12:25.016Z</time></trkpt><trkpt lat="43.4654598" lon="10.7604203"><ele>81.0</ele><time>2026-04-04T09:12:26.024Z</time></trkpt><trkpt lat="43.4652592" lon="10.7604435"><ele>81.33333333333333</ele><time>2026-04-04T09:12:27.042Z</time></trkpt><trkpt lat="43.4650534" lon="10.7604724"><ele>81.66666666666666</ele><time>2026-04-04T09:12:28.038Z</time></trkpt><trkpt lat="43.4648498" lon="10.760508"><ele>82.0</ele><time>2026-04-04T09:12:29.026Z</time></trkpt><trkpt lat="43.4646461" lon="10.7605451"><ele>82.33333333333333</ele><time>2026-04-04T09:12:30.019Z</time></trkpt><trkpt lat="43.464444" lon="10.7605813"><ele>82.66666666666667</ele><time>2026-04-04T09:12:31.037Z</time></trkpt><trkpt lat="43.4642437" lon="10.7606139"><ele>83.0</ele><time>2026-04-04T09:12:32.016Z</time></trkpt><trkpt lat="43.4640408" lon="10.76063"><ele>83.0</ele><time>2026-04-04T09:12:33.03Z</time></trkpt><trkpt lat="43.4638406" lon="10.7606305"><ele>83.0</ele><time>2026-04-04T09:12:34.015Z</time></trkpt><trkpt lat="43.4636365" lon="10.7606182"><ele>83.0</ele><time>2026-04-04T09:12:35.019Z</time></trkpt><trkpt lat="43.4634349" lon="10.760593"><ele>84.0</ele><time>2026-04-04T09:12:36.019Z</time></trkpt><trkpt lat="43.4632314" lon="10.7605803"><ele>85.0</ele><time>2026-04-04T09:12:37.033Z</time></trkpt><trkpt lat="43.463031" lon="10.7605927"><ele>86.0</ele><time>2026-04-04T09:12:38.037Z</time></trkpt><trkpt lat="43.4628315" lon="10.7606306"><ele>86.66666666666667</ele><time>2026-04-04T09:12:39.019Z</time></trkpt><trkpt lat="43.46264" lon="10.760698"><ele>87.33333333333333</ele><time>2026-04-04T09:12:40.031Z</time></trkpt><trkpt lat="43.4624481" lon="10.7607633"><ele>88.0</ele><time>2026-04-04T09:12:41.032Z</time></trkpt><trkpt lat="43.4622521" lon="10.7607978"><ele>88.0</ele><time>2026-04-04T09:12:42.026Z</time></trkpt><trkpt lat="43.4620547" lon="10.7607838"><ele>88.0</ele><time>2026-04-04T09:12:43.016Z</time></trkpt><trkpt lat="43.4618657" lon="10.7607051"><ele>88.0</ele><time>2026-04-04T09:12:44.019Z</time></trkpt><trkpt lat="43.4616782" lon="10.760595"><ele>88.0</ele><time>2026-04-04T09:12:45.022Z</time></trkpt><trkpt lat="43.4614904" lon="10.7604691"><ele>88.0</ele><time>2026-04-04T09:12:46.013Z</time></trkpt><trkpt lat="43.4613086" lon="10.7603361"><ele>88.0</ele><time>2026-04-04T09:12:47.029Z</time></trkpt><trkpt lat="43.4611322" lon="10.7602127"><ele>89.33333333333333</ele><time>2026-04-04T09:12:48.04Z</time></trkpt><trkpt lat="43.4609605" lon="10.7600959"><ele>90.66666666666667</ele><time>2026-04-04T09:12:49.03Z</time></trkpt><trkpt lat="43.4607953" lon="10.7599882"><ele>92.0</ele><time>2026-04-04T09:12:50.03Z</time></trkpt><trkpt lat="43.4606342" lon="10.7598763"><ele>92.0</ele><time>2026-04-04T09:12:51.021Z</time></trkpt><trkpt lat="43.4604716" lon="10.7597666"><ele>92.0</ele><time>2026-04-04T09:12:52.048Z</time></trkpt><trkpt lat="43.4603193" lon="10.7596518"><ele>92.0</ele><time>2026-04-04T09:12:53.029Z</time></trkpt><trkpt lat="43.460167" lon="10.7595518"><ele>90.66666666666667</ele><time>2026-04-04T09:12:54.028Z</time></trkpt><trkpt lat="43.4600118" lon="10.759479"><ele>89.33333333333333</ele><time>2026-04-04T09:12:55.026Z</time></trkpt><trkpt lat="43.459852" lon="10.7594558"><ele>88.0</ele><time>2026-04-04T09:12:56.022Z</time></trkpt><trkpt lat="43.4596923" lon="10.7595014"><ele>87.0</ele><time>2026-04-04T09:12:57.034Z</time></trkpt><trkpt lat="43.4595353" lon="10.7595889"><ele>86.0</ele><time>2026-04-04T09:12:58.031Z</time></trkpt><trkpt lat="43.4594011" lon="10.759714"><ele>85.0</ele><time>2026-04-04T09:12:59.027Z</time></trkpt><trkpt lat="43.4592815" lon="10.7598779"><ele>85.0</ele><time>2026-04-04T09:13:00.022Z</time></trkpt><trkpt lat="43.4591859" lon="10.760077"><ele>85.0</ele><time>2026-04-04T09:13:01.014Z</time></trkpt><trkpt lat="43.4591112" lon="10.7603083"><ele>85.0</ele><time>2026-04-04T09:13:02.022Z</time></trkpt><trkpt lat="43.4590325" lon="10.7605359"><ele>85.0</ele><time>2026-04-04T09:13:03.025Z</time></trkpt><trkpt lat="43.4589498" lon="10.7607856"><ele>85.0</ele><time>2026-04-04T09:13:04.053Z</time></trkpt><trkpt lat="43.4588653" lon="10.7610308"><ele>85.0</ele><time>2026-04-04T09:13:05.032Z</time></trkpt><trkpt lat="43.4587765" lon="10.7612834"><ele>86.33333333333333</ele><time>2026-04-04T09:13:06.028Z</time></trkpt><trkpt lat="43.4586883" lon="10.7615344"><ele>87.66666666666667</ele><time>2026-04-04T09:13:07.039Z</time></trkpt><trkpt lat="43.4585993" lon="10.7617757"><ele>89.0</ele><time>2026-04-04T09:13:08.048Z</time></trkpt><trkpt lat="43.4585291" lon="10.7620203"><ele>89.33333333333334</ele><time>2026-04-04T09:13:09.026Z</time></trkpt><trkpt lat="43.4584981" lon="10.7623025"><ele>89.66666666666667</ele><time>2026-04-04T09:13:10.028Z</time></trkpt><trkpt lat="43.458502" lon="10.7625748"><ele>90.0</ele><time>2026-04-04T09:13:11.035Z</time></trkpt><trkpt lat="43.458509" lon="10.762847"><ele>90.0</ele><time>2026-04-04T09:13:12.019Z</time></trkpt><trkpt lat="43.4585018" lon="10.7631177"><ele>90.0</ele><time>2026-04-04T09:13:13.023Z</time></trkpt><trkpt lat="43.4584801" lon="10.7633654"><ele>90.0</ele><time>2026-04-04T09:13:14.015Z</time></trkpt><trkpt lat="43.4584174" lon="10.763578"><ele>89.0</ele><time>2026-04-04T09:13:15.037Z</time></trkpt><trkpt lat="43.4583134" lon="10.7637523"><ele>88.0</ele><time>2026-04-04T09:13:16.029Z</time></trkpt><trkpt lat="43.4581732" lon="10.7639169"><ele>87.0</ele><time>2026-04-04T09:13:17.044Z</time></trkpt><trkpt lat="43.458017" lon="10.764091"><ele>87.66666666666667</ele><time>2026-04-04T09:13:18.029Z</time></trkpt><trkpt lat="43.4578635" lon="10.7642646"><ele>88.33333333333334</ele><time>2026-04-04T09:13:19.028Z</time></trkpt><trkpt lat="43.4577117" lon="10.7644421"><ele>89.0</ele><time>2026-04-04T09:13:20.025Z</time></trkpt><trkpt lat="43.4575576" lon="10.7646135"><ele>89.0</ele><time>2026-04-04T09:13:21.031Z</time></trkpt><trkpt lat="43.4574047" lon="10.7647815"><ele>89.0</ele><time>2026-04-04T09:13:22.012Z</time></trkpt><trkpt lat="43.4572553" lon="10.7649497"><ele>89.0</ele><time>2026-04-04T09:13:23.019Z</time></trkpt><trkpt lat="43.4571075" lon="10.7651243"><ele>89.33333333333334</ele><time>2026-04-04T09:13:24.023Z</time></trkpt><trkpt lat="43.4569569" lon="10.7652992"><ele>89.66666666666667</ele><time>2026-04-04T09:13:25.02Z</time></trkpt><trkpt lat="43.4568008" lon="10.7654797"><ele>90.0</ele><time>2026-04-04T09:13:26.032Z</time></trkpt><trkpt lat="43.456645" lon="10.7656608"><ele>90.0</ele><time>2026-04-04T09:13:27.042Z</time></trkpt><trkpt lat="43.4564871" lon="10.7658422"><ele>90.0</ele><time>2026-04-04T09:13:28.019Z</time></trkpt><trkpt lat="43.4563292" lon="10.7660213"><ele>90.0</ele><time>2026-04-04T09:13:29.038Z</time></trkpt><trkpt lat="43.4561735" lon="10.7661981"><ele>90.66666666666667</ele><time>2026-04-04T09:13:30.018Z</time></trkpt><trkpt lat="43.4560189" lon="10.7663698"><ele>91.33333333333334</ele><time>2026-04-04T09:13:31.023Z</time></trkpt><trkpt lat="43.4558694" lon="10.7665315"><ele>92.0</ele><time>2026-04-04T09:13:32.033Z</time></trkpt><trkpt lat="43.4557241" lon="10.7666921"><ele>92.0</ele><time>2026-04-04T09:13:33.037Z</time></trkpt><trkpt lat="43.4555788" lon="10.7668591"><ele>92.0</ele><time>2026-04-04T09:13:34.016Z</time></trkpt><trkpt lat="43.4554352" lon="10.7670217"><ele>92.0</ele><time>2026-04-04T09:13:35.017Z</time></trkpt><trkpt lat="43.4552936" lon="10.7671832"><ele>93.0</ele><time>2026-04-04T09:13:36.037Z</time></trkpt><trkpt lat="43.4551515" lon="10.767346"><ele>94.0</ele><time>2026-04-04T09:13:37.027Z</time></trkpt><trkpt lat="43.4550082" lon="10.7675138"><ele>95.0</ele><time>2026-04-04T09:13:38.024Z</time></trkpt><trkpt lat="43.4548635" lon="10.7676744"><ele>95.33333333333334</ele><time>2026-04-04T09:13:39.035Z</time></trkpt><trkpt lat="43.4547147" lon="10.7678303"><ele>95.66666666666667</ele><time>2026-04-04T09:13:40.02Z</time></trkpt><trkpt lat="43.4545589" lon="10.7679848"><ele>96.0</ele><time>2026-04-04T09:13:41.022Z</time></trkpt><trkpt lat="43.4543944" lon="10.7681206"><ele>96.0</ele><time>2026-04-04T09:13:42.029Z</time></trkpt><trkpt lat="43.4542157" lon="10.7682375"><ele>96.0</ele><time>2026-04-04T09:13:43.039Z</time></trkpt><trkpt lat="43.4540295" lon="10.7683435"><ele>96.0</ele><time>2026-04-04T09:13:44.012Z</time></trkpt><trkpt lat="43.4538433" lon="10.7684504"><ele>96.33333333333334</ele><time>2026-04-04T09:13:45.03Z</time></trkpt><trkpt lat="43.4536543" lon="10.7685537"><ele>96.66666666666667</ele><time>2026-04-04T09:13:46.025Z</time></trkpt><trkpt lat="43.4534628" lon="10.7686554"><ele>97.0</ele><time>2026-04-04T09:13:47.04Z</time></trkpt><trkpt lat="43.4532713" lon="10.768758"><ele>97.0</ele><time>2026-04-04T09:13:48.013Z</time></trkpt><trkpt lat="43.4530827" lon="10.7688637"><ele>97.0</ele><time>2026-04-04T09:13:49.044Z</time></trkpt><trkpt lat="43.4528953" lon="10.7689689"><ele>97.0</ele><time>2026-04-04T09:13:50.017Z</time></trkpt><trkpt lat="43.4527103" lon="10.7690736"><ele>96.66666666666667</ele><time>2026-04-04T09:13:51.025Z</time></trkpt><trkpt lat="43.4525237" lon="10.7691817"><ele>96.33333333333334</ele><time>2026-04-04T09:13:52.019Z</time></trkpt><trkpt lat="43.4523381" lon="10.7692821"><ele>96.0</ele><time>2026-04-04T09:13:53.016Z</time></trkpt><trkpt lat="43.4521517" lon="10.7693808"><ele>97.0</ele><time>2026-04-04T09:13:54.035Z</time></trkpt><trkpt lat="43.4519713" lon="10.7694828"><ele>98.0</ele><time>2026-04-04T09:13:55.03Z</time></trkpt><trkpt lat="43.4517939" lon="10.7695765"><ele>99.0</ele><time>2026-04-04T09:13:56.028Z</time></trkpt><trkpt lat="43.4516213" lon="10.769673"><ele>99.0</ele><time>2026-04-04T09:13:57.034Z</time></trkpt><trkpt lat="43.4514496" lon="10.7697704"><ele>99.0</ele><time>2026-04-04T09:13:58.034Z</time></trkpt><trkpt lat="43.4512774" lon="10.7698692"><ele>99.0</ele><time>2026-04-04T09:13:59.015Z</time></trkpt><trkpt lat="43.4511051" lon="10.769975"><ele>99.33333333333334</ele><time>2026-04-04T09:14:00.017Z</time></trkpt><trkpt lat="43.4509292" lon="10.7700705"><ele>99.66666666666667</ele><time>2026-04-04T09:14:01.031Z</time></trkpt><trkpt lat="43.4507539" lon="10.7701666"><ele>100.0</ele><time>2026-04-04T09:14:02.026Z</time></trkpt><trkpt lat="43.450583" lon="10.770265"><ele>100.33333333333334</ele><time>2026-04-04T09:14:03.035Z</time></trkpt><trkpt lat="43.4504203" lon="10.7703639"><ele>100.66666666666666</ele><time>2026-04-04T09:14:04.042Z</time></trkpt><trkpt lat="43.4502637" lon="10.7704535"><ele>101.0</ele><time>2026-04-04T09:14:05.036Z</time></trkpt><trkpt lat="43.4501227" lon="10.7705589"><ele>101.0</ele><time>2026-04-04T09:14:06.018Z</time></trkpt><trkpt lat="43.4500121" lon="10.7707075"><ele>101.0</ele><time>2026-04-04T09:14:07.03Z</time></trkpt><trkpt lat="43.4499405" lon="10.7708872"><ele>101.0</ele><time>2026-04-04T09:14:08.016Z</time></trkpt><trkpt lat="43.4499157" lon="10.7710975"><ele>100.33333333333333</ele><time>2026-04-04T09:14:09.03Z</time></trkpt><trkpt lat="43.4499277" lon="10.7713267"><ele>99.66666666666666</ele><time>2026-04-04T09:14:10.027Z</time></trkpt><trkpt lat="43.4499495" lon="10.7715631"><ele>99.0</ele><time>2026-04-04T09:14:11.054Z</time></trkpt><trkpt lat="43.4499633" lon="10.7717881"><ele>98.75</ele><time>2026-04-04T09:14:12.036Z</time></trkpt><trkpt lat="43.449944" lon="10.7720156"><ele>98.5</ele><time>2026-04-04T09:14:13.026Z</time></trkpt><trkpt lat="43.4498823" lon="10.7721929"><ele>98.25</ele><time>2026-04-04T09:14:14.022Z</time></trkpt><trkpt lat="43.4497787" lon="10.7722971"><ele>98.0</ele><time>2026-04-04T09:14:15.036Z</time></trkpt><trkpt lat="43.449643" lon="10.7723304"><ele>99.33333333333333</ele><time>2026-04-04T09:14:16.02Z</time></trkpt><trkpt lat="43.4495028" lon="10.7723275"><ele>100.66666666666666</ele><time>2026-04-04T09:14:17.029Z</time></trkpt><trkpt lat="43.4493374" lon="10.7722807"><ele>102.0</ele><time>2026-04-04T09:14:18.048Z</time></trkpt><trkpt lat="43.4491664" lon="10.7722423"><ele>102.0</ele><time>2026-04-04T09:14:19.023Z</time></trkpt><trkpt lat="43.4489942" lon="10.7722103"><ele>102.0</ele><time>2026-04-04T09:14:20.014Z</time></trkpt><trkpt lat="43.4488203" lon="10.7721845"><ele>102.0</ele><time>2026-04-04T09:14:21.029Z</time></trkpt><trkpt lat="43.4486463" lon="10.7721755"><ele>104.33333333333334</ele><time>2026-04-04T09:14:22.018Z</time></trkpt><trkpt lat="43.4484648" lon="10.7721808"><ele>106.66666666666667</ele><time>2026-04-04T09:14:23.033Z</time></trkpt><trkpt lat="43.4482823" lon="10.7722137"><ele>109.0</ele><time>2026-04-04T09:14:24.031Z</time></trkpt><trkpt lat="43.4480972" lon="10.7722513"><ele>109.0</ele><time>2026-04-04T09:14:25.015Z</time></trkpt><trkpt lat="43.4479054" lon="10.7722791"><ele>109.0</ele><time>2026-04-04T09:14:26.024Z</time></trkpt><trkpt lat="43.4477111" lon="10.7723137"><ele>109.0</ele><time>2026-04-04T09:14:27.02Z</time></trkpt><trkpt lat="43.4475135" lon="10.7723502"><ele>109.0</ele><time>2026-04-04T09:14:28.025Z</time></trkpt><trkpt lat="43.4473108" lon="10.7723858"><ele>109.0</ele><time>2026-04-04T09:14:29.019Z</time></trkpt><trkpt lat="43.4471131" lon="10.7724232"><ele>109.0</ele><time>2026-04-04T09:14:30.028Z</time></trkpt><trkpt lat="43.4469156" lon="10.7724522"><ele>108.66666666666667</ele><time>2026-04-04T09:14:31.024Z</time></trkpt><trkpt lat="43.4467188" lon="10.7724831"><ele>108.33333333333334</ele><time>2026-04-04T09:14:32.046Z</time></trkpt><trkpt lat="43.4465253" lon="10.7725181"><ele>108.0</ele><time>2026-04-04T09:14:33.042Z</time></trkpt><trkpt lat="43.4463342" lon="10.7725457"><ele>108.33333333333334</ele><time>2026-04-04T09:14:34.021Z</time></trkpt><trkpt lat="43.4461452" lon="10.7725709"><ele>108.66666666666667</ele><time>2026-04-04T09:14:35.035Z</time></trkpt><trkpt lat="43.4459527" lon="10.772599"><ele>109.0</ele><time>2026-04-04T09:14:36.014Z</time></trkpt><trkpt lat="43.4457626" lon="10.7726193"><ele>109.0</ele><time>2026-04-04T09:14:37.027Z</time></trkpt><trkpt lat="43.4455694" lon="10.7726324"><ele>109.0</ele><time>2026-04-04T09:14:38.036Z</time></trkpt><trkpt lat="43.4453795" lon="10.7726419"><ele>109.0</ele><time>2026-04-04T09:14:39.036Z</time></trkpt><trkpt lat="43.4451873" lon="10.7726515"><ele>109.66666666666667</ele><time>2026-04-04T09:14:40.021Z</time></trkpt><trkpt lat="43.4449954" lon="10.77266"><ele>110.33333333333334</ele><time>2026-04-04T09:14:41.048Z</time></trkpt><trkpt lat="43.4448039" lon="10.7726702"><ele>111.0</ele><time>2026-04-04T09:14:42.057Z</time></trkpt><trkpt lat="43.4446119" lon="10.7726851"><ele>109.66666666666666</ele><time>2026-04-04T09:14:43.036Z</time></trkpt><trkpt lat="43.4444181" lon="10.7726974"><ele>108.33333333333333</ele><time>2026-04-04T09:14:44.02Z</time></trkpt><trkpt lat="43.4442254" lon="10.7727084"><ele>107.0</ele><time>2026-04-04T09:14:45.048Z</time></trkpt><trkpt lat="43.4440332" lon="10.7727264"><ele>107.0</ele><time>2026-04-04T09:14:46.011Z</time></trkpt><trkpt lat="43.4438433" lon="10.7727379"><ele>107.0</ele><time>2026-04-04T09:14:47.04Z</time></trkpt><trkpt lat="43.4436491" lon="10.7727352"><ele>107.0</ele><time>2026-04-04T09:14:48.022Z</time></trkpt><trkpt lat="43.4434549" lon="10.7727006"><ele>109.33333333333333</ele><time>2026-04-04T09:14:49.031Z</time></trkpt><trkpt lat="43.4432593" lon="10.7726354"><ele>111.66666666666666</ele><time>2026-04-04T09:14:50.018Z</time></trkpt><trkpt lat="43.443071" lon="10.7725551"><ele>114.0</ele><time>2026-04-04T09:14:51.036Z</time></trkpt><trkpt lat="43.4428848" lon="10.7724723"><ele>114.33333333333334</ele><time>2026-04-04T09:14:52.04Z</time></trkpt><trkpt lat="43.4427011" lon="10.7723929"><ele>114.66666666666667</ele><time>2026-04-04T09:14:53.024Z</time></trkpt><trkpt lat="43.4425187" lon="10.7723178"><ele>115.0</ele><time>2026-04-04T09:14:54.012Z</time></trkpt><trkpt lat="43.442332" lon="10.7722422"><ele>115.0</ele><time>2026-04-04T09:14:55.02Z</time></trkpt><trkpt lat="43.4421432" lon="10.7721662"><ele>115.0</ele><time>2026-04-04T09:14:56.016Z</time></trkpt><trkpt lat="43.441953" lon="10.7720912"><ele>115.0</ele><time>2026-04-04T09:14:57.022Z</time></trkpt><trkpt lat="43.4417634" lon="10.7720115"><ele>116.0</ele><time>2026-04-04T09:14:58.027Z</time></trkpt><trkpt lat="43.4415735" lon="10.7719356"><ele>117.0</ele><time>2026-04-04T09:14:59.019Z</time></trkpt><trkpt lat="43.4413851" lon="10.7718588"><ele>118.0</ele><time>2026-04-04T09:15:00.031Z</time></trkpt><trkpt lat="43.4411948" lon="10.7717826"><ele>118.0</ele><time>2026-04-04T09:15:01.045Z</time></trkpt><trkpt lat="43.4410052" lon="10.7717053"><ele>118.0</ele><time>2026-04-04T09:15:02.016Z</time></trkpt><trkpt lat="43.4408182" lon="10.7716258"><ele>118.0</ele><time>2026-04-04T09:15:03.032Z</time></trkpt><trkpt lat="43.4406343" lon="10.7715364"><ele>120.66666666666667</ele><time>2026-04-04T09:15:04.025Z</time></trkpt><trkpt lat="43.4404572" lon="10.7714199"><ele>123.33333333333334</ele><time>2026-04-04T09:15:05.03Z</time></trkpt><trkpt lat="43.4402991" lon="10.7712705"><ele>126.0</ele><time>2026-04-04T09:15:06.03Z</time></trkpt><trkpt lat="43.4401517" lon="10.7710963"><ele>123.66666666666666</ele><time>2026-04-04T09:15:07.023Z</time></trkpt><trkpt lat="43.4400115" lon="10.7709094"><ele>121.33333333333333</ele><time>2026-04-04T09:15:08.013Z</time></trkpt><trkpt lat="43.4398723" lon="10.770725"><ele>119.0</ele><time>2026-04-04T09:15:09.023Z</time></trkpt><trkpt lat="43.4397378" lon="10.770532"><ele>119.66666666666666</ele><time>2026-04-04T09:15:10.024Z</time></trkpt><trkpt lat="43.4395974" lon="10.7703442"><ele>120.33333333333334</ele><time>2026-04-04T09:15:11.027Z</time></trkpt><trkpt lat="43.4394593" lon="10.7701593"><ele>121.0</ele><time>2026-04-04T09:15:12.021Z</time></trkpt><trkpt lat="43.4393185" lon="10.7699697"><ele>121.0</ele><time>2026-04-04T09:15:13.02Z</time></trkpt><trkpt lat="43.4391789" lon="10.7697795"><ele>121.0</ele><time>2026-04-04T09:15:14.047Z</time></trkpt><trkpt lat="43.4390358" lon="10.7695865"><ele>121.0</ele><time>2026-04-04T09:15:15.033Z</time></trkpt><trkpt lat="43.4388923" lon="10.7693938"><ele>121.66666666666667</ele><time>2026-04-04T09:15:16.017Z</time></trkpt><trkpt lat="43.4387492" lon="10.7692053"><ele>122.33333333333334</ele><time>2026-04-04T09:15:17.033Z</time></trkpt><trkpt lat="43.4386034" lon="10.7690182"><ele>123.0</ele><time>2026-04-04T09:15:18.015Z</time></trkpt><trkpt lat="43.4384633" lon="10.7688323"><ele>123.0</ele><time>2026-04-04T09:15:19.037Z</time></trkpt><trkpt lat="43.4383252" lon="10.7686422"><ele>123.0</ele><time>2026-04-04T09:15:20.037Z</time></trkpt><trkpt lat="43.4381856" lon="10.768453"><ele>123.0</ele><time>2026-04-04T09:15:21.018Z</time></trkpt><trkpt lat="43.4380436" lon="10.7682707"><ele>123.66666666666666</ele><time>2026-04-04T09:15:22.011Z</time></trkpt><trkpt lat="43.4379001" lon="10.7680902"><ele>124.33333333333333</ele><time>2026-04-04T09:15:23.021Z</time></trkpt><trkpt lat="43.4377558" lon="10.7679055"><ele>125.0</ele><time>2026-04-04T09:15:24.032Z</time></trkpt><trkpt lat="43.4376151" lon="10.7677219"><ele>124.66666666666666</ele><time>2026-04-04T09:15:25.027Z</time></trkpt><trkpt lat="43.437475" lon="10.7675351"><ele>124.33333333333334</ele><time>2026-04-04T09:15:26.035Z</time></trkpt><trkpt lat="43.4373331" lon="10.7673465"><ele>124.0</ele><time>2026-04-04T09:15:27.03Z</time></trkpt><trkpt lat="43.4371938" lon="10.767159"><ele>124.66666666666667</ele><time>2026-04-04T09:15:28.04Z</time></trkpt><trkpt lat="43.4370606" lon="10.7669614"><ele>125.33333333333334</ele><time>2026-04-04T09:15:29.045Z</time></trkpt><trkpt lat="43.436941" lon="10.7667516"><ele>126.0</ele><time>2026-04-04T09:15:30.015Z</time></trkpt><trkpt lat="43.4368357" lon="10.766526"><ele>126.0</ele><time>2026-04-04T09:15:31.02Z</time></trkpt><trkpt lat="43.4367373" lon="10.7662921"><ele>126.0</ele><time>2026-04-04T09:15:32.023Z</time></trkpt><trkpt lat="43.436646" lon="10.7660568"><ele>126.0</ele><time>2026-04-04T09:15:33.024Z</time></trkpt><trkpt lat="43.4365539" lon="10.765821"><ele>125.66666666666666</ele><time>2026-04-04T09:15:34.017Z</time></trkpt><trkpt lat="43.4364666" lon="10.7655817"><ele>125.33333333333333</ele><time>2026-04-04T09:15:35.046Z</time></trkpt><trkpt lat="43.4363791" lon="10.7653413"><ele>125.0</ele><time>2026-04-04T09:15:36.029Z</time></trkpt><trkpt lat="43.4362891" lon="10.7650978"><ele>127.66666666666666</ele><time>2026-04-04T09:15:37.021Z</time></trkpt><trkpt lat="43.4361983" lon="10.7648562"><ele>130.33333333333334</ele><time>2026-04-04T09:15:38.046Z</time></trkpt><trkpt lat="43.4361056" lon="10.764613"><ele>133.0</ele><time>2026-04-04T09:15:39.053Z</time></trkpt><trkpt lat="43.4360145" lon="10.7643737"><ele>132.33333333333334</ele><time>2026-04-04T09:15:40.017Z</time></trkpt><trkpt lat="43.4359203" lon="10.7641354"><ele>131.66666666666666</ele><time>2026-04-04T09:15:41.035Z</time></trkpt><trkpt lat="43.4358263" lon="10.7638971"><ele>131.0</ele><time>2026-04-04T09:15:42.026Z</time></trkpt><trkpt lat="43.4357364" lon="10.7636573"><ele>130.33333333333331</ele><time>2026-04-04T09:15:43.02Z</time></trkpt><trkpt lat="43.435644" lon="10.763415"><ele>129.66666666666666</ele><time>2026-04-04T09:15:44.025Z</time></trkpt><trkpt lat="43.4355508" lon="10.7631763"><ele>129.0</ele><time>2026-04-04T09:15:45.041Z</time></trkpt><trkpt lat="43.4354584" lon="10.7629364"><ele>130.33333333333334</ele><time>2026-04-04T09:15:46.015Z</time></trkpt><trkpt lat="43.4353671" lon="10.7626953"><ele>131.66666666666669</ele><time>2026-04-04T09:15:47.038Z</time></trkpt><trkpt lat="43.4352776" lon="10.7624518"><ele>133.0</ele><time>2026-04-04T09:15:48.039Z</time></trkpt><trkpt lat="43.4351861" lon="10.7622113"><ele>133.0</ele><time>2026-04-04T09:15:49.034Z</time></trkpt><trkpt lat="43.4350947" lon="10.7619701"><ele>133.0</ele><time>2026-04-04T09:15:50.036Z</time></trkpt><trkpt lat="43.4350044" lon="10.7617292"><ele>133.0</ele><time>2026-04-04T09:15:51.025Z</time></trkpt><trkpt lat="43.4349105" lon="10.7614908"><ele>132.66666666666669</ele><time>2026-04-04T09:15:52.02Z</time></trkpt><trkpt lat="43.4348131" lon="10.7612554"><ele>132.33333333333334</ele><time>2026-04-04T09:15:53.033Z</time></trkpt><trkpt lat="43.4347125" lon="10.7610227"><ele>132.0</ele><time>2026-04-04T09:15:54.035Z</time></trkpt><trkpt lat="43.4345958" lon="10.7608104"><ele>133.66666666666666</ele><time>2026-04-04T09:15:55.034Z</time></trkpt><trkpt lat="43.4344556" lon="10.760631"><ele>135.33333333333331</ele><time>2026-04-04T09:15:56.038Z</time></trkpt><trkpt lat="43.4343088" lon="10.760462"><ele>137.0</ele><time>2026-04-04T09:15:57.031Z</time></trkpt><trkpt lat="43.4341616" lon="10.7602843"><ele>136.0</ele><time>2026-04-04T09:15:58.032Z</time></trkpt><trkpt lat="43.4340216" lon="10.7601139"><ele>135.0</ele><time>2026-04-04T09:15:59.021Z</time></trkpt><trkpt lat="43.4338825" lon="10.7599416"><ele>134.0</ele><time>2026-04-04T09:16:00.029Z</time></trkpt><trkpt lat="43.4337328" lon="10.7597813"><ele>136.0</ele><time>2026-04-04T09:16:01.028Z</time></trkpt><trkpt lat="43.4335684" lon="10.7596581"><ele>138.0</ele><time>2026-04-04T09:16:02.032Z</time></trkpt><trkpt lat="43.4333893" lon="10.7595554"><ele>140.0</ele><time>2026-04-04T09:16:03.019Z</time></trkpt><trkpt lat="43.4332069" lon="10.7594854"><ele>140.0</ele><time>2026-04-04T09:16:04.026Z</time></trkpt><trkpt lat="43.433024" lon="10.7594199"><ele>140.0</ele><time>2026-04-04T09:16:05.035Z</time></trkpt><trkpt lat="43.4328458" lon="10.7593665"><ele>140.0</ele><time>2026-04-04T09:16:06.029Z</time></trkpt><trkpt lat="43.4326741" lon="10.7593222"><ele>139.33333333333331</ele><time>2026-04-04T09:16:07.03Z</time></trkpt><trkpt lat="43.4324975" lon="10.7592894"><ele>138.66666666666666</ele><time>2026-04-04T09:16:08.026Z</time></trkpt><trkpt lat="43.4323174" lon="10.7592708"><ele>138.0</ele><time>2026-04-04T09:16:09.023Z</time></trkpt><trkpt lat="43.4321401" lon="10.7592847"><ele>139.66666666666666</ele><time>2026-04-04T09:16:10.038Z</time></trkpt><trkpt lat="43.4319594" lon="10.7593211"><ele>141.33333333333331</ele><time>2026-04-04T09:16:11.018Z</time></trkpt><trkpt lat="43.4317782" lon="10.7593707"><ele>143.0</ele><time>2026-04-04T09:16:12.034Z</time></trkpt><trkpt lat="43.4315944" lon="10.7594259"><ele>145.0</ele><time>2026-04-04T09:16:13.022Z</time></trkpt><trkpt lat="43.4314147" lon="10.7594871"><ele>147.0</ele><time>2026-04-04T09:16:14.022Z</time></trkpt><trkpt lat="43.4312352" lon="10.7595474"><ele>149.0</ele><time>2026-04-04T09:16:15.036Z</time></trkpt><trkpt lat="43.4310583" lon="10.7596066"><ele>149.0</ele><time>2026-04-04T09:16:16.027Z</time></trkpt><trkpt lat="43.4308791" lon="10.7596608"><ele>149.0</ele><time>2026-04-04T09:16:17.039Z</time></trkpt><trkpt lat="43.4306999" lon="10.7597142"><ele>149.0</ele><time>2026-04-04T09:16:18.019Z</time></trkpt><trkpt lat="43.4305152" lon="10.7597577"><ele>148.33333333333331</ele><time>2026-04-04T09:16:19.019Z</time></trkpt><trkpt lat="43.4303321" lon="10.7597751"><ele>147.66666666666666</ele><time>2026-04-04T09:16:20.019Z</time></trkpt><trkpt lat="43.4301438" lon="10.7597458"><ele>147.0</ele><time>2026-04-04T09:16:21.024Z</time></trkpt><trkpt lat="43.4299578" lon="10.759682"><ele>147.0</ele><time>2026-04-04T09:16:22.015Z</time></trkpt><trkpt lat="43.4297867" lon="10.7596134"><ele>147.0</ele><time>2026-04-04T09:16:23.026Z</time></trkpt><trkpt lat="43.4296185" lon="10.759545"><ele>147.0</ele><time>2026-04-04T09:16:24.024Z</time></trkpt><trkpt lat="43.429448" lon="10.7594993"><ele>148.66666666666666</ele><time>2026-04-04T09:16:25.041Z</time></trkpt><trkpt lat="43.4292795" lon="10.7594966"><ele>150.33333333333331</ele><time>2026-04-04T09:16:26.057Z</time></trkpt><trkpt lat="43.429109" lon="10.7595598"><ele>152.0</ele><time>2026-04-04T09:16:27.032Z</time></trkpt><trkpt lat="43.4289585" lon="10.7596844"><ele>152.0</ele><time>2026-04-04T09:16:28.024Z</time></trkpt><trkpt lat="43.4288311" lon="10.7598435"><ele>152.0</ele><time>2026-04-04T09:16:29.034Z</time></trkpt><trkpt lat="43.428699" lon="10.7600157"><ele>152.0</ele><time>2026-04-04T09:16:30.043Z</time></trkpt><trkpt lat="43.4285589" lon="10.7601602"><ele>154.0</ele><time>2026-04-04T09:16:31.037Z</time></trkpt><trkpt lat="43.4284043" lon="10.7602601"><ele>156.0</ele><time>2026-04-04T09:16:32.037Z</time></trkpt><trkpt lat="43.4282498" lon="10.7603119"><ele>158.0</ele><time>2026-04-04T09:16:33.028Z</time></trkpt><trkpt lat="43.4281156" lon="10.760367"><ele>158.0</ele><time>2026-04-04T09:16:34.035Z</time></trkpt><trkpt lat="43.4279941" lon="10.7604769"><ele>158.0</ele><time>2026-04-04T09:16:35.041Z</time></trkpt><trkpt lat="43.4279006" lon="10.7606629"><ele>158.0</ele><time>2026-04-04T09:16:36.037Z</time></trkpt><trkpt lat="43.4278178" lon="10.7608841"><ele>156.33333333333331</ele><time>2026-04-04T09:16:37.027Z</time></trkpt><trkpt lat="43.4277335" lon="10.7610885"><ele>154.66666666666666</ele><time>2026-04-04T09:16:38.056Z</time></trkpt><trkpt lat="43.4276392" lon="10.7612785"><ele>153.0</ele><time>2026-04-04T09:16:39.043Z</time></trkpt><trkpt lat="43.4275578" lon="10.7614589"><ele>153.0</ele><time>2026-04-04T09:16:40.019Z</time></trkpt><trkpt lat="43.4274903" lon="10.7616479"><ele>153.0</ele><time>2026-04-04T09:16:41.039Z</time></trkpt><trkpt lat="43.427452" lon="10.761837"><ele>153.0</ele><time>2026-04-04T09:16:42.039Z</time></trkpt><trkpt lat="43.4274409" lon="10.7620245"><ele>153.0</ele><time>2026-04-04T09:16:43.032Z</time></trkpt><trkpt lat="43.4274528" lon="10.7622071"><ele>153.20000000000002</ele><time>2026-04-04T09:16:44.041Z</time></trkpt><trkpt lat="43.4274741" lon="10.7623828"><ele>153.4</ele><time>2026-04-04T09:16:45.033Z</time></trkpt><trkpt lat="43.4274794" lon="10.7625356"><ele>153.60000000000002</ele><time>2026-04-04T09:16:46.032Z</time></trkpt><trkpt lat="43.4274495" lon="10.7626689"><ele>153.8</ele><time>2026-04-04T09:16:47.037Z</time></trkpt><trkpt lat="43.4273858" lon="10.7627846"><ele>154.0</ele><time>2026-04-04T09:16:48.023Z</time></trkpt><trkpt lat="43.4272858" lon="10.7628714"><ele>154.75</ele><time>2026-04-04T09:16:49.029Z</time></trkpt><trkpt lat="43.4271718" lon="10.7629448"><ele>155.5</ele><time>2026-04-04T09:16:50.051Z</time></trkpt><trkpt lat="43.4270506" lon="10.7630038"><ele>156.25</ele><time>2026-04-04T09:16:51.027Z</time></trkpt><trkpt lat="43.4269266" lon="10.7630586"><ele>157.0</ele><time>2026-04-04T09:16:52.051Z</time></trkpt><trkpt lat="43.4268146" lon="10.76314"><ele>154.75</ele><time>2026-04-04T09:16:53.028Z</time></trkpt><trkpt lat="43.4267279" lon="10.7632435"><ele>152.5</ele><time>2026-04-04T09:16:54.038Z</time></trkpt><trkpt lat="43.4266673" lon="10.7633823"><ele>150.25</ele><time>2026-04-04T09:16:55.026Z</time></trkpt><trkpt lat="43.4266296" lon="10.7635474"><ele>148.0</ele><time>2026-04-04T09:16:56.051Z</time></trkpt><trkpt lat="43.4266073" lon="10.7637235"><ele>148.0</ele><time>2026-04-04T09:16:57.035Z</time></trkpt><trkpt lat="43.4265825" lon="10.7638916"><ele>148.0</ele><time>2026-04-04T09:16:58.046Z</time></trkpt><trkpt lat="43.4265406" lon="10.7640408"><ele>148.0</ele><time>2026-04-04T09:16:59.038Z</time></trkpt><trkpt lat="43.4264748" lon="10.7641509"><ele>148.0</ele><time>2026-04-04T09:17:00.039Z</time></trkpt><trkpt lat="43.4263864" lon="10.7642222"><ele>148.0</ele><time>2026-04-04T09:17:01.036Z</time></trkpt><trkpt lat="43.4262934" lon="10.7642837"><ele>145.0</ele><time>2026-04-04T09:17:02.046Z</time></trkpt><trkpt lat="43.426211" lon="10.7643812"><ele>142.0</ele><time>2026-04-04T09:17:03.036Z</time></trkpt><trkpt lat="43.4261484" lon="10.7645246"><ele>139.0</ele><time>2026-04-04T09:17:04.052Z</time></trkpt><trkpt lat="43.4261159" lon="10.764682"><ele>136.0</ele><time>2026-04-04T09:17:05.035Z</time></trkpt><trkpt lat="43.4261095" lon="10.7648563"><ele>136.0</ele><time>2026-04-04T09:17:06.053Z</time></trkpt><trkpt lat="43.4261138" lon="10.7650258"><ele>136.0</ele><time>2026-04-04T09:17:07.022Z</time></trkpt><trkpt lat="43.4261116" lon="10.7651886"><ele>136.0</ele><time>2026-04-04T09:17:08.036Z</time></trkpt><trkpt lat="43.426089" lon="10.7653551"><ele>136.0</ele><time>2026-04-04T09:17:09.047Z</time></trkpt><trkpt lat="43.426036" lon="10.7655095"><ele>136.0</ele><time>2026-04-04T09:17:10.05Z</time></trkpt><trkpt lat="43.4259529" lon="10.7656455"><ele>136.0</ele><time>2026-04-04T09:17:11.023Z</time></trkpt><trkpt lat="43.4258467" lon="10.7657611"><ele>136.0</ele><time>2026-04-04T09:17:12.061Z</time></trkpt><trkpt lat="43.4257502" lon="10.7658879"><ele>136.0</ele><time>2026-04-04T09:17:13.047Z</time></trkpt><trkpt lat="43.4256626" lon="10.7660394"><ele>137.25</ele><time>2026-04-04T09:17:14.037Z</time></trkpt><trkpt lat="43.4255883" lon="10.7662108"><ele>138.5</ele><time>2026-04-04T09:17:15.035Z</time></trkpt><trkpt lat="43.4255167" lon="10.7663915"><ele>139.75</ele><time>2026-04-04T09:17:16.037Z</time></trkpt><trkpt lat="43.4254443" lon="10.7665684"><ele>141.0</ele><time>2026-04-04T09:17:17.048Z</time></trkpt><trkpt lat="43.4253706" lon="10.7667497"><ele>137.0</ele><time>2026-04-04T09:17:18.055Z</time></trkpt><trkpt lat="43.4253007" lon="10.7669373"><ele>133.0</ele><time>2026-04-04T09:17:19.032Z</time></trkpt><trkpt lat="43.4252335" lon="10.7671279"><ele>129.0</ele><time>2026-04-04T09:17:20.061Z</time></trkpt><trkpt lat="43.4251616" lon="10.7673195"><ele>129.0</ele><time>2026-04-04T09:17:21.013Z</time></trkpt><trkpt lat="43.4250821" lon="10.7675068"><ele>129.0</ele><time>2026-04-04T09:17:22.051Z</time></trkpt><trkpt lat="43.4249935" lon="10.7676909"><ele>129.0</ele><time>2026-04-04T09:17:23.026Z</time></trkpt><trkpt lat="43.4248876" lon="10.7678552"><ele>127.66666666666666</ele><time>2026-04-04T09:17:24.045Z</time></trkpt><trkpt lat="43.4247657" lon="10.7679987"><ele>126.33333333333333</ele><time>2026-04-04T09:17:25.043Z</time></trkpt><trkpt lat="43.4246379" lon="10.7681317"><ele>125.0</ele><time>2026-04-04T09:17:26.013Z</time></trkpt><trkpt lat="43.4245141" lon="10.7682723"><ele>125.0</ele><time>2026-04-04T09:17:27.036Z</time></trkpt><trkpt lat="43.4243968" lon="10.7684171"><ele>125.0</ele><time>2026-04-04T09:17:28.04Z</time></trkpt><trkpt lat="43.4242847" lon="10.7685688"><ele>125.0</ele><time>2026-04-04T09:17:29.052Z</time></trkpt><trkpt lat="43.4241804" lon="10.7687132"><ele>124.0</ele><time>2026-04-04T09:17:30.041Z</time></trkpt><trkpt lat="43.4240845" lon="10.7688499"><ele>123.0</ele><time>2026-04-04T09:17:31.036Z</time></trkpt><trkpt lat="43.4239986" lon="10.768971"><ele>122.0</ele><time>2026-04-04T09:17:32.048Z</time></trkpt><trkpt lat="43.4239304" lon="10.7690903"><ele>121.0</ele><time>2026-04-04T09:17:33.032Z</time></trkpt><trkpt lat="43.4239008" lon="10.7692285"><ele>121.5</ele><time>2026-04-04T09:17:34.038Z</time></trkpt><trkpt lat="43.4239168" lon="10.7693854"><ele>122.0</ele><time>2026-04-04T09:17:35.036Z</time></trkpt><trkpt lat="43.4239674" lon="10.7695422"><ele>122.5</ele><time>2026-04-04T09:17:36.035Z</time></trkpt><trkpt lat="43.4240428" lon="10.7696848"><ele>123.0</ele><time>2026-04-04T09:17:37.04Z</time></trkpt><trkpt lat="43.4241245" lon="10.7698345"><ele>123.0</ele><time>2026-04-04T09:17:38.031Z</time></trkpt><trkpt lat="43.424192" lon="10.7699993"><ele>123.0</ele><time>2026-04-04T09:17:39.042Z</time></trkpt><trkpt lat="43.4242469" lon="10.7701763"><ele>123.0</ele><time>2026-04-04T09:17:40.02Z</time></trkpt><trkpt lat="43.4242842" lon="10.7703608"><ele>123.0</ele><time>2026-04-04T09:17:41.035Z</time></trkpt><trkpt lat="43.4242837" lon="10.7705561"><ele>123.5</ele><time>2026-04-04T09:17:42.031Z</time></trkpt><trkpt lat="43.4242411" lon="10.7707284"><ele>124.0</ele><time>2026-04-04T09:17:43.032Z</time></trkpt><trkpt lat="43.4241701" lon="10.7708869"><ele>124.5</ele><time>2026-04-04T09:17:44.037Z</time></trkpt><trkpt lat="43.4240882" lon="10.7710353"><ele>125.0</ele><time>2026-04-04T09:17:45.037Z</time></trkpt><trkpt lat="43.4240033" lon="10.7711746"><ele>125.0</ele><time>2026-04-04T09:17:46.044Z</time></trkpt><trkpt lat="43.4239154" lon="10.7713104"><ele>125.0</ele><time>2026-04-04T09:17:47.036Z</time></trkpt><trkpt lat="43.42383" lon="10.7714326"><ele>125.0</ele><time>2026-04-04T09:17:48.035Z</time></trkpt><trkpt lat="43.4237519" lon="10.77153"><ele>125.0</ele><time>2026-04-04T09:17:49.035Z</time></trkpt><trkpt lat="43.4236864" lon="10.7716028"><ele>125.0</ele><time>2026-04-04T09:17:50.048Z</time></trkpt><trkpt lat="43.4236034" lon="10.7716683"><ele>124.83333333333333</ele><time>2026-04-04T09:17:52.061Z</time></trkpt><trkpt lat="43.4235264" lon="10.771729"><ele>124.66666666666666</ele><time>2026-04-04T09:17:55.03Z</time></trkpt><trkpt lat="43.4234671" lon="10.7717877"><ele>124.5</ele><time>2026-04-04T09:17:57.044Z</time></trkpt><trkpt lat="43.4234082" lon="10.7718328"><ele>124.33333333333334</ele><time>2026-04-04T09:17:59.037Z</time></trkpt><trkpt lat="43.4233501" lon="10.7718679"><ele>124.16666666666667</ele><time>2026-04-04T09:18:02.053Z</time></trkpt><trkpt lat="43.4232837" lon="10.7719841"><ele>124.0</ele><time>2026-04-04T09:18:39.03Z</time></trkpt><trkpt lat="43.4232531" lon="10.7720804"><ele>124.0</ele><time>2026-04-04T09:18:40.02Z</time></trkpt><trkpt lat="43.4232383" lon="10.7722077"><ele>124.0</ele><time>2026-04-04T09:18:41.031Z</time></trkpt><trkpt lat="43.4232461" lon="10.772338"><ele>124.0</ele><time>2026-04-04T09:18:42.029Z</time></trkpt><trkpt lat="43.4232681" lon="10.7724686"><ele>124.0</ele><time>2026-04-04T09:18:43.038Z</time></trkpt><trkpt lat="43.423286" lon="10.7726166"><ele>124.0</ele><time>2026-04-04T09:18:44.016Z</time></trkpt><trkpt lat="43.4232718" lon="10.7727737"><ele>124.0</ele><time>2026-04-04T09:18:45.03Z</time></trkpt><trkpt lat="43.4232203" lon="10.7729222"><ele>124.0</ele><time>2026-04-04T09:18:46.037Z</time></trkpt><trkpt lat="43.4231414" lon="10.7730438"><ele>124.0</ele><time>2026-04-04T09:18:47.02Z</time></trkpt><trkpt lat="43.4230445" lon="10.7731524"><ele>124.0</ele><time>2026-04-04T09:18:48.015Z</time></trkpt><trkpt lat="43.4229428" lon="10.7732694"><ele>124.0</ele><time>2026-04-04T09:18:49.022Z</time></trkpt><trkpt lat="43.4228399" lon="10.7733852"><ele>124.0</ele><time>2026-04-04T09:18:50.013Z</time></trkpt><trkpt lat="43.4227375" lon="10.7735025"><ele>124.0</ele><time>2026-04-04T09:18:51.021Z</time></trkpt><trkpt lat="43.4226386" lon="10.7736155"><ele>124.0</ele><time>2026-04-04T09:18:52.008Z</time></trkpt><trkpt lat="43.422549" lon="10.7737218"><ele>124.4</ele><time>2026-04-04T09:18:53.023Z</time></trkpt><trkpt lat="43.4224576" lon="10.7738219"><ele>124.80000000000001</ele><time>2026-04-04T09:18:54.018Z</time></trkpt><trkpt lat="43.4223662" lon="10.7739111"><ele>125.19999999999999</ele><time>2026-04-04T09:18:55.034Z</time></trkpt><trkpt lat="43.4222853" lon="10.7739903"><ele>125.6</ele><time>2026-04-04T09:18:56.022Z</time></trkpt><trkpt lat="43.4222158" lon="10.7740575"><ele>126.0</ele><time>2026-04-04T09:18:57.024Z</time></trkpt><trkpt lat="43.4221732" lon="10.7741292"><ele>126.0</ele><time>2026-04-04T09:18:58.029Z</time></trkpt><trkpt lat="43.4221796" lon="10.774278"><ele>126.0</ele><time>2026-04-04T09:19:00.027Z</time></trkpt><trkpt lat="43.4222433" lon="10.7744351"><ele>126.0</ele><time>2026-04-04T09:19:02.037Z</time></trkpt><trkpt lat="43.4222792" lon="10.7745312"><ele>126.0</ele><time>2026-04-04T09:19:03.034Z</time></trkpt><trkpt lat="43.4223215" lon="10.774633"><ele>126.0</ele><time>2026-04-04T09:19:04.023Z</time></trkpt><trkpt lat="43.4223621" lon="10.7747536"><ele>126.6</ele><time>2026-04-04T09:19:05.018Z</time></trkpt><trkpt lat="43.4224115" lon="10.7748777"><ele>127.19999999999999</ele><time>2026-04-04T09:19:06.019Z</time></trkpt><trkpt lat="43.4224618" lon="10.7750043"><ele>127.80000000000001</ele><time>2026-04-04T09:19:07.029Z</time></trkpt><trkpt lat="43.4225118" lon="10.7751429"><ele>128.4</ele><time>2026-04-04T09:19:08.024Z</time></trkpt><trkpt lat="43.4225615" lon="10.7752887"><ele>129.0</ele><time>2026-04-04T09:19:09.032Z</time></trkpt><trkpt lat="43.4226093" lon="10.7754363"><ele>129.5</ele><time>2026-04-04T09:19:10.036Z</time></trkpt><trkpt lat="43.4226594" lon="10.7755824"><ele>130.0</ele><time>2026-04-04T09:19:11.035Z</time></trkpt><trkpt lat="43.4227108" lon="10.7757285"><ele>130.5</ele><time>2026-04-04T09:19:12.025Z</time></trkpt><trkpt lat="43.4227603" lon="10.775874"><ele>131.0</ele><time>2026-04-04T09:19:13.028Z</time></trkpt><trkpt lat="43.4228165" lon="10.7760213"><ele>131.0</ele><time>2026-04-04T09:19:14.029Z</time></trkpt><trkpt lat="43.4228823" lon="10.7761501"><ele>131.0</ele><time>2026-04-04T09:19:15.027Z</time></trkpt><trkpt lat="43.422965" lon="10.7762572"><ele>131.0</ele><time>2026-04-04T09:19:16.02Z</time></trkpt><trkpt lat="43.4230645" lon="10.7763227"><ele>131.0</ele><time>2026-04-04T09:19:17.02Z</time></trkpt><trkpt lat="43.423176" lon="10.776363"><ele>131.25</ele><time>2026-04-04T09:19:18.027Z</time></trkpt><trkpt lat="43.4232937" lon="10.7763803"><ele>131.5</ele><time>2026-04-04T09:19:19.032Z</time></trkpt><trkpt lat="43.4234105" lon="10.7763843"><ele>131.75</ele><time>2026-04-04T09:19:20.027Z</time></trkpt><trkpt lat="43.4235283" lon="10.7763896"><ele>132.0</ele><time>2026-04-04T09:19:21.021Z</time></trkpt><trkpt lat="43.423647" lon="10.7763692"><ele>132.0</ele><time>2026-04-04T09:19:22.027Z</time></trkpt><trkpt lat="43.4237667" lon="10.776325"><ele>132.0</ele><time>2026-04-04T09:19:23.021Z</time></trkpt><trkpt lat="43.4238865" lon="10.7762611"><ele>132.0</ele><time>2026-04-04T09:19:24.055Z</time></trkpt><trkpt lat="43.4240044" lon="10.7761936"><ele>132.0</ele><time>2026-04-04T09:19:25.021Z</time></trkpt><trkpt lat="43.4241176" lon="10.7761201"><ele>134.25</ele><time>2026-04-04T09:19:26.021Z</time></trkpt><trkpt lat="43.4242149" lon="10.7760238"><ele>136.5</ele><time>2026-04-04T09:19:27.042Z</time></trkpt><trkpt lat="43.4242876" lon="10.775894"><ele>138.75</ele><time>2026-04-04T09:19:28.036Z</time></trkpt><trkpt lat="43.4243343" lon="10.7757347"><ele>141.0</ele><time>2026-04-04T09:19:29.037Z</time></trkpt><trkpt lat="43.4243635" lon="10.7755705"><ele>141.0</ele><time>2026-04-04T09:19:30.043Z</time></trkpt><trkpt lat="43.4243872" lon="10.7754171"><ele>141.0</ele><time>2026-04-04T09:19:31.028Z</time></trkpt><trkpt lat="43.4244243" lon="10.7752617"><ele>141.0</ele><time>2026-04-04T09:19:32.068Z</time></trkpt><trkpt lat="43.4244787" lon="10.7751037"><ele>141.0</ele><time>2026-04-04T09:19:33.043Z</time></trkpt><trkpt lat="43.4245485" lon="10.7749627"><ele>140.2</ele><time>2026-04-04T09:19:34.031Z</time></trkpt><trkpt lat="43.4246277" lon="10.7748292"><ele>139.39999999999998</ele><time>2026-04-04T09:19:35.036Z</time></trkpt><trkpt lat="43.4247095" lon="10.7747069"><ele>138.6</ele><time>2026-04-04T09:19:36.04Z</time></trkpt><trkpt lat="43.4247941" lon="10.7746259"><ele>137.79999999999998</ele><time>2026-04-04T09:19:37.025Z</time></trkpt><trkpt lat="43.4248789" lon="10.7745922"><ele>137.0</ele><time>2026-04-04T09:19:38.024Z</time></trkpt><trkpt lat="43.424963" lon="10.7745956"><ele>139.0</ele><time>2026-04-04T09:19:39.022Z</time></trkpt><trkpt lat="43.4250363" lon="10.7746654"><ele>141.0</ele><time>2026-04-04T09:19:40.028Z</time></trkpt><trkpt lat="43.4250815" lon="10.7747643"><ele>143.0</ele><time>2026-04-04T09:19:41.03Z</time></trkpt><trkpt lat="43.4251005" lon="10.7748775"><ele>145.0</ele><time>2026-04-04T09:19:42.027Z</time></trkpt><trkpt lat="43.4251028" lon="10.7749985"><ele>147.0</ele><time>2026-04-04T09:19:43.035Z</time></trkpt><trkpt lat="43.4251015" lon="10.7751346"><ele>149.0</ele><time>2026-04-04T09:19:44.032Z</time></trkpt><trkpt lat="43.4251091" lon="10.7752954"><ele>150.75</ele><time>2026-04-04T09:19:45.047Z</time></trkpt><trkpt lat="43.4251251" lon="10.7754573"><ele>152.5</ele><time>2026-04-04T09:19:46.03Z</time></trkpt><trkpt lat="43.4251331" lon="10.7756221"><ele>154.25</ele><time>2026-04-04T09:19:47.04Z</time></trkpt><trkpt lat="43.4251367" lon="10.7757906"><ele>156.0</ele><time>2026-04-04T09:19:48.046Z</time></trkpt><trkpt lat="43.4251414" lon="10.7759585"><ele>158.0</ele><time>2026-04-04T09:19:49.033Z</time></trkpt><trkpt lat="43.4251434" lon="10.7761317"><ele>160.0</ele><time>2026-04-04T09:19:50.025Z</time></trkpt><trkpt lat="43.4251422" lon="10.776297"><ele>162.0</ele><time>2026-04-04T09:19:51.038Z</time></trkpt><trkpt lat="43.4251157" lon="10.7764504"><ele>164.0</ele><time>2026-04-04T09:19:52.033Z</time></trkpt><trkpt lat="43.4250591" lon="10.7765945"><ele>164.0</ele><time>2026-04-04T09:19:53.035Z</time></trkpt><trkpt lat="43.4249919" lon="10.7767246"><ele>164.0</ele><time>2026-04-04T09:19:54.062Z</time></trkpt><trkpt lat="43.4249275" lon="10.7768525"><ele>164.0</ele><time>2026-04-04T09:19:55.051Z</time></trkpt><trkpt lat="43.424861" lon="10.7769734"><ele>164.0</ele><time>2026-04-04T09:19:56.044Z</time></trkpt><trkpt lat="43.4247982" lon="10.7771079"><ele>162.5</ele><time>2026-04-04T09:19:57.034Z</time></trkpt><trkpt lat="43.4247438" lon="10.7772586"><ele>161.0</ele><time>2026-04-04T09:19:58.046Z</time></trkpt><trkpt lat="43.4246972" lon="10.777413"><ele>159.5</ele><time>2026-04-04T09:19:59.02Z</time></trkpt><trkpt lat="43.4246616" lon="10.7775741"><ele>158.0</ele><time>2026-04-04T09:20:00.047Z</time></trkpt><trkpt lat="43.4246401" lon="10.7777368"><ele>158.0</ele><time>2026-04-04T09:20:01.027Z</time></trkpt><trkpt lat="43.4246304" lon="10.777903"><ele>158.0</ele><time>2026-04-04T09:20:02.064Z</time></trkpt><trkpt lat="43.4246266" lon="10.778069"><ele>158.0</ele><time>2026-04-04T09:20:03.035Z</time></trkpt><trkpt lat="43.4246297" lon="10.7782355"><ele>158.0</ele><time>2026-04-04T09:20:04.039Z</time></trkpt><trkpt lat="43.4246582" lon="10.7783926"><ele>162.75</ele><time>2026-04-04T09:20:05.037Z</time></trkpt><trkpt lat="43.4247095" lon="10.7785376"><ele>167.5</ele><time>2026-04-04T09:20:06.055Z</time></trkpt><trkpt lat="43.4247735" lon="10.778669"><ele>172.25</ele><time>2026-04-04T09:20:07.032Z</time></trkpt><trkpt lat="43.4248462" lon="10.7787889"><ele>177.0</ele><time>2026-04-04T09:20:08.053Z</time></trkpt><trkpt lat="43.4249197" lon="10.7789229"><ele>177.0</ele><time>2026-04-04T09:20:09.036Z</time></trkpt><trkpt lat="43.4249989" lon="10.7790512"><ele>177.0</ele><time>2026-04-04T09:20:10.063Z</time></trkpt><trkpt lat="43.4250737" lon="10.7791829"><ele>177.0</ele><time>2026-04-04T09:20:11.033Z</time></trkpt><trkpt lat="43.4251484" lon="10.7793177"><ele>177.0</ele><time>2026-04-04T09:20:12.04Z</time></trkpt><trkpt lat="43.4252233" lon="10.7794535"><ele>175.25</ele><time>2026-04-04T09:20:13.038Z</time></trkpt><trkpt lat="43.4252982" lon="10.7795918"><ele>173.5</ele><time>2026-04-04T09:20:14.037Z</time></trkpt><trkpt lat="43.4253764" lon="10.7797233"><ele>171.75</ele><time>2026-04-04T09:20:15.028Z</time></trkpt><trkpt lat="43.4254604" lon="10.7798428"><ele>170.0</ele><time>2026-04-04T09:20:16.043Z</time></trkpt><trkpt lat="43.4255536" lon="10.7799464"><ele>171.25</ele><time>2026-04-04T09:20:17.036Z</time></trkpt><trkpt lat="43.4256574" lon="10.7800388"><ele>172.5</ele><time>2026-04-04T09:20:18.043Z</time></trkpt><trkpt lat="43.4257657" lon="10.7801215"><ele>173.75</ele><time>2026-04-04T09:20:19.027Z</time></trkpt><trkpt lat="43.4258771" lon="10.7801976"><ele>175.0</ele><time>2026-04-04T09:20:20.057Z</time></trkpt><trkpt lat="43.4259983" lon="10.7802662"><ele>175.0</ele><time>2026-04-04T09:20:21.029Z</time></trkpt><trkpt lat="43.4261205" lon="10.7803185"><ele>175.0</ele><time>2026-04-04T09:20:22.05Z</time></trkpt><trkpt lat="43.4262409" lon="10.7803481"><ele>175.0</ele><time>2026-04-04T09:20:23.036Z</time></trkpt><trkpt lat="43.4263622" lon="10.7803558"><ele>175.0</ele><time>2026-04-04T09:20:24.065Z</time></trkpt><trkpt lat="43.4264888" lon="10.7803649"><ele>177.75</ele><time>2026-04-04T09:20:25.051Z</time></trkpt><trkpt lat="43.4266123" lon="10.7804004"><ele>180.5</ele><time>2026-04-04T09:20:26.01Z</time></trkpt><trkpt lat="43.4267334" lon="10.7804772"><ele>183.25</ele><time>2026-04-04T09:20:27.04Z</time></trkpt><trkpt lat="43.4268439" lon="10.7805724"><ele>186.0</ele><time>2026-04-04T09:20:28.058Z</time></trkpt><trkpt lat="43.4269374" lon="10.7806869"><ele>186.0</ele><time>2026-04-04T09:20:29.028Z</time></trkpt><trkpt lat="43.4270263" lon="10.780803"><ele>186.0</ele><time>2026-04-04T09:20:30.036Z</time></trkpt><trkpt lat="43.4271085" lon="10.7809212"><ele>186.0</ele><time>2026-04-04T09:20:31.047Z</time></trkpt><trkpt lat="43.4271928" lon="10.7810394"><ele>186.0</ele><time>2026-04-04T09:20:32.035Z</time></trkpt><trkpt lat="43.4272716" lon="10.7811613"><ele>187.75</ele><time>2026-04-04T09:20:33.024Z</time></trkpt><trkpt lat="43.4273473" lon="10.7812846"><ele>189.5</ele><time>2026-04-04T09:20:34.052Z</time></trkpt><trkpt lat="43.4274261" lon="10.7814062"><ele>191.25</ele><time>2026-04-04T09:20:35.023Z</time></trkpt><trkpt lat="43.4275103" lon="10.7815289"><ele>193.0</ele><time>2026-04-04T09:20:36.047Z</time></trkpt><trkpt lat="43.4275939" lon="10.781649"><ele>193.0</ele><time>2026-04-04T09:20:37.035Z</time></trkpt><trkpt lat="43.4276767" lon="10.7817717"><ele>193.0</ele><time>2026-04-04T09:20:38.053Z</time></trkpt><trkpt lat="43.427757" lon="10.7818944"><ele>193.0</ele><time>2026-04-04T09:20:39.031Z</time></trkpt><trkpt lat="43.4278416" lon="10.7820251"><ele>193.0</ele><time>2026-04-04T09:20:40.049Z</time></trkpt><trkpt lat="43.4279256" lon="10.7821512"><ele>194.75</ele><time>2026-04-04T09:20:41.037Z</time></trkpt><trkpt lat="43.4280096" lon="10.7822818"><ele>196.5</ele><time>2026-04-04T09:20:42.055Z</time></trkpt><trkpt lat="43.4280865" lon="10.7824191"><ele>198.25</ele><time>2026-04-04T09:20:43.034Z</time></trkpt><trkpt lat="43.4281585" lon="10.7825638"><ele>200.0</ele><time>2026-04-04T09:20:44.059Z</time></trkpt><trkpt lat="43.428216" lon="10.7827046"><ele>200.25</ele><time>2026-04-04T09:20:45.039Z</time></trkpt><trkpt lat="43.4282639" lon="10.7828495"><ele>200.5</ele><time>2026-04-04T09:20:46.037Z</time></trkpt><trkpt lat="43.4283102" lon="10.7829988"><ele>200.75</ele><time>2026-04-04T09:20:47.022Z</time></trkpt><trkpt lat="43.428354" lon="10.7831473"><ele>201.0</ele><time>2026-04-04T09:20:48.044Z</time></trkpt><trkpt lat="43.4283988" lon="10.7832984"><ele>201.0</ele><time>2026-04-04T09:20:49.033Z</time></trkpt><trkpt lat="43.4284394" lon="10.7834557"><ele>201.0</ele><time>2026-04-04T09:20:50.033Z</time></trkpt><trkpt lat="43.4284753" lon="10.7836108"><ele>201.0</ele><time>2026-04-04T09:20:51.033Z</time></trkpt><trkpt lat="43.4285069" lon="10.7837638"><ele>201.0</ele><time>2026-04-04T09:20:52.033Z</time></trkpt><trkpt lat="43.4285386" lon="10.783923"><ele>199.0</ele><time>2026-04-04T09:20:53.02Z</time></trkpt><trkpt lat="43.4285654" lon="10.7840929"><ele>197.0</ele><time>2026-04-04T09:20:54.043Z</time></trkpt><trkpt lat="43.4285944" lon="10.7842619"><ele>195.0</ele><time>2026-04-04T09:20:55.026Z</time></trkpt><trkpt lat="43.4286282" lon="10.7844331"><ele>193.0</ele><time>2026-04-04T09:20:56.04Z</time></trkpt><trkpt lat="43.4286594" lon="10.7846021"><ele>193.75</ele><time>2026-04-04T09:20:57.032Z</time></trkpt><trkpt lat="43.4286871" lon="10.7847646"><ele>194.5</ele><time>2026-04-04T09:20:58.035Z</time></trkpt><trkpt lat="43.4287095" lon="10.7849221"><ele>195.25</ele><time>2026-04-04T09:20:59.036Z</time></trkpt><trkpt lat="43.4287239" lon="10.7850819"><ele>196.0</ele><time>2026-04-04T09:21:00.043Z</time></trkpt><trkpt lat="43.4287286" lon="10.7852461"><ele>196.0</ele><time>2026-04-04T09:21:01.047Z</time></trkpt><trkpt lat="43.4287095" lon="10.7854101"><ele>196.0</ele><time>2026-04-04T09:21:02.045Z</time></trkpt><trkpt lat="43.4286752" lon="10.7855631"><ele>196.0</ele><time>2026-04-04T09:21:03.032Z</time></trkpt><trkpt lat="43.4286296" lon="10.7857136"><ele>196.0</ele><time>2026-04-04T09:21:04.055Z</time></trkpt><trkpt lat="43.4285722" lon="10.7858589"><ele>196.0</ele><time>2026-04-04T09:21:05.026Z</time></trkpt><trkpt lat="43.4285035" lon="10.7859979"><ele>196.0</ele><time>2026-04-04T09:21:06.045Z</time></trkpt><trkpt lat="43.4284258" lon="10.7861349"><ele>196.0</ele><time>2026-04-04T09:21:07.034Z</time></trkpt><trkpt lat="43.4283409" lon="10.786266"><ele>196.0</ele><time>2026-04-04T09:21:08.041Z</time></trkpt><trkpt lat="43.4282473" lon="10.786397"><ele>196.5</ele><time>2026-04-04T09:21:09.036Z</time></trkpt><trkpt lat="43.4281561" lon="10.7865244"><ele>197.0</ele><time>2026-04-04T09:21:10.045Z</time></trkpt><trkpt lat="43.4280551" lon="10.786652"><ele>197.5</ele><time>2026-04-04T09:21:11.025Z</time></trkpt><trkpt lat="43.4279507" lon="10.7867726"><ele>198.0</ele><time>2026-04-04T09:21:12.024Z</time></trkpt><trkpt lat="43.4278493" lon="10.7868921"><ele>199.0</ele><time>2026-04-04T09:21:13.028Z</time></trkpt><trkpt lat="43.4277477" lon="10.7870133"><ele>200.0</ele><time>2026-04-04T09:21:14.02Z</time></trkpt><trkpt lat="43.4276453" lon="10.7871387"><ele>201.0</ele><time>2026-04-04T09:21:15.025Z</time></trkpt><trkpt lat="43.4275424" lon="10.7872619"><ele>202.0</ele><time>2026-04-04T09:21:16.022Z</time></trkpt><trkpt lat="43.4274452" lon="10.7873899"><ele>202.0</ele><time>2026-04-04T09:21:17.034Z</time></trkpt><trkpt lat="43.4273541" lon="10.7875332"><ele>202.0</ele><time>2026-04-04T09:21:18.027Z</time></trkpt><trkpt lat="43.4272649" lon="10.7876721"><ele>202.0</ele><time>2026-04-04T09:21:19.029Z</time></trkpt><trkpt lat="43.4271782" lon="10.7878089"><ele>202.0</ele><time>2026-04-04T09:21:20.023Z</time></trkpt><trkpt lat="43.4271026" lon="10.7879437"><ele>201.6</ele><time>2026-04-04T09:21:21.045Z</time></trkpt><trkpt lat="43.4270357" lon="10.7880704"><ele>201.2</ele><time>2026-04-04T09:21:22.036Z</time></trkpt><trkpt lat="43.426979" lon="10.7881923"><ele>200.8</ele><time>2026-04-04T09:21:23.023Z</time></trkpt><trkpt lat="43.4269379" lon="10.7883255"><ele>200.4</ele><time>2026-04-04T09:21:24.031Z</time></trkpt><trkpt lat="43.4269108" lon="10.7884653"><ele>200.0</ele><time>2026-04-04T09:21:25.03Z</time></trkpt><trkpt lat="43.4268925" lon="10.7886133"><ele>197.75</ele><time>2026-04-04T09:21:26.02Z</time></trkpt><trkpt lat="43.4268792" lon="10.7887685"><ele>195.5</ele><time>2026-04-04T09:21:27.031Z</time></trkpt><trkpt lat="43.4268675" lon="10.788933"><ele>193.25</ele><time>2026-04-04T09:21:28.024Z</time></trkpt><trkpt lat="43.426859" lon="10.789105"><ele>191.0</ele><time>2026-04-04T09:21:29.018Z</time></trkpt><trkpt lat="43.4268516" lon="10.7892791"><ele>190.25</ele><time>2026-04-04T09:21:30.043Z</time></trkpt><trkpt lat="43.4268467" lon="10.7894555"><ele>189.5</ele><time>2026-04-04T09:21:31.033Z</time></trkpt><trkpt lat="43.4268448" lon="10.7896345"><ele>188.75</ele><time>2026-04-04T09:21:32.041Z</time></trkpt><trkpt lat="43.4268404" lon="10.7898117"><ele>188.0</ele><time>2026-04-04T09:21:33.018Z</time></trkpt><trkpt lat="43.4268373" lon="10.7899923"><ele>188.0</ele><time>2026-04-04T09:21:34.045Z</time></trkpt><trkpt lat="43.4268353" lon="10.7901743"><ele>188.0</ele><time>2026-04-04T09:21:35.027Z</time></trkpt><trkpt lat="43.4268294" lon="10.7903529"><ele>188.0</ele><time>2026-04-04T09:21:36.028Z</time></trkpt><trkpt lat="43.426826" lon="10.7905323"><ele>188.0</ele><time>2026-04-04T09:21:37.039Z</time></trkpt><trkpt lat="43.4268212" lon="10.7907122"><ele>187.25</ele><time>2026-04-04T09:21:38.036Z</time></trkpt><trkpt lat="43.426817" lon="10.7908961"><ele>186.5</ele><time>2026-04-04T09:21:39.033Z</time></trkpt><trkpt lat="43.4268158" lon="10.7910719"><ele>185.75</ele><time>2026-04-04T09:21:40.031Z</time></trkpt><trkpt lat="43.4268135" lon="10.7912442"><ele>185.0</ele><time>2026-04-04T09:21:41.023Z</time></trkpt><trkpt lat="43.4268086" lon="10.7914112"><ele>184.5</ele><time>2026-04-04T09:21:42.025Z</time></trkpt><trkpt lat="43.4268013" lon="10.7915828"><ele>184.0</ele><time>2026-04-04T09:21:43.027Z</time></trkpt><trkpt lat="43.4267902" lon="10.7917625"><ele>183.5</ele><time>2026-04-04T09:21:44.024Z</time></trkpt><trkpt lat="43.426782" lon="10.7919422"><ele>183.0</ele><time>2026-04-04T09:21:45.018Z</time></trkpt><trkpt lat="43.4267714" lon="10.7921266"><ele>181.5</ele><time>2026-04-04T09:21:46.023Z</time></trkpt><trkpt lat="43.4267591" lon="10.7923115"><ele>180.0</ele><time>2026-04-04T09:21:47.024Z</time></trkpt><trkpt lat="43.4267477" lon="10.7924961"><ele>178.5</ele><time>2026-04-04T09:21:48.042Z</time></trkpt><trkpt lat="43.4267354" lon="10.7926778"><ele>177.0</ele><time>2026-04-04T09:21:49.027Z</time></trkpt><trkpt lat="43.4267297" lon="10.7928593"><ele>175.75</ele><time>2026-04-04T09:21:50.023Z</time></trkpt><trkpt lat="43.4267246" lon="10.7930357"><ele>174.5</ele><time>2026-04-04T09:21:51.038Z</time></trkpt><trkpt lat="43.4267212" lon="10.7932081"><ele>173.25</ele><time>2026-04-04T09:21:52.024Z</time></trkpt><trkpt lat="43.4267173" lon="10.793377"><ele>172.0</ele><time>2026-04-04T09:21:53.032Z</time></trkpt><trkpt lat="43.4267106" lon="10.7935504"><ele>171.25</ele><time>2026-04-04T09:21:54.021Z</time></trkpt><trkpt lat="43.4267056" lon="10.7937215"><ele>170.5</ele><time>2026-04-04T09:21:55.027Z</time></trkpt><trkpt lat="43.4267024" lon="10.7938844"><ele>169.75</ele><time>2026-04-04T09:21:56.022Z</time></trkpt><trkpt lat="43.4267037" lon="10.794036"><ele>169.0</ele><time>2026-04-04T09:21:57.021Z</time></trkpt><trkpt lat="43.4267083" lon="10.7941811"><ele>169.0</ele><time>2026-04-04T09:21:58.029Z</time></trkpt><trkpt lat="43.4267119" lon="10.7943196"><ele>169.0</ele><time>2026-04-04T09:21:59.024Z</time></trkpt><trkpt lat="43.4267208" lon="10.7944661"><ele>169.0</ele><time>2026-04-04T09:22:00.023Z</time></trkpt><trkpt lat="43.426751" lon="10.7946151"><ele>169.0</ele><time>2026-04-04T09:22:01.018Z</time></trkpt><trkpt lat="43.4267853" lon="10.7947696"><ele>169.0</ele><time>2026-04-04T09:22:02.031Z</time></trkpt><trkpt lat="43.4268164" lon="10.7949163"><ele>169.0</ele><time>2026-04-04T09:22:03.026Z</time></trkpt><trkpt lat="43.4268543" lon="10.7950478"><ele>169.0</ele><time>2026-04-04T09:22:04.04Z</time></trkpt><trkpt lat="43.4269099" lon="10.7951685"><ele>169.0</ele><time>2026-04-04T09:22:05.039Z</time></trkpt><trkpt lat="43.4269857" lon="10.7952842"><ele>169.0</ele><time>2026-04-04T09:22:06.04Z</time></trkpt><trkpt lat="43.4270785" lon="10.7953904"><ele>169.0</ele><time>2026-04-04T09:22:07.038Z</time></trkpt><trkpt lat="43.4271907" lon="10.7954803"><ele>165.5</ele><time>2026-04-04T09:22:08.028Z</time></trkpt><trkpt lat="43.4273075" lon="10.7955715"><ele>162.0</ele><time>2026-04-04T09:22:09.023Z</time></trkpt><trkpt lat="43.4274177" lon="10.7956554"><ele>158.5</ele><time>2026-04-04T09:22:10.039Z</time></trkpt><trkpt lat="43.4275415" lon="10.7957379"><ele>155.0</ele><time>2026-04-04T09:22:11.016Z</time></trkpt><trkpt lat="43.4276713" lon="10.7958137"><ele>155.0</ele><time>2026-04-04T09:22:12.047Z</time></trkpt><trkpt lat="43.4277997" lon="10.7958859"><ele>155.0</ele><time>2026-04-04T09:22:13.035Z</time></trkpt><trkpt lat="43.4279301" lon="10.7959621"><ele>155.0</ele><time>2026-04-04T09:22:14.036Z</time></trkpt><trkpt lat="43.4280524" lon="10.7960303"><ele>155.0</ele><time>2026-04-04T09:22:15.022Z</time></trkpt><trkpt lat="43.4281725" lon="10.7961034"><ele>154.5</ele><time>2026-04-04T09:22:16.043Z</time></trkpt><trkpt lat="43.4282894" lon="10.7961771"><ele>154.0</ele><time>2026-04-04T09:22:17.023Z</time></trkpt><trkpt lat="43.4284035" lon="10.7962437"><ele>153.5</ele><time>2026-04-04T09:22:18.04Z</time></trkpt><trkpt lat="43.4285087" lon="10.7963225"><ele>153.0</ele><time>2026-04-04T09:22:19.031Z</time></trkpt><trkpt lat="43.4286016" lon="10.7964172"><ele>153.0</ele><time>2026-04-04T09:22:20.047Z</time></trkpt><trkpt lat="43.4286898" lon="10.7965203"><ele>153.0</ele><time>2026-04-04T09:22:21.037Z</time></trkpt><trkpt lat="43.4287792" lon="10.7966227"><ele>153.0</ele><time>2026-04-04T09:22:22.039Z</time></trkpt><trkpt lat="43.4288801" lon="10.7967185"><ele>153.0</ele><time>2026-04-04T09:22:23.029Z</time></trkpt><trkpt lat="43.4289912" lon="10.7968133"><ele>149.5</ele><time>2026-04-04T09:22:24.04Z</time></trkpt><trkpt lat="43.4290977" lon="10.7969197"><ele>146.0</ele><time>2026-04-04T09:22:25.035Z</time></trkpt><trkpt lat="43.4292" lon="10.7970311"><ele>142.5</ele><time>2026-04-04T09:22:26.051Z</time></trkpt><trkpt lat="43.4293055" lon="10.7971518"><ele>139.0</ele><time>2026-04-04T09:22:27.046Z</time></trkpt><trkpt lat="43.4294037" lon="10.7972859"><ele>139.0</ele><time>2026-04-04T09:22:28.032Z</time></trkpt><trkpt lat="43.4294945" lon="10.7974176"><ele>139.0</ele><time>2026-04-04T09:22:29.033Z</time></trkpt><trkpt lat="43.4295839" lon="10.7975522"><ele>139.0</ele><time>2026-04-04T09:22:30.032Z</time></trkpt><trkpt lat="43.4296636" lon="10.7976867"><ele>139.0</ele><time>2026-04-04T09:22:31.029Z</time></trkpt><trkpt lat="43.429736" lon="10.7978103"><ele>137.25</ele><time>2026-04-04T09:22:32.035Z</time></trkpt><trkpt lat="43.4298017" lon="10.797948"><ele>135.5</ele><time>2026-04-04T09:22:33.028Z</time></trkpt><trkpt lat="43.4298694" lon="10.7980943"><ele>133.75</ele><time>2026-04-04T09:22:34.038Z</time></trkpt><trkpt lat="43.4299407" lon="10.7982295"><ele>132.0</ele><time>2026-04-04T09:22:35.031Z</time></trkpt><trkpt lat="43.4300214" lon="10.7983541"><ele>132.0</ele><time>2026-04-04T09:22:36.027Z</time></trkpt><trkpt lat="43.4301071" lon="10.7984646"><ele>132.0</ele><time>2026-04-04T09:22:37.037Z</time></trkpt><trkpt lat="43.4301912" lon="10.7985765"><ele>132.0</ele><time>2026-04-04T09:22:38.053Z</time></trkpt><trkpt lat="43.4302702" lon="10.7986874"><ele>132.0</ele><time>2026-04-04T09:22:39.037Z</time></trkpt><trkpt lat="43.4303455" lon="10.7988053"><ele>133.0</ele><time>2026-04-04T09:22:40.039Z</time></trkpt><trkpt lat="43.4304172" lon="10.7989316"><ele>134.0</ele><time>2026-04-04T09:22:41.024Z</time></trkpt><trkpt lat="43.4304781" lon="10.7990658"><ele>135.0</ele><time>2026-04-04T09:22:42.032Z</time></trkpt><trkpt lat="43.4305257" lon="10.799209"><ele>136.0</ele><time>2026-04-04T09:22:43.032Z</time></trkpt><trkpt lat="43.4305555" lon="10.7993543"><ele>131.75</ele><time>2026-04-04T09:22:44.05Z</time></trkpt><trkpt lat="43.430567" lon="10.7995012"><ele>127.5</ele><time>2026-04-04T09:22:45.016Z</time></trkpt><trkpt lat="43.4305629" lon="10.7996585"><ele>123.25</ele><time>2026-04-04T09:22:46.011Z</time></trkpt><trkpt lat="43.4305484" lon="10.7998246"><ele>119.0</ele><time>2026-04-04T09:22:47.031Z</time></trkpt><trkpt lat="43.4305137" lon="10.7999777"><ele>118.0</ele><time>2026-04-04T09:22:48.023Z</time></trkpt><trkpt lat="43.4304554" lon="10.8001128"><ele>117.0</ele><time>2026-04-04T09:22:49.048Z</time></trkpt><trkpt lat="43.4303829" lon="10.8002202"><ele>116.0</ele><time>2026-04-04T09:22:50.019Z</time></trkpt><trkpt lat="43.4302948" lon="10.8002985"><ele>115.0</ele><time>2026-04-04T09:22:51.027Z</time></trkpt><trkpt lat="43.4301954" lon="10.8003658"><ele>114.0</ele><time>2026-04-04T09:22:52.036Z</time></trkpt><trkpt lat="43.4300846" lon="10.8004189"><ele>114.0</ele><time>2026-04-04T09:22:53.037Z</time></trkpt><trkpt lat="43.4299699" lon="10.8004691"><ele>114.0</ele><time>2026-04-04T09:22:54.029Z</time></trkpt><trkpt lat="43.4298527" lon="10.8005113"><ele>114.0</ele><time>2026-04-04T09:22:55.03Z</time></trkpt><trkpt lat="43.4297343" lon="10.8005463"><ele>114.0</ele><time>2026-04-04T09:22:56.04Z</time></trkpt><trkpt lat="43.4296168" lon="10.8005719"><ele>114.25</ele><time>2026-04-04T09:22:57.017Z</time></trkpt><trkpt lat="43.4294998" lon="10.8005789"><ele>114.5</ele><time>2026-04-04T09:22:58.041Z</time></trkpt><trkpt lat="43.4293834" lon="10.8005774"><ele>114.75</ele><time>2026-04-04T09:22:59.018Z</time></trkpt><trkpt lat="43.4292665" lon="10.8005585"><ele>115.0</ele><time>2026-04-04T09:23:00.028Z</time></trkpt><trkpt lat="43.4291478" lon="10.8005344"><ele>115.0</ele><time>2026-04-04T09:23:01.033Z</time></trkpt><trkpt lat="43.4290303" lon="10.8005162"><ele>115.0</ele><time>2026-04-04T09:23:02.02Z</time></trkpt><trkpt lat="43.4289142" lon="10.8005044"><ele>115.0</ele><time>2026-04-04T09:23:03.033Z</time></trkpt><trkpt lat="43.4288004" lon="10.8005043"><ele>115.0</ele><time>2026-04-04T09:23:04.043Z</time></trkpt><trkpt lat="43.4286893" lon="10.8005106"><ele>115.0</ele><time>2026-04-04T09:23:05.026Z</time></trkpt><trkpt lat="43.4285869" lon="10.800509"><ele>115.0</ele><time>2026-04-04T09:23:06.04Z</time></trkpt><trkpt lat="43.4284885" lon="10.8005093"><ele>115.0</ele><time>2026-04-04T09:23:07.026Z</time></trkpt><trkpt lat="43.4283844" lon="10.8005197"><ele>115.0</ele><time>2026-04-04T09:23:08.036Z</time></trkpt><trkpt lat="43.4282806" lon="10.8005417"><ele>115.0</ele><time>2026-04-04T09:23:09.03Z</time></trkpt><trkpt lat="43.4281819" lon="10.8005678"><ele>115.00000000000001</ele><time>2026-04-04T09:23:10.03Z</time></trkpt><trkpt lat="43.4280935" lon="10.8006036"><ele>115.0</ele><time>2026-04-04T09:23:11.023Z</time></trkpt><trkpt lat="43.4280114" lon="10.8006416"><ele>115.0</ele><time>2026-04-04T09:23:12.028Z</time></trkpt><trkpt lat="43.4279374" lon="10.8006849"><ele>115.0</ele><time>2026-04-04T09:23:13.035Z</time></trkpt><trkpt lat="43.4278701" lon="10.8007439"><ele>115.00000000000001</ele><time>2026-04-04T09:23:14.018Z</time></trkpt><trkpt lat="43.4278123" lon="10.8008253"><ele>115.0</ele><time>2026-04-04T09:23:15.018Z</time></trkpt><trkpt lat="43.4277636" lon="10.80092"><ele>114.6</ele><time>2026-04-04T09:23:16.022Z</time></trkpt><trkpt lat="43.4277227" lon="10.8010291"><ele>114.2</ele><time>2026-04-04T09:23:17.027Z</time></trkpt><trkpt lat="43.4276963" lon="10.8011535"><ele>113.80000000000001</ele><time>2026-04-04T09:23:18.042Z</time></trkpt><trkpt lat="43.4276772" lon="10.8012788"><ele>113.4</ele><time>2026-04-04T09:23:19.026Z</time></trkpt><trkpt lat="43.4276615" lon="10.8014112"><ele>113.0</ele><time>2026-04-04T09:23:20.02Z</time></trkpt><trkpt lat="43.4276444" lon="10.8015401"><ele>113.0</ele><time>2026-04-04T09:23:21.027Z</time></trkpt><trkpt lat="43.4276245" lon="10.8016706"><ele>113.00000000000001</ele><time>2026-04-04T09:23:22.043Z</time></trkpt><trkpt lat="43.4276079" lon="10.8018043"><ele>113.00000000000001</ele><time>2026-04-04T09:23:23.042Z</time></trkpt><trkpt lat="43.4275895" lon="10.8019447"><ele>113.0</ele><time>2026-04-04T09:23:24.042Z</time></trkpt><trkpt lat="43.4275677" lon="10.8020833"><ele>113.0</ele><time>2026-04-04T09:23:25.027Z</time></trkpt><trkpt lat="43.4275444" lon="10.8022179"><ele>112.66666666666666</ele><time>2026-04-04T09:23:26.037Z</time></trkpt><trkpt lat="43.4275221" lon="10.8023541"><ele>112.33333333333333</ele><time>2026-04-04T09:23:27.036Z</time></trkpt><trkpt lat="43.4275081" lon="10.8024786"><ele>112.0</ele><time>2026-04-04T09:23:28.032Z</time></trkpt><trkpt lat="43.4275058" lon="10.8026001"><ele>111.66666666666666</ele><time>2026-04-04T09:23:29.022Z</time></trkpt><trkpt lat="43.4275344" lon="10.8027109"><ele>111.33333333333333</ele><time>2026-04-04T09:23:30.027Z</time></trkpt><trkpt lat="43.4275724" lon="10.8027996"><ele>111.0</ele><time>2026-04-04T09:23:31.025Z</time></trkpt><trkpt lat="43.4276166" lon="10.8028743"><ele>111.83333333333333</ele><time>2026-04-04T09:23:32.022Z</time></trkpt><trkpt lat="43.4276668" lon="10.8029275"><ele>112.66666666666666</ele><time>2026-04-04T09:23:33.03Z</time></trkpt><trkpt lat="43.4277296" lon="10.8029685"><ele>113.5</ele><time>2026-04-04T09:23:34.028Z</time></trkpt><trkpt lat="43.4278052" lon="10.802983"><ele>114.33333333333333</ele><time>2026-04-04T09:23:35.016Z</time></trkpt><trkpt lat="43.4278877" lon="10.8029818"><ele>115.16666666666666</ele><time>2026-04-04T09:23:36.024Z</time></trkpt><trkpt lat="43.4279746" lon="10.8029799"><ele>116.0</ele><time>2026-04-04T09:23:37.033Z</time></trkpt><trkpt lat="43.4280716" lon="10.8029864"><ele>116.83333333333333</ele><time>2026-04-04T09:23:38.023Z</time></trkpt><trkpt lat="43.4281721" lon="10.8029899"><ele>117.66666666666666</ele><time>2026-04-04T09:23:39.023Z</time></trkpt><trkpt lat="43.4282684" lon="10.8029973"><ele>118.5</ele><time>2026-04-04T09:23:40.028Z</time></trkpt><trkpt lat="43.4283523" lon="10.8030136"><ele>119.33333333333334</ele><time>2026-04-04T09:23:41.036Z</time></trkpt><trkpt lat="43.4284312" lon="10.8030633"><ele>120.16666666666667</ele><time>2026-04-04T09:23:42.026Z</time></trkpt><trkpt lat="43.4284948" lon="10.8031207"><ele>121.0</ele><time>2026-04-04T09:23:43.042Z</time></trkpt><trkpt lat="43.4285547" lon="10.8031996"><ele>121.00000000000001</ele><time>2026-04-04T09:23:44.038Z</time></trkpt><trkpt lat="43.4286161" lon="10.8032783"><ele>121.0</ele><time>2026-04-04T09:23:45.036Z</time></trkpt><trkpt lat="43.4286748" lon="10.8033681"><ele>121.0</ele><time>2026-04-04T09:23:46.03Z</time></trkpt><trkpt lat="43.4287354" lon="10.803463"><ele>121.0</ele><time>2026-04-04T09:23:47.033Z</time></trkpt><trkpt lat="43.4287987" lon="10.8035549"><ele>121.00000000000001</ele><time>2026-04-04T09:23:48.023Z</time></trkpt><trkpt lat="43.4288624" lon="10.8036419"><ele>121.0</ele><time>2026-04-04T09:23:49.035Z</time></trkpt><trkpt lat="43.4289353" lon="10.8037085"><ele>123.8</ele><time>2026-04-04T09:23:50.022Z</time></trkpt><trkpt lat="43.4290233" lon="10.8037431"><ele>126.6</ele><time>2026-04-04T09:23:51.025Z</time></trkpt><trkpt lat="43.4291106" lon="10.8037468"><ele>129.4</ele><time>2026-04-04T09:23:52.049Z</time></trkpt><trkpt lat="43.4292011" lon="10.8037636"><ele>132.2</ele><time>2026-04-04T09:23:53.024Z</time></trkpt><trkpt lat="43.4292948" lon="10.8037994"><ele>135.0</ele><time>2026-04-04T09:23:54.039Z</time></trkpt><trkpt lat="43.4293961" lon="10.8038305"><ele>135.0</ele><time>2026-04-04T09:23:55.026Z</time></trkpt><trkpt lat="43.4294957" lon="10.8038573"><ele>135.0</ele><time>2026-04-04T09:23:56.04Z</time></trkpt><trkpt lat="43.4295852" lon="10.8039126"><ele>135.0</ele><time>2026-04-04T09:23:57.048Z</time></trkpt><trkpt lat="43.4296607" lon="10.8039925"><ele>135.0</ele><time>2026-04-04T09:23:58.043Z</time></trkpt><trkpt lat="43.429729" lon="10.8041009"><ele>135.0</ele><time>2026-04-04T09:23:59.027Z</time></trkpt><trkpt lat="43.4297845" lon="10.8042148"><ele>134.4</ele><time>2026-04-04T09:24:00.021Z</time></trkpt><trkpt lat="43.4298275" lon="10.8043405"><ele>133.8</ele><time>2026-04-04T09:24:01.038Z</time></trkpt><trkpt lat="43.4298534" lon="10.804471"><ele>133.2</ele><time>2026-04-04T09:24:02.036Z</time></trkpt><trkpt lat="43.429859" lon="10.8046087"><ele>132.6</ele><time>2026-04-04T09:24:03.032Z</time></trkpt><trkpt lat="43.4298508" lon="10.8047355"><ele>132.0</ele><time>2026-04-04T09:24:04.035Z</time></trkpt><trkpt lat="43.4298302" lon="10.8048558"><ele>132.0</ele><time>2026-04-04T09:24:05.024Z</time></trkpt><trkpt lat="43.4297998" lon="10.804967"><ele>132.0</ele><time>2026-04-04T09:24:06.033Z</time></trkpt><trkpt lat="43.4297581" lon="10.8050853"><ele>132.0</ele><time>2026-04-04T09:24:07.025Z</time></trkpt><trkpt lat="43.429712" lon="10.8051955"><ele>132.0</ele><time>2026-04-04T09:24:08.032Z</time></trkpt><trkpt lat="43.4296636" lon="10.8053073"><ele>132.0</ele><time>2026-04-04T09:24:09.038Z</time></trkpt><trkpt lat="43.4296228" lon="10.8054281"><ele>135.6</ele><time>2026-04-04T09:24:10.019Z</time></trkpt><trkpt lat="43.4295772" lon="10.8055492"><ele>139.2</ele><time>2026-04-04T09:24:11.038Z</time></trkpt><trkpt lat="43.4295377" lon="10.8056697"><ele>142.8</ele><time>2026-04-04T09:24:12.039Z</time></trkpt><trkpt lat="43.4294921" lon="10.8057947"><ele>146.4</ele><time>2026-04-04T09:24:13.029Z</time></trkpt><trkpt lat="43.4294525" lon="10.8059279"><ele>150.0</ele><time>2026-04-04T09:24:14.015Z</time></trkpt><trkpt lat="43.4294076" lon="10.8060609"><ele>150.6</ele><time>2026-04-04T09:24:15.027Z</time></trkpt><trkpt lat="43.4293643" lon="10.8061894"><ele>151.2</ele><time>2026-04-04T09:24:16.04Z</time></trkpt><trkpt lat="43.4293238" lon="10.8063217"><ele>151.8</ele><time>2026-04-04T09:24:17.028Z</time></trkpt><trkpt lat="43.4292876" lon="10.806464"><ele>152.4</ele><time>2026-04-04T09:24:18.041Z</time></trkpt><trkpt lat="43.4292564" lon="10.8066048"><ele>153.0</ele><time>2026-04-04T09:24:19.032Z</time></trkpt><trkpt lat="43.4292249" lon="10.8067383"><ele>153.6</ele><time>2026-04-04T09:24:20.043Z</time></trkpt><trkpt lat="43.4291905" lon="10.8068749"><ele>154.20000000000002</ele><time>2026-04-04T09:24:21.036Z</time></trkpt><trkpt lat="43.429161" lon="10.8070106"><ele>154.8</ele><time>2026-04-04T09:24:22.029Z</time></trkpt><trkpt lat="43.42913" lon="10.8071516"><ele>155.4</ele><time>2026-04-04T09:24:23.035Z</time></trkpt><trkpt lat="43.4290979" lon="10.8072875"><ele>156.0</ele><time>2026-04-04T09:24:24.021Z</time></trkpt><trkpt lat="43.4290697" lon="10.8074319"><ele>156.0</ele><time>2026-04-04T09:24:25.032Z</time></trkpt><trkpt lat="43.4290317" lon="10.8075689"><ele>156.0</ele><time>2026-04-04T09:24:26.029Z</time></trkpt><trkpt lat="43.4289763" lon="10.8076945"><ele>156.0</ele><time>2026-04-04T09:24:27.03Z</time></trkpt><trkpt lat="43.4289122" lon="10.807808"><ele>156.0</ele><time>2026-04-04T09:24:28.04Z</time></trkpt><trkpt lat="43.4288392" lon="10.8079133"><ele>156.0</ele><time>2026-04-04T09:24:29.038Z</time></trkpt><trkpt lat="43.4287624" lon="10.8080133"><ele>158.4</ele><time>2026-04-04T09:24:30.04Z</time></trkpt><trkpt lat="43.4286865" lon="10.8081111"><ele>160.8</ele><time>2026-04-04T09:24:31.053Z</time></trkpt><trkpt lat="43.4286131" lon="10.8082051"><ele>163.20000000000002</ele><time>2026-04-04T09:24:32.06Z</time></trkpt><trkpt lat="43.4285382" lon="10.8083037"><ele>165.6</ele><time>2026-04-04T09:24:33.042Z</time></trkpt><trkpt lat="43.4284772" lon="10.8084138"><ele>168.0</ele><time>2026-04-04T09:24:34.048Z</time></trkpt><trkpt lat="43.4284408" lon="10.808534"><ele>168.4</ele><time>2026-04-04T09:24:35.035Z</time></trkpt><trkpt lat="43.4284227" lon="10.8086599"><ele>168.8</ele><time>2026-04-04T09:24:36.031Z</time></trkpt><trkpt lat="43.4284074" lon="10.8087895"><ele>169.2</ele><time>2026-04-04T09:24:37.033Z</time></trkpt><trkpt lat="43.4283978" lon="10.8089372"><ele>169.6</ele><time>2026-04-04T09:24:38.029Z</time></trkpt><trkpt lat="43.4283849" lon="10.8090846"><ele>170.0</ele><time>2026-04-04T09:24:39.026Z</time></trkpt><trkpt lat="43.4283785" lon="10.8092362"><ele>170.8</ele><time>2026-04-04T09:24:40.039Z</time></trkpt><trkpt lat="43.4283728" lon="10.8093875"><ele>171.6</ele><time>2026-04-04T09:24:41.036Z</time></trkpt><trkpt lat="43.4283657" lon="10.8095343"><ele>172.39999999999998</ele><time>2026-04-04T09:24:42.038Z</time></trkpt><trkpt lat="43.4283604" lon="10.8096744"><ele>173.2</ele><time>2026-04-04T09:24:43.03Z</time></trkpt><trkpt lat="43.4283492" lon="10.8098114"><ele>174.0</ele><time>2026-04-04T09:24:44.03Z</time></trkpt><trkpt lat="43.4283332" lon="10.8099371"><ele>174.0</ele><time>2026-04-04T09:24:45.019Z</time></trkpt><trkpt lat="43.4283253" lon="10.8100697"><ele>174.0</ele><time>2026-04-04T09:24:46.05Z</time></trkpt><trkpt lat="43.4283228" lon="10.8102055"><ele>174.0</ele><time>2026-04-04T09:24:47.026Z</time></trkpt><trkpt lat="43.4283172" lon="10.8103358"><ele>174.0</ele><time>2026-04-04T09:24:48.034Z</time></trkpt><trkpt lat="43.4283079" lon="10.8104652"><ele>174.0</ele><time>2026-04-04T09:24:49.028Z</time></trkpt><trkpt lat="43.4282979" lon="10.8105973"><ele>175.2</ele><time>2026-04-04T09:24:50.038Z</time></trkpt><trkpt lat="43.4282861" lon="10.8107262"><ele>176.39999999999998</ele><time>2026-04-04T09:24:51.023Z</time></trkpt><trkpt lat="43.4282762" lon="10.8108561"><ele>177.6</ele><time>2026-04-04T09:24:52.038Z</time></trkpt><trkpt lat="43.4282758" lon="10.810994"><ele>178.8</ele><time>2026-04-04T09:24:53.029Z</time></trkpt><trkpt lat="43.4282827" lon="10.8111278"><ele>180.0</ele><time>2026-04-04T09:24:54.035Z</time></trkpt><trkpt lat="43.4283036" lon="10.8112488"><ele>180.0</ele><time>2026-04-04T09:24:55.04Z</time></trkpt><trkpt lat="43.4283333" lon="10.8113554"><ele>180.0</ele><time>2026-04-04T09:24:56.022Z</time></trkpt><trkpt lat="43.4283693" lon="10.8114378"><ele>180.0</ele><time>2026-04-04T09:24:57.039Z</time></trkpt><trkpt lat="43.4284065" lon="10.8115164"><ele>180.0</ele><time>2026-04-04T09:24:58.023Z</time></trkpt><trkpt lat="43.4284766" lon="10.8116504"><ele>180.0</ele><time>2026-04-04T09:25:00.036Z</time></trkpt><trkpt lat="43.4285482" lon="10.8117791"><ele>178.4</ele><time>2026-04-04T09:25:02.053Z</time></trkpt><trkpt lat="43.4285978" lon="10.8118975"><ele>176.8</ele><time>2026-04-04T09:25:04.055Z</time></trkpt><trkpt lat="43.4286414" lon="10.8120176"><ele>175.2</ele><time>2026-04-04T09:25:06.036Z</time></trkpt><trkpt lat="43.4286834" lon="10.8120949"><ele>173.6</ele><time>2026-04-04T09:25:08.024Z</time></trkpt><trkpt lat="43.4287366" lon="10.8121881"><ele>172.0</ele><time>2026-04-04T09:25:18.054Z</time></trkpt><trkpt lat="43.4287943" lon="10.8123174"><ele>175.5</ele><time>2026-04-04T09:25:20.041Z</time></trkpt><trkpt lat="43.4288236" lon="10.8123979"><ele>179.0</ele><time>2026-04-04T09:25:21.021Z</time></trkpt><trkpt lat="43.4288544" lon="10.8124947"><ele>182.5</ele><time>2026-04-04T09:25:22.047Z</time></trkpt><trkpt lat="43.4288789" lon="10.8126035"><ele>186.0</ele><time>2026-04-04T09:25:23.025Z</time></trkpt><trkpt lat="43.4288987" lon="10.8127315"><ele>189.49999999999997</ele><time>2026-04-04T09:25:24.07Z</time></trkpt><trkpt lat="43.4289202" lon="10.8128796"><ele>193.0</ele><time>2026-04-04T09:25:25.032Z</time></trkpt><trkpt lat="43.428942" lon="10.8130318"><ele>193.0</ele><time>2026-04-04T09:25:26.049Z</time></trkpt><trkpt lat="43.4289638" lon="10.8131895"><ele>193.0</ele><time>2026-04-04T09:25:27.026Z</time></trkpt><trkpt lat="43.4289933" lon="10.8133422"><ele>193.0</ele><time>2026-04-04T09:25:28.036Z</time></trkpt><trkpt lat="43.4290213" lon="10.8134822"><ele>193.0</ele><time>2026-04-04T09:25:29.024Z</time></trkpt><trkpt lat="43.4290617" lon="10.8136084"><ele>193.0</ele><time>2026-04-04T09:25:30.02Z</time></trkpt><trkpt lat="43.4291091" lon="10.8137188"><ele>191.83333333333331</ele><time>2026-04-04T09:25:31.03Z</time></trkpt><trkpt lat="43.4291579" lon="10.8138196"><ele>190.66666666666666</ele><time>2026-04-04T09:25:32.029Z</time></trkpt><trkpt lat="43.4292127" lon="10.8138992"><ele>189.5</ele><time>2026-04-04T09:25:33.029Z</time></trkpt><trkpt lat="43.4292684" lon="10.8139809"><ele>188.33333333333331</ele><time>2026-04-04T09:25:34.041Z</time></trkpt><trkpt lat="43.4293275" lon="10.8140434"><ele>187.16666666666666</ele><time>2026-04-04T09:25:35.037Z</time></trkpt><trkpt lat="43.4293808" lon="10.8141057"><ele>186.0</ele><time>2026-04-04T09:25:36.046Z</time></trkpt><trkpt lat="43.429439" lon="10.8141653"><ele>186.0</ele><time>2026-04-04T09:25:37.04Z</time></trkpt><trkpt lat="43.4295037" lon="10.8142233"><ele>186.0</ele><time>2026-04-04T09:25:38.06Z</time></trkpt><trkpt lat="43.4295692" lon="10.8142855"><ele>186.0</ele><time>2026-04-04T09:25:39.04Z</time></trkpt><trkpt lat="43.4296434" lon="10.8143555"><ele>186.0</ele><time>2026-04-04T09:25:40.035Z</time></trkpt><trkpt lat="43.4297248" lon="10.8144307"><ele>186.0</ele><time>2026-04-04T09:25:41.016Z</time></trkpt><trkpt lat="43.4298081" lon="10.8145168"><ele>186.0</ele><time>2026-04-04T09:25:42.024Z</time></trkpt><trkpt lat="43.429889" lon="10.8146182"><ele>186.75</ele><time>2026-04-04T09:25:43.034Z</time></trkpt><trkpt lat="43.4299615" lon="10.8147404"><ele>187.5</ele><time>2026-04-04T09:25:44.042Z</time></trkpt><trkpt lat="43.430025" lon="10.8148768"><ele>188.25</ele><time>2026-04-04T09:25:45.024Z</time></trkpt><trkpt lat="43.4300762" lon="10.8150258"><ele>189.0</ele><time>2026-04-04T09:25:46.041Z</time></trkpt><trkpt lat="43.4301171" lon="10.8151993"><ele>189.75</ele><time>2026-04-04T09:25:47.037Z</time></trkpt><trkpt lat="43.4301534" lon="10.8153767"><ele>190.5</ele><time>2026-04-04T09:25:48.025Z</time></trkpt><trkpt lat="43.430194" lon="10.8155522"><ele>191.25</ele><time>2026-04-04T09:25:49.02Z</time></trkpt><trkpt lat="43.4302365" lon="10.8157257"><ele>192.0</ele><time>2026-04-04T09:25:50.031Z</time></trkpt><trkpt lat="43.4302884" lon="10.8159026"><ele>192.75</ele><time>2026-04-04T09:25:51.027Z</time></trkpt><trkpt lat="43.4303592" lon="10.8160771"><ele>193.5</ele><time>2026-04-04T09:25:52.043Z</time></trkpt><trkpt lat="43.4304404" lon="10.8162415"><ele>194.25</ele><time>2026-04-04T09:25:53.029Z</time></trkpt><trkpt lat="43.4305306" lon="10.8163916"><ele>195.0</ele><time>2026-04-04T09:25:54.022Z</time></trkpt><trkpt lat="43.4306192" lon="10.81653"><ele>195.5</ele><time>2026-04-04T09:25:55.031Z</time></trkpt><trkpt lat="43.4307107" lon="10.81666"><ele>196.0</ele><time>2026-04-04T09:25:56.045Z</time></trkpt><trkpt lat="43.4307966" lon="10.8167864"><ele>196.5</ele><time>2026-04-04T09:25:57.018Z</time></trkpt><trkpt lat="43.4308825" lon="10.8169075"><ele>197.0</ele><time>2026-04-04T09:25:58.05Z</time></trkpt><trkpt lat="43.4309691" lon="10.81703"><ele>201.25</ele><time>2026-04-04T09:25:59.029Z</time></trkpt><trkpt lat="43.4310506" lon="10.8171624"><ele>205.5</ele><time>2026-04-04T09:26:00.065Z</time></trkpt><trkpt lat="43.431126" lon="10.8173073"><ele>209.75</ele><time>2026-04-04T09:26:01.03Z</time></trkpt><trkpt lat="43.4311896" lon="10.8174657"><ele>214.0</ele><time>2026-04-04T09:26:02.021Z</time></trkpt><trkpt lat="43.4312423" lon="10.8176294"><ele>213.5</ele><time>2026-04-04T09:26:03.03Z</time></trkpt><trkpt lat="43.4312828" lon="10.817795"><ele>213.0</ele><time>2026-04-04T09:26:04.024Z</time></trkpt><trkpt lat="43.4313252" lon="10.8179612"><ele>212.5</ele><time>2026-04-04T09:26:05.024Z</time></trkpt><trkpt lat="43.4313598" lon="10.8181125"><ele>212.0</ele><time>2026-04-04T09:26:06.023Z</time></trkpt><trkpt lat="43.4313966" lon="10.8182426"><ele>211.2</ele><time>2026-04-04T09:26:07.025Z</time></trkpt><trkpt lat="43.4314478" lon="10.81836"><ele>210.39999999999998</ele><time>2026-04-04T09:26:08.01Z</time></trkpt><trkpt lat="43.4315064" lon="10.8184636"><ele>209.60000000000002</ele><time>2026-04-04T09:26:09.017Z</time></trkpt><trkpt lat="43.4315744" lon="10.8185472"><ele>208.8</ele><time>2026-04-04T09:26:10.036Z</time></trkpt><trkpt lat="43.431644" lon="10.8186172"><ele>208.0</ele><time>2026-04-04T09:26:11.024Z</time></trkpt><trkpt lat="43.431717" lon="10.818689"><ele>208.0</ele><time>2026-04-04T09:26:12.025Z</time></trkpt><trkpt lat="43.4318006" lon="10.8187641"><ele>208.0</ele><time>2026-04-04T09:26:13.032Z</time></trkpt><trkpt lat="43.4318855" lon="10.8188428"><ele>208.0</ele><time>2026-04-04T09:26:14.035Z</time></trkpt><trkpt lat="43.4319671" lon="10.8189242"><ele>208.0</ele><time>2026-04-04T09:26:15.024Z</time></trkpt><trkpt lat="43.432057" lon="10.8190148"><ele>208.0</ele><time>2026-04-04T09:26:16.045Z</time></trkpt><trkpt lat="43.4321483" lon="10.819119"><ele>210.0</ele><time>2026-04-04T09:26:17.032Z</time></trkpt><trkpt lat="43.43224" lon="10.8192304"><ele>212.0</ele><time>2026-04-04T09:26:18.042Z</time></trkpt><trkpt lat="43.4323234" lon="10.8193532"><ele>214.0</ele><time>2026-04-04T09:26:19.036Z</time></trkpt><trkpt lat="43.4324057" lon="10.8194994"><ele>216.0</ele><time>2026-04-04T09:26:20.04Z</time></trkpt><trkpt lat="43.4324868" lon="10.8196547"><ele>216.75</ele><time>2026-04-04T09:26:21.031Z</time></trkpt><trkpt lat="43.432567" lon="10.8198083"><ele>217.5</ele><time>2026-04-04T09:26:22.016Z</time></trkpt><trkpt lat="43.4326525" lon="10.8199583"><ele>218.25</ele><time>2026-04-04T09:26:23.034Z</time></trkpt><trkpt lat="43.4327427" lon="10.8201027"><ele>219.0</ele><time>2026-04-04T09:26:24.026Z</time></trkpt><trkpt lat="43.4328337" lon="10.8202421"><ele>219.0</ele><time>2026-04-04T09:26:25.029Z</time></trkpt><trkpt lat="43.4329316" lon="10.8203663"><ele>219.0</ele><time>2026-04-04T09:26:26.039Z</time></trkpt><trkpt lat="43.4330378" lon="10.8204789"><ele>219.0</ele><time>2026-04-04T09:26:27.04Z</time></trkpt><trkpt lat="43.4331533" lon="10.8205804"><ele>219.0</ele><time>2026-04-04T09:26:28.025Z</time></trkpt><trkpt lat="43.4332793" lon="10.8206853"><ele>220.25</ele><time>2026-04-04T09:26:29.02Z</time></trkpt><trkpt lat="43.4334086" lon="10.8207823"><ele>221.5</ele><time>2026-04-04T09:26:30.022Z</time></trkpt><trkpt lat="43.4335369" lon="10.8208777"><ele>222.75</ele><time>2026-04-04T09:26:31.025Z</time></trkpt><trkpt lat="43.4336599" lon="10.8209751"><ele>224.0</ele><time>2026-04-04T09:26:32.031Z</time></trkpt><trkpt lat="43.4337802" lon="10.8210657"><ele>221.5</ele><time>2026-04-04T09:26:33.037Z</time></trkpt><trkpt lat="43.4338985" lon="10.8211491"><ele>219.0</ele><time>2026-04-04T09:26:34.025Z</time></trkpt><trkpt lat="43.4340113" lon="10.8212353"><ele>216.5</ele><time>2026-04-04T09:26:35.026Z</time></trkpt><trkpt lat="43.4341238" lon="10.8213268"><ele>214.0</ele><time>2026-04-04T09:26:36.023Z</time></trkpt><trkpt lat="43.4342358" lon="10.8214019"><ele>214.0</ele><time>2026-04-04T09:26:37.02Z</time></trkpt><trkpt lat="43.4343439" lon="10.8214812"><ele>214.0</ele><time>2026-04-04T09:26:38.031Z</time></trkpt><trkpt lat="43.4344531" lon="10.8215599"><ele>214.0</ele><time>2026-04-04T09:26:39.024Z</time></trkpt><trkpt lat="43.434562" lon="10.8216293"><ele>214.0</ele><time>2026-04-04T09:26:40.032Z</time></trkpt><trkpt lat="43.4346735" lon="10.8217046"><ele>215.25</ele><time>2026-04-04T09:26:41.035Z</time></trkpt><trkpt lat="43.4347844" lon="10.8217791"><ele>216.5</ele><time>2026-04-04T09:26:42.038Z</time></trkpt><trkpt lat="43.4348911" lon="10.8218551"><ele>217.75</ele><time>2026-04-04T09:26:43.017Z</time></trkpt><trkpt lat="43.4349873" lon="10.8219378"><ele>219.0</ele><time>2026-04-04T09:26:44.033Z</time></trkpt><trkpt lat="43.4350724" lon="10.8220389"><ele>219.0</ele><time>2026-04-04T09:26:45.027Z</time></trkpt><trkpt lat="43.4351537" lon="10.8221611"><ele>219.0</ele><time>2026-04-04T09:26:46.025Z</time></trkpt><trkpt lat="43.4352239" lon="10.8223011"><ele>219.0</ele><time>2026-04-04T09:26:47.026Z</time></trkpt><trkpt lat="43.4352905" lon="10.8224536"><ele>219.0</ele><time>2026-04-04T09:26:48.036Z</time></trkpt><trkpt lat="43.4353574" lon="10.8226061"><ele>218.75</ele><time>2026-04-04T09:26:49.032Z</time></trkpt><trkpt lat="43.4354213" lon="10.8227585"><ele>218.5</ele><time>2026-04-04T09:26:50.033Z</time></trkpt><trkpt lat="43.4354874" lon="10.8229041"><ele>218.25</ele><time>2026-04-04T09:26:51.023Z</time></trkpt><trkpt lat="43.4355514" lon="10.823043"><ele>218.0</ele><time>2026-04-04T09:26:52.032Z</time></trkpt><trkpt lat="43.4356142" lon="10.8231747"><ele>218.0</ele><time>2026-04-04T09:26:53.024Z</time></trkpt><trkpt lat="43.4356707" lon="10.8233128"><ele>218.0</ele><time>2026-04-04T09:26:54.034Z</time></trkpt><trkpt lat="43.4357165" lon="10.8234588"><ele>218.0</ele><time>2026-04-04T09:26:55.026Z</time></trkpt><trkpt lat="43.4357422" lon="10.8236133"><ele>218.0</ele><time>2026-04-04T09:26:56.046Z</time></trkpt><trkpt lat="43.4357532" lon="10.8237575"><ele>218.0</ele><time>2026-04-04T09:26:57.026Z</time></trkpt><trkpt lat="43.4357724" lon="10.8238974"><ele>218.0</ele><time>2026-04-04T09:26:58.027Z</time></trkpt><trkpt lat="43.4358086" lon="10.8240402"><ele>218.0</ele><time>2026-04-04T09:26:59.031Z</time></trkpt><trkpt lat="43.4358668" lon="10.82417"><ele>218.0</ele><time>2026-04-04T09:27:00.028Z</time></trkpt><trkpt lat="43.4359337" lon="10.8242796"><ele>218.0</ele><time>2026-04-04T09:27:01.021Z</time></trkpt><trkpt lat="43.4360046" lon="10.8243686"><ele>216.8</ele><time>2026-04-04T09:27:02.035Z</time></trkpt><trkpt lat="43.4360636" lon="10.8244626"><ele>215.60000000000002</ele><time>2026-04-04T09:27:03.04Z</time></trkpt><trkpt lat="43.4361155" lon="10.8245711"><ele>214.39999999999998</ele><time>2026-04-04T09:27:04.064Z</time></trkpt><trkpt lat="43.4361528" lon="10.8247011"><ele>213.2</ele><time>2026-04-04T09:27:05.029Z</time></trkpt><trkpt lat="43.4361644" lon="10.8248415"><ele>212.0</ele><time>2026-04-04T09:27:06.043Z</time></trkpt><trkpt lat="43.4361607" lon="10.8249857"><ele>212.0</ele><time>2026-04-04T09:27:07.03Z</time></trkpt><trkpt lat="43.4361464" lon="10.8251317"><ele>212.0</ele><time>2026-04-04T09:27:08.02Z</time></trkpt><trkpt lat="43.4361322" lon="10.8252786"><ele>212.0</ele><time>2026-04-04T09:27:09.019Z</time></trkpt><trkpt lat="43.4361286" lon="10.8254314"><ele>212.0</ele><time>2026-04-04T09:27:10.028Z</time></trkpt><trkpt lat="43.4361429" lon="10.8255779"><ele>212.0</ele><time>2026-04-04T09:27:11.025Z</time></trkpt><trkpt lat="43.4361669" lon="10.8257246"><ele>211.6</ele><time>2026-04-04T09:27:12.01Z</time></trkpt><trkpt lat="43.4361959" lon="10.8258734"><ele>211.2</ele><time>2026-04-04T09:27:13.021Z</time></trkpt><trkpt lat="43.4362192" lon="10.8260158"><ele>210.8</ele><time>2026-04-04T09:27:14.013Z</time></trkpt><trkpt lat="43.4362302" lon="10.8261565"><ele>210.4</ele><time>2026-04-04T09:27:15.028Z</time></trkpt><trkpt lat="43.4362351" lon="10.8262979"><ele>210.0</ele><time>2026-04-04T09:27:16.035Z</time></trkpt><trkpt lat="43.4362164" lon="10.8264375"><ele>210.0</ele><time>2026-04-04T09:27:17.034Z</time></trkpt><trkpt lat="43.4361701" lon="10.8265698"><ele>210.0</ele><time>2026-04-04T09:27:18.032Z</time></trkpt><trkpt lat="43.4361127" lon="10.826701"><ele>210.0</ele><time>2026-04-04T09:27:19.028Z</time></trkpt><trkpt lat="43.4360353" lon="10.826829"><ele>210.0</ele><time>2026-04-04T09:27:20.046Z</time></trkpt><trkpt lat="43.435946" lon="10.8269532"><ele>210.75</ele><time>2026-04-04T09:27:21.018Z</time></trkpt><trkpt lat="43.4358627" lon="10.8270755"><ele>211.5</ele><time>2026-04-04T09:27:22.041Z</time></trkpt><trkpt lat="43.4357794" lon="10.8271964"><ele>212.25</ele><time>2026-04-04T09:27:23.035Z</time></trkpt><trkpt lat="43.4356992" lon="10.827315"><ele>213.0</ele><time>2026-04-04T09:27:24.025Z</time></trkpt><trkpt lat="43.4356207" lon="10.8274258"><ele>213.0</ele><time>2026-04-04T09:27:25.022Z</time></trkpt><trkpt lat="43.4355464" lon="10.8275389"><ele>213.0</ele><time>2026-04-04T09:27:26.018Z</time></trkpt><trkpt lat="43.4354789" lon="10.8276556"><ele>213.0</ele><time>2026-04-04T09:27:27.029Z</time></trkpt><trkpt lat="43.4354204" lon="10.8277829"><ele>213.0</ele><time>2026-04-04T09:27:28.032Z</time></trkpt><trkpt lat="43.4353639" lon="10.8279289"><ele>213.0</ele><time>2026-04-04T09:27:29.036Z</time></trkpt><trkpt lat="43.4353151" lon="10.8280839"><ele>216.75</ele><time>2026-04-04T09:27:30.038Z</time></trkpt><trkpt lat="43.4352719" lon="10.8282457"><ele>220.5</ele><time>2026-04-04T09:27:31.039Z</time></trkpt><trkpt lat="43.4352291" lon="10.828413"><ele>224.25</ele><time>2026-04-04T09:27:32.044Z</time></trkpt><trkpt lat="43.4351982" lon="10.8285782"><ele>228.0</ele><time>2026-04-04T09:27:33.013Z</time></trkpt><trkpt lat="43.4351745" lon="10.8287402"><ele>228.0</ele><time>2026-04-04T09:27:34.025Z</time></trkpt><trkpt lat="43.4351604" lon="10.8289008"><ele>228.0</ele><time>2026-04-04T09:27:35.027Z</time></trkpt><trkpt lat="43.4351612" lon="10.829071"><ele>228.0</ele><time>2026-04-04T09:27:36.052Z</time></trkpt><trkpt lat="43.4351712" lon="10.8292424"><ele>228.0</ele><time>2026-04-04T09:27:37.028Z</time></trkpt><trkpt lat="43.435192" lon="10.8294131"><ele>225.25</ele><time>2026-04-04T09:27:38.034Z</time></trkpt><trkpt lat="43.4352213" lon="10.8295755"><ele>222.5</ele><time>2026-04-04T09:27:39.018Z</time></trkpt><trkpt lat="43.4352631" lon="10.8297337"><ele>219.75</ele><time>2026-04-04T09:27:40.041Z</time></trkpt><trkpt lat="43.4353237" lon="10.829883"><ele>217.0</ele><time>2026-04-04T09:27:41.023Z</time></trkpt><trkpt lat="43.4354011" lon="10.8300147"><ele>217.5</ele><time>2026-04-04T09:27:42.024Z</time></trkpt><trkpt lat="43.4354844" lon="10.8301388"><ele>218.0</ele><time>2026-04-04T09:27:43.023Z</time></trkpt><trkpt lat="43.4355692" lon="10.8302607"><ele>218.5</ele><time>2026-04-04T09:27:44.033Z</time></trkpt><trkpt lat="43.4356562" lon="10.8303844"><ele>219.0</ele><time>2026-04-04T09:27:45.037Z</time></trkpt><trkpt lat="43.4357359" lon="10.8305153"><ele>221.25</ele><time>2026-04-04T09:27:46.033Z</time></trkpt><trkpt lat="43.4358077" lon="10.8306535"><ele>223.5</ele><time>2026-04-04T09:27:47.032Z</time></trkpt><trkpt lat="43.435863" lon="10.8308059"><ele>225.75</ele><time>2026-04-04T09:27:48.032Z</time></trkpt><trkpt lat="43.4359007" lon="10.830976"><ele>228.0</ele><time>2026-04-04T09:27:49.019Z</time></trkpt><trkpt lat="43.43592" lon="10.8311581"><ele>228.75</ele><time>2026-04-04T09:27:50.025Z</time></trkpt><trkpt lat="43.4359342" lon="10.8313442"><ele>229.5</ele><time>2026-04-04T09:27:51.024Z</time></trkpt><trkpt lat="43.4359436" lon="10.8315366"><ele>230.25</ele><time>2026-04-04T09:27:52.024Z</time></trkpt><trkpt lat="43.4359524" lon="10.8317254"><ele>231.0</ele><time>2026-04-04T09:27:53.021Z</time></trkpt><trkpt lat="43.4359626" lon="10.8319175"><ele>231.0</ele><time>2026-04-04T09:27:54.03Z</time></trkpt><trkpt lat="43.4359752" lon="10.8320962"><ele>231.0</ele><time>2026-04-04T09:27:55.022Z</time></trkpt><trkpt lat="43.435977" lon="10.8322625"><ele>231.0</ele><time>2026-04-04T09:27:56.021Z</time></trkpt><trkpt lat="43.4359671" lon="10.8324234"><ele>231.0</ele><time>2026-04-04T09:27:57.025Z</time></trkpt><trkpt lat="43.4359357" lon="10.8325661"><ele>228.4</ele><time>2026-04-04T09:27:58.028Z</time></trkpt><trkpt lat="43.4358789" lon="10.8326675"><ele>225.8</ele><time>2026-04-04T09:27:59.016Z</time></trkpt><trkpt lat="43.4358035" lon="10.8327321"><ele>223.20000000000002</ele><time>2026-04-04T09:28:00.031Z</time></trkpt><trkpt lat="43.4357123" lon="10.8327716"><ele>220.60000000000002</ele><time>2026-04-04T09:28:01.018Z</time></trkpt><trkpt lat="43.4356087" lon="10.8327736"><ele>218.0</ele><time>2026-04-04T09:28:02.031Z</time></trkpt><trkpt lat="43.4354931" lon="10.8327658"><ele>219.0</ele><time>2026-04-04T09:28:03.042Z</time></trkpt><trkpt lat="43.4353845" lon="10.8327399"><ele>220.0</ele><time>2026-04-04T09:28:04.025Z</time></trkpt><trkpt lat="43.4352755" lon="10.8327313"><ele>221.0</ele><time>2026-04-04T09:28:05.032Z</time></trkpt><trkpt lat="43.4351661" lon="10.8327321"><ele>222.0</ele><time>2026-04-04T09:28:06.031Z</time></trkpt><trkpt lat="43.4350553" lon="10.83276"><ele>223.0</ele><time>2026-04-04T09:28:07.025Z</time></trkpt><trkpt lat="43.4349526" lon="10.8328096"><ele>223.0</ele><time>2026-04-04T09:28:08.025Z</time></trkpt><trkpt lat="43.4348649" lon="10.8329004"><ele>223.0</ele><time>2026-04-04T09:28:09.021Z</time></trkpt><trkpt lat="43.4347795" lon="10.832998"><ele>223.0</ele><time>2026-04-04T09:28:10.029Z</time></trkpt><trkpt lat="43.4347109" lon="10.8331221"><ele>223.0</ele><time>2026-04-04T09:28:11.031Z</time></trkpt><trkpt lat="43.4346575" lon="10.8332541"><ele>223.0</ele><time>2026-04-04T09:28:12.017Z</time></trkpt><trkpt lat="43.4346085" lon="10.8333966"><ele>223.25</ele><time>2026-04-04T09:28:13.02Z</time></trkpt><trkpt lat="43.4345549" lon="10.8335472"><ele>223.5</ele><time>2026-04-04T09:28:14.037Z</time></trkpt><trkpt lat="43.434496" lon="10.8336928"><ele>223.75</ele><time>2026-04-04T09:28:15.024Z</time></trkpt><trkpt lat="43.434434" lon="10.8338322"><ele>224.0</ele><time>2026-04-04T09:28:16.038Z</time></trkpt><trkpt lat="43.4343661" lon="10.8339574"><ele>224.0</ele><time>2026-04-04T09:28:17.027Z</time></trkpt><trkpt lat="43.4342901" lon="10.8340703"><ele>224.0</ele><time>2026-04-04T09:28:18.026Z</time></trkpt><trkpt lat="43.4342143" lon="10.8341882"><ele>224.0</ele><time>2026-04-04T09:28:19.023Z</time></trkpt><trkpt lat="43.4341243" lon="10.834291"><ele>224.0</ele><time>2026-04-04T09:28:20.035Z</time></trkpt><trkpt lat="43.4340316" lon="10.8343789"><ele>221.6</ele><time>2026-04-04T09:28:21.027Z</time></trkpt><trkpt lat="43.43394" lon="10.8344594"><ele>219.2</ele><time>2026-04-04T09:28:22.047Z</time></trkpt><trkpt lat="43.4338496" lon="10.8345392"><ele>216.79999999999998</ele><time>2026-04-04T09:28:23.032Z</time></trkpt><trkpt lat="43.4337707" lon="10.834629"><ele>214.39999999999998</ele><time>2026-04-04T09:28:24.039Z</time></trkpt><trkpt lat="43.4337015" lon="10.8347175"><ele>212.0</ele><time>2026-04-04T09:28:25.031Z</time></trkpt><trkpt lat="43.4336651" lon="10.834829"><ele>212.0</ele><time>2026-04-04T09:28:26.012Z</time></trkpt><trkpt lat="43.433654" lon="10.8349606"><ele>212.0</ele><time>2026-04-04T09:28:27.03Z</time></trkpt><trkpt lat="43.4336533" lon="10.8351036"><ele>212.0</ele><time>2026-04-04T09:28:28.019Z</time></trkpt><trkpt lat="43.4336543" lon="10.8352722"><ele>212.0</ele><time>2026-04-04T09:28:29.022Z</time></trkpt><trkpt lat="43.4336417" lon="10.83545"><ele>212.0</ele><time>2026-04-04T09:28:30.025Z</time></trkpt><trkpt lat="43.4336074" lon="10.8356157"><ele>212.0</ele><time>2026-04-04T09:28:31.025Z</time></trkpt><trkpt lat="43.4335618" lon="10.8357715"><ele>212.0</ele><time>2026-04-04T09:28:32.048Z</time></trkpt><trkpt lat="43.433509" lon="10.8359121"><ele>212.0</ele><time>2026-04-04T09:28:33.024Z</time></trkpt><trkpt lat="43.433448" lon="10.836057"><ele>213.2</ele><time>2026-04-04T09:28:34.031Z</time></trkpt><trkpt lat="43.433382" lon="10.8361882"><ele>214.39999999999998</ele><time>2026-04-04T09:28:35.026Z</time></trkpt><trkpt lat="43.433325" lon="10.8363154"><ele>215.60000000000002</ele><time>2026-04-04T09:28:36.05Z</time></trkpt><trkpt lat="43.4332755" lon="10.8364371"><ele>216.8</ele><time>2026-04-04T09:28:37.034Z</time></trkpt><trkpt lat="43.4332433" lon="10.8365671"><ele>218.0</ele><time>2026-04-04T09:28:38.042Z</time></trkpt><trkpt lat="43.4332293" lon="10.8366987"><ele>220.8</ele><time>2026-04-04T09:28:39.03Z</time></trkpt><trkpt lat="43.4332415" lon="10.8368264"><ele>223.60000000000002</ele><time>2026-04-04T09:28:40.036Z</time></trkpt><trkpt lat="43.4332696" lon="10.8369603"><ele>226.39999999999998</ele><time>2026-04-04T09:28:41.03Z</time></trkpt><trkpt lat="43.4333262" lon="10.8370845"><ele>229.2</ele><time>2026-04-04T09:28:42.047Z</time></trkpt><trkpt lat="43.4334035" lon="10.8371899"><ele>232.0</ele><time>2026-04-04T09:28:43.024Z</time></trkpt><trkpt lat="43.4334946" lon="10.8372772"><ele>232.0</ele><time>2026-04-04T09:28:44.023Z</time></trkpt><trkpt lat="43.4335972" lon="10.8373488"><ele>232.0</ele><time>2026-04-04T09:28:45.021Z</time></trkpt><trkpt lat="43.4336989" lon="10.8374307"><ele>232.0</ele><time>2026-04-04T09:28:46.009Z</time></trkpt><trkpt lat="43.4337973" lon="10.8375172"><ele>232.0</ele><time>2026-04-04T09:28:47.019Z</time></trkpt><trkpt lat="43.4338954" lon="10.8376093"><ele>233.6</ele><time>2026-04-04T09:28:48.02Z</time></trkpt><trkpt lat="43.4339881" lon="10.8376867"><ele>235.2</ele><time>2026-04-04T09:28:49.027Z</time></trkpt><trkpt lat="43.4340754" lon="10.8377678"><ele>236.8</ele><time>2026-04-04T09:28:50.032Z</time></trkpt><trkpt lat="43.4341606" lon="10.8378506"><ele>238.4</ele><time>2026-04-04T09:28:51.037Z</time></trkpt><trkpt lat="43.4342373" lon="10.8379425"><ele>240.0</ele><time>2026-04-04T09:28:52.032Z</time></trkpt><trkpt lat="43.4342943" lon="10.8380509"><ele>240.0</ele><time>2026-04-04T09:28:53.019Z</time></trkpt><trkpt lat="43.4343337" lon="10.8381802"><ele>240.0</ele><time>2026-04-04T09:28:54.046Z</time></trkpt><trkpt lat="43.4343553" lon="10.8383268"><ele>240.0</ele><time>2026-04-04T09:28:55.024Z</time></trkpt><trkpt lat="43.4343388" lon="10.8384773"><ele>240.0</ele><time>2026-04-04T09:28:56.039Z</time></trkpt><trkpt lat="43.4342904" lon="10.8386097"><ele>240.0</ele><time>2026-04-04T09:28:57.021Z</time></trkpt><trkpt lat="43.4342156" lon="10.8387076"><ele>238.4</ele><time>2026-04-04T09:28:58.041Z</time></trkpt><trkpt lat="43.4341233" lon="10.8387705"><ele>236.8</ele><time>2026-04-04T09:28:59.026Z</time></trkpt><trkpt lat="43.4340246" lon="10.8387856"><ele>235.2</ele><time>2026-04-04T09:29:00.032Z</time></trkpt><trkpt lat="43.4339159" lon="10.8387827"><ele>233.6</ele><time>2026-04-04T09:29:01.016Z</time></trkpt><trkpt lat="43.4338026" lon="10.8387943"><ele>232.0</ele><time>2026-04-04T09:29:02.04Z</time></trkpt><trkpt lat="43.4336854" lon="10.8388271"><ele>232.0</ele><time>2026-04-04T09:29:03.032Z</time></trkpt><trkpt lat="43.4335623" lon="10.838878"><ele>232.0</ele><time>2026-04-04T09:29:04.024Z</time></trkpt><trkpt lat="43.4334414" lon="10.8389304"><ele>232.0</ele><time>2026-04-04T09:29:05.024Z</time></trkpt><trkpt lat="43.4333259" lon="10.8389959"><ele>232.0</ele><time>2026-04-04T09:29:06.036Z</time></trkpt><trkpt lat="43.4332123" lon="10.8390555"><ele>232.0</ele><time>2026-04-04T09:29:07.031Z</time></trkpt><trkpt lat="43.4331092" lon="10.8391064"><ele>232.0</ele><time>2026-04-04T09:29:08.025Z</time></trkpt><trkpt lat="43.433011" lon="10.8391541"><ele>232.0</ele><time>2026-04-04T09:29:09.022Z</time></trkpt><trkpt lat="43.4329153" lon="10.8391988"><ele>232.0</ele><time>2026-04-04T09:29:10.022Z</time></trkpt><trkpt lat="43.4328242" lon="10.8392505"><ele>232.0</ele><time>2026-04-04T09:29:11.013Z</time></trkpt><trkpt lat="43.4327376" lon="10.8393178"><ele>229.6</ele><time>2026-04-04T09:29:12.051Z</time></trkpt><trkpt lat="43.4326566" lon="10.8394122"><ele>227.2</ele><time>2026-04-04T09:29:13.02Z</time></trkpt><trkpt lat="43.432575" lon="10.8395043"><ele>224.8</ele><time>2026-04-04T09:29:14.019Z</time></trkpt><trkpt lat="43.4324907" lon="10.8395918"><ele>222.4</ele><time>2026-04-04T09:29:15.031Z</time></trkpt><trkpt lat="43.432409" lon="10.8396895"><ele>220.0</ele><time>2026-04-04T09:29:16.027Z</time></trkpt><trkpt lat="43.4323271" lon="10.8397956"><ele>220.0</ele><time>2026-04-04T09:29:17.02Z</time></trkpt><trkpt lat="43.4322393" lon="10.8398974"><ele>220.0</ele><time>2026-04-04T09:29:18.02Z</time></trkpt><trkpt lat="43.4321487" lon="10.8400085"><ele>220.0</ele><time>2026-04-04T09:29:19.019Z</time></trkpt><trkpt lat="43.4320544" lon="10.8401185"><ele>220.0</ele><time>2026-04-04T09:29:20.026Z</time></trkpt><trkpt lat="43.4319632" lon="10.8402297"><ele>224.75</ele><time>2026-04-04T09:29:21.025Z</time></trkpt><trkpt lat="43.4318725" lon="10.8403422"><ele>229.5</ele><time>2026-04-04T09:29:22.032Z</time></trkpt><trkpt lat="43.4317793" lon="10.8404544"><ele>234.25</ele><time>2026-04-04T09:29:23.026Z</time></trkpt><trkpt lat="43.4316908" lon="10.840561"><ele>239.0</ele><time>2026-04-04T09:29:24.031Z</time></trkpt><trkpt lat="43.4316093" lon="10.840661"><ele>239.0</ele><time>2026-04-04T09:29:25.027Z</time></trkpt><trkpt lat="43.4315385" lon="10.8407698"><ele>238.99999999999997</ele><time>2026-04-04T09:29:26.033Z</time></trkpt><trkpt lat="43.4314875" lon="10.8408871"><ele>238.99999999999997</ele><time>2026-04-04T09:29:27.015Z</time></trkpt><trkpt lat="43.4314558" lon="10.8410127"><ele>239.0</ele><time>2026-04-04T09:29:28.043Z</time></trkpt><trkpt lat="43.4314436" lon="10.8411536"><ele>239.0</ele><time>2026-04-04T09:29:29.02Z</time></trkpt><trkpt lat="43.4314559" lon="10.841296"><ele>240.39999999999998</ele><time>2026-04-04T09:29:30.016Z</time></trkpt><trkpt lat="43.4314765" lon="10.8414475"><ele>241.79999999999998</ele><time>2026-04-04T09:29:31.011Z</time></trkpt><trkpt lat="43.4315039" lon="10.8415909"><ele>243.20000000000002</ele><time>2026-04-04T09:29:32.031Z</time></trkpt><trkpt lat="43.4315427" lon="10.8417207"><ele>244.60000000000002</ele><time>2026-04-04T09:29:33.014Z</time></trkpt><trkpt lat="43.431602" lon="10.8418317"><ele>246.0</ele><time>2026-04-04T09:29:34.012Z</time></trkpt><trkpt lat="43.431682" lon="10.8419141"><ele>247.20000000000002</ele><time>2026-04-04T09:29:35.019Z</time></trkpt><trkpt lat="43.4317814" lon="10.8419685"><ele>248.40000000000003</ele><time>2026-04-04T09:29:36.009Z</time></trkpt><trkpt lat="43.4318873" lon="10.8420113"><ele>249.6</ele><time>2026-04-04T09:29:37.011Z</time></trkpt><trkpt lat="43.4320016" lon="10.8420526"><ele>250.8</ele><time>2026-04-04T09:29:38.007Z</time></trkpt><trkpt lat="43.4321107" lon="10.8420889"><ele>252.0</ele><time>2026-04-04T09:29:39.025Z</time></trkpt><trkpt lat="43.4322122" lon="10.8421142"><ele>252.0</ele><time>2026-04-04T09:29:40.029Z</time></trkpt><trkpt lat="43.4323133" lon="10.8421554"><ele>252.0</ele><time>2026-04-04T09:29:41.01Z</time></trkpt><trkpt lat="43.4324196" lon="10.8421838"><ele>252.0</ele><time>2026-04-04T09:29:42.019Z</time></trkpt><trkpt lat="43.4325233" lon="10.8422357"><ele>252.0</ele><time>2026-04-04T09:29:43.018Z</time></trkpt><trkpt lat="43.4326125" lon="10.8423047"><ele>252.0</ele><time>2026-04-04T09:29:44.022Z</time></trkpt><trkpt lat="43.4326804" lon="10.8423903"><ele>252.0</ele><time>2026-04-04T09:29:45.019Z</time></trkpt><trkpt lat="43.4327257" lon="10.8424899"><ele>252.0</ele><time>2026-04-04T09:29:46.009Z</time></trkpt><trkpt lat="43.432753" lon="10.8425947"><ele>252.0</ele><time>2026-04-04T09:29:47.013Z</time></trkpt><trkpt lat="43.4327691" lon="10.8426912"><ele>252.0</ele><time>2026-04-04T09:29:48.019Z</time></trkpt><trkpt lat="43.4327826" lon="10.8428434"><ele>252.0</ele><time>2026-04-04T09:29:50.01Z</time></trkpt><trkpt lat="43.4327274" lon="10.8429039"><ele>252.0</ele><time>2026-04-04T09:29:52.01Z</time></trkpt><trkpt lat="43.4326533" lon="10.8428858"><ele>250.5</ele><time>2026-04-04T09:30:24.029Z</time></trkpt><trkpt lat="43.432511" lon="10.8428708"><ele>249.0</ele><time>2026-04-04T09:30:26.044Z</time></trkpt><trkpt lat="43.4324155" lon="10.8428836"><ele>247.5</ele><time>2026-04-04T09:30:27.029Z</time></trkpt><trkpt lat="43.4323075" lon="10.8429028"><ele>246.0</ele><time>2026-04-04T09:30:28.026Z</time></trkpt><trkpt lat="43.4321942" lon="10.8429302"><ele>248.25</ele><time>2026-04-04T09:30:29.046Z</time></trkpt><trkpt lat="43.4320775" lon="10.8429693"><ele>250.5</ele><time>2026-04-04T09:30:30.035Z</time></trkpt><trkpt lat="43.4319649" lon="10.8430363"><ele>252.75</ele><time>2026-04-04T09:30:31.037Z</time></trkpt><trkpt lat="43.4318533" lon="10.8431123"><ele>255.0</ele><time>2026-04-04T09:30:32.036Z</time></trkpt><trkpt lat="43.4317408" lon="10.8431917"><ele>255.0</ele><time>2026-04-04T09:30:33.022Z</time></trkpt><trkpt lat="43.4316255" lon="10.8432734"><ele>255.0</ele><time>2026-04-04T09:30:34.033Z</time></trkpt><trkpt lat="43.431508" lon="10.8433579"><ele>255.0</ele><time>2026-04-04T09:30:35.029Z</time></trkpt><trkpt lat="43.4313888" lon="10.8434429"><ele>255.0</ele><time>2026-04-04T09:30:36.04Z</time></trkpt><trkpt lat="43.4312639" lon="10.8435194"><ele>256.75</ele><time>2026-04-04T09:30:37.021Z</time></trkpt><trkpt lat="43.4311366" lon="10.8435826"><ele>258.5</ele><time>2026-04-04T09:30:38.034Z</time></trkpt><trkpt lat="43.4310132" lon="10.8436401"><ele>260.25</ele><time>2026-04-04T09:30:39.021Z</time></trkpt><trkpt lat="43.4308886" lon="10.8436742"><ele>262.0</ele><time>2026-04-04T09:30:40.028Z</time></trkpt><trkpt lat="43.4307704" lon="10.8436809"><ele>262.0</ele><time>2026-04-04T09:30:41.029Z</time></trkpt><trkpt lat="43.4306489" lon="10.8436583"><ele>262.0</ele><time>2026-04-04T09:30:42.032Z</time></trkpt><trkpt lat="43.4305342" lon="10.8436059"><ele>262.0</ele><time>2026-04-04T09:30:43.02Z</time></trkpt><trkpt lat="43.4304251" lon="10.8435312"><ele>262.0</ele><time>2026-04-04T09:30:44.029Z</time></trkpt><trkpt lat="43.4303104" lon="10.8434422"><ele>261.5</ele><time>2026-04-04T09:30:45.018Z</time></trkpt><trkpt lat="43.4301891" lon="10.8433371"><ele>261.0</ele><time>2026-04-04T09:30:46.04Z</time></trkpt><trkpt lat="43.4300712" lon="10.8432255"><ele>260.5</ele><time>2026-04-04T09:30:47.024Z</time></trkpt><trkpt lat="43.4299668" lon="10.843107"><ele>260.0</ele><time>2026-04-04T09:30:48.031Z</time></trkpt><trkpt lat="43.4298883" lon="10.8429651"><ele>260.0</ele><time>2026-04-04T09:30:49.023Z</time></trkpt><trkpt lat="43.4298248" lon="10.8427945"><ele>260.0</ele><time>2026-04-04T09:30:50.03Z</time></trkpt><trkpt lat="43.429758" lon="10.8426094"><ele>260.0</ele><time>2026-04-04T09:30:51.016Z</time></trkpt><trkpt lat="43.4296819" lon="10.8424222"><ele>260.0</ele><time>2026-04-04T09:30:52.019Z</time></trkpt><trkpt lat="43.4295888" lon="10.8422568"><ele>256.33333333333337</ele><time>2026-04-04T09:30:53.023Z</time></trkpt><trkpt lat="43.4294847" lon="10.8420967"><ele>252.66666666666669</ele><time>2026-04-04T09:30:54.046Z</time></trkpt><trkpt lat="43.4293737" lon="10.8419532"><ele>249.0</ele><time>2026-04-04T09:30:55.028Z</time></trkpt><trkpt lat="43.4292581" lon="10.8418182"><ele>253.75</ele><time>2026-04-04T09:30:56.036Z</time></trkpt><trkpt lat="43.4291468" lon="10.8416781"><ele>258.5</ele><time>2026-04-04T09:30:57.021Z</time></trkpt><trkpt lat="43.4290308" lon="10.8415362"><ele>263.25</ele><time>2026-04-04T09:30:58.036Z</time></trkpt><trkpt lat="43.4289242" lon="10.84141"><ele>268.0</ele><time>2026-04-04T09:30:59.019Z</time></trkpt><trkpt lat="43.4288296" lon="10.8412777"><ele>266.75</ele><time>2026-04-04T09:31:00.035Z</time></trkpt><trkpt lat="43.4287478" lon="10.841122"><ele>265.5</ele><time>2026-04-04T09:31:01.027Z</time></trkpt><trkpt lat="43.4286696" lon="10.8409422"><ele>264.25</ele><time>2026-04-04T09:31:02.023Z</time></trkpt><trkpt lat="43.4285929" lon="10.8407583"><ele>263.0</ele><time>2026-04-04T09:31:03.023Z</time></trkpt><trkpt lat="43.4285035" lon="10.8405958"><ele>263.0</ele><time>2026-04-04T09:31:04.024Z</time></trkpt><trkpt lat="43.4283852" lon="10.840479"><ele>263.0</ele><time>2026-04-04T09:31:05.02Z</time></trkpt><trkpt lat="43.4282418" lon="10.840409"><ele>263.0</ele><time>2026-04-04T09:31:06.029Z</time></trkpt><trkpt lat="43.4280826" lon="10.8403786"><ele>261.0</ele><time>2026-04-04T09:31:07.013Z</time></trkpt><trkpt lat="43.4279225" lon="10.8403403"><ele>259.0</ele><time>2026-04-04T09:31:08.036Z</time></trkpt><trkpt lat="43.4277692" lon="10.8402977"><ele>257.0</ele><time>2026-04-04T09:31:09.03Z</time></trkpt><trkpt lat="43.4276177" lon="10.8402487"><ele>257.0</ele><time>2026-04-04T09:31:10.024Z</time></trkpt><trkpt lat="43.4274723" lon="10.8401851"><ele>257.0</ele><time>2026-04-04T09:31:11.029Z</time></trkpt><trkpt lat="43.4273236" lon="10.8401349"><ele>257.0</ele><time>2026-04-04T09:31:12.024Z</time></trkpt><trkpt lat="43.4271714" lon="10.8401282"><ele>258.33333333333337</ele><time>2026-04-04T09:31:13.016Z</time></trkpt><trkpt lat="43.427019" lon="10.8401754"><ele>259.6666666666667</ele><time>2026-04-04T09:31:14.032Z</time></trkpt><trkpt lat="43.4268717" lon="10.8402712"><ele>261.0</ele><time>2026-04-04T09:31:15.029Z</time></trkpt><trkpt lat="43.4267311" lon="10.8403623"><ele>261.0</ele><time>2026-04-04T09:31:16.017Z</time></trkpt><trkpt lat="43.4265873" lon="10.8404486"><ele>261.0</ele><time>2026-04-04T09:31:17.044Z</time></trkpt><trkpt lat="43.4264453" lon="10.8405293"><ele>261.0</ele><time>2026-04-04T09:31:18.023Z</time></trkpt><trkpt lat="43.4263022" lon="10.8406041"><ele>264.25</ele><time>2026-04-04T09:31:19.02Z</time></trkpt><trkpt lat="43.4261657" lon="10.840679"><ele>267.5</ele><time>2026-04-04T09:31:20.042Z</time></trkpt><trkpt lat="43.4260259" lon="10.8407527"><ele>270.75</ele><time>2026-04-04T09:31:21.023Z</time></trkpt><trkpt lat="43.4258887" lon="10.8408289"><ele>274.0</ele><time>2026-04-04T09:31:22.044Z</time></trkpt><trkpt lat="43.4257532" lon="10.8409307"><ele>275.66666666666663</ele><time>2026-04-04T09:31:23.037Z</time></trkpt><trkpt lat="43.4256343" lon="10.8410607"><ele>277.3333333333333</ele><time>2026-04-04T09:31:24.017Z</time></trkpt><trkpt lat="43.4255346" lon="10.8412138"><ele>279.0</ele><time>2026-04-04T09:31:25.028Z</time></trkpt><trkpt lat="43.4254423" lon="10.8413739"><ele>279.0</ele><time>2026-04-04T09:31:26.033Z</time></trkpt><trkpt lat="43.425346" lon="10.8415271"><ele>279.0</ele><time>2026-04-04T09:31:27.03Z</time></trkpt><trkpt lat="43.4252579" lon="10.8416628"><ele>279.0</ele><time>2026-04-04T09:31:28.012Z</time></trkpt><trkpt lat="43.4251711" lon="10.8417587"><ele>279.0</ele><time>2026-04-04T09:31:29.04Z</time></trkpt><trkpt lat="43.4250805" lon="10.8418008"><ele>279.0</ele><time>2026-04-04T09:31:30Z</time></trkpt><trkpt lat="43.4249889" lon="10.8418048"><ele>279.0</ele><time>2026-04-04T09:31:31.038Z</time></trkpt><trkpt lat="43.4249056" lon="10.8417708"><ele>279.0</ele><time>2026-04-04T09:31:32.031Z</time></trkpt><trkpt lat="43.4248406" lon="10.8417089"><ele>279.0</ele><time>2026-04-04T09:31:33.025Z</time></trkpt><trkpt lat="43.424772" lon="10.8416183"><ele>279.0</ele><time>2026-04-04T09:31:34.018Z</time></trkpt><trkpt lat="43.4247085" lon="10.8415239"><ele>279.0</ele><time>2026-04-04T09:31:35.024Z</time></trkpt><trkpt lat="43.4246334" lon="10.8414091"><ele>279.75</ele><time>2026-04-04T09:31:36.037Z</time></trkpt><trkpt lat="43.424548" lon="10.8412842"><ele>280.5</ele><time>2026-04-04T09:31:37.027Z</time></trkpt><trkpt lat="43.4244585" lon="10.8411594"><ele>281.25</ele><time>2026-04-04T09:31:38.029Z</time></trkpt><trkpt lat="43.424361" lon="10.8410329"><ele>282.0</ele><time>2026-04-04T09:31:39.029Z</time></trkpt><trkpt lat="43.4242602" lon="10.8409102"><ele>282.0</ele><time>2026-04-04T09:31:40.04Z</time></trkpt><trkpt lat="43.4241494" lon="10.8408063"><ele>282.0</ele><time>2026-04-04T09:31:41.042Z</time></trkpt><trkpt lat="43.4240263" lon="10.8407275"><ele>282.0</ele><time>2026-04-04T09:31:42.03Z</time></trkpt><trkpt lat="43.4239058" lon="10.8406541"><ele>282.0</ele><time>2026-04-04T09:31:43.032Z</time></trkpt><trkpt lat="43.423789" lon="10.840557"><ele>282.75</ele><time>2026-04-04T09:31:44.042Z</time></trkpt><trkpt lat="43.4236752" lon="10.8404454"><ele>283.5</ele><time>2026-04-04T09:31:45.015Z</time></trkpt><trkpt lat="43.4235621" lon="10.8403361"><ele>284.25</ele><time>2026-04-04T09:31:46.016Z</time></trkpt><trkpt lat="43.4234381" lon="10.8402315"><ele>285.0</ele><time>2026-04-04T09:31:47.036Z</time></trkpt><trkpt lat="43.4233063" lon="10.8401321"><ele>285.0</ele><time>2026-04-04T09:31:48.023Z</time></trkpt><trkpt lat="43.4231688" lon="10.8400545"><ele>285.0</ele><time>2026-04-04T09:31:49.035Z</time></trkpt><trkpt lat="43.4230393" lon="10.8399934"><ele>285.0</ele><time>2026-04-04T09:31:50.031Z</time></trkpt><trkpt lat="43.4229181" lon="10.8399548"><ele>285.0</ele><time>2026-04-04T09:31:51.021Z</time></trkpt><trkpt lat="43.4227968" lon="10.8399265"><ele>284.0</ele><time>2026-04-04T09:31:52.023Z</time></trkpt><trkpt lat="43.4226813" lon="10.8399168"><ele>283.0</ele><time>2026-04-04T09:31:53.036Z</time></trkpt><trkpt lat="43.4225697" lon="10.8399301"><ele>282.0</ele><time>2026-04-04T09:31:54.042Z</time></trkpt><trkpt lat="43.4224504" lon="10.8399632"><ele>281.0</ele><time>2026-04-04T09:31:55.015Z</time></trkpt><trkpt lat="43.4223254" lon="10.8399974"><ele>281.0</ele><time>2026-04-04T09:31:56.023Z</time></trkpt><trkpt lat="43.4221988" lon="10.8400209"><ele>281.0</ele><time>2026-04-04T09:31:57.026Z</time></trkpt><trkpt lat="43.422077" lon="10.8400522"><ele>281.0</ele><time>2026-04-04T09:31:58.026Z</time></trkpt><trkpt lat="43.4219595" lon="10.8400901"><ele>281.0</ele><time>2026-04-04T09:31:59.038Z</time></trkpt><trkpt lat="43.421841" lon="10.8401555"><ele>278.75</ele><time>2026-04-04T09:32:00.039Z</time></trkpt><trkpt lat="43.4217199" lon="10.8402435"><ele>276.5</ele><time>2026-04-04T09:32:01.041Z</time></trkpt><trkpt lat="43.4216015" lon="10.8403333"><ele>274.25</ele><time>2026-04-04T09:32:02.023Z</time></trkpt><trkpt lat="43.4214819" lon="10.8404325"><ele>272.0</ele><time>2026-04-04T09:32:03.035Z</time></trkpt><trkpt lat="43.4213622" lon="10.8405379"><ele>272.25</ele><time>2026-04-04T09:32:04.044Z</time></trkpt><trkpt lat="43.4212427" lon="10.8406525"><ele>272.5</ele><time>2026-04-04T09:32:05.028Z</time></trkpt><trkpt lat="43.4211314" lon="10.840777"><ele>272.75</ele><time>2026-04-04T09:32:06.051Z</time></trkpt><trkpt lat="43.421025" lon="10.8409231"><ele>273.0</ele><time>2026-04-04T09:32:07.032Z</time></trkpt><trkpt lat="43.4209285" lon="10.8410778"><ele>274.25</ele><time>2026-04-04T09:32:08.039Z</time></trkpt><trkpt lat="43.4208362" lon="10.8412396"><ele>275.5</ele><time>2026-04-04T09:32:09.025Z</time></trkpt><trkpt lat="43.4207424" lon="10.8413948"><ele>276.75</ele><time>2026-04-04T09:32:10.028Z</time></trkpt><trkpt lat="43.4206431" lon="10.8415432"><ele>278.0</ele><time>2026-04-04T09:32:11.023Z</time></trkpt><trkpt lat="43.4205515" lon="10.8416877"><ele>278.75</ele><time>2026-04-04T09:32:12.032Z</time></trkpt><trkpt lat="43.4204845" lon="10.8418549"><ele>279.5</ele><time>2026-04-04T09:32:13.039Z</time></trkpt><trkpt lat="43.4204448" lon="10.8420416"><ele>280.25</ele><time>2026-04-04T09:32:14.029Z</time></trkpt><trkpt lat="43.4204315" lon="10.8422228"><ele>281.0</ele><time>2026-04-04T09:32:15.024Z</time></trkpt><trkpt lat="43.4204456" lon="10.8423937"><ele>283.75</ele><time>2026-04-04T09:32:16.041Z</time></trkpt><trkpt lat="43.420465" lon="10.8425645"><ele>286.5</ele><time>2026-04-04T09:32:17.028Z</time></trkpt><trkpt lat="43.4204696" lon="10.8427443"><ele>289.25</ele><time>2026-04-04T09:32:18.039Z</time></trkpt><trkpt lat="43.4204574" lon="10.8429231"><ele>292.0</ele><time>2026-04-04T09:32:19.033Z</time></trkpt><trkpt lat="43.4204282" lon="10.8430943"><ele>291.6</ele><time>2026-04-04T09:32:20.047Z</time></trkpt><trkpt lat="43.4203974" lon="10.8432428"><ele>291.2</ele><time>2026-04-04T09:32:21.03Z</time></trkpt><trkpt lat="43.4203697" lon="10.8433706"><ele>290.8</ele><time>2026-04-04T09:32:22.026Z</time></trkpt><trkpt lat="43.4203423" lon="10.8434818"><ele>290.4</ele><time>2026-04-04T09:32:23.043Z</time></trkpt><trkpt lat="43.4203108" lon="10.8435885"><ele>290.0</ele><time>2026-04-04T09:32:24.04Z</time></trkpt><trkpt lat="43.4202713" lon="10.8436794"><ele>290.0</ele><time>2026-04-04T09:32:25.026Z</time></trkpt><trkpt lat="43.4202314" lon="10.8437549"><ele>290.0</ele><time>2026-04-04T09:32:26.036Z</time></trkpt><trkpt lat="43.420146" lon="10.8438818"><ele>290.0</ele><time>2026-04-04T09:32:28.027Z</time></trkpt><trkpt lat="43.4200902" lon="10.8439436"><ele>290.0</ele><time>2026-04-04T09:32:29.036Z</time></trkpt><trkpt lat="43.4200185" lon="10.8439957"><ele>290.0</ele><time>2026-04-04T09:32:30.026Z</time></trkpt><trkpt lat="43.4199445" lon="10.8440299"><ele>290.0</ele><time>2026-04-04T09:32:31.038Z</time></trkpt><trkpt lat="43.4198763" lon="10.8440542"><ele>290.0</ele><time>2026-04-04T09:32:32.031Z</time></trkpt><trkpt lat="43.4198102" lon="10.8440686"><ele>290.0</ele><time>2026-04-04T09:32:33.04Z</time></trkpt><trkpt lat="43.4197388" lon="10.8440899"><ele>290.0</ele><time>2026-04-04T09:32:34.043Z</time></trkpt><trkpt lat="43.4196608" lon="10.8441338"><ele>290.0</ele><time>2026-04-04T09:32:35.035Z</time></trkpt><trkpt lat="43.4195788" lon="10.8441957"><ele>290.0</ele><time>2026-04-04T09:32:36.033Z</time></trkpt><trkpt lat="43.4194843" lon="10.8442759"><ele>290.0</ele><time>2026-04-04T09:32:37.024Z</time></trkpt><trkpt lat="43.4193848" lon="10.8443603"><ele>291.0</ele><time>2026-04-04T09:32:38.035Z</time></trkpt><trkpt lat="43.4192789" lon="10.84445"><ele>292.0</ele><time>2026-04-04T09:32:39.034Z</time></trkpt><trkpt lat="43.4191669" lon="10.844558"><ele>293.0</ele><time>2026-04-04T09:32:40.029Z</time></trkpt><trkpt lat="43.4190527" lon="10.8446684"><ele>294.0</ele><time>2026-04-04T09:32:41.023Z</time></trkpt><trkpt lat="43.4189342" lon="10.8447733"><ele>294.0</ele><time>2026-04-04T09:32:42.035Z</time></trkpt><trkpt lat="43.4188307" lon="10.8448917"><ele>294.0</ele><time>2026-04-04T09:32:43.028Z</time></trkpt><trkpt lat="43.4187572" lon="10.8450362"><ele>294.0</ele><time>2026-04-04T09:32:44.033Z</time></trkpt><trkpt lat="43.418717" lon="10.8451985"><ele>294.0</ele><time>2026-04-04T09:32:45.024Z</time></trkpt><trkpt lat="43.4187" lon="10.8453577"><ele>295.8</ele><time>2026-04-04T09:32:46.035Z</time></trkpt><trkpt lat="43.4186856" lon="10.8455054"><ele>297.59999999999997</ele><time>2026-04-04T09:32:47.026Z</time></trkpt><trkpt lat="43.4186675" lon="10.8456313"><ele>299.4</ele><time>2026-04-04T09:32:48.038Z</time></trkpt><trkpt lat="43.418653" lon="10.8457609"><ele>301.2</ele><time>2026-04-04T09:32:49.032Z</time></trkpt><trkpt lat="43.4186383" lon="10.845903"><ele>303.0</ele><time>2026-04-04T09:32:50.033Z</time></trkpt><trkpt lat="43.4186043" lon="10.8460344"><ele>305.0</ele><time>2026-04-04T09:32:51.026Z</time></trkpt><trkpt lat="43.4185592" lon="10.8461574"><ele>307.0</ele><time>2026-04-04T09:32:52.029Z</time></trkpt><trkpt lat="43.418507" lon="10.8462648"><ele>309.0</ele><time>2026-04-04T09:32:53.039Z</time></trkpt><trkpt lat="43.4184569" lon="10.8463732"><ele>311.0</ele><time>2026-04-04T09:32:54.05Z</time></trkpt><trkpt lat="43.4184293" lon="10.8464803"><ele>313.0</ele><time>2026-04-04T09:32:55.033Z</time></trkpt><trkpt lat="43.4184173" lon="10.8465908"><ele>313.0</ele><time>2026-04-04T09:32:56.035Z</time></trkpt><trkpt lat="43.4184205" lon="10.8466903"><ele>313.0</ele><time>2026-04-04T09:32:57.036Z</time></trkpt><trkpt lat="43.4184138" lon="10.8467834"><ele>313.0</ele><time>2026-04-04T09:32:58.033Z</time></trkpt><trkpt lat="43.4183868" lon="10.8468766"><ele>313.0</ele><time>2026-04-04T09:32:59.03Z</time></trkpt><trkpt lat="43.4183394" lon="10.8469599"><ele>313.0</ele><time>2026-04-04T09:33:00.04Z</time></trkpt><trkpt lat="43.4182721" lon="10.8470398"><ele>313.0</ele><time>2026-04-04T09:33:01.032Z</time></trkpt><trkpt lat="43.4181939" lon="10.8471208"><ele>313.0</ele><time>2026-04-04T09:33:02.022Z</time></trkpt><trkpt lat="43.4181188" lon="10.8472146"><ele>313.0</ele><time>2026-04-04T09:33:03.027Z</time></trkpt><trkpt lat="43.4180508" lon="10.8473172"><ele>313.0</ele><time>2026-04-04T09:33:04.037Z</time></trkpt><trkpt lat="43.4179983" lon="10.8474305"><ele>313.0</ele><time>2026-04-04T09:33:05.032Z</time></trkpt><trkpt lat="43.4179709" lon="10.8475663"><ele>313.0</ele><time>2026-04-04T09:33:06.022Z</time></trkpt><trkpt lat="43.4179647" lon="10.847704"><ele>314.6</ele><time>2026-04-04T09:33:07.024Z</time></trkpt><trkpt lat="43.4179664" lon="10.8478458"><ele>316.20000000000005</ele><time>2026-04-04T09:33:08.044Z</time></trkpt><trkpt lat="43.4179744" lon="10.8479838"><ele>317.8</ele><time>2026-04-04T09:33:09.031Z</time></trkpt><trkpt lat="43.4179882" lon="10.8481276"><ele>319.40000000000003</ele><time>2026-04-04T09:33:10.029Z</time></trkpt><trkpt lat="43.4180023" lon="10.8482716"><ele>321.0</ele><time>2026-04-04T09:33:11.028Z</time></trkpt><trkpt lat="43.4180169" lon="10.8484174"><ele>324.20000000000005</ele><time>2026-04-04T09:33:12.04Z</time></trkpt><trkpt lat="43.41804" lon="10.8485585"><ele>327.40000000000003</ele><time>2026-04-04T09:33:13.029Z</time></trkpt><trkpt lat="43.4180786" lon="10.8486856"><ele>330.6</ele><time>2026-04-04T09:33:14.031Z</time></trkpt><trkpt lat="43.4181321" lon="10.8487973"><ele>333.8</ele><time>2026-04-04T09:33:15.024Z</time></trkpt><trkpt lat="43.4181891" lon="10.848892"><ele>337.0</ele><time>2026-04-04T09:33:16.028Z</time></trkpt><trkpt lat="43.4182499" lon="10.8489889"><ele>337.0</ele><time>2026-04-04T09:33:17.022Z</time></trkpt><trkpt lat="43.4183082" lon="10.8490957"><ele>337.0</ele><time>2026-04-04T09:33:18.038Z</time></trkpt><trkpt lat="43.4183529" lon="10.8492254"><ele>337.0</ele><time>2026-04-04T09:33:19.02Z</time></trkpt><trkpt lat="43.418375" lon="10.8493768"><ele>337.0</ele><time>2026-04-04T09:33:20.032Z</time></trkpt><trkpt lat="43.4183787" lon="10.8495434"><ele>337.0</ele><time>2026-04-04T09:33:21.02Z</time></trkpt><trkpt lat="43.418372" lon="10.8497047"><ele>339.25</ele><time>2026-04-04T09:33:22.026Z</time></trkpt><trkpt lat="43.4183693" lon="10.8498744"><ele>341.5</ele><time>2026-04-04T09:33:23.022Z</time></trkpt><trkpt lat="43.4183775" lon="10.850046"><ele>343.75</ele><time>2026-04-04T09:33:24.02Z</time></trkpt><trkpt lat="43.4184002" lon="10.8502178"><ele>346.0</ele><time>2026-04-04T09:33:25.025Z</time></trkpt><trkpt lat="43.4184251" lon="10.8503853"><ele>348.25</ele><time>2026-04-04T09:33:26.029Z</time></trkpt><trkpt lat="43.4184426" lon="10.8505499"><ele>350.5</ele><time>2026-04-04T09:33:27.031Z</time></trkpt><trkpt lat="43.4184539" lon="10.8507244"><ele>352.75</ele><time>2026-04-04T09:33:28.04Z</time></trkpt><trkpt lat="43.4184553" lon="10.8508989"><ele>355.0</ele><time>2026-04-04T09:33:29.045Z</time></trkpt><trkpt lat="43.4184449" lon="10.8510771"><ele>356.25</ele><time>2026-04-04T09:33:30.046Z</time></trkpt><trkpt lat="43.4184286" lon="10.8512491"><ele>357.5</ele><time>2026-04-04T09:33:31.029Z</time></trkpt><trkpt lat="43.4184082" lon="10.8514186"><ele>358.75</ele><time>2026-04-04T09:33:32.037Z</time></trkpt><trkpt lat="43.4183983" lon="10.8515881"><ele>360.0</ele><time>2026-04-04T09:33:33.036Z</time></trkpt><trkpt lat="43.4184089" lon="10.8517534"><ele>361.25</ele><time>2026-04-04T09:33:34.05Z</time></trkpt><trkpt lat="43.4184467" lon="10.8519096"><ele>362.5</ele><time>2026-04-04T09:33:35.03Z</time></trkpt><trkpt lat="43.4184978" lon="10.8520577"><ele>363.75</ele><time>2026-04-04T09:33:36.051Z</time></trkpt><trkpt lat="43.4185587" lon="10.8522038"><ele>365.0</ele><time>2026-04-04T09:33:37.034Z</time></trkpt><trkpt lat="43.4186143" lon="10.8523529"><ele>365.0</ele><time>2026-04-04T09:33:38.037Z</time></trkpt><trkpt lat="43.418668" lon="10.8525237"><ele>365.0</ele><time>2026-04-04T09:33:39.046Z</time></trkpt><trkpt lat="43.4187166" lon="10.8526933"><ele>365.0</ele><time>2026-04-04T09:33:40.035Z</time></trkpt><trkpt lat="43.4187507" lon="10.8528619"><ele>365.0</ele><time>2026-04-04T09:33:41.029Z</time></trkpt><trkpt lat="43.4187765" lon="10.8530282"><ele>367.4</ele><time>2026-04-04T09:33:42.057Z</time></trkpt><trkpt lat="43.4187893" lon="10.8531762"><ele>369.8</ele><time>2026-04-04T09:33:43.029Z</time></trkpt><trkpt lat="43.4187995" lon="10.8532974"><ele>372.20000000000005</ele><time>2026-04-04T09:33:44.036Z</time></trkpt><trkpt lat="43.418796" lon="10.8534097"><ele>374.6</ele><time>2026-04-04T09:33:45.022Z</time></trkpt><trkpt lat="43.4187843" lon="10.8535222"><ele>377.0</ele><time>2026-04-04T09:33:46.035Z</time></trkpt><trkpt lat="43.4187491" lon="10.8536402"><ele>377.0</ele><time>2026-04-04T09:33:47.022Z</time></trkpt><trkpt lat="43.4186972" lon="10.8537601"><ele>377.0</ele><time>2026-04-04T09:33:48.018Z</time></trkpt><trkpt lat="43.4186485" lon="10.8538956"><ele>377.0</ele><time>2026-04-04T09:33:49.021Z</time></trkpt><trkpt lat="43.4186098" lon="10.8540482"><ele>377.0</ele><time>2026-04-04T09:33:50.022Z</time></trkpt><trkpt lat="43.4185777" lon="10.8542061"><ele>377.0</ele><time>2026-04-04T09:33:51.023Z</time></trkpt><trkpt lat="43.4185506" lon="10.8543612"><ele>377.0</ele><time>2026-04-04T09:33:52.033Z</time></trkpt><trkpt lat="43.4185337" lon="10.8545181"><ele>377.0</ele><time>2026-04-04T09:33:53.021Z</time></trkpt><trkpt lat="43.4185246" lon="10.8546983"><ele>377.0</ele><time>2026-04-04T09:33:54.041Z</time></trkpt><trkpt lat="43.4185222" lon="10.854904"><ele>377.0</ele><time>2026-04-04T09:33:55.024Z</time></trkpt><trkpt lat="43.4185248" lon="10.8551183"><ele>375.40000000000003</ele><time>2026-04-04T09:33:56.048Z</time></trkpt><trkpt lat="43.4185267" lon="10.855302"><ele>373.8</ele><time>2026-04-04T09:33:57.025Z</time></trkpt><trkpt lat="43.4185238" lon="10.8554449"><ele>372.2</ele><time>2026-04-04T09:33:58.043Z</time></trkpt><trkpt lat="43.4185117" lon="10.8555691"><ele>370.6</ele><time>2026-04-04T09:33:59.024Z</time></trkpt><trkpt lat="43.4184719" lon="10.8556736"><ele>369.0</ele><time>2026-04-04T09:34:00.045Z</time></trkpt><trkpt lat="43.418414" lon="10.8557693"><ele>369.0</ele><time>2026-04-04T09:34:01.017Z</time></trkpt><trkpt lat="43.4183358" lon="10.8558418"><ele>369.0</ele><time>2026-04-04T09:34:02.042Z</time></trkpt><trkpt lat="43.4182467" lon="10.8558909"><ele>369.0</ele><time>2026-04-04T09:34:03.024Z</time></trkpt><trkpt lat="43.4181503" lon="10.8559293"><ele>369.0</ele><time>2026-04-04T09:34:04.033Z</time></trkpt><trkpt lat="43.4180627" lon="10.8559827"><ele>369.0</ele><time>2026-04-04T09:34:05.022Z</time></trkpt><trkpt lat="43.4179915" lon="10.8560644"><ele>369.0</ele><time>2026-04-04T09:34:06.03Z</time></trkpt><trkpt lat="43.4179365" lon="10.8561614"><ele>369.0</ele><time>2026-04-04T09:34:07.028Z</time></trkpt><trkpt lat="43.4179063" lon="10.8562551"><ele>369.0</ele><time>2026-04-04T09:34:08.031Z</time></trkpt><trkpt lat="43.4178869" lon="10.8563524"><ele>369.0</ele><time>2026-04-04T09:34:09.024Z</time></trkpt><trkpt lat="43.4178763" lon="10.8564592"><ele>369.0</ele><time>2026-04-04T09:34:10.02Z</time></trkpt><trkpt lat="43.4178703" lon="10.8565763"><ele>369.0</ele><time>2026-04-04T09:34:11.027Z</time></trkpt><trkpt lat="43.4178628" lon="10.8566895"><ele>369.0</ele><time>2026-04-04T09:34:12.029Z</time></trkpt><trkpt lat="43.4178444" lon="10.856782"><ele>369.0</ele><time>2026-04-04T09:34:13.05Z</time></trkpt><trkpt lat="43.4178148" lon="10.8568609"><ele>369.0</ele><time>2026-04-04T09:34:14.031Z</time></trkpt><trkpt lat="43.4177523" lon="10.8569121"><ele>369.0</ele><time>2026-04-04T09:34:15.041Z</time></trkpt><trkpt lat="43.4176702" lon="10.8569189"><ele>369.0</ele><time>2026-04-04T09:34:16.045Z</time></trkpt><trkpt lat="43.417583" lon="10.8568926"><ele>369.0</ele><time>2026-04-04T09:34:17.037Z</time></trkpt><trkpt lat="43.4174958" lon="10.8568422"><ele>369.0</ele><time>2026-04-04T09:34:18.032Z</time></trkpt><trkpt lat="43.4174167" lon="10.8567532"><ele>369.0</ele><time>2026-04-04T09:34:19.029Z</time></trkpt><trkpt lat="43.4173728" lon="10.8566462"><ele>369.0</ele><time>2026-04-04T09:34:20.04Z</time></trkpt><trkpt lat="43.4173419" lon="10.8565301"><ele>369.0</ele><time>2026-04-04T09:34:21.022Z</time></trkpt><trkpt lat="43.4173225" lon="10.8564029"><ele>369.0</ele><time>2026-04-04T09:34:22.027Z</time></trkpt><trkpt lat="43.4173162" lon="10.8562578"><ele>369.0</ele><time>2026-04-04T09:34:23.021Z</time></trkpt><trkpt lat="43.4173144" lon="10.8561011"><ele>369.0</ele><time>2026-04-04T09:34:24.017Z</time></trkpt><trkpt lat="43.4173112" lon="10.8559352"><ele>369.0</ele><time>2026-04-04T09:34:25.027Z</time></trkpt><trkpt lat="43.4173036" lon="10.8557761"><ele>369.0</ele><time>2026-04-04T09:34:26.028Z</time></trkpt><trkpt lat="43.4173016" lon="10.8556624"><ele>369.0</ele><time>2026-04-04T09:34:27.011Z</time></trkpt><trkpt lat="43.4172887" lon="10.8555063"><ele>371.1666666666667</ele><time>2026-04-04T09:34:29.024Z</time></trkpt><trkpt lat="43.4172742" lon="10.8554194"><ele>373.3333333333333</ele><time>2026-04-04T09:34:30.036Z</time></trkpt><trkpt lat="43.4172608" lon="10.8553149"><ele>375.5</ele><time>2026-04-04T09:34:31.035Z</time></trkpt><trkpt lat="43.4172478" lon="10.8551969"><ele>377.66666666666663</ele><time>2026-04-04T09:34:32.048Z</time></trkpt><trkpt lat="43.4172309" lon="10.8550709"><ele>379.8333333333333</ele><time>2026-04-04T09:34:33.039Z</time></trkpt><trkpt lat="43.4172019" lon="10.8549346"><ele>382.0</ele><time>2026-04-04T09:34:34.033Z</time></trkpt><trkpt lat="43.4171642" lon="10.8547977"><ele>381.8</ele><time>2026-04-04T09:34:35.015Z</time></trkpt><trkpt lat="43.4171215" lon="10.8546537"><ele>381.6</ele><time>2026-04-04T09:34:36.059Z</time></trkpt><trkpt lat="43.4170829" lon="10.8545105"><ele>381.40000000000003</ele><time>2026-04-04T09:34:37.028Z</time></trkpt><trkpt lat="43.4170476" lon="10.8543778"><ele>381.20000000000005</ele><time>2026-04-04T09:34:38.045Z</time></trkpt><trkpt lat="43.4170187" lon="10.8542485"><ele>381.0</ele><time>2026-04-04T09:34:39.029Z</time></trkpt><trkpt lat="43.416999" lon="10.8541163"><ele>381.0</ele><time>2026-04-04T09:34:40.063Z</time></trkpt><trkpt lat="43.4169868" lon="10.8539811"><ele>381.0</ele><time>2026-04-04T09:34:41.024Z</time></trkpt><trkpt lat="43.416983" lon="10.8538422"><ele>381.0</ele><time>2026-04-04T09:34:42.041Z</time></trkpt><trkpt lat="43.4169838" lon="10.8537025"><ele>381.0</ele><time>2026-04-04T09:34:43.025Z</time></trkpt><trkpt lat="43.4169821" lon="10.8535595"><ele>381.0</ele><time>2026-04-04T09:34:44.031Z</time></trkpt><trkpt lat="43.4169745" lon="10.853422"><ele>385.4</ele><time>2026-04-04T09:34:45.018Z</time></trkpt><trkpt lat="43.4169452" lon="10.8532941"><ele>389.8</ele><time>2026-04-04T09:34:46.038Z</time></trkpt><trkpt lat="43.4168831" lon="10.8531922"><ele>394.2</ele><time>2026-04-04T09:34:47.027Z</time></trkpt><trkpt lat="43.4167978" lon="10.8531056"><ele>398.59999999999997</ele><time>2026-04-04T09:34:48.025Z</time></trkpt><trkpt lat="43.4167103" lon="10.8530295"><ele>403.0</ele><time>2026-04-04T09:34:49.019Z</time></trkpt><trkpt lat="43.4166201" lon="10.8529596"><ele>403.0</ele><time>2026-04-04T09:34:50.05Z</time></trkpt><trkpt lat="43.4165382" lon="10.8528892"><ele>403.0</ele><time>2026-04-04T09:34:51.021Z</time></trkpt><trkpt lat="43.4164631" lon="10.8528064"><ele>403.0</ele><time>2026-04-04T09:34:52.028Z</time></trkpt><trkpt lat="43.4163859" lon="10.8527037"><ele>403.0</ele><time>2026-04-04T09:34:53.022Z</time></trkpt><trkpt lat="43.4163023" lon="10.8525754"><ele>403.0</ele><time>2026-04-04T09:34:54.027Z</time></trkpt><trkpt lat="43.4162208" lon="10.8524241"><ele>403.0</ele><time>2026-04-04T09:34:55.03Z</time></trkpt><trkpt lat="43.4161364" lon="10.8522616"><ele>403.0</ele><time>2026-04-04T09:34:56.045Z</time></trkpt><trkpt lat="43.4160465" lon="10.8520995"><ele>403.0</ele><time>2026-04-04T09:34:57.015Z</time></trkpt><trkpt lat="43.4159481" lon="10.8519448"><ele>403.0</ele><time>2026-04-04T09:34:58.033Z</time></trkpt><trkpt lat="43.4158383" lon="10.8518067"><ele>404.75</ele><time>2026-04-04T09:34:59.021Z</time></trkpt><trkpt lat="43.415717" lon="10.8516865"><ele>406.5</ele><time>2026-04-04T09:35:00.032Z</time></trkpt><trkpt lat="43.4155914" lon="10.8515791"><ele>408.25</ele><time>2026-04-04T09:35:01.021Z</time></trkpt><trkpt lat="43.4154662" lon="10.8514723"><ele>410.0</ele><time>2026-04-04T09:35:02.022Z</time></trkpt><trkpt lat="43.4153462" lon="10.8513584"><ele>410.0</ele><time>2026-04-04T09:35:03.011Z</time></trkpt><trkpt lat="43.4152323" lon="10.851246"><ele>410.0</ele><time>2026-04-04T09:35:04.015Z</time></trkpt><trkpt lat="43.4151107" lon="10.8511432"><ele>410.0</ele><time>2026-04-04T09:35:05.023Z</time></trkpt><trkpt lat="43.4149841" lon="10.8510737"><ele>410.0</ele><time>2026-04-04T09:35:06.029Z</time></trkpt><trkpt lat="43.414848" lon="10.8510455"><ele>410.0</ele><time>2026-04-04T09:35:07.027Z</time></trkpt><trkpt lat="43.4147108" lon="10.8510481"><ele>410.0</ele><time>2026-04-04T09:35:08.02Z</time></trkpt><trkpt lat="43.4145839" lon="10.8510953"><ele>410.0</ele><time>2026-04-04T09:35:09.027Z</time></trkpt><trkpt lat="43.4144669" lon="10.8511688"><ele>410.0</ele><time>2026-04-04T09:35:10.018Z</time></trkpt><trkpt lat="43.4143648" lon="10.8512769"><ele>414.5</ele><time>2026-04-04T09:35:11.029Z</time></trkpt><trkpt lat="43.4142857" lon="10.8514163"><ele>419.0</ele><time>2026-04-04T09:35:12.015Z</time></trkpt><trkpt lat="43.4142272" lon="10.8515729"><ele>423.5</ele><time>2026-04-04T09:35:13.016Z</time></trkpt><trkpt lat="43.4141852" lon="10.8517395"><ele>428.0</ele><time>2026-04-04T09:35:14.04Z</time></trkpt><trkpt lat="43.4141461" lon="10.851907"><ele>428.0</ele><time>2026-04-04T09:35:15.021Z</time></trkpt><trkpt lat="43.4140999" lon="10.8520705"><ele>428.0</ele><time>2026-04-04T09:35:16.042Z</time></trkpt><trkpt lat="43.4140514" lon="10.8522407"><ele>428.0</ele><time>2026-04-04T09:35:17.022Z</time></trkpt><trkpt lat="43.4139998" lon="10.8524111"><ele>428.0</ele><time>2026-04-04T09:35:18.036Z</time></trkpt><trkpt lat="43.4139435" lon="10.8525752"><ele>427.5</ele><time>2026-04-04T09:35:19.027Z</time></trkpt><trkpt lat="43.413877" lon="10.8527281"><ele>427.0</ele><time>2026-04-04T09:35:20.033Z</time></trkpt><trkpt lat="43.4137931" lon="10.8528578"><ele>426.5</ele><time>2026-04-04T09:35:21.025Z</time></trkpt><trkpt lat="43.4136902" lon="10.8529585"><ele>426.0</ele><time>2026-04-04T09:35:22.031Z</time></trkpt><trkpt lat="43.4135776" lon="10.8530081"><ele>426.0</ele><time>2026-04-04T09:35:23.024Z</time></trkpt><trkpt lat="43.413468" lon="10.8530041"><ele>426.0</ele><time>2026-04-04T09:35:24.038Z</time></trkpt><trkpt lat="43.4133753" lon="10.8529346"><ele>426.0</ele><time>2026-04-04T09:35:25.033Z</time></trkpt><trkpt lat="43.4132908" lon="10.8528077"><ele>426.0</ele><time>2026-04-04T09:35:26.038Z</time></trkpt><trkpt lat="43.413206" lon="10.8526653"><ele>426.0</ele><time>2026-04-04T09:35:27.012Z</time></trkpt><trkpt lat="43.413121" lon="10.8525172"><ele>426.0</ele><time>2026-04-04T09:35:28.02Z</time></trkpt><trkpt lat="43.4130348" lon="10.8523764"><ele>426.0</ele><time>2026-04-04T09:35:29.013Z</time></trkpt><trkpt lat="43.4129485" lon="10.8522442"><ele>426.0</ele><time>2026-04-04T09:35:30.043Z</time></trkpt><trkpt lat="43.4128645" lon="10.8521094"><ele>426.0</ele><time>2026-04-04T09:35:31.023Z</time></trkpt><trkpt lat="43.4127749" lon="10.8519843"><ele>426.0</ele><time>2026-04-04T09:35:32.054Z</time></trkpt><trkpt lat="43.4126766" lon="10.8518829"><ele>426.0</ele><time>2026-04-04T09:35:33.015Z</time></trkpt><trkpt lat="43.4125706" lon="10.8518094"><ele>426.0</ele><time>2026-04-04T09:35:34.038Z</time></trkpt><trkpt lat="43.4124706" lon="10.8517407"><ele>430.0</ele><time>2026-04-04T09:35:35.018Z</time></trkpt><trkpt lat="43.4123695" lon="10.8516775"><ele>434.0</ele><time>2026-04-04T09:35:36.015Z</time></trkpt><trkpt lat="43.4122699" lon="10.8516397"><ele>438.0</ele><time>2026-04-04T09:35:37.018Z</time></trkpt><trkpt lat="43.4121782" lon="10.8516475"><ele>442.0</ele><time>2026-04-04T09:35:38.019Z</time></trkpt><trkpt lat="43.4121041" lon="10.8516796"><ele>446.0</ele><time>2026-04-04T09:35:39.028Z</time></trkpt><trkpt lat="43.4120278" lon="10.8517267"><ele>447.8333333333333</ele><time>2026-04-04T09:35:40.015Z</time></trkpt><trkpt lat="43.4119543" lon="10.8517728"><ele>449.66666666666663</ele><time>2026-04-04T09:35:41.015Z</time></trkpt><trkpt lat="43.4118768" lon="10.8518023"><ele>451.5</ele><time>2026-04-04T09:35:42.024Z</time></trkpt><trkpt lat="43.4117977" lon="10.8518403"><ele>453.33333333333337</ele><time>2026-04-04T09:35:43.024Z</time></trkpt><trkpt lat="43.4117302" lon="10.8518748"><ele>455.1666666666667</ele><time>2026-04-04T09:35:44.018Z</time></trkpt><trkpt lat="43.4116668" lon="10.851907"><ele>457.0</ele><time>2026-04-04T09:35:45.026Z</time></trkpt><trkpt lat="43.4115978" lon="10.8519503"><ele>453.40000000000003</ele><time>2026-04-04T09:35:46.023Z</time></trkpt><trkpt lat="43.4115219" lon="10.8519916"><ele>449.80000000000007</ele><time>2026-04-04T09:35:47.013Z</time></trkpt><trkpt lat="43.4114403" lon="10.8520225"><ele>446.2</ele><time>2026-04-04T09:35:48.028Z</time></trkpt><trkpt lat="43.4113524" lon="10.8520442"><ele>442.6</ele><time>2026-04-04T09:35:49.015Z</time></trkpt><trkpt lat="43.4112568" lon="10.852049"><ele>439.0</ele><time>2026-04-04T09:35:50.02Z</time></trkpt><trkpt lat="43.4111567" lon="10.8520473"><ele>439.0</ele><time>2026-04-04T09:35:51.025Z</time></trkpt><trkpt lat="43.4110577" lon="10.8520432"><ele>439.0</ele><time>2026-04-04T09:35:52.03Z</time></trkpt><trkpt lat="43.4109621" lon="10.8520406"><ele>439.0</ele><time>2026-04-04T09:35:53.029Z</time></trkpt><trkpt lat="43.4108686" lon="10.8520415"><ele>439.0</ele><time>2026-04-04T09:35:54.021Z</time></trkpt><trkpt lat="43.410777" lon="10.8520413"><ele>439.0</ele><time>2026-04-04T09:35:55.028Z</time></trkpt><trkpt lat="43.4106791" lon="10.8520471"><ele>439.0</ele><time>2026-04-04T09:35:56.019Z</time></trkpt><trkpt lat="43.410581" lon="10.8520501"><ele>439.0</ele><time>2026-04-04T09:35:57.011Z</time></trkpt><trkpt lat="43.4104775" lon="10.8520567"><ele>439.0</ele><time>2026-04-04T09:35:58.021Z</time></trkpt><trkpt lat="43.4103696" lon="10.8520638"><ele>439.0</ele><time>2026-04-04T09:35:59.021Z</time></trkpt><trkpt lat="43.4102461" lon="10.8520778"><ele>439.0</ele><time>2026-04-04T09:36:00.026Z</time></trkpt><trkpt lat="43.4101139" lon="10.8520942"><ele>440.25</ele><time>2026-04-04T09:36:01.02Z</time></trkpt><trkpt lat="43.4099838" lon="10.8521094"><ele>441.5</ele><time>2026-04-04T09:36:02.021Z</time></trkpt><trkpt lat="43.4098571" lon="10.8521235"><ele>442.75</ele><time>2026-04-04T09:36:03.011Z</time></trkpt><trkpt lat="43.4097375" lon="10.8521406"><ele>444.0</ele><time>2026-04-04T09:36:04.013Z</time></trkpt><trkpt lat="43.4096213" lon="10.8521624"><ele>446.6</ele><time>2026-04-04T09:36:05.017Z</time></trkpt><trkpt lat="43.4095123" lon="10.8521858"><ele>449.2</ele><time>2026-04-04T09:36:06.008Z</time></trkpt><trkpt lat="43.4094126" lon="10.8522064"><ele>451.80000000000007</ele><time>2026-04-04T09:36:07.02Z</time></trkpt><trkpt lat="43.4093175" lon="10.8522239"><ele>454.40000000000003</ele><time>2026-04-04T09:36:08.028Z</time></trkpt><trkpt lat="43.409226" lon="10.8522458"><ele>457.0</ele><time>2026-04-04T09:36:09.018Z</time></trkpt><trkpt lat="43.4091328" lon="10.8522721"><ele>457.00000000000006</ele><time>2026-04-04T09:36:10.016Z</time></trkpt><trkpt lat="43.4090414" lon="10.8523006"><ele>457.0</ele><time>2026-04-04T09:36:11.024Z</time></trkpt><trkpt lat="43.4089577" lon="10.8523388"><ele>457.0</ele><time>2026-04-04T09:36:12.016Z</time></trkpt><trkpt lat="43.4088839" lon="10.852382"><ele>457.0</ele><time>2026-04-04T09:36:13.013Z</time></trkpt><trkpt lat="43.4088231" lon="10.8524172"><ele>457.00000000000006</ele><time>2026-04-04T09:36:14.023Z</time></trkpt><trkpt lat="43.4087357" lon="10.8524718"><ele>457.0</ele><time>2026-04-04T09:36:16.03Z</time></trkpt><trkpt lat="43.4086719" lon="10.8525368"><ele>460.20000000000005</ele><time>2026-04-04T09:36:18.02Z</time></trkpt><trkpt lat="43.4085934" lon="10.8526248"><ele>463.40000000000003</ele><time>2026-04-04T09:36:20.014Z</time></trkpt><trkpt lat="43.4085134" lon="10.8526975"><ele>466.59999999999997</ele><time>2026-04-04T09:36:22.011Z</time></trkpt><trkpt lat="43.4084595" lon="10.8528114"><ele>469.79999999999995</ele><time>2026-04-04T09:36:23.999Z</time></trkpt><trkpt lat="43.4084195" lon="10.8529894"><ele>473.0</ele><time>2026-04-04T09:36:26.02Z</time></trkpt><trkpt lat="43.4083862" lon="10.8531024"><ele>473.0</ele><time>2026-04-04T09:36:27.018Z</time></trkpt><trkpt lat="43.4083432" lon="10.8532201"><ele>472.99999999999994</ele><time>2026-04-04T09:36:28.022Z</time></trkpt><trkpt lat="43.4082893" lon="10.8533196"><ele>472.99999999999994</ele><time>2026-04-04T09:36:29.02Z</time></trkpt><trkpt lat="43.4082222" lon="10.8534017"><ele>473.0</ele><time>2026-04-04T09:36:30.033Z</time></trkpt><trkpt lat="43.4081343" lon="10.853476"><ele>473.0</ele><time>2026-04-04T09:36:31.022Z</time></trkpt><trkpt lat="43.4080281" lon="10.8535432"><ele>474.5</ele><time>2026-04-04T09:36:32.033Z</time></trkpt><trkpt lat="43.4079103" lon="10.8536138"><ele>476.0</ele><time>2026-04-04T09:36:33.032Z</time></trkpt><trkpt lat="43.4077729" lon="10.8536684"><ele>477.5</ele><time>2026-04-04T09:36:34.056Z</time></trkpt><trkpt lat="43.4076195" lon="10.8537167"><ele>479.0</ele><time>2026-04-04T09:36:35.033Z</time></trkpt><trkpt lat="43.407455" lon="10.8537553"><ele>479.0</ele><time>2026-04-04T09:36:36.024Z</time></trkpt><trkpt lat="43.4072912" lon="10.8537935"><ele>479.0</ele><time>2026-04-04T09:36:37.028Z</time></trkpt><trkpt lat="43.4071325" lon="10.8538335"><ele>479.0</ele><time>2026-04-04T09:36:38.026Z</time></trkpt><trkpt lat="43.4069884" lon="10.8538712"><ele>480.0</ele><time>2026-04-04T09:36:39.036Z</time></trkpt><trkpt lat="43.4068714" lon="10.8539054"><ele>481.0</ele><time>2026-04-04T09:36:40.023Z</time></trkpt><trkpt lat="43.4067769" lon="10.8539346"><ele>482.0</ele><time>2026-04-04T09:36:41.031Z</time></trkpt><trkpt lat="43.4066926" lon="10.8539551"><ele>483.0</ele><time>2026-04-04T09:36:42.032Z</time></trkpt><trkpt lat="43.4066181" lon="10.8539879"><ele>484.0</ele><time>2026-04-04T09:36:43.027Z</time></trkpt><trkpt lat="43.4065466" lon="10.8540224"><ele>484.0</ele><time>2026-04-04T09:36:44.018Z</time></trkpt><trkpt lat="43.4064716" lon="10.8540808"><ele>484.0</ele><time>2026-04-04T09:36:45.015Z</time></trkpt><trkpt lat="43.4063863" lon="10.8541579"><ele>484.0</ele><time>2026-04-04T09:36:46.016Z</time></trkpt><trkpt lat="43.4062833" lon="10.8542651"><ele>484.0</ele><time>2026-04-04T09:36:47.014Z</time></trkpt><trkpt lat="43.4061692" lon="10.8543793"><ele>486.5</ele><time>2026-04-04T09:36:48.032Z</time></trkpt><trkpt lat="43.4060524" lon="10.8544879"><ele>489.0</ele><time>2026-04-04T09:36:49.028Z</time></trkpt><trkpt lat="43.4059349" lon="10.8545912"><ele>491.5</ele><time>2026-04-04T09:36:50.017Z</time></trkpt><trkpt lat="43.4058174" lon="10.8546876"><ele>494.0</ele><time>2026-04-04T09:36:51.021Z</time></trkpt><trkpt lat="43.4057185" lon="10.8547746"><ele>494.0</ele><time>2026-04-04T09:36:52.023Z</time></trkpt><trkpt lat="43.4056384" lon="10.8548517"><ele>494.0</ele><time>2026-04-04T09:36:53.026Z</time></trkpt><trkpt lat="43.4055661" lon="10.8549213"><ele>494.0</ele><time>2026-04-04T09:36:54.017Z</time></trkpt><trkpt lat="43.4054986" lon="10.8549721"><ele>494.0</ele><time>2026-04-04T09:36:55.023Z</time></trkpt><trkpt lat="43.4054003" lon="10.8550337"><ele>494.0</ele><time>2026-04-04T09:36:57.018Z</time></trkpt><trkpt lat="43.4053191" lon="10.8550562"><ele>496.16666666666663</ele><time>2026-04-04T09:36:59.016Z</time></trkpt><trkpt lat="43.4052308" lon="10.8550667"><ele>498.3333333333333</ele><time>2026-04-04T09:37:01.023Z</time></trkpt><trkpt lat="43.4051599" lon="10.8550742"><ele>500.5</ele><time>2026-04-04T09:37:03.018Z</time></trkpt><trkpt lat="43.405059" lon="10.8550787"><ele>502.66666666666663</ele><time>2026-04-04T09:37:06.008Z</time></trkpt><trkpt lat="43.4049975" lon="10.8551563"><ele>504.8333333333333</ele><time>2026-04-04T09:37:08.013Z</time></trkpt><trkpt lat="43.4050321" lon="10.8552541"><ele>507.0</ele><time>2026-04-04T09:37:10.026Z</time></trkpt><trkpt lat="43.4051012" lon="10.8553455"><ele>507.1428571428571</ele><time>2026-04-04T09:37:12.021Z</time></trkpt><trkpt lat="43.4051093" lon="10.8554398"><ele>507.28571428571433</ele><time>2026-04-04T09:37:13.02Z</time></trkpt><trkpt lat="43.4051182" lon="10.8555315"><ele>507.42857142857144</ele><time>2026-04-04T09:37:14.021Z</time></trkpt><trkpt lat="43.4051306" lon="10.8556267"><ele>507.57142857142856</ele><time>2026-04-04T09:37:15.023Z</time></trkpt><trkpt lat="43.4051344" lon="10.8557256"><ele>507.71428571428567</ele><time>2026-04-04T09:37:16.033Z</time></trkpt><trkpt lat="43.4051363" lon="10.8558198"><ele>507.8571428571429</ele><time>2026-04-04T09:37:17.02Z</time></trkpt><trkpt lat="43.4051253" lon="10.8559091"><ele>508.0</ele><time>2026-04-04T09:37:18.028Z</time></trkpt><trkpt lat="43.4051024" lon="10.8560013"><ele>507.1666666666667</ele><time>2026-04-04T09:37:19.029Z</time></trkpt><trkpt lat="43.4050677" lon="10.8560859"><ele>506.33333333333337</ele><time>2026-04-04T09:37:20.043Z</time></trkpt><trkpt lat="43.4050239" lon="10.8561603"><ele>505.5</ele><time>2026-04-04T09:37:21.04Z</time></trkpt><trkpt lat="43.4049741" lon="10.8562376"><ele>504.66666666666663</ele><time>2026-04-04T09:37:22.03Z</time></trkpt><trkpt lat="43.4049214" lon="10.8563086"><ele>503.8333333333333</ele><time>2026-04-04T09:37:23.02Z</time></trkpt><trkpt lat="43.4048723" lon="10.8563933"><ele>503.0</ele><time>2026-04-04T09:37:24.04Z</time></trkpt><trkpt lat="43.4048118" lon="10.8564919"><ele>503.0</ele><time>2026-04-04T09:37:25.032Z</time></trkpt><trkpt lat="43.4047486" lon="10.8565944"><ele>502.99999999999994</ele><time>2026-04-04T09:37:26.024Z</time></trkpt><trkpt lat="43.404687" lon="10.8566998"><ele>502.99999999999994</ele><time>2026-04-04T09:37:27.025Z</time></trkpt><trkpt lat="43.4046236" lon="10.8568055"><ele>503.0</ele><time>2026-04-04T09:37:28.029Z</time></trkpt><trkpt lat="43.4045592" lon="10.8569078"><ele>503.0</ele><time>2026-04-04T09:37:29.024Z</time></trkpt><trkpt lat="43.4045009" lon="10.8570089"><ele>504.4</ele><time>2026-04-04T09:37:30.061Z</time></trkpt><trkpt lat="43.4044479" lon="10.8571107"><ele>505.79999999999995</ele><time>2026-04-04T09:37:31.034Z</time></trkpt><trkpt lat="43.4044047" lon="10.8572171"><ele>507.2</ele><time>2026-04-04T09:37:32.023Z</time></trkpt><trkpt lat="43.4043675" lon="10.8573354"><ele>508.6</ele><time>2026-04-04T09:37:33.022Z</time></trkpt><trkpt lat="43.4043372" lon="10.8574612"><ele>510.0</ele><time>2026-04-04T09:37:34.038Z</time></trkpt><trkpt lat="43.4043083" lon="10.8575823"><ele>508.8333333333333</ele><time>2026-04-04T09:37:35.016Z</time></trkpt><trkpt lat="43.4042766" lon="10.8576918"><ele>507.66666666666663</ele><time>2026-04-04T09:37:36.026Z</time></trkpt><trkpt lat="43.4042511" lon="10.8577954"><ele>506.5</ele><time>2026-04-04T09:37:37.016Z</time></trkpt><trkpt lat="43.4042312" lon="10.857894"><ele>505.3333333333333</ele><time>2026-04-04T09:37:38.007Z</time></trkpt><trkpt lat="43.4042136" lon="10.8579986"><ele>504.16666666666663</ele><time>2026-04-04T09:37:39.019Z</time></trkpt><trkpt lat="43.4041931" lon="10.8581283"><ele>503.0</ele><time>2026-04-04T09:37:40.02Z</time></trkpt><trkpt lat="43.4041801" lon="10.8582831"><ele>503.0</ele><time>2026-04-04T09:37:41.021Z</time></trkpt><trkpt lat="43.4041766" lon="10.8584496"><ele>503.0</ele><time>2026-04-04T09:37:42.037Z</time></trkpt><trkpt lat="43.4041807" lon="10.8586291"><ele>503.0</ele><time>2026-04-04T09:37:43.022Z</time></trkpt><trkpt lat="43.4041788" lon="10.8588053"><ele>503.0</ele><time>2026-04-04T09:37:44.022Z</time></trkpt><trkpt lat="43.4041754" lon="10.8589794"><ele>502.5</ele><time>2026-04-04T09:37:45.015Z</time></trkpt><trkpt lat="43.4041766" lon="10.8591499"><ele>502.0</ele><time>2026-04-04T09:37:46.017Z</time></trkpt><trkpt lat="43.4041767" lon="10.8593115"><ele>501.5</ele><time>2026-04-04T09:37:47.025Z</time></trkpt><trkpt lat="43.4041695" lon="10.8594674"><ele>501.0</ele><time>2026-04-04T09:37:48.022Z</time></trkpt><trkpt lat="43.4041549" lon="10.8596064"><ele>501.0</ele><time>2026-04-04T09:37:49.022Z</time></trkpt><trkpt lat="43.4041427" lon="10.8597325"><ele>501.0</ele><time>2026-04-04T09:37:50.037Z</time></trkpt><trkpt lat="43.4041287" lon="10.8598528"><ele>501.0</ele><time>2026-04-04T09:37:51.023Z</time></trkpt><trkpt lat="43.4041198" lon="10.8599781"><ele>501.0</ele><time>2026-04-04T09:37:52.024Z</time></trkpt><trkpt lat="43.4041124" lon="10.8601074"><ele>501.0</ele><time>2026-04-04T09:37:53.03Z</time></trkpt><trkpt lat="43.4041018" lon="10.8602422"><ele>502.8</ele><time>2026-04-04T09:37:54.019Z</time></trkpt><trkpt lat="43.4040997" lon="10.8603835"><ele>504.6</ele><time>2026-04-04T09:37:55.021Z</time></trkpt><trkpt lat="43.4040999" lon="10.8605262"><ele>506.4</ele><time>2026-04-04T09:37:56.023Z</time></trkpt><trkpt lat="43.4040959" lon="10.8606739"><ele>508.2</ele><time>2026-04-04T09:37:57.018Z</time></trkpt><trkpt lat="43.4040915" lon="10.860817"><ele>510.0</ele><time>2026-04-04T09:37:58.01Z</time></trkpt><trkpt lat="43.4040902" lon="10.8609595"><ele>510.8333333333333</ele><time>2026-04-04T09:37:59.026Z</time></trkpt><trkpt lat="43.4040968" lon="10.8610902"><ele>511.66666666666663</ele><time>2026-04-04T09:38:00.015Z</time></trkpt><trkpt lat="43.4041071" lon="10.8611889"><ele>512.5</ele><time>2026-04-04T09:38:01.019Z</time></trkpt><trkpt lat="43.4041325" lon="10.8612941"><ele>513.3333333333333</ele><time>2026-04-04T09:38:03.013Z</time></trkpt><trkpt lat="43.4042033" lon="10.8613011"><ele>514.1666666666666</ele><time>2026-04-04T09:38:05.022Z</time></trkpt><trkpt lat="43.4042919" lon="10.8612346"><ele>515.0</ele><time>2026-04-04T09:38:07.023Z</time></trkpt><trkpt lat="43.4044053" lon="10.8611602"><ele>515.0</ele><time>2026-04-04T09:38:09.034Z</time></trkpt><trkpt lat="43.4044646" lon="10.8611188"><ele>515.0</ele><time>2026-04-04T09:38:10.034Z</time></trkpt><trkpt lat="43.4045228" lon="10.8610784"><ele>515.0</ele><time>2026-04-04T09:38:11.033Z</time></trkpt><trkpt lat="43.4045897" lon="10.8610401"><ele>515.0</ele><time>2026-04-04T09:38:12.028Z</time></trkpt><trkpt lat="43.4046554" lon="10.8609966"><ele>515.0</ele><time>2026-04-04T09:38:13.017Z</time></trkpt><trkpt lat="43.4047262" lon="10.8609481"><ele>515.0</ele><time>2026-04-04T09:38:14.037Z</time></trkpt><trkpt lat="43.4047968" lon="10.8609013"><ele>515.0</ele><time>2026-04-04T09:38:15.032Z</time></trkpt><trkpt lat="43.4048649" lon="10.8608555"><ele>512.4</ele><time>2026-04-04T09:38:16.032Z</time></trkpt><trkpt lat="43.4049281" lon="10.8608135"><ele>509.8</ele><time>2026-04-04T09:38:17.025Z</time></trkpt><trkpt lat="43.405024" lon="10.8607397"><ele>507.20000000000005</ele><time>2026-04-04T09:38:19.029Z</time></trkpt><trkpt lat="43.4051102" lon="10.8606773"><ele>504.6</ele><time>2026-04-04T09:38:21.024Z</time></trkpt><trkpt lat="43.4052232" lon="10.8606302"><ele>502.0</ele><time>2026-04-04T09:38:23.022Z</time></trkpt><trkpt lat="43.4052867" lon="10.8606102"><ele>502.0</ele><time>2026-04-04T09:38:24.03Z</time></trkpt><trkpt lat="43.4053964" lon="10.8605792"><ele>502.00000000000006</ele><time>2026-04-04T09:38:26.049Z</time></trkpt><trkpt lat="43.4055017" lon="10.8605775"><ele>502.00000000000006</ele><time>2026-04-04T09:38:28.036Z</time></trkpt><trkpt lat="43.4055939" lon="10.8606123"><ele>502.0</ele><time>2026-04-04T09:38:30.016Z</time></trkpt><trkpt lat="43.4056907" lon="10.8606983"><ele>502.0</ele><time>2026-04-04T09:38:32.027Z</time></trkpt><trkpt lat="43.4057782" lon="10.8608069"><ele>500.6666666666667</ele><time>2026-04-04T09:38:34.039Z</time></trkpt><trkpt lat="43.405868" lon="10.8609033"><ele>499.33333333333337</ele><time>2026-04-04T09:38:36.035Z</time></trkpt><trkpt lat="43.4059287" lon="10.8609445"><ele>498.0</ele><time>2026-04-04T09:38:37.017Z</time></trkpt><trkpt lat="43.4059925" lon="10.8609754"><ele>496.66666666666663</ele><time>2026-04-04T09:38:38.03Z</time></trkpt><trkpt lat="43.4060602" lon="10.8609908"><ele>495.3333333333333</ele><time>2026-04-04T09:38:39.041Z</time></trkpt><trkpt lat="43.4061329" lon="10.8609945"><ele>494.0</ele><time>2026-04-04T09:38:40.031Z</time></trkpt><trkpt lat="43.4062042" lon="10.8609772"><ele>493.99999999999994</ele><time>2026-04-04T09:38:41.027Z</time></trkpt><trkpt lat="43.4062801" lon="10.860949"><ele>494.0</ele><time>2026-04-04T09:38:42.046Z</time></trkpt><trkpt lat="43.4063497" lon="10.8609033"><ele>494.0</ele><time>2026-04-04T09:38:43.028Z</time></trkpt><trkpt lat="43.4064098" lon="10.8608292"><ele>494.0</ele><time>2026-04-04T09:38:44.025Z</time></trkpt><trkpt lat="43.4064645" lon="10.860739"><ele>493.99999999999994</ele><time>2026-04-04T09:38:45.035Z</time></trkpt><trkpt lat="43.4065269" lon="10.8606225"><ele>494.0</ele><time>2026-04-04T09:38:46.03Z</time></trkpt><trkpt lat="43.4066017" lon="10.8604941"><ele>492.0</ele><time>2026-04-04T09:38:47.029Z</time></trkpt><trkpt lat="43.4066869" lon="10.8603686"><ele>490.0</ele><time>2026-04-04T09:38:48.018Z</time></trkpt><trkpt lat="43.4067744" lon="10.8602361"><ele>488.0</ele><time>2026-04-04T09:38:49.006Z</time></trkpt><trkpt lat="43.4068574" lon="10.860103"><ele>486.0</ele><time>2026-04-04T09:38:50.027Z</time></trkpt><trkpt lat="43.4069362" lon="10.8599745"><ele>486.0</ele><time>2026-04-04T09:38:51.046Z</time></trkpt><trkpt lat="43.4070129" lon="10.8598549"><ele>486.0</ele><time>2026-04-04T09:38:52.047Z</time></trkpt><trkpt lat="43.4070943" lon="10.8597608"><ele>486.0</ele><time>2026-04-04T09:38:53.034Z</time></trkpt><trkpt lat="43.4071859" lon="10.859722"><ele>486.0</ele><time>2026-04-04T09:38:54.029Z</time></trkpt><trkpt lat="43.4072739" lon="10.8597227"><ele>486.0</ele><time>2026-04-04T09:38:55.006Z</time></trkpt><trkpt lat="43.4073595" lon="10.8597534"><ele>484.0</ele><time>2026-04-04T09:38:56.021Z</time></trkpt><trkpt lat="43.4074305" lon="10.8598223"><ele>482.0</ele><time>2026-04-04T09:38:57.031Z</time></trkpt><trkpt lat="43.4074946" lon="10.8599242"><ele>480.0</ele><time>2026-04-04T09:38:58.027Z</time></trkpt><trkpt lat="43.4075329" lon="10.8600559"><ele>478.0</ele><time>2026-04-04T09:38:59.014Z</time></trkpt><trkpt lat="43.4075309" lon="10.8601952"><ele>476.0</ele><time>2026-04-04T09:39:00.024Z</time></trkpt><trkpt lat="43.4074989" lon="10.8603314"><ele>475.75</ele><time>2026-04-04T09:39:01.02Z</time></trkpt><trkpt lat="43.4074439" lon="10.8604738"><ele>475.5</ele><time>2026-04-04T09:39:02.025Z</time></trkpt><trkpt lat="43.4073788" lon="10.8606201"><ele>475.25</ele><time>2026-04-04T09:39:03.014Z</time></trkpt><trkpt lat="43.4073167" lon="10.8607544"><ele>475.0</ele><time>2026-04-04T09:39:04.012Z</time></trkpt><trkpt lat="43.4072551" lon="10.8608772"><ele>472.6</ele><time>2026-04-04T09:39:05.023Z</time></trkpt><trkpt lat="43.4072129" lon="10.860967"><ele>470.2</ele><time>2026-04-04T09:39:06.028Z</time></trkpt><trkpt lat="43.4071684" lon="10.8611118"><ele>467.79999999999995</ele><time>2026-04-04T09:39:08.036Z</time></trkpt><trkpt lat="43.4072556" lon="10.8612039"><ele>465.4</ele><time>2026-04-04T09:39:10.017Z</time></trkpt><trkpt lat="43.407326" lon="10.8612402"><ele>463.0</ele><time>2026-04-04T09:39:11.012Z</time></trkpt><trkpt lat="43.4074086" lon="10.8612881"><ele>463.0</ele><time>2026-04-04T09:39:12.022Z</time></trkpt><trkpt lat="43.4074893" lon="10.8613385"><ele>462.99999999999994</ele><time>2026-04-04T09:39:13.02Z</time></trkpt><trkpt lat="43.4075723" lon="10.8613969"><ele>462.99999999999994</ele><time>2026-04-04T09:39:14.078Z</time></trkpt><trkpt lat="43.4076521" lon="10.8614709"><ele>463.0</ele><time>2026-04-04T09:39:15.032Z</time></trkpt><trkpt lat="43.4077414" lon="10.8615444"><ele>463.0</ele><time>2026-04-04T09:39:16.019Z</time></trkpt><trkpt lat="43.4078334" lon="10.8616224"><ele>463.0</ele><time>2026-04-04T09:39:17.021Z</time></trkpt><trkpt lat="43.4079242" lon="10.8617055"><ele>462.99999999999994</ele><time>2026-04-04T09:39:18.035Z</time></trkpt><trkpt lat="43.4080153" lon="10.8617774"><ele>462.99999999999994</ele><time>2026-04-04T09:39:19.019Z</time></trkpt><trkpt lat="43.4080973" lon="10.8618549"><ele>463.0</ele><time>2026-04-04T09:39:20.011Z</time></trkpt><trkpt lat="43.4081869" lon="10.861933"><ele>463.0</ele><time>2026-04-04T09:39:21.023Z</time></trkpt><trkpt lat="43.4082729" lon="10.8620161"><ele>462.00000000000006</ele><time>2026-04-04T09:39:22.032Z</time></trkpt><trkpt lat="43.4083493" lon="10.8620935"><ele>461.0</ele><time>2026-04-04T09:39:23.02Z</time></trkpt><trkpt lat="43.4084247" lon="10.8621714"><ele>460.0</ele><time>2026-04-04T09:39:24.029Z</time></trkpt><trkpt lat="43.4084915" lon="10.8622449"><ele>459.0</ele><time>2026-04-04T09:39:25.029Z</time></trkpt><trkpt lat="43.4085526" lon="10.8623202"><ele>458.00000000000006</ele><time>2026-04-04T09:39:26.058Z</time></trkpt><trkpt lat="43.4085979" lon="10.8624079"><ele>457.0</ele><time>2026-04-04T09:39:27.028Z</time></trkpt><trkpt lat="43.4086384" lon="10.8625064"><ele>453.0</ele><time>2026-04-04T09:39:28.043Z</time></trkpt><trkpt lat="43.4086731" lon="10.8626323"><ele>449.00000000000006</ele><time>2026-04-04T09:39:29.011Z</time></trkpt><trkpt lat="43.4087047" lon="10.8627676"><ele>445.00000000000006</ele><time>2026-04-04T09:39:30.031Z</time></trkpt><trkpt lat="43.4087399" lon="10.8629017"><ele>441.0</ele><time>2026-04-04T09:39:31.012Z</time></trkpt><trkpt lat="43.4087661" lon="10.8630254"><ele>437.0</ele><time>2026-04-04T09:39:32.038Z</time></trkpt><trkpt lat="43.4087904" lon="10.8631358"><ele>436.99999999999994</ele><time>2026-04-04T09:39:33.017Z</time></trkpt><trkpt lat="43.4088185" lon="10.8632403"><ele>437.0</ele><time>2026-04-04T09:39:34.04Z</time></trkpt><trkpt lat="43.4088465" lon="10.8633296"><ele>437.0</ele><time>2026-04-04T09:39:35.022Z</time></trkpt><trkpt lat="43.4088752" lon="10.8634142"><ele>437.0</ele><time>2026-04-04T09:39:36.036Z</time></trkpt><trkpt lat="43.4089241" lon="10.8635536"><ele>436.99999999999994</ele><time>2026-04-04T09:39:38.01Z</time></trkpt><trkpt lat="43.4089631" lon="10.8636707"><ele>437.0</ele><time>2026-04-04T09:39:40.029Z</time></trkpt><trkpt lat="43.4090238" lon="10.8637693"><ele>435.8333333333333</ele><time>2026-04-04T09:39:42.025Z</time></trkpt><trkpt lat="43.4091006" lon="10.8637924"><ele>434.66666666666663</ele><time>2026-04-04T09:39:44.027Z</time></trkpt><trkpt lat="43.4091817" lon="10.8637978"><ele>433.5</ele><time>2026-04-04T09:39:46.024Z</time></trkpt><trkpt lat="43.4092679" lon="10.8638217"><ele>432.33333333333337</ele><time>2026-04-04T09:39:48.022Z</time></trkpt><trkpt lat="43.4093387" lon="10.8638275"><ele>431.1666666666667</ele><time>2026-04-04T09:39:50.044Z</time></trkpt><trkpt lat="43.409419" lon="10.8638269"><ele>430.0</ele><time>2026-04-04T09:39:52.028Z</time></trkpt><trkpt lat="43.4094874" lon="10.8638425"><ele>430.00000000000006</ele><time>2026-04-04T09:39:54.024Z</time></trkpt><trkpt lat="43.4095736" lon="10.8638419"><ele>430.0</ele><time>2026-04-04T09:39:57.024Z</time></trkpt><trkpt lat="43.4096378" lon="10.8637955"><ele>430.0</ele><time>2026-04-04T09:41:14.048Z</time></trkpt><trkpt lat="43.4096908" lon="10.8637214"><ele>430.0</ele><time>2026-04-04T09:41:17.024Z</time></trkpt><trkpt lat="43.4097644" lon="10.8635928"><ele>430.00000000000006</ele><time>2026-04-04T09:41:19.013Z</time></trkpt><trkpt lat="43.4098111" lon="10.8635082"><ele>430.0</ele><time>2026-04-04T09:41:19.999Z</time></trkpt><trkpt lat="43.4098653" lon="10.863416"><ele>433.0</ele><time>2026-04-04T09:41:21.023Z</time></trkpt><trkpt lat="43.4099277" lon="10.8633214"><ele>436.0</ele><time>2026-04-04T09:41:22.039Z</time></trkpt><trkpt lat="43.4099981" lon="10.8632264"><ele>439.0</ele><time>2026-04-04T09:41:23.037Z</time></trkpt><trkpt lat="43.4100758" lon="10.8631313"><ele>442.0</ele><time>2026-04-04T09:41:24.057Z</time></trkpt><trkpt lat="43.4101535" lon="10.8630352"><ele>445.0</ele><time>2026-04-04T09:41:25.019Z</time></trkpt><trkpt lat="43.4102347" lon="10.862952"><ele>445.0</ele><time>2026-04-04T09:41:26.036Z</time></trkpt><trkpt lat="43.4103254" lon="10.8628963"><ele>445.0</ele><time>2026-04-04T09:41:27.025Z</time></trkpt><trkpt lat="43.4104229" lon="10.8628806"><ele>445.0</ele><time>2026-04-04T09:41:28.035Z</time></trkpt><trkpt lat="43.4105135" lon="10.8629075"><ele>445.0</ele><time>2026-04-04T09:41:29.025Z</time></trkpt><trkpt lat="43.4106077" lon="10.8629582"><ele>445.0</ele><time>2026-04-04T09:41:30.021Z</time></trkpt><trkpt lat="43.4107075" lon="10.8630543"><ele>442.5</ele><time>2026-04-04T09:41:31.022Z</time></trkpt><trkpt lat="43.4108145" lon="10.8631748"><ele>440.0</ele><time>2026-04-04T09:41:32.038Z</time></trkpt><trkpt lat="43.4109242" lon="10.8633031"><ele>437.5</ele><time>2026-04-04T09:41:33.034Z</time></trkpt><trkpt lat="43.4110309" lon="10.8634264"><ele>435.0</ele><time>2026-04-04T09:41:34.027Z</time></trkpt><trkpt lat="43.4111332" lon="10.8635501"><ele>435.0</ele><time>2026-04-04T09:41:35.025Z</time></trkpt><trkpt lat="43.4112315" lon="10.8636828"><ele>435.0</ele><time>2026-04-04T09:41:36.047Z</time></trkpt><trkpt lat="43.4113162" lon="10.8638293"><ele>435.0</ele><time>2026-04-04T09:41:37.026Z</time></trkpt><trkpt lat="43.4113918" lon="10.8639808"><ele>435.0</ele><time>2026-04-04T09:41:38.05Z</time></trkpt><trkpt lat="43.4114723" lon="10.864114"><ele>431.8</ele><time>2026-04-04T09:41:39.039Z</time></trkpt><trkpt lat="43.4115628" lon="10.8642141"><ele>428.6</ele><time>2026-04-04T09:41:40.029Z</time></trkpt><trkpt lat="43.4116631" lon="10.8642782"><ele>425.4</ele><time>2026-04-04T09:41:41.026Z</time></trkpt><trkpt lat="43.4117651" lon="10.8643152"><ele>422.2</ele><time>2026-04-04T09:41:42.03Z</time></trkpt><trkpt lat="43.4118737" lon="10.8643311"><ele>419.0</ele><time>2026-04-04T09:41:43.031Z</time></trkpt><trkpt lat="43.4119891" lon="10.8643233"><ele>419.0</ele><time>2026-04-04T09:41:44.026Z</time></trkpt><trkpt lat="43.4121163" lon="10.864305"><ele>419.0</ele><time>2026-04-04T09:41:45.024Z</time></trkpt><trkpt lat="43.4122552" lon="10.8642838"><ele>419.0</ele><time>2026-04-04T09:41:46.021Z</time></trkpt><trkpt lat="43.4123948" lon="10.8642501"><ele>419.0</ele><time>2026-04-04T09:41:47.026Z</time></trkpt><trkpt lat="43.4125278" lon="10.8642128"><ele>415.25</ele><time>2026-04-04T09:41:48.033Z</time></trkpt><trkpt lat="43.4126626" lon="10.8641797"><ele>411.5</ele><time>2026-04-04T09:41:49.029Z</time></trkpt><trkpt lat="43.4127957" lon="10.8641637"><ele>407.75</ele><time>2026-04-04T09:41:50.032Z</time></trkpt><trkpt lat="43.4129274" lon="10.864166"><ele>404.0</ele><time>2026-04-04T09:41:51.014Z</time></trkpt><trkpt lat="43.4130651" lon="10.8641903"><ele>402.75</ele><time>2026-04-04T09:41:52.029Z</time></trkpt><trkpt lat="43.4132032" lon="10.8642288"><ele>401.5</ele><time>2026-04-04T09:41:53.027Z</time></trkpt><trkpt lat="43.4133404" lon="10.8642554"><ele>400.25</ele><time>2026-04-04T09:41:54.039Z</time></trkpt><trkpt lat="43.4134689" lon="10.8642925"><ele>399.0</ele><time>2026-04-04T09:41:55.021Z</time></trkpt><trkpt lat="43.4135947" lon="10.8643392"><ele>399.0</ele><time>2026-04-04T09:41:56.046Z</time></trkpt><trkpt lat="43.4137242" lon="10.8643802"><ele>399.0</ele><time>2026-04-04T09:41:57.023Z</time></trkpt><trkpt lat="43.4138587" lon="10.864412"><ele>399.0</ele><time>2026-04-04T09:41:58.033Z</time></trkpt><trkpt lat="43.4139984" lon="10.8644337"><ele>399.0</ele><time>2026-04-04T09:41:59.02Z</time></trkpt><trkpt lat="43.4141444" lon="10.8644565"><ele>397.25</ele><time>2026-04-04T09:42:00.045Z</time></trkpt><trkpt lat="43.414293" lon="10.8644765"><ele>395.5</ele><time>2026-04-04T09:42:01.017Z</time></trkpt><trkpt lat="43.4144335" lon="10.8644874"><ele>393.75</ele><time>2026-04-04T09:42:02.03Z</time></trkpt><trkpt lat="43.4145675" lon="10.8644987"><ele>392.0</ele><time>2026-04-04T09:42:03.02Z</time></trkpt><trkpt lat="43.4146991" lon="10.8645104"><ele>391.0</ele><time>2026-04-04T09:42:04.03Z</time></trkpt><trkpt lat="43.4148245" lon="10.8645229"><ele>390.0</ele><time>2026-04-04T09:42:05.026Z</time></trkpt><trkpt lat="43.4149464" lon="10.864531"><ele>389.0</ele><time>2026-04-04T09:42:06.056Z</time></trkpt><trkpt lat="43.4150688" lon="10.8645342"><ele>388.0</ele><time>2026-04-04T09:42:07.022Z</time></trkpt><trkpt lat="43.4151988" lon="10.8645475"><ele>388.0</ele><time>2026-04-04T09:42:08.038Z</time></trkpt><trkpt lat="43.4153253" lon="10.8645625"><ele>388.0</ele><time>2026-04-04T09:42:09.015Z</time></trkpt><trkpt lat="43.4154478" lon="10.8645776"><ele>388.0</ele><time>2026-04-04T09:42:10.036Z</time></trkpt><trkpt lat="43.4155647" lon="10.864603"><ele>388.0</ele><time>2026-04-04T09:42:11.023Z</time></trkpt><trkpt lat="43.4156747" lon="10.8646536"><ele>384.0</ele><time>2026-04-04T09:42:12.028Z</time></trkpt><trkpt lat="43.4157758" lon="10.8647426"><ele>380.0</ele><time>2026-04-04T09:42:13.031Z</time></trkpt><trkpt lat="43.4158755" lon="10.8648625"><ele>376.0</ele><time>2026-04-04T09:42:14.037Z</time></trkpt><trkpt lat="43.4159815" lon="10.8649847"><ele>372.0</ele><time>2026-04-04T09:42:15.019Z</time></trkpt><trkpt lat="43.4160933" lon="10.8651038"><ele>370.5</ele><time>2026-04-04T09:42:16.043Z</time></trkpt><trkpt lat="43.4162049" lon="10.865223"><ele>369.0</ele><time>2026-04-04T09:42:17.011Z</time></trkpt><trkpt lat="43.4163166" lon="10.8653419"><ele>367.5</ele><time>2026-04-04T09:42:18.025Z</time></trkpt><trkpt lat="43.4164293" lon="10.8654585"><ele>366.0</ele><time>2026-04-04T09:42:19.025Z</time></trkpt><trkpt lat="43.4165348" lon="10.86557"><ele>363.5</ele><time>2026-04-04T09:42:20.03Z</time></trkpt><trkpt lat="43.4166262" lon="10.86567"><ele>361.0</ele><time>2026-04-04T09:42:21.024Z</time></trkpt><trkpt lat="43.4167081" lon="10.865748"><ele>358.5</ele><time>2026-04-04T09:42:22.03Z</time></trkpt><trkpt lat="43.4167859" lon="10.865796"><ele>356.0</ele><time>2026-04-04T09:42:23.027Z</time></trkpt><trkpt lat="43.4168564" lon="10.865779"><ele>353.5</ele><time>2026-04-04T09:42:24.026Z</time></trkpt><trkpt lat="43.4169093" lon="10.8657095"><ele>351.0</ele><time>2026-04-04T09:42:25.033Z</time></trkpt><trkpt lat="43.4169212" lon="10.8656223"><ele>351.0</ele><time>2026-04-04T09:42:26.027Z</time></trkpt><trkpt lat="43.4168919" lon="10.865539"><ele>351.0</ele><time>2026-04-04T09:42:27.021Z</time></trkpt><trkpt lat="43.4168294" lon="10.8654792"><ele>351.0</ele><time>2026-04-04T09:42:28.038Z</time></trkpt><trkpt lat="43.4167612" lon="10.8654405"><ele>351.0</ele><time>2026-04-04T09:42:29.025Z</time></trkpt><trkpt lat="43.4166907" lon="10.8654091"><ele>351.0</ele><time>2026-04-04T09:42:30.023Z</time></trkpt><trkpt lat="43.4166263" lon="10.8653663"><ele>351.0</ele><time>2026-04-04T09:42:31.023Z</time></trkpt><trkpt lat="43.4165572" lon="10.8652634"><ele>351.0</ele><time>2026-04-04T09:42:33.019Z</time></trkpt><trkpt lat="43.4165947" lon="10.8651734"><ele>351.0</ele><time>2026-04-04T09:42:35.019Z</time></trkpt><trkpt lat="43.4166984" lon="10.8651618"><ele>351.0</ele><time>2026-04-04T09:42:37.025Z</time></trkpt><trkpt lat="43.4167676" lon="10.8651986"><ele>351.0</ele><time>2026-04-04T09:42:38.027Z</time></trkpt><trkpt lat="43.4168361" lon="10.8652436"><ele>351.0</ele><time>2026-04-04T09:42:39.032Z</time></trkpt><trkpt lat="43.4169072" lon="10.8652944"><ele>351.0</ele><time>2026-04-04T09:42:40.038Z</time></trkpt><trkpt lat="43.4169698" lon="10.8653618"><ele>351.0</ele><time>2026-04-04T09:42:41.029Z</time></trkpt><trkpt lat="43.4170296" lon="10.8654446"><ele>351.0</ele><time>2026-04-04T09:42:42.031Z</time></trkpt><trkpt lat="43.4170805" lon="10.8655372"><ele>351.0</ele><time>2026-04-04T09:42:43.026Z</time></trkpt><trkpt lat="43.4171171" lon="10.8656324"><ele>351.0</ele><time>2026-04-04T09:42:44.04Z</time></trkpt><trkpt lat="43.4171337" lon="10.8657296"><ele>351.0</ele><time>2026-04-04T09:42:45.027Z</time></trkpt><trkpt lat="43.4171293" lon="10.8658244"><ele>351.0</ele><time>2026-04-04T09:42:46.015Z</time></trkpt><trkpt lat="43.4171076" lon="10.8659101"><ele>347.6666666666667</ele><time>2026-04-04T09:42:47.017Z</time></trkpt><trkpt lat="43.4170661" lon="10.8659966"><ele>344.3333333333333</ele><time>2026-04-04T09:42:48.022Z</time></trkpt><trkpt lat="43.4170009" lon="10.8660599"><ele>341.0</ele><time>2026-04-04T09:42:49.026Z</time></trkpt><trkpt lat="43.4169227" lon="10.8661173"><ele>337.66666666666663</ele><time>2026-04-04T09:42:50.029Z</time></trkpt><trkpt lat="43.4168338" lon="10.866161"><ele>334.3333333333333</ele><time>2026-04-04T09:42:51.022Z</time></trkpt><trkpt lat="43.416738" lon="10.8661937"><ele>331.0</ele><time>2026-04-04T09:42:52.029Z</time></trkpt><trkpt lat="43.4166379" lon="10.8662156"><ele>331.0</ele><time>2026-04-04T09:42:53.026Z</time></trkpt><trkpt lat="43.4165346" lon="10.8662372"><ele>331.0</ele><time>2026-04-04T09:42:54.017Z</time></trkpt><trkpt lat="43.4164284" lon="10.8662678"><ele>331.0</ele><time>2026-04-04T09:42:55.017Z</time></trkpt><trkpt lat="43.416322" lon="10.8663205"><ele>331.0</ele><time>2026-04-04T09:42:56.021Z</time></trkpt><trkpt lat="43.4162238" lon="10.8663825"><ele>331.0</ele><time>2026-04-04T09:42:57.023Z</time></trkpt><trkpt lat="43.4161413" lon="10.8664522"><ele>332.8333333333333</ele><time>2026-04-04T09:42:58.037Z</time></trkpt><trkpt lat="43.4160622" lon="10.8665273"><ele>334.66666666666663</ele><time>2026-04-04T09:42:59.019Z</time></trkpt><trkpt lat="43.4159889" lon="10.8665993"><ele>336.5</ele><time>2026-04-04T09:43:00.031Z</time></trkpt><trkpt lat="43.4159416" lon="10.8666779"><ele>338.3333333333333</ele><time>2026-04-04T09:43:01.021Z</time></trkpt><trkpt lat="43.4159241" lon="10.8667659"><ele>340.1666666666667</ele><time>2026-04-04T09:43:02.024Z</time></trkpt><trkpt lat="43.4159746" lon="10.8669104"><ele>342.0</ele><time>2026-04-04T09:43:04.045Z</time></trkpt><trkpt lat="43.4160475" lon="10.8669645"><ele>342.0</ele><time>2026-04-04T09:43:05.017Z</time></trkpt><trkpt lat="43.4161558" lon="10.8670019"><ele>342.0</ele><time>2026-04-04T09:43:06.019Z</time></trkpt><trkpt lat="43.4162804" lon="10.8670433"><ele>342.0</ele><time>2026-04-04T09:43:07.02Z</time></trkpt><trkpt lat="43.416416" lon="10.8670867"><ele>342.0</ele><time>2026-04-04T09:43:08.018Z</time></trkpt><trkpt lat="43.4165572" lon="10.8671327"><ele>339.3333333333333</ele><time>2026-04-04T09:43:09.017Z</time></trkpt><trkpt lat="43.4167091" lon="10.8671784"><ele>336.66666666666663</ele><time>2026-04-04T09:43:10.008Z</time></trkpt><trkpt lat="43.4168664" lon="10.8672284"><ele>334.0</ele><time>2026-04-04T09:43:11.018Z</time></trkpt><trkpt lat="43.4170123" lon="10.8672855"><ele>334.0</ele><time>2026-04-04T09:43:12.011Z</time></trkpt><trkpt lat="43.4171492" lon="10.8673641"><ele>334.0</ele><time>2026-04-04T09:43:13.013Z</time></trkpt><trkpt lat="43.4172781" lon="10.867472"><ele>334.0</ele><time>2026-04-04T09:43:14.014Z</time></trkpt><trkpt lat="43.4174063" lon="10.8676032"><ele>324.66666666666663</ele><time>2026-04-04T09:43:15.021Z</time></trkpt><trkpt lat="43.4175235" lon="10.8677476"><ele>315.3333333333333</ele><time>2026-04-04T09:43:16.01Z</time></trkpt><trkpt lat="43.4176323" lon="10.867896"><ele>306.0</ele><time>2026-04-04T09:43:17.011Z</time></trkpt><trkpt lat="43.4177527" lon="10.8680177"><ele>306.0</ele><time>2026-04-04T09:43:18.023Z</time></trkpt><trkpt lat="43.4178925" lon="10.8681105"><ele>306.0</ele><time>2026-04-04T09:43:19.028Z</time></trkpt><trkpt lat="43.4180474" lon="10.8681618"><ele>306.0</ele><time>2026-04-04T09:43:20.005Z</time></trkpt><trkpt lat="43.4182013" lon="10.8682002"><ele>305.3333333333333</ele><time>2026-04-04T09:43:21.027Z</time></trkpt><trkpt lat="43.4183589" lon="10.8682279"><ele>304.66666666666663</ele><time>2026-04-04T09:43:22.013Z</time></trkpt><trkpt lat="43.4185208" lon="10.8682353"><ele>304.0</ele><time>2026-04-04T09:43:23.032Z</time></trkpt><trkpt lat="43.4186816" lon="10.8682238"><ele>304.0</ele><time>2026-04-04T09:43:24.034Z</time></trkpt><trkpt lat="43.4188413" lon="10.8682123"><ele>304.0</ele><time>2026-04-04T09:43:25.024Z</time></trkpt><trkpt lat="43.4190029" lon="10.8682036"><ele>304.0</ele><time>2026-04-04T09:43:26.038Z</time></trkpt><trkpt lat="43.419161" lon="10.8682124"><ele>304.0</ele><time>2026-04-04T09:43:27.02Z</time></trkpt><trkpt lat="43.4193117" lon="10.8682629"><ele>304.0</ele><time>2026-04-04T09:43:28.025Z</time></trkpt><trkpt lat="43.4194484" lon="10.8683244"><ele>304.0</ele><time>2026-04-04T09:43:29.025Z</time></trkpt><trkpt lat="43.4195785" lon="10.8683686"><ele>304.0</ele><time>2026-04-04T09:43:30.036Z</time></trkpt><trkpt lat="43.4196979" lon="10.8683734"><ele>302.8</ele><time>2026-04-04T09:43:31.02Z</time></trkpt><trkpt lat="43.4198079" lon="10.8683248"><ele>301.59999999999997</ele><time>2026-04-04T09:43:32.037Z</time></trkpt><trkpt lat="43.4198956" lon="10.8682392"><ele>300.4</ele><time>2026-04-04T09:43:33.028Z</time></trkpt><trkpt lat="43.4199524" lon="10.8681069"><ele>299.2</ele><time>2026-04-04T09:43:34.027Z</time></trkpt><trkpt lat="43.4199696" lon="10.8679519"><ele>298.0</ele><time>2026-04-04T09:43:35.02Z</time></trkpt><trkpt lat="43.4199775" lon="10.8677668"><ele>297.25</ele><time>2026-04-04T09:43:36.026Z</time></trkpt><trkpt lat="43.4199845" lon="10.8675742"><ele>296.5</ele><time>2026-04-04T09:43:37.013Z</time></trkpt><trkpt lat="43.4199949" lon="10.8673897"><ele>295.75</ele><time>2026-04-04T09:43:38.04Z</time></trkpt><trkpt lat="43.4200089" lon="10.8672228"><ele>295.0</ele><time>2026-04-04T09:43:39.026Z</time></trkpt><trkpt lat="43.4200274" lon="10.8670744"><ele>295.0</ele><time>2026-04-04T09:43:40.035Z</time></trkpt><trkpt lat="43.4200695" lon="10.8669609"><ele>295.0</ele><time>2026-04-04T09:43:41.022Z</time></trkpt><trkpt lat="43.420149" lon="10.8668986"><ele>295.0</ele><time>2026-04-04T09:43:42.032Z</time></trkpt><trkpt lat="43.4202433" lon="10.8669059"><ele>295.0</ele><time>2026-04-04T09:43:43.02Z</time></trkpt><trkpt lat="43.4203293" lon="10.8669696"><ele>295.0</ele><time>2026-04-04T09:43:44.033Z</time></trkpt><trkpt lat="43.4203937" lon="10.8670651"><ele>295.0</ele><time>2026-04-04T09:43:45.024Z</time></trkpt><trkpt lat="43.420422" lon="10.8671988"><ele>295.0</ele><time>2026-04-04T09:43:46.06Z</time></trkpt><trkpt lat="43.420394" lon="10.8673408"><ele>295.0</ele><time>2026-04-04T09:43:47.028Z</time></trkpt><trkpt lat="43.4203364" lon="10.867498"><ele>295.0</ele><time>2026-04-04T09:43:48.011Z</time></trkpt><trkpt lat="43.4202877" lon="10.867676"><ele>295.75</ele><time>2026-04-04T09:43:49.017Z</time></trkpt><trkpt lat="43.4202733" lon="10.8678683"><ele>296.5</ele><time>2026-04-04T09:43:50.025Z</time></trkpt><trkpt lat="43.420288" lon="10.8680731"><ele>297.25</ele><time>2026-04-04T09:43:51.033Z</time></trkpt><trkpt lat="43.4203202" lon="10.8682677"><ele>298.0</ele><time>2026-04-04T09:43:52.027Z</time></trkpt><trkpt lat="43.4203679" lon="10.8684216"><ele>298.0</ele><time>2026-04-04T09:43:53.013Z</time></trkpt><trkpt lat="43.4204144" lon="10.8685245"><ele>298.0</ele><time>2026-04-04T09:43:54.041Z</time></trkpt><trkpt lat="43.4204771" lon="10.8685724"><ele>298.0</ele><time>2026-04-04T09:43:55.024Z</time></trkpt><trkpt lat="43.4205354" lon="10.8684562"><ele>298.0</ele><time>2026-04-04T09:43:57.015Z</time></trkpt><trkpt lat="43.4205179" lon="10.8683297"><ele>298.0</ele><time>2026-04-04T09:43:58.034Z</time></trkpt><trkpt lat="43.4204529" lon="10.8681868"><ele>298.0</ele><time>2026-04-04T09:43:59.021Z</time></trkpt><trkpt lat="43.4204398" lon="10.8680295"><ele>298.0</ele><time>2026-04-04T09:44:00.029Z</time></trkpt><trkpt lat="43.4204713" lon="10.8678747"><ele>298.0</ele><time>2026-04-04T09:44:01.025Z</time></trkpt><trkpt lat="43.4205457" lon="10.8677384"><ele>298.0</ele><time>2026-04-04T09:44:02.02Z</time></trkpt><trkpt lat="43.4206344" lon="10.8676142"><ele>293.0</ele><time>2026-04-04T09:44:03.033Z</time></trkpt><trkpt lat="43.4207431" lon="10.8675303"><ele>288.0</ele><time>2026-04-04T09:44:04.016Z</time></trkpt><trkpt lat="43.4208701" lon="10.8674865"><ele>283.0</ele><time>2026-04-04T09:44:05.036Z</time></trkpt><trkpt lat="43.4210156" lon="10.8674559"><ele>278.0</ele><time>2026-04-04T09:44:06.036Z</time></trkpt><trkpt lat="43.4211675" lon="10.8673971"><ele>278.0</ele><time>2026-04-04T09:44:07.031Z</time></trkpt><trkpt lat="43.4213011" lon="10.867309"><ele>278.0</ele><time>2026-04-04T09:44:08.043Z</time></trkpt><trkpt lat="43.4214151" lon="10.8672012"><ele>278.0</ele><time>2026-04-04T09:44:09.013Z</time></trkpt><trkpt lat="43.4214933" lon="10.867088"><ele>278.0</ele><time>2026-04-04T09:44:10.021Z</time></trkpt><trkpt lat="43.4215384" lon="10.8669657"><ele>274.0</ele><time>2026-04-04T09:44:11.014Z</time></trkpt><trkpt lat="43.4215633" lon="10.8667867"><ele>270.0</ele><time>2026-04-04T09:44:12.032Z</time></trkpt><trkpt lat="43.4215643" lon="10.8665831"><ele>266.0</ele><time>2026-04-04T09:44:13.019Z</time></trkpt><trkpt lat="43.4215624" lon="10.8664136"><ele>262.0</ele><time>2026-04-04T09:44:14.028Z</time></trkpt><trkpt lat="43.4215291" lon="10.8662735"><ele>262.0</ele><time>2026-04-04T09:44:15.025Z</time></trkpt><trkpt lat="43.4214845" lon="10.8661459"><ele>262.0</ele><time>2026-04-04T09:44:16.04Z</time></trkpt><trkpt lat="43.4214544" lon="10.86605"><ele>262.0</ele><time>2026-04-04T09:44:17.04Z</time></trkpt><trkpt lat="43.4215222" lon="10.8659218"><ele>262.0</ele><time>2026-04-04T09:44:19.023Z</time></trkpt><trkpt lat="43.4215861" lon="10.8659092"><ele>262.0</ele><time>2026-04-04T09:44:20.055Z</time></trkpt><trkpt lat="43.421649" lon="10.8659565"><ele>262.0</ele><time>2026-04-04T09:44:21.024Z</time></trkpt><trkpt lat="43.4217031" lon="10.8660483"><ele>262.0</ele><time>2026-04-04T09:44:22.033Z</time></trkpt><trkpt lat="43.4217645" lon="10.8661859"><ele>262.0</ele><time>2026-04-04T09:44:23.018Z</time></trkpt><trkpt lat="43.4218354" lon="10.866359"><ele>262.0</ele><time>2026-04-04T09:44:24.021Z</time></trkpt><trkpt lat="43.4219114" lon="10.8665351"><ele>262.0</ele><time>2026-04-04T09:44:25.043Z</time></trkpt><trkpt lat="43.4219755" lon="10.8667163"><ele>261.3333333333333</ele><time>2026-04-04T09:44:26.034Z</time></trkpt><trkpt lat="43.4220288" lon="10.8669012"><ele>260.6666666666667</ele><time>2026-04-04T09:44:27.019Z</time></trkpt><trkpt lat="43.4220684" lon="10.8671147"><ele>260.0</ele><time>2026-04-04T09:44:28.026Z</time></trkpt><trkpt lat="43.4220896" lon="10.8673441"><ele>260.0</ele><time>2026-04-04T09:44:29.02Z</time></trkpt><trkpt lat="43.4221056" lon="10.8675509"><ele>260.0</ele><time>2026-04-04T09:44:30.019Z</time></trkpt><trkpt lat="43.4221202" lon="10.8677351"><ele>260.0</ele><time>2026-04-04T09:44:31.017Z</time></trkpt><trkpt lat="43.4221522" lon="10.8679098"><ele>260.0</ele><time>2026-04-04T09:44:32.035Z</time></trkpt><trkpt lat="43.4222451" lon="10.8680518"><ele>258.0</ele><time>2026-04-04T09:44:33.014Z</time></trkpt><trkpt lat="43.4223705" lon="10.8681742"><ele>256.0</ele><time>2026-04-04T09:44:34.017Z</time></trkpt><trkpt lat="43.4224894" lon="10.8683003"><ele>254.0</ele><time>2026-04-04T09:44:35.027Z</time></trkpt><trkpt lat="43.4225664" lon="10.8684524"><ele>252.0</ele><time>2026-04-04T09:44:36.036Z</time></trkpt><trkpt lat="43.4226542" lon="10.8685667"><ele>252.0</ele><time>2026-04-04T09:44:37.026Z</time></trkpt><trkpt lat="43.4227129" lon="10.8687311"><ele>252.0</ele><time>2026-04-04T09:44:38.022Z</time></trkpt><trkpt lat="43.4227529" lon="10.8689086"><ele>252.0</ele><time>2026-04-04T09:44:39.012Z</time></trkpt><trkpt lat="43.4228116" lon="10.8690529"><ele>252.0</ele><time>2026-04-04T09:44:40.031Z</time></trkpt><trkpt lat="43.422896" lon="10.8691632"><ele>246.75</ele><time>2026-04-04T09:44:41.016Z</time></trkpt><trkpt lat="43.4229937" lon="10.869266"><ele>241.5</ele><time>2026-04-04T09:44:42.045Z</time></trkpt><trkpt lat="43.4231014" lon="10.8693914"><ele>236.25</ele><time>2026-04-04T09:44:43.023Z</time></trkpt><trkpt lat="43.4231924" lon="10.8695533"><ele>231.0</ele><time>2026-04-04T09:44:44.034Z</time></trkpt><trkpt lat="43.4232691" lon="10.869746"><ele>231.0</ele><time>2026-04-04T09:44:45.01Z</time></trkpt><trkpt lat="43.4233416" lon="10.86995"><ele>231.0</ele><time>2026-04-04T09:44:46.02Z</time></trkpt><trkpt lat="43.4234129" lon="10.8701487"><ele>231.0</ele><time>2026-04-04T09:44:47.02Z</time></trkpt><trkpt lat="43.4234804" lon="10.8703333"><ele>231.66666666666666</ele><time>2026-04-04T09:44:48.023Z</time></trkpt><trkpt lat="43.4235405" lon="10.870489"><ele>232.33333333333331</ele><time>2026-04-04T09:44:49.013Z</time></trkpt><trkpt lat="43.4235938" lon="10.8706009"><ele>233.0</ele><time>2026-04-04T09:44:50.024Z</time></trkpt><trkpt lat="43.4236438" lon="10.8706649"><ele>233.66666666666666</ele><time>2026-04-04T09:44:51.021Z</time></trkpt><trkpt lat="43.4237091" lon="10.870688"><ele>234.33333333333331</ele><time>2026-04-04T09:44:52.042Z</time></trkpt><trkpt lat="43.4237643" lon="10.8706327"><ele>235.0</ele><time>2026-04-04T09:44:53.008Z</time></trkpt><trkpt lat="43.4237967" lon="10.8705051"><ele>235.0</ele><time>2026-04-04T09:44:54.019Z</time></trkpt><trkpt lat="43.4238062" lon="10.8703449"><ele>235.0</ele><time>2026-04-04T09:44:55.004Z</time></trkpt><trkpt lat="43.4237935" lon="10.8701736"><ele>235.0</ele><time>2026-04-04T09:44:56.017Z</time></trkpt><trkpt lat="43.423771" lon="10.8699925"><ele>235.0</ele><time>2026-04-04T09:44:57.037Z</time></trkpt><trkpt lat="43.4237451" lon="10.8698027"><ele>234.0</ele><time>2026-04-04T09:44:58.007Z</time></trkpt><trkpt lat="43.4237171" lon="10.8696105"><ele>233.0</ele><time>2026-04-04T09:44:59.027Z</time></trkpt><trkpt lat="43.4236825" lon="10.8694322"><ele>232.0</ele><time>2026-04-04T09:45:00.033Z</time></trkpt><trkpt lat="43.4236482" lon="10.8692673"><ele>231.0</ele><time>2026-04-04T09:45:01.032Z</time></trkpt><trkpt lat="43.4236271" lon="10.8691133"><ele>229.8</ele><time>2026-04-04T09:45:02.022Z</time></trkpt><trkpt lat="43.423622" lon="10.8689827"><ele>228.60000000000002</ele><time>2026-04-04T09:45:03.02Z</time></trkpt><trkpt lat="43.4236422" lon="10.8688927"><ele>227.4</ele><time>2026-04-04T09:45:04.038Z</time></trkpt><trkpt lat="43.4237422" lon="10.8688868"><ele>226.2</ele><time>2026-04-04T09:45:06.018Z</time></trkpt><trkpt lat="43.4237951" lon="10.8689812"><ele>225.0</ele><time>2026-04-04T09:45:07.021Z</time></trkpt><trkpt lat="43.4238393" lon="10.8691193"><ele>220.25</ele><time>2026-04-04T09:45:08.039Z</time></trkpt><trkpt lat="43.4238756" lon="10.8692777"><ele>215.5</ele><time>2026-04-04T09:45:09.019Z</time></trkpt><trkpt lat="43.4239114" lon="10.869451"><ele>210.75</ele><time>2026-04-04T09:45:10.006Z</time></trkpt><trkpt lat="43.4239637" lon="10.8696257"><ele>206.0</ele><time>2026-04-04T09:45:11.014Z</time></trkpt><trkpt lat="43.4240231" lon="10.8698019"><ele>206.0</ele><time>2026-04-04T09:45:12.016Z</time></trkpt><trkpt lat="43.4240888" lon="10.8699871"><ele>206.0</ele><time>2026-04-04T09:45:13.023Z</time></trkpt><trkpt lat="43.4241717" lon="10.8701663"><ele>206.0</ele><time>2026-04-04T09:45:14.012Z</time></trkpt><trkpt lat="43.4242592" lon="10.8703425"><ele>206.25</ele><time>2026-04-04T09:45:15.023Z</time></trkpt><trkpt lat="43.4243359" lon="10.8705258"><ele>206.5</ele><time>2026-04-04T09:45:16.035Z</time></trkpt><trkpt lat="43.4243973" lon="10.8707136"><ele>206.75</ele><time>2026-04-04T09:45:17.038Z</time></trkpt><trkpt lat="43.4244383" lon="10.8708974"><ele>207.0</ele><time>2026-04-04T09:45:18.012Z</time></trkpt><trkpt lat="43.4244813" lon="10.8710729"><ele>207.0</ele><time>2026-04-04T09:45:19.024Z</time></trkpt><trkpt lat="43.4245514" lon="10.87123"><ele>207.0</ele><time>2026-04-04T09:45:20.03Z</time></trkpt><trkpt lat="43.4246505" lon="10.8713825"><ele>207.0</ele><time>2026-04-04T09:45:21.024Z</time></trkpt><trkpt lat="43.4247573" lon="10.8715288"><ele>207.0</ele><time>2026-04-04T09:45:22.025Z</time></trkpt><trkpt lat="43.4248617" lon="10.8716695"><ele>202.75</ele><time>2026-04-04T09:45:23.022Z</time></trkpt><trkpt lat="43.4249596" lon="10.8718218"><ele>198.5</ele><time>2026-04-04T09:45:24.043Z</time></trkpt><trkpt lat="43.4250545" lon="10.8719667"><ele>194.25</ele><time>2026-04-04T09:45:25.027Z</time></trkpt><trkpt lat="43.4251427" lon="10.8721015"><ele>190.0</ele><time>2026-04-04T09:45:26.013Z</time></trkpt><trkpt lat="43.4252271" lon="10.8722256"><ele>190.0</ele><time>2026-04-04T09:45:27.026Z</time></trkpt><trkpt lat="43.4253067" lon="10.8723414"><ele>190.0</ele><time>2026-04-04T09:45:28.031Z</time></trkpt><trkpt lat="43.4253839" lon="10.8724422"><ele>190.0</ele><time>2026-04-04T09:45:29.035Z</time></trkpt><trkpt lat="43.4254607" lon="10.872537"><ele>190.0</ele><time>2026-04-04T09:45:30.058Z</time></trkpt><trkpt lat="43.425528" lon="10.872635"><ele>190.0</ele><time>2026-04-04T09:45:31.031Z</time></trkpt><trkpt lat="43.4255666" lon="10.8727424"><ele>189.33333333333334</ele><time>2026-04-04T09:45:32.016Z</time></trkpt><trkpt lat="43.4255709" lon="10.8728439"><ele>188.66666666666669</ele><time>2026-04-04T09:45:33.024Z</time></trkpt><trkpt lat="43.4255431" lon="10.8729303"><ele>188.0</ele><time>2026-04-04T09:45:34.024Z</time></trkpt><trkpt lat="43.4254901" lon="10.8729996"><ele>187.33333333333334</ele><time>2026-04-04T09:45:35.03Z</time></trkpt><trkpt lat="43.425424" lon="10.8730522"><ele>186.66666666666666</ele><time>2026-04-04T09:45:36.024Z</time></trkpt><trkpt lat="43.4253503" lon="10.8731092"><ele>186.0</ele><time>2026-04-04T09:45:37.023Z</time></trkpt><trkpt lat="43.4252758" lon="10.8731722"><ele>186.0</ele><time>2026-04-04T09:45:38.039Z</time></trkpt><trkpt lat="43.4251969" lon="10.8732478"><ele>186.0</ele><time>2026-04-04T09:45:39.017Z</time></trkpt><trkpt lat="43.4251201" lon="10.873335"><ele>186.0</ele><time>2026-04-04T09:45:40.032Z</time></trkpt><trkpt lat="43.425048" lon="10.8734396"><ele>186.0</ele><time>2026-04-04T09:45:41.02Z</time></trkpt><trkpt lat="43.4249833" lon="10.8735617"><ele>186.0</ele><time>2026-04-04T09:45:42.021Z</time></trkpt><trkpt lat="43.4249274" lon="10.8736971"><ele>182.25</ele><time>2026-04-04T09:45:43.035Z</time></trkpt><trkpt lat="43.4248721" lon="10.873831"><ele>178.5</ele><time>2026-04-04T09:45:44.023Z</time></trkpt><trkpt lat="43.4248143" lon="10.8739601"><ele>174.75</ele><time>2026-04-04T09:45:45.033Z</time></trkpt><trkpt lat="43.4247468" lon="10.8741005"><ele>171.0</ele><time>2026-04-04T09:45:46.036Z</time></trkpt><trkpt lat="43.4246664" lon="10.8742487"><ele>170.25</ele><time>2026-04-04T09:45:47.025Z</time></trkpt><trkpt lat="43.42458" lon="10.8744073"><ele>169.5</ele><time>2026-04-04T09:45:48.026Z</time></trkpt><trkpt lat="43.4244939" lon="10.8745631"><ele>168.75</ele><time>2026-04-04T09:45:49.017Z</time></trkpt><trkpt lat="43.4244206" lon="10.8747109"><ele>168.0</ele><time>2026-04-04T09:45:50.028Z</time></trkpt><trkpt lat="43.4243577" lon="10.8748577"><ele>168.0</ele><time>2026-04-04T09:45:51.025Z</time></trkpt><trkpt lat="43.4243018" lon="10.8750059"><ele>168.0</ele><time>2026-04-04T09:45:52.013Z</time></trkpt><trkpt lat="43.4242636" lon="10.8751532"><ele>168.0</ele><time>2026-04-04T09:45:53.03Z</time></trkpt><trkpt lat="43.4242247" lon="10.8753013"><ele>168.0</ele><time>2026-04-04T09:45:54.023Z</time></trkpt><trkpt lat="43.4241948" lon="10.8754474"><ele>167.0</ele><time>2026-04-04T09:45:55.023Z</time></trkpt><trkpt lat="43.4241717" lon="10.8755887"><ele>166.0</ele><time>2026-04-04T09:45:56.012Z</time></trkpt><trkpt lat="43.4241631" lon="10.8757346"><ele>165.0</ele><time>2026-04-04T09:45:57.017Z</time></trkpt><trkpt lat="43.4241615" lon="10.8758732"><ele>164.0</ele><time>2026-04-04T09:45:58.022Z</time></trkpt><trkpt lat="43.4241784" lon="10.8760022"><ele>163.0</ele><time>2026-04-04T09:45:59.018Z</time></trkpt><trkpt lat="43.4242141" lon="10.8761217"><ele>162.8</ele><time>2026-04-04T09:46:00.045Z</time></trkpt><trkpt lat="43.4242722" lon="10.8762182"><ele>162.60000000000002</ele><time>2026-04-04T09:46:01.025Z</time></trkpt><trkpt lat="43.4243616" lon="10.8763054"><ele>162.39999999999998</ele><time>2026-04-04T09:46:02.007Z</time></trkpt><trkpt lat="43.4244661" lon="10.8763764"><ele>162.2</ele><time>2026-04-04T09:46:03.018Z</time></trkpt><trkpt lat="43.4245712" lon="10.8764385"><ele>162.0</ele><time>2026-04-04T09:46:04.024Z</time></trkpt><trkpt lat="43.424674" lon="10.8764772"><ele>161.33333333333334</ele><time>2026-04-04T09:46:05.016Z</time></trkpt><trkpt lat="43.4247713" lon="10.8764966"><ele>160.66666666666666</ele><time>2026-04-04T09:46:06.014Z</time></trkpt><trkpt lat="43.4248503" lon="10.876498"><ele>160.0</ele><time>2026-04-04T09:46:07.013Z</time></trkpt><trkpt lat="43.4249439" lon="10.8764852"><ele>159.33333333333331</ele><time>2026-04-04T09:46:09.019Z</time></trkpt><trkpt lat="43.4250216" lon="10.8764483"><ele>158.66666666666666</ele><time>2026-04-04T09:46:12.027Z</time></trkpt><trkpt lat="43.4250959" lon="10.8763924"><ele>158.0</ele><time>2026-04-04T09:46:14.016Z</time></trkpt><trkpt lat="43.425177" lon="10.8764067"><ele>158.0</ele><time>2026-04-04T09:46:17.031Z</time></trkpt><trkpt lat="43.4252667" lon="10.8764588"><ele>158.0</ele><time>2026-04-04T09:46:41.026Z</time></trkpt><trkpt lat="43.4253459" lon="10.8765174"><ele>158.0</ele><time>2026-04-04T09:46:43.023Z</time></trkpt><trkpt lat="43.4254465" lon="10.8765824"><ele>158.0</ele><time>2026-04-04T09:46:45.019Z</time></trkpt><trkpt lat="43.4255126" lon="10.8766237"><ele>158.0</ele><time>2026-04-04T09:46:46.038Z</time></trkpt><trkpt lat="43.4255955" lon="10.876677"><ele>157.75</ele><time>2026-04-04T09:46:47.014Z</time></trkpt><trkpt lat="43.4256864" lon="10.876737"><ele>157.5</ele><time>2026-04-04T09:46:48.044Z</time></trkpt><trkpt lat="43.4257874" lon="10.8768063"><ele>157.25</ele><time>2026-04-04T09:46:49.026Z</time></trkpt><trkpt lat="43.4259022" lon="10.8768753"><ele>157.0</ele><time>2026-04-04T09:46:50.02Z</time></trkpt><trkpt lat="43.4260223" lon="10.8769506"><ele>157.0</ele><time>2026-04-04T09:46:51.03Z</time></trkpt><trkpt lat="43.4261455" lon="10.8770359"><ele>157.0</ele><time>2026-04-04T09:46:52.039Z</time></trkpt><trkpt lat="43.4262711" lon="10.8771212"><ele>157.0</ele><time>2026-04-04T09:46:53.029Z</time></trkpt><trkpt lat="43.4264053" lon="10.8772092"><ele>157.0</ele><time>2026-04-04T09:46:54.038Z</time></trkpt><trkpt lat="43.4265441" lon="10.877305"><ele>155.5</ele><time>2026-04-04T09:46:55.028Z</time></trkpt><trkpt lat="43.426683" lon="10.8773984"><ele>154.0</ele><time>2026-04-04T09:46:56.028Z</time></trkpt><trkpt lat="43.4268143" lon="10.877497"><ele>152.5</ele><time>2026-04-04T09:46:57.02Z</time></trkpt><trkpt lat="43.4269425" lon="10.8775911"><ele>151.0</ele><time>2026-04-04T09:46:58.047Z</time></trkpt><trkpt lat="43.4270645" lon="10.8776759"><ele>150.75</ele><time>2026-04-04T09:46:59.031Z</time></trkpt><trkpt lat="43.4271743" lon="10.8777513"><ele>150.5</ele><time>2026-04-04T09:47:00.042Z</time></trkpt><trkpt lat="43.4272779" lon="10.8778252"><ele>150.25</ele><time>2026-04-04T09:47:01.022Z</time></trkpt><trkpt lat="43.4273853" lon="10.8779065"><ele>150.0</ele><time>2026-04-04T09:47:02.03Z</time></trkpt><trkpt lat="43.4275007" lon="10.8779994"><ele>150.0</ele><time>2026-04-04T09:47:03.017Z</time></trkpt><trkpt lat="43.4276175" lon="10.8781089"><ele>150.0</ele><time>2026-04-04T09:47:04.049Z</time></trkpt><trkpt lat="43.4277234" lon="10.8782413"><ele>150.0</ele><time>2026-04-04T09:47:05.029Z</time></trkpt><trkpt lat="43.4278104" lon="10.8784124"><ele>150.0</ele><time>2026-04-04T09:47:06.043Z</time></trkpt><trkpt lat="43.4278759" lon="10.8786026"><ele>150.0</ele><time>2026-04-04T09:47:07.015Z</time></trkpt><trkpt lat="43.4279349" lon="10.8787974"><ele>150.0</ele><time>2026-04-04T09:47:08.031Z</time></trkpt><trkpt lat="43.4279938" lon="10.8789931"><ele>150.0</ele><time>2026-04-04T09:47:09.033Z</time></trkpt><trkpt lat="43.4280544" lon="10.8791864"><ele>151.0</ele><time>2026-04-04T09:47:10.017Z</time></trkpt><trkpt lat="43.4281188" lon="10.8793919"><ele>152.0</ele><time>2026-04-04T09:47:11.029Z</time></trkpt><trkpt lat="43.4281769" lon="10.8795997"><ele>153.0</ele><time>2026-04-04T09:47:12.029Z</time></trkpt><trkpt lat="43.4282357" lon="10.8798053"><ele>153.0</ele><time>2026-04-04T09:47:13.026Z</time></trkpt><trkpt lat="43.4283009" lon="10.8800087"><ele>153.0</ele><time>2026-04-04T09:47:14.025Z</time></trkpt><trkpt lat="43.428359" lon="10.8802167"><ele>153.0</ele><time>2026-04-04T09:47:15.024Z</time></trkpt><trkpt lat="43.428415" lon="10.8804215"><ele>155.0</ele><time>2026-04-04T09:47:16.017Z</time></trkpt><trkpt lat="43.4284721" lon="10.8806301"><ele>157.0</ele><time>2026-04-04T09:47:17.022Z</time></trkpt><trkpt lat="43.428525" lon="10.8808424"><ele>159.0</ele><time>2026-04-04T09:47:18.024Z</time></trkpt><trkpt lat="43.4285858" lon="10.8810601"><ele>161.0</ele><time>2026-04-04T09:47:19.02Z</time></trkpt><trkpt lat="43.4286472" lon="10.8812815"><ele>163.0</ele><time>2026-04-04T09:47:20.024Z</time></trkpt><trkpt lat="43.4287106" lon="10.881512"><ele>165.0</ele><time>2026-04-04T09:47:21.017Z</time></trkpt><trkpt lat="43.428779" lon="10.8817431"><ele>162.0</ele><time>2026-04-04T09:47:22.038Z</time></trkpt><trkpt lat="43.4288475" lon="10.8819764"><ele>159.0</ele><time>2026-04-04T09:47:23.029Z</time></trkpt><trkpt lat="43.4289106" lon="10.8822187"><ele>156.0</ele><time>2026-04-04T09:47:24.02Z</time></trkpt><trkpt lat="43.4289784" lon="10.8824619"><ele>157.0</ele><time>2026-04-04T09:47:25.032Z</time></trkpt><trkpt lat="43.4290462" lon="10.8827061"><ele>158.0</ele><time>2026-04-04T09:47:26.028Z</time></trkpt><trkpt lat="43.4291139" lon="10.8829524"><ele>159.0</ele><time>2026-04-04T09:47:27.032Z</time></trkpt><trkpt lat="43.4291836" lon="10.8831971"><ele>161.0</ele><time>2026-04-04T09:47:28.031Z</time></trkpt><trkpt lat="43.4292526" lon="10.8834479"><ele>163.0</ele><time>2026-04-04T09:47:29.029Z</time></trkpt><trkpt lat="43.4293221" lon="10.8837012"><ele>165.0</ele><time>2026-04-04T09:47:30.029Z</time></trkpt><trkpt lat="43.4293946" lon="10.8839511"><ele>165.0</ele><time>2026-04-04T09:47:31.019Z</time></trkpt><trkpt lat="43.4294634" lon="10.8841989"><ele>165.0</ele><time>2026-04-04T09:47:32.034Z</time></trkpt><trkpt lat="43.4295347" lon="10.8844428"><ele>165.0</ele><time>2026-04-04T09:47:33.03Z</time></trkpt><trkpt lat="43.4295985" lon="10.8846804"><ele>163.66666666666666</ele><time>2026-04-04T09:47:34.044Z</time></trkpt><trkpt lat="43.4296558" lon="10.8849027"><ele>162.33333333333331</ele><time>2026-04-04T09:47:35.032Z</time></trkpt><trkpt lat="43.4297151" lon="10.8851109"><ele>161.0</ele><time>2026-04-04T09:47:36.04Z</time></trkpt><trkpt lat="43.4297607" lon="10.885306"><ele>161.0</ele><time>2026-04-04T09:47:37.027Z</time></trkpt><trkpt lat="43.4297904" lon="10.8855103"><ele>161.0</ele><time>2026-04-04T09:47:38.039Z</time></trkpt><trkpt lat="43.429796" lon="10.8857234"><ele>161.0</ele><time>2026-04-04T09:47:39.02Z</time></trkpt><trkpt lat="43.4297779" lon="10.885956"><ele>161.33333333333331</ele><time>2026-04-04T09:47:40.012Z</time></trkpt><trkpt lat="43.429738" lon="10.8862246"><ele>161.66666666666666</ele><time>2026-04-04T09:47:41.014Z</time></trkpt><trkpt lat="43.429683" lon="10.8865153"><ele>162.0</ele><time>2026-04-04T09:47:42.024Z</time></trkpt><trkpt lat="43.4296408" lon="10.8868097"><ele>165.25</ele><time>2026-04-04T09:47:43.022Z</time></trkpt><trkpt lat="43.4296138" lon="10.8870725"><ele>168.5</ele><time>2026-04-04T09:47:44.023Z</time></trkpt><trkpt lat="43.4296092" lon="10.8872658"><ele>171.75</ele><time>2026-04-04T09:47:45.013Z</time></trkpt><trkpt lat="43.429613" lon="10.8873927"><ele>175.0</ele><time>2026-04-04T09:47:46.024Z</time></trkpt><trkpt lat="43.4296392" lon="10.8874924"><ele>174.25</ele><time>2026-04-04T09:47:47.024Z</time></trkpt><trkpt lat="43.4297022" lon="10.8875925"><ele>173.5</ele><time>2026-04-04T09:47:48.019Z</time></trkpt><trkpt lat="43.4297948" lon="10.8877082"><ele>172.75</ele><time>2026-04-04T09:47:49.022Z</time></trkpt><trkpt lat="43.4298921" lon="10.8878211"><ele>172.0</ele><time>2026-04-04T09:47:50.021Z</time></trkpt><trkpt lat="43.4300009" lon="10.8879175"><ele>172.0</ele><time>2026-04-04T09:47:51.017Z</time></trkpt><trkpt lat="43.4301151" lon="10.8880187"><ele>172.0</ele><time>2026-04-04T09:47:52.025Z</time></trkpt><trkpt lat="43.4302313" lon="10.8881133"><ele>172.0</ele><time>2026-04-04T09:47:53.019Z</time></trkpt><trkpt lat="43.4303506" lon="10.8882034"><ele>172.0</ele><time>2026-04-04T09:47:54.025Z</time></trkpt><trkpt lat="43.4304716" lon="10.8882996"><ele>171.5</ele><time>2026-04-04T09:47:55.028Z</time></trkpt><trkpt lat="43.4305897" lon="10.8884071"><ele>171.0</ele><time>2026-04-04T09:47:56.036Z</time></trkpt><trkpt lat="43.4307119" lon="10.8885184"><ele>170.5</ele><time>2026-04-04T09:47:57.016Z</time></trkpt><trkpt lat="43.4308471" lon="10.8886305"><ele>170.0</ele><time>2026-04-04T09:47:58.026Z</time></trkpt><trkpt lat="43.4309786" lon="10.8887364"><ele>170.0</ele><time>2026-04-04T09:47:59.027Z</time></trkpt><trkpt lat="43.4311109" lon="10.8888404"><ele>170.0</ele><time>2026-04-04T09:48:00.03Z</time></trkpt><trkpt lat="43.4312355" lon="10.8889542"><ele>170.0</ele><time>2026-04-04T09:48:01.02Z</time></trkpt><trkpt lat="43.4313481" lon="10.8890943"><ele>170.0</ele><time>2026-04-04T09:48:02.04Z</time></trkpt><trkpt lat="43.4314405" lon="10.8892408"><ele>170.0</ele><time>2026-04-04T09:48:03.018Z</time></trkpt><trkpt lat="43.4315264" lon="10.8894055"><ele>170.0</ele><time>2026-04-04T09:48:04.028Z</time></trkpt><trkpt lat="43.4315922" lon="10.889592"><ele>170.0</ele><time>2026-04-04T09:48:05.026Z</time></trkpt><trkpt lat="43.4316465" lon="10.8898086"><ele>170.0</ele><time>2026-04-04T09:48:06.028Z</time></trkpt><trkpt lat="43.4316786" lon="10.8900331"><ele>170.0</ele><time>2026-04-04T09:48:07.02Z</time></trkpt><trkpt lat="43.4317098" lon="10.8902573"><ele>170.0</ele><time>2026-04-04T09:48:08.015Z</time></trkpt><trkpt lat="43.431744" lon="10.8904835"><ele>170.66666666666666</ele><time>2026-04-04T09:48:09.03Z</time></trkpt><trkpt lat="43.4317761" lon="10.8907071"><ele>171.33333333333334</ele><time>2026-04-04T09:48:10.013Z</time></trkpt><trkpt lat="43.4317993" lon="10.8909302"><ele>172.0</ele><time>2026-04-04T09:48:11.008Z</time></trkpt><trkpt lat="43.4318146" lon="10.8911472"><ele>172.75</ele><time>2026-04-04T09:48:12.01Z</time></trkpt><trkpt lat="43.4318141" lon="10.8913478"><ele>173.5</ele><time>2026-04-04T09:48:13.01Z</time></trkpt><trkpt lat="43.4317937" lon="10.8915424"><ele>174.25</ele><time>2026-04-04T09:48:14.014Z</time></trkpt><trkpt lat="43.431772" lon="10.8917388"><ele>175.0</ele><time>2026-04-04T09:48:15.01Z</time></trkpt><trkpt lat="43.431752" lon="10.8919269"><ele>175.4</ele><time>2026-04-04T09:48:16.007Z</time></trkpt><trkpt lat="43.4317385" lon="10.892102"><ele>175.8</ele><time>2026-04-04T09:48:17.013Z</time></trkpt><trkpt lat="43.4317289" lon="10.8922683"><ele>176.2</ele><time>2026-04-04T09:48:18.011Z</time></trkpt><trkpt lat="43.4317245" lon="10.892408"><ele>176.6</ele><time>2026-04-04T09:48:19.02Z</time></trkpt><trkpt lat="43.4317285" lon="10.89252"><ele>177.0</ele><time>2026-04-04T09:48:20.01Z</time></trkpt><trkpt lat="43.4317403" lon="10.8926249"><ele>177.2</ele><time>2026-04-04T09:48:21.015Z</time></trkpt><trkpt lat="43.4317599" lon="10.8927469"><ele>177.39999999999998</ele><time>2026-04-04T09:48:22.016Z</time></trkpt><trkpt lat="43.4317852" lon="10.8928671"><ele>177.60000000000002</ele><time>2026-04-04T09:48:23.02Z</time></trkpt><trkpt lat="43.4318263" lon="10.8929557"><ele>177.8</ele><time>2026-04-04T09:48:24Z</time></trkpt><trkpt lat="43.4319397" lon="10.8930057"><ele>178.0</ele><time>2026-04-04T09:48:26.028Z</time></trkpt><trkpt lat="43.4320133" lon="10.8929951"><ele>178.0</ele><time>2026-04-04T09:48:27.014Z</time></trkpt><trkpt lat="43.4321096" lon="10.8929751"><ele>178.0</ele><time>2026-04-04T09:48:28.018Z</time></trkpt><trkpt lat="43.4322063" lon="10.8929498"><ele>178.0</ele><time>2026-04-04T09:48:29.003Z</time></trkpt><trkpt lat="43.4323177" lon="10.8929199"><ele>178.0</ele><time>2026-04-04T09:48:30.024Z</time></trkpt><trkpt lat="43.4324375" lon="10.8928898"><ele>178.0</ele><time>2026-04-04T09:48:31.012Z</time></trkpt><trkpt lat="43.4325634" lon="10.8928583"><ele>178.0</ele><time>2026-04-04T09:48:32.022Z</time></trkpt><trkpt lat="43.4326919" lon="10.8928182"><ele>178.0</ele><time>2026-04-04T09:48:33.015Z</time></trkpt><trkpt lat="43.4328247" lon="10.8927725"><ele>178.0</ele><time>2026-04-04T09:48:34.033Z</time></trkpt><trkpt lat="43.432969" lon="10.8927263"><ele>178.0</ele><time>2026-04-04T09:48:35.02Z</time></trkpt><trkpt lat="43.4331082" lon="10.8927042"><ele>178.0</ele><time>2026-04-04T09:48:36.027Z</time></trkpt><trkpt lat="43.4332387" lon="10.892718"><ele>178.0</ele><time>2026-04-04T09:48:37.033Z</time></trkpt><trkpt lat="43.4333555" lon="10.8927713"><ele>178.0</ele><time>2026-04-04T09:48:38.029Z</time></trkpt><trkpt lat="43.4334636" lon="10.8928651"><ele>178.0</ele><time>2026-04-04T09:48:39.025Z</time></trkpt><trkpt lat="43.4335798" lon="10.8929878"><ele>178.0</ele><time>2026-04-04T09:48:40.028Z</time></trkpt><trkpt lat="43.4337041" lon="10.893112"><ele>178.0</ele><time>2026-04-04T09:48:41.013Z</time></trkpt><trkpt lat="43.4338505" lon="10.8932323"><ele>178.0</ele><time>2026-04-04T09:48:42.06Z</time></trkpt><trkpt lat="43.434016" lon="10.8933525"><ele>179.0</ele><time>2026-04-04T09:48:43.016Z</time></trkpt><trkpt lat="43.4341806" lon="10.893492"><ele>180.0</ele><time>2026-04-04T09:48:44.049Z</time></trkpt><trkpt lat="43.4343188" lon="10.893635"><ele>181.0</ele><time>2026-04-04T09:48:45.02Z</time></trkpt><trkpt lat="43.4344293" lon="10.8937752"><ele>181.0</ele><time>2026-04-04T09:48:46.032Z</time></trkpt><trkpt lat="43.434528" lon="10.8938804"><ele>181.0</ele><time>2026-04-04T09:48:47.02Z</time></trkpt><trkpt lat="43.4346129" lon="10.8939473"><ele>181.0</ele><time>2026-04-04T09:48:48.044Z</time></trkpt><trkpt lat="43.4346762" lon="10.8939593"><ele>181.0</ele><time>2026-04-04T09:48:49.018Z</time></trkpt><trkpt lat="43.4347565" lon="10.8938631"><ele>181.0</ele><time>2026-04-04T09:48:51.024Z</time></trkpt><trkpt lat="43.4347434" lon="10.8937052"><ele>184.5</ele><time>2026-04-04T09:48:53.016Z</time></trkpt><trkpt lat="43.4347142" lon="10.8936027"><ele>188.0</ele><time>2026-04-04T09:48:54.041Z</time></trkpt><trkpt lat="43.4347003" lon="10.8934586"><ele>191.5</ele><time>2026-04-04T09:48:55.007Z</time></trkpt><trkpt lat="43.4346965" lon="10.8932838"><ele>195.0</ele><time>2026-04-04T09:48:56.051Z</time></trkpt><trkpt lat="43.4346885" lon="10.8930894"><ele>195.66666666666669</ele><time>2026-04-04T09:48:57.025Z</time></trkpt><trkpt lat="43.434666" lon="10.8928912"><ele>196.33333333333334</ele><time>2026-04-04T09:48:58.041Z</time></trkpt><trkpt lat="43.4346129" lon="10.8926899"><ele>197.0</ele><time>2026-04-04T09:48:59.024Z</time></trkpt><trkpt lat="43.4345375" lon="10.8924829"><ele>197.0</ele><time>2026-04-04T09:49:00.041Z</time></trkpt><trkpt lat="43.4344712" lon="10.8922837"><ele>197.0</ele><time>2026-04-04T09:49:01.012Z</time></trkpt><trkpt lat="43.4344196" lon="10.892118"><ele>197.0</ele><time>2026-04-04T09:49:02.031Z</time></trkpt><trkpt lat="43.4344052" lon="10.8919662"><ele>197.0</ele><time>2026-04-04T09:49:03.014Z</time></trkpt><trkpt lat="43.4344297" lon="10.8918238"><ele>197.66666666666669</ele><time>2026-04-04T09:49:04.035Z</time></trkpt><trkpt lat="43.4344808" lon="10.8916941"><ele>198.33333333333334</ele><time>2026-04-04T09:49:05.033Z</time></trkpt><trkpt lat="43.4345418" lon="10.8916024"><ele>199.0</ele><time>2026-04-04T09:49:06.043Z</time></trkpt><trkpt lat="43.4346038" lon="10.8915487"><ele>199.66666666666669</ele><time>2026-04-04T09:49:07.022Z</time></trkpt><trkpt lat="43.4346692" lon="10.8915551"><ele>200.33333333333334</ele><time>2026-04-04T09:49:08.031Z</time></trkpt><trkpt lat="43.4347298" lon="10.8916072"><ele>201.0</ele><time>2026-04-04T09:49:09.021Z</time></trkpt><trkpt lat="43.4347833" lon="10.8916933"><ele>203.0</ele><time>2026-04-04T09:49:10.029Z</time></trkpt><trkpt lat="43.4348303" lon="10.8918146"><ele>205.0</ele><time>2026-04-04T09:49:11.02Z</time></trkpt><trkpt lat="43.4348688" lon="10.8919645"><ele>207.0</ele><time>2026-04-04T09:49:12.04Z</time></trkpt><trkpt lat="43.4349175" lon="10.8921045"><ele>209.0</ele><time>2026-04-04T09:49:13.025Z</time></trkpt><trkpt lat="43.434978" lon="10.8922338"><ele>211.0</ele><time>2026-04-04T09:49:14.02Z</time></trkpt><trkpt lat="43.4350618" lon="10.8923609"><ele>211.0</ele><time>2026-04-04T09:49:15.033Z</time></trkpt><trkpt lat="43.4351704" lon="10.8924932"><ele>211.0</ele><time>2026-04-04T09:49:16.043Z</time></trkpt><trkpt lat="43.4352941" lon="10.8926345"><ele>211.0</ele><time>2026-04-04T09:49:17.014Z</time></trkpt><trkpt lat="43.4354204" lon="10.8927855"><ele>213.33333333333331</ele><time>2026-04-04T09:49:18.035Z</time></trkpt><trkpt lat="43.4355434" lon="10.8929531"><ele>215.66666666666669</ele><time>2026-04-04T09:49:19.021Z</time></trkpt><trkpt lat="43.435664" lon="10.8931287"><ele>218.0</ele><time>2026-04-04T09:49:20.052Z</time></trkpt><trkpt lat="43.4357728" lon="10.8932865"><ele>216.25</ele><time>2026-04-04T09:49:21.022Z</time></trkpt><trkpt lat="43.4358743" lon="10.8934333"><ele>214.5</ele><time>2026-04-04T09:49:22.031Z</time></trkpt><trkpt lat="43.4359734" lon="10.8935611"><ele>212.75</ele><time>2026-04-04T09:49:23.027Z</time></trkpt><trkpt lat="43.4360659" lon="10.893658"><ele>211.0</ele><time>2026-04-04T09:49:24.046Z</time></trkpt><trkpt lat="43.4361686" lon="10.8937348"><ele>211.0</ele><time>2026-04-04T09:49:25.023Z</time></trkpt><trkpt lat="43.4362925" lon="10.8937909"><ele>211.0</ele><time>2026-04-04T09:49:26.023Z</time></trkpt><trkpt lat="43.4364247" lon="10.8938335"><ele>211.0</ele><time>2026-04-04T09:49:27.025Z</time></trkpt><trkpt lat="43.4365547" lon="10.8938699"><ele>211.0</ele><time>2026-04-04T09:49:28.025Z</time></trkpt><trkpt lat="43.4366905" lon="10.8939077"><ele>213.33333333333331</ele><time>2026-04-04T09:49:29.032Z</time></trkpt><trkpt lat="43.4368351" lon="10.8939599"><ele>215.66666666666669</ele><time>2026-04-04T09:49:30.024Z</time></trkpt><trkpt lat="43.4369789" lon="10.8940321"><ele>218.0</ele><time>2026-04-04T09:49:31.014Z</time></trkpt><trkpt lat="43.4371226" lon="10.8941314"><ele>219.0</ele><time>2026-04-04T09:49:32.051Z</time></trkpt><trkpt lat="43.4372643" lon="10.8942528"><ele>220.0</ele><time>2026-04-04T09:49:33.029Z</time></trkpt><trkpt lat="43.4373939" lon="10.8943899"><ele>221.0</ele><time>2026-04-04T09:49:34.019Z</time></trkpt><trkpt lat="43.4375071" lon="10.8945383"><ele>223.0</ele><time>2026-04-04T09:49:35.033Z</time></trkpt><trkpt lat="43.4376045" lon="10.894705"><ele>225.0</ele><time>2026-04-04T09:49:36.03Z</time></trkpt><trkpt lat="43.4376907" lon="10.8949089"><ele>227.0</ele><time>2026-04-04T09:49:37.031Z</time></trkpt><trkpt lat="43.4377648" lon="10.8951158"><ele>227.5</ele><time>2026-04-04T09:49:38.053Z</time></trkpt><trkpt lat="43.4378387" lon="10.8953051"><ele>228.0</ele><time>2026-04-04T09:49:39.022Z</time></trkpt><trkpt lat="43.4379233" lon="10.8954743"><ele>228.5</ele><time>2026-04-04T09:49:40.016Z</time></trkpt><trkpt lat="43.4380171" lon="10.8956171"><ele>229.0</ele><time>2026-04-04T09:49:41.038Z</time></trkpt><trkpt lat="43.4381056" lon="10.8957389"><ele>229.39999999999998</ele><time>2026-04-04T09:49:42.013Z</time></trkpt><trkpt lat="43.4381793" lon="10.8958503"><ele>229.79999999999998</ele><time>2026-04-04T09:49:43.021Z</time></trkpt><trkpt lat="43.4382154" lon="10.8959736"><ele>230.20000000000002</ele><time>2026-04-04T09:49:44.02Z</time></trkpt><trkpt lat="43.4382199" lon="10.8961081"><ele>230.60000000000002</ele><time>2026-04-04T09:49:45.018Z</time></trkpt><trkpt lat="43.438207" lon="10.8962621"><ele>231.0</ele><time>2026-04-04T09:49:46.016Z</time></trkpt><trkpt lat="43.4382118" lon="10.8964435"><ele>231.33333333333331</ele><time>2026-04-04T09:49:47.015Z</time></trkpt><trkpt lat="43.4382464" lon="10.8966353"><ele>231.66666666666666</ele><time>2026-04-04T09:49:48.023Z</time></trkpt><trkpt lat="43.4382934" lon="10.8968392"><ele>232.0</ele><time>2026-04-04T09:49:49.02Z</time></trkpt><trkpt lat="43.4383361" lon="10.8970592"><ele>234.33333333333331</ele><time>2026-04-04T09:49:50.001Z</time></trkpt><trkpt lat="43.4383636" lon="10.8972786"><ele>236.66666666666669</ele><time>2026-04-04T09:49:51.012Z</time></trkpt><trkpt lat="43.4383898" lon="10.897494"><ele>239.0</ele><time>2026-04-04T09:49:52.022Z</time></trkpt><trkpt lat="43.4384303" lon="10.8976746"><ele>241.0</ele><time>2026-04-04T09:49:53.021Z</time></trkpt><trkpt lat="43.4384968" lon="10.8978335"><ele>243.0</ele><time>2026-04-04T09:49:54.012Z</time></trkpt><trkpt lat="43.4385822" lon="10.8979799"><ele>245.0</ele><time>2026-04-04T09:49:55.015Z</time></trkpt><trkpt lat="43.4386614" lon="10.8981345"><ele>247.0</ele><time>2026-04-04T09:49:56.019Z</time></trkpt><trkpt lat="43.4387281" lon="10.8983164"><ele>247.5</ele><time>2026-04-04T09:49:57.021Z</time></trkpt><trkpt lat="43.4387889" lon="10.8984986"><ele>248.0</ele><time>2026-04-04T09:49:58.04Z</time></trkpt><trkpt lat="43.4388556" lon="10.8986782"><ele>248.5</ele><time>2026-04-04T09:49:59.024Z</time></trkpt><trkpt lat="43.4389463" lon="10.898843"><ele>249.0</ele><time>2026-04-04T09:50:00.025Z</time></trkpt><trkpt lat="43.4390513" lon="10.8989889"><ele>249.5</ele><time>2026-04-04T09:50:01.038Z</time></trkpt><trkpt lat="43.4391599" lon="10.8991188"><ele>250.0</ele><time>2026-04-04T09:50:02.019Z</time></trkpt><trkpt lat="43.4392642" lon="10.8992336"><ele>250.5</ele><time>2026-04-04T09:50:03.017Z</time></trkpt><trkpt lat="43.4393662" lon="10.8993476"><ele>251.0</ele><time>2026-04-04T09:50:04.023Z</time></trkpt><trkpt lat="43.439462" lon="10.8994464"><ele>250.20000000000002</ele><time>2026-04-04T09:50:05.017Z</time></trkpt><trkpt lat="43.4395379" lon="10.8995279"><ele>249.40000000000003</ele><time>2026-04-04T09:50:06.031Z</time></trkpt><trkpt lat="43.4396017" lon="10.8996162"><ele>248.6</ele><time>2026-04-04T09:50:07.021Z</time></trkpt><trkpt lat="43.4396491" lon="10.8997332"><ele>247.8</ele><time>2026-04-04T09:50:08.021Z</time></trkpt><trkpt lat="43.4396844" lon="10.8998691"><ele>247.0</ele><time>2026-04-04T09:50:09.024Z</time></trkpt><trkpt lat="43.4396979" lon="10.9000141"><ele>247.0</ele><time>2026-04-04T09:50:09.999Z</time></trkpt><trkpt lat="43.4396957" lon="10.9001606"><ele>247.0</ele><time>2026-04-04T09:50:11.003Z</time></trkpt><trkpt lat="43.4396802" lon="10.9003194"><ele>247.0</ele><time>2026-04-04T09:50:12.002Z</time></trkpt><trkpt lat="43.4396623" lon="10.9004846"><ele>247.0</ele><time>2026-04-04T09:50:13.003Z</time></trkpt><trkpt lat="43.43965" lon="10.9006485"><ele>247.0</ele><time>2026-04-04T09:50:14.018Z</time></trkpt><trkpt lat="43.4396429" lon="10.9008048"><ele>247.0</ele><time>2026-04-04T09:50:15.016Z</time></trkpt><trkpt lat="43.4396481" lon="10.9009588"><ele>247.0</ele><time>2026-04-04T09:50:16.037Z</time></trkpt><trkpt lat="43.4396596" lon="10.9011045"><ele>247.0</ele><time>2026-04-04T09:50:17.013Z</time></trkpt><trkpt lat="43.4396757" lon="10.9012499"><ele>247.0</ele><time>2026-04-04T09:50:18.021Z</time></trkpt><trkpt lat="43.4397143" lon="10.9013983"><ele>247.75</ele><time>2026-04-04T09:50:19.021Z</time></trkpt><trkpt lat="43.4397747" lon="10.9015349"><ele>248.5</ele><time>2026-04-04T09:50:20.02Z</time></trkpt><trkpt lat="43.4398521" lon="10.9016706"><ele>249.25</ele><time>2026-04-04T09:50:21.026Z</time></trkpt><trkpt lat="43.4399352" lon="10.9018056"><ele>250.0</ele><time>2026-04-04T09:50:22.033Z</time></trkpt><trkpt lat="43.4400163" lon="10.9019526"><ele>251.0</ele><time>2026-04-04T09:50:23.018Z</time></trkpt><trkpt lat="43.4400996" lon="10.9020924"><ele>252.0</ele><time>2026-04-04T09:50:24.048Z</time></trkpt><trkpt lat="43.4401924" lon="10.9022208"><ele>253.0</ele><time>2026-04-04T09:50:25.022Z</time></trkpt><trkpt lat="43.4402916" lon="10.902334"><ele>254.0</ele><time>2026-04-04T09:50:26.033Z</time></trkpt><trkpt lat="43.4404038" lon="10.9024264"><ele>252.0</ele><time>2026-04-04T09:50:27.023Z</time></trkpt><trkpt lat="43.4405218" lon="10.9024989"><ele>250.0</ele><time>2026-04-04T09:50:28.037Z</time></trkpt><trkpt lat="43.440628" lon="10.9025653"><ele>248.0</ele><time>2026-04-04T09:50:29.037Z</time></trkpt><trkpt lat="43.4407521" lon="10.9026216"><ele>246.0</ele><time>2026-04-04T09:50:30.049Z</time></trkpt><trkpt lat="43.4408843" lon="10.9026584"><ele>245.5</ele><time>2026-04-04T09:50:31.02Z</time></trkpt><trkpt lat="43.4410237" lon="10.9026855"><ele>245.0</ele><time>2026-04-04T09:50:32.047Z</time></trkpt><trkpt lat="43.4411628" lon="10.9026995"><ele>244.5</ele><time>2026-04-04T09:50:33.016Z</time></trkpt><trkpt lat="43.4413052" lon="10.9027122"><ele>244.0</ele><time>2026-04-04T09:50:34.024Z</time></trkpt><trkpt lat="43.441443" lon="10.9027261"><ele>244.0</ele><time>2026-04-04T09:50:35.031Z</time></trkpt><trkpt lat="43.4415869" lon="10.9027636"><ele>244.0</ele><time>2026-04-04T09:50:36.053Z</time></trkpt><trkpt lat="43.4417338" lon="10.9028157"><ele>244.0</ele><time>2026-04-04T09:50:37.035Z</time></trkpt><trkpt lat="43.4418875" lon="10.9028976"><ele>244.0</ele><time>2026-04-04T09:50:38.025Z</time></trkpt><trkpt lat="43.4420354" lon="10.9030034"><ele>244.0</ele><time>2026-04-04T09:50:39.032Z</time></trkpt><trkpt lat="43.4421713" lon="10.9031178"><ele>244.0</ele><time>2026-04-04T09:50:40.041Z</time></trkpt><trkpt lat="43.4423049" lon="10.9032346"><ele>244.66666666666666</ele><time>2026-04-04T09:50:41.014Z</time></trkpt><trkpt lat="43.4424374" lon="10.9033551"><ele>245.33333333333331</ele><time>2026-04-04T09:50:42.027Z</time></trkpt><trkpt lat="43.4425665" lon="10.9034734"><ele>246.0</ele><time>2026-04-04T09:50:43.035Z</time></trkpt><trkpt lat="43.4426936" lon="10.9035935"><ele>245.66666666666669</ele><time>2026-04-04T09:50:44.049Z</time></trkpt><trkpt lat="43.4428217" lon="10.9037117"><ele>245.33333333333334</ele><time>2026-04-04T09:50:45.032Z</time></trkpt><trkpt lat="43.4429499" lon="10.9038287"><ele>245.0</ele><time>2026-04-04T09:50:46.02Z</time></trkpt><trkpt lat="43.4430829" lon="10.9039411"><ele>245.0</ele><time>2026-04-04T09:50:47.024Z</time></trkpt><trkpt lat="43.4432188" lon="10.9040549"><ele>245.0</ele><time>2026-04-04T09:50:48.029Z</time></trkpt><trkpt lat="43.4433541" lon="10.9041762"><ele>245.0</ele><time>2026-04-04T09:50:49.013Z</time></trkpt><trkpt lat="43.4434885" lon="10.9042978"><ele>243.33333333333334</ele><time>2026-04-04T09:50:50.029Z</time></trkpt><trkpt lat="43.4436268" lon="10.9044254"><ele>241.66666666666669</ele><time>2026-04-04T09:50:51.03Z</time></trkpt><trkpt lat="43.4437593" lon="10.9045461"><ele>240.0</ele><time>2026-04-04T09:50:52.047Z</time></trkpt><trkpt lat="43.4438736" lon="10.9046518"><ele>242.75</ele><time>2026-04-04T09:50:53.028Z</time></trkpt><trkpt lat="43.4439754" lon="10.9047462"><ele>245.5</ele><time>2026-04-04T09:50:54.035Z</time></trkpt><trkpt lat="43.4440689" lon="10.9048394"><ele>248.25</ele><time>2026-04-04T09:50:55.027Z</time></trkpt><trkpt lat="43.4441519" lon="10.9049317"><ele>251.0</ele><time>2026-04-04T09:50:56.041Z</time></trkpt><trkpt lat="43.4442329" lon="10.905032"><ele>250.25</ele><time>2026-04-04T09:50:57.032Z</time></trkpt><trkpt lat="43.4443064" lon="10.9051478"><ele>249.5</ele><time>2026-04-04T09:50:58.023Z</time></trkpt><trkpt lat="43.4443785" lon="10.9052786"><ele>248.75</ele><time>2026-04-04T09:50:59.025Z</time></trkpt><trkpt lat="43.4444488" lon="10.9054235"><ele>248.0</ele><time>2026-04-04T09:51:00.052Z</time></trkpt><trkpt lat="43.4445199" lon="10.9055787"><ele>248.0</ele><time>2026-04-04T09:51:01.03Z</time></trkpt><trkpt lat="43.4445976" lon="10.9057346"><ele>248.0</ele><time>2026-04-04T09:51:02.026Z</time></trkpt><trkpt lat="43.4446843" lon="10.90588"><ele>248.0</ele><time>2026-04-04T09:51:03.016Z</time></trkpt><trkpt lat="43.4447814" lon="10.9060097"><ele>248.0</ele><time>2026-04-04T09:51:04.03Z</time></trkpt><trkpt lat="43.4448839" lon="10.9061419"><ele>249.0</ele><time>2026-04-04T09:51:05.024Z</time></trkpt><trkpt lat="43.4449857" lon="10.9062758"><ele>250.0</ele><time>2026-04-04T09:51:06.044Z</time></trkpt><trkpt lat="43.4450849" lon="10.9064069"><ele>251.0</ele><time>2026-04-04T09:51:07.032Z</time></trkpt><trkpt lat="43.4451787" lon="10.9065438"><ele>252.0</ele><time>2026-04-04T09:51:08.056Z</time></trkpt><trkpt lat="43.4452719" lon="10.9066855"><ele>251.75</ele><time>2026-04-04T09:51:09.021Z</time></trkpt><trkpt lat="43.4453634" lon="10.9068303"><ele>251.5</ele><time>2026-04-04T09:51:10.032Z</time></trkpt><trkpt lat="43.4454557" lon="10.9069848"><ele>251.25</ele><time>2026-04-04T09:51:11.041Z</time></trkpt><trkpt lat="43.4455499" lon="10.9071446"><ele>251.0</ele><time>2026-04-04T09:51:12.049Z</time></trkpt><trkpt lat="43.4456388" lon="10.9072978"><ele>252.0</ele><time>2026-04-04T09:51:13.025Z</time></trkpt><trkpt lat="43.4457257" lon="10.9074474"><ele>253.0</ele><time>2026-04-04T09:51:14.021Z</time></trkpt><trkpt lat="43.4458219" lon="10.9076012"><ele>254.0</ele><time>2026-04-04T09:51:15.025Z</time></trkpt><trkpt lat="43.445912" lon="10.9077635"><ele>255.0</ele><time>2026-04-04T09:51:16.025Z</time></trkpt><trkpt lat="43.445989" lon="10.9079313"><ele>255.5</ele><time>2026-04-04T09:51:17.035Z</time></trkpt><trkpt lat="43.4460496" lon="10.908108"><ele>256.0</ele><time>2026-04-04T09:51:18.036Z</time></trkpt><trkpt lat="43.4460968" lon="10.908299"><ele>256.5</ele><time>2026-04-04T09:51:19.023Z</time></trkpt><trkpt lat="43.446139" lon="10.9084934"><ele>257.0</ele><time>2026-04-04T09:51:20.018Z</time></trkpt><trkpt lat="43.4461837" lon="10.9086825"><ele>257.25</ele><time>2026-04-04T09:51:21.031Z</time></trkpt><trkpt lat="43.4462371" lon="10.908849"><ele>257.5</ele><time>2026-04-04T09:51:22.028Z</time></trkpt><trkpt lat="43.4462974" lon="10.9089961"><ele>257.75</ele><time>2026-04-04T09:51:23.022Z</time></trkpt><trkpt lat="43.4463447" lon="10.9091365"><ele>258.0</ele><time>2026-04-04T09:51:24.024Z</time></trkpt><trkpt lat="43.4464054" lon="10.9092615"><ele>258.5</ele><time>2026-04-04T09:51:25.034Z</time></trkpt><trkpt lat="43.4464699" lon="10.9093543"><ele>259.0</ele><time>2026-04-04T09:51:26.026Z</time></trkpt><trkpt lat="43.4465395" lon="10.909412"><ele>259.5</ele><time>2026-04-04T09:51:27.026Z</time></trkpt><trkpt lat="43.4466236" lon="10.909471"><ele>260.0</ele><time>2026-04-04T09:51:28.034Z</time></trkpt><trkpt lat="43.44671" lon="10.9095043"><ele>260.5</ele><time>2026-04-04T09:51:29.034Z</time></trkpt><trkpt lat="43.4467963" lon="10.9095193"><ele>261.0</ele><time>2026-04-04T09:51:30.055Z</time></trkpt><trkpt lat="43.4468958" lon="10.9095519"><ele>261.0</ele><time>2026-04-04T09:51:31.028Z</time></trkpt><trkpt lat="43.4470027" lon="10.9095913"><ele>261.0</ele><time>2026-04-04T09:51:32.051Z</time></trkpt><trkpt lat="43.447111" lon="10.9096426"><ele>261.0</ele><time>2026-04-04T09:51:33.023Z</time></trkpt><trkpt lat="43.4472275" lon="10.9096941"><ele>261.0</ele><time>2026-04-04T09:51:34.045Z</time></trkpt><trkpt lat="43.4473416" lon="10.9097543"><ele>262.5</ele><time>2026-04-04T09:51:35.026Z</time></trkpt><trkpt lat="43.4474632" lon="10.9098326"><ele>264.0</ele><time>2026-04-04T09:51:36.044Z</time></trkpt><trkpt lat="43.4475912" lon="10.9099155"><ele>265.5</ele><time>2026-04-04T09:51:37.03Z</time></trkpt><trkpt lat="43.447722" lon="10.9099943"><ele>267.0</ele><time>2026-04-04T09:51:38.037Z</time></trkpt><trkpt lat="43.4478571" lon="10.910071"><ele>268.25</ele><time>2026-04-04T09:51:39.016Z</time></trkpt><trkpt lat="43.4479909" lon="10.9101433"><ele>269.5</ele><time>2026-04-04T09:51:40.047Z</time></trkpt><trkpt lat="43.4481195" lon="10.9102161"><ele>270.75</ele><time>2026-04-04T09:51:41.024Z</time></trkpt><trkpt lat="43.4482438" lon="10.910305"><ele>272.0</ele><time>2026-04-04T09:51:42.034Z</time></trkpt><trkpt lat="43.4483604" lon="10.9104022"><ele>272.0</ele><time>2026-04-04T09:51:43.027Z</time></trkpt><trkpt lat="43.4484792" lon="10.9105135"><ele>272.0</ele><time>2026-04-04T09:51:44.034Z</time></trkpt><trkpt lat="43.4486006" lon="10.9106166"><ele>272.0</ele><time>2026-04-04T09:51:45.012Z</time></trkpt><trkpt lat="43.4487273" lon="10.9107086"><ele>272.0</ele><time>2026-04-04T09:51:46.031Z</time></trkpt><trkpt lat="43.4488619" lon="10.910782"><ele>272.33333333333337</ele><time>2026-04-04T09:51:47.023Z</time></trkpt><trkpt lat="43.449003" lon="10.9108394"><ele>272.6666666666667</ele><time>2026-04-04T09:51:48.052Z</time></trkpt><trkpt lat="43.4491476" lon="10.9108923"><ele>273.0</ele><time>2026-04-04T09:51:49.016Z</time></trkpt><trkpt lat="43.4492963" lon="10.9109552"><ele>273.0</ele><time>2026-04-04T09:51:50.042Z</time></trkpt><trkpt lat="43.4494448" lon="10.9110225"><ele>273.0</ele><time>2026-04-04T09:51:51.015Z</time></trkpt><trkpt lat="43.4495927" lon="10.911096"><ele>273.0</ele><time>2026-04-04T09:51:52.027Z</time></trkpt><trkpt lat="43.4497381" lon="10.9111765"><ele>274.6666666666667</ele><time>2026-04-04T09:51:53.021Z</time></trkpt><trkpt lat="43.4498861" lon="10.9112536"><ele>276.33333333333337</ele><time>2026-04-04T09:51:54.067Z</time></trkpt><trkpt lat="43.4500356" lon="10.9113329"><ele>278.0</ele><time>2026-04-04T09:51:55.019Z</time></trkpt><trkpt lat="43.4501833" lon="10.911417"><ele>278.0</ele><time>2026-04-04T09:51:56.028Z</time></trkpt><trkpt lat="43.4503252" lon="10.9115009"><ele>278.0</ele><time>2026-04-04T09:51:57.019Z</time></trkpt><trkpt lat="43.4504554" lon="10.9115897"><ele>278.0</ele><time>2026-04-04T09:51:58.036Z</time></trkpt><trkpt lat="43.4505689" lon="10.9116925"><ele>278.0</ele><time>2026-04-04T09:51:59.016Z</time></trkpt><trkpt lat="43.4506675" lon="10.9118085"><ele>279.0</ele><time>2026-04-04T09:52:00.055Z</time></trkpt><trkpt lat="43.450756" lon="10.9119212"><ele>280.0</ele><time>2026-04-04T09:52:01.035Z</time></trkpt><trkpt lat="43.4508509" lon="10.9119932"><ele>281.0</ele><time>2026-04-04T09:52:02.031Z</time></trkpt><trkpt lat="43.450941" lon="10.9120225"><ele>282.0</ele><time>2026-04-04T09:52:03.024Z</time></trkpt><trkpt lat="43.4510315" lon="10.9120107"><ele>283.0</ele><time>2026-04-04T09:52:04.03Z</time></trkpt><trkpt lat="43.451132" lon="10.911997"><ele>283.0</ele><time>2026-04-04T09:52:05.034Z</time></trkpt><trkpt lat="43.4512423" lon="10.9120126"><ele>283.0</ele><time>2026-04-04T09:52:06.037Z</time></trkpt><trkpt lat="43.4513594" lon="10.9120681"><ele>283.0</ele><time>2026-04-04T09:52:07.031Z</time></trkpt><trkpt lat="43.451488" lon="10.9121142"><ele>283.0</ele><time>2026-04-04T09:52:08.048Z</time></trkpt><trkpt lat="43.4516214" lon="10.9121434"><ele>283.8</ele><time>2026-04-04T09:52:09.022Z</time></trkpt><trkpt lat="43.4517551" lon="10.9121541"><ele>284.6</ele><time>2026-04-04T09:52:10.046Z</time></trkpt><trkpt lat="43.451873" lon="10.9121562"><ele>285.4</ele><time>2026-04-04T09:52:11.029Z</time></trkpt><trkpt lat="43.4519705" lon="10.9121572"><ele>286.2</ele><time>2026-04-04T09:52:12.041Z</time></trkpt><trkpt lat="43.452048" lon="10.9121593"><ele>287.0</ele><time>2026-04-04T09:52:13.03Z</time></trkpt><trkpt lat="43.4521179" lon="10.9121657"><ele>287.83333333333337</ele><time>2026-04-04T09:52:14.033Z</time></trkpt><trkpt lat="43.4521874" lon="10.9121723"><ele>288.6666666666667</ele><time>2026-04-04T09:52:15.036Z</time></trkpt><trkpt lat="43.45226" lon="10.9121861"><ele>289.5</ele><time>2026-04-04T09:52:16.029Z</time></trkpt><trkpt lat="43.4523348" lon="10.9122074"><ele>290.3333333333333</ele><time>2026-04-04T09:52:17.024Z</time></trkpt><trkpt lat="43.4524086" lon="10.912236"><ele>291.16666666666663</ele><time>2026-04-04T09:52:18.048Z</time></trkpt><trkpt lat="43.4524929" lon="10.9122697"><ele>292.0</ele><time>2026-04-04T09:52:19.033Z</time></trkpt><trkpt lat="43.4525779" lon="10.9123212"><ele>292.0</ele><time>2026-04-04T09:52:20.03Z</time></trkpt><trkpt lat="43.4526726" lon="10.912361"><ele>292.0</ele><time>2026-04-04T09:52:21.023Z</time></trkpt><trkpt lat="43.4527729" lon="10.9123651"><ele>292.0</ele><time>2026-04-04T09:52:22.028Z</time></trkpt><trkpt lat="43.452879" lon="10.9123365"><ele>292.0</ele><time>2026-04-04T09:52:23.021Z</time></trkpt><trkpt lat="43.4529866" lon="10.9123029"><ele>292.0</ele><time>2026-04-04T09:52:24.036Z</time></trkpt><trkpt lat="43.4530979" lon="10.9122687"><ele>292.4</ele><time>2026-04-04T09:52:25.018Z</time></trkpt><trkpt lat="43.4532097" lon="10.9122346"><ele>292.79999999999995</ele><time>2026-04-04T09:52:26.036Z</time></trkpt><trkpt lat="43.4533222" lon="10.9122023"><ele>293.2</ele><time>2026-04-04T09:52:27.019Z</time></trkpt><trkpt lat="43.4534262" lon="10.9121759"><ele>293.59999999999997</ele><time>2026-04-04T09:52:28.04Z</time></trkpt><trkpt lat="43.4535156" lon="10.9121606"><ele>294.0</ele><time>2026-04-04T09:52:29.029Z</time></trkpt><trkpt lat="43.4536054" lon="10.9121545"><ele>294.0</ele><time>2026-04-04T09:52:30.036Z</time></trkpt><trkpt lat="43.4536924" lon="10.9121547"><ele>294.0</ele><time>2026-04-04T09:52:31.022Z</time></trkpt><trkpt lat="43.4537723" lon="10.9121703"><ele>294.0</ele><time>2026-04-04T09:52:32.04Z</time></trkpt><trkpt lat="43.4538404" lon="10.9121909"><ele>294.0</ele><time>2026-04-04T09:52:33.024Z</time></trkpt><trkpt lat="43.4539117" lon="10.9122277"><ele>294.0</ele><time>2026-04-04T09:52:34.031Z</time></trkpt><trkpt lat="43.4539894" lon="10.9122554"><ele>294.0</ele><time>2026-04-04T09:52:35.026Z</time></trkpt><trkpt lat="43.4540806" lon="10.9122776"><ele>293.59999999999997</ele><time>2026-04-04T09:52:36.039Z</time></trkpt><trkpt lat="43.4541781" lon="10.912291"><ele>293.2</ele><time>2026-04-04T09:52:37.016Z</time></trkpt><trkpt lat="43.4542791" lon="10.912299"><ele>292.79999999999995</ele><time>2026-04-04T09:52:38.045Z</time></trkpt><trkpt lat="43.4543788" lon="10.9122973"><ele>292.4</ele><time>2026-04-04T09:52:39.028Z</time></trkpt><trkpt lat="43.4544785" lon="10.9122828"><ele>292.0</ele><time>2026-04-04T09:52:40.021Z</time></trkpt><trkpt lat="43.4545809" lon="10.9122563"><ele>290.0</ele><time>2026-04-04T09:52:41.011Z</time></trkpt><trkpt lat="43.454683" lon="10.9122127"><ele>288.0</ele><time>2026-04-04T09:52:42.01Z</time></trkpt><trkpt lat="43.4547857" lon="10.9121535"><ele>286.0</ele><time>2026-04-04T09:52:43.023Z</time></trkpt><trkpt lat="43.4548848" lon="10.9120922"><ele>284.0</ele><time>2026-04-04T09:52:44.022Z</time></trkpt><trkpt lat="43.454978" lon="10.91204"><ele>282.0</ele><time>2026-04-04T09:52:45.018Z</time></trkpt><trkpt lat="43.4550745" lon="10.9120091"><ele>282.0</ele><time>2026-04-04T09:52:46.011Z</time></trkpt><trkpt lat="43.4551767" lon="10.9119877"><ele>282.0</ele><time>2026-04-04T09:52:47.021Z</time></trkpt><trkpt lat="43.4552743" lon="10.911977"><ele>282.0</ele><time>2026-04-04T09:52:48.011Z</time></trkpt><trkpt lat="43.4553672" lon="10.9119619"><ele>282.0</ele><time>2026-04-04T09:52:49.022Z</time></trkpt><trkpt lat="43.4554585" lon="10.9119418"><ele>282.0</ele><time>2026-04-04T09:52:50.011Z</time></trkpt><trkpt lat="43.455545" lon="10.9119185"><ele>280.6666666666667</ele><time>2026-04-04T09:52:51.031Z</time></trkpt><trkpt lat="43.4556276" lon="10.9118916"><ele>279.3333333333333</ele><time>2026-04-04T09:52:52.023Z</time></trkpt><trkpt lat="43.4557096" lon="10.9118619"><ele>278.0</ele><time>2026-04-04T09:52:53.013Z</time></trkpt><trkpt lat="43.4557896" lon="10.9118275"><ele>276.66666666666663</ele><time>2026-04-04T09:52:54.021Z</time></trkpt><trkpt lat="43.4558693" lon="10.9117903"><ele>275.3333333333333</ele><time>2026-04-04T09:52:55.016Z</time></trkpt><trkpt lat="43.4559485" lon="10.911755"><ele>274.0</ele><time>2026-04-04T09:52:56.008Z</time></trkpt><trkpt lat="43.4560259" lon="10.9117152"><ele>274.0</ele><time>2026-04-04T09:52:57.012Z</time></trkpt><trkpt lat="43.456102" lon="10.9116798"><ele>274.0</ele><time>2026-04-04T09:52:58.012Z</time></trkpt><trkpt lat="43.4561694" lon="10.9116455"><ele>274.0</ele><time>2026-04-04T09:52:59.02Z</time></trkpt><trkpt lat="43.4562277" lon="10.9116081"><ele>274.0</ele><time>2026-04-04T09:53:00.014Z</time></trkpt><trkpt lat="43.4563091" lon="10.9115134"><ele>274.0</ele><time>2026-04-04T09:53:02.01Z</time></trkpt><trkpt lat="43.4563413" lon="10.9114227"><ele>274.0</ele><time>2026-04-04T09:53:04.016Z</time></trkpt><trkpt lat="43.4563272" lon="10.911337"><ele>274.0</ele><time>2026-04-04T09:53:07.016Z</time></trkpt><trkpt lat="43.4562771" lon="10.911274"><ele>274.0</ele><time>2026-04-04T09:53:46.037Z</time></trkpt><trkpt lat="43.456215" lon="10.9111487"><ele>274.0</ele><time>2026-04-04T09:53:48.018Z</time></trkpt><trkpt lat="43.4561733" lon="10.911071"><ele>274.0</ele><time>2026-04-04T09:53:49.035Z</time></trkpt><trkpt lat="43.4561339" lon="10.9109611"><ele>274.0</ele><time>2026-04-04T09:53:50.025Z</time></trkpt><trkpt lat="43.4560961" lon="10.9108358"><ele>274.0</ele><time>2026-04-04T09:53:51.028Z</time></trkpt><trkpt lat="43.4560653" lon="10.9106912"><ele>274.25</ele><time>2026-04-04T09:53:52.022Z</time></trkpt><trkpt lat="43.4560289" lon="10.9105372"><ele>274.5</ele><time>2026-04-04T09:53:53.019Z</time></trkpt><trkpt lat="43.4559869" lon="10.9103701"><ele>274.75</ele><time>2026-04-04T09:53:54.047Z</time></trkpt><trkpt lat="43.4559451" lon="10.910195"><ele>275.0</ele><time>2026-04-04T09:53:55.024Z</time></trkpt><trkpt lat="43.455899" lon="10.9100101"><ele>275.25</ele><time>2026-04-04T09:53:56.004Z</time></trkpt><trkpt lat="43.4558534" lon="10.9098243"><ele>275.5</ele><time>2026-04-04T09:53:57.034Z</time></trkpt><trkpt lat="43.4558065" lon="10.9096299"><ele>275.75</ele><time>2026-04-04T09:53:58.034Z</time></trkpt><trkpt lat="43.4557586" lon="10.9094348"><ele>276.0</ele><time>2026-04-04T09:53:59.024Z</time></trkpt><trkpt lat="43.4557078" lon="10.9092358"><ele>276.6666666666667</ele><time>2026-04-04T09:54:00.041Z</time></trkpt><trkpt lat="43.4556568" lon="10.9090398"><ele>277.33333333333337</ele><time>2026-04-04T09:54:01.022Z</time></trkpt><trkpt lat="43.4556068" lon="10.9088425"><ele>278.0</ele><time>2026-04-04T09:54:02.014Z</time></trkpt><trkpt lat="43.4555599" lon="10.9086496"><ele>278.0</ele><time>2026-04-04T09:54:03.028Z</time></trkpt><trkpt lat="43.4555129" lon="10.9084619"><ele>278.0</ele><time>2026-04-04T09:54:04.031Z</time></trkpt><trkpt lat="43.4554668" lon="10.9082824"><ele>278.0</ele><time>2026-04-04T09:54:05.022Z</time></trkpt><trkpt lat="43.4554266" lon="10.9081024"><ele>278.0</ele><time>2026-04-04T09:54:06.029Z</time></trkpt><trkpt lat="43.4553995" lon="10.9079204"><ele>279.75</ele><time>2026-04-04T09:54:07.033Z</time></trkpt><trkpt lat="43.4553895" lon="10.9077391"><ele>281.5</ele><time>2026-04-04T09:54:08.041Z</time></trkpt><trkpt lat="43.4553994" lon="10.9075531"><ele>283.25</ele><time>2026-04-04T09:54:09.029Z</time></trkpt><trkpt lat="43.4554329" lon="10.9073686"><ele>285.0</ele><time>2026-04-04T09:54:10.04Z</time></trkpt><trkpt lat="43.4554692" lon="10.9071887"><ele>285.0</ele><time>2026-04-04T09:54:11.027Z</time></trkpt><trkpt lat="43.4555103" lon="10.9070044"><ele>285.0</ele><time>2026-04-04T09:54:12.026Z</time></trkpt><trkpt lat="43.4555499" lon="10.9068246"><ele>285.0</ele><time>2026-04-04T09:54:13.035Z</time></trkpt><trkpt lat="43.4555866" lon="10.9066436"><ele>285.0</ele><time>2026-04-04T09:54:14.024Z</time></trkpt><trkpt lat="43.4556269" lon="10.9064723"><ele>286.0</ele><time>2026-04-04T09:54:15.025Z</time></trkpt><trkpt lat="43.4556662" lon="10.9062977"><ele>287.0</ele><time>2026-04-04T09:54:16.015Z</time></trkpt><trkpt lat="43.4557058" lon="10.906119"><ele>288.0</ele><time>2026-04-04T09:54:17.048Z</time></trkpt><trkpt lat="43.4557423" lon="10.9059372"><ele>289.0</ele><time>2026-04-04T09:54:18.003Z</time></trkpt><trkpt lat="43.4557742" lon="10.9057507"><ele>289.75</ele><time>2026-04-04T09:54:19.036Z</time></trkpt><trkpt lat="43.4558048" lon="10.9055671"><ele>290.5</ele><time>2026-04-04T09:54:20.029Z</time></trkpt><trkpt lat="43.4558373" lon="10.9053874"><ele>291.25</ele><time>2026-04-04T09:54:21.01Z</time></trkpt><trkpt lat="43.4558715" lon="10.9052131"><ele>292.0</ele><time>2026-04-04T09:54:22.013Z</time></trkpt><trkpt lat="43.4559043" lon="10.9050501"><ele>294.25</ele><time>2026-04-04T09:54:23.027Z</time></trkpt><trkpt lat="43.4559488" lon="10.9049015"><ele>296.5</ele><time>2026-04-04T09:54:24.047Z</time></trkpt><trkpt lat="43.456019" lon="10.9047725"><ele>298.75</ele><time>2026-04-04T09:54:25.024Z</time></trkpt><trkpt lat="43.4561061" lon="10.9046668"><ele>301.0</ele><time>2026-04-04T09:54:26.025Z</time></trkpt><trkpt lat="43.4562139" lon="10.904586"><ele>299.25</ele><time>2026-04-04T09:54:27.011Z</time></trkpt><trkpt lat="43.4563319" lon="10.9045249"><ele>297.5</ele><time>2026-04-04T09:54:28.031Z</time></trkpt><trkpt lat="43.4564597" lon="10.9044845"><ele>295.75</ele><time>2026-04-04T09:54:29.022Z</time></trkpt><trkpt lat="43.4565897" lon="10.9044385"><ele>294.0</ele><time>2026-04-04T09:54:30.019Z</time></trkpt><trkpt lat="43.4567216" lon="10.9043912"><ele>294.0</ele><time>2026-04-04T09:54:31.026Z</time></trkpt><trkpt lat="43.4568521" lon="10.9043267"><ele>294.0</ele><time>2026-04-04T09:54:32.042Z</time></trkpt><trkpt lat="43.4569822" lon="10.9042782"><ele>294.0</ele><time>2026-04-04T09:54:33.031Z</time></trkpt><trkpt lat="43.457114" lon="10.9042261"><ele>294.0</ele><time>2026-04-04T09:54:34.025Z</time></trkpt><trkpt lat="43.4572437" lon="10.9041786"><ele>296.25</ele><time>2026-04-04T09:54:35.021Z</time></trkpt><trkpt lat="43.4573599" lon="10.9041281"><ele>298.5</ele><time>2026-04-04T09:54:36.026Z</time></trkpt><trkpt lat="43.4574709" lon="10.9040663"><ele>300.75</ele><time>2026-04-04T09:54:37.022Z</time></trkpt><trkpt lat="43.4575659" lon="10.9039772"><ele>303.0</ele><time>2026-04-04T09:54:38.012Z</time></trkpt><trkpt lat="43.4576539" lon="10.9038633"><ele>303.0</ele><time>2026-04-04T09:54:39.03Z</time></trkpt><trkpt lat="43.4577292" lon="10.9037204"><ele>303.0</ele><time>2026-04-04T09:54:40.033Z</time></trkpt><trkpt lat="43.4577852" lon="10.9035668"><ele>303.0</ele><time>2026-04-04T09:54:41.022Z</time></trkpt><trkpt lat="43.4578206" lon="10.9034099"><ele>303.0</ele><time>2026-04-04T09:54:42.011Z</time></trkpt><trkpt lat="43.4578403" lon="10.9032694"><ele>303.25</ele><time>2026-04-04T09:54:43.015Z</time></trkpt><trkpt lat="43.4578304" lon="10.9031163"><ele>303.5</ele><time>2026-04-04T09:54:44.022Z</time></trkpt><trkpt lat="43.4577972" lon="10.9029752"><ele>303.75</ele><time>2026-04-04T09:54:45.01Z</time></trkpt><trkpt lat="43.457746" lon="10.9028285"><ele>304.0</ele><time>2026-04-04T09:54:46.022Z</time></trkpt><trkpt lat="43.4576912" lon="10.9026665"><ele>301.75</ele><time>2026-04-04T09:54:47.02Z</time></trkpt><trkpt lat="43.4576338" lon="10.9025031"><ele>299.5</ele><time>2026-04-04T09:54:48.035Z</time></trkpt><trkpt lat="43.4575804" lon="10.9023373"><ele>297.25</ele><time>2026-04-04T09:54:49.034Z</time></trkpt><trkpt lat="43.4575215" lon="10.9021761"><ele>295.0</ele><time>2026-04-04T09:54:50.049Z</time></trkpt><trkpt lat="43.4574554" lon="10.9020265"><ele>295.0</ele><time>2026-04-04T09:54:51.02Z</time></trkpt><trkpt lat="43.4573797" lon="10.901889"><ele>295.0</ele><time>2026-04-04T09:54:52.05Z</time></trkpt><trkpt lat="43.4572944" lon="10.9017558"><ele>295.0</ele><time>2026-04-04T09:54:53.016Z</time></trkpt><trkpt lat="43.4572025" lon="10.9016277"><ele>295.0</ele><time>2026-04-04T09:54:54.031Z</time></trkpt><trkpt lat="43.4571049" lon="10.9014963"><ele>294.5</ele><time>2026-04-04T09:54:55.031Z</time></trkpt><trkpt lat="43.4570026" lon="10.9013575"><ele>294.0</ele><time>2026-04-04T09:54:56.023Z</time></trkpt><trkpt lat="43.4569016" lon="10.9012164"><ele>293.5</ele><time>2026-04-04T09:54:57.014Z</time></trkpt><trkpt lat="43.4567956" lon="10.9010824"><ele>293.0</ele><time>2026-04-04T09:54:58.011Z</time></trkpt><trkpt lat="43.4566964" lon="10.9009418"><ele>289.33333333333337</ele><time>2026-04-04T09:54:59.021Z</time></trkpt><trkpt lat="43.456589" lon="10.9007951"><ele>285.6666666666667</ele><time>2026-04-04T09:55:00.044Z</time></trkpt><trkpt lat="43.4564825" lon="10.900644"><ele>282.0</ele><time>2026-04-04T09:55:01.015Z</time></trkpt><trkpt lat="43.4563826" lon="10.9004798"><ele>283.0</ele><time>2026-04-04T09:55:02.031Z</time></trkpt><trkpt lat="43.4562789" lon="10.9003247"><ele>284.0</ele><time>2026-04-04T09:55:03.033Z</time></trkpt><trkpt lat="43.4561689" lon="10.900175"><ele>285.0</ele><time>2026-04-04T09:55:04.04Z</time></trkpt><trkpt lat="43.456059" lon="10.900027"><ele>285.0</ele><time>2026-04-04T09:55:05.013Z</time></trkpt><trkpt lat="43.455948" lon="10.8998783"><ele>285.0</ele><time>2026-04-04T09:55:06.035Z</time></trkpt><trkpt lat="43.455838" lon="10.8997321"><ele>285.0</ele><time>2026-04-04T09:55:07.01Z</time></trkpt><trkpt lat="43.4557331" lon="10.8995835"><ele>285.0</ele><time>2026-04-04T09:55:08.028Z</time></trkpt><trkpt lat="43.4556289" lon="10.8994395"><ele>285.0</ele><time>2026-04-04T09:55:09.02Z</time></trkpt><trkpt lat="43.455528" lon="10.89929"><ele>285.0</ele><time>2026-04-04T09:55:10.019Z</time></trkpt><trkpt lat="43.4554353" lon="10.8991423"><ele>285.0</ele><time>2026-04-04T09:55:11.008Z</time></trkpt><trkpt lat="43.4553554" lon="10.8989831"><ele>285.5</ele><time>2026-04-04T09:55:12.02Z</time></trkpt><trkpt lat="43.4552918" lon="10.8988143"><ele>286.0</ele><time>2026-04-04T09:55:13.015Z</time></trkpt><trkpt lat="43.455247" lon="10.8986368"><ele>286.5</ele><time>2026-04-04T09:55:14.023Z</time></trkpt><trkpt lat="43.4552302" lon="10.8984506"><ele>287.0</ele><time>2026-04-04T09:55:15.01Z</time></trkpt><trkpt lat="43.4552339" lon="10.8982554"><ele>287.0</ele><time>2026-04-04T09:55:16.01Z</time></trkpt><trkpt lat="43.4552518" lon="10.8980515"><ele>287.0</ele><time>2026-04-04T09:55:17.021Z</time></trkpt><trkpt lat="43.4552658" lon="10.8978355"><ele>287.0</ele><time>2026-04-04T09:55:18.022Z</time></trkpt><trkpt lat="43.4552797" lon="10.8976313"><ele>287.0</ele><time>2026-04-04T09:55:19.018Z</time></trkpt><trkpt lat="43.455294" lon="10.8974306"><ele>287.0</ele><time>2026-04-04T09:55:20.004Z</time></trkpt><trkpt lat="43.4553074" lon="10.8972259"><ele>287.0</ele><time>2026-04-04T09:55:21.023Z</time></trkpt><trkpt lat="43.4553248" lon="10.8970329"><ele>287.0</ele><time>2026-04-04T09:55:22.026Z</time></trkpt><trkpt lat="43.4553401" lon="10.8968517"><ele>286.25</ele><time>2026-04-04T09:55:23.016Z</time></trkpt><trkpt lat="43.4553551" lon="10.8966782"><ele>285.5</ele><time>2026-04-04T09:55:24.041Z</time></trkpt><trkpt lat="43.4553689" lon="10.8965009"><ele>284.75</ele><time>2026-04-04T09:55:25.03Z</time></trkpt><trkpt lat="43.4553776" lon="10.8963165"><ele>284.0</ele><time>2026-04-04T09:55:26.041Z</time></trkpt><trkpt lat="43.4553748" lon="10.896125"><ele>284.0</ele><time>2026-04-04T09:55:27.028Z</time></trkpt><trkpt lat="43.4553626" lon="10.895934"><ele>284.0</ele><time>2026-04-04T09:55:28.025Z</time></trkpt><trkpt lat="43.455345" lon="10.8957511"><ele>284.0</ele><time>2026-04-04T09:55:29.017Z</time></trkpt><trkpt lat="43.455331" lon="10.8955644"><ele>284.0</ele><time>2026-04-04T09:55:30.021Z</time></trkpt><trkpt lat="43.4553298" lon="10.8953762"><ele>283.75</ele><time>2026-04-04T09:55:31.022Z</time></trkpt><trkpt lat="43.4553408" lon="10.895183"><ele>283.5</ele><time>2026-04-04T09:55:32.028Z</time></trkpt><trkpt lat="43.4553565" lon="10.8949839"><ele>283.25</ele><time>2026-04-04T09:55:33.026Z</time></trkpt><trkpt lat="43.4553661" lon="10.8947779"><ele>283.0</ele><time>2026-04-04T09:55:34.035Z</time></trkpt><trkpt lat="43.4553703" lon="10.8945716"><ele>282.25</ele><time>2026-04-04T09:55:35.027Z</time></trkpt><trkpt lat="43.4553678" lon="10.8943745"><ele>281.5</ele><time>2026-04-04T09:55:36.027Z</time></trkpt><trkpt lat="43.4553657" lon="10.894192"><ele>280.75</ele><time>2026-04-04T09:55:37.031Z</time></trkpt><trkpt lat="43.4553582" lon="10.8940344"><ele>280.0</ele><time>2026-04-04T09:55:38.031Z</time></trkpt><trkpt lat="43.455339" lon="10.893882"><ele>278.5</ele><time>2026-04-04T09:55:39.017Z</time></trkpt><trkpt lat="43.455308" lon="10.8937277"><ele>277.0</ele><time>2026-04-04T09:55:40.026Z</time></trkpt><trkpt lat="43.455265" lon="10.8935664"><ele>275.5</ele><time>2026-04-04T09:55:41.013Z</time></trkpt><trkpt lat="43.455213" lon="10.8934015"><ele>274.0</ele><time>2026-04-04T09:55:42.017Z</time></trkpt><trkpt lat="43.4551601" lon="10.8932333"><ele>271.5</ele><time>2026-04-04T09:55:43.03Z</time></trkpt><trkpt lat="43.4551053" lon="10.8930587"><ele>269.0</ele><time>2026-04-04T09:55:44.043Z</time></trkpt><trkpt lat="43.4550519" lon="10.8928935"><ele>266.5</ele><time>2026-04-04T09:55:45.018Z</time></trkpt><trkpt lat="43.4550018" lon="10.8927485"><ele>264.0</ele><time>2026-04-04T09:55:46.027Z</time></trkpt><trkpt lat="43.4549426" lon="10.8926305"><ele>262.8333333333333</ele><time>2026-04-04T09:55:47.019Z</time></trkpt><trkpt lat="43.454878" lon="10.8925304"><ele>261.6666666666667</ele><time>2026-04-04T09:55:48.037Z</time></trkpt><trkpt lat="43.4548059" lon="10.8924531"><ele>260.5</ele><time>2026-04-04T09:55:49.016Z</time></trkpt><trkpt lat="43.4547442" lon="10.8923882"><ele>259.33333333333337</ele><time>2026-04-04T09:55:50.028Z</time></trkpt><trkpt lat="43.4546831" lon="10.892354"><ele>258.1666666666667</ele><time>2026-04-04T09:55:51.021Z</time></trkpt><trkpt lat="43.4546057" lon="10.8923356"><ele>257.0</ele><time>2026-04-04T09:55:52.011Z</time></trkpt><trkpt lat="43.4545104" lon="10.8923295"><ele>256.8</ele><time>2026-04-04T09:55:53.019Z</time></trkpt><trkpt lat="43.4544094" lon="10.8923232"><ele>256.6</ele><time>2026-04-04T09:55:54.01Z</time></trkpt><trkpt lat="43.4543106" lon="10.8923101"><ele>256.40000000000003</ele><time>2026-04-04T09:55:55.028Z</time></trkpt><trkpt lat="43.4542054" lon="10.8923025"><ele>256.2</ele><time>2026-04-04T09:55:56.033Z</time></trkpt><trkpt lat="43.4541021" lon="10.8922971"><ele>256.0</ele><time>2026-04-04T09:55:57.017Z</time></trkpt><trkpt lat="43.4540048" lon="10.892324"><ele>256.0</ele><time>2026-04-04T09:55:58.025Z</time></trkpt><trkpt lat="43.4539217" lon="10.8923874"><ele>256.0</ele><time>2026-04-04T09:55:59.03Z</time></trkpt><trkpt lat="43.4538611" lon="10.8924833"><ele>256.0</ele><time>2026-04-04T09:56:00.017Z</time></trkpt><trkpt lat="43.4538126" lon="10.8926121"><ele>256.0</ele><time>2026-04-04T09:56:01.019Z</time></trkpt><trkpt lat="43.4537717" lon="10.8927393"><ele>256.0</ele><time>2026-04-04T09:56:02.035Z</time></trkpt><trkpt lat="43.4537215" lon="10.8928456"><ele>255.8</ele><time>2026-04-04T09:56:03.021Z</time></trkpt><trkpt lat="43.4536577" lon="10.8929282"><ele>255.60000000000002</ele><time>2026-04-04T09:56:04.042Z</time></trkpt><trkpt lat="43.4535765" lon="10.8929783"><ele>255.4</ele><time>2026-04-04T09:56:05.02Z</time></trkpt><trkpt lat="43.4534855" lon="10.8929764"><ele>255.2</ele><time>2026-04-04T09:56:06.026Z</time></trkpt><trkpt lat="43.4533967" lon="10.8929422"><ele>255.0</ele><time>2026-04-04T09:56:07.028Z</time></trkpt><trkpt lat="43.453301" lon="10.892882"><ele>255.0</ele><time>2026-04-04T09:56:08.032Z</time></trkpt><trkpt lat="43.4532114" lon="10.8928199"><ele>255.0</ele><time>2026-04-04T09:56:09.021Z</time></trkpt><trkpt lat="43.4531196" lon="10.8927956"><ele>255.0</ele><time>2026-04-04T09:56:10.032Z</time></trkpt><trkpt lat="43.4530247" lon="10.8928018"><ele>255.0</ele><time>2026-04-04T09:56:11.018Z</time></trkpt><trkpt lat="43.4529254" lon="10.8928317"><ele>255.0</ele><time>2026-04-04T09:56:12.031Z</time></trkpt><trkpt lat="43.452825" lon="10.8928699"><ele>252.8</ele><time>2026-04-04T09:56:13.023Z</time></trkpt><trkpt lat="43.4527251" lon="10.8929314"><ele>250.6</ele><time>2026-04-04T09:56:14.025Z</time></trkpt><trkpt lat="43.4526278" lon="10.8929769"><ele>248.39999999999998</ele><time>2026-04-04T09:56:15.012Z</time></trkpt><trkpt lat="43.4525358" lon="10.8930241"><ele>246.2</ele><time>2026-04-04T09:56:16.03Z</time></trkpt><trkpt lat="43.452451" lon="10.8930598"><ele>244.0</ele><time>2026-04-04T09:56:17.022Z</time></trkpt><trkpt lat="43.452375" lon="10.8930899"><ele>243.99999999999997</ele><time>2026-04-04T09:56:18.025Z</time></trkpt><trkpt lat="43.4522558" lon="10.8931283"><ele>244.0</ele><time>2026-04-04T09:56:20.032Z</time></trkpt><trkpt lat="43.452147" lon="10.8930997"><ele>244.0</ele><time>2026-04-04T09:56:22.028Z</time></trkpt><trkpt lat="43.4520914" lon="10.8930568"><ele>244.0</ele><time>2026-04-04T09:56:23.023Z</time></trkpt><trkpt lat="43.452044" lon="10.8929941"><ele>243.99999999999997</ele><time>2026-04-04T09:56:24.027Z</time></trkpt><trkpt lat="43.452011" lon="10.8929111"><ele>244.0</ele><time>2026-04-04T09:56:25.029Z</time></trkpt><trkpt lat="43.4519935" lon="10.8927982"><ele>241.49999999999997</ele><time>2026-04-04T09:56:26.036Z</time></trkpt><trkpt lat="43.4519871" lon="10.8926714"><ele>239.0</ele><time>2026-04-04T09:56:27.022Z</time></trkpt><trkpt lat="43.4519916" lon="10.8925419"><ele>236.5</ele><time>2026-04-04T09:56:28.014Z</time></trkpt><trkpt lat="43.4520056" lon="10.8924215"><ele>234.0</ele><time>2026-04-04T09:56:29.02Z</time></trkpt><trkpt lat="43.4520172" lon="10.8923087"><ele>231.49999999999997</ele><time>2026-04-04T09:56:30.028Z</time></trkpt><trkpt lat="43.4520224" lon="10.8921967"><ele>229.0</ele><time>2026-04-04T09:56:31.028Z</time></trkpt><trkpt lat="43.4520069" lon="10.8920807"><ele>228.66666666666666</ele><time>2026-04-04T09:56:32.039Z</time></trkpt><trkpt lat="43.4519784" lon="10.8919735"><ele>228.33333333333331</ele><time>2026-04-04T09:56:33.014Z</time></trkpt><trkpt lat="43.4519371" lon="10.8918773"><ele>228.0</ele><time>2026-04-04T09:56:34.039Z</time></trkpt><trkpt lat="43.4518813" lon="10.8917876"><ele>227.66666666666669</ele><time>2026-04-04T09:56:35.022Z</time></trkpt><trkpt lat="43.4518182" lon="10.8917085"><ele>227.33333333333334</ele><time>2026-04-04T09:56:36.026Z</time></trkpt><trkpt lat="43.4517382" lon="10.8916325"><ele>227.0</ele><time>2026-04-04T09:56:37.026Z</time></trkpt><trkpt lat="43.451649" lon="10.8915519"><ele>226.5</ele><time>2026-04-04T09:56:38.023Z</time></trkpt><trkpt lat="43.45155" lon="10.8914673"><ele>226.0</ele><time>2026-04-04T09:56:39.016Z</time></trkpt><trkpt lat="43.4514485" lon="10.8913731"><ele>225.5</ele><time>2026-04-04T09:56:40.014Z</time></trkpt><trkpt lat="43.4513455" lon="10.8912747"><ele>225.0</ele><time>2026-04-04T09:56:41.031Z</time></trkpt><trkpt lat="43.4512356" lon="10.8911755"><ele>223.25</ele><time>2026-04-04T09:56:42.009Z</time></trkpt><trkpt lat="43.4511212" lon="10.8910771"><ele>221.5</ele><time>2026-04-04T09:56:43.023Z</time></trkpt><trkpt lat="43.4510125" lon="10.8909753"><ele>219.75</ele><time>2026-04-04T09:56:44.023Z</time></trkpt><trkpt lat="43.4509033" lon="10.8908706"><ele>218.0</ele><time>2026-04-04T09:56:45.021Z</time></trkpt><trkpt lat="43.450793" lon="10.8907703"><ele>218.0</ele><time>2026-04-04T09:56:46.032Z</time></trkpt><trkpt lat="43.4506824" lon="10.8906631"><ele>218.0</ele><time>2026-04-04T09:56:47.015Z</time></trkpt><trkpt lat="43.4505696" lon="10.8905572"><ele>218.0</ele><time>2026-04-04T09:56:48.021Z</time></trkpt><trkpt lat="43.450457" lon="10.8904443"><ele>218.0</ele><time>2026-04-04T09:56:49.013Z</time></trkpt><trkpt lat="43.4503477" lon="10.8903424"><ele>217.25</ele><time>2026-04-04T09:56:50.025Z</time></trkpt><trkpt lat="43.4502325" lon="10.8902388"><ele>216.5</ele><time>2026-04-04T09:56:51.02Z</time></trkpt><trkpt lat="43.450118" lon="10.8901362"><ele>215.75</ele><time>2026-04-04T09:56:52.022Z</time></trkpt><trkpt lat="43.4500071" lon="10.890031"><ele>215.0</ele><time>2026-04-04T09:56:53.024Z</time></trkpt><trkpt lat="43.4498972" lon="10.8899252"><ele>215.0</ele><time>2026-04-04T09:56:54.03Z</time></trkpt><trkpt lat="43.4497878" lon="10.8898199"><ele>215.0</ele><time>2026-04-04T09:56:55.023Z</time></trkpt><trkpt lat="43.4496804" lon="10.8897115"><ele>215.0</ele><time>2026-04-04T09:56:56.018Z</time></trkpt><trkpt lat="43.4495726" lon="10.8896025"><ele>215.0</ele><time>2026-04-04T09:56:57.027Z</time></trkpt><trkpt lat="43.4494693" lon="10.8894874"><ele>214.75</ele><time>2026-04-04T09:56:58.018Z</time></trkpt><trkpt lat="43.4493747" lon="10.8893569"><ele>214.5</ele><time>2026-04-04T09:56:59.022Z</time></trkpt><trkpt lat="43.4492886" lon="10.8892205"><ele>214.25</ele><time>2026-04-04T09:57:00.054Z</time></trkpt><trkpt lat="43.4492053" lon="10.8890761"><ele>214.0</ele><time>2026-04-04T09:57:01.02Z</time></trkpt><trkpt lat="43.4491235" lon="10.8889268"><ele>214.0</ele><time>2026-04-04T09:57:02.01Z</time></trkpt><trkpt lat="43.4490451" lon="10.8887724"><ele>214.0</ele><time>2026-04-04T09:57:03.013Z</time></trkpt><trkpt lat="43.4489729" lon="10.8886085"><ele>214.0</ele><time>2026-04-04T09:57:04.032Z</time></trkpt><trkpt lat="43.4489025" lon="10.8884447"><ele>214.0</ele><time>2026-04-04T09:57:05.007Z</time></trkpt><trkpt lat="43.4488346" lon="10.8882885"><ele>215.39999999999998</ele><time>2026-04-04T09:57:06.038Z</time></trkpt><trkpt lat="43.4487675" lon="10.8881387"><ele>216.79999999999998</ele><time>2026-04-04T09:57:07.031Z</time></trkpt><trkpt lat="43.4487049" lon="10.8879993"><ele>218.20000000000002</ele><time>2026-04-04T09:57:08.033Z</time></trkpt><trkpt lat="43.4486429" lon="10.8878807"><ele>219.60000000000002</ele><time>2026-04-04T09:57:09.033Z</time></trkpt><trkpt lat="43.4485829" lon="10.8877801"><ele>221.0</ele><time>2026-04-04T09:57:10.017Z</time></trkpt><trkpt lat="43.4485181" lon="10.8876879"><ele>221.0</ele><time>2026-04-04T09:57:11.026Z</time></trkpt><trkpt lat="43.4484427" lon="10.8876024"><ele>221.0</ele><time>2026-04-04T09:57:12.024Z</time></trkpt><trkpt lat="43.4483511" lon="10.8875174"><ele>221.0</ele><time>2026-04-04T09:57:13.018Z</time></trkpt><trkpt lat="43.448244" lon="10.8874273"><ele>221.0</ele><time>2026-04-04T09:57:14.033Z</time></trkpt><trkpt lat="43.4481255" lon="10.887327"><ele>221.5</ele><time>2026-04-04T09:57:15.025Z</time></trkpt><trkpt lat="43.4480071" lon="10.887227"><ele>222.0</ele><time>2026-04-04T09:57:16.026Z</time></trkpt><trkpt lat="43.4478903" lon="10.8871218"><ele>222.5</ele><time>2026-04-04T09:57:17.013Z</time></trkpt><trkpt lat="43.4477746" lon="10.8870099"><ele>223.0</ele><time>2026-04-04T09:57:18.03Z</time></trkpt><trkpt lat="43.4476734" lon="10.8868837"><ele>220.5</ele><time>2026-04-04T09:57:19.011Z</time></trkpt><trkpt lat="43.447572" lon="10.8867501"><ele>218.0</ele><time>2026-04-04T09:57:20.029Z</time></trkpt><trkpt lat="43.4474916" lon="10.8866059"><ele>215.5</ele><time>2026-04-04T09:57:21.027Z</time></trkpt><trkpt lat="43.4474285" lon="10.8864464"><ele>213.0</ele><time>2026-04-04T09:57:22.008Z</time></trkpt><trkpt lat="43.4473789" lon="10.8862746"><ele>213.0</ele><time>2026-04-04T09:57:23.01Z</time></trkpt><trkpt lat="43.4473309" lon="10.8861"><ele>213.0</ele><time>2026-04-04T09:57:24.032Z</time></trkpt><trkpt lat="43.4472799" lon="10.8859217"><ele>213.0</ele><time>2026-04-04T09:57:25.008Z</time></trkpt><trkpt lat="43.4472337" lon="10.8857444"><ele>213.0</ele><time>2026-04-04T09:57:26.037Z</time></trkpt><trkpt lat="43.4471872" lon="10.885568"><ele>210.75</ele><time>2026-04-04T09:57:27.022Z</time></trkpt><trkpt lat="43.4471415" lon="10.8853989"><ele>208.5</ele><time>2026-04-04T09:57:28.02Z</time></trkpt><trkpt lat="43.4470949" lon="10.8852359"><ele>206.25</ele><time>2026-04-04T09:57:29.025Z</time></trkpt><trkpt lat="43.4470506" lon="10.8850715"><ele>204.0</ele><time>2026-04-04T09:57:30.034Z</time></trkpt><trkpt lat="43.4470094" lon="10.8849073"><ele>202.75</ele><time>2026-04-04T09:57:31.019Z</time></trkpt><trkpt lat="43.4469659" lon="10.8847448"><ele>201.5</ele><time>2026-04-04T09:57:32.03Z</time></trkpt><trkpt lat="43.446924" lon="10.8845818"><ele>200.25</ele><time>2026-04-04T09:57:33.008Z</time></trkpt><trkpt lat="43.4468803" lon="10.8844266"><ele>199.0</ele><time>2026-04-04T09:57:34.022Z</time></trkpt><trkpt lat="43.4468418" lon="10.8842786"><ele>198.75</ele><time>2026-04-04T09:57:35.021Z</time></trkpt><trkpt lat="43.4468089" lon="10.8841312"><ele>198.5</ele><time>2026-04-04T09:57:36.013Z</time></trkpt><trkpt lat="43.4467758" lon="10.8839705"><ele>198.25</ele><time>2026-04-04T09:57:37.009Z</time></trkpt><trkpt lat="43.4467453" lon="10.8837989"><ele>198.0</ele><time>2026-04-04T09:57:38.014Z</time></trkpt><trkpt lat="43.446733" lon="10.8836197"><ele>198.0</ele><time>2026-04-04T09:57:39.01Z</time></trkpt><trkpt lat="43.4467284" lon="10.8834415"><ele>198.0</ele><time>2026-04-04T09:57:40.025Z</time></trkpt><trkpt lat="43.4467284" lon="10.8832593"><ele>198.0</ele><time>2026-04-04T09:57:41.022Z</time></trkpt><trkpt lat="43.4467223" lon="10.8830758"><ele>198.0</ele><time>2026-04-04T09:57:42.028Z</time></trkpt><trkpt lat="43.4467088" lon="10.8828874"><ele>197.0</ele><time>2026-04-04T09:57:43.029Z</time></trkpt><trkpt lat="43.4466931" lon="10.8826984"><ele>196.0</ele><time>2026-04-04T09:57:44.003Z</time></trkpt><trkpt lat="43.4466779" lon="10.8825124"><ele>195.0</ele><time>2026-04-04T09:57:45.019Z</time></trkpt><trkpt lat="43.4466616" lon="10.8823273"><ele>194.0</ele><time>2026-04-04T09:57:46.028Z</time></trkpt><trkpt lat="43.4466423" lon="10.8821401"><ele>192.0</ele><time>2026-04-04T09:57:47.029Z</time></trkpt><trkpt lat="43.4466291" lon="10.8819471"><ele>190.0</ele><time>2026-04-04T09:57:48.016Z</time></trkpt><trkpt lat="43.4466137" lon="10.8817543"><ele>188.0</ele><time>2026-04-04T09:57:49.027Z</time></trkpt><trkpt lat="43.4465971" lon="10.8815629"><ele>186.0</ele><time>2026-04-04T09:57:50.025Z</time></trkpt><trkpt lat="43.4465834" lon="10.8813766"><ele>185.25</ele><time>2026-04-04T09:57:51.038Z</time></trkpt><trkpt lat="43.4465711" lon="10.8811967"><ele>184.5</ele><time>2026-04-04T09:57:52.027Z</time></trkpt><trkpt lat="43.4465658" lon="10.8810231"><ele>183.75</ele><time>2026-04-04T09:57:53.024Z</time></trkpt><trkpt lat="43.4465626" lon="10.8808549"><ele>183.0</ele><time>2026-04-04T09:57:54.046Z</time></trkpt><trkpt lat="43.4465679" lon="10.8806828"><ele>182.25</ele><time>2026-04-04T09:57:55.038Z</time></trkpt><trkpt lat="43.4465779" lon="10.8805152"><ele>181.5</ele><time>2026-04-04T09:57:56.033Z</time></trkpt><trkpt lat="43.4465917" lon="10.8803556"><ele>180.75</ele><time>2026-04-04T09:57:57.021Z</time></trkpt><trkpt lat="43.4465979" lon="10.8801951"><ele>180.0</ele><time>2026-04-04T09:57:58.031Z</time></trkpt><trkpt lat="43.4466045" lon="10.8800387"><ele>178.75</ele><time>2026-04-04T09:57:59.017Z</time></trkpt><trkpt lat="43.4466084" lon="10.8798839"><ele>177.5</ele><time>2026-04-04T09:58:00.036Z</time></trkpt><trkpt lat="43.4465917" lon="10.8797263"><ele>176.25</ele><time>2026-04-04T09:58:01.04Z</time></trkpt><trkpt lat="43.4465568" lon="10.8795754"><ele>175.0</ele><time>2026-04-04T09:58:02.032Z</time></trkpt><trkpt lat="43.4465029" lon="10.8794295"><ele>175.0</ele><time>2026-04-04T09:58:03.006Z</time></trkpt><trkpt lat="43.44644" lon="10.8792899"><ele>175.0</ele><time>2026-04-04T09:58:03.987Z</time></trkpt><trkpt lat="43.4463844" lon="10.879141"><ele>175.0</ele><time>2026-04-04T09:58:05.02Z</time></trkpt><trkpt lat="43.4463309" lon="10.8789958"><ele>175.0</ele><time>2026-04-04T09:58:06.015Z</time></trkpt><trkpt lat="43.4462822" lon="10.8788555"><ele>171.0</ele><time>2026-04-04T09:58:07.017Z</time></trkpt><trkpt lat="43.4462491" lon="10.8787024"><ele>167.0</ele><time>2026-04-04T09:58:08.037Z</time></trkpt><trkpt lat="43.4462271" lon="10.8785348"><ele>163.0</ele><time>2026-04-04T09:58:09.008Z</time></trkpt><trkpt lat="43.4462218" lon="10.8783625"><ele>159.0</ele><time>2026-04-04T09:58:10.025Z</time></trkpt><trkpt lat="43.4462164" lon="10.8782049"><ele>158.8</ele><time>2026-04-04T09:58:11.03Z</time></trkpt><trkpt lat="43.4462111" lon="10.8780575"><ele>158.60000000000002</ele><time>2026-04-04T09:58:12.047Z</time></trkpt><trkpt lat="43.446207" lon="10.8779153"><ele>158.4</ele><time>2026-04-04T09:58:13.021Z</time></trkpt><trkpt lat="43.4462111" lon="10.8777831"><ele>158.20000000000002</ele><time>2026-04-04T09:58:14.027Z</time></trkpt><trkpt lat="43.446231" lon="10.8776615"><ele>158.0</ele><time>2026-04-04T09:58:15.032Z</time></trkpt><trkpt lat="43.4462713" lon="10.8775467"><ele>158.8</ele><time>2026-04-04T09:58:16.025Z</time></trkpt><trkpt lat="43.4463314" lon="10.8774411"><ele>159.60000000000002</ele><time>2026-04-04T09:58:17.031Z</time></trkpt><trkpt lat="43.4464012" lon="10.8773391"><ele>160.39999999999998</ele><time>2026-04-04T09:58:18.039Z</time></trkpt><trkpt lat="43.4464905" lon="10.8772356"><ele>161.2</ele><time>2026-04-04T09:58:19.013Z</time></trkpt><trkpt lat="43.4465986" lon="10.877146"><ele>162.0</ele><time>2026-04-04T09:58:20.012Z</time></trkpt><trkpt lat="43.4467154" lon="10.8770704"><ele>162.0</ele><time>2026-04-04T09:58:21.009Z</time></trkpt><trkpt lat="43.4468364" lon="10.8770058"><ele>162.0</ele><time>2026-04-04T09:58:22.021Z</time></trkpt><trkpt lat="43.4469687" lon="10.8769634"><ele>162.0</ele><time>2026-04-04T09:58:23.021Z</time></trkpt><trkpt lat="43.447104" lon="10.8769186"><ele>162.0</ele><time>2026-04-04T09:58:24.05Z</time></trkpt><trkpt lat="43.4472394" lon="10.8768835"><ele>161.75</ele><time>2026-04-04T09:58:25.012Z</time></trkpt><trkpt lat="43.4473739" lon="10.8768478"><ele>161.5</ele><time>2026-04-04T09:58:26.023Z</time></trkpt><trkpt lat="43.4475006" lon="10.8768121"><ele>161.25</ele><time>2026-04-04T09:58:27.033Z</time></trkpt><trkpt lat="43.4476264" lon="10.8767955"><ele>161.0</ele><time>2026-04-04T09:58:28.012Z</time></trkpt><trkpt lat="43.4477506" lon="10.8767871"><ele>161.0</ele><time>2026-04-04T09:58:29.018Z</time></trkpt><trkpt lat="43.4478671" lon="10.8767887"><ele>161.0</ele><time>2026-04-04T09:58:30.027Z</time></trkpt><trkpt lat="43.4479815" lon="10.8768017"><ele>161.0</ele><time>2026-04-04T09:58:31.011Z</time></trkpt><trkpt lat="43.448088" lon="10.8768493"><ele>161.0</ele><time>2026-04-04T09:58:32.026Z</time></trkpt><trkpt lat="43.4481878" lon="10.8769192"><ele>159.0</ele><time>2026-04-04T09:58:33.028Z</time></trkpt><trkpt lat="43.4482837" lon="10.8769886"><ele>157.0</ele><time>2026-04-04T09:58:34.027Z</time></trkpt><trkpt lat="43.4483695" lon="10.8770363"><ele>155.0</ele><time>2026-04-04T09:58:35.021Z</time></trkpt><trkpt lat="43.448455" lon="10.8770417"><ele>153.0</ele><time>2026-04-04T09:58:36.04Z</time></trkpt><trkpt lat="43.448541" lon="10.876998"><ele>151.0</ele><time>2026-04-04T09:58:37.022Z</time></trkpt><trkpt lat="43.4486211" lon="10.8769286"><ele>151.0</ele><time>2026-04-04T09:58:38.051Z</time></trkpt><trkpt lat="43.4487025" lon="10.8768306"><ele>151.0</ele><time>2026-04-04T09:58:39.022Z</time></trkpt><trkpt lat="43.4487757" lon="10.8767257"><ele>151.0</ele><time>2026-04-04T09:58:40.032Z</time></trkpt><trkpt lat="43.4488385" lon="10.8765893"><ele>151.0</ele><time>2026-04-04T09:58:41.011Z</time></trkpt><trkpt lat="43.4488913" lon="10.8764361"><ele>149.25</ele><time>2026-04-04T09:58:42.01Z</time></trkpt><trkpt lat="43.448939" lon="10.8762668"><ele>147.5</ele><time>2026-04-04T09:58:43.011Z</time></trkpt><trkpt lat="43.4489893" lon="10.8760993"><ele>145.75</ele><time>2026-04-04T09:58:44.018Z</time></trkpt><trkpt lat="43.4490363" lon="10.8759455"><ele>144.0</ele><time>2026-04-04T09:58:45.014Z</time></trkpt><trkpt lat="43.449083" lon="10.8757959"><ele>143.5</ele><time>2026-04-04T09:58:46.037Z</time></trkpt><trkpt lat="43.4491286" lon="10.8756495"><ele>143.0</ele><time>2026-04-04T09:58:47.023Z</time></trkpt><trkpt lat="43.4491723" lon="10.8754985"><ele>142.5</ele><time>2026-04-04T09:58:48.037Z</time></trkpt><trkpt lat="43.4492227" lon="10.8753529"><ele>142.0</ele><time>2026-04-04T09:58:49.026Z</time></trkpt><trkpt lat="43.4492768" lon="10.8752028"><ele>141.5</ele><time>2026-04-04T09:58:50.033Z</time></trkpt><trkpt lat="43.4493308" lon="10.8750494"><ele>141.0</ele><time>2026-04-04T09:58:51.018Z</time></trkpt><trkpt lat="43.4493855" lon="10.8748916"><ele>140.5</ele><time>2026-04-04T09:58:52.042Z</time></trkpt><trkpt lat="43.44944" lon="10.8747285"><ele>140.0</ele><time>2026-04-04T09:58:53.021Z</time></trkpt><trkpt lat="43.449496" lon="10.8745679"><ele>140.0</ele><time>2026-04-04T09:58:54.003Z</time></trkpt><trkpt lat="43.4495536" lon="10.8743998"><ele>140.0</ele><time>2026-04-04T09:58:55.016Z</time></trkpt><trkpt lat="43.449619" lon="10.8742356"><ele>140.0</ele><time>2026-04-04T09:58:56.025Z</time></trkpt><trkpt lat="43.4496956" lon="10.874068"><ele>140.0</ele><time>2026-04-04T09:58:57.02Z</time></trkpt><trkpt lat="43.4497873" lon="10.8739064"><ele>141.33333333333331</ele><time>2026-04-04T09:58:58.028Z</time></trkpt><trkpt lat="43.4498919" lon="10.873753"><ele>142.66666666666666</ele><time>2026-04-04T09:58:59.031Z</time></trkpt><trkpt lat="43.4500046" lon="10.8736003"><ele>144.0</ele><time>2026-04-04T09:59:00.034Z</time></trkpt><trkpt lat="43.4501201" lon="10.873439"><ele>142.66666666666666</ele><time>2026-04-04T09:59:01.012Z</time></trkpt><trkpt lat="43.45024" lon="10.8732763"><ele>141.33333333333331</ele><time>2026-04-04T09:59:02.02Z</time></trkpt><trkpt lat="43.45036" lon="10.8731227"><ele>140.0</ele><time>2026-04-04T09:59:03.023Z</time></trkpt><trkpt lat="43.4504752" lon="10.872966"><ele>140.0</ele><time>2026-04-04T09:59:04.032Z</time></trkpt><trkpt lat="43.4505885" lon="10.8728091"><ele>140.0</ele><time>2026-04-04T09:59:05.009Z</time></trkpt><trkpt lat="43.4507007" lon="10.8726528"><ele>140.0</ele><time>2026-04-04T09:59:06.023Z</time></trkpt><trkpt lat="43.4508165" lon="10.8724999"><ele>138.66666666666666</ele><time>2026-04-04T09:59:07.014Z</time></trkpt><trkpt lat="43.4509313" lon="10.8723466"><ele>137.33333333333334</ele><time>2026-04-04T09:59:08.031Z</time></trkpt><trkpt lat="43.451044" lon="10.8721935"><ele>136.0</ele><time>2026-04-04T09:59:09.011Z</time></trkpt><trkpt lat="43.4511595" lon="10.8720433"><ele>136.0</ele><time>2026-04-04T09:59:10.04Z</time></trkpt><trkpt lat="43.4512805" lon="10.8719053"><ele>136.0</ele><time>2026-04-04T09:59:11.022Z</time></trkpt><trkpt lat="43.4514066" lon="10.8717718"><ele>136.0</ele><time>2026-04-04T09:59:12.019Z</time></trkpt><trkpt lat="43.4515368" lon="10.8716462"><ele>136.66666666666669</ele><time>2026-04-04T09:59:13.02Z</time></trkpt><trkpt lat="43.4516715" lon="10.8715219"><ele>137.33333333333334</ele><time>2026-04-04T09:59:14.032Z</time></trkpt><trkpt lat="43.4518078" lon="10.8713968"><ele>138.0</ele><time>2026-04-04T09:59:15.013Z</time></trkpt><trkpt lat="43.451945" lon="10.8712653"><ele>138.0</ele><time>2026-04-04T09:59:16.015Z</time></trkpt><trkpt lat="43.4520808" lon="10.871125"><ele>138.0</ele><time>2026-04-04T09:59:17.019Z</time></trkpt><trkpt lat="43.452216" lon="10.8709935"><ele>138.0</ele><time>2026-04-04T09:59:18.022Z</time></trkpt><trkpt lat="43.4523501" lon="10.8708681"><ele>137.33333333333334</ele><time>2026-04-04T09:59:19.015Z</time></trkpt><trkpt lat="43.4524835" lon="10.8707476"><ele>136.66666666666669</ele><time>2026-04-04T09:59:20.047Z</time></trkpt><trkpt lat="43.4526098" lon="10.8706253"><ele>136.0</ele><time>2026-04-04T09:59:21.019Z</time></trkpt><trkpt lat="43.4527226" lon="10.8704955"><ele>136.0</ele><time>2026-04-04T09:59:22.031Z</time></trkpt><trkpt lat="43.4528223" lon="10.8703618"><ele>136.0</ele><time>2026-04-04T09:59:23.013Z</time></trkpt><trkpt lat="43.4528973" lon="10.8702016"><ele>136.0</ele><time>2026-04-04T09:59:24.02Z</time></trkpt><trkpt lat="43.452956" lon="10.8700208"><ele>136.0</ele><time>2026-04-04T09:59:25.019Z</time></trkpt><trkpt lat="43.4529856" lon="10.8698165"><ele>135.0</ele><time>2026-04-04T09:59:26.003Z</time></trkpt><trkpt lat="43.4530081" lon="10.8696074"><ele>134.0</ele><time>2026-04-04T09:59:27.032Z</time></trkpt><trkpt lat="43.4530322" lon="10.8693989"><ele>133.0</ele><time>2026-04-04T09:59:28.025Z</time></trkpt><trkpt lat="43.4530593" lon="10.8691872"><ele>133.0</ele><time>2026-04-04T09:59:29.039Z</time></trkpt><trkpt lat="43.4530923" lon="10.8689644"><ele>133.0</ele><time>2026-04-04T09:59:30.01Z</time></trkpt><trkpt lat="43.4531331" lon="10.8687449"><ele>133.0</ele><time>2026-04-04T09:59:31.025Z</time></trkpt><trkpt lat="43.4531921" lon="10.8685287"><ele>133.0</ele><time>2026-04-04T09:59:32.027Z</time></trkpt><trkpt lat="43.4532657" lon="10.8683213"><ele>133.0</ele><time>2026-04-04T09:59:33.015Z</time></trkpt><trkpt lat="43.4533463" lon="10.868116"><ele>133.0</ele><time>2026-04-04T09:59:34.027Z</time></trkpt><trkpt lat="43.4534304" lon="10.8679255"><ele>133.0</ele><time>2026-04-04T09:59:35.028Z</time></trkpt><trkpt lat="43.4535109" lon="10.8677353"><ele>133.0</ele><time>2026-04-04T09:59:36.037Z</time></trkpt><trkpt lat="43.4535836" lon="10.8675446"><ele>133.0</ele><time>2026-04-04T09:59:37.02Z</time></trkpt><trkpt lat="43.4536566" lon="10.8673587"><ele>133.33333333333334</ele><time>2026-04-04T09:59:38.02Z</time></trkpt><trkpt lat="43.4537221" lon="10.867165"><ele>133.66666666666666</ele><time>2026-04-04T09:59:39.027Z</time></trkpt><trkpt lat="43.4537793" lon="10.8669709"><ele>134.0</ele><time>2026-04-04T09:59:40.025Z</time></trkpt><trkpt lat="43.4538296" lon="10.8667686"><ele>134.0</ele><time>2026-04-04T09:59:41.019Z</time></trkpt><trkpt lat="43.4538674" lon="10.8665632"><ele>134.0</ele><time>2026-04-04T09:59:42.015Z</time></trkpt><trkpt lat="43.4538941" lon="10.8663522"><ele>134.0</ele><time>2026-04-04T09:59:43.019Z</time></trkpt><trkpt lat="43.4539117" lon="10.8661313"><ele>132.33333333333331</ele><time>2026-04-04T09:59:44.031Z</time></trkpt><trkpt lat="43.4539326" lon="10.8659172"><ele>130.66666666666666</ele><time>2026-04-04T09:59:45.021Z</time></trkpt><trkpt lat="43.4539486" lon="10.8656949"><ele>129.0</ele><time>2026-04-04T09:59:46.007Z</time></trkpt><trkpt lat="43.4539647" lon="10.8654743"><ele>129.0</ele><time>2026-04-04T09:59:47.024Z</time></trkpt><trkpt lat="43.4539774" lon="10.8652507"><ele>129.0</ele><time>2026-04-04T09:59:48.017Z</time></trkpt><trkpt lat="43.4539901" lon="10.8650318"><ele>129.0</ele><time>2026-04-04T09:59:49.019Z</time></trkpt><trkpt lat="43.4540072" lon="10.8648246"><ele>127.33333333333334</ele><time>2026-04-04T09:59:50.046Z</time></trkpt><trkpt lat="43.4540132" lon="10.8646171"><ele>125.66666666666667</ele><time>2026-04-04T09:59:51.011Z</time></trkpt><trkpt lat="43.4539922" lon="10.8643955"><ele>124.0</ele><time>2026-04-04T09:59:52.041Z</time></trkpt><trkpt lat="43.4539574" lon="10.8641678"><ele>123.33333333333334</ele><time>2026-04-04T09:59:53.01Z</time></trkpt><trkpt lat="43.4539129" lon="10.8639441"><ele>122.66666666666666</ele><time>2026-04-04T09:59:54.062Z</time></trkpt><trkpt lat="43.4538677" lon="10.8637266"><ele>122.0</ele><time>2026-04-04T09:59:55Z</time></trkpt><trkpt lat="43.4538245" lon="10.8635109"><ele>121.66666666666666</ele><time>2026-04-04T09:59:55.999Z</time></trkpt><trkpt lat="43.4537834" lon="10.8632899"><ele>121.33333333333334</ele><time>2026-04-04T09:59:57.014Z</time></trkpt><trkpt lat="43.4537419" lon="10.8630691"><ele>121.0</ele><time>2026-04-04T09:59:58.009Z</time></trkpt><trkpt lat="43.4536978" lon="10.8628477"><ele>121.0</ele><time>2026-04-04T09:59:59.019Z</time></trkpt><trkpt lat="43.4536511" lon="10.8626299"><ele>121.0</ele><time>2026-04-04T10:00:00.015Z</time></trkpt><trkpt lat="43.4536052" lon="10.8624207"><ele>121.0</ele><time>2026-04-04T10:00:01.045Z</time></trkpt><trkpt lat="43.4535667" lon="10.862218"><ele>121.33333333333334</ele><time>2026-04-04T10:00:02.014Z</time></trkpt><trkpt lat="43.4535237" lon="10.862015"><ele>121.66666666666666</ele><time>2026-04-04T10:00:03.02Z</time></trkpt><trkpt lat="43.4534827" lon="10.8618148"><ele>122.0</ele><time>2026-04-04T10:00:04.012Z</time></trkpt><trkpt lat="43.4534454" lon="10.8616192"><ele>122.0</ele><time>2026-04-04T10:00:05.024Z</time></trkpt><trkpt lat="43.4534143" lon="10.8614513"><ele>122.0</ele><time>2026-04-04T10:00:06.012Z</time></trkpt><trkpt lat="43.4533809" lon="10.8613047"><ele>122.0</ele><time>2026-04-04T10:00:07.021Z</time></trkpt><trkpt lat="43.453348" lon="10.8611635"><ele>122.0</ele><time>2026-04-04T10:00:08.017Z</time></trkpt><trkpt lat="43.4533168" lon="10.8610234"><ele>122.33333333333333</ele><time>2026-04-04T10:00:09.014Z</time></trkpt><trkpt lat="43.453292" lon="10.8608964"><ele>122.66666666666666</ele><time>2026-04-04T10:00:10.008Z</time></trkpt><trkpt lat="43.4532748" lon="10.8608026"><ele>123.0</ele><time>2026-04-04T10:00:11.017Z</time></trkpt><trkpt lat="43.4532887" lon="10.8606971"><ele>123.33333333333334</ele><time>2026-04-04T10:00:13.017Z</time></trkpt><trkpt lat="43.4533598" lon="10.8606912"><ele>123.66666666666667</ele><time>2026-04-04T10:00:15.025Z</time></trkpt><trkpt lat="43.4534571" lon="10.860724"><ele>124.0</ele><time>2026-04-04T10:00:17.02Z</time></trkpt><trkpt lat="43.453575" lon="10.8607687"><ele>124.00000000000001</ele><time>2026-04-04T10:00:19.019Z</time></trkpt><trkpt lat="43.4536403" lon="10.8607788"><ele>124.0</ele><time>2026-04-04T10:00:20.032Z</time></trkpt><trkpt lat="43.4537713" lon="10.8607686"><ele>124.0</ele><time>2026-04-04T10:00:22.013Z</time></trkpt><trkpt lat="43.4538466" lon="10.8607446"><ele>124.0</ele><time>2026-04-04T10:00:23.026Z</time></trkpt><trkpt lat="43.4539207" lon="10.8607143"><ele>124.00000000000001</ele><time>2026-04-04T10:00:24.035Z</time></trkpt><trkpt lat="43.4540089" lon="10.8606991"><ele>124.0</ele><time>2026-04-04T10:00:25.009Z</time></trkpt><trkpt lat="43.4541002" lon="10.8606998"><ele>124.80000000000001</ele><time>2026-04-04T10:00:26.022Z</time></trkpt><trkpt lat="43.4541932" lon="10.8607135"><ele>125.60000000000001</ele><time>2026-04-04T10:00:27.023Z</time></trkpt><trkpt lat="43.4542891" lon="10.8607519"><ele>126.4</ele><time>2026-04-04T10:00:28.033Z</time></trkpt><trkpt lat="43.4543866" lon="10.860794"><ele>127.2</ele><time>2026-04-04T10:00:29.031Z</time></trkpt><trkpt lat="43.454489" lon="10.8608438"><ele>128.0</ele><time>2026-04-04T10:00:30.028Z</time></trkpt><trkpt lat="43.4545952" lon="10.8609088"><ele>128.0</ele><time>2026-04-04T10:00:31.022Z</time></trkpt><trkpt lat="43.4547065" lon="10.8609765"><ele>128.0</ele><time>2026-04-04T10:00:32.034Z</time></trkpt><trkpt lat="43.4548246" lon="10.8610419"><ele>128.0</ele><time>2026-04-04T10:00:33.019Z</time></trkpt><trkpt lat="43.4549464" lon="10.8610939"><ele>128.0</ele><time>2026-04-04T10:00:34.033Z</time></trkpt><trkpt lat="43.4550733" lon="10.861128"><ele>128.0</ele><time>2026-04-04T10:00:35.027Z</time></trkpt><trkpt lat="43.4552004" lon="10.8611501"><ele>128.0</ele><time>2026-04-04T10:00:36.051Z</time></trkpt><trkpt lat="43.4553259" lon="10.8611643"><ele>128.0</ele><time>2026-04-04T10:00:37.017Z</time></trkpt><trkpt lat="43.4554485" lon="10.8611861"><ele>128.0</ele><time>2026-04-04T10:00:38.031Z</time></trkpt><trkpt lat="43.4555662" lon="10.8612329"><ele>128.75</ele><time>2026-04-04T10:00:39.025Z</time></trkpt><trkpt lat="43.4556738" lon="10.861315"><ele>129.5</ele><time>2026-04-04T10:00:40.033Z</time></trkpt><trkpt lat="43.455774" lon="10.8614219"><ele>130.25</ele><time>2026-04-04T10:00:41.011Z</time></trkpt><trkpt lat="43.4558597" lon="10.8615306"><ele>131.0</ele><time>2026-04-04T10:00:42.039Z</time></trkpt><trkpt lat="43.4559453" lon="10.8616336"><ele>131.0</ele><time>2026-04-04T10:00:43.017Z</time></trkpt><trkpt lat="43.456029" lon="10.8617476"><ele>131.0</ele><time>2026-04-04T10:00:44.044Z</time></trkpt><trkpt lat="43.4561099" lon="10.8618733"><ele>131.0</ele><time>2026-04-04T10:00:45.017Z</time></trkpt><trkpt lat="43.456191" lon="10.8620011"><ele>131.0</ele><time>2026-04-04T10:00:46.03Z</time></trkpt><trkpt lat="43.4562723" lon="10.8621226"><ele>130.6</ele><time>2026-04-04T10:00:47.017Z</time></trkpt><trkpt lat="43.4563564" lon="10.8622299"><ele>130.2</ele><time>2026-04-04T10:00:48.023Z</time></trkpt><trkpt lat="43.4564425" lon="10.8623137"><ele>129.8</ele><time>2026-04-04T10:00:49.028Z</time></trkpt><trkpt lat="43.4565366" lon="10.8623806"><ele>129.4</ele><time>2026-04-04T10:00:50.036Z</time></trkpt><trkpt lat="43.4566413" lon="10.8624305"><ele>129.0</ele><time>2026-04-04T10:00:51.025Z</time></trkpt><trkpt lat="43.4567534" lon="10.8624668"><ele>129.0</ele><time>2026-04-04T10:00:52.044Z</time></trkpt><trkpt lat="43.4568732" lon="10.8624863"><ele>129.0</ele><time>2026-04-04T10:00:53.017Z</time></trkpt><trkpt lat="43.4569973" lon="10.8625047"><ele>129.0</ele><time>2026-04-04T10:00:54.032Z</time></trkpt><trkpt lat="43.457116" lon="10.8625312"><ele>129.0</ele><time>2026-04-04T10:00:55.008Z</time></trkpt><trkpt lat="43.4572308" lon="10.8625801"><ele>128.75</ele><time>2026-04-04T10:00:56.032Z</time></trkpt><trkpt lat="43.4573385" lon="10.8626592"><ele>128.5</ele><time>2026-04-04T10:00:57.022Z</time></trkpt><trkpt lat="43.4574459" lon="10.8627507"><ele>128.25</ele><time>2026-04-04T10:00:58.043Z</time></trkpt><trkpt lat="43.4575444" lon="10.8628525"><ele>128.0</ele><time>2026-04-04T10:00:59.012Z</time></trkpt><trkpt lat="43.4576348" lon="10.8629467"><ele>128.0</ele><time>2026-04-04T10:01:00.053Z</time></trkpt><trkpt lat="43.4577353" lon="10.8630235"><ele>128.0</ele><time>2026-04-04T10:01:01.02Z</time></trkpt><trkpt lat="43.4578512" lon="10.8630614"><ele>128.0</ele><time>2026-04-04T10:01:02.04Z</time></trkpt><trkpt lat="43.4579735" lon="10.8630698"><ele>128.0</ele><time>2026-04-04T10:01:03.017Z</time></trkpt><trkpt lat="43.4580973" lon="10.8630738"><ele>129.0</ele><time>2026-04-04T10:01:04.029Z</time></trkpt><trkpt lat="43.4582128" lon="10.8631036"><ele>130.0</ele><time>2026-04-04T10:01:05.017Z</time></trkpt><trkpt lat="43.4583171" lon="10.863159"><ele>131.0</ele><time>2026-04-04T10:01:06.006Z</time></trkpt><trkpt lat="43.458408" lon="10.8632419"><ele>132.0</ele><time>2026-04-04T10:01:07.018Z</time></trkpt><trkpt lat="43.4584867" lon="10.8633316"><ele>133.0</ele><time>2026-04-04T10:01:08.021Z</time></trkpt><trkpt lat="43.4585564" lon="10.8634389"><ele>132.20000000000002</ele><time>2026-04-04T10:01:09.015Z</time></trkpt><trkpt lat="43.4586109" lon="10.863566"><ele>131.4</ele><time>2026-04-04T10:01:10.019Z</time></trkpt><trkpt lat="43.4586462" lon="10.8637107"><ele>130.60000000000002</ele><time>2026-04-04T10:01:11.014Z</time></trkpt><trkpt lat="43.4586787" lon="10.8638651"><ele>129.8</ele><time>2026-04-04T10:01:12.027Z</time></trkpt><trkpt lat="43.4587206" lon="10.8640105"><ele>129.0</ele><time>2026-04-04T10:01:13.007Z</time></trkpt><trkpt lat="43.4587754" lon="10.8641496"><ele>130.0</ele><time>2026-04-04T10:01:14.016Z</time></trkpt><trkpt lat="43.4588504" lon="10.8642787"><ele>131.0</ele><time>2026-04-04T10:01:15.025Z</time></trkpt><trkpt lat="43.4589449" lon="10.8644011"><ele>132.0</ele><time>2026-04-04T10:01:16.014Z</time></trkpt><trkpt lat="43.4590426" lon="10.8645128"><ele>133.0</ele><time>2026-04-04T10:01:17.025Z</time></trkpt><trkpt lat="43.4591388" lon="10.8646283"><ele>133.0</ele><time>2026-04-04T10:01:18.025Z</time></trkpt><trkpt lat="43.4592398" lon="10.8647511"><ele>133.0</ele><time>2026-04-04T10:01:19.016Z</time></trkpt><trkpt lat="43.4593381" lon="10.8648726"><ele>133.0</ele><time>2026-04-04T10:01:20.015Z</time></trkpt><trkpt lat="43.459438" lon="10.8649935"><ele>133.0</ele><time>2026-04-04T10:01:21.032Z</time></trkpt><trkpt lat="43.4595387" lon="10.865115"><ele>133.75</ele><time>2026-04-04T10:01:22.035Z</time></trkpt><trkpt lat="43.4596385" lon="10.8652327"><ele>134.5</ele><time>2026-04-04T10:01:23.013Z</time></trkpt><trkpt lat="43.4597383" lon="10.8653563"><ele>135.25</ele><time>2026-04-04T10:01:24.041Z</time></trkpt><trkpt lat="43.4598372" lon="10.8654738"><ele>136.0</ele><time>2026-04-04T10:01:25.014Z</time></trkpt><trkpt lat="43.4599401" lon="10.8655783"><ele>136.0</ele><time>2026-04-04T10:01:26.029Z</time></trkpt><trkpt lat="43.4600439" lon="10.865689"><ele>136.0</ele><time>2026-04-04T10:01:27.024Z</time></trkpt><trkpt lat="43.4601494" lon="10.8657997"><ele>136.0</ele><time>2026-04-04T10:01:28.023Z</time></trkpt><trkpt lat="43.4602604" lon="10.8659119"><ele>136.0</ele><time>2026-04-04T10:01:29.016Z</time></trkpt><trkpt lat="43.4603695" lon="10.866027"><ele>135.25</ele><time>2026-04-04T10:01:30.053Z</time></trkpt><trkpt lat="43.460473" lon="10.8661372"><ele>134.5</ele><time>2026-04-04T10:01:31.017Z</time></trkpt><trkpt lat="43.4605806" lon="10.8662503"><ele>133.75</ele><time>2026-04-04T10:01:32.035Z</time></trkpt><trkpt lat="43.4606883" lon="10.8663578"><ele>133.0</ele><time>2026-04-04T10:01:33.007Z</time></trkpt><trkpt lat="43.460795" lon="10.8664657"><ele>133.0</ele><time>2026-04-04T10:01:34.022Z</time></trkpt><trkpt lat="43.460896" lon="10.8665804"><ele>133.0</ele><time>2026-04-04T10:01:35.025Z</time></trkpt><trkpt lat="43.4609967" lon="10.86671"><ele>133.0</ele><time>2026-04-04T10:01:36.021Z</time></trkpt><trkpt lat="43.4610928" lon="10.8668502"><ele>133.0</ele><time>2026-04-04T10:01:37.014Z</time></trkpt><trkpt lat="43.4611862" lon="10.8669981"><ele>132.75</ele><time>2026-04-04T10:01:38.029Z</time></trkpt><trkpt lat="43.4612808" lon="10.8671382"><ele>132.5</ele><time>2026-04-04T10:01:39.018Z</time></trkpt><trkpt lat="43.4613777" lon="10.8672716"><ele>132.25</ele><time>2026-04-04T10:01:40.033Z</time></trkpt><trkpt lat="43.4614757" lon="10.8674008"><ele>132.0</ele><time>2026-04-04T10:01:41.008Z</time></trkpt><trkpt lat="43.4615708" lon="10.8675334"><ele>133.25</ele><time>2026-04-04T10:01:42.018Z</time></trkpt><trkpt lat="43.4616718" lon="10.8676522"><ele>134.5</ele><time>2026-04-04T10:01:43.022Z</time></trkpt><trkpt lat="43.4617826" lon="10.8677638"><ele>135.75</ele><time>2026-04-04T10:01:44.029Z</time></trkpt><trkpt lat="43.4618992" lon="10.8678762"><ele>137.0</ele><time>2026-04-04T10:01:45.013Z</time></trkpt><trkpt lat="43.4620193" lon="10.8679805"><ele>139.75</ele><time>2026-04-04T10:01:46.021Z</time></trkpt><trkpt lat="43.4621328" lon="10.8680843"><ele>142.5</ele><time>2026-04-04T10:01:47.022Z</time></trkpt><trkpt lat="43.4622357" lon="10.8681881"><ele>145.25</ele><time>2026-04-04T10:01:48.008Z</time></trkpt><trkpt lat="43.4623408" lon="10.8682781"><ele>148.0</ele><time>2026-04-04T10:01:49.021Z</time></trkpt><trkpt lat="43.4624427" lon="10.8683562"><ele>148.0</ele><time>2026-04-04T10:01:50.018Z</time></trkpt><trkpt lat="43.462551" lon="10.8684297"><ele>148.0</ele><time>2026-04-04T10:01:51.008Z</time></trkpt><trkpt lat="43.4626608" lon="10.8685008"><ele>148.0</ele><time>2026-04-04T10:01:52.042Z</time></trkpt><trkpt lat="43.4627724" lon="10.8685556"><ele>148.0</ele><time>2026-04-04T10:01:53.019Z</time></trkpt><trkpt lat="43.4628755" lon="10.8685947"><ele>147.33333333333334</ele><time>2026-04-04T10:01:54.026Z</time></trkpt><trkpt lat="43.462967" lon="10.8686133"><ele>146.66666666666669</ele><time>2026-04-04T10:01:55.018Z</time></trkpt><trkpt lat="43.4630472" lon="10.8686035"><ele>146.0</ele><time>2026-04-04T10:01:56.045Z</time></trkpt><trkpt lat="43.4631262" lon="10.868582"><ele>145.33333333333334</ele><time>2026-04-04T10:01:57.024Z</time></trkpt><trkpt lat="43.4632157" lon="10.8685394"><ele>144.66666666666666</ele><time>2026-04-04T10:01:58.046Z</time></trkpt><trkpt lat="43.463297" lon="10.8684692"><ele>144.0</ele><time>2026-04-04T10:01:59.024Z</time></trkpt><trkpt lat="43.463384" lon="10.8683861"><ele>147.5</ele><time>2026-04-04T10:02:00.038Z</time></trkpt><trkpt lat="43.4634723" lon="10.8682863"><ele>151.0</ele><time>2026-04-04T10:02:01.018Z</time></trkpt><trkpt lat="43.4635682" lon="10.8681888"><ele>154.5</ele><time>2026-04-04T10:02:02.016Z</time></trkpt><trkpt lat="43.4636625" lon="10.8680818"><ele>158.0</ele><time>2026-04-04T10:02:03.009Z</time></trkpt><trkpt lat="43.4637624" lon="10.8679828"><ele>157.25</ele><time>2026-04-04T10:02:04.043Z</time></trkpt><trkpt lat="43.4638683" lon="10.8678902"><ele>156.5</ele><time>2026-04-04T10:02:05.016Z</time></trkpt><trkpt lat="43.4639802" lon="10.867809"><ele>155.75</ele><time>2026-04-04T10:02:06.024Z</time></trkpt><trkpt lat="43.4640999" lon="10.8677471"><ele>155.0</ele><time>2026-04-04T10:02:07.023Z</time></trkpt><trkpt lat="43.4642301" lon="10.8677312"><ele>155.0</ele><time>2026-04-04T10:02:08.01Z</time></trkpt><trkpt lat="43.4643638" lon="10.8677413"><ele>155.0</ele><time>2026-04-04T10:02:09.017Z</time></trkpt><trkpt lat="43.4645026" lon="10.8677533"><ele>155.0</ele><time>2026-04-04T10:02:10.016Z</time></trkpt><trkpt lat="43.4646472" lon="10.8677588"><ele>155.0</ele><time>2026-04-04T10:02:11.023Z</time></trkpt><trkpt lat="43.4647969" lon="10.8677558"><ele>156.66666666666666</ele><time>2026-04-04T10:02:12.023Z</time></trkpt><trkpt lat="43.4649449" lon="10.8677405"><ele>158.33333333333334</ele><time>2026-04-04T10:02:13.031Z</time></trkpt><trkpt lat="43.4650951" lon="10.8677187"><ele>160.0</ele><time>2026-04-04T10:02:14.035Z</time></trkpt><trkpt lat="43.4652503" lon="10.8676976"><ele>160.0</ele><time>2026-04-04T10:02:15.02Z</time></trkpt><trkpt lat="43.4654068" lon="10.8676771"><ele>160.0</ele><time>2026-04-04T10:02:16.019Z</time></trkpt><trkpt lat="43.4655654" lon="10.8676461"><ele>160.0</ele><time>2026-04-04T10:02:17.02Z</time></trkpt><trkpt lat="43.4657198" lon="10.867606"><ele>165.0</ele><time>2026-04-04T10:02:18.02Z</time></trkpt><trkpt lat="43.4658699" lon="10.8675618"><ele>170.0</ele><time>2026-04-04T10:02:19.021Z</time></trkpt><trkpt lat="43.4660186" lon="10.8675153"><ele>175.0</ele><time>2026-04-04T10:02:20.034Z</time></trkpt><trkpt lat="43.4661675" lon="10.8674691"><ele>176.5</ele><time>2026-04-04T10:02:21.011Z</time></trkpt><trkpt lat="43.4663113" lon="10.8674205"><ele>178.0</ele><time>2026-04-04T10:02:22.04Z</time></trkpt><trkpt lat="43.4664523" lon="10.86738"><ele>179.5</ele><time>2026-04-04T10:02:23.021Z</time></trkpt><trkpt lat="43.4665964" lon="10.8673427"><ele>181.0</ele><time>2026-04-04T10:02:24.035Z</time></trkpt><trkpt lat="43.4667411" lon="10.86731"><ele>181.0</ele><time>2026-04-04T10:02:25.024Z</time></trkpt><trkpt lat="43.4668854" lon="10.8672732"><ele>181.0</ele><time>2026-04-04T10:02:26.023Z</time></trkpt><trkpt lat="43.4670344" lon="10.8672399"><ele>181.0</ele><time>2026-04-04T10:02:27.021Z</time></trkpt><trkpt lat="43.4671835" lon="10.8672086"><ele>181.0</ele><time>2026-04-04T10:02:28.013Z</time></trkpt><trkpt lat="43.4673366" lon="10.8671743"><ele>182.0</ele><time>2026-04-04T10:02:29.052Z</time></trkpt><trkpt lat="43.467489" lon="10.8671403"><ele>183.0</ele><time>2026-04-04T10:02:30.033Z</time></trkpt><trkpt lat="43.4676388" lon="10.8671085"><ele>184.0</ele><time>2026-04-04T10:02:31.022Z</time></trkpt><trkpt lat="43.4677876" lon="10.8670746"><ele>184.0</ele><time>2026-04-04T10:02:32.04Z</time></trkpt><trkpt lat="43.4679336" lon="10.8670462"><ele>184.0</ele><time>2026-04-04T10:02:33.023Z</time></trkpt><trkpt lat="43.468079" lon="10.867009"><ele>184.0</ele><time>2026-04-04T10:02:34.025Z</time></trkpt><trkpt lat="43.4682178" lon="10.8669746"><ele>184.0</ele><time>2026-04-04T10:02:35.029Z</time></trkpt><trkpt lat="43.4683417" lon="10.8669283"><ele>182.75</ele><time>2026-04-04T10:02:36.016Z</time></trkpt><trkpt lat="43.468463" lon="10.8668623"><ele>181.5</ele><time>2026-04-04T10:02:37.016Z</time></trkpt><trkpt lat="43.4685872" lon="10.866782"><ele>180.25</ele><time>2026-04-04T10:02:38.042Z</time></trkpt><trkpt lat="43.4687141" lon="10.866695"><ele>179.0</ele><time>2026-04-04T10:02:39.017Z</time></trkpt><trkpt lat="43.4688371" lon="10.8666071"><ele>181.5</ele><time>2026-04-04T10:02:40.03Z</time></trkpt><trkpt lat="43.4689532" lon="10.8665289"><ele>184.0</ele><time>2026-04-04T10:02:41.004Z</time></trkpt><trkpt lat="43.4690803" lon="10.866473"><ele>186.5</ele><time>2026-04-04T10:02:42.027Z</time></trkpt><trkpt lat="43.4692182" lon="10.8664316"><ele>189.0</ele><time>2026-04-04T10:02:43.016Z</time></trkpt><trkpt lat="43.4693659" lon="10.8664089"><ele>189.0</ele><time>2026-04-04T10:02:44.022Z</time></trkpt><trkpt lat="43.4695178" lon="10.8663952"><ele>189.0</ele><time>2026-04-04T10:02:45.013Z</time></trkpt><trkpt lat="43.469673" lon="10.8663837"><ele>189.0</ele><time>2026-04-04T10:02:46.017Z</time></trkpt><trkpt lat="43.4698307" lon="10.8663812"><ele>190.0</ele><time>2026-04-04T10:02:47.026Z</time></trkpt><trkpt lat="43.4699889" lon="10.8663845"><ele>191.0</ele><time>2026-04-04T10:02:48.019Z</time></trkpt><trkpt lat="43.4701464" lon="10.8663879"><ele>192.0</ele><time>2026-04-04T10:02:49.013Z</time></trkpt><trkpt lat="43.4703033" lon="10.8663991"><ele>192.33333333333331</ele><time>2026-04-04T10:02:50.02Z</time></trkpt><trkpt lat="43.4704607" lon="10.8664144"><ele>192.66666666666666</ele><time>2026-04-04T10:02:51.015Z</time></trkpt><trkpt lat="43.4706161" lon="10.8664325"><ele>193.0</ele><time>2026-04-04T10:02:52.023Z</time></trkpt><trkpt lat="43.4707777" lon="10.8664574"><ele>193.0</ele><time>2026-04-04T10:02:53.019Z</time></trkpt><trkpt lat="43.4709468" lon="10.866482"><ele>193.0</ele><time>2026-04-04T10:02:54.051Z</time></trkpt><trkpt lat="43.4711133" lon="10.8665033"><ele>193.0</ele><time>2026-04-04T10:02:55.014Z</time></trkpt><trkpt lat="43.4712779" lon="10.8665227"><ele>195.0</ele><time>2026-04-04T10:02:56.036Z</time></trkpt><trkpt lat="43.4714436" lon="10.8665424"><ele>197.0</ele><time>2026-04-04T10:02:57.022Z</time></trkpt><trkpt lat="43.471609" lon="10.8665652"><ele>199.0</ele><time>2026-04-04T10:02:58.014Z</time></trkpt><trkpt lat="43.4717741" lon="10.8665857"><ele>199.0</ele><time>2026-04-04T10:02:59.012Z</time></trkpt><trkpt lat="43.4719375" lon="10.8666075"><ele>199.0</ele><time>2026-04-04T10:03:00.015Z</time></trkpt><trkpt lat="43.4720981" lon="10.8666268"><ele>199.0</ele><time>2026-04-04T10:03:01.016Z</time></trkpt><trkpt lat="43.472246" lon="10.866658"><ele>200.25</ele><time>2026-04-04T10:03:02.021Z</time></trkpt><trkpt lat="43.4723849" lon="10.8666884"><ele>201.5</ele><time>2026-04-04T10:03:03.01Z</time></trkpt><trkpt lat="43.4725235" lon="10.8667151"><ele>202.75</ele><time>2026-04-04T10:03:04.02Z</time></trkpt><trkpt lat="43.4726542" lon="10.8667381"><ele>204.0</ele><time>2026-04-04T10:03:05.019Z</time></trkpt><trkpt lat="43.4727817" lon="10.8667501"><ele>204.0</ele><time>2026-04-04T10:03:06.02Z</time></trkpt><trkpt lat="43.4729093" lon="10.8667433"><ele>204.0</ele><time>2026-04-04T10:03:07.01Z</time></trkpt><trkpt lat="43.4730389" lon="10.8667277"><ele>204.0</ele><time>2026-04-04T10:03:08.02Z</time></trkpt><trkpt lat="43.4731642" lon="10.8667028"><ele>204.0</ele><time>2026-04-04T10:03:09.015Z</time></trkpt><trkpt lat="43.4732825" lon="10.8666771"><ele>205.2</ele><time>2026-04-04T10:03:10.021Z</time></trkpt><trkpt lat="43.4733813" lon="10.8666475"><ele>206.39999999999998</ele><time>2026-04-04T10:03:11.014Z</time></trkpt><trkpt lat="43.4734561" lon="10.8666044"><ele>207.6</ele><time>2026-04-04T10:03:12.01Z</time></trkpt><trkpt lat="43.473523" lon="10.8664609"><ele>208.8</ele><time>2026-04-04T10:03:14.006Z</time></trkpt><trkpt lat="43.4735246" lon="10.8663736"><ele>210.0</ele><time>2026-04-04T10:03:15.015Z</time></trkpt><trkpt lat="43.4735157" lon="10.8662435"><ele>210.0</ele><time>2026-04-04T10:03:17.018Z</time></trkpt><trkpt lat="43.4734696" lon="10.8660799"><ele>210.0</ele><time>2026-04-04T10:03:19.022Z</time></trkpt><trkpt lat="43.4734179" lon="10.8659995"><ele>210.0</ele><time>2026-04-04T10:03:20.029Z</time></trkpt><trkpt lat="43.4733579" lon="10.865918"><ele>210.0</ele><time>2026-04-04T10:03:21.02Z</time></trkpt><trkpt lat="43.4732987" lon="10.8658295"><ele>210.0</ele><time>2026-04-04T10:03:22.024Z</time></trkpt><trkpt lat="43.4732374" lon="10.8657303"><ele>210.2</ele><time>2026-04-04T10:03:23.018Z</time></trkpt><trkpt lat="43.4731728" lon="10.8656129"><ele>210.4</ele><time>2026-04-04T10:03:24.049Z</time></trkpt><trkpt lat="43.4731083" lon="10.8654865"><ele>210.60000000000002</ele><time>2026-04-04T10:03:25.017Z</time></trkpt><trkpt lat="43.4730436" lon="10.8653638"><ele>210.8</ele><time>2026-04-04T10:03:26.026Z</time></trkpt><trkpt lat="43.4729746" lon="10.865239"><ele>211.0</ele><time>2026-04-04T10:03:27.019Z</time></trkpt><trkpt lat="43.4729006" lon="10.8651106"><ele>211.0</ele><time>2026-04-04T10:03:28.022Z</time></trkpt><trkpt lat="43.4728234" lon="10.8649797"><ele>211.0</ele><time>2026-04-04T10:03:29.019Z</time></trkpt><trkpt lat="43.4727447" lon="10.8648471"><ele>211.0</ele><time>2026-04-04T10:03:30.034Z</time></trkpt><trkpt lat="43.4726639" lon="10.8647146"><ele>211.0</ele><time>2026-04-04T10:03:31.029Z</time></trkpt><trkpt lat="43.4725825" lon="10.8645783"><ele>211.0</ele><time>2026-04-04T10:03:32.027Z</time></trkpt><trkpt lat="43.4725011" lon="10.8644418"><ele>211.0</ele><time>2026-04-04T10:03:33.021Z</time></trkpt><trkpt lat="43.4724236" lon="10.8643066"><ele>211.0</ele><time>2026-04-04T10:03:34.035Z</time></trkpt><trkpt lat="43.4723484" lon="10.8641741"><ele>211.0</ele><time>2026-04-04T10:03:35.015Z</time></trkpt><trkpt lat="43.4722826" lon="10.8640452"><ele>210.0</ele><time>2026-04-04T10:03:36.013Z</time></trkpt><trkpt lat="43.4722231" lon="10.8638974"><ele>209.0</ele><time>2026-04-04T10:03:37.02Z</time></trkpt><trkpt lat="43.4721744" lon="10.8637259"><ele>208.0</ele><time>2026-04-04T10:03:38.033Z</time></trkpt><trkpt lat="43.4721375" lon="10.8635378"><ele>207.0</ele><time>2026-04-04T10:03:39.017Z</time></trkpt><trkpt lat="43.4721222" lon="10.8633323"><ele>205.33333333333331</ele><time>2026-04-04T10:03:40.029Z</time></trkpt><trkpt lat="43.4721205" lon="10.8631149"><ele>203.66666666666666</ele><time>2026-04-04T10:03:41.02Z</time></trkpt><trkpt lat="43.472127" lon="10.8628897"><ele>202.0</ele><time>2026-04-04T10:03:42.031Z</time></trkpt><trkpt lat="43.4721337" lon="10.8626663"><ele>201.75</ele><time>2026-04-04T10:03:43.015Z</time></trkpt><trkpt lat="43.4721417" lon="10.8624503"><ele>201.5</ele><time>2026-04-04T10:03:44.038Z</time></trkpt><trkpt lat="43.4721485" lon="10.862247"><ele>201.25</ele><time>2026-04-04T10:03:45.02Z</time></trkpt><trkpt lat="43.4721513" lon="10.8620566"><ele>201.0</ele><time>2026-04-04T10:03:46.026Z</time></trkpt><trkpt lat="43.4721541" lon="10.8618737"><ele>201.75</ele><time>2026-04-04T10:03:47.029Z</time></trkpt><trkpt lat="43.4721566" lon="10.861698"><ele>202.5</ele><time>2026-04-04T10:03:48.001Z</time></trkpt><trkpt lat="43.4721529" lon="10.8615182"><ele>203.25</ele><time>2026-04-04T10:03:49.009Z</time></trkpt><trkpt lat="43.4721412" lon="10.8613357"><ele>204.0</ele><time>2026-04-04T10:03:50.019Z</time></trkpt><trkpt lat="43.4721185" lon="10.8611497"><ele>205.5</ele><time>2026-04-04T10:03:51.022Z</time></trkpt><trkpt lat="43.4720841" lon="10.8609598"><ele>207.0</ele><time>2026-04-04T10:03:52.037Z</time></trkpt><trkpt lat="43.4720297" lon="10.8607719"><ele>208.5</ele><time>2026-04-04T10:03:53.029Z</time></trkpt><trkpt lat="43.4719657" lon="10.8605951"><ele>210.0</ele><time>2026-04-04T10:03:54.015Z</time></trkpt><trkpt lat="43.4718916" lon="10.8604155"><ele>210.0</ele><time>2026-04-04T10:03:55.018Z</time></trkpt><trkpt lat="43.4718244" lon="10.8602321"><ele>210.0</ele><time>2026-04-04T10:03:55.984Z</time></trkpt><trkpt lat="43.4717632" lon="10.8600389"><ele>210.0</ele><time>2026-04-04T10:03:56.995Z</time></trkpt><trkpt lat="43.4717027" lon="10.859835"><ele>209.0</ele><time>2026-04-04T10:03:57.988Z</time></trkpt><trkpt lat="43.4716487" lon="10.8596226"><ele>208.0</ele><time>2026-04-04T10:03:58.996Z</time></trkpt><trkpt lat="43.4715942" lon="10.8594031"><ele>207.0</ele><time>2026-04-04T10:03:59.986Z</time></trkpt><trkpt lat="43.4715436" lon="10.8591938"><ele>206.0</ele><time>2026-04-04T10:04:01.005Z</time></trkpt><trkpt lat="43.4714901" lon="10.8589849"><ele>205.0</ele><time>2026-04-04T10:04:02.006Z</time></trkpt><trkpt lat="43.4714376" lon="10.8587759"><ele>204.0</ele><time>2026-04-04T10:04:03Z</time></trkpt><trkpt lat="43.4713887" lon="10.8585613"><ele>203.66666666666669</ele><time>2026-04-04T10:04:03.995Z</time></trkpt><trkpt lat="43.4713432" lon="10.8583469"><ele>203.33333333333334</ele><time>2026-04-04T10:04:05.022Z</time></trkpt><trkpt lat="43.4712973" lon="10.8581316"><ele>203.0</ele><time>2026-04-04T10:04:06.008Z</time></trkpt><trkpt lat="43.4712502" lon="10.8579126"><ele>202.66666666666669</ele><time>2026-04-04T10:04:07.022Z</time></trkpt><trkpt lat="43.471206" lon="10.8576901"><ele>202.33333333333331</ele><time>2026-04-04T10:04:08.03Z</time></trkpt><trkpt lat="43.4711714" lon="10.857465"><ele>202.0</ele><time>2026-04-04T10:04:09.012Z</time></trkpt><trkpt lat="43.4711492" lon="10.8572295"><ele>202.0</ele><time>2026-04-04T10:04:10.039Z</time></trkpt><trkpt lat="43.4711474" lon="10.856984"><ele>202.0</ele><time>2026-04-04T10:04:11.017Z</time></trkpt><trkpt lat="43.4711589" lon="10.8567412"><ele>202.0</ele><time>2026-04-04T10:04:12.022Z</time></trkpt><trkpt lat="43.4711785" lon="10.8565066"><ele>204.0</ele><time>2026-04-04T10:04:13.016Z</time></trkpt><trkpt lat="43.4711984" lon="10.8562819"><ele>206.0</ele><time>2026-04-04T10:04:14.014Z</time></trkpt><trkpt lat="43.4712135" lon="10.8560526"><ele>208.0</ele><time>2026-04-04T10:04:15.023Z</time></trkpt><trkpt lat="43.4712168" lon="10.8558222"><ele>208.66666666666666</ele><time>2026-04-04T10:04:16.03Z</time></trkpt><trkpt lat="43.4712031" lon="10.8555859"><ele>209.33333333333331</ele><time>2026-04-04T10:04:17.027Z</time></trkpt><trkpt lat="43.4711744" lon="10.8553472"><ele>210.0</ele><time>2026-04-04T10:04:18.03Z</time></trkpt><trkpt lat="43.4711318" lon="10.8551123"><ele>210.0</ele><time>2026-04-04T10:04:19.018Z</time></trkpt><trkpt lat="43.4710846" lon="10.8548774"><ele>210.0</ele><time>2026-04-04T10:04:20.033Z</time></trkpt><trkpt lat="43.4710395" lon="10.8546405"><ele>210.0</ele><time>2026-04-04T10:04:21.008Z</time></trkpt><trkpt lat="43.4710002" lon="10.8544073"><ele>207.66666666666669</ele><time>2026-04-04T10:04:21.999Z</time></trkpt><trkpt lat="43.4709739" lon="10.8541734"><ele>205.33333333333334</ele><time>2026-04-04T10:04:23.009Z</time></trkpt><trkpt lat="43.4709733" lon="10.8539346"><ele>203.0</ele><time>2026-04-04T10:04:24.001Z</time></trkpt><trkpt lat="43.4709968" lon="10.8536942"><ele>203.0</ele><time>2026-04-04T10:04:24.999Z</time></trkpt><trkpt lat="43.4710414" lon="10.853461"><ele>203.0</ele><time>2026-04-04T10:04:26.013Z</time></trkpt><trkpt lat="43.4710949" lon="10.8532285"><ele>203.0</ele><time>2026-04-04T10:04:27.018Z</time></trkpt><trkpt lat="43.4711435" lon="10.8529974"><ele>201.33333333333334</ele><time>2026-04-04T10:04:28.014Z</time></trkpt><trkpt lat="43.4711954" lon="10.8527714"><ele>199.66666666666669</ele><time>2026-04-04T10:04:29.003Z</time></trkpt><trkpt lat="43.4712412" lon="10.8525474"><ele>198.0</ele><time>2026-04-04T10:04:30.025Z</time></trkpt><trkpt lat="43.4712782" lon="10.8523214"><ele>197.0</ele><time>2026-04-04T10:04:31.03Z</time></trkpt><trkpt lat="43.4712984" lon="10.852094"><ele>196.0</ele><time>2026-04-04T10:04:32.022Z</time></trkpt><trkpt lat="43.4712982" lon="10.851868"><ele>195.0</ele><time>2026-04-04T10:04:33.02Z</time></trkpt><trkpt lat="43.4712689" lon="10.8516402"><ele>192.66666666666666</ele><time>2026-04-04T10:04:34.021Z</time></trkpt><trkpt lat="43.4712269" lon="10.8514218"><ele>190.33333333333331</ele><time>2026-04-04T10:04:35.012Z</time></trkpt><trkpt lat="43.4711801" lon="10.8512068"><ele>188.0</ele><time>2026-04-04T10:04:36.024Z</time></trkpt><trkpt lat="43.4711302" lon="10.8509928"><ele>188.66666666666666</ele><time>2026-04-04T10:04:37.011Z</time></trkpt><trkpt lat="43.4710819" lon="10.8507739"><ele>189.33333333333334</ele><time>2026-04-04T10:04:38.038Z</time></trkpt><trkpt lat="43.4710332" lon="10.8505574"><ele>190.0</ele><time>2026-04-04T10:04:39.015Z</time></trkpt><trkpt lat="43.4709828" lon="10.8503413"><ele>190.0</ele><time>2026-04-04T10:04:40.016Z</time></trkpt><trkpt lat="43.4709304" lon="10.8501287"><ele>190.0</ele><time>2026-04-04T10:04:41.011Z</time></trkpt><trkpt lat="43.4708802" lon="10.8499165"><ele>190.0</ele><time>2026-04-04T10:04:42.016Z</time></trkpt><trkpt lat="43.4708321" lon="10.8497022"><ele>191.66666666666669</ele><time>2026-04-04T10:04:43.018Z</time></trkpt><trkpt lat="43.4707834" lon="10.84949"><ele>193.33333333333334</ele><time>2026-04-04T10:04:44.019Z</time></trkpt><trkpt lat="43.4707317" lon="10.8492789"><ele>195.0</ele><time>2026-04-04T10:04:45.012Z</time></trkpt><trkpt lat="43.4706758" lon="10.8490704"><ele>197.33333333333331</ele><time>2026-04-04T10:04:46.028Z</time></trkpt><trkpt lat="43.4706184" lon="10.8488629"><ele>199.66666666666666</ele><time>2026-04-04T10:04:47.027Z</time></trkpt><trkpt lat="43.4705616" lon="10.8486584"><ele>202.0</ele><time>2026-04-04T10:04:48.023Z</time></trkpt><trkpt lat="43.4705065" lon="10.8484555"><ele>203.0</ele><time>2026-04-04T10:04:49.027Z</time></trkpt><trkpt lat="43.4704548" lon="10.8482563"><ele>204.0</ele><time>2026-04-04T10:04:50.032Z</time></trkpt><trkpt lat="43.4703996" lon="10.8480546"><ele>205.0</ele><time>2026-04-04T10:04:51.023Z</time></trkpt><trkpt lat="43.4703421" lon="10.8478534"><ele>200.0</ele><time>2026-04-04T10:04:52.032Z</time></trkpt><trkpt lat="43.4702812" lon="10.8476588"><ele>195.0</ele><time>2026-04-04T10:04:53.016Z</time></trkpt><trkpt lat="43.4702172" lon="10.8474677"><ele>190.0</ele><time>2026-04-04T10:04:54.05Z</time></trkpt><trkpt lat="43.4701468" lon="10.8472817"><ele>190.0</ele><time>2026-04-04T10:04:55.024Z</time></trkpt><trkpt lat="43.4700659" lon="10.8471012"><ele>190.0</ele><time>2026-04-04T10:04:56.025Z</time></trkpt><trkpt lat="43.4699788" lon="10.8469256"><ele>190.0</ele><time>2026-04-04T10:04:57.011Z</time></trkpt><trkpt lat="43.4698842" lon="10.8467494"><ele>192.0</ele><time>2026-04-04T10:04:58Z</time></trkpt><trkpt lat="43.4697905" lon="10.8465767"><ele>194.0</ele><time>2026-04-04T10:04:59.019Z</time></trkpt><trkpt lat="43.4697048" lon="10.8464147"><ele>196.0</ele><time>2026-04-04T10:05:00.006Z</time></trkpt><trkpt lat="43.4696244" lon="10.8462631"><ele>198.0</ele><time>2026-04-04T10:05:01.016Z</time></trkpt><trkpt lat="43.4695561" lon="10.8460945"><ele>192.66666666666666</ele><time>2026-04-04T10:05:02.012Z</time></trkpt><trkpt lat="43.4695103" lon="10.845904"><ele>187.33333333333331</ele><time>2026-04-04T10:05:03.018Z</time></trkpt><trkpt lat="43.4694937" lon="10.8456899"><ele>182.0</ele><time>2026-04-04T10:05:04.013Z</time></trkpt><trkpt lat="43.4694981" lon="10.8454728"><ele>182.0</ele><time>2026-04-04T10:05:05.016Z</time></trkpt><trkpt lat="43.4695084" lon="10.8452571"><ele>182.0</ele><time>2026-04-04T10:05:06.029Z</time></trkpt><trkpt lat="43.4695203" lon="10.8450363"><ele>182.0</ele><time>2026-04-04T10:05:07.011Z</time></trkpt><trkpt lat="43.4695308" lon="10.8448223"><ele>182.0</ele><time>2026-04-04T10:05:08.026Z</time></trkpt><trkpt lat="43.4695397" lon="10.8446082"><ele>182.0</ele><time>2026-04-04T10:05:09.021Z</time></trkpt><trkpt lat="43.4695476" lon="10.8443919"><ele>182.0</ele><time>2026-04-04T10:05:10.034Z</time></trkpt><trkpt lat="43.4695469" lon="10.8441838"><ele>182.0</ele><time>2026-04-04T10:05:11.02Z</time></trkpt><trkpt lat="43.4695319" lon="10.8439711"><ele>182.0</ele><time>2026-04-04T10:05:12.009Z</time></trkpt><trkpt lat="43.4695021" lon="10.8437524"><ele>182.0</ele><time>2026-04-04T10:05:13.012Z</time></trkpt><trkpt lat="43.4694627" lon="10.8435435"><ele>185.0</ele><time>2026-04-04T10:05:14.043Z</time></trkpt><trkpt lat="43.4694105" lon="10.843336"><ele>188.0</ele><time>2026-04-04T10:05:15.022Z</time></trkpt><trkpt lat="43.4693534" lon="10.8431351"><ele>191.0</ele><time>2026-04-04T10:05:16.015Z</time></trkpt><trkpt lat="43.4692999" lon="10.8429399"><ele>191.0</ele><time>2026-04-04T10:05:17.009Z</time></trkpt><trkpt lat="43.4692494" lon="10.8427563"><ele>191.0</ele><time>2026-04-04T10:05:18.029Z</time></trkpt><trkpt lat="43.4691996" lon="10.8425721"><ele>191.0</ele><time>2026-04-04T10:05:19.013Z</time></trkpt><trkpt lat="43.4691538" lon="10.8423877"><ele>191.0</ele><time>2026-04-04T10:05:20.031Z</time></trkpt><trkpt lat="43.4691283" lon="10.8421901"><ele>191.33333333333331</ele><time>2026-04-04T10:05:21.018Z</time></trkpt><trkpt lat="43.4691361" lon="10.8419817"><ele>191.66666666666666</ele><time>2026-04-04T10:05:22.026Z</time></trkpt><trkpt lat="43.4691852" lon="10.8417767"><ele>192.0</ele><time>2026-04-04T10:05:23.009Z</time></trkpt><trkpt lat="43.4692651" lon="10.841581"><ele>192.33333333333331</ele><time>2026-04-04T10:05:24.024Z</time></trkpt><trkpt lat="43.4693371" lon="10.8413875"><ele>192.66666666666666</ele><time>2026-04-04T10:05:25.019Z</time></trkpt><trkpt lat="43.4693891" lon="10.8411951"><ele>193.0</ele><time>2026-04-04T10:05:26.009Z</time></trkpt><trkpt lat="43.4694083" lon="10.8409993"><ele>194.66666666666666</ele><time>2026-04-04T10:05:26.996Z</time></trkpt><trkpt lat="43.4693861" lon="10.8407915"><ele>196.33333333333331</ele><time>2026-04-04T10:05:28.008Z</time></trkpt><trkpt lat="43.4693365" lon="10.8405836"><ele>198.0</ele><time>2026-04-04T10:05:29.015Z</time></trkpt><trkpt lat="43.4692792" lon="10.8403734"><ele>198.0</ele><time>2026-04-04T10:05:30.024Z</time></trkpt><trkpt lat="43.469215" lon="10.8401645"><ele>198.0</ele><time>2026-04-04T10:05:31.02Z</time></trkpt><trkpt lat="43.4691485" lon="10.8399491"><ele>198.0</ele><time>2026-04-04T10:05:32.017Z</time></trkpt><trkpt lat="43.4690857" lon="10.8397358"><ele>195.66666666666666</ele><time>2026-04-04T10:05:33.017Z</time></trkpt><trkpt lat="43.4690233" lon="10.8395229"><ele>193.33333333333331</ele><time>2026-04-04T10:05:34.012Z</time></trkpt><trkpt lat="43.4689555" lon="10.8393101"><ele>191.0</ele><time>2026-04-04T10:05:35Z</time></trkpt><trkpt lat="43.4688947" lon="10.8390954"><ele>193.66666666666666</ele><time>2026-04-04T10:05:36.006Z</time></trkpt><trkpt lat="43.4688367" lon="10.8388843"><ele>196.33333333333331</ele><time>2026-04-04T10:05:37.006Z</time></trkpt><trkpt lat="43.4687775" lon="10.8386749"><ele>199.0</ele><time>2026-04-04T10:05:37.998Z</time></trkpt><trkpt lat="43.4687177" lon="10.8384731"><ele>197.33333333333331</ele><time>2026-04-04T10:05:39.006Z</time></trkpt><trkpt lat="43.4686532" lon="10.8382715"><ele>195.66666666666669</ele><time>2026-04-04T10:05:40.023Z</time></trkpt><trkpt lat="43.4685821" lon="10.838073"><ele>194.0</ele><time>2026-04-04T10:05:41.015Z</time></trkpt><trkpt lat="43.4684976" lon="10.8378812"><ele>194.0</ele><time>2026-04-04T10:05:42.037Z</time></trkpt><trkpt lat="43.4683971" lon="10.8377011"><ele>194.0</ele><time>2026-04-04T10:05:43.016Z</time></trkpt><trkpt lat="43.4682877" lon="10.8375323"><ele>194.0</ele><time>2026-04-04T10:05:44.022Z</time></trkpt><trkpt lat="43.4681661" lon="10.8373799"><ele>192.0</ele><time>2026-04-04T10:05:45.006Z</time></trkpt><trkpt lat="43.4680365" lon="10.8372401"><ele>190.0</ele><time>2026-04-04T10:05:46.018Z</time></trkpt><trkpt lat="43.4679003" lon="10.8371235"><ele>188.0</ele><time>2026-04-04T10:05:47.009Z</time></trkpt><trkpt lat="43.4677535" lon="10.8370207"><ele>188.0</ele><time>2026-04-04T10:05:48.002Z</time></trkpt><trkpt lat="43.4676006" lon="10.8369433"><ele>188.0</ele><time>2026-04-04T10:05:49.006Z</time></trkpt><trkpt lat="43.4674433" lon="10.8368795"><ele>188.0</ele><time>2026-04-04T10:05:50.015Z</time></trkpt><trkpt lat="43.4672837" lon="10.8368136"><ele>184.66666666666666</ele><time>2026-04-04T10:05:51.009Z</time></trkpt><trkpt lat="43.4671316" lon="10.8367433"><ele>181.33333333333334</ele><time>2026-04-04T10:05:52.018Z</time></trkpt><trkpt lat="43.4669782" lon="10.836664"><ele>178.0</ele><time>2026-04-04T10:05:53.015Z</time></trkpt><trkpt lat="43.4668269" lon="10.8365633"><ele>178.0</ele><time>2026-04-04T10:05:54.012Z</time></trkpt><trkpt lat="43.4666794" lon="10.8364564"><ele>178.0</ele><time>2026-04-04T10:05:55.011Z</time></trkpt><trkpt lat="43.4665364" lon="10.8363351"><ele>178.0</ele><time>2026-04-04T10:05:56.022Z</time></trkpt><trkpt lat="43.4664002" lon="10.8362029"><ele>177.0</ele><time>2026-04-04T10:05:57.008Z</time></trkpt><trkpt lat="43.466274" lon="10.8360506"><ele>176.0</ele><time>2026-04-04T10:05:58.019Z</time></trkpt><trkpt lat="43.4661574" lon="10.8358788"><ele>175.0</ele><time>2026-04-04T10:05:59.018Z</time></trkpt><trkpt lat="43.4660522" lon="10.8357048"><ele>175.0</ele><time>2026-04-04T10:06:00.023Z</time></trkpt><trkpt lat="43.4659549" lon="10.8355188"><ele>175.0</ele><time>2026-04-04T10:06:01.028Z</time></trkpt><trkpt lat="43.4658605" lon="10.8353285"><ele>175.0</ele><time>2026-04-04T10:06:02.017Z</time></trkpt><trkpt lat="43.4657672" lon="10.8351366"><ele>172.33333333333334</ele><time>2026-04-04T10:06:03.014Z</time></trkpt><trkpt lat="43.4656706" lon="10.8349474"><ele>169.66666666666666</ele><time>2026-04-04T10:06:04.023Z</time></trkpt><trkpt lat="43.4655757" lon="10.8347562"><ele>167.0</ele><time>2026-04-04T10:06:05.016Z</time></trkpt><trkpt lat="43.4654806" lon="10.8345632"><ele>166.0</ele><time>2026-04-04T10:06:06.028Z</time></trkpt><trkpt lat="43.4653898" lon="10.8343671"><ele>165.0</ele><time>2026-04-04T10:06:07.021Z</time></trkpt><trkpt lat="43.4652952" lon="10.8341745"><ele>164.0</ele><time>2026-04-04T10:06:08.01Z</time></trkpt><trkpt lat="43.4652018" lon="10.8339816"><ele>163.66666666666666</ele><time>2026-04-04T10:06:09.019Z</time></trkpt><trkpt lat="43.4651061" lon="10.8337876"><ele>163.33333333333334</ele><time>2026-04-04T10:06:10.039Z</time></trkpt><trkpt lat="43.4650136" lon="10.8335934"><ele>163.0</ele><time>2026-04-04T10:06:11.015Z</time></trkpt><trkpt lat="43.4649199" lon="10.8334005"><ele>162.0</ele><time>2026-04-04T10:06:12.04Z</time></trkpt><trkpt lat="43.4648226" lon="10.8332067"><ele>161.0</ele><time>2026-04-04T10:06:13.031Z</time></trkpt><trkpt lat="43.4647133" lon="10.8330239"><ele>160.0</ele><time>2026-04-04T10:06:14.031Z</time></trkpt><trkpt lat="43.464589" lon="10.8328587"><ele>159.0</ele><time>2026-04-04T10:06:15.011Z</time></trkpt><trkpt lat="43.4644477" lon="10.8327152"><ele>158.0</ele><time>2026-04-04T10:06:16.027Z</time></trkpt><trkpt lat="43.4642944" lon="10.8325965"><ele>157.0</ele><time>2026-04-04T10:06:17.03Z</time></trkpt><trkpt lat="43.4641374" lon="10.8325084"><ele>157.0</ele><time>2026-04-04T10:06:18.038Z</time></trkpt><trkpt lat="43.4639693" lon="10.8324414"><ele>157.0</ele><time>2026-04-04T10:06:19.022Z</time></trkpt><trkpt lat="43.4638005" lon="10.8323932"><ele>157.0</ele><time>2026-04-04T10:06:20.048Z</time></trkpt><trkpt lat="43.4636346" lon="10.8323594"><ele>154.0</ele><time>2026-04-04T10:06:21.019Z</time></trkpt><trkpt lat="43.4634734" lon="10.832322"><ele>151.0</ele><time>2026-04-04T10:06:22.032Z</time></trkpt><trkpt lat="43.46332" lon="10.8322826"><ele>148.0</ele><time>2026-04-04T10:06:23.02Z</time></trkpt><trkpt lat="43.4631642" lon="10.8322378"><ele>148.0</ele><time>2026-04-04T10:06:24.009Z</time></trkpt><trkpt lat="43.4630048" lon="10.8321929"><ele>148.0</ele><time>2026-04-04T10:06:25.017Z</time></trkpt><trkpt lat="43.4628436" lon="10.8321439"><ele>148.0</ele><time>2026-04-04T10:06:26.029Z</time></trkpt><trkpt lat="43.4626792" lon="10.832087"><ele>143.33333333333334</ele><time>2026-04-04T10:06:27.013Z</time></trkpt><trkpt lat="43.4625157" lon="10.8320185"><ele>138.66666666666666</ele><time>2026-04-04T10:06:28.018Z</time></trkpt><trkpt lat="43.4623505" lon="10.8319467"><ele>134.0</ele><time>2026-04-04T10:06:29.019Z</time></trkpt><trkpt lat="43.4621834" lon="10.8318768"><ele>133.33333333333331</ele><time>2026-04-04T10:06:30.004Z</time></trkpt><trkpt lat="43.4620203" lon="10.8318012"><ele>132.66666666666666</ele><time>2026-04-04T10:06:31.014Z</time></trkpt><trkpt lat="43.4618588" lon="10.8317323"><ele>132.0</ele><time>2026-04-04T10:06:32.01Z</time></trkpt><trkpt lat="43.4617041" lon="10.8316634"><ele>132.0</ele><time>2026-04-04T10:06:33.015Z</time></trkpt><trkpt lat="43.461554" lon="10.8315971"><ele>132.0</ele><time>2026-04-04T10:06:34.015Z</time></trkpt><trkpt lat="43.4614088" lon="10.8315323"><ele>132.0</ele><time>2026-04-04T10:06:35.015Z</time></trkpt><trkpt lat="43.4612638" lon="10.8314684"><ele>132.0</ele><time>2026-04-04T10:06:36.022Z</time></trkpt><trkpt lat="43.4611173" lon="10.8314045"><ele>132.0</ele><time>2026-04-04T10:06:37.01Z</time></trkpt><trkpt lat="43.4609777" lon="10.831345"><ele>132.0</ele><time>2026-04-04T10:06:38.01Z</time></trkpt><trkpt lat="43.4608491" lon="10.8312853"><ele>132.0</ele><time>2026-04-04T10:06:39.004Z</time></trkpt><trkpt lat="43.4607395" lon="10.8312363"><ele>132.0</ele><time>2026-04-04T10:06:40.013Z</time></trkpt><trkpt lat="43.4606492" lon="10.8311951"><ele>132.0</ele><time>2026-04-04T10:06:41.014Z</time></trkpt><trkpt lat="43.4605805" lon="10.8311577"><ele>132.0</ele><time>2026-04-04T10:06:42.009Z</time></trkpt><trkpt lat="43.4605075" lon="10.8310548"><ele>132.0</ele><time>2026-04-04T10:06:44.002Z</time></trkpt><trkpt lat="43.4605626" lon="10.8308803"><ele>132.0</ele><time>2026-04-04T10:06:46.013Z</time></trkpt><trkpt lat="43.4606152" lon="10.8307789"><ele>130.25</ele><time>2026-04-04T10:06:47.01Z</time></trkpt><trkpt lat="43.4606668" lon="10.8306699"><ele>128.5</ele><time>2026-04-04T10:06:48.017Z</time></trkpt><trkpt lat="43.4606749" lon="10.8305091"><ele>126.75</ele><time>2026-04-04T10:06:49.015Z</time></trkpt><trkpt lat="43.4606759" lon="10.8303349"><ele>125.0</ele><time>2026-04-04T10:06:50.03Z</time></trkpt><trkpt lat="43.4606935" lon="10.830153"><ele>124.75</ele><time>2026-04-04T10:06:51.014Z</time></trkpt><trkpt lat="43.4607336" lon="10.8299786"><ele>124.5</ele><time>2026-04-04T10:06:52.024Z</time></trkpt><trkpt lat="43.4608066" lon="10.829822"><ele>124.25</ele><time>2026-04-04T10:06:53.009Z</time></trkpt><trkpt lat="43.4609095" lon="10.8296848"><ele>124.0</ele><time>2026-04-04T10:06:54.045Z</time></trkpt><trkpt lat="43.4610172" lon="10.8295647"><ele>124.0</ele><time>2026-04-04T10:06:55.018Z</time></trkpt><trkpt lat="43.4611387" lon="10.8294683"><ele>124.0</ele><time>2026-04-04T10:06:56.001Z</time></trkpt><trkpt lat="43.4612713" lon="10.8293932"><ele>124.0</ele><time>2026-04-04T10:06:57.012Z</time></trkpt><trkpt lat="43.4614166" lon="10.8293245"><ele>124.0</ele><time>2026-04-04T10:06:58.027Z</time></trkpt><trkpt lat="43.4615744" lon="10.8292545"><ele>128.0</ele><time>2026-04-04T10:06:59.026Z</time></trkpt><trkpt lat="43.4617263" lon="10.8291746"><ele>132.0</ele><time>2026-04-04T10:07:00.022Z</time></trkpt><trkpt lat="43.4618805" lon="10.8290932"><ele>136.0</ele><time>2026-04-04T10:07:01.013Z</time></trkpt><trkpt lat="43.4620336" lon="10.8290225"><ele>139.0</ele><time>2026-04-04T10:07:02.023Z</time></trkpt><trkpt lat="43.4621823" lon="10.8289581"><ele>142.0</ele><time>2026-04-04T10:07:03.012Z</time></trkpt><trkpt lat="43.4623305" lon="10.8288967"><ele>145.0</ele><time>2026-04-04T10:07:04.024Z</time></trkpt><trkpt lat="43.4624763" lon="10.8288473"><ele>145.0</ele><time>2026-04-04T10:07:05.015Z</time></trkpt><trkpt lat="43.4626216" lon="10.8288041"><ele>145.0</ele><time>2026-04-04T10:07:06.024Z</time></trkpt><trkpt lat="43.462769" lon="10.8287581"><ele>145.0</ele><time>2026-04-04T10:07:07.031Z</time></trkpt><trkpt lat="43.4629105" lon="10.8287096"><ele>145.0</ele><time>2026-04-04T10:07:08.015Z</time></trkpt><trkpt lat="43.463043" lon="10.8286608"><ele>144.5</ele><time>2026-04-04T10:07:09.021Z</time></trkpt><trkpt lat="43.4631706" lon="10.8286137"><ele>144.0</ele><time>2026-04-04T10:07:10.022Z</time></trkpt><trkpt lat="43.4633003" lon="10.828557"><ele>143.5</ele><time>2026-04-04T10:07:11.017Z</time></trkpt><trkpt lat="43.4634269" lon="10.8284789"><ele>143.0</ele><time>2026-04-04T10:07:12.012Z</time></trkpt><trkpt lat="43.463539" lon="10.8283873"><ele>140.5</ele><time>2026-04-04T10:07:13.017Z</time></trkpt><trkpt lat="43.4636402" lon="10.8282903"><ele>138.0</ele><time>2026-04-04T10:07:14.025Z</time></trkpt><trkpt lat="43.463745" lon="10.8282232"><ele>135.5</ele><time>2026-04-04T10:07:15.012Z</time></trkpt><trkpt lat="43.4638574" lon="10.8281964"><ele>133.0</ele><time>2026-04-04T10:07:16.017Z</time></trkpt><trkpt lat="43.463969" lon="10.8282143"><ele>132.75</ele><time>2026-04-04T10:07:17.021Z</time></trkpt><trkpt lat="43.4640649" lon="10.8282849"><ele>132.5</ele><time>2026-04-04T10:07:18.02Z</time></trkpt><trkpt lat="43.4641521" lon="10.8283971"><ele>132.25</ele><time>2026-04-04T10:07:19.017Z</time></trkpt><trkpt lat="43.4642397" lon="10.8285278"><ele>132.0</ele><time>2026-04-04T10:07:20.021Z</time></trkpt><trkpt lat="43.4643345" lon="10.8286477"><ele>132.0</ele><time>2026-04-04T10:07:21.016Z</time></trkpt><trkpt lat="43.4644309" lon="10.8287666"><ele>132.0</ele><time>2026-04-04T10:07:22.042Z</time></trkpt><trkpt lat="43.4645256" lon="10.8288949"><ele>132.0</ele><time>2026-04-04T10:07:23.019Z</time></trkpt><trkpt lat="43.464614" lon="10.8290157"><ele>132.0</ele><time>2026-04-04T10:07:24.023Z</time></trkpt><trkpt lat="43.4647083" lon="10.8291077"><ele>131.2</ele><time>2026-04-04T10:07:25.016Z</time></trkpt><trkpt lat="43.4648072" lon="10.8291736"><ele>130.39999999999998</ele><time>2026-04-04T10:07:26.017Z</time></trkpt><trkpt lat="43.4649093" lon="10.8292"><ele>129.60000000000002</ele><time>2026-04-04T10:07:27.029Z</time></trkpt><trkpt lat="43.4650121" lon="10.8291554"><ele>128.8</ele><time>2026-04-04T10:07:28.018Z</time></trkpt><trkpt lat="43.4650968" lon="10.8290721"><ele>128.0</ele><time>2026-04-04T10:07:29.016Z</time></trkpt><trkpt lat="43.4651506" lon="10.8289288"><ele>128.0</ele><time>2026-04-04T10:07:30.015Z</time></trkpt><trkpt lat="43.4651928" lon="10.8287732"><ele>128.0</ele><time>2026-04-04T10:07:31.013Z</time></trkpt><trkpt lat="43.4652233" lon="10.8286082"><ele>128.0</ele><time>2026-04-04T10:07:32.029Z</time></trkpt><trkpt lat="43.465255" lon="10.8284427"><ele>128.0</ele><time>2026-04-04T10:07:33.011Z</time></trkpt><trkpt lat="43.4652887" lon="10.8282748"><ele>126.25</ele><time>2026-04-04T10:07:34.016Z</time></trkpt><trkpt lat="43.4653278" lon="10.828094"><ele>124.5</ele><time>2026-04-04T10:07:35.022Z</time></trkpt><trkpt lat="43.4653607" lon="10.8279123"><ele>122.75</ele><time>2026-04-04T10:07:36.033Z</time></trkpt><trkpt lat="43.4654064" lon="10.8277404"><ele>121.0</ele><time>2026-04-04T10:07:37.016Z</time></trkpt><trkpt lat="43.4654741" lon="10.8275844"><ele>121.0</ele><time>2026-04-04T10:07:38.034Z</time></trkpt><trkpt lat="43.4655563" lon="10.8274553"><ele>121.0</ele><time>2026-04-04T10:07:38.999Z</time></trkpt><trkpt lat="43.4656612" lon="10.8273979"><ele>121.0</ele><time>2026-04-04T10:07:40.031Z</time></trkpt><trkpt lat="43.4657741" lon="10.8273781"><ele>121.0</ele><time>2026-04-04T10:07:41.019Z</time></trkpt><trkpt lat="43.4659004" lon="10.8274043"><ele>121.0</ele><time>2026-04-04T10:07:42.027Z</time></trkpt><trkpt lat="43.4660346" lon="10.8274468"><ele>121.0</ele><time>2026-04-04T10:07:43.016Z</time></trkpt><trkpt lat="43.4661734" lon="10.8274903"><ele>121.0</ele><time>2026-04-04T10:07:44.015Z</time></trkpt><trkpt lat="43.466306" lon="10.8275325"><ele>121.0</ele><time>2026-04-04T10:07:45.018Z</time></trkpt><trkpt lat="43.4664366" lon="10.8275714"><ele>120.0</ele><time>2026-04-04T10:07:46.049Z</time></trkpt><trkpt lat="43.4665622" lon="10.8276368"><ele>119.0</ele><time>2026-04-04T10:07:47.017Z</time></trkpt><trkpt lat="43.4666741" lon="10.8277341"><ele>118.0</ele><time>2026-04-04T10:07:48.025Z</time></trkpt><trkpt lat="43.4667832" lon="10.8278413"><ele>117.0</ele><time>2026-04-04T10:07:49.015Z</time></trkpt><trkpt lat="43.466879" lon="10.8279554"><ele>116.75</ele><time>2026-04-04T10:07:50.028Z</time></trkpt><trkpt lat="43.4669676" lon="10.828062"><ele>116.5</ele><time>2026-04-04T10:07:51.004Z</time></trkpt><trkpt lat="43.4670681" lon="10.8281529"><ele>116.25</ele><time>2026-04-04T10:07:52.023Z</time></trkpt><trkpt lat="43.4671923" lon="10.8282061"><ele>116.0</ele><time>2026-04-04T10:07:53.007Z</time></trkpt><trkpt lat="43.4673331" lon="10.8282223"><ele>116.0</ele><time>2026-04-04T10:07:54.008Z</time></trkpt><trkpt lat="43.4674727" lon="10.8282027"><ele>116.0</ele><time>2026-04-04T10:07:55.016Z</time></trkpt><trkpt lat="43.4676132" lon="10.8281754"><ele>116.0</ele><time>2026-04-04T10:07:56.024Z</time></trkpt><trkpt lat="43.467757" lon="10.8281545"><ele>116.0</ele><time>2026-04-04T10:07:57.016Z</time></trkpt><trkpt lat="43.4678977" lon="10.8281384"><ele>115.5</ele><time>2026-04-04T10:07:58.024Z</time></trkpt><trkpt lat="43.4680379" lon="10.8281147"><ele>115.0</ele><time>2026-04-04T10:07:59.023Z</time></trkpt><trkpt lat="43.4681753" lon="10.8280904"><ele>114.5</ele><time>2026-04-04T10:08:00.028Z</time></trkpt><trkpt lat="43.4683072" lon="10.8280728"><ele>114.0</ele><time>2026-04-04T10:08:01.015Z</time></trkpt><trkpt lat="43.4684408" lon="10.8280542"><ele>114.0</ele><time>2026-04-04T10:08:02.038Z</time></trkpt><trkpt lat="43.4685774" lon="10.8280377"><ele>114.0</ele><time>2026-04-04T10:08:03.022Z</time></trkpt><trkpt lat="43.4687117" lon="10.8280433"><ele>114.0</ele><time>2026-04-04T10:08:04.021Z</time></trkpt><trkpt lat="43.4688444" lon="10.8280858"><ele>114.0</ele><time>2026-04-04T10:08:05.01Z</time></trkpt><trkpt lat="43.4689729" lon="10.828175"><ele>115.5</ele><time>2026-04-04T10:08:06.036Z</time></trkpt><trkpt lat="43.4690919" lon="10.8282744"><ele>117.0</ele><time>2026-04-04T10:08:07.008Z</time></trkpt><trkpt lat="43.4692129" lon="10.8283764"><ele>118.5</ele><time>2026-04-04T10:08:08.029Z</time></trkpt><trkpt lat="43.4693302" lon="10.8284815"><ele>120.0</ele><time>2026-04-04T10:08:09.009Z</time></trkpt><trkpt lat="43.4694453" lon="10.8285923"><ele>120.0</ele><time>2026-04-04T10:08:10.007Z</time></trkpt><trkpt lat="43.4695532" lon="10.8287076"><ele>120.0</ele><time>2026-04-04T10:08:11.004Z</time></trkpt><trkpt lat="43.4696594" lon="10.828829"><ele>120.0</ele><time>2026-04-04T10:08:12.019Z</time></trkpt><trkpt lat="43.4697552" lon="10.8289655"><ele>120.0</ele><time>2026-04-04T10:08:13.013Z</time></trkpt><trkpt lat="43.4698318" lon="10.8291244"><ele>120.75</ele><time>2026-04-04T10:08:14.017Z</time></trkpt><trkpt lat="43.4698914" lon="10.8293016"><ele>121.5</ele><time>2026-04-04T10:08:15.011Z</time></trkpt><trkpt lat="43.4699367" lon="10.8294894"><ele>122.25</ele><time>2026-04-04T10:08:16.012Z</time></trkpt><trkpt lat="43.469972" lon="10.8296864"><ele>123.0</ele><time>2026-04-04T10:08:17.006Z</time></trkpt><trkpt lat="43.4700094" lon="10.8298863"><ele>123.0</ele><time>2026-04-04T10:08:18.015Z</time></trkpt><trkpt lat="43.4700485" lon="10.830087"><ele>123.0</ele><time>2026-04-04T10:08:19.007Z</time></trkpt><trkpt lat="43.4700907" lon="10.8302812"><ele>123.0</ele><time>2026-04-04T10:08:20.022Z</time></trkpt><trkpt lat="43.4701386" lon="10.830471"><ele>123.0</ele><time>2026-04-04T10:08:21.008Z</time></trkpt><trkpt lat="43.4702033" lon="10.8306484"><ele>123.25</ele><time>2026-04-04T10:08:22.017Z</time></trkpt><trkpt lat="43.4702891" lon="10.8308091"><ele>123.5</ele><time>2026-04-04T10:08:23.007Z</time></trkpt><trkpt lat="43.4703901" lon="10.8309445"><ele>123.75</ele><time>2026-04-04T10:08:24.019Z</time></trkpt><trkpt lat="43.4705132" lon="10.8310577"><ele>124.0</ele><time>2026-04-04T10:08:25.014Z</time></trkpt><trkpt lat="43.4706453" lon="10.8311474"><ele>124.0</ele><time>2026-04-04T10:08:26.029Z</time></trkpt><trkpt lat="43.4707744" lon="10.8312363"><ele>124.0</ele><time>2026-04-04T10:08:27.015Z</time></trkpt><trkpt lat="43.4709097" lon="10.831328"><ele>124.0</ele><time>2026-04-04T10:08:28.021Z</time></trkpt><trkpt lat="43.471048" lon="10.8314213"><ele>124.0</ele><time>2026-04-04T10:08:29.01Z</time></trkpt><trkpt lat="43.4711919" lon="10.8315067"><ele>125.66666666666667</ele><time>2026-04-04T10:08:30.02Z</time></trkpt><trkpt lat="43.4713394" lon="10.8316031"><ele>127.33333333333334</ele><time>2026-04-04T10:08:31.009Z</time></trkpt><trkpt lat="43.4714835" lon="10.831698"><ele>129.0</ele><time>2026-04-04T10:08:32.025Z</time></trkpt><trkpt lat="43.4716344" lon="10.831793"><ele>127.66666666666666</ele><time>2026-04-04T10:08:33.017Z</time></trkpt><trkpt lat="43.4717838" lon="10.8318906"><ele>126.33333333333333</ele><time>2026-04-04T10:08:34.042Z</time></trkpt><trkpt lat="43.4719328" lon="10.8319831"><ele>125.0</ele><time>2026-04-04T10:08:35.016Z</time></trkpt><trkpt lat="43.4720754" lon="10.8320779"><ele>126.33333333333333</ele><time>2026-04-04T10:08:36.031Z</time></trkpt><trkpt lat="43.4722257" lon="10.8321673"><ele>127.66666666666666</ele><time>2026-04-04T10:08:37.017Z</time></trkpt><trkpt lat="43.4723841" lon="10.8322306"><ele>129.0</ele><time>2026-04-04T10:08:38.021Z</time></trkpt><trkpt lat="43.4725479" lon="10.8322723"><ele>129.0</ele><time>2026-04-04T10:08:39.022Z</time></trkpt><trkpt lat="43.4727148" lon="10.8322996"><ele>129.0</ele><time>2026-04-04T10:08:40.036Z</time></trkpt><trkpt lat="43.4728719" lon="10.8323018"><ele>129.0</ele><time>2026-04-04T10:08:41.01Z</time></trkpt><trkpt lat="43.47303" lon="10.8322783"><ele>130.66666666666666</ele><time>2026-04-04T10:08:42.014Z</time></trkpt><trkpt lat="43.4731803" lon="10.8322066"><ele>132.33333333333331</ele><time>2026-04-04T10:08:43.012Z</time></trkpt><trkpt lat="43.4733265" lon="10.8321062"><ele>134.0</ele><time>2026-04-04T10:08:44.028Z</time></trkpt><trkpt lat="43.4734695" lon="10.8319917"><ele>134.0</ele><time>2026-04-04T10:08:45.017Z</time></trkpt><trkpt lat="43.4736164" lon="10.8318689"><ele>134.0</ele><time>2026-04-04T10:08:46.033Z</time></trkpt><trkpt lat="43.4737653" lon="10.8317466"><ele>134.0</ele><time>2026-04-04T10:08:47.03Z</time></trkpt><trkpt lat="43.4739213" lon="10.8316272"><ele>138.0</ele><time>2026-04-04T10:08:48.017Z</time></trkpt><trkpt lat="43.4740782" lon="10.8315145"><ele>142.0</ele><time>2026-04-04T10:08:49.014Z</time></trkpt><trkpt lat="43.4742301" lon="10.8313953"><ele>146.0</ele><time>2026-04-04T10:08:50.029Z</time></trkpt><trkpt lat="43.4743814" lon="10.8312726"><ele>146.0</ele><time>2026-04-04T10:08:51.018Z</time></trkpt><trkpt lat="43.4745336" lon="10.8311528"><ele>146.0</ele><time>2026-04-04T10:08:52.031Z</time></trkpt><trkpt lat="43.4746828" lon="10.8310251"><ele>146.0</ele><time>2026-04-04T10:08:53.02Z</time></trkpt><trkpt lat="43.4748324" lon="10.8308998"><ele>149.0</ele><time>2026-04-04T10:08:54.017Z</time></trkpt><trkpt lat="43.4749786" lon="10.830777"><ele>152.0</ele><time>2026-04-04T10:08:55.012Z</time></trkpt><trkpt lat="43.4751277" lon="10.8306569"><ele>155.0</ele><time>2026-04-04T10:08:56.023Z</time></trkpt><trkpt lat="43.4752779" lon="10.8305394"><ele>155.0</ele><time>2026-04-04T10:08:57.012Z</time></trkpt><trkpt lat="43.4754311" lon="10.8304216"><ele>155.0</ele><time>2026-04-04T10:08:58.02Z</time></trkpt><trkpt lat="43.4755813" lon="10.8303046"><ele>155.0</ele><time>2026-04-04T10:08:59.015Z</time></trkpt><trkpt lat="43.47573" lon="10.8301899"><ele>156.66666666666666</ele><time>2026-04-04T10:09:00Z</time></trkpt><trkpt lat="43.475875" lon="10.8300745"><ele>158.33333333333334</ele><time>2026-04-04T10:09:01.008Z</time></trkpt><trkpt lat="43.4760181" lon="10.8299626"><ele>160.0</ele><time>2026-04-04T10:09:02.015Z</time></trkpt><trkpt lat="43.47616" lon="10.8298498"><ele>158.33333333333334</ele><time>2026-04-04T10:09:03.011Z</time></trkpt><trkpt lat="43.4763078" lon="10.8297553"><ele>156.66666666666666</ele><time>2026-04-04T10:09:04.011Z</time></trkpt><trkpt lat="43.4764638" lon="10.8296982"><ele>155.0</ele><time>2026-04-04T10:09:05.017Z</time></trkpt><trkpt lat="43.4766247" lon="10.8296864"><ele>155.0</ele><time>2026-04-04T10:09:06.047Z</time></trkpt><trkpt lat="43.4767919" lon="10.829701"><ele>155.0</ele><time>2026-04-04T10:09:07.017Z</time></trkpt><trkpt lat="43.4769642" lon="10.8296965"><ele>155.0</ele><time>2026-04-04T10:09:08.031Z</time></trkpt><trkpt lat="43.4771308" lon="10.8296701"><ele>157.33333333333331</ele><time>2026-04-04T10:09:09.01Z</time></trkpt><trkpt lat="43.4773019" lon="10.8295834"><ele>159.66666666666666</ele><time>2026-04-04T10:09:10.017Z</time></trkpt><trkpt lat="43.4774744" lon="10.8294949"><ele>162.0</ele><time>2026-04-04T10:09:11.013Z</time></trkpt><trkpt lat="43.4776466" lon="10.8293879"><ele>164.66666666666666</ele><time>2026-04-04T10:09:12.034Z</time></trkpt><trkpt lat="43.4778212" lon="10.8292829"><ele>167.33333333333331</ele><time>2026-04-04T10:09:12.994Z</time></trkpt><trkpt lat="43.4779953" lon="10.8291762"><ele>170.0</ele><time>2026-04-04T10:09:14.019Z</time></trkpt><trkpt lat="43.4781657" lon="10.8290727"><ele>170.33333333333331</ele><time>2026-04-04T10:09:15.003Z</time></trkpt><trkpt lat="43.4783409" lon="10.8289773"><ele>170.66666666666666</ele><time>2026-04-04T10:09:16.009Z</time></trkpt><trkpt lat="43.4785174" lon="10.8288809"><ele>171.0</ele><time>2026-04-04T10:09:17.006Z</time></trkpt><trkpt lat="43.4786899" lon="10.8287747"><ele>174.0</ele><time>2026-04-04T10:09:17.998Z</time></trkpt><trkpt lat="43.4788646" lon="10.8286774"><ele>177.0</ele><time>2026-04-04T10:09:19.024Z</time></trkpt><trkpt lat="43.4790281" lon="10.8285902"><ele>180.0</ele><time>2026-04-04T10:09:20.017Z</time></trkpt><trkpt lat="43.4791825" lon="10.8285455"><ele>180.0</ele><time>2026-04-04T10:09:20.997Z</time></trkpt><trkpt lat="43.47933" lon="10.8285486"><ele>180.0</ele><time>2026-04-04T10:09:22.009Z</time></trkpt><trkpt lat="43.4794755" lon="10.82861"><ele>180.0</ele><time>2026-04-04T10:09:23.015Z</time></trkpt><trkpt lat="43.4796314" lon="10.8286844"><ele>180.66666666666666</ele><time>2026-04-04T10:09:24.027Z</time></trkpt><trkpt lat="43.4797924" lon="10.8287608"><ele>181.33333333333331</ele><time>2026-04-04T10:09:25.003Z</time></trkpt><trkpt lat="43.4799509" lon="10.8288434"><ele>182.0</ele><time>2026-04-04T10:09:25.997Z</time></trkpt><trkpt lat="43.4801072" lon="10.8289414"><ele>182.0</ele><time>2026-04-04T10:09:27.008Z</time></trkpt><trkpt lat="43.4802669" lon="10.8290666"><ele>182.0</ele><time>2026-04-04T10:09:28.009Z</time></trkpt><trkpt lat="43.4804199" lon="10.8291803"><ele>182.0</ele><time>2026-04-04T10:09:29.01Z</time></trkpt><trkpt lat="43.4805755" lon="10.8292788"><ele>185.66666666666666</ele><time>2026-04-04T10:09:29.99Z</time></trkpt><trkpt lat="43.480728" lon="10.829374"><ele>189.33333333333331</ele><time>2026-04-04T10:09:31.009Z</time></trkpt><trkpt lat="43.4808823" lon="10.8294652"><ele>193.0</ele><time>2026-04-04T10:09:32.004Z</time></trkpt><trkpt lat="43.4810333" lon="10.8295519"><ele>193.0</ele><time>2026-04-04T10:09:33.007Z</time></trkpt><trkpt lat="43.4811743" lon="10.8296295"><ele>193.0</ele><time>2026-04-04T10:09:33.999Z</time></trkpt><trkpt lat="43.4812968" lon="10.8297066"><ele>193.0</ele><time>2026-04-04T10:09:35.007Z</time></trkpt><trkpt lat="43.4814001" lon="10.8297697"><ele>193.0</ele><time>2026-04-04T10:09:36Z</time></trkpt><trkpt lat="43.4814844" lon="10.8298224"><ele>193.49999999999997</ele><time>2026-04-04T10:09:37.005Z</time></trkpt><trkpt lat="43.4815458" lon="10.8298578"><ele>194.0</ele><time>2026-04-04T10:09:38.007Z</time></trkpt><trkpt lat="43.4816183" lon="10.829909"><ele>194.5</ele><time>2026-04-04T10:09:46.012Z</time></trkpt><trkpt lat="43.4816279" lon="10.8299952"><ele>195.0</ele><time>2026-04-04T10:09:47.018Z</time></trkpt><trkpt lat="43.4816336" lon="10.8300911"><ele>195.49999999999997</ele><time>2026-04-04T10:09:48.003Z</time></trkpt><trkpt lat="43.4816751" lon="10.8301924"><ele>196.0</ele><time>2026-04-04T10:09:49.998Z</time></trkpt><trkpt lat="43.4817696" lon="10.8301509"><ele>196.0</ele><time>2026-04-04T10:09:52.012Z</time></trkpt><trkpt lat="43.4818336" lon="10.8300639"><ele>196.0</ele><time>2026-04-04T10:09:53.016Z</time></trkpt><trkpt lat="43.4819115" lon="10.8299611"><ele>196.0</ele><time>2026-04-04T10:09:54.038Z</time></trkpt><trkpt lat="43.4819919" lon="10.829846"><ele>196.0</ele><time>2026-04-04T10:09:55.011Z</time></trkpt><trkpt lat="43.4820876" lon="10.8297277"><ele>196.0</ele><time>2026-04-04T10:09:56.013Z</time></trkpt><trkpt lat="43.4822007" lon="10.8296383"><ele>194.25</ele><time>2026-04-04T10:09:57.008Z</time></trkpt><trkpt lat="43.482324" lon="10.8295793"><ele>192.5</ele><time>2026-04-04T10:09:58.029Z</time></trkpt><trkpt lat="43.4824445" lon="10.8295276"><ele>190.75</ele><time>2026-04-04T10:09:59.015Z</time></trkpt><trkpt lat="43.4825576" lon="10.8294931"><ele>189.0</ele><time>2026-04-04T10:10:00.035Z</time></trkpt><trkpt lat="43.4826651" lon="10.8294466"><ele>189.0</ele><time>2026-04-04T10:10:01.011Z</time></trkpt><trkpt lat="43.4827579" lon="10.8293735"><ele>189.0</ele><time>2026-04-04T10:10:02.01Z</time></trkpt><trkpt lat="43.4828226" lon="10.8292716"><ele>189.0</ele><time>2026-04-04T10:10:03.008Z</time></trkpt><trkpt lat="43.4828302" lon="10.829137"><ele>189.0</ele><time>2026-04-04T10:10:04.015Z</time></trkpt><trkpt lat="43.4828165" lon="10.8289843"><ele>189.0</ele><time>2026-04-04T10:10:05.005Z</time></trkpt><trkpt lat="43.482787" lon="10.8288252"><ele>191.0</ele><time>2026-04-04T10:10:06.015Z</time></trkpt><trkpt lat="43.4827526" lon="10.8286829"><ele>193.0</ele><time>2026-04-04T10:10:06.998Z</time></trkpt><trkpt lat="43.4826951" lon="10.8285505"><ele>195.0</ele><time>2026-04-04T10:10:08.009Z</time></trkpt><trkpt lat="43.4826236" lon="10.8284211"><ele>197.0</ele><time>2026-04-04T10:10:09.004Z</time></trkpt><trkpt lat="43.4825538" lon="10.8282859"><ele>197.0</ele><time>2026-04-04T10:10:10.016Z</time></trkpt><trkpt lat="43.4824928" lon="10.8281562"><ele>197.0</ele><time>2026-04-04T10:10:11.013Z</time></trkpt><trkpt lat="43.4824449" lon="10.8280241"><ele>197.0</ele><time>2026-04-04T10:10:12.043Z</time></trkpt><trkpt lat="43.4824077" lon="10.8278822"><ele>197.0</ele><time>2026-04-04T10:10:13.015Z</time></trkpt><trkpt lat="43.4823871" lon="10.8277198"><ele>197.0</ele><time>2026-04-04T10:10:14.026Z</time></trkpt><trkpt lat="43.4823772" lon="10.8275486"><ele>195.25</ele><time>2026-04-04T10:10:15.014Z</time></trkpt><trkpt lat="43.4823755" lon="10.8273651"><ele>193.5</ele><time>2026-04-04T10:10:16.013Z</time></trkpt><trkpt lat="43.4823804" lon="10.8271705"><ele>191.75</ele><time>2026-04-04T10:10:17.01Z</time></trkpt><trkpt lat="43.4823975" lon="10.8269635"><ele>190.0</ele><time>2026-04-04T10:10:18.011Z</time></trkpt><trkpt lat="43.482426" lon="10.826735"><ele>188.66666666666669</ele><time>2026-04-04T10:10:19.014Z</time></trkpt><trkpt lat="43.4824607" lon="10.8265008"><ele>187.33333333333334</ele><time>2026-04-04T10:10:20.02Z</time></trkpt><trkpt lat="43.4824935" lon="10.8262564"><ele>186.0</ele><time>2026-04-04T10:10:21.011Z</time></trkpt><trkpt lat="43.4825269" lon="10.8260078"><ele>184.33333333333334</ele><time>2026-04-04T10:10:22.009Z</time></trkpt><trkpt lat="43.4825707" lon="10.8257598"><ele>182.66666666666669</ele><time>2026-04-04T10:10:23.02Z</time></trkpt><trkpt lat="43.4826051" lon="10.825509"><ele>181.0</ele><time>2026-04-04T10:10:24.035Z</time></trkpt><trkpt lat="43.4826381" lon="10.8252678"><ele>178.0</ele><time>2026-04-04T10:10:25.012Z</time></trkpt><trkpt lat="43.4826638" lon="10.8250208"><ele>175.0</ele><time>2026-04-04T10:10:26.046Z</time></trkpt><trkpt lat="43.4826778" lon="10.8247752"><ele>172.0</ele><time>2026-04-04T10:10:27.026Z</time></trkpt><trkpt lat="43.4826729" lon="10.8245399"><ele>171.33333333333334</ele><time>2026-04-04T10:10:28.01Z</time></trkpt><trkpt lat="43.4826635" lon="10.8243092"><ele>170.66666666666666</ele><time>2026-04-04T10:10:29.012Z</time></trkpt><trkpt lat="43.4826548" lon="10.8240851"><ele>170.0</ele><time>2026-04-04T10:10:30.016Z</time></trkpt><trkpt lat="43.4826529" lon="10.8238609"><ele>170.0</ele><time>2026-04-04T10:10:31.019Z</time></trkpt><trkpt lat="43.4826553" lon="10.8236406"><ele>170.0</ele><time>2026-04-04T10:10:32.024Z</time></trkpt><trkpt lat="43.4826736" lon="10.8234335"><ele>170.0</ele><time>2026-04-04T10:10:33.011Z</time></trkpt><trkpt lat="43.4827054" lon="10.8232312"><ele>170.0</ele><time>2026-04-04T10:10:34.021Z</time></trkpt><trkpt lat="43.482742" lon="10.8230517"><ele>170.0</ele><time>2026-04-04T10:10:35.019Z</time></trkpt><trkpt lat="43.4827706" lon="10.8228917"><ele>170.0</ele><time>2026-04-04T10:10:36.008Z</time></trkpt><trkpt lat="43.4827943" lon="10.822731"><ele>170.0</ele><time>2026-04-04T10:10:37.021Z</time></trkpt><trkpt lat="43.4827959" lon="10.822548"><ele>169.66666666666666</ele><time>2026-04-04T10:10:38.021Z</time></trkpt><trkpt lat="43.4827796" lon="10.8223478"><ele>169.33333333333334</ele><time>2026-04-04T10:10:39.019Z</time></trkpt><trkpt lat="43.4827568" lon="10.8221394"><ele>169.0</ele><time>2026-04-04T10:10:40.02Z</time></trkpt><trkpt lat="43.4827303" lon="10.8219242"><ele>167.33333333333334</ele><time>2026-04-04T10:10:41.012Z</time></trkpt><trkpt lat="43.4827032" lon="10.8217005"><ele>165.66666666666666</ele><time>2026-04-04T10:10:42.036Z</time></trkpt><trkpt lat="43.4826752" lon="10.8214814"><ele>164.0</ele><time>2026-04-04T10:10:43.013Z</time></trkpt><trkpt lat="43.4826512" lon="10.8212683"><ele>164.0</ele><time>2026-04-04T10:10:44.032Z</time></trkpt><trkpt lat="43.4826306" lon="10.8210583"><ele>164.0</ele><time>2026-04-04T10:10:45.019Z</time></trkpt><trkpt lat="43.4826117" lon="10.8208461"><ele>164.0</ele><time>2026-04-04T10:10:46.028Z</time></trkpt><trkpt lat="43.4825991" lon="10.8206294"><ele>163.66666666666666</ele><time>2026-04-04T10:10:47.004Z</time></trkpt><trkpt lat="43.4826029" lon="10.820406"><ele>163.33333333333334</ele><time>2026-04-04T10:10:48.022Z</time></trkpt><trkpt lat="43.4826217" lon="10.820178"><ele>163.0</ele><time>2026-04-04T10:10:49.015Z</time></trkpt><trkpt lat="43.4826466" lon="10.8199502"><ele>162.66666666666669</ele><time>2026-04-04T10:10:50.023Z</time></trkpt><trkpt lat="43.482663" lon="10.819722"><ele>162.33333333333334</ele><time>2026-04-04T10:10:51.022Z</time></trkpt><trkpt lat="43.4826638" lon="10.8194858"><ele>162.0</ele><time>2026-04-04T10:10:52.032Z</time></trkpt><trkpt lat="43.4826535" lon="10.8192496"><ele>161.33333333333334</ele><time>2026-04-04T10:10:53.016Z</time></trkpt><trkpt lat="43.4826324" lon="10.8190243"><ele>160.66666666666669</ele><time>2026-04-04T10:10:54.007Z</time></trkpt><trkpt lat="43.482609" lon="10.818802"><ele>160.0</ele><time>2026-04-04T10:10:55.024Z</time></trkpt><trkpt lat="43.4825814" lon="10.8185688"><ele>158.0</ele><time>2026-04-04T10:10:56.022Z</time></trkpt><trkpt lat="43.4825443" lon="10.8183358"><ele>156.0</ele><time>2026-04-04T10:10:57.017Z</time></trkpt><trkpt lat="43.4825063" lon="10.8181197"><ele>154.0</ele><time>2026-04-04T10:10:58.033Z</time></trkpt><trkpt lat="43.4824689" lon="10.8179222"><ele>154.0</ele><time>2026-04-04T10:10:59.02Z</time></trkpt><trkpt lat="43.4824351" lon="10.817737"><ele>154.0</ele><time>2026-04-04T10:11:00.045Z</time></trkpt><trkpt lat="43.4824012" lon="10.8175714"><ele>154.0</ele><time>2026-04-04T10:11:01.024Z</time></trkpt><trkpt lat="43.4823693" lon="10.8174229"><ele>154.0</ele><time>2026-04-04T10:11:02.035Z</time></trkpt><trkpt lat="43.4823423" lon="10.8172701"><ele>152.0</ele><time>2026-04-04T10:11:03.011Z</time></trkpt><trkpt lat="43.4823325" lon="10.8170953"><ele>150.0</ele><time>2026-04-04T10:11:04.042Z</time></trkpt><trkpt lat="43.4823596" lon="10.8168986"><ele>148.0</ele><time>2026-04-04T10:11:05.012Z</time></trkpt><trkpt lat="43.4824233" lon="10.8166984"><ele>146.0</ele><time>2026-04-04T10:11:06.03Z</time></trkpt><trkpt lat="43.4825" lon="10.8164888"><ele>144.33333333333331</ele><time>2026-04-04T10:11:07.004Z</time></trkpt><trkpt lat="43.4825814" lon="10.8162764"><ele>142.66666666666666</ele><time>2026-04-04T10:11:08.02Z</time></trkpt><trkpt lat="43.4826641" lon="10.8160541"><ele>141.0</ele><time>2026-04-04T10:11:09.021Z</time></trkpt><trkpt lat="43.4827487" lon="10.8158267"><ele>140.0</ele><time>2026-04-04T10:11:10.019Z</time></trkpt><trkpt lat="43.4828368" lon="10.815592"><ele>139.0</ele><time>2026-04-04T10:11:11.013Z</time></trkpt><trkpt lat="43.4829217" lon="10.815354"><ele>138.0</ele><time>2026-04-04T10:11:12.038Z</time></trkpt><trkpt lat="43.4830033" lon="10.8151134"><ele>136.33333333333334</ele><time>2026-04-04T10:11:13.01Z</time></trkpt><trkpt lat="43.4830801" lon="10.8148738"><ele>134.66666666666669</ele><time>2026-04-04T10:11:14.035Z</time></trkpt><trkpt lat="43.4831569" lon="10.8146354"><ele>133.0</ele><time>2026-04-04T10:11:15.018Z</time></trkpt><trkpt lat="43.4832403" lon="10.8144014"><ele>134.0</ele><time>2026-04-04T10:11:16.037Z</time></trkpt><trkpt lat="43.4833258" lon="10.814182"><ele>135.0</ele><time>2026-04-04T10:11:17.02Z</time></trkpt><trkpt lat="43.4834149" lon="10.8139773"><ele>136.0</ele><time>2026-04-04T10:11:18.044Z</time></trkpt><trkpt lat="43.4835185" lon="10.8137847"><ele>136.0</ele><time>2026-04-04T10:11:19.016Z</time></trkpt><trkpt lat="43.4836497" lon="10.8136108"><ele>136.0</ele><time>2026-04-04T10:11:20.018Z</time></trkpt><trkpt lat="43.4837995" lon="10.8134494"><ele>136.0</ele><time>2026-04-04T10:11:21.026Z</time></trkpt><trkpt lat="43.4839529" lon="10.813293"><ele>136.33333333333334</ele><time>2026-04-04T10:11:22.01Z</time></trkpt><trkpt lat="43.4841052" lon="10.8131342"><ele>136.66666666666666</ele><time>2026-04-04T10:11:23.02Z</time></trkpt><trkpt lat="43.4842555" lon="10.8129826"><ele>137.0</ele><time>2026-04-04T10:11:24.028Z</time></trkpt><trkpt lat="43.4844052" lon="10.8128392"><ele>137.0</ele><time>2026-04-04T10:11:25.006Z</time></trkpt><trkpt lat="43.4845506" lon="10.8126978"><ele>137.0</ele><time>2026-04-04T10:11:26.027Z</time></trkpt><trkpt lat="43.4846874" lon="10.8125443"><ele>137.0</ele><time>2026-04-04T10:11:27.018Z</time></trkpt><trkpt lat="43.484812" lon="10.8123702"><ele>137.33333333333331</ele><time>2026-04-04T10:11:28.026Z</time></trkpt><trkpt lat="43.4849122" lon="10.8121546"><ele>137.66666666666666</ele><time>2026-04-04T10:11:29.008Z</time></trkpt><trkpt lat="43.4849971" lon="10.8119108"><ele>138.0</ele><time>2026-04-04T10:11:30.009Z</time></trkpt><trkpt lat="43.4850692" lon="10.8116508"><ele>138.33333333333334</ele><time>2026-04-04T10:11:31.017Z</time></trkpt><trkpt lat="43.4851433" lon="10.8113893"><ele>138.66666666666669</ele><time>2026-04-04T10:11:32.036Z</time></trkpt><trkpt lat="43.4852312" lon="10.8111302"><ele>139.0</ele><time>2026-04-04T10:11:33.024Z</time></trkpt><trkpt lat="43.4853176" lon="10.8108728"><ele>139.0</ele><time>2026-04-04T10:11:34.023Z</time></trkpt><trkpt lat="43.4853883" lon="10.8106161"><ele>139.0</ele><time>2026-04-04T10:11:35.016Z</time></trkpt><trkpt lat="43.4854496" lon="10.8103744"><ele>139.0</ele><time>2026-04-04T10:11:36.028Z</time></trkpt><trkpt lat="43.4855057" lon="10.8101436"><ele>136.33333333333334</ele><time>2026-04-04T10:11:37.014Z</time></trkpt><trkpt lat="43.4855593" lon="10.8099244"><ele>133.66666666666666</ele><time>2026-04-04T10:11:38.044Z</time></trkpt><trkpt lat="43.4856113" lon="10.8097099"><ele>131.0</ele><time>2026-04-04T10:11:39.01Z</time></trkpt><trkpt lat="43.4856648" lon="10.8094909"><ele>132.33333333333331</ele><time>2026-04-04T10:11:40.044Z</time></trkpt><trkpt lat="43.4857177" lon="10.8092635"><ele>133.66666666666666</ele><time>2026-04-04T10:11:41.017Z</time></trkpt><trkpt lat="43.4857732" lon="10.809022"><ele>135.0</ele><time>2026-04-04T10:11:42.03Z</time></trkpt><trkpt lat="43.4858176" lon="10.8087674"><ele>135.0</ele><time>2026-04-04T10:11:43.016Z</time></trkpt><trkpt lat="43.4858486" lon="10.8085012"><ele>135.0</ele><time>2026-04-04T10:11:44.053Z</time></trkpt><trkpt lat="43.48586" lon="10.808234"><ele>135.0</ele><time>2026-04-04T10:11:45.015Z</time></trkpt><trkpt lat="43.4858659" lon="10.8079668"><ele>135.66666666666666</ele><time>2026-04-04T10:11:46.048Z</time></trkpt><trkpt lat="43.485854" lon="10.8076916"><ele>136.33333333333331</ele><time>2026-04-04T10:11:47.019Z</time></trkpt><trkpt lat="43.4858123" lon="10.8074141"><ele>137.0</ele><time>2026-04-04T10:11:48.019Z</time></trkpt><trkpt lat="43.4857371" lon="10.8071437"><ele>137.33333333333331</ele><time>2026-04-04T10:11:49.011Z</time></trkpt><trkpt lat="43.4856418" lon="10.8068821"><ele>137.66666666666666</ele><time>2026-04-04T10:11:50.023Z</time></trkpt><trkpt lat="43.485546" lon="10.8066231"><ele>138.0</ele><time>2026-04-04T10:11:51.019Z</time></trkpt><trkpt lat="43.4854575" lon="10.8063589"><ele>137.0</ele><time>2026-04-04T10:11:52.029Z</time></trkpt><trkpt lat="43.4853779" lon="10.8060924"><ele>136.0</ele><time>2026-04-04T10:11:53.018Z</time></trkpt><trkpt lat="43.4852848" lon="10.8058281"><ele>135.0</ele><time>2026-04-04T10:11:54.046Z</time></trkpt><trkpt lat="43.4851866" lon="10.8055665"><ele>135.0</ele><time>2026-04-04T10:11:55.022Z</time></trkpt><trkpt lat="43.4850895" lon="10.8053163"><ele>135.0</ele><time>2026-04-04T10:11:56.041Z</time></trkpt><trkpt lat="43.4850089" lon="10.8050726"><ele>135.0</ele><time>2026-04-04T10:11:57.004Z</time></trkpt><trkpt lat="43.4849419" lon="10.8048315"><ele>136.33333333333334</ele><time>2026-04-04T10:11:58.043Z</time></trkpt><trkpt lat="43.4848889" lon="10.8045786"><ele>137.66666666666669</ele><time>2026-04-04T10:11:59.016Z</time></trkpt><trkpt lat="43.4848576" lon="10.8043086"><ele>139.0</ele><time>2026-04-04T10:12:00.036Z</time></trkpt><trkpt lat="43.4848333" lon="10.8040418"><ele>140.0</ele><time>2026-04-04T10:12:01.017Z</time></trkpt><trkpt lat="43.4848151" lon="10.8038013"><ele>141.0</ele><time>2026-04-04T10:12:02.032Z</time></trkpt><trkpt lat="43.484808" lon="10.803586"><ele>142.0</ele><time>2026-04-04T10:12:03.008Z</time></trkpt><trkpt lat="43.4848157" lon="10.8033756"><ele>142.66666666666669</ele><time>2026-04-04T10:12:04.025Z</time></trkpt><trkpt lat="43.4848458" lon="10.8031607"><ele>143.33333333333334</ele><time>2026-04-04T10:12:05.025Z</time></trkpt><trkpt lat="43.4848985" lon="10.8029427"><ele>144.0</ele><time>2026-04-04T10:12:06.026Z</time></trkpt><trkpt lat="43.4849722" lon="10.8027285"><ele>143.33333333333334</ele><time>2026-04-04T10:12:07.014Z</time></trkpt><trkpt lat="43.4850508" lon="10.802523"><ele>142.66666666666669</ele><time>2026-04-04T10:12:08.022Z</time></trkpt><trkpt lat="43.4851243" lon="10.8023293"><ele>142.0</ele><time>2026-04-04T10:12:09.019Z</time></trkpt><trkpt lat="43.4852067" lon="10.8021589"><ele>142.0</ele><time>2026-04-04T10:12:10.007Z</time></trkpt><trkpt lat="43.4853" lon="10.8020018"><ele>142.0</ele><time>2026-04-04T10:12:11.023Z</time></trkpt><trkpt lat="43.485413" lon="10.8018521"><ele>142.0</ele><time>2026-04-04T10:12:12.018Z</time></trkpt><trkpt lat="43.485541" lon="10.8017179"><ele>141.66666666666669</ele><time>2026-04-04T10:12:13.02Z</time></trkpt><trkpt lat="43.4856678" lon="10.8015854"><ele>141.33333333333334</ele><time>2026-04-04T10:12:14.027Z</time></trkpt><trkpt lat="43.4857874" lon="10.801459"><ele>141.0</ele><time>2026-04-04T10:12:15.025Z</time></trkpt><trkpt lat="43.4859039" lon="10.8013457"><ele>141.0</ele><time>2026-04-04T10:12:16.039Z</time></trkpt><trkpt lat="43.4860132" lon="10.8012272"><ele>141.0</ele><time>2026-04-04T10:12:17.021Z</time></trkpt><trkpt lat="43.4861059" lon="10.8010913"><ele>141.0</ele><time>2026-04-04T10:12:18.032Z</time></trkpt><trkpt lat="43.4861867" lon="10.8009091"><ele>141.0</ele><time>2026-04-04T10:12:19.019Z</time></trkpt><trkpt lat="43.4862436" lon="10.80069"><ele>139.33333333333334</ele><time>2026-04-04T10:12:20.027Z</time></trkpt><trkpt lat="43.4862782" lon="10.8004539"><ele>137.66666666666669</ele><time>2026-04-04T10:12:21.008Z</time></trkpt><trkpt lat="43.4863095" lon="10.800225"><ele>136.0</ele><time>2026-04-04T10:12:22.039Z</time></trkpt><trkpt lat="43.4863442" lon="10.7999991"><ele>133.66666666666669</ele><time>2026-04-04T10:12:23.032Z</time></trkpt><trkpt lat="43.4863816" lon="10.7997704"><ele>131.33333333333334</ele><time>2026-04-04T10:12:24.026Z</time></trkpt><trkpt lat="43.4864153" lon="10.7995372"><ele>129.0</ele><time>2026-04-04T10:12:25.016Z</time></trkpt><trkpt lat="43.4864478" lon="10.7993038"><ele>128.33333333333334</ele><time>2026-04-04T10:12:26.027Z</time></trkpt><trkpt lat="43.4864861" lon="10.7990769"><ele>127.66666666666667</ele><time>2026-04-04T10:12:27.024Z</time></trkpt><trkpt lat="43.4865304" lon="10.7988705"><ele>127.0</ele><time>2026-04-04T10:12:28.023Z</time></trkpt><trkpt lat="43.4865894" lon="10.7986713"><ele>127.66666666666667</ele><time>2026-04-04T10:12:29.013Z</time></trkpt><trkpt lat="43.4866652" lon="10.7984765"><ele>128.33333333333334</ele><time>2026-04-04T10:12:30.035Z</time></trkpt><trkpt lat="43.4867523" lon="10.7982841"><ele>129.0</ele><time>2026-04-04T10:12:31.018Z</time></trkpt><trkpt lat="43.4868357" lon="10.7980889"><ele>129.0</ele><time>2026-04-04T10:12:32.019Z</time></trkpt><trkpt lat="43.4869182" lon="10.7978816"><ele>129.0</ele><time>2026-04-04T10:12:33.026Z</time></trkpt><trkpt lat="43.487007" lon="10.7976756"><ele>129.0</ele><time>2026-04-04T10:12:34.027Z</time></trkpt><trkpt lat="43.4870993" lon="10.7974725"><ele>126.66666666666666</ele><time>2026-04-04T10:12:35.009Z</time></trkpt><trkpt lat="43.4871928" lon="10.7972723"><ele>124.33333333333333</ele><time>2026-04-04T10:12:36.023Z</time></trkpt><trkpt lat="43.4872786" lon="10.7970762"><ele>122.0</ele><time>2026-04-04T10:12:37.004Z</time></trkpt><trkpt lat="43.4873573" lon="10.7968928"><ele>123.25</ele><time>2026-04-04T10:12:38.031Z</time></trkpt><trkpt lat="43.4874325" lon="10.7967185"><ele>124.5</ele><time>2026-04-04T10:12:39.015Z</time></trkpt><trkpt lat="43.4875121" lon="10.7965583"><ele>125.75</ele><time>2026-04-04T10:12:40.042Z</time></trkpt><trkpt lat="43.4876022" lon="10.7964205"><ele>127.0</ele><time>2026-04-04T10:12:41.02Z</time></trkpt><trkpt lat="43.4877202" lon="10.7963239"><ele>127.0</ele><time>2026-04-04T10:12:42.043Z</time></trkpt><trkpt lat="43.4878618" lon="10.7962667"><ele>127.0</ele><time>2026-04-04T10:12:43.021Z</time></trkpt><trkpt lat="43.4880169" lon="10.7962556"><ele>127.0</ele><time>2026-04-04T10:12:44.025Z</time></trkpt><trkpt lat="43.488179" lon="10.7962577"><ele>125.0</ele><time>2026-04-04T10:12:45.017Z</time></trkpt><trkpt lat="43.4883515" lon="10.7962726"><ele>123.0</ele><time>2026-04-04T10:12:46.022Z</time></trkpt><trkpt lat="43.488523" lon="10.7962795"><ele>121.0</ele><time>2026-04-04T10:12:47.008Z</time></trkpt><trkpt lat="43.4886923" lon="10.7962599"><ele>120.0</ele><time>2026-04-04T10:12:48.019Z</time></trkpt><trkpt lat="43.4888638" lon="10.7962166"><ele>119.0</ele><time>2026-04-04T10:12:49.018Z</time></trkpt><trkpt lat="43.4890292" lon="10.7961597"><ele>118.0</ele><time>2026-04-04T10:12:50.038Z</time></trkpt><trkpt lat="43.4891716" lon="10.7960977"><ele>118.0</ele><time>2026-04-04T10:12:51.003Z</time></trkpt><trkpt lat="43.4892946" lon="10.7960282"><ele>118.0</ele><time>2026-04-04T10:12:52.035Z</time></trkpt><trkpt lat="43.4894023" lon="10.7959162"><ele>118.0</ele><time>2026-04-04T10:12:53.022Z</time></trkpt><trkpt lat="43.4894844" lon="10.7957709"><ele>118.0</ele><time>2026-04-04T10:12:54.025Z</time></trkpt><trkpt lat="43.4895541" lon="10.7955921"><ele>117.66666666666667</ele><time>2026-04-04T10:12:55.015Z</time></trkpt><trkpt lat="43.4896175" lon="10.7953916"><ele>117.33333333333334</ele><time>2026-04-04T10:12:56.028Z</time></trkpt><trkpt lat="43.4896832" lon="10.7951826"><ele>117.0</ele><time>2026-04-04T10:12:57.012Z</time></trkpt><trkpt lat="43.489755" lon="10.7949616"><ele>118.66666666666666</ele><time>2026-04-04T10:12:58.043Z</time></trkpt><trkpt lat="43.4898287" lon="10.794733"><ele>120.33333333333333</ele><time>2026-04-04T10:12:59.009Z</time></trkpt><trkpt lat="43.4899003" lon="10.794502"><ele>122.0</ele><time>2026-04-04T10:13:00.024Z</time></trkpt><trkpt lat="43.4899711" lon="10.7942754"><ele>124.33333333333333</ele><time>2026-04-04T10:13:01.013Z</time></trkpt><trkpt lat="43.4900399" lon="10.7940501"><ele>126.66666666666666</ele><time>2026-04-04T10:13:02.019Z</time></trkpt><trkpt lat="43.4901084" lon="10.7938289"><ele>129.0</ele><time>2026-04-04T10:13:03.022Z</time></trkpt><trkpt lat="43.4901784" lon="10.7936097"><ele>128.33333333333334</ele><time>2026-04-04T10:13:04.03Z</time></trkpt><trkpt lat="43.4902478" lon="10.7933938"><ele>127.66666666666667</ele><time>2026-04-04T10:13:05.007Z</time></trkpt><trkpt lat="43.4903195" lon="10.793185"><ele>127.0</ele><time>2026-04-04T10:13:06.034Z</time></trkpt><trkpt lat="43.4903899" lon="10.7929799"><ele>127.33333333333334</ele><time>2026-04-04T10:13:07.019Z</time></trkpt><trkpt lat="43.4904596" lon="10.7927791"><ele>127.66666666666666</ele><time>2026-04-04T10:13:08.005Z</time></trkpt><trkpt lat="43.4905312" lon="10.792581"><ele>128.0</ele><time>2026-04-04T10:13:09.026Z</time></trkpt><trkpt lat="43.4906057" lon="10.7923871"><ele>128.66666666666666</ele><time>2026-04-04T10:13:10.019Z</time></trkpt><trkpt lat="43.490685" lon="10.7922053"><ele>129.33333333333334</ele><time>2026-04-04T10:13:11.008Z</time></trkpt><trkpt lat="43.4907679" lon="10.7920287"><ele>130.0</ele><time>2026-04-04T10:13:12.024Z</time></trkpt><trkpt lat="43.490854" lon="10.7918535"><ele>130.66666666666669</ele><time>2026-04-04T10:13:13.018Z</time></trkpt><trkpt lat="43.4909378" lon="10.7916718"><ele>131.33333333333334</ele><time>2026-04-04T10:13:14.036Z</time></trkpt><trkpt lat="43.4910196" lon="10.7914831"><ele>132.0</ele><time>2026-04-04T10:13:15.012Z</time></trkpt><trkpt lat="43.491105" lon="10.7912945"><ele>132.0</ele><time>2026-04-04T10:13:16.029Z</time></trkpt><trkpt lat="43.4911974" lon="10.7910992"><ele>132.0</ele><time>2026-04-04T10:13:17.011Z</time></trkpt><trkpt lat="43.4912959" lon="10.7908967"><ele>132.0</ele><time>2026-04-04T10:13:18.015Z</time></trkpt><trkpt lat="43.4914016" lon="10.790695"><ele>129.0</ele><time>2026-04-04T10:13:19.012Z</time></trkpt><trkpt lat="43.4915168" lon="10.7905043"><ele>126.0</ele><time>2026-04-04T10:13:20.01Z</time></trkpt><trkpt lat="43.491631" lon="10.7903285"><ele>123.0</ele><time>2026-04-04T10:13:21.016Z</time></trkpt><trkpt lat="43.4917347" lon="10.7901467"><ele>123.0</ele><time>2026-04-04T10:13:22.003Z</time></trkpt><trkpt lat="43.4918422" lon="10.7899637"><ele>123.0</ele><time>2026-04-04T10:13:23.005Z</time></trkpt><trkpt lat="43.4919461" lon="10.7897852"><ele>123.0</ele><time>2026-04-04T10:13:24.013Z</time></trkpt><trkpt lat="43.4920477" lon="10.7896169"><ele>121.75</ele><time>2026-04-04T10:13:25.012Z</time></trkpt><trkpt lat="43.4921417" lon="10.7894599"><ele>120.5</ele><time>2026-04-04T10:13:26.012Z</time></trkpt><trkpt lat="43.4922281" lon="10.789321"><ele>119.25</ele><time>2026-04-04T10:13:27.012Z</time></trkpt><trkpt lat="43.492301" lon="10.7892072"><ele>118.0</ele><time>2026-04-04T10:13:28.004Z</time></trkpt><trkpt lat="43.4923574" lon="10.7891254"><ele>118.0</ele><time>2026-04-04T10:13:29.013Z</time></trkpt><trkpt lat="43.4924025" lon="10.789047"><ele>118.0</ele><time>2026-04-04T10:13:30.013Z</time></trkpt><trkpt lat="43.4924468" lon="10.7889504"><ele>118.0</ele><time>2026-04-04T10:13:31.015Z</time></trkpt><trkpt lat="43.492489" lon="10.7888648"><ele>118.0</ele><time>2026-04-04T10:13:32.005Z</time></trkpt><trkpt lat="43.4925216" lon="10.788789"><ele>118.0</ele><time>2026-04-04T10:13:33.016Z</time></trkpt><trkpt lat="43.4925565" lon="10.7887148"><ele>118.0</ele><time>2026-04-04T10:13:34.02Z</time></trkpt><trkpt lat="43.4925971" lon="10.7886408"><ele>118.0</ele><time>2026-04-04T10:13:35.029Z</time></trkpt><trkpt lat="43.4926376" lon="10.7885654"><ele>118.66666666666667</ele><time>2026-04-04T10:13:36.041Z</time></trkpt><trkpt lat="43.4926837" lon="10.7884906"><ele>119.33333333333334</ele><time>2026-04-04T10:13:37.007Z</time></trkpt><trkpt lat="43.4927323" lon="10.7884145"><ele>120.0</ele><time>2026-04-04T10:13:38.021Z</time></trkpt><trkpt lat="43.4927865" lon="10.7883446"><ele>120.66666666666666</ele><time>2026-04-04T10:13:39.02Z</time></trkpt><trkpt lat="43.4928446" lon="10.7882685"><ele>121.33333333333333</ele><time>2026-04-04T10:13:40.036Z</time></trkpt><trkpt lat="43.4929063" lon="10.7881835"><ele>122.0</ele><time>2026-04-04T10:13:41.016Z</time></trkpt><trkpt lat="43.4929684" lon="10.7880923"><ele>122.0</ele><time>2026-04-04T10:13:42.029Z</time></trkpt><trkpt lat="43.4930248" lon="10.7879884"><ele>121.99999999999999</ele><time>2026-04-04T10:13:43.016Z</time></trkpt><trkpt lat="43.4930857" lon="10.7878811"><ele>121.99999999999999</ele><time>2026-04-04T10:13:44.036Z</time></trkpt><trkpt lat="43.4931475" lon="10.787756"><ele>122.0</ele><time>2026-04-04T10:13:45.013Z</time></trkpt><trkpt lat="43.4932079" lon="10.7875936"><ele>122.0</ele><time>2026-04-04T10:13:46.046Z</time></trkpt><trkpt lat="43.493273" lon="10.7873869"><ele>123.33333333333333</ele><time>2026-04-04T10:13:47.026Z</time></trkpt><trkpt lat="43.4933309" lon="10.7871393"><ele>124.66666666666666</ele><time>2026-04-04T10:13:48.019Z</time></trkpt><trkpt lat="43.4933848" lon="10.7868624"><ele>126.0</ele><time>2026-04-04T10:13:49.023Z</time></trkpt><trkpt lat="43.4934401" lon="10.7865728"><ele>126.66666666666666</ele><time>2026-04-04T10:13:50.019Z</time></trkpt><trkpt lat="43.4934966" lon="10.7863042"><ele>127.33333333333333</ele><time>2026-04-04T10:13:51.005Z</time></trkpt><trkpt lat="43.4935405" lon="10.7860483"><ele>128.0</ele><time>2026-04-04T10:13:52.018Z</time></trkpt><trkpt lat="43.4935782" lon="10.7857918"><ele>129.0</ele><time>2026-04-04T10:13:53.021Z</time></trkpt><trkpt lat="43.4936103" lon="10.7855368"><ele>130.0</ele><time>2026-04-04T10:13:54.031Z</time></trkpt><trkpt lat="43.4936415" lon="10.7853065"><ele>131.0</ele><time>2026-04-04T10:13:55.015Z</time></trkpt><trkpt lat="43.4936872" lon="10.7850979"><ele>129.75</ele><time>2026-04-04T10:13:56.033Z</time></trkpt><trkpt lat="43.4937331" lon="10.7849102"><ele>128.5</ele><time>2026-04-04T10:13:57.035Z</time></trkpt><trkpt lat="43.4937712" lon="10.7847571"><ele>127.25</ele><time>2026-04-04T10:13:58.025Z</time></trkpt><trkpt lat="43.4938077" lon="10.7846194"><ele>126.0</ele><time>2026-04-04T10:13:59.02Z</time></trkpt><trkpt lat="43.4938399" lon="10.7844974"><ele>126.0</ele><time>2026-04-04T10:14:00.033Z</time></trkpt><trkpt lat="43.4938799" lon="10.7843931"><ele>126.0</ele><time>2026-04-04T10:14:01.013Z</time></trkpt><trkpt lat="43.4939309" lon="10.784309"><ele>126.0</ele><time>2026-04-04T10:14:02.049Z</time></trkpt><trkpt lat="43.4939936" lon="10.7842357"><ele>126.0</ele><time>2026-04-04T10:14:03.023Z</time></trkpt><trkpt lat="43.4940688" lon="10.7841721"><ele>126.0</ele><time>2026-04-04T10:14:04.023Z</time></trkpt><trkpt lat="43.4941437" lon="10.7841029"><ele>126.0</ele><time>2026-04-04T10:14:05.022Z</time></trkpt><trkpt lat="43.4942211" lon="10.7840382"><ele>126.19999999999999</ele><time>2026-04-04T10:14:06.023Z</time></trkpt><trkpt lat="43.4942977" lon="10.7839819"><ele>126.39999999999999</ele><time>2026-04-04T10:14:07.015Z</time></trkpt><trkpt lat="43.4943752" lon="10.7839249"><ele>126.6</ele><time>2026-04-04T10:14:08.005Z</time></trkpt><trkpt lat="43.4944643" lon="10.7838612"><ele>126.8</ele><time>2026-04-04T10:14:09.015Z</time></trkpt><trkpt lat="43.49457" lon="10.783783"><ele>127.0</ele><time>2026-04-04T10:14:10.017Z</time></trkpt><trkpt lat="43.4946828" lon="10.7836892"><ele>127.0</ele><time>2026-04-04T10:14:11.017Z</time></trkpt><trkpt lat="43.4947951" lon="10.7835917"><ele>127.0</ele><time>2026-04-04T10:14:12.021Z</time></trkpt><trkpt lat="43.4949026" lon="10.7835035"><ele>127.0</ele><time>2026-04-04T10:14:13.014Z</time></trkpt><trkpt lat="43.4950066" lon="10.7834241"><ele>127.0</ele><time>2026-04-04T10:14:14.021Z</time></trkpt><trkpt lat="43.4951067" lon="10.7833495"><ele>126.39999999999999</ele><time>2026-04-04T10:14:15.008Z</time></trkpt><trkpt lat="43.4952054" lon="10.783277"><ele>125.79999999999998</ele><time>2026-04-04T10:14:16.019Z</time></trkpt><trkpt lat="43.4953079" lon="10.7832063"><ele>125.2</ele><time>2026-04-04T10:14:17.022Z</time></trkpt><trkpt lat="43.4954097" lon="10.7831431"><ele>124.6</ele><time>2026-04-04T10:14:18.02Z</time></trkpt><trkpt lat="43.4955068" lon="10.7830848"><ele>124.0</ele><time>2026-04-04T10:14:19.022Z</time></trkpt><trkpt lat="43.4956046" lon="10.7830327"><ele>122.80000000000001</ele><time>2026-04-04T10:14:20.03Z</time></trkpt><trkpt lat="43.4957074" lon="10.7830128"><ele>121.60000000000001</ele><time>2026-04-04T10:14:21.011Z</time></trkpt><trkpt lat="43.4958142" lon="10.7830231"><ele>120.4</ele><time>2026-04-04T10:14:22.018Z</time></trkpt><trkpt lat="43.4959243" lon="10.7830566"><ele>119.2</ele><time>2026-04-04T10:14:23.015Z</time></trkpt><trkpt lat="43.4960342" lon="10.7831043"><ele>118.0</ele><time>2026-04-04T10:14:24.004Z</time></trkpt><trkpt lat="43.4961502" lon="10.7831298"><ele>119.0</ele><time>2026-04-04T10:14:25.026Z</time></trkpt><trkpt lat="43.496278" lon="10.7831381"><ele>120.0</ele><time>2026-04-04T10:14:26.023Z</time></trkpt><trkpt lat="43.4964079" lon="10.7831184"><ele>121.0</ele><time>2026-04-04T10:14:27.012Z</time></trkpt><trkpt lat="43.4965314" lon="10.7830676"><ele>122.0</ele><time>2026-04-04T10:14:28.039Z</time></trkpt><trkpt lat="43.4966547" lon="10.7830097"><ele>122.0</ele><time>2026-04-04T10:14:29.009Z</time></trkpt><trkpt lat="43.4967751" lon="10.7829549"><ele>122.0</ele><time>2026-04-04T10:14:30.03Z</time></trkpt><trkpt lat="43.4968996" lon="10.7829028"><ele>122.0</ele><time>2026-04-04T10:14:31.011Z</time></trkpt><trkpt lat="43.497029" lon="10.7828481"><ele>122.0</ele><time>2026-04-04T10:14:32.043Z</time></trkpt><trkpt lat="43.4971491" lon="10.7827823"><ele>122.8</ele><time>2026-04-04T10:14:33.017Z</time></trkpt><trkpt lat="43.4972612" lon="10.7826986"><ele>123.6</ele><time>2026-04-04T10:14:34.012Z</time></trkpt><trkpt lat="43.497354" lon="10.782596"><ele>124.39999999999999</ele><time>2026-04-04T10:14:35.007Z</time></trkpt><trkpt lat="43.4974363" lon="10.7825025"><ele>125.19999999999999</ele><time>2026-04-04T10:14:36.016Z</time></trkpt><trkpt lat="43.4975075" lon="10.7824209"><ele>126.0</ele><time>2026-04-04T10:14:37.007Z</time></trkpt><trkpt lat="43.4975598" lon="10.7823418"><ele>126.0</ele><time>2026-04-04T10:14:38.009Z</time></trkpt><trkpt lat="43.4976048" lon="10.7822428"><ele>126.0</ele><time>2026-04-04T10:14:39.012Z</time></trkpt><trkpt lat="43.4976414" lon="10.7821297"><ele>126.0</ele><time>2026-04-04T10:14:40.022Z</time></trkpt><trkpt lat="43.4976642" lon="10.7820124"><ele>126.0</ele><time>2026-04-04T10:14:41.014Z</time></trkpt><trkpt lat="43.4976744" lon="10.7818814"><ele>126.0</ele><time>2026-04-04T10:14:42.028Z</time></trkpt><trkpt lat="43.4976807" lon="10.7817451"><ele>126.66666666666667</ele><time>2026-04-04T10:14:43.022Z</time></trkpt><trkpt lat="43.497685" lon="10.7816133"><ele>127.33333333333334</ele><time>2026-04-04T10:14:44.043Z</time></trkpt><trkpt lat="43.497683" lon="10.7815035"><ele>128.0</ele><time>2026-04-04T10:14:45.017Z</time></trkpt><trkpt lat="43.4976859" lon="10.7814045"><ele>128.66666666666669</ele><time>2026-04-04T10:14:46.051Z</time></trkpt><trkpt lat="43.4976898" lon="10.7813058"><ele>129.33333333333334</ele><time>2026-04-04T10:14:47.013Z</time></trkpt><trkpt lat="43.4976916" lon="10.7812105"><ele>130.0</ele><time>2026-04-04T10:14:48.013Z</time></trkpt><trkpt lat="43.4977004" lon="10.781118"><ele>130.0</ele><time>2026-04-04T10:14:49.016Z</time></trkpt><trkpt lat="43.4977119" lon="10.7810288"><ele>130.0</ele><time>2026-04-04T10:14:50.017Z</time></trkpt><trkpt lat="43.497728" lon="10.7809342"><ele>130.0</ele><time>2026-04-04T10:14:51.031Z</time></trkpt><trkpt lat="43.4977359" lon="10.780826"><ele>130.0</ele><time>2026-04-04T10:14:52.016Z</time></trkpt><trkpt lat="43.4977448" lon="10.7807104"><ele>130.0</ele><time>2026-04-04T10:14:53.027Z</time></trkpt><trkpt lat="43.4977539" lon="10.7805957"><ele>130.0</ele><time>2026-04-04T10:14:54.021Z</time></trkpt><trkpt lat="43.4977637" lon="10.7804754"><ele>130.0</ele><time>2026-04-04T10:14:55.013Z</time></trkpt><trkpt lat="43.4977662" lon="10.7803433"><ele>130.0</ele><time>2026-04-04T10:14:56.037Z</time></trkpt><trkpt lat="43.4977674" lon="10.7802076"><ele>130.0</ele><time>2026-04-04T10:14:57.01Z</time></trkpt><trkpt lat="43.4977655" lon="10.7800682"><ele>130.0</ele><time>2026-04-04T10:14:58Z</time></trkpt><trkpt lat="43.4977687" lon="10.7799226"><ele>130.0</ele><time>2026-04-04T10:14:59.021Z</time></trkpt><trkpt lat="43.4977795" lon="10.7797661"><ele>129.5</ele><time>2026-04-04T10:15:00.005Z</time></trkpt><trkpt lat="43.497791" lon="10.7796097"><ele>129.0</ele><time>2026-04-04T10:15:01.013Z</time></trkpt><trkpt lat="43.4978061" lon="10.7794544"><ele>128.5</ele><time>2026-04-04T10:15:02.017Z</time></trkpt><trkpt lat="43.4978197" lon="10.7792961"><ele>128.0</ele><time>2026-04-04T10:15:03.015Z</time></trkpt><trkpt lat="43.4978328" lon="10.7791321"><ele>128.0</ele><time>2026-04-04T10:15:04.009Z</time></trkpt><trkpt lat="43.497845" lon="10.7789645"><ele>128.0</ele><time>2026-04-04T10:15:05.016Z</time></trkpt><trkpt lat="43.4978553" lon="10.7787962"><ele>128.0</ele><time>2026-04-04T10:15:06.009Z</time></trkpt><trkpt lat="43.4978724" lon="10.778632"><ele>128.0</ele><time>2026-04-04T10:15:07.005Z</time></trkpt><trkpt lat="43.4978962" lon="10.7784756"><ele>128.25</ele><time>2026-04-04T10:15:08.012Z</time></trkpt><trkpt lat="43.4979184" lon="10.7783214"><ele>128.5</ele><time>2026-04-04T10:15:09.013Z</time></trkpt><trkpt lat="43.4979287" lon="10.778164"><ele>128.75</ele><time>2026-04-04T10:15:10.016Z</time></trkpt><trkpt lat="43.49793" lon="10.7780077"><ele>129.0</ele><time>2026-04-04T10:15:11.008Z</time></trkpt><trkpt lat="43.497922" lon="10.7778523"><ele>130.5</ele><time>2026-04-04T10:15:12Z</time></trkpt><trkpt lat="43.497912" lon="10.7777013"><ele>132.0</ele><time>2026-04-04T10:15:13.021Z</time></trkpt><trkpt lat="43.4978998" lon="10.7775678"><ele>133.5</ele><time>2026-04-04T10:15:14.008Z</time></trkpt><trkpt lat="43.4978989" lon="10.777456"><ele>135.0</ele><time>2026-04-04T10:15:15.019Z</time></trkpt><trkpt lat="43.497895" lon="10.7773501"><ele>136.5</ele><time>2026-04-04T10:15:16.011Z</time></trkpt><trkpt lat="43.4978919" lon="10.7772564"><ele>138.0</ele><time>2026-04-04T10:15:17.011Z</time></trkpt><trkpt lat="43.4978827" lon="10.7771183"><ele>138.20000000000002</ele><time>2026-04-04T10:15:19.034Z</time></trkpt><trkpt lat="43.4978467" lon="10.7770277"><ele>138.4</ele><time>2026-04-04T10:15:23.011Z</time></trkpt><trkpt lat="43.4978527" lon="10.7769047"><ele>138.60000000000002</ele><time>2026-04-04T10:15:26.007Z</time></trkpt><trkpt lat="43.4978608" lon="10.7767679"><ele>138.8</ele><time>2026-04-04T10:15:28.008Z</time></trkpt><trkpt lat="43.4978609" lon="10.7766323"><ele>139.0</ele><time>2026-04-04T10:15:30.015Z</time></trkpt><trkpt lat="43.4978659" lon="10.7764882"><ele>137.5</ele><time>2026-04-04T10:15:32.002Z</time></trkpt><trkpt lat="43.4978803" lon="10.7763643"><ele>136.0</ele><time>2026-04-04T10:15:35.01Z</time></trkpt><trkpt lat="43.4979042" lon="10.7762258"><ele>134.5</ele><time>2026-04-04T10:15:37.002Z</time></trkpt><trkpt lat="43.4979075" lon="10.7761106"><ele>133.0</ele><time>2026-04-04T10:15:39.014Z</time></trkpt><trkpt lat="43.4978533" lon="10.7760575"><ele>131.5</ele><time>2026-04-04T10:15:55.026Z</time></trkpt><trkpt lat="43.4978" lon="10.7761102"><ele>130.0</ele><time>2026-04-04T10:15:58.003Z</time></trkpt><trkpt lat="43.4978187" lon="10.7762624"><ele>130.0</ele><time>2026-04-04T10:16:00.024Z</time></trkpt><trkpt lat="43.4978407" lon="10.7763572"><ele>130.0</ele><time>2026-04-04T10:16:01.009Z</time></trkpt><trkpt lat="43.4978479" lon="10.7764603"><ele>130.0</ele><time>2026-04-04T10:16:02.02Z</time></trkpt><trkpt lat="43.4978526" lon="10.776565"><ele>130.0</ele><time>2026-04-04T10:16:03.018Z</time></trkpt><trkpt lat="43.497858" lon="10.776667"><ele>130.0</ele><time>2026-04-04T10:16:04.012Z</time></trkpt><trkpt lat="43.4978658" lon="10.7768173"><ele>130.0</ele><time>2026-04-04T10:16:06.021Z</time></trkpt><trkpt lat="43.497866" lon="10.7769376"><ele>139.0</ele><time>2026-04-04T10:16:10.016Z</time></trkpt><trkpt lat="43.4978585" lon="10.7770475"><ele>139.0</ele><time>2026-04-04T10:16:12.02Z</time></trkpt><trkpt lat="43.4977794" lon="10.7771064"><ele>139.0</ele><time>2026-04-04T10:16:15.019Z</time></trkpt><trkpt lat="43.4977473" lon="10.777031"><ele>139.0</ele><time>2026-04-04T10:16:19.032Z</time></trkpt><trkpt lat="43.4977473" lon="10.777031"><ele>139.0</ele><time>2026-04-04T10:16:19.032Z</time></trkpt><trkpt lat="43.4977473" lon="10.777031"><ele>139.0</ele><time>2026-04-04T10:16:19.032Z</time></trkpt><trkpt lat="43.4977473" lon="10.777031"><ele>139.0</ele><time>2026-04-04T10:16:19.032Z</time></trkpt><trkpt lat="43.4977473" lon="10.777031"><ele>139.0</ele><time>2026-04-04T10:16:19.032Z</time></trkpt><trkpt lat="43.4977473" lon="10.777031"><ele>139.0</ele><time>2026-04-04T10:16:19.032Z</time></trkpt><trkpt lat="43.4977473" lon="10.777031"><ele>139.0</ele><time>2026-04-04T10:16:19.032Z</time></trkpt></trkseg></trk></gpx>